<?xml version="1.0" encoding="UTF-8" standalone="no" ?>
<gpx xmlns="http://www.topografix.com/GPX/1/1" xmlns:xsi="http://www.w3.org/2001/XMLSchema-instance" xsi:schemaLocation="http://www.topografix.com/GPX/1/1 http://www.topografix.com/GPX/1/1/gpx.xsd" version="1.1" creator="VisuGPX - https://www.visugpx.com">
  <metadata>
    <name>Variante vers Ecot</name>
    <desc><![CDATA[Variante vers Ecot]]></desc>
  </metadata>
  <trk>
    <name><![CDATA[05/10/2014 9:12]]></name>
    <desc><![CDATA[]]></desc>
    <trkseg>
      <trkpt lat="47.5179" lon="6.77452">
        <ele>399.8</ele>
        <time>2014-10-05T07:12:43.000Z</time>
      </trkpt>
      <trkpt lat="47.51793" lon="6.77457">
        <ele>400</ele>
        <time>2014-10-05T07:12:52.000Z</time>
      </trkpt>
      <trkpt lat="47.51792" lon="6.77459">
        <ele>400</ele>
        <time>2014-10-05T07:12:53.000Z</time>
      </trkpt>
      <trkpt lat="47.51792" lon="6.77463">
        <ele>399.8</ele>
        <time>2014-10-05T07:12:54.000Z</time>
      </trkpt>
      <trkpt lat="47.51794" lon="6.77473">
        <ele>399.2</ele>
        <time>2014-10-05T07:12:55.000Z</time>
      </trkpt>
      <trkpt lat="47.51797" lon="6.77477">
        <ele>398.6</ele>
        <time>2014-10-05T07:13:12.000Z</time>
      </trkpt>
      <trkpt lat="47.51798" lon="6.77477">
        <ele>398.5</ele>
        <time>2014-10-05T07:13:13.000Z</time>
      </trkpt>
      <trkpt lat="47.518" lon="6.77475">
        <ele>358</ele>
        <time>2014-10-05T07:14:15.000Z</time>
      </trkpt>
      <trkpt lat="47.51803" lon="6.77475">
        <ele>357.6</ele>
        <time>2014-10-05T07:14:18.000Z</time>
      </trkpt>
      <trkpt lat="47.51808" lon="6.77466">
        <ele>358.9</ele>
        <time>2014-10-05T07:14:19.000Z</time>
      </trkpt>
      <trkpt lat="47.51809" lon="6.77467">
        <ele>317.1</ele>
        <time>2014-10-05T07:15:46.000Z</time>
      </trkpt>
      <trkpt lat="47.51812" lon="6.77467">
        <ele>327.9</ele>
        <time>2014-10-05T07:15:47.000Z</time>
      </trkpt>
      <trkpt lat="47.51812" lon="6.77462">
        <ele>324.5</ele>
        <time>2014-10-05T07:16:43.000Z</time>
      </trkpt>
      <trkpt lat="47.51812" lon="6.7746">
        <ele>326.5</ele>
        <time>2014-10-05T07:16:44.000Z</time>
      </trkpt>
      <trkpt lat="47.51815" lon="6.77464">
        <ele>349.7</ele>
        <time>2014-10-05T07:17:12.000Z</time>
      </trkpt>
      <trkpt lat="47.51815" lon="6.77466">
        <ele>351.2</ele>
        <time>2014-10-05T07:17:13.000Z</time>
      </trkpt>
      <trkpt lat="47.51813" lon="6.7747">
        <ele>353.2</ele>
        <time>2014-10-05T07:17:15.000Z</time>
      </trkpt>
      <trkpt lat="47.51807" lon="6.77472">
        <ele>351.7</ele>
        <time>2014-10-05T07:17:18.000Z</time>
      </trkpt>
      <trkpt lat="47.51804" lon="6.77472">
        <ele>354.8</ele>
        <time>2014-10-05T07:17:19.000Z</time>
      </trkpt>
      <trkpt lat="47.518" lon="6.77471">
        <ele>356.2</ele>
        <time>2014-10-05T07:17:20.000Z</time>
      </trkpt>
      <trkpt lat="47.51797" lon="6.7747">
        <ele>358.2</ele>
        <time>2014-10-05T07:17:21.000Z</time>
      </trkpt>
      <trkpt lat="47.51794" lon="6.77469">
        <ele>358.8</ele>
        <time>2014-10-05T07:17:22.000Z</time>
      </trkpt>
      <trkpt lat="47.51791" lon="6.77467">
        <ele>359.3</ele>
        <time>2014-10-05T07:17:23.000Z</time>
      </trkpt>
      <trkpt lat="47.51788" lon="6.77466">
        <ele>359.4</ele>
        <time>2014-10-05T07:17:24.000Z</time>
      </trkpt>
      <trkpt lat="47.51784" lon="6.77466">
        <ele>359.8</ele>
        <time>2014-10-05T07:17:25.000Z</time>
      </trkpt>
      <trkpt lat="47.5178" lon="6.77466">
        <ele>360.5</ele>
        <time>2014-10-05T07:17:26.000Z</time>
      </trkpt>
      <trkpt lat="47.51776" lon="6.77466">
        <ele>361.8</ele>
        <time>2014-10-05T07:17:27.000Z</time>
      </trkpt>
      <trkpt lat="47.51772" lon="6.77467">
        <ele>362.4</ele>
        <time>2014-10-05T07:17:28.000Z</time>
      </trkpt>
      <trkpt lat="47.51763" lon="6.77466">
        <ele>360.6</ele>
        <time>2014-10-05T07:17:29.000Z</time>
      </trkpt>
      <trkpt lat="47.51762" lon="6.77466">
        <ele>363.4</ele>
        <time>2014-10-05T07:17:30.000Z</time>
      </trkpt>
      <trkpt lat="47.51758" lon="6.77465">
        <ele>364.4</ele>
        <time>2014-10-05T07:17:31.000Z</time>
      </trkpt>
      <trkpt lat="47.51755" lon="6.77465">
        <ele>364.9</ele>
        <time>2014-10-05T07:17:32.000Z</time>
      </trkpt>
      <trkpt lat="47.51752" lon="6.77465">
        <ele>365.3</ele>
        <time>2014-10-05T07:17:33.000Z</time>
      </trkpt>
      <trkpt lat="47.51748" lon="6.77465">
        <ele>365.5</ele>
        <time>2014-10-05T07:17:34.000Z</time>
      </trkpt>
      <trkpt lat="47.51744" lon="6.77465">
        <ele>366.4</ele>
        <time>2014-10-05T07:17:35.000Z</time>
      </trkpt>
      <trkpt lat="47.51741" lon="6.77466">
        <ele>368.8</ele>
        <time>2014-10-05T07:17:36.000Z</time>
      </trkpt>
      <trkpt lat="47.51737" lon="6.77469">
        <ele>369.8</ele>
        <time>2014-10-05T07:17:37.000Z</time>
      </trkpt>
      <trkpt lat="47.51734" lon="6.77474">
        <ele>371</ele>
        <time>2014-10-05T07:17:38.000Z</time>
      </trkpt>
      <trkpt lat="47.5173" lon="6.77479">
        <ele>371.1</ele>
        <time>2014-10-05T07:17:39.000Z</time>
      </trkpt>
      <trkpt lat="47.51728" lon="6.77484">
        <ele>373.7</ele>
        <time>2014-10-05T07:17:40.000Z</time>
      </trkpt>
      <trkpt lat="47.51727" lon="6.7749">
        <ele>373.3</ele>
        <time>2014-10-05T07:17:41.000Z</time>
      </trkpt>
      <trkpt lat="47.51724" lon="6.77499">
        <ele>374.3</ele>
        <time>2014-10-05T07:17:42.000Z</time>
      </trkpt>
      <trkpt lat="47.51723" lon="6.77506">
        <ele>374.9</ele>
        <time>2014-10-05T07:17:43.000Z</time>
      </trkpt>
      <trkpt lat="47.51722" lon="6.77513">
        <ele>375.1</ele>
        <time>2014-10-05T07:17:44.000Z</time>
      </trkpt>
      <trkpt lat="47.5172" lon="6.77519">
        <ele>376.1</ele>
        <time>2014-10-05T07:17:45.000Z</time>
      </trkpt>
      <trkpt lat="47.51719" lon="6.77524">
        <ele>376.7</ele>
        <time>2014-10-05T07:17:46.000Z</time>
      </trkpt>
      <trkpt lat="47.51717" lon="6.77529">
        <ele>377.6</ele>
        <time>2014-10-05T07:17:47.000Z</time>
      </trkpt>
      <trkpt lat="47.51716" lon="6.77534">
        <ele>377.8</ele>
        <time>2014-10-05T07:17:48.000Z</time>
      </trkpt>
      <trkpt lat="47.51715" lon="6.77538">
        <ele>378.9</ele>
        <time>2014-10-05T07:17:49.000Z</time>
      </trkpt>
      <trkpt lat="47.51712" lon="6.77542">
        <ele>379.3</ele>
        <time>2014-10-05T07:17:50.000Z</time>
      </trkpt>
      <trkpt lat="47.5171" lon="6.77545">
        <ele>381.2</ele>
        <time>2014-10-05T07:17:51.000Z</time>
      </trkpt>
      <trkpt lat="47.51705" lon="6.77541">
        <ele>381.5</ele>
        <time>2014-10-05T07:17:52.000Z</time>
      </trkpt>
      <trkpt lat="47.51701" lon="6.77538">
        <ele>381</ele>
        <time>2014-10-05T07:17:53.000Z</time>
      </trkpt>
      <trkpt lat="47.51697" lon="6.77534">
        <ele>381.6</ele>
        <time>2014-10-05T07:17:54.000Z</time>
      </trkpt>
      <trkpt lat="47.51693" lon="6.7753">
        <ele>381.4</ele>
        <time>2014-10-05T07:17:55.000Z</time>
      </trkpt>
      <trkpt lat="47.5169" lon="6.77527">
        <ele>382.8</ele>
        <time>2014-10-05T07:17:56.000Z</time>
      </trkpt>
      <trkpt lat="47.51686" lon="6.77523">
        <ele>383.3</ele>
        <time>2014-10-05T07:17:57.000Z</time>
      </trkpt>
      <trkpt lat="47.51682" lon="6.77518">
        <ele>383.6</ele>
        <time>2014-10-05T07:17:58.000Z</time>
      </trkpt>
      <trkpt lat="47.51678" lon="6.77514">
        <ele>383.2</ele>
        <time>2014-10-05T07:17:59.000Z</time>
      </trkpt>
      <trkpt lat="47.51674" lon="6.77509">
        <ele>383.7</ele>
        <time>2014-10-05T07:18:00.000Z</time>
      </trkpt>
      <trkpt lat="47.51671" lon="6.77504">
        <ele>383.8</ele>
        <time>2014-10-05T07:18:01.000Z</time>
      </trkpt>
      <trkpt lat="47.51666" lon="6.775">
        <ele>384.2</ele>
        <time>2014-10-05T07:18:02.000Z</time>
      </trkpt>
      <trkpt lat="47.51662" lon="6.77495">
        <ele>384.3</ele>
        <time>2014-10-05T07:18:03.000Z</time>
      </trkpt>
      <trkpt lat="47.51658" lon="6.77491">
        <ele>384.9</ele>
        <time>2014-10-05T07:18:04.000Z</time>
      </trkpt>
      <trkpt lat="47.51655" lon="6.77491">
        <ele>393.4</ele>
        <time>2014-10-05T07:18:22.000Z</time>
      </trkpt>
      <trkpt lat="47.51653" lon="6.7749">
        <ele>393.6</ele>
        <time>2014-10-05T07:18:23.000Z</time>
      </trkpt>
      <trkpt lat="47.51651" lon="6.77486">
        <ele>393.8</ele>
        <time>2014-10-05T07:18:24.000Z</time>
      </trkpt>
      <trkpt lat="47.5165" lon="6.77483">
        <ele>394.3</ele>
        <time>2014-10-05T07:18:25.000Z</time>
      </trkpt>
      <trkpt lat="47.51645" lon="6.77478">
        <ele>393.9</ele>
        <time>2014-10-05T07:18:26.000Z</time>
      </trkpt>
      <trkpt lat="47.51641" lon="6.77473">
        <ele>394.3</ele>
        <time>2014-10-05T07:18:27.000Z</time>
      </trkpt>
      <trkpt lat="47.51637" lon="6.77469">
        <ele>394.3</ele>
        <time>2014-10-05T07:18:28.000Z</time>
      </trkpt>
      <trkpt lat="47.51633" lon="6.77464">
        <ele>394.4</ele>
        <time>2014-10-05T07:18:29.000Z</time>
      </trkpt>
      <trkpt lat="47.51628" lon="6.77459">
        <ele>394.6</ele>
        <time>2014-10-05T07:18:30.000Z</time>
      </trkpt>
      <trkpt lat="47.51624" lon="6.77454">
        <ele>394.1</ele>
        <time>2014-10-05T07:18:31.000Z</time>
      </trkpt>
      <trkpt lat="47.51619" lon="6.77448">
        <ele>394.2</ele>
        <time>2014-10-05T07:18:32.000Z</time>
      </trkpt>
      <trkpt lat="47.51614" lon="6.77443">
        <ele>394.6</ele>
        <time>2014-10-05T07:18:33.000Z</time>
      </trkpt>
      <trkpt lat="47.51609" lon="6.77438">
        <ele>394.7</ele>
        <time>2014-10-05T07:18:34.000Z</time>
      </trkpt>
      <trkpt lat="47.51604" lon="6.77432">
        <ele>394.5</ele>
        <time>2014-10-05T07:18:35.000Z</time>
      </trkpt>
      <trkpt lat="47.51599" lon="6.77426">
        <ele>393.8</ele>
        <time>2014-10-05T07:18:36.000Z</time>
      </trkpt>
      <trkpt lat="47.51594" lon="6.7742">
        <ele>393.6</ele>
        <time>2014-10-05T07:18:37.000Z</time>
      </trkpt>
      <trkpt lat="47.51588" lon="6.77414">
        <ele>393.7</ele>
        <time>2014-10-05T07:18:38.000Z</time>
      </trkpt>
      <trkpt lat="47.51583" lon="6.77407">
        <ele>393.8</ele>
        <time>2014-10-05T07:18:39.000Z</time>
      </trkpt>
      <trkpt lat="47.51577" lon="6.774">
        <ele>394</ele>
        <time>2014-10-05T07:18:40.000Z</time>
      </trkpt>
      <trkpt lat="47.51571" lon="6.77394">
        <ele>394</ele>
        <time>2014-10-05T07:18:41.000Z</time>
      </trkpt>
      <trkpt lat="47.51565" lon="6.77387">
        <ele>393.7</ele>
        <time>2014-10-05T07:18:42.000Z</time>
      </trkpt>
      <trkpt lat="47.51559" lon="6.7738">
        <ele>393.6</ele>
        <time>2014-10-05T07:18:43.000Z</time>
      </trkpt>
      <trkpt lat="47.51554" lon="6.77373">
        <ele>393.4</ele>
        <time>2014-10-05T07:18:44.000Z</time>
      </trkpt>
      <trkpt lat="47.51548" lon="6.77365">
        <ele>393</ele>
        <time>2014-10-05T07:18:45.000Z</time>
      </trkpt>
      <trkpt lat="47.51542" lon="6.77358">
        <ele>392.5</ele>
        <time>2014-10-05T07:18:46.000Z</time>
      </trkpt>
      <trkpt lat="47.51535" lon="6.7735">
        <ele>392.1</ele>
        <time>2014-10-05T07:18:47.000Z</time>
      </trkpt>
      <trkpt lat="47.51529" lon="6.77343">
        <ele>392.2</ele>
        <time>2014-10-05T07:18:48.000Z</time>
      </trkpt>
      <trkpt lat="47.51522" lon="6.77336">
        <ele>392.2</ele>
        <time>2014-10-05T07:18:49.000Z</time>
      </trkpt>
      <trkpt lat="47.51516" lon="6.77328">
        <ele>392.3</ele>
        <time>2014-10-05T07:18:50.000Z</time>
      </trkpt>
      <trkpt lat="47.51509" lon="6.77319">
        <ele>391.9</ele>
        <time>2014-10-05T07:18:51.000Z</time>
      </trkpt>
      <trkpt lat="47.51504" lon="6.7731">
        <ele>391.8</ele>
        <time>2014-10-05T07:18:52.000Z</time>
      </trkpt>
      <trkpt lat="47.51499" lon="6.77299">
        <ele>391.8</ele>
        <time>2014-10-05T07:18:53.000Z</time>
      </trkpt>
      <trkpt lat="47.51496" lon="6.77288">
        <ele>391.5</ele>
        <time>2014-10-05T07:18:54.000Z</time>
      </trkpt>
      <trkpt lat="47.51494" lon="6.77277">
        <ele>391.8</ele>
        <time>2014-10-05T07:18:55.000Z</time>
      </trkpt>
      <trkpt lat="47.51492" lon="6.77265">
        <ele>391.8</ele>
        <time>2014-10-05T07:18:56.000Z</time>
      </trkpt>
      <trkpt lat="47.51491" lon="6.77254">
        <ele>391.6</ele>
        <time>2014-10-05T07:18:57.000Z</time>
      </trkpt>
      <trkpt lat="47.5149" lon="6.77243">
        <ele>391.4</ele>
        <time>2014-10-05T07:18:58.000Z</time>
      </trkpt>
      <trkpt lat="47.5149" lon="6.77233">
        <ele>391.4</ele>
        <time>2014-10-05T07:18:59.000Z</time>
      </trkpt>
      <trkpt lat="47.51489" lon="6.77223">
        <ele>391.3</ele>
        <time>2014-10-05T07:19:00.000Z</time>
      </trkpt>
      <trkpt lat="47.51488" lon="6.77214">
        <ele>391.5</ele>
        <time>2014-10-05T07:19:01.000Z</time>
      </trkpt>
      <trkpt lat="47.51484" lon="6.77206">
        <ele>391.9</ele>
        <time>2014-10-05T07:19:02.000Z</time>
      </trkpt>
      <trkpt lat="47.51478" lon="6.77202">
        <ele>391.4</ele>
        <time>2014-10-05T07:19:03.000Z</time>
      </trkpt>
      <trkpt lat="47.5147" lon="6.77201">
        <ele>390.1</ele>
        <time>2014-10-05T07:19:04.000Z</time>
      </trkpt>
      <trkpt lat="47.51462" lon="6.77203">
        <ele>388.9</ele>
        <time>2014-10-05T07:19:05.000Z</time>
      </trkpt>
      <trkpt lat="47.51453" lon="6.77206">
        <ele>387.6</ele>
        <time>2014-10-05T07:19:06.000Z</time>
      </trkpt>
      <trkpt lat="47.51445" lon="6.77209">
        <ele>387.5</ele>
        <time>2014-10-05T07:19:07.000Z</time>
      </trkpt>
      <trkpt lat="47.51437" lon="6.77212">
        <ele>387.5</ele>
        <time>2014-10-05T07:19:08.000Z</time>
      </trkpt>
      <trkpt lat="47.5143" lon="6.77215">
        <ele>387.1</ele>
        <time>2014-10-05T07:19:09.000Z</time>
      </trkpt>
      <trkpt lat="47.51422" lon="6.77218">
        <ele>386.6</ele>
        <time>2014-10-05T07:19:10.000Z</time>
      </trkpt>
      <trkpt lat="47.51415" lon="6.77222">
        <ele>387.1</ele>
        <time>2014-10-05T07:19:11.000Z</time>
      </trkpt>
      <trkpt lat="47.51408" lon="6.77226">
        <ele>387.5</ele>
        <time>2014-10-05T07:19:12.000Z</time>
      </trkpt>
      <trkpt lat="47.51402" lon="6.77229">
        <ele>387.6</ele>
        <time>2014-10-05T07:19:13.000Z</time>
      </trkpt>
      <trkpt lat="47.51397" lon="6.77233">
        <ele>387.8</ele>
        <time>2014-10-05T07:19:14.000Z</time>
      </trkpt>
      <trkpt lat="47.51391" lon="6.77236">
        <ele>388.1</ele>
        <time>2014-10-05T07:19:15.000Z</time>
      </trkpt>
      <trkpt lat="47.51378" lon="6.77241">
        <ele>388.8</ele>
        <time>2014-10-05T07:19:18.000Z</time>
      </trkpt>
      <trkpt lat="47.51374" lon="6.77246">
        <ele>389</ele>
        <time>2014-10-05T07:19:19.000Z</time>
      </trkpt>
      <trkpt lat="47.5137" lon="6.77249">
        <ele>389.3</ele>
        <time>2014-10-05T07:19:20.000Z</time>
      </trkpt>
      <trkpt lat="47.51366" lon="6.77253">
        <ele>389.3</ele>
        <time>2014-10-05T07:19:21.000Z</time>
      </trkpt>
      <trkpt lat="47.51362" lon="6.77256">
        <ele>389.5</ele>
        <time>2014-10-05T07:19:22.000Z</time>
      </trkpt>
      <trkpt lat="47.51359" lon="6.7726">
        <ele>389.2</ele>
        <time>2014-10-05T07:19:23.000Z</time>
      </trkpt>
      <trkpt lat="47.51355" lon="6.77262">
        <ele>390</ele>
        <time>2014-10-05T07:19:24.000Z</time>
      </trkpt>
      <trkpt lat="47.51352" lon="6.77265">
        <ele>390</ele>
        <time>2014-10-05T07:19:25.000Z</time>
      </trkpt>
      <trkpt lat="47.51348" lon="6.77268">
        <ele>390.7</ele>
        <time>2014-10-05T07:19:26.000Z</time>
      </trkpt>
      <trkpt lat="47.51346" lon="6.77271">
        <ele>390.9</ele>
        <time>2014-10-05T07:19:27.000Z</time>
      </trkpt>
      <trkpt lat="47.51343" lon="6.77273">
        <ele>391.4</ele>
        <time>2014-10-05T07:19:28.000Z</time>
      </trkpt>
      <trkpt lat="47.51339" lon="6.77275">
        <ele>390.7</ele>
        <time>2014-10-05T07:19:29.000Z</time>
      </trkpt>
      <trkpt lat="47.51336" lon="6.77278">
        <ele>390.5</ele>
        <time>2014-10-05T07:19:30.000Z</time>
      </trkpt>
      <trkpt lat="47.51333" lon="6.77279">
        <ele>390.6</ele>
        <time>2014-10-05T07:19:31.000Z</time>
      </trkpt>
      <trkpt lat="47.5133" lon="6.7728">
        <ele>390.7</ele>
        <time>2014-10-05T07:19:32.000Z</time>
      </trkpt>
      <trkpt lat="47.51326" lon="6.77281">
        <ele>391.1</ele>
        <time>2014-10-05T07:19:33.000Z</time>
      </trkpt>
      <trkpt lat="47.51323" lon="6.77281">
        <ele>391.3</ele>
        <time>2014-10-05T07:19:34.000Z</time>
      </trkpt>
      <trkpt lat="47.51319" lon="6.77281">
        <ele>391.4</ele>
        <time>2014-10-05T07:19:35.000Z</time>
      </trkpt>
      <trkpt lat="47.51315" lon="6.7728">
        <ele>391.3</ele>
        <time>2014-10-05T07:19:36.000Z</time>
      </trkpt>
      <trkpt lat="47.51312" lon="6.77278">
        <ele>390.7</ele>
        <time>2014-10-05T07:19:37.000Z</time>
      </trkpt>
      <trkpt lat="47.51308" lon="6.77277">
        <ele>390.8</ele>
        <time>2014-10-05T07:19:38.000Z</time>
      </trkpt>
      <trkpt lat="47.51304" lon="6.77275">
        <ele>391.1</ele>
        <time>2014-10-05T07:19:39.000Z</time>
      </trkpt>
      <trkpt lat="47.513" lon="6.77274">
        <ele>391.6</ele>
        <time>2014-10-05T07:19:40.000Z</time>
      </trkpt>
      <trkpt lat="47.51296" lon="6.77273">
        <ele>392.2</ele>
        <time>2014-10-05T07:19:41.000Z</time>
      </trkpt>
      <trkpt lat="47.51293" lon="6.77272">
        <ele>393.3</ele>
        <time>2014-10-05T07:19:42.000Z</time>
      </trkpt>
      <trkpt lat="47.51289" lon="6.77271">
        <ele>394</ele>
        <time>2014-10-05T07:19:43.000Z</time>
      </trkpt>
      <trkpt lat="47.51286" lon="6.77269">
        <ele>394.6</ele>
        <time>2014-10-05T07:19:44.000Z</time>
      </trkpt>
      <trkpt lat="47.51282" lon="6.77267">
        <ele>394.6</ele>
        <time>2014-10-05T07:19:45.000Z</time>
      </trkpt>
      <trkpt lat="47.51278" lon="6.77265">
        <ele>394.6</ele>
        <time>2014-10-05T07:19:46.000Z</time>
      </trkpt>
      <trkpt lat="47.51274" lon="6.77263">
        <ele>395</ele>
        <time>2014-10-05T07:19:47.000Z</time>
      </trkpt>
      <trkpt lat="47.5127" lon="6.77261">
        <ele>395.1</ele>
        <time>2014-10-05T07:19:48.000Z</time>
      </trkpt>
      <trkpt lat="47.51267" lon="6.77258">
        <ele>395.1</ele>
        <time>2014-10-05T07:19:49.000Z</time>
      </trkpt>
      <trkpt lat="47.51263" lon="6.77255">
        <ele>395.5</ele>
        <time>2014-10-05T07:19:50.000Z</time>
      </trkpt>
      <trkpt lat="47.51259" lon="6.77252">
        <ele>395.4</ele>
        <time>2014-10-05T07:19:51.000Z</time>
      </trkpt>
      <trkpt lat="47.51255" lon="6.77248">
        <ele>395.8</ele>
        <time>2014-10-05T07:19:52.000Z</time>
      </trkpt>
      <trkpt lat="47.51252" lon="6.77244">
        <ele>395.5</ele>
        <time>2014-10-05T07:19:53.000Z</time>
      </trkpt>
      <trkpt lat="47.51249" lon="6.77239">
        <ele>395.7</ele>
        <time>2014-10-05T07:19:54.000Z</time>
      </trkpt>
      <trkpt lat="47.51246" lon="6.77231">
        <ele>395.2</ele>
        <time>2014-10-05T07:19:55.000Z</time>
      </trkpt>
      <trkpt lat="47.51243" lon="6.77226">
        <ele>396.1</ele>
        <time>2014-10-05T07:19:56.000Z</time>
      </trkpt>
      <trkpt lat="47.5124" lon="6.7722">
        <ele>395.5</ele>
        <time>2014-10-05T07:19:57.000Z</time>
      </trkpt>
      <trkpt lat="47.51237" lon="6.77213">
        <ele>395.4</ele>
        <time>2014-10-05T07:19:58.000Z</time>
      </trkpt>
      <trkpt lat="47.51233" lon="6.77207">
        <ele>395</ele>
        <time>2014-10-05T07:19:59.000Z</time>
      </trkpt>
      <trkpt lat="47.5123" lon="6.772">
        <ele>395.5</ele>
        <time>2014-10-05T07:20:00.000Z</time>
      </trkpt>
      <trkpt lat="47.51227" lon="6.77193">
        <ele>395.3</ele>
        <time>2014-10-05T07:20:01.000Z</time>
      </trkpt>
      <trkpt lat="47.51224" lon="6.77187">
        <ele>394.3</ele>
        <time>2014-10-05T07:20:02.000Z</time>
      </trkpt>
      <trkpt lat="47.51221" lon="6.77181">
        <ele>394.3</ele>
        <time>2014-10-05T07:20:03.000Z</time>
      </trkpt>
      <trkpt lat="47.51218" lon="6.77174">
        <ele>393.9</ele>
        <time>2014-10-05T07:20:04.000Z</time>
      </trkpt>
      <trkpt lat="47.51215" lon="6.77168">
        <ele>393.8</ele>
        <time>2014-10-05T07:20:05.000Z</time>
      </trkpt>
      <trkpt lat="47.51211" lon="6.77162">
        <ele>393.6</ele>
        <time>2014-10-05T07:20:06.000Z</time>
      </trkpt>
      <trkpt lat="47.51208" lon="6.77155">
        <ele>393</ele>
        <time>2014-10-05T07:20:07.000Z</time>
      </trkpt>
      <trkpt lat="47.51204" lon="6.77148">
        <ele>392.7</ele>
        <time>2014-10-05T07:20:08.000Z</time>
      </trkpt>
      <trkpt lat="47.512" lon="6.77142">
        <ele>393.1</ele>
        <time>2014-10-05T07:20:09.000Z</time>
      </trkpt>
      <trkpt lat="47.51197" lon="6.77135">
        <ele>392.9</ele>
        <time>2014-10-05T07:20:10.000Z</time>
      </trkpt>
      <trkpt lat="47.51193" lon="6.77127">
        <ele>392.4</ele>
        <time>2014-10-05T07:20:11.000Z</time>
      </trkpt>
      <trkpt lat="47.51189" lon="6.7712">
        <ele>392.9</ele>
        <time>2014-10-05T07:20:12.000Z</time>
      </trkpt>
      <trkpt lat="47.51185" lon="6.77112">
        <ele>392.4</ele>
        <time>2014-10-05T07:20:13.000Z</time>
      </trkpt>
      <trkpt lat="47.51181" lon="6.77104">
        <ele>392</ele>
        <time>2014-10-05T07:20:14.000Z</time>
      </trkpt>
      <trkpt lat="47.51177" lon="6.77096">
        <ele>391.5</ele>
        <time>2014-10-05T07:20:15.000Z</time>
      </trkpt>
      <trkpt lat="47.51167" lon="6.77079">
        <ele>393.2</ele>
        <time>2014-10-05T07:20:18.000Z</time>
      </trkpt>
      <trkpt lat="47.51161" lon="6.77072">
        <ele>393.6</ele>
        <time>2014-10-05T07:20:19.000Z</time>
      </trkpt>
      <trkpt lat="47.51154" lon="6.77065">
        <ele>393.6</ele>
        <time>2014-10-05T07:20:20.000Z</time>
      </trkpt>
      <trkpt lat="47.51149" lon="6.77059">
        <ele>392.8</ele>
        <time>2014-10-05T07:20:21.000Z</time>
      </trkpt>
      <trkpt lat="47.51143" lon="6.77054">
        <ele>390.5</ele>
        <time>2014-10-05T07:20:22.000Z</time>
      </trkpt>
      <trkpt lat="47.51137" lon="6.77049">
        <ele>390.2</ele>
        <time>2014-10-05T07:20:23.000Z</time>
      </trkpt>
      <trkpt lat="47.51132" lon="6.77044">
        <ele>390.5</ele>
        <time>2014-10-05T07:20:24.000Z</time>
      </trkpt>
      <trkpt lat="47.51127" lon="6.77039">
        <ele>390.5</ele>
        <time>2014-10-05T07:20:25.000Z</time>
      </trkpt>
      <trkpt lat="47.51122" lon="6.77035">
        <ele>390.7</ele>
        <time>2014-10-05T07:20:26.000Z</time>
      </trkpt>
      <trkpt lat="47.51117" lon="6.7703">
        <ele>390</ele>
        <time>2014-10-05T07:20:27.000Z</time>
      </trkpt>
      <trkpt lat="47.51113" lon="6.77026">
        <ele>390.4</ele>
        <time>2014-10-05T07:20:28.000Z</time>
      </trkpt>
      <trkpt lat="47.51107" lon="6.77021">
        <ele>390.6</ele>
        <time>2014-10-05T07:20:29.000Z</time>
      </trkpt>
      <trkpt lat="47.51103" lon="6.77016">
        <ele>391.1</ele>
        <time>2014-10-05T07:20:30.000Z</time>
      </trkpt>
      <trkpt lat="47.51098" lon="6.77012">
        <ele>391.1</ele>
        <time>2014-10-05T07:20:31.000Z</time>
      </trkpt>
      <trkpt lat="47.51093" lon="6.77008">
        <ele>391.3</ele>
        <time>2014-10-05T07:20:32.000Z</time>
      </trkpt>
      <trkpt lat="47.51089" lon="6.77001">
        <ele>391.8</ele>
        <time>2014-10-05T07:20:33.000Z</time>
      </trkpt>
      <trkpt lat="47.51085" lon="6.76995">
        <ele>392.1</ele>
        <time>2014-10-05T07:20:34.000Z</time>
      </trkpt>
      <trkpt lat="47.5108" lon="6.7699">
        <ele>392.3</ele>
        <time>2014-10-05T07:20:35.000Z</time>
      </trkpt>
      <trkpt lat="47.51074" lon="6.76986">
        <ele>391.7</ele>
        <time>2014-10-05T07:20:36.000Z</time>
      </trkpt>
      <trkpt lat="47.51068" lon="6.76982">
        <ele>391.6</ele>
        <time>2014-10-05T07:20:37.000Z</time>
      </trkpt>
      <trkpt lat="47.51062" lon="6.76978">
        <ele>390.9</ele>
        <time>2014-10-05T07:20:38.000Z</time>
      </trkpt>
      <trkpt lat="47.51057" lon="6.76973">
        <ele>390.6</ele>
        <time>2014-10-05T07:20:39.000Z</time>
      </trkpt>
      <trkpt lat="47.51051" lon="6.76968">
        <ele>390.6</ele>
        <time>2014-10-05T07:20:40.000Z</time>
      </trkpt>
      <trkpt lat="47.51047" lon="6.76962">
        <ele>389.7</ele>
        <time>2014-10-05T07:20:41.000Z</time>
      </trkpt>
      <trkpt lat="47.51042" lon="6.76958">
        <ele>390.6</ele>
        <time>2014-10-05T07:20:42.000Z</time>
      </trkpt>
      <trkpt lat="47.51037" lon="6.76953">
        <ele>390.7</ele>
        <time>2014-10-05T07:20:43.000Z</time>
      </trkpt>
      <trkpt lat="47.51032" lon="6.76948">
        <ele>390.9</ele>
        <time>2014-10-05T07:20:44.000Z</time>
      </trkpt>
      <trkpt lat="47.51026" lon="6.76945">
        <ele>391.6</ele>
        <time>2014-10-05T07:20:45.000Z</time>
      </trkpt>
      <trkpt lat="47.51021" lon="6.76941">
        <ele>391.8</ele>
        <time>2014-10-05T07:20:46.000Z</time>
      </trkpt>
      <trkpt lat="47.51017" lon="6.76937">
        <ele>393.1</ele>
        <time>2014-10-05T07:20:47.000Z</time>
      </trkpt>
      <trkpt lat="47.51013" lon="6.76933">
        <ele>392.7</ele>
        <time>2014-10-05T07:20:48.000Z</time>
      </trkpt>
      <trkpt lat="47.51009" lon="6.7693">
        <ele>392.9</ele>
        <time>2014-10-05T07:20:49.000Z</time>
      </trkpt>
      <trkpt lat="47.51005" lon="6.76929">
        <ele>391.4</ele>
        <time>2014-10-05T07:20:50.000Z</time>
      </trkpt>
      <trkpt lat="47.51002" lon="6.76925">
        <ele>392.4</ele>
        <time>2014-10-05T07:20:51.000Z</time>
      </trkpt>
      <trkpt lat="47.50998" lon="6.76921">
        <ele>392.2</ele>
        <time>2014-10-05T07:20:52.000Z</time>
      </trkpt>
      <trkpt lat="47.50995" lon="6.76916">
        <ele>392.9</ele>
        <time>2014-10-05T07:20:53.000Z</time>
      </trkpt>
      <trkpt lat="47.50992" lon="6.7691">
        <ele>393.2</ele>
        <time>2014-10-05T07:20:54.000Z</time>
      </trkpt>
      <trkpt lat="47.50988" lon="6.76904">
        <ele>391.8</ele>
        <time>2014-10-05T07:20:55.000Z</time>
      </trkpt>
      <trkpt lat="47.50985" lon="6.76898">
        <ele>391.7</ele>
        <time>2014-10-05T07:20:56.000Z</time>
      </trkpt>
      <trkpt lat="47.5098" lon="6.76895">
        <ele>390.1</ele>
        <time>2014-10-05T07:20:57.000Z</time>
      </trkpt>
      <trkpt lat="47.50976" lon="6.76892">
        <ele>389.8</ele>
        <time>2014-10-05T07:20:58.000Z</time>
      </trkpt>
      <trkpt lat="47.50974" lon="6.76891">
        <ele>393.5</ele>
        <time>2014-10-05T07:20:59.000Z</time>
      </trkpt>
      <trkpt lat="47.50971" lon="6.76889">
        <ele>393.6</ele>
        <time>2014-10-05T07:21:00.000Z</time>
      </trkpt>
      <trkpt lat="47.50967" lon="6.76887">
        <ele>394.1</ele>
        <time>2014-10-05T07:21:01.000Z</time>
      </trkpt>
      <trkpt lat="47.50963" lon="6.76884">
        <ele>395</ele>
        <time>2014-10-05T07:21:02.000Z</time>
      </trkpt>
      <trkpt lat="47.5096" lon="6.76881">
        <ele>395.7</ele>
        <time>2014-10-05T07:21:03.000Z</time>
      </trkpt>
      <trkpt lat="47.50956" lon="6.76879">
        <ele>396.2</ele>
        <time>2014-10-05T07:21:04.000Z</time>
      </trkpt>
      <trkpt lat="47.50952" lon="6.76877">
        <ele>397</ele>
        <time>2014-10-05T07:21:05.000Z</time>
      </trkpt>
      <trkpt lat="47.50948" lon="6.76874">
        <ele>397.3</ele>
        <time>2014-10-05T07:21:06.000Z</time>
      </trkpt>
      <trkpt lat="47.50944" lon="6.7687">
        <ele>396.3</ele>
        <time>2014-10-05T07:21:07.000Z</time>
      </trkpt>
      <trkpt lat="47.5094" lon="6.76866">
        <ele>396.9</ele>
        <time>2014-10-05T07:21:08.000Z</time>
      </trkpt>
      <trkpt lat="47.50937" lon="6.76862">
        <ele>396.8</ele>
        <time>2014-10-05T07:21:09.000Z</time>
      </trkpt>
      <trkpt lat="47.50932" lon="6.76858">
        <ele>395.9</ele>
        <time>2014-10-05T07:21:10.000Z</time>
      </trkpt>
      <trkpt lat="47.50929" lon="6.76853">
        <ele>395.8</ele>
        <time>2014-10-05T07:21:11.000Z</time>
      </trkpt>
      <trkpt lat="47.50926" lon="6.76849">
        <ele>395.1</ele>
        <time>2014-10-05T07:21:12.000Z</time>
      </trkpt>
      <trkpt lat="47.50922" lon="6.76844">
        <ele>394.2</ele>
        <time>2014-10-05T07:21:13.000Z</time>
      </trkpt>
      <trkpt lat="47.5092" lon="6.76839">
        <ele>394.9</ele>
        <time>2014-10-05T07:21:14.000Z</time>
      </trkpt>
      <trkpt lat="47.50918" lon="6.76833">
        <ele>395.3</ele>
        <time>2014-10-05T07:21:15.000Z</time>
      </trkpt>
      <trkpt lat="47.50914" lon="6.7682">
        <ele>396.6</ele>
        <time>2014-10-05T07:21:18.000Z</time>
      </trkpt>
      <trkpt lat="47.50911" lon="6.76815">
        <ele>396.9</ele>
        <time>2014-10-05T07:21:19.000Z</time>
      </trkpt>
      <trkpt lat="47.50908" lon="6.76811">
        <ele>397</ele>
        <time>2014-10-05T07:21:20.000Z</time>
      </trkpt>
      <trkpt lat="47.50906" lon="6.76805">
        <ele>397.2</ele>
        <time>2014-10-05T07:21:21.000Z</time>
      </trkpt>
      <trkpt lat="47.50903" lon="6.768">
        <ele>397.5</ele>
        <time>2014-10-05T07:21:22.000Z</time>
      </trkpt>
      <trkpt lat="47.50901" lon="6.76794">
        <ele>397.5</ele>
        <time>2014-10-05T07:21:23.000Z</time>
      </trkpt>
      <trkpt lat="47.50899" lon="6.76789">
        <ele>398</ele>
        <time>2014-10-05T07:21:24.000Z</time>
      </trkpt>
      <trkpt lat="47.50897" lon="6.76784">
        <ele>398.1</ele>
        <time>2014-10-05T07:21:25.000Z</time>
      </trkpt>
      <trkpt lat="47.50895" lon="6.76779">
        <ele>398.8</ele>
        <time>2014-10-05T07:21:26.000Z</time>
      </trkpt>
      <trkpt lat="47.50893" lon="6.76774">
        <ele>399.2</ele>
        <time>2014-10-05T07:21:27.000Z</time>
      </trkpt>
      <trkpt lat="47.50891" lon="6.76769">
        <ele>400.7</ele>
        <time>2014-10-05T07:21:28.000Z</time>
      </trkpt>
      <trkpt lat="47.50889" lon="6.76765">
        <ele>400.6</ele>
        <time>2014-10-05T07:21:29.000Z</time>
      </trkpt>
      <trkpt lat="47.50887" lon="6.7676">
        <ele>400.8</ele>
        <time>2014-10-05T07:21:30.000Z</time>
      </trkpt>
      <trkpt lat="47.50885" lon="6.76756">
        <ele>400.5</ele>
        <time>2014-10-05T07:21:31.000Z</time>
      </trkpt>
      <trkpt lat="47.50884" lon="6.76751">
        <ele>400.8</ele>
        <time>2014-10-05T07:21:32.000Z</time>
      </trkpt>
      <trkpt lat="47.50882" lon="6.76746">
        <ele>401.2</ele>
        <time>2014-10-05T07:21:33.000Z</time>
      </trkpt>
      <trkpt lat="47.50881" lon="6.76741">
        <ele>400.9</ele>
        <time>2014-10-05T07:21:34.000Z</time>
      </trkpt>
      <trkpt lat="47.50879" lon="6.76735">
        <ele>401.5</ele>
        <time>2014-10-05T07:21:35.000Z</time>
      </trkpt>
      <trkpt lat="47.50878" lon="6.7673">
        <ele>402.4</ele>
        <time>2014-10-05T07:21:36.000Z</time>
      </trkpt>
      <trkpt lat="47.50877" lon="6.76725">
        <ele>402.8</ele>
        <time>2014-10-05T07:21:37.000Z</time>
      </trkpt>
      <trkpt lat="47.50876" lon="6.7672">
        <ele>402.5</ele>
        <time>2014-10-05T07:21:38.000Z</time>
      </trkpt>
      <trkpt lat="47.50874" lon="6.76715">
        <ele>402.7</ele>
        <time>2014-10-05T07:21:39.000Z</time>
      </trkpt>
      <trkpt lat="47.50872" lon="6.7671">
        <ele>403.5</ele>
        <time>2014-10-05T07:21:40.000Z</time>
      </trkpt>
      <trkpt lat="47.5087" lon="6.76706">
        <ele>404.1</ele>
        <time>2014-10-05T07:21:41.000Z</time>
      </trkpt>
      <trkpt lat="47.50868" lon="6.76701">
        <ele>405</ele>
        <time>2014-10-05T07:21:42.000Z</time>
      </trkpt>
      <trkpt lat="47.50867" lon="6.76696">
        <ele>405.3</ele>
        <time>2014-10-05T07:21:43.000Z</time>
      </trkpt>
      <trkpt lat="47.50865" lon="6.76691">
        <ele>404.9</ele>
        <time>2014-10-05T07:21:44.000Z</time>
      </trkpt>
      <trkpt lat="47.50863" lon="6.76687">
        <ele>405.1</ele>
        <time>2014-10-05T07:21:45.000Z</time>
      </trkpt>
      <trkpt lat="47.50861" lon="6.76682">
        <ele>404.7</ele>
        <time>2014-10-05T07:21:46.000Z</time>
      </trkpt>
      <trkpt lat="47.50859" lon="6.76677">
        <ele>404.7</ele>
        <time>2014-10-05T07:21:47.000Z</time>
      </trkpt>
      <trkpt lat="47.50857" lon="6.76673">
        <ele>404.9</ele>
        <time>2014-10-05T07:21:48.000Z</time>
      </trkpt>
      <trkpt lat="47.50855" lon="6.76668">
        <ele>405.6</ele>
        <time>2014-10-05T07:21:49.000Z</time>
      </trkpt>
      <trkpt lat="47.50853" lon="6.76664">
        <ele>405.3</ele>
        <time>2014-10-05T07:21:50.000Z</time>
      </trkpt>
      <trkpt lat="47.50851" lon="6.76659">
        <ele>404.8</ele>
        <time>2014-10-05T07:21:51.000Z</time>
      </trkpt>
      <trkpt lat="47.50849" lon="6.76655">
        <ele>404.6</ele>
        <time>2014-10-05T07:21:52.000Z</time>
      </trkpt>
      <trkpt lat="47.50847" lon="6.7665">
        <ele>404.8</ele>
        <time>2014-10-05T07:21:53.000Z</time>
      </trkpt>
      <trkpt lat="47.50845" lon="6.76646">
        <ele>405.3</ele>
        <time>2014-10-05T07:21:54.000Z</time>
      </trkpt>
      <trkpt lat="47.50843" lon="6.76642">
        <ele>405.3</ele>
        <time>2014-10-05T07:21:55.000Z</time>
      </trkpt>
      <trkpt lat="47.50841" lon="6.76639">
        <ele>405.6</ele>
        <time>2014-10-05T07:21:56.000Z</time>
      </trkpt>
      <trkpt lat="47.50839" lon="6.76636">
        <ele>405.8</ele>
        <time>2014-10-05T07:21:57.000Z</time>
      </trkpt>
      <trkpt lat="47.50837" lon="6.76632">
        <ele>405.9</ele>
        <time>2014-10-05T07:21:58.000Z</time>
      </trkpt>
      <trkpt lat="47.50835" lon="6.76629">
        <ele>407.9</ele>
        <time>2014-10-05T07:21:59.000Z</time>
      </trkpt>
      <trkpt lat="47.50833" lon="6.76626">
        <ele>408.6</ele>
        <time>2014-10-05T07:22:00.000Z</time>
      </trkpt>
      <trkpt lat="47.50832" lon="6.76623">
        <ele>409</ele>
        <time>2014-10-05T07:22:01.000Z</time>
      </trkpt>
      <trkpt lat="47.5083" lon="6.7662">
        <ele>409.1</ele>
        <time>2014-10-05T07:22:02.000Z</time>
      </trkpt>
      <trkpt lat="47.50828" lon="6.76617">
        <ele>409.2</ele>
        <time>2014-10-05T07:22:03.000Z</time>
      </trkpt>
      <trkpt lat="47.50827" lon="6.76613">
        <ele>409.5</ele>
        <time>2014-10-05T07:22:04.000Z</time>
      </trkpt>
      <trkpt lat="47.50825" lon="6.7661">
        <ele>410.4</ele>
        <time>2014-10-05T07:22:05.000Z</time>
      </trkpt>
      <trkpt lat="47.50824" lon="6.76606">
        <ele>410.7</ele>
        <time>2014-10-05T07:22:06.000Z</time>
      </trkpt>
      <trkpt lat="47.50823" lon="6.76602">
        <ele>410.7</ele>
        <time>2014-10-05T07:22:07.000Z</time>
      </trkpt>
      <trkpt lat="47.5082" lon="6.76599">
        <ele>410.6</ele>
        <time>2014-10-05T07:22:09.000Z</time>
      </trkpt>
      <trkpt lat="47.50818" lon="6.766">
        <ele>410.5</ele>
        <time>2014-10-05T07:22:10.000Z</time>
      </trkpt>
      <trkpt lat="47.50815" lon="6.76601">
        <ele>411</ele>
        <time>2014-10-05T07:22:11.000Z</time>
      </trkpt>
      <trkpt lat="47.50813" lon="6.76601">
        <ele>411.2</ele>
        <time>2014-10-05T07:22:12.000Z</time>
      </trkpt>
      <trkpt lat="47.50811" lon="6.76599">
        <ele>411.1</ele>
        <time>2014-10-05T07:22:13.000Z</time>
      </trkpt>
      <trkpt lat="47.5081" lon="6.76596">
        <ele>410.2</ele>
        <time>2014-10-05T07:22:14.000Z</time>
      </trkpt>
      <trkpt lat="47.50808" lon="6.76592">
        <ele>410.9</ele>
        <time>2014-10-05T07:22:15.000Z</time>
      </trkpt>
      <trkpt lat="47.50806" lon="6.76589">
        <ele>410.8</ele>
        <time>2014-10-05T07:22:16.000Z</time>
      </trkpt>
      <trkpt lat="47.50785" lon="6.76594">
        <ele>412.3</ele>
        <time>2014-10-05T07:22:25.000Z</time>
      </trkpt>
      <trkpt lat="47.50783" lon="6.76595">
        <ele>411.3</ele>
        <time>2014-10-05T07:22:26.000Z</time>
      </trkpt>
      <trkpt lat="47.50781" lon="6.76595">
        <ele>409.6</ele>
        <time>2014-10-05T07:22:27.000Z</time>
      </trkpt>
      <trkpt lat="47.50778" lon="6.76595">
        <ele>409.2</ele>
        <time>2014-10-05T07:22:28.000Z</time>
      </trkpt>
      <trkpt lat="47.50774" lon="6.76596">
        <ele>409</ele>
        <time>2014-10-05T07:22:29.000Z</time>
      </trkpt>
      <trkpt lat="47.50772" lon="6.76596">
        <ele>408.4</ele>
        <time>2014-10-05T07:22:30.000Z</time>
      </trkpt>
      <trkpt lat="47.50769" lon="6.76597">
        <ele>408.8</ele>
        <time>2014-10-05T07:22:31.000Z</time>
      </trkpt>
      <trkpt lat="47.50766" lon="6.76597">
        <ele>408.6</ele>
        <time>2014-10-05T07:22:32.000Z</time>
      </trkpt>
      <trkpt lat="47.50763" lon="6.76597">
        <ele>409</ele>
        <time>2014-10-05T07:22:33.000Z</time>
      </trkpt>
      <trkpt lat="47.5076" lon="6.76597">
        <ele>408.9</ele>
        <time>2014-10-05T07:22:34.000Z</time>
      </trkpt>
      <trkpt lat="47.50757" lon="6.76596">
        <ele>408.9</ele>
        <time>2014-10-05T07:22:35.000Z</time>
      </trkpt>
      <trkpt lat="47.50754" lon="6.76596">
        <ele>408.8</ele>
        <time>2014-10-05T07:22:36.000Z</time>
      </trkpt>
      <trkpt lat="47.5075" lon="6.76595">
        <ele>408.9</ele>
        <time>2014-10-05T07:22:37.000Z</time>
      </trkpt>
      <trkpt lat="47.50747" lon="6.76596">
        <ele>409.7</ele>
        <time>2014-10-05T07:22:38.000Z</time>
      </trkpt>
      <trkpt lat="47.50744" lon="6.76597">
        <ele>410.1</ele>
        <time>2014-10-05T07:22:39.000Z</time>
      </trkpt>
      <trkpt lat="47.5074" lon="6.76597">
        <ele>410.4</ele>
        <time>2014-10-05T07:22:40.000Z</time>
      </trkpt>
      <trkpt lat="47.50737" lon="6.76596">
        <ele>410.4</ele>
        <time>2014-10-05T07:22:41.000Z</time>
      </trkpt>
      <trkpt lat="47.50734" lon="6.76595">
        <ele>409.7</ele>
        <time>2014-10-05T07:22:42.000Z</time>
      </trkpt>
      <trkpt lat="47.5073" lon="6.76594">
        <ele>409.8</ele>
        <time>2014-10-05T07:22:43.000Z</time>
      </trkpt>
      <trkpt lat="47.50727" lon="6.76594">
        <ele>409.7</ele>
        <time>2014-10-05T07:22:44.000Z</time>
      </trkpt>
      <trkpt lat="47.50723" lon="6.76593">
        <ele>409.7</ele>
        <time>2014-10-05T07:22:45.000Z</time>
      </trkpt>
      <trkpt lat="47.5072" lon="6.76592">
        <ele>410.1</ele>
        <time>2014-10-05T07:22:46.000Z</time>
      </trkpt>
      <trkpt lat="47.50717" lon="6.76591">
        <ele>410.5</ele>
        <time>2014-10-05T07:22:47.000Z</time>
      </trkpt>
      <trkpt lat="47.50713" lon="6.7659">
        <ele>411.3</ele>
        <time>2014-10-05T07:22:48.000Z</time>
      </trkpt>
      <trkpt lat="47.5071" lon="6.76589">
        <ele>409.4</ele>
        <time>2014-10-05T07:22:49.000Z</time>
      </trkpt>
      <trkpt lat="47.50706" lon="6.76589">
        <ele>409</ele>
        <time>2014-10-05T07:22:50.000Z</time>
      </trkpt>
      <trkpt lat="47.50702" lon="6.76589">
        <ele>409.1</ele>
        <time>2014-10-05T07:22:51.000Z</time>
      </trkpt>
      <trkpt lat="47.50699" lon="6.7659">
        <ele>409.1</ele>
        <time>2014-10-05T07:22:52.000Z</time>
      </trkpt>
      <trkpt lat="47.50695" lon="6.7659">
        <ele>408.9</ele>
        <time>2014-10-05T07:22:53.000Z</time>
      </trkpt>
      <trkpt lat="47.50692" lon="6.7659">
        <ele>409.1</ele>
        <time>2014-10-05T07:22:54.000Z</time>
      </trkpt>
      <trkpt lat="47.50689" lon="6.7659">
        <ele>409.9</ele>
        <time>2014-10-05T07:22:55.000Z</time>
      </trkpt>
      <trkpt lat="47.50686" lon="6.7659">
        <ele>409.1</ele>
        <time>2014-10-05T07:22:56.000Z</time>
      </trkpt>
      <trkpt lat="47.50683" lon="6.7659">
        <ele>409</ele>
        <time>2014-10-05T07:22:57.000Z</time>
      </trkpt>
      <trkpt lat="47.5068" lon="6.76591">
        <ele>409</ele>
        <time>2014-10-05T07:22:58.000Z</time>
      </trkpt>
      <trkpt lat="47.50676" lon="6.76592">
        <ele>408.7</ele>
        <time>2014-10-05T07:22:59.000Z</time>
      </trkpt>
      <trkpt lat="47.50673" lon="6.76592">
        <ele>408.7</ele>
        <time>2014-10-05T07:23:00.000Z</time>
      </trkpt>
      <trkpt lat="47.5067" lon="6.76592">
        <ele>408.8</ele>
        <time>2014-10-05T07:23:01.000Z</time>
      </trkpt>
      <trkpt lat="47.50666" lon="6.76592">
        <ele>408.8</ele>
        <time>2014-10-05T07:23:02.000Z</time>
      </trkpt>
      <trkpt lat="47.50663" lon="6.76593">
        <ele>408.4</ele>
        <time>2014-10-05T07:23:03.000Z</time>
      </trkpt>
      <trkpt lat="47.5066" lon="6.76594">
        <ele>408.2</ele>
        <time>2014-10-05T07:23:04.000Z</time>
      </trkpt>
      <trkpt lat="47.50657" lon="6.76594">
        <ele>407.7</ele>
        <time>2014-10-05T07:23:05.000Z</time>
      </trkpt>
      <trkpt lat="47.50654" lon="6.76595">
        <ele>407.7</ele>
        <time>2014-10-05T07:23:06.000Z</time>
      </trkpt>
      <trkpt lat="47.50651" lon="6.76595">
        <ele>407.7</ele>
        <time>2014-10-05T07:23:07.000Z</time>
      </trkpt>
      <trkpt lat="47.50648" lon="6.76595">
        <ele>407.6</ele>
        <time>2014-10-05T07:23:08.000Z</time>
      </trkpt>
      <trkpt lat="47.50645" lon="6.76596">
        <ele>407.4</ele>
        <time>2014-10-05T07:23:09.000Z</time>
      </trkpt>
      <trkpt lat="47.50642" lon="6.76599">
        <ele>407</ele>
        <time>2014-10-05T07:23:10.000Z</time>
      </trkpt>
      <trkpt lat="47.50639" lon="6.76601">
        <ele>407.3</ele>
        <time>2014-10-05T07:23:11.000Z</time>
      </trkpt>
      <trkpt lat="47.50636" lon="6.76604">
        <ele>407.3</ele>
        <time>2014-10-05T07:23:12.000Z</time>
      </trkpt>
      <trkpt lat="47.50633" lon="6.76607">
        <ele>407.2</ele>
        <time>2014-10-05T07:23:13.000Z</time>
      </trkpt>
      <trkpt lat="47.5063" lon="6.76609">
        <ele>407.1</ele>
        <time>2014-10-05T07:23:14.000Z</time>
      </trkpt>
      <trkpt lat="47.50627" lon="6.76611">
        <ele>407</ele>
        <time>2014-10-05T07:23:15.000Z</time>
      </trkpt>
      <trkpt lat="47.50619" lon="6.76617">
        <ele>406.9</ele>
        <time>2014-10-05T07:23:18.000Z</time>
      </trkpt>
      <trkpt lat="47.50616" lon="6.76619">
        <ele>407.4</ele>
        <time>2014-10-05T07:23:19.000Z</time>
      </trkpt>
      <trkpt lat="47.50613" lon="6.7662">
        <ele>407.8</ele>
        <time>2014-10-05T07:23:20.000Z</time>
      </trkpt>
      <trkpt lat="47.5061" lon="6.76621">
        <ele>407.5</ele>
        <time>2014-10-05T07:23:21.000Z</time>
      </trkpt>
      <trkpt lat="47.50607" lon="6.76622">
        <ele>407.9</ele>
        <time>2014-10-05T07:23:22.000Z</time>
      </trkpt>
      <trkpt lat="47.50604" lon="6.76622">
        <ele>408</ele>
        <time>2014-10-05T07:23:23.000Z</time>
      </trkpt>
      <trkpt lat="47.50601" lon="6.76623">
        <ele>408.7</ele>
        <time>2014-10-05T07:23:24.000Z</time>
      </trkpt>
      <trkpt lat="47.50597" lon="6.76623">
        <ele>409.3</ele>
        <time>2014-10-05T07:23:25.000Z</time>
      </trkpt>
      <trkpt lat="47.50594" lon="6.76624">
        <ele>409.1</ele>
        <time>2014-10-05T07:23:26.000Z</time>
      </trkpt>
      <trkpt lat="47.5059" lon="6.76624">
        <ele>409</ele>
        <time>2014-10-05T07:23:27.000Z</time>
      </trkpt>
      <trkpt lat="47.50587" lon="6.76625">
        <ele>408.1</ele>
        <time>2014-10-05T07:23:28.000Z</time>
      </trkpt>
      <trkpt lat="47.50583" lon="6.76626">
        <ele>408.7</ele>
        <time>2014-10-05T07:23:29.000Z</time>
      </trkpt>
      <trkpt lat="47.50579" lon="6.76627">
        <ele>408.9</ele>
        <time>2014-10-05T07:23:30.000Z</time>
      </trkpt>
      <trkpt lat="47.50576" lon="6.76628">
        <ele>409.8</ele>
        <time>2014-10-05T07:23:31.000Z</time>
      </trkpt>
      <trkpt lat="47.50572" lon="6.76628">
        <ele>409.5</ele>
        <time>2014-10-05T07:23:32.000Z</time>
      </trkpt>
      <trkpt lat="47.50569" lon="6.76628">
        <ele>409.7</ele>
        <time>2014-10-05T07:23:33.000Z</time>
      </trkpt>
      <trkpt lat="47.50566" lon="6.76628">
        <ele>409.8</ele>
        <time>2014-10-05T07:23:34.000Z</time>
      </trkpt>
      <trkpt lat="47.50562" lon="6.76629">
        <ele>410.2</ele>
        <time>2014-10-05T07:23:35.000Z</time>
      </trkpt>
      <trkpt lat="47.50559" lon="6.76629">
        <ele>410.5</ele>
        <time>2014-10-05T07:23:36.000Z</time>
      </trkpt>
      <trkpt lat="47.50556" lon="6.7663">
        <ele>410.3</ele>
        <time>2014-10-05T07:23:37.000Z</time>
      </trkpt>
      <trkpt lat="47.50553" lon="6.76632">
        <ele>410.9</ele>
        <time>2014-10-05T07:23:38.000Z</time>
      </trkpt>
      <trkpt lat="47.50549" lon="6.76633">
        <ele>411.1</ele>
        <time>2014-10-05T07:23:39.000Z</time>
      </trkpt>
      <trkpt lat="47.50546" lon="6.76633">
        <ele>411.4</ele>
        <time>2014-10-05T07:23:40.000Z</time>
      </trkpt>
      <trkpt lat="47.50542" lon="6.76634">
        <ele>411.5</ele>
        <time>2014-10-05T07:23:41.000Z</time>
      </trkpt>
      <trkpt lat="47.50539" lon="6.76635">
        <ele>411.9</ele>
        <time>2014-10-05T07:23:42.000Z</time>
      </trkpt>
      <trkpt lat="47.50536" lon="6.76636">
        <ele>412.2</ele>
        <time>2014-10-05T07:23:43.000Z</time>
      </trkpt>
      <trkpt lat="47.50533" lon="6.76637">
        <ele>412.1</ele>
        <time>2014-10-05T07:23:44.000Z</time>
      </trkpt>
      <trkpt lat="47.5053" lon="6.76638">
        <ele>411.9</ele>
        <time>2014-10-05T07:23:45.000Z</time>
      </trkpt>
      <trkpt lat="47.50526" lon="6.76639">
        <ele>411.7</ele>
        <time>2014-10-05T07:23:46.000Z</time>
      </trkpt>
      <trkpt lat="47.50522" lon="6.76641">
        <ele>411.4</ele>
        <time>2014-10-05T07:23:47.000Z</time>
      </trkpt>
      <trkpt lat="47.50518" lon="6.76641">
        <ele>411.3</ele>
        <time>2014-10-05T07:23:48.000Z</time>
      </trkpt>
      <trkpt lat="47.50514" lon="6.76642">
        <ele>411.5</ele>
        <time>2014-10-05T07:23:49.000Z</time>
      </trkpt>
      <trkpt lat="47.50509" lon="6.76642">
        <ele>410.9</ele>
        <time>2014-10-05T07:23:50.000Z</time>
      </trkpt>
      <trkpt lat="47.50505" lon="6.76643">
        <ele>410.9</ele>
        <time>2014-10-05T07:23:51.000Z</time>
      </trkpt>
      <trkpt lat="47.505" lon="6.76644">
        <ele>410.9</ele>
        <time>2014-10-05T07:23:52.000Z</time>
      </trkpt>
      <trkpt lat="47.50496" lon="6.76646">
        <ele>410.8</ele>
        <time>2014-10-05T07:23:53.000Z</time>
      </trkpt>
      <trkpt lat="47.50492" lon="6.76647">
        <ele>410.6</ele>
        <time>2014-10-05T07:23:54.000Z</time>
      </trkpt>
      <trkpt lat="47.50487" lon="6.76649">
        <ele>410.4</ele>
        <time>2014-10-05T07:23:55.000Z</time>
      </trkpt>
      <trkpt lat="47.50483" lon="6.76651">
        <ele>410.3</ele>
        <time>2014-10-05T07:23:56.000Z</time>
      </trkpt>
      <trkpt lat="47.50479" lon="6.76652">
        <ele>410.1</ele>
        <time>2014-10-05T07:23:57.000Z</time>
      </trkpt>
      <trkpt lat="47.50475" lon="6.76654">
        <ele>410.3</ele>
        <time>2014-10-05T07:23:58.000Z</time>
      </trkpt>
      <trkpt lat="47.5047" lon="6.76656">
        <ele>410</ele>
        <time>2014-10-05T07:23:59.000Z</time>
      </trkpt>
      <trkpt lat="47.50466" lon="6.76657">
        <ele>410.1</ele>
        <time>2014-10-05T07:24:00.000Z</time>
      </trkpt>
      <trkpt lat="47.50462" lon="6.76659">
        <ele>409.7</ele>
        <time>2014-10-05T07:24:01.000Z</time>
      </trkpt>
      <trkpt lat="47.50458" lon="6.76661">
        <ele>410.5</ele>
        <time>2014-10-05T07:24:02.000Z</time>
      </trkpt>
      <trkpt lat="47.50454" lon="6.76663">
        <ele>411.1</ele>
        <time>2014-10-05T07:24:03.000Z</time>
      </trkpt>
      <trkpt lat="47.50449" lon="6.76663">
        <ele>410.8</ele>
        <time>2014-10-05T07:24:04.000Z</time>
      </trkpt>
      <trkpt lat="47.50445" lon="6.76664">
        <ele>410.7</ele>
        <time>2014-10-05T07:24:05.000Z</time>
      </trkpt>
      <trkpt lat="47.50441" lon="6.76666">
        <ele>411.4</ele>
        <time>2014-10-05T07:24:06.000Z</time>
      </trkpt>
      <trkpt lat="47.50437" lon="6.76668">
        <ele>411.6</ele>
        <time>2014-10-05T07:24:07.000Z</time>
      </trkpt>
      <trkpt lat="47.50432" lon="6.7667">
        <ele>411.3</ele>
        <time>2014-10-05T07:24:08.000Z</time>
      </trkpt>
      <trkpt lat="47.50428" lon="6.76672">
        <ele>411.5</ele>
        <time>2014-10-05T07:24:09.000Z</time>
      </trkpt>
      <trkpt lat="47.50424" lon="6.76674">
        <ele>412.3</ele>
        <time>2014-10-05T07:24:10.000Z</time>
      </trkpt>
      <trkpt lat="47.5042" lon="6.76675">
        <ele>411.8</ele>
        <time>2014-10-05T07:24:11.000Z</time>
      </trkpt>
      <trkpt lat="47.50416" lon="6.76678">
        <ele>410.7</ele>
        <time>2014-10-05T07:24:12.000Z</time>
      </trkpt>
      <trkpt lat="47.50411" lon="6.7668">
        <ele>410.3</ele>
        <time>2014-10-05T07:24:13.000Z</time>
      </trkpt>
      <trkpt lat="47.50407" lon="6.76682">
        <ele>410.2</ele>
        <time>2014-10-05T07:24:14.000Z</time>
      </trkpt>
      <trkpt lat="47.50403" lon="6.76683">
        <ele>410.2</ele>
        <time>2014-10-05T07:24:15.000Z</time>
      </trkpt>
      <trkpt lat="47.50392" lon="6.76684">
        <ele>409.3</ele>
        <time>2014-10-05T07:24:18.000Z</time>
      </trkpt>
      <trkpt lat="47.50389" lon="6.76685">
        <ele>408.8</ele>
        <time>2014-10-05T07:24:19.000Z</time>
      </trkpt>
      <trkpt lat="47.50385" lon="6.76687">
        <ele>409.2</ele>
        <time>2014-10-05T07:24:20.000Z</time>
      </trkpt>
      <trkpt lat="47.50381" lon="6.76689">
        <ele>409.2</ele>
        <time>2014-10-05T07:24:21.000Z</time>
      </trkpt>
      <trkpt lat="47.50377" lon="6.76691">
        <ele>409.2</ele>
        <time>2014-10-05T07:24:22.000Z</time>
      </trkpt>
      <trkpt lat="47.50373" lon="6.76693">
        <ele>408.6</ele>
        <time>2014-10-05T07:24:23.000Z</time>
      </trkpt>
      <trkpt lat="47.50368" lon="6.76695">
        <ele>408.8</ele>
        <time>2014-10-05T07:24:24.000Z</time>
      </trkpt>
      <trkpt lat="47.50364" lon="6.76697">
        <ele>408.1</ele>
        <time>2014-10-05T07:24:25.000Z</time>
      </trkpt>
      <trkpt lat="47.5036" lon="6.76699">
        <ele>407.9</ele>
        <time>2014-10-05T07:24:26.000Z</time>
      </trkpt>
      <trkpt lat="47.50356" lon="6.767">
        <ele>407.7</ele>
        <time>2014-10-05T07:24:27.000Z</time>
      </trkpt>
      <trkpt lat="47.50352" lon="6.76702">
        <ele>407.7</ele>
        <time>2014-10-05T07:24:28.000Z</time>
      </trkpt>
      <trkpt lat="47.50348" lon="6.76704">
        <ele>407.4</ele>
        <time>2014-10-05T07:24:29.000Z</time>
      </trkpt>
      <trkpt lat="47.50344" lon="6.76706">
        <ele>407.3</ele>
        <time>2014-10-05T07:24:30.000Z</time>
      </trkpt>
      <trkpt lat="47.5034" lon="6.76708">
        <ele>407.4</ele>
        <time>2014-10-05T07:24:31.000Z</time>
      </trkpt>
      <trkpt lat="47.50336" lon="6.76709">
        <ele>408</ele>
        <time>2014-10-05T07:24:32.000Z</time>
      </trkpt>
      <trkpt lat="47.50332" lon="6.76711">
        <ele>407.7</ele>
        <time>2014-10-05T07:24:33.000Z</time>
      </trkpt>
      <trkpt lat="47.50328" lon="6.76713">
        <ele>408</ele>
        <time>2014-10-05T07:24:34.000Z</time>
      </trkpt>
      <trkpt lat="47.50324" lon="6.76714">
        <ele>408.3</ele>
        <time>2014-10-05T07:24:35.000Z</time>
      </trkpt>
      <trkpt lat="47.50321" lon="6.76715">
        <ele>408.5</ele>
        <time>2014-10-05T07:24:35.998Z</time>
      </trkpt>
      <trkpt lat="47.50317" lon="6.76717">
        <ele>409.2</ele>
        <time>2014-10-05T07:24:37.000Z</time>
      </trkpt>
      <trkpt lat="47.50314" lon="6.76719">
        <ele>409.9</ele>
        <time>2014-10-05T07:24:38.000Z</time>
      </trkpt>
      <trkpt lat="47.50311" lon="6.76721">
        <ele>410.3</ele>
        <time>2014-10-05T07:24:39.000Z</time>
      </trkpt>
      <trkpt lat="47.50308" lon="6.76723">
        <ele>410.5</ele>
        <time>2014-10-05T07:24:40.000Z</time>
      </trkpt>
      <trkpt lat="47.50305" lon="6.76725">
        <ele>410.9</ele>
        <time>2014-10-05T07:24:41.000Z</time>
      </trkpt>
      <trkpt lat="47.50302" lon="6.76727">
        <ele>411.3</ele>
        <time>2014-10-05T07:24:42.000Z</time>
      </trkpt>
      <trkpt lat="47.50298" lon="6.76729">
        <ele>411.2</ele>
        <time>2014-10-05T07:24:43.000Z</time>
      </trkpt>
      <trkpt lat="47.50294" lon="6.7673">
        <ele>411.7</ele>
        <time>2014-10-05T07:24:44.000Z</time>
      </trkpt>
      <trkpt lat="47.5029" lon="6.76731">
        <ele>411.7</ele>
        <time>2014-10-05T07:24:45.000Z</time>
      </trkpt>
      <trkpt lat="47.50286" lon="6.76732">
        <ele>412</ele>
        <time>2014-10-05T07:24:46.000Z</time>
      </trkpt>
      <trkpt lat="47.50283" lon="6.76731">
        <ele>412.1</ele>
        <time>2014-10-05T07:24:47.000Z</time>
      </trkpt>
      <trkpt lat="47.5028" lon="6.76731">
        <ele>412.1</ele>
        <time>2014-10-05T07:24:48.000Z</time>
      </trkpt>
      <trkpt lat="47.50276" lon="6.76731">
        <ele>412.3</ele>
        <time>2014-10-05T07:24:49.000Z</time>
      </trkpt>
      <trkpt lat="47.50273" lon="6.76731">
        <ele>410.9</ele>
        <time>2014-10-05T07:24:50.000Z</time>
      </trkpt>
      <trkpt lat="47.50269" lon="6.76733">
        <ele>410.5</ele>
        <time>2014-10-05T07:24:51.000Z</time>
      </trkpt>
      <trkpt lat="47.50265" lon="6.76735">
        <ele>410</ele>
        <time>2014-10-05T07:24:52.000Z</time>
      </trkpt>
      <trkpt lat="47.5026" lon="6.76737">
        <ele>409.7</ele>
        <time>2014-10-05T07:24:53.000Z</time>
      </trkpt>
      <trkpt lat="47.50256" lon="6.7674">
        <ele>409.3</ele>
        <time>2014-10-05T07:24:54.000Z</time>
      </trkpt>
      <trkpt lat="47.50252" lon="6.76741">
        <ele>410.1</ele>
        <time>2014-10-05T07:24:55.000Z</time>
      </trkpt>
      <trkpt lat="47.50248" lon="6.76741">
        <ele>410.3</ele>
        <time>2014-10-05T07:24:56.000Z</time>
      </trkpt>
      <trkpt lat="47.50245" lon="6.7674">
        <ele>409.9</ele>
        <time>2014-10-05T07:24:57.000Z</time>
      </trkpt>
      <trkpt lat="47.50242" lon="6.76738">
        <ele>409.8</ele>
        <time>2014-10-05T07:24:58.000Z</time>
      </trkpt>
      <trkpt lat="47.5024" lon="6.76734">
        <ele>410</ele>
        <time>2014-10-05T07:24:59.000Z</time>
      </trkpt>
      <trkpt lat="47.50237" lon="6.7673">
        <ele>409.4</ele>
        <time>2014-10-05T07:25:00.000Z</time>
      </trkpt>
      <trkpt lat="47.50235" lon="6.76726">
        <ele>410</ele>
        <time>2014-10-05T07:25:01.000Z</time>
      </trkpt>
      <trkpt lat="47.50233" lon="6.76722">
        <ele>410.1</ele>
        <time>2014-10-05T07:25:02.000Z</time>
      </trkpt>
      <trkpt lat="47.50231" lon="6.76717">
        <ele>410.3</ele>
        <time>2014-10-05T07:25:03.000Z</time>
      </trkpt>
      <trkpt lat="47.50228" lon="6.76712">
        <ele>409.9</ele>
        <time>2014-10-05T07:25:04.000Z</time>
      </trkpt>
      <trkpt lat="47.50226" lon="6.76707">
        <ele>410.1</ele>
        <time>2014-10-05T07:25:05.000Z</time>
      </trkpt>
      <trkpt lat="47.50224" lon="6.76702">
        <ele>410.1</ele>
        <time>2014-10-05T07:25:06.000Z</time>
      </trkpt>
      <trkpt lat="47.50222" lon="6.76697">
        <ele>410.2</ele>
        <time>2014-10-05T07:25:07.000Z</time>
      </trkpt>
      <trkpt lat="47.50219" lon="6.76692">
        <ele>410.4</ele>
        <time>2014-10-05T07:25:08.000Z</time>
      </trkpt>
      <trkpt lat="47.50217" lon="6.76687">
        <ele>410.6</ele>
        <time>2014-10-05T07:25:09.000Z</time>
      </trkpt>
      <trkpt lat="47.50215" lon="6.76681">
        <ele>410.6</ele>
        <time>2014-10-05T07:25:10.000Z</time>
      </trkpt>
      <trkpt lat="47.50214" lon="6.76676">
        <ele>410.8</ele>
        <time>2014-10-05T07:25:11.000Z</time>
      </trkpt>
      <trkpt lat="47.50212" lon="6.7667">
        <ele>410.6</ele>
        <time>2014-10-05T07:25:12.000Z</time>
      </trkpt>
      <trkpt lat="47.5021" lon="6.76665">
        <ele>410.6</ele>
        <time>2014-10-05T07:25:13.000Z</time>
      </trkpt>
      <trkpt lat="47.50208" lon="6.76659">
        <ele>410.8</ele>
        <time>2014-10-05T07:25:14.000Z</time>
      </trkpt>
      <trkpt lat="47.50206" lon="6.76653">
        <ele>410.7</ele>
        <time>2014-10-05T07:25:14.998Z</time>
      </trkpt>
      <trkpt lat="47.50204" lon="6.76647">
        <ele>410.7</ele>
        <time>2014-10-05T07:25:16.000Z</time>
      </trkpt>
      <trkpt lat="47.50199" lon="6.7663">
        <ele>412.1</ele>
        <time>2014-10-05T07:25:19.000Z</time>
      </trkpt>
      <trkpt lat="47.50198" lon="6.76625">
        <ele>411.6</ele>
        <time>2014-10-05T07:25:20.000Z</time>
      </trkpt>
      <trkpt lat="47.50195" lon="6.76618">
        <ele>411.5</ele>
        <time>2014-10-05T07:25:21.000Z</time>
      </trkpt>
      <trkpt lat="47.50194" lon="6.76612">
        <ele>411.5</ele>
        <time>2014-10-05T07:25:22.000Z</time>
      </trkpt>
      <trkpt lat="47.50194" lon="6.76607">
        <ele>411.6</ele>
        <time>2014-10-05T07:25:23.000Z</time>
      </trkpt>
      <trkpt lat="47.50193" lon="6.76602">
        <ele>411.2</ele>
        <time>2014-10-05T07:25:24.000Z</time>
      </trkpt>
      <trkpt lat="47.50194" lon="6.76599">
        <ele>412.1</ele>
        <time>2014-10-05T07:25:25.000Z</time>
      </trkpt>
      <trkpt lat="47.50194" lon="6.76593">
        <ele>413.4</ele>
        <time>2014-10-05T07:25:27.000Z</time>
      </trkpt>
      <trkpt lat="47.50195" lon="6.76589">
        <ele>413.6</ele>
        <time>2014-10-05T07:25:28.000Z</time>
      </trkpt>
      <trkpt lat="47.50195" lon="6.76585">
        <ele>413.7</ele>
        <time>2014-10-05T07:25:29.000Z</time>
      </trkpt>
      <trkpt lat="47.50195" lon="6.76581">
        <ele>413.8</ele>
        <time>2014-10-05T07:25:30.000Z</time>
      </trkpt>
      <trkpt lat="47.50199" lon="6.7658">
        <ele>416.4</ele>
        <time>2014-10-05T07:25:31.000Z</time>
      </trkpt>
      <trkpt lat="47.50203" lon="6.76579">
        <ele>417.1</ele>
        <time>2014-10-05T07:25:32.000Z</time>
      </trkpt>
      <trkpt lat="47.50207" lon="6.76579">
        <ele>418.2</ele>
        <time>2014-10-05T07:25:33.000Z</time>
      </trkpt>
      <trkpt lat="47.50212" lon="6.76579">
        <ele>419</ele>
        <time>2014-10-05T07:25:34.000Z</time>
      </trkpt>
      <trkpt lat="47.50217" lon="6.76579">
        <ele>419.5</ele>
        <time>2014-10-05T07:25:35.000Z</time>
      </trkpt>
      <trkpt lat="47.50222" lon="6.76579">
        <ele>420</ele>
        <time>2014-10-05T07:25:36.000Z</time>
      </trkpt>
      <trkpt lat="47.50226" lon="6.76579">
        <ele>420.7</ele>
        <time>2014-10-05T07:25:37.000Z</time>
      </trkpt>
      <trkpt lat="47.50229" lon="6.76577">
        <ele>421.4</ele>
        <time>2014-10-05T07:25:38.000Z</time>
      </trkpt>
      <trkpt lat="47.50232" lon="6.76574">
        <ele>421.4</ele>
        <time>2014-10-05T07:25:39.000Z</time>
      </trkpt>
      <trkpt lat="47.50233" lon="6.76569">
        <ele>421.2</ele>
        <time>2014-10-05T07:25:40.000Z</time>
      </trkpt>
      <trkpt lat="47.50233" lon="6.76563">
        <ele>421.2</ele>
        <time>2014-10-05T07:25:41.000Z</time>
      </trkpt>
      <trkpt lat="47.50233" lon="6.76555">
        <ele>421.1</ele>
        <time>2014-10-05T07:25:42.000Z</time>
      </trkpt>
      <trkpt lat="47.50225" lon="6.76532">
        <ele>421</ele>
        <time>2014-10-05T07:25:43.000Z</time>
      </trkpt>
      <trkpt lat="47.50222" lon="6.76522">
        <ele>421.2</ele>
        <time>2014-10-05T07:25:44.000Z</time>
      </trkpt>
      <trkpt lat="47.50221" lon="6.76514">
        <ele>420.8</ele>
        <time>2014-10-05T07:25:45.000Z</time>
      </trkpt>
      <trkpt lat="47.50217" lon="6.76504">
        <ele>420.6</ele>
        <time>2014-10-05T07:25:46.000Z</time>
      </trkpt>
      <trkpt lat="47.50214" lon="6.76494">
        <ele>420.1</ele>
        <time>2014-10-05T07:25:47.000Z</time>
      </trkpt>
      <trkpt lat="47.50212" lon="6.76482">
        <ele>419.8</ele>
        <time>2014-10-05T07:25:48.000Z</time>
      </trkpt>
      <trkpt lat="47.5021" lon="6.7647">
        <ele>419.3</ele>
        <time>2014-10-05T07:25:49.000Z</time>
      </trkpt>
      <trkpt lat="47.50207" lon="6.76458">
        <ele>419.1</ele>
        <time>2014-10-05T07:25:50.000Z</time>
      </trkpt>
      <trkpt lat="47.50205" lon="6.76448">
        <ele>419.1</ele>
        <time>2014-10-05T07:25:51.000Z</time>
      </trkpt>
      <trkpt lat="47.50202" lon="6.76436">
        <ele>419.1</ele>
        <time>2014-10-05T07:25:52.000Z</time>
      </trkpt>
      <trkpt lat="47.50201" lon="6.76424">
        <ele>418.9</ele>
        <time>2014-10-05T07:25:53.000Z</time>
      </trkpt>
      <trkpt lat="47.50198" lon="6.76413">
        <ele>418.7</ele>
        <time>2014-10-05T07:25:54.000Z</time>
      </trkpt>
      <trkpt lat="47.50195" lon="6.76403">
        <ele>418.8</ele>
        <time>2014-10-05T07:25:55.000Z</time>
      </trkpt>
      <trkpt lat="47.50192" lon="6.76392">
        <ele>419</ele>
        <time>2014-10-05T07:25:56.000Z</time>
      </trkpt>
      <trkpt lat="47.50189" lon="6.76384">
        <ele>419.2</ele>
        <time>2014-10-05T07:25:57.000Z</time>
      </trkpt>
      <trkpt lat="47.50186" lon="6.76372">
        <ele>419.4</ele>
        <time>2014-10-05T07:25:58.000Z</time>
      </trkpt>
      <trkpt lat="47.50183" lon="6.76361">
        <ele>419.1</ele>
        <time>2014-10-05T07:25:59.000Z</time>
      </trkpt>
      <trkpt lat="47.5018" lon="6.76348">
        <ele>418.7</ele>
        <time>2014-10-05T07:26:00.000Z</time>
      </trkpt>
      <trkpt lat="47.50177" lon="6.76337">
        <ele>419.1</ele>
        <time>2014-10-05T07:26:01.000Z</time>
      </trkpt>
      <trkpt lat="47.50175" lon="6.76325">
        <ele>418.9</ele>
        <time>2014-10-05T07:26:02.000Z</time>
      </trkpt>
      <trkpt lat="47.50173" lon="6.76314">
        <ele>419.9</ele>
        <time>2014-10-05T07:26:03.000Z</time>
      </trkpt>
      <trkpt lat="47.50171" lon="6.76301">
        <ele>419.8</ele>
        <time>2014-10-05T07:26:04.000Z</time>
      </trkpt>
      <trkpt lat="47.50168" lon="6.76288">
        <ele>419.6</ele>
        <time>2014-10-05T07:26:05.000Z</time>
      </trkpt>
      <trkpt lat="47.50167" lon="6.76278">
        <ele>419.3</ele>
        <time>2014-10-05T07:26:06.000Z</time>
      </trkpt>
      <trkpt lat="47.50164" lon="6.76268">
        <ele>419.6</ele>
        <time>2014-10-05T07:26:07.000Z</time>
      </trkpt>
      <trkpt lat="47.50161" lon="6.76255">
        <ele>419.7</ele>
        <time>2014-10-05T07:26:08.000Z</time>
      </trkpt>
      <trkpt lat="47.50159" lon="6.76243">
        <ele>419.5</ele>
        <time>2014-10-05T07:26:09.000Z</time>
      </trkpt>
      <trkpt lat="47.50157" lon="6.7623">
        <ele>419.6</ele>
        <time>2014-10-05T07:26:10.000Z</time>
      </trkpt>
      <trkpt lat="47.50154" lon="6.7622">
        <ele>419.3</ele>
        <time>2014-10-05T07:26:11.000Z</time>
      </trkpt>
      <trkpt lat="47.50154" lon="6.7621">
        <ele>419.1</ele>
        <time>2014-10-05T07:26:12.000Z</time>
      </trkpt>
      <trkpt lat="47.50152" lon="6.76198">
        <ele>418.8</ele>
        <time>2014-10-05T07:26:13.000Z</time>
      </trkpt>
      <trkpt lat="47.50151" lon="6.76187">
        <ele>418.3</ele>
        <time>2014-10-05T07:26:14.000Z</time>
      </trkpt>
      <trkpt lat="47.5015" lon="6.76175">
        <ele>418.3</ele>
        <time>2014-10-05T07:26:15.000Z</time>
      </trkpt>
      <trkpt lat="47.50148" lon="6.76155">
        <ele>419.1</ele>
        <time>2014-10-05T07:26:18.000Z</time>
      </trkpt>
      <trkpt lat="47.50146" lon="6.76147">
        <ele>419</ele>
        <time>2014-10-05T07:26:19.000Z</time>
      </trkpt>
      <trkpt lat="47.50144" lon="6.76137">
        <ele>419</ele>
        <time>2014-10-05T07:26:20.000Z</time>
      </trkpt>
      <trkpt lat="47.50143" lon="6.76125">
        <ele>418.8</ele>
        <time>2014-10-05T07:26:21.000Z</time>
      </trkpt>
      <trkpt lat="47.50141" lon="6.76117">
        <ele>418.6</ele>
        <time>2014-10-05T07:26:22.000Z</time>
      </trkpt>
      <trkpt lat="47.50137" lon="6.76104">
        <ele>418.6</ele>
        <time>2014-10-05T07:26:23.000Z</time>
      </trkpt>
      <trkpt lat="47.50136" lon="6.76089">
        <ele>416.6</ele>
        <time>2014-10-05T07:26:24.000Z</time>
      </trkpt>
      <trkpt lat="47.50135" lon="6.76071">
        <ele>416.7</ele>
        <time>2014-10-05T07:26:25.000Z</time>
      </trkpt>
      <trkpt lat="47.50133" lon="6.76055">
        <ele>416.6</ele>
        <time>2014-10-05T07:26:26.000Z</time>
      </trkpt>
      <trkpt lat="47.50129" lon="6.7604">
        <ele>415.9</ele>
        <time>2014-10-05T07:26:27.000Z</time>
      </trkpt>
      <trkpt lat="47.50125" lon="6.76024">
        <ele>415.4</ele>
        <time>2014-10-05T07:26:28.000Z</time>
      </trkpt>
      <trkpt lat="47.5012" lon="6.76007">
        <ele>415.4</ele>
        <time>2014-10-05T07:26:29.000Z</time>
      </trkpt>
      <trkpt lat="47.50116" lon="6.75995">
        <ele>416.5</ele>
        <time>2014-10-05T07:26:30.000Z</time>
      </trkpt>
      <trkpt lat="47.5011" lon="6.75984">
        <ele>416.9</ele>
        <time>2014-10-05T07:26:31.000Z</time>
      </trkpt>
      <trkpt lat="47.50106" lon="6.75975">
        <ele>417</ele>
        <time>2014-10-05T07:26:32.000Z</time>
      </trkpt>
      <trkpt lat="47.50102" lon="6.75966">
        <ele>417.5</ele>
        <time>2014-10-05T07:26:33.000Z</time>
      </trkpt>
      <trkpt lat="47.50098" lon="6.75956">
        <ele>417.5</ele>
        <time>2014-10-05T07:26:34.000Z</time>
      </trkpt>
      <trkpt lat="47.50092" lon="6.75952">
        <ele>417.9</ele>
        <time>2014-10-05T07:26:35.000Z</time>
      </trkpt>
      <trkpt lat="47.50087" lon="6.75942">
        <ele>418.1</ele>
        <time>2014-10-05T07:26:36.000Z</time>
      </trkpt>
      <trkpt lat="47.50081" lon="6.7593">
        <ele>418.4</ele>
        <time>2014-10-05T07:26:37.000Z</time>
      </trkpt>
      <trkpt lat="47.50076" lon="6.75918">
        <ele>418.2</ele>
        <time>2014-10-05T07:26:38.000Z</time>
      </trkpt>
      <trkpt lat="47.50072" lon="6.75912">
        <ele>418.1</ele>
        <time>2014-10-05T07:26:39.000Z</time>
      </trkpt>
      <trkpt lat="47.50068" lon="6.75903">
        <ele>418.1</ele>
        <time>2014-10-05T07:26:40.000Z</time>
      </trkpt>
      <trkpt lat="47.50062" lon="6.75894">
        <ele>417.8</ele>
        <time>2014-10-05T07:26:41.000Z</time>
      </trkpt>
      <trkpt lat="47.50057" lon="6.75885">
        <ele>417.5</ele>
        <time>2014-10-05T07:26:42.000Z</time>
      </trkpt>
      <trkpt lat="47.50054" lon="6.75875">
        <ele>417.6</ele>
        <time>2014-10-05T07:26:43.000Z</time>
      </trkpt>
      <trkpt lat="47.50049" lon="6.75865">
        <ele>417.5</ele>
        <time>2014-10-05T07:26:44.000Z</time>
      </trkpt>
      <trkpt lat="47.50044" lon="6.75855">
        <ele>417.4</ele>
        <time>2014-10-05T07:26:45.000Z</time>
      </trkpt>
      <trkpt lat="47.50041" lon="6.75848">
        <ele>417.4</ele>
        <time>2014-10-05T07:26:46.000Z</time>
      </trkpt>
      <trkpt lat="47.50036" lon="6.75839">
        <ele>416.7</ele>
        <time>2014-10-05T07:26:47.000Z</time>
      </trkpt>
      <trkpt lat="47.50031" lon="6.75829">
        <ele>415.3</ele>
        <time>2014-10-05T07:26:48.000Z</time>
      </trkpt>
      <trkpt lat="47.50025" lon="6.75822">
        <ele>414.2</ele>
        <time>2014-10-05T07:26:49.000Z</time>
      </trkpt>
      <trkpt lat="47.50021" lon="6.75815">
        <ele>414</ele>
        <time>2014-10-05T07:26:50.000Z</time>
      </trkpt>
      <trkpt lat="47.50017" lon="6.75808">
        <ele>413.2</ele>
        <time>2014-10-05T07:26:51.000Z</time>
      </trkpt>
      <trkpt lat="47.50015" lon="6.75801">
        <ele>413.9</ele>
        <time>2014-10-05T07:26:52.000Z</time>
      </trkpt>
      <trkpt lat="47.5001" lon="6.7579">
        <ele>412.7</ele>
        <time>2014-10-05T07:26:53.000Z</time>
      </trkpt>
      <trkpt lat="47.50001" lon="6.75778">
        <ele>412</ele>
        <time>2014-10-05T07:26:54.000Z</time>
      </trkpt>
      <trkpt lat="47.49994" lon="6.75768">
        <ele>411.7</ele>
        <time>2014-10-05T07:26:55.000Z</time>
      </trkpt>
      <trkpt lat="47.49987" lon="6.75759">
        <ele>410.7</ele>
        <time>2014-10-05T07:26:56.000Z</time>
      </trkpt>
      <trkpt lat="47.49974" lon="6.75747">
        <ele>405.2</ele>
        <time>2014-10-05T07:26:57.000Z</time>
      </trkpt>
      <trkpt lat="47.49965" lon="6.75733">
        <ele>401.6</ele>
        <time>2014-10-05T07:26:58.000Z</time>
      </trkpt>
      <trkpt lat="47.49958" lon="6.75722">
        <ele>400.4</ele>
        <time>2014-10-05T07:26:59.000Z</time>
      </trkpt>
      <trkpt lat="47.49941" lon="6.75714">
        <ele>392.7</ele>
        <time>2014-10-05T07:27:00.000Z</time>
      </trkpt>
      <trkpt lat="47.49933" lon="6.75706">
        <ele>391.7</ele>
        <time>2014-10-05T07:27:01.000Z</time>
      </trkpt>
      <trkpt lat="47.49923" lon="6.75706">
        <ele>390.1</ele>
        <time>2014-10-05T07:27:02.000Z</time>
      </trkpt>
      <trkpt lat="47.49911" lon="6.75706">
        <ele>387.4</ele>
        <time>2014-10-05T07:27:03.000Z</time>
      </trkpt>
      <trkpt lat="47.49902" lon="6.75704">
        <ele>386.9</ele>
        <time>2014-10-05T07:27:04.000Z</time>
      </trkpt>
      <trkpt lat="47.49895" lon="6.75705">
        <ele>387.1</ele>
        <time>2014-10-05T07:27:05.000Z</time>
      </trkpt>
      <trkpt lat="47.49887" lon="6.75707">
        <ele>387</ele>
        <time>2014-10-05T07:27:06.000Z</time>
      </trkpt>
      <trkpt lat="47.49877" lon="6.75707">
        <ele>387</ele>
        <time>2014-10-05T07:27:07.000Z</time>
      </trkpt>
      <trkpt lat="47.49864" lon="6.7571">
        <ele>383.5</ele>
        <time>2014-10-05T07:27:08.000Z</time>
      </trkpt>
      <trkpt lat="47.49853" lon="6.75713">
        <ele>381.3</ele>
        <time>2014-10-05T07:27:09.000Z</time>
      </trkpt>
      <trkpt lat="47.49844" lon="6.75713">
        <ele>380.6</ele>
        <time>2014-10-05T07:27:10.000Z</time>
      </trkpt>
      <trkpt lat="47.49834" lon="6.75716">
        <ele>380.4</ele>
        <time>2014-10-05T07:27:11.000Z</time>
      </trkpt>
      <trkpt lat="47.49823" lon="6.75721">
        <ele>379.7</ele>
        <time>2014-10-05T07:27:12.000Z</time>
      </trkpt>
      <trkpt lat="47.49809" lon="6.75721">
        <ele>375.8</ele>
        <time>2014-10-05T07:27:13.000Z</time>
      </trkpt>
      <trkpt lat="47.49797" lon="6.75723">
        <ele>374.9</ele>
        <time>2014-10-05T07:27:14.000Z</time>
      </trkpt>
      <trkpt lat="47.49786" lon="6.75726">
        <ele>372.8</ele>
        <time>2014-10-05T07:27:15.000Z</time>
      </trkpt>
      <trkpt lat="47.49764" lon="6.75731">
        <ele>371</ele>
        <time>2014-10-05T07:27:18.000Z</time>
      </trkpt>
      <trkpt lat="47.49757" lon="6.75731">
        <ele>371.6</ele>
        <time>2014-10-05T07:27:19.000Z</time>
      </trkpt>
      <trkpt lat="47.49751" lon="6.75731">
        <ele>372.2</ele>
        <time>2014-10-05T07:27:20.000Z</time>
      </trkpt>
      <trkpt lat="47.49742" lon="6.75735">
        <ele>372.3</ele>
        <time>2014-10-05T07:27:21.000Z</time>
      </trkpt>
      <trkpt lat="47.49733" lon="6.75738">
        <ele>372.3</ele>
        <time>2014-10-05T07:27:22.000Z</time>
      </trkpt>
      <trkpt lat="47.49724" lon="6.75737">
        <ele>372.2</ele>
        <time>2014-10-05T07:27:23.000Z</time>
      </trkpt>
      <trkpt lat="47.49714" lon="6.7574">
        <ele>371.8</ele>
        <time>2014-10-05T07:27:24.000Z</time>
      </trkpt>
      <trkpt lat="47.49705" lon="6.75744">
        <ele>371.1</ele>
        <time>2014-10-05T07:27:25.000Z</time>
      </trkpt>
      <trkpt lat="47.49696" lon="6.75745">
        <ele>371</ele>
        <time>2014-10-05T07:27:26.000Z</time>
      </trkpt>
      <trkpt lat="47.49688" lon="6.75748">
        <ele>370.7</ele>
        <time>2014-10-05T07:27:27.000Z</time>
      </trkpt>
      <trkpt lat="47.49679" lon="6.75751">
        <ele>370.9</ele>
        <time>2014-10-05T07:27:28.000Z</time>
      </trkpt>
      <trkpt lat="47.4967" lon="6.75749">
        <ele>369.6</ele>
        <time>2014-10-05T07:27:29.000Z</time>
      </trkpt>
      <trkpt lat="47.49664" lon="6.75752">
        <ele>366.4</ele>
        <time>2014-10-05T07:27:30.000Z</time>
      </trkpt>
      <trkpt lat="47.49652" lon="6.75752">
        <ele>362.6</ele>
        <time>2014-10-05T07:27:31.000Z</time>
      </trkpt>
      <trkpt lat="47.49634" lon="6.75756">
        <ele>358.6</ele>
        <time>2014-10-05T07:27:32.000Z</time>
      </trkpt>
      <trkpt lat="47.49621" lon="6.75759">
        <ele>357.1</ele>
        <time>2014-10-05T07:27:33.000Z</time>
      </trkpt>
      <trkpt lat="47.49612" lon="6.75763">
        <ele>357</ele>
        <time>2014-10-05T07:27:34.000Z</time>
      </trkpt>
      <trkpt lat="47.49605" lon="6.75761">
        <ele>357.3</ele>
        <time>2014-10-05T07:27:35.000Z</time>
      </trkpt>
      <trkpt lat="47.49599" lon="6.75759">
        <ele>356.8</ele>
        <time>2014-10-05T07:27:36.000Z</time>
      </trkpt>
      <trkpt lat="47.49591" lon="6.7576">
        <ele>356.7</ele>
        <time>2014-10-05T07:27:37.000Z</time>
      </trkpt>
      <trkpt lat="47.49585" lon="6.75759">
        <ele>356.4</ele>
        <time>2014-10-05T07:27:38.000Z</time>
      </trkpt>
      <trkpt lat="47.49581" lon="6.75756">
        <ele>356.6</ele>
        <time>2014-10-05T07:27:39.000Z</time>
      </trkpt>
      <trkpt lat="47.49577" lon="6.75753">
        <ele>356.9</ele>
        <time>2014-10-05T07:27:40.000Z</time>
      </trkpt>
      <trkpt lat="47.49575" lon="6.75749">
        <ele>357</ele>
        <time>2014-10-05T07:27:41.000Z</time>
      </trkpt>
      <trkpt lat="47.49574" lon="6.75743">
        <ele>354</ele>
        <time>2014-10-05T07:27:44.000Z</time>
      </trkpt>
      <trkpt lat="47.49565" lon="6.75747">
        <ele>348.1</ele>
        <time>2014-10-05T07:27:45.000Z</time>
      </trkpt>
      <trkpt lat="47.49563" lon="6.75744">
        <ele>343</ele>
        <time>2014-10-05T07:27:47.000Z</time>
      </trkpt>
      <trkpt lat="47.49566" lon="6.7574">
        <ele>341.1</ele>
        <time>2014-10-05T07:27:48.000Z</time>
      </trkpt>
      <trkpt lat="47.49569" lon="6.75738">
        <ele>340.3</ele>
        <time>2014-10-05T07:27:49.000Z</time>
      </trkpt>
      <trkpt lat="47.49572" lon="6.75736">
        <ele>340.2</ele>
        <time>2014-10-05T07:27:50.000Z</time>
      </trkpt>
      <trkpt lat="47.49575" lon="6.75733">
        <ele>340.1</ele>
        <time>2014-10-05T07:27:51.000Z</time>
      </trkpt>
      <trkpt lat="47.49579" lon="6.7573">
        <ele>340.3</ele>
        <time>2014-10-05T07:27:52.000Z</time>
      </trkpt>
      <trkpt lat="47.49583" lon="6.7572">
        <ele>338.1</ele>
        <time>2014-10-05T07:27:53.000Z</time>
      </trkpt>
      <trkpt lat="47.49586" lon="6.75715">
        <ele>337.4</ele>
        <time>2014-10-05T07:27:54.000Z</time>
      </trkpt>
      <trkpt lat="47.49589" lon="6.75708">
        <ele>338</ele>
        <time>2014-10-05T07:27:55.000Z</time>
      </trkpt>
      <trkpt lat="47.49593" lon="6.75705">
        <ele>336.8</ele>
        <time>2014-10-05T07:27:56.000Z</time>
      </trkpt>
      <trkpt lat="47.49594" lon="6.75697">
        <ele>335.5</ele>
        <time>2014-10-05T07:27:57.000Z</time>
      </trkpt>
      <trkpt lat="47.49592" lon="6.75691">
        <ele>335.2</ele>
        <time>2014-10-05T07:27:58.000Z</time>
      </trkpt>
      <trkpt lat="47.4959" lon="6.75684">
        <ele>335.9</ele>
        <time>2014-10-05T07:27:59.000Z</time>
      </trkpt>
      <trkpt lat="47.49589" lon="6.7568">
        <ele>335.3</ele>
        <time>2014-10-05T07:28:00.000Z</time>
      </trkpt>
      <trkpt lat="47.49585" lon="6.75673">
        <ele>335.1</ele>
        <time>2014-10-05T07:28:01.000Z</time>
      </trkpt>
      <trkpt lat="47.49583" lon="6.75668">
        <ele>335.2</ele>
        <time>2014-10-05T07:28:02.000Z</time>
      </trkpt>
      <trkpt lat="47.49575" lon="6.75668">
        <ele>335.2</ele>
        <time>2014-10-05T07:28:03.000Z</time>
      </trkpt>
      <trkpt lat="47.49569" lon="6.75668">
        <ele>334.9</ele>
        <time>2014-10-05T07:28:04.000Z</time>
      </trkpt>
      <trkpt lat="47.49561" lon="6.75673">
        <ele>332.1</ele>
        <time>2014-10-05T07:28:05.000Z</time>
      </trkpt>
      <trkpt lat="47.49557" lon="6.75678">
        <ele>332</ele>
        <time>2014-10-05T07:28:06.000Z</time>
      </trkpt>
      <trkpt lat="47.49555" lon="6.75683">
        <ele>330.3</ele>
        <time>2014-10-05T07:28:07.000Z</time>
      </trkpt>
      <trkpt lat="47.4955" lon="6.75685">
        <ele>328.1</ele>
        <time>2014-10-05T07:28:08.000Z</time>
      </trkpt>
      <trkpt lat="47.49545" lon="6.75688">
        <ele>327.6</ele>
        <time>2014-10-05T07:28:09.000Z</time>
      </trkpt>
      <trkpt lat="47.49542" lon="6.75693">
        <ele>326.4</ele>
        <time>2014-10-05T07:28:10.000Z</time>
      </trkpt>
      <trkpt lat="47.49539" lon="6.75699">
        <ele>325.6</ele>
        <time>2014-10-05T07:28:11.000Z</time>
      </trkpt>
      <trkpt lat="47.49534" lon="6.75704">
        <ele>326.2</ele>
        <time>2014-10-05T07:28:12.000Z</time>
      </trkpt>
      <trkpt lat="47.4953" lon="6.75708">
        <ele>325.8</ele>
        <time>2014-10-05T07:28:13.000Z</time>
      </trkpt>
      <trkpt lat="47.49526" lon="6.75713">
        <ele>324.7</ele>
        <time>2014-10-05T07:28:14.000Z</time>
      </trkpt>
      <trkpt lat="47.49521" lon="6.75715">
        <ele>325.4</ele>
        <time>2014-10-05T07:28:15.000Z</time>
      </trkpt>
      <trkpt lat="47.49507" lon="6.75724">
        <ele>325.6</ele>
        <time>2014-10-05T07:28:18.000Z</time>
      </trkpt>
      <trkpt lat="47.49501" lon="6.75724">
        <ele>326</ele>
        <time>2014-10-05T07:28:19.000Z</time>
      </trkpt>
      <trkpt lat="47.49497" lon="6.75728">
        <ele>325.9</ele>
        <time>2014-10-05T07:28:20.000Z</time>
      </trkpt>
      <trkpt lat="47.49491" lon="6.7573">
        <ele>325.8</ele>
        <time>2014-10-05T07:28:21.000Z</time>
      </trkpt>
      <trkpt lat="47.49485" lon="6.75732">
        <ele>325.9</ele>
        <time>2014-10-05T07:28:22.000Z</time>
      </trkpt>
      <trkpt lat="47.4948" lon="6.75733">
        <ele>325.2</ele>
        <time>2014-10-05T07:28:23.000Z</time>
      </trkpt>
      <trkpt lat="47.49475" lon="6.75729">
        <ele>325.2</ele>
        <time>2014-10-05T07:28:24.000Z</time>
      </trkpt>
      <trkpt lat="47.49475" lon="6.75717">
        <ele>325.7</ele>
        <time>2014-10-05T07:28:25.000Z</time>
      </trkpt>
      <trkpt lat="47.49472" lon="6.7571">
        <ele>326.4</ele>
        <time>2014-10-05T07:28:26.000Z</time>
      </trkpt>
      <trkpt lat="47.4947" lon="6.75704">
        <ele>326.3</ele>
        <time>2014-10-05T07:28:27.000Z</time>
      </trkpt>
      <trkpt lat="47.49467" lon="6.75698">
        <ele>326.2</ele>
        <time>2014-10-05T07:28:28.000Z</time>
      </trkpt>
      <trkpt lat="47.49463" lon="6.75693">
        <ele>326.3</ele>
        <time>2014-10-05T07:28:29.000Z</time>
      </trkpt>
      <trkpt lat="47.49459" lon="6.7569">
        <ele>325.4</ele>
        <time>2014-10-05T07:28:30.000Z</time>
      </trkpt>
      <trkpt lat="47.49454" lon="6.75691">
        <ele>325.1</ele>
        <time>2014-10-05T07:28:31.000Z</time>
      </trkpt>
      <trkpt lat="47.4945" lon="6.75695">
        <ele>325.5</ele>
        <time>2014-10-05T07:28:32.000Z</time>
      </trkpt>
      <trkpt lat="47.49446" lon="6.75697">
        <ele>325</ele>
        <time>2014-10-05T07:28:33.000Z</time>
      </trkpt>
      <trkpt lat="47.49442" lon="6.75695">
        <ele>326.4</ele>
        <time>2014-10-05T07:28:34.000Z</time>
      </trkpt>
      <trkpt lat="47.4944" lon="6.7569">
        <ele>326.5</ele>
        <time>2014-10-05T07:28:35.000Z</time>
      </trkpt>
      <trkpt lat="47.49438" lon="6.75685">
        <ele>326.5</ele>
        <time>2014-10-05T07:28:36.000Z</time>
      </trkpt>
      <trkpt lat="47.49436" lon="6.75679">
        <ele>326.4</ele>
        <time>2014-10-05T07:28:37.000Z</time>
      </trkpt>
      <trkpt lat="47.49434" lon="6.75674">
        <ele>326.6</ele>
        <time>2014-10-05T07:28:38.000Z</time>
      </trkpt>
      <trkpt lat="47.49432" lon="6.75669">
        <ele>326.9</ele>
        <time>2014-10-05T07:28:39.000Z</time>
      </trkpt>
      <trkpt lat="47.49428" lon="6.75667">
        <ele>326.4</ele>
        <time>2014-10-05T07:28:40.000Z</time>
      </trkpt>
      <trkpt lat="47.49424" lon="6.75667">
        <ele>329.1</ele>
        <time>2014-10-05T07:28:42.000Z</time>
      </trkpt>
      <trkpt lat="47.49421" lon="6.75669">
        <ele>329.1</ele>
        <time>2014-10-05T07:28:43.000Z</time>
      </trkpt>
      <trkpt lat="47.49418" lon="6.75671">
        <ele>329.3</ele>
        <time>2014-10-05T07:28:44.000Z</time>
      </trkpt>
      <trkpt lat="47.49415" lon="6.75672">
        <ele>328.8</ele>
        <time>2014-10-05T07:28:45.000Z</time>
      </trkpt>
      <trkpt lat="47.49412" lon="6.75674">
        <ele>328.4</ele>
        <time>2014-10-05T07:28:46.000Z</time>
      </trkpt>
      <trkpt lat="47.49409" lon="6.75675">
        <ele>328.4</ele>
        <time>2014-10-05T07:28:47.000Z</time>
      </trkpt>
      <trkpt lat="47.494" lon="6.7568">
        <ele>327.5</ele>
        <time>2014-10-05T07:28:48.000Z</time>
      </trkpt>
      <trkpt lat="47.49395" lon="6.75682">
        <ele>327.4</ele>
        <time>2014-10-05T07:28:49.000Z</time>
      </trkpt>
      <trkpt lat="47.49391" lon="6.75685">
        <ele>327.3</ele>
        <time>2014-10-05T07:28:50.000Z</time>
      </trkpt>
      <trkpt lat="47.49387" lon="6.75688">
        <ele>327.2</ele>
        <time>2014-10-05T07:28:51.000Z</time>
      </trkpt>
      <trkpt lat="47.49384" lon="6.75691">
        <ele>327.5</ele>
        <time>2014-10-05T07:28:52.000Z</time>
      </trkpt>
      <trkpt lat="47.49381" lon="6.75695">
        <ele>326.9</ele>
        <time>2014-10-05T07:28:53.000Z</time>
      </trkpt>
      <trkpt lat="47.49378" lon="6.75697">
        <ele>327</ele>
        <time>2014-10-05T07:28:54.000Z</time>
      </trkpt>
      <trkpt lat="47.49375" lon="6.757">
        <ele>327</ele>
        <time>2014-10-05T07:28:55.000Z</time>
      </trkpt>
      <trkpt lat="47.49371" lon="6.75703">
        <ele>327.8</ele>
        <time>2014-10-05T07:28:56.000Z</time>
      </trkpt>
      <trkpt lat="47.49367" lon="6.75705">
        <ele>326.9</ele>
        <time>2014-10-05T07:28:57.000Z</time>
      </trkpt>
      <trkpt lat="47.49363" lon="6.75706">
        <ele>325.4</ele>
        <time>2014-10-05T07:28:59.000Z</time>
      </trkpt>
      <trkpt lat="47.49361" lon="6.75707">
        <ele>325.3</ele>
        <time>2014-10-05T07:29:00.000Z</time>
      </trkpt>
      <trkpt lat="47.49359" lon="6.75709">
        <ele>322.9</ele>
        <time>2014-10-05T07:29:01.000Z</time>
      </trkpt>
      <trkpt lat="47.49357" lon="6.75711">
        <ele>322.1</ele>
        <time>2014-10-05T07:29:02.000Z</time>
      </trkpt>
      <trkpt lat="47.49354" lon="6.75713">
        <ele>321.5</ele>
        <time>2014-10-05T07:29:03.000Z</time>
      </trkpt>
      <trkpt lat="47.49344" lon="6.75717">
        <ele>318</ele>
        <time>2014-10-05T07:29:04.000Z</time>
      </trkpt>
      <trkpt lat="47.49338" lon="6.75718">
        <ele>317.5</ele>
        <time>2014-10-05T07:29:05.000Z</time>
      </trkpt>
      <trkpt lat="47.49331" lon="6.75724">
        <ele>317.8</ele>
        <time>2014-10-05T07:29:06.000Z</time>
      </trkpt>
      <trkpt lat="47.49326" lon="6.75729">
        <ele>318.7</ele>
        <time>2014-10-05T07:29:07.000Z</time>
      </trkpt>
      <trkpt lat="47.4932" lon="6.75731">
        <ele>318.6</ele>
        <time>2014-10-05T07:29:08.000Z</time>
      </trkpt>
      <trkpt lat="47.49315" lon="6.75733">
        <ele>318.2</ele>
        <time>2014-10-05T07:29:09.000Z</time>
      </trkpt>
      <trkpt lat="47.49312" lon="6.75734">
        <ele>318.9</ele>
        <time>2014-10-05T07:29:10.000Z</time>
      </trkpt>
      <trkpt lat="47.49307" lon="6.75737">
        <ele>318.7</ele>
        <time>2014-10-05T07:29:11.000Z</time>
      </trkpt>
      <trkpt lat="47.49302" lon="6.75739">
        <ele>318.6</ele>
        <time>2014-10-05T07:29:12.000Z</time>
      </trkpt>
      <trkpt lat="47.49299" lon="6.75741">
        <ele>318.3</ele>
        <time>2014-10-05T07:29:13.000Z</time>
      </trkpt>
      <trkpt lat="47.49294" lon="6.75751">
        <ele>317.8</ele>
        <time>2014-10-05T07:29:14.000Z</time>
      </trkpt>
      <trkpt lat="47.49292" lon="6.75756">
        <ele>317.1</ele>
        <time>2014-10-05T07:29:15.000Z</time>
      </trkpt>
      <trkpt lat="47.49286" lon="6.75764">
        <ele>314.3</ele>
        <time>2014-10-05T07:29:18.000Z</time>
      </trkpt>
      <trkpt lat="47.49283" lon="6.75768">
        <ele>314.7</ele>
        <time>2014-10-05T07:29:19.000Z</time>
      </trkpt>
      <trkpt lat="47.4928" lon="6.75774">
        <ele>314.2</ele>
        <time>2014-10-05T07:29:20.000Z</time>
      </trkpt>
      <trkpt lat="47.49277" lon="6.7578">
        <ele>314.4</ele>
        <time>2014-10-05T07:29:21.000Z</time>
      </trkpt>
      <trkpt lat="47.49275" lon="6.75788">
        <ele>316.8</ele>
        <time>2014-10-05T07:29:22.000Z</time>
      </trkpt>
      <trkpt lat="47.49273" lon="6.75793">
        <ele>317.3</ele>
        <time>2014-10-05T07:29:23.000Z</time>
      </trkpt>
      <trkpt lat="47.49269" lon="6.758">
        <ele>317</ele>
        <time>2014-10-05T07:29:24.000Z</time>
      </trkpt>
      <trkpt lat="47.49266" lon="6.75806">
        <ele>317</ele>
        <time>2014-10-05T07:29:25.000Z</time>
      </trkpt>
      <trkpt lat="47.49262" lon="6.75812">
        <ele>316.4</ele>
        <time>2014-10-05T07:29:26.000Z</time>
      </trkpt>
      <trkpt lat="47.49257" lon="6.7582">
        <ele>316.2</ele>
        <time>2014-10-05T07:29:27.000Z</time>
      </trkpt>
      <trkpt lat="47.49254" lon="6.75827">
        <ele>316.6</ele>
        <time>2014-10-05T07:29:28.000Z</time>
      </trkpt>
      <trkpt lat="47.49251" lon="6.75832">
        <ele>318.1</ele>
        <time>2014-10-05T07:29:29.000Z</time>
      </trkpt>
      <trkpt lat="47.49247" lon="6.75838">
        <ele>318</ele>
        <time>2014-10-05T07:29:30.000Z</time>
      </trkpt>
      <trkpt lat="47.49242" lon="6.75843">
        <ele>317</ele>
        <time>2014-10-05T07:29:31.000Z</time>
      </trkpt>
      <trkpt lat="47.49237" lon="6.75849">
        <ele>317.1</ele>
        <time>2014-10-05T07:29:32.000Z</time>
      </trkpt>
      <trkpt lat="47.49235" lon="6.75857">
        <ele>317</ele>
        <time>2014-10-05T07:29:33.000Z</time>
      </trkpt>
      <trkpt lat="47.49231" lon="6.75864">
        <ele>316.2</ele>
        <time>2014-10-05T07:29:34.000Z</time>
      </trkpt>
      <trkpt lat="47.49227" lon="6.75868">
        <ele>316.5</ele>
        <time>2014-10-05T07:29:35.000Z</time>
      </trkpt>
      <trkpt lat="47.49224" lon="6.75874">
        <ele>316.4</ele>
        <time>2014-10-05T07:29:36.000Z</time>
      </trkpt>
      <trkpt lat="47.49221" lon="6.75881">
        <ele>316</ele>
        <time>2014-10-05T07:29:37.000Z</time>
      </trkpt>
      <trkpt lat="47.49219" lon="6.75887">
        <ele>315.8</ele>
        <time>2014-10-05T07:29:38.000Z</time>
      </trkpt>
      <trkpt lat="47.49216" lon="6.75894">
        <ele>315.5</ele>
        <time>2014-10-05T07:29:39.000Z</time>
      </trkpt>
      <trkpt lat="47.49214" lon="6.759">
        <ele>315.5</ele>
        <time>2014-10-05T07:29:40.000Z</time>
      </trkpt>
      <trkpt lat="47.49207" lon="6.75905">
        <ele>315.3</ele>
        <time>2014-10-05T07:29:41.000Z</time>
      </trkpt>
      <trkpt lat="47.49203" lon="6.7591">
        <ele>315.4</ele>
        <time>2014-10-05T07:29:42.000Z</time>
      </trkpt>
      <trkpt lat="47.49199" lon="6.75914">
        <ele>315.7</ele>
        <time>2014-10-05T07:29:43.000Z</time>
      </trkpt>
      <trkpt lat="47.49195" lon="6.7592">
        <ele>315.7</ele>
        <time>2014-10-05T07:29:44.000Z</time>
      </trkpt>
      <trkpt lat="47.49192" lon="6.75924">
        <ele>315.8</ele>
        <time>2014-10-05T07:29:45.000Z</time>
      </trkpt>
      <trkpt lat="47.49188" lon="6.75931">
        <ele>315.6</ele>
        <time>2014-10-05T07:29:46.000Z</time>
      </trkpt>
      <trkpt lat="47.49184" lon="6.7594">
        <ele>315.4</ele>
        <time>2014-10-05T07:29:47.000Z</time>
      </trkpt>
      <trkpt lat="47.49184" lon="6.75949">
        <ele>314.9</ele>
        <time>2014-10-05T07:29:48.000Z</time>
      </trkpt>
      <trkpt lat="47.4918" lon="6.75957">
        <ele>314.2</ele>
        <time>2014-10-05T07:29:49.000Z</time>
      </trkpt>
      <trkpt lat="47.49179" lon="6.75963">
        <ele>313.9</ele>
        <time>2014-10-05T07:29:50.000Z</time>
      </trkpt>
      <trkpt lat="47.49176" lon="6.75969">
        <ele>314.1</ele>
        <time>2014-10-05T07:29:51.000Z</time>
      </trkpt>
      <trkpt lat="47.49173" lon="6.75973">
        <ele>314.5</ele>
        <time>2014-10-05T07:29:52.000Z</time>
      </trkpt>
      <trkpt lat="47.4917" lon="6.75983">
        <ele>313.5</ele>
        <time>2014-10-05T07:29:53.000Z</time>
      </trkpt>
      <trkpt lat="47.49167" lon="6.75989">
        <ele>314</ele>
        <time>2014-10-05T07:29:54.000Z</time>
      </trkpt>
      <trkpt lat="47.49164" lon="6.75996">
        <ele>314.5</ele>
        <time>2014-10-05T07:29:55.000Z</time>
      </trkpt>
      <trkpt lat="47.4916" lon="6.76001">
        <ele>314.1</ele>
        <time>2014-10-05T07:29:56.000Z</time>
      </trkpt>
      <trkpt lat="47.49157" lon="6.76008">
        <ele>314.3</ele>
        <time>2014-10-05T07:29:57.000Z</time>
      </trkpt>
      <trkpt lat="47.49155" lon="6.76014">
        <ele>314.8</ele>
        <time>2014-10-05T07:29:58.000Z</time>
      </trkpt>
      <trkpt lat="47.49158" lon="6.76025">
        <ele>319.2</ele>
        <time>2014-10-05T07:29:59.000Z</time>
      </trkpt>
      <trkpt lat="47.49155" lon="6.76032">
        <ele>320.1</ele>
        <time>2014-10-05T07:30:00.000Z</time>
      </trkpt>
      <trkpt lat="47.49152" lon="6.7604">
        <ele>320.5</ele>
        <time>2014-10-05T07:30:01.000Z</time>
      </trkpt>
      <trkpt lat="47.49149" lon="6.76047">
        <ele>320.2</ele>
        <time>2014-10-05T07:30:02.000Z</time>
      </trkpt>
      <trkpt lat="47.49146" lon="6.76055">
        <ele>320.3</ele>
        <time>2014-10-05T07:30:03.000Z</time>
      </trkpt>
      <trkpt lat="47.49144" lon="6.76062">
        <ele>320.4</ele>
        <time>2014-10-05T07:30:04.000Z</time>
      </trkpt>
      <trkpt lat="47.49142" lon="6.76068">
        <ele>320.2</ele>
        <time>2014-10-05T07:30:05.000Z</time>
      </trkpt>
      <trkpt lat="47.49142" lon="6.76076">
        <ele>320.9</ele>
        <time>2014-10-05T07:30:06.000Z</time>
      </trkpt>
      <trkpt lat="47.49141" lon="6.76086">
        <ele>322.1</ele>
        <time>2014-10-05T07:30:07.000Z</time>
      </trkpt>
      <trkpt lat="47.49139" lon="6.76093">
        <ele>322.2</ele>
        <time>2014-10-05T07:30:08.000Z</time>
      </trkpt>
      <trkpt lat="47.49138" lon="6.76099">
        <ele>322.2</ele>
        <time>2014-10-05T07:30:09.000Z</time>
      </trkpt>
      <trkpt lat="47.49136" lon="6.76103">
        <ele>322.7</ele>
        <time>2014-10-05T07:30:10.000Z</time>
      </trkpt>
      <trkpt lat="47.49134" lon="6.7611">
        <ele>322.5</ele>
        <time>2014-10-05T07:30:11.000Z</time>
      </trkpt>
      <trkpt lat="47.49134" lon="6.76114">
        <ele>322.6</ele>
        <time>2014-10-05T07:30:12.000Z</time>
      </trkpt>
      <trkpt lat="47.49133" lon="6.76124">
        <ele>322.3</ele>
        <time>2014-10-05T07:30:13.000Z</time>
      </trkpt>
      <trkpt lat="47.49132" lon="6.76133">
        <ele>322.2</ele>
        <time>2014-10-05T07:30:14.000Z</time>
      </trkpt>
      <trkpt lat="47.49134" lon="6.76144">
        <ele>322.5</ele>
        <time>2014-10-05T07:30:15.000Z</time>
      </trkpt>
      <trkpt lat="47.49138" lon="6.76162">
        <ele>321.5</ele>
        <time>2014-10-05T07:30:18.000Z</time>
      </trkpt>
      <trkpt lat="47.49139" lon="6.76174">
        <ele>320.8</ele>
        <time>2014-10-05T07:30:19.000Z</time>
      </trkpt>
      <trkpt lat="47.49138" lon="6.76183">
        <ele>320.9</ele>
        <time>2014-10-05T07:30:20.000Z</time>
      </trkpt>
      <trkpt lat="47.49137" lon="6.76191">
        <ele>320.7</ele>
        <time>2014-10-05T07:30:21.000Z</time>
      </trkpt>
      <trkpt lat="47.49136" lon="6.76199">
        <ele>320.7</ele>
        <time>2014-10-05T07:30:22.000Z</time>
      </trkpt>
      <trkpt lat="47.49137" lon="6.76212">
        <ele>321</ele>
        <time>2014-10-05T07:30:23.000Z</time>
      </trkpt>
      <trkpt lat="47.49135" lon="6.76223">
        <ele>321</ele>
        <time>2014-10-05T07:30:24.000Z</time>
      </trkpt>
      <trkpt lat="47.49135" lon="6.76231">
        <ele>321.2</ele>
        <time>2014-10-05T07:30:25.000Z</time>
      </trkpt>
      <trkpt lat="47.49135" lon="6.76237">
        <ele>321.5</ele>
        <time>2014-10-05T07:30:26.000Z</time>
      </trkpt>
      <trkpt lat="47.49133" lon="6.76242">
        <ele>321.9</ele>
        <time>2014-10-05T07:30:27.000Z</time>
      </trkpt>
      <trkpt lat="47.49132" lon="6.76248">
        <ele>321.8</ele>
        <time>2014-10-05T07:30:28.000Z</time>
      </trkpt>
      <trkpt lat="47.49134" lon="6.76257">
        <ele>321.6</ele>
        <time>2014-10-05T07:30:29.000Z</time>
      </trkpt>
      <trkpt lat="47.49133" lon="6.76267">
        <ele>321.1</ele>
        <time>2014-10-05T07:30:30.000Z</time>
      </trkpt>
      <trkpt lat="47.4913" lon="6.76279">
        <ele>320.3</ele>
        <time>2014-10-05T07:30:31.000Z</time>
      </trkpt>
      <trkpt lat="47.49128" lon="6.76287">
        <ele>320.4</ele>
        <time>2014-10-05T07:30:32.000Z</time>
      </trkpt>
      <trkpt lat="47.49125" lon="6.76294">
        <ele>320.5</ele>
        <time>2014-10-05T07:30:33.000Z</time>
      </trkpt>
      <trkpt lat="47.49123" lon="6.76309">
        <ele>318.9</ele>
        <time>2014-10-05T07:30:34.000Z</time>
      </trkpt>
      <trkpt lat="47.49122" lon="6.76319">
        <ele>318.7</ele>
        <time>2014-10-05T07:30:35.000Z</time>
      </trkpt>
      <trkpt lat="47.49121" lon="6.76328">
        <ele>318.9</ele>
        <time>2014-10-05T07:30:36.000Z</time>
      </trkpt>
      <trkpt lat="47.49121" lon="6.76334">
        <ele>318.8</ele>
        <time>2014-10-05T07:30:37.000Z</time>
      </trkpt>
      <trkpt lat="47.49121" lon="6.76344">
        <ele>318.9</ele>
        <time>2014-10-05T07:30:38.000Z</time>
      </trkpt>
      <trkpt lat="47.49124" lon="6.76354">
        <ele>318.7</ele>
        <time>2014-10-05T07:30:39.000Z</time>
      </trkpt>
      <trkpt lat="47.49125" lon="6.7636">
        <ele>319</ele>
        <time>2014-10-05T07:30:40.000Z</time>
      </trkpt>
      <trkpt lat="47.49125" lon="6.7637">
        <ele>320.3</ele>
        <time>2014-10-05T07:30:41.000Z</time>
      </trkpt>
      <trkpt lat="47.49126" lon="6.76379">
        <ele>320.7</ele>
        <time>2014-10-05T07:30:42.000Z</time>
      </trkpt>
      <trkpt lat="47.49125" lon="6.76388">
        <ele>320.8</ele>
        <time>2014-10-05T07:30:43.000Z</time>
      </trkpt>
      <trkpt lat="47.49123" lon="6.76394">
        <ele>322</ele>
        <time>2014-10-05T07:30:44.000Z</time>
      </trkpt>
      <trkpt lat="47.4912" lon="6.76404">
        <ele>321.9</ele>
        <time>2014-10-05T07:30:45.000Z</time>
      </trkpt>
      <trkpt lat="47.49119" lon="6.76413">
        <ele>322.3</ele>
        <time>2014-10-05T07:30:46.000Z</time>
      </trkpt>
      <trkpt lat="47.49117" lon="6.76423">
        <ele>321.7</ele>
        <time>2014-10-05T07:30:47.000Z</time>
      </trkpt>
      <trkpt lat="47.49115" lon="6.76431">
        <ele>321.7</ele>
        <time>2014-10-05T07:30:48.000Z</time>
      </trkpt>
      <trkpt lat="47.49114" lon="6.76437">
        <ele>321.6</ele>
        <time>2014-10-05T07:30:49.000Z</time>
      </trkpt>
      <trkpt lat="47.4911" lon="6.76448">
        <ele>320.5</ele>
        <time>2014-10-05T07:30:50.000Z</time>
      </trkpt>
      <trkpt lat="47.49111" lon="6.76465">
        <ele>318.7</ele>
        <time>2014-10-05T07:30:51.000Z</time>
      </trkpt>
      <trkpt lat="47.49113" lon="6.76479">
        <ele>320.3</ele>
        <time>2014-10-05T07:30:52.000Z</time>
      </trkpt>
      <trkpt lat="47.4911" lon="6.76498">
        <ele>314.7</ele>
        <time>2014-10-05T07:30:53.000Z</time>
      </trkpt>
      <trkpt lat="47.49118" lon="6.76507">
        <ele>315.9</ele>
        <time>2014-10-05T07:30:54.000Z</time>
      </trkpt>
      <trkpt lat="47.49131" lon="6.7651">
        <ele>314.6</ele>
        <time>2014-10-05T07:30:55.000Z</time>
      </trkpt>
      <trkpt lat="47.4914" lon="6.76511">
        <ele>315.7</ele>
        <time>2014-10-05T07:30:56.000Z</time>
      </trkpt>
      <trkpt lat="47.49148" lon="6.7651">
        <ele>316.6</ele>
        <time>2014-10-05T07:30:57.000Z</time>
      </trkpt>
      <trkpt lat="47.49154" lon="6.76508">
        <ele>317.8</ele>
        <time>2014-10-05T07:30:58.000Z</time>
      </trkpt>
      <trkpt lat="47.49159" lon="6.76505">
        <ele>318.9</ele>
        <time>2014-10-05T07:30:59.000Z</time>
      </trkpt>
      <trkpt lat="47.49164" lon="6.76503">
        <ele>320.7</ele>
        <time>2014-10-05T07:31:00.000Z</time>
      </trkpt>
      <trkpt lat="47.49168" lon="6.76501">
        <ele>321.8</ele>
        <time>2014-10-05T07:31:01.000Z</time>
      </trkpt>
      <trkpt lat="47.49171" lon="6.76499">
        <ele>321.1</ele>
        <time>2014-10-05T07:31:02.000Z</time>
      </trkpt>
      <trkpt lat="47.49173" lon="6.76497">
        <ele>321</ele>
        <time>2014-10-05T07:31:03.000Z</time>
      </trkpt>
      <trkpt lat="47.49177" lon="6.76494">
        <ele>320.5</ele>
        <time>2014-10-05T07:31:04.000Z</time>
      </trkpt>
      <trkpt lat="47.4918" lon="6.76491">
        <ele>320.5</ele>
        <time>2014-10-05T07:31:05.000Z</time>
      </trkpt>
      <trkpt lat="47.49181" lon="6.76486">
        <ele>321.5</ele>
        <time>2014-10-05T07:31:06.000Z</time>
      </trkpt>
      <trkpt lat="47.49181" lon="6.76481">
        <ele>321.7</ele>
        <time>2014-10-05T07:31:07.000Z</time>
      </trkpt>
      <trkpt lat="47.49176" lon="6.7648">
        <ele>320.8</ele>
        <time>2014-10-05T07:31:08.000Z</time>
      </trkpt>
      <trkpt lat="47.49173" lon="6.76483">
        <ele>322.8</ele>
        <time>2014-10-05T07:31:09.000Z</time>
      </trkpt>
      <trkpt lat="47.49171" lon="6.76482">
        <ele>322</ele>
        <time>2014-10-05T07:31:10.000Z</time>
      </trkpt>
      <trkpt lat="47.49168" lon="6.76484">
        <ele>321.5</ele>
        <time>2014-10-05T07:31:11.000Z</time>
      </trkpt>
      <trkpt lat="47.49166" lon="6.76486">
        <ele>321.6</ele>
        <time>2014-10-05T07:31:12.000Z</time>
      </trkpt>
      <trkpt lat="47.49169" lon="6.76483">
        <ele>323.7</ele>
        <time>2014-10-05T07:33:09.000Z</time>
      </trkpt>
      <trkpt lat="47.49169" lon="6.76481">
        <ele>324.3</ele>
        <time>2014-10-05T07:33:10.000Z</time>
      </trkpt>
      <trkpt lat="47.49165" lon="6.7648">
        <ele>321.3</ele>
        <time>2014-10-05T07:33:49.000Z</time>
      </trkpt>
      <trkpt lat="47.49165" lon="6.7648">
        <ele>320.9</ele>
        <time>2014-10-05T07:33:50.000Z</time>
      </trkpt>
      <trkpt lat="47.49165" lon="6.76487">
        <ele>319.3</ele>
        <time>2014-10-05T07:34:06.000Z</time>
      </trkpt>
      <trkpt lat="47.49165" lon="6.76487">
        <ele>319.1</ele>
        <time>2014-10-05T07:34:07.000Z</time>
      </trkpt>
      <trkpt lat="47.49168" lon="6.76484">
        <ele>324.2</ele>
        <time>2014-10-05T07:36:39.000Z</time>
      </trkpt>
      <trkpt lat="47.4917" lon="6.76483">
        <ele>323.8</ele>
        <time>2014-10-05T07:36:40.000Z</time>
      </trkpt>
      <trkpt lat="47.49173" lon="6.76482">
        <ele>322</ele>
        <time>2014-10-05T07:36:41.000Z</time>
      </trkpt>
      <trkpt lat="47.49175" lon="6.76483">
        <ele>321.9</ele>
        <time>2014-10-05T07:36:42.000Z</time>
      </trkpt>
      <trkpt lat="47.49177" lon="6.76486">
        <ele>322.6</ele>
        <time>2014-10-05T07:36:43.000Z</time>
      </trkpt>
      <trkpt lat="47.49178" lon="6.7649">
        <ele>323.7</ele>
        <time>2014-10-05T07:36:44.000Z</time>
      </trkpt>
      <trkpt lat="47.49177" lon="6.76495">
        <ele>324.7</ele>
        <time>2014-10-05T07:36:45.000Z</time>
      </trkpt>
      <trkpt lat="47.49176" lon="6.76499">
        <ele>325.9</ele>
        <time>2014-10-05T07:36:46.000Z</time>
      </trkpt>
      <trkpt lat="47.49175" lon="6.76502">
        <ele>325.8</ele>
        <time>2014-10-05T07:36:47.000Z</time>
      </trkpt>
      <trkpt lat="47.49173" lon="6.76504">
        <ele>326.9</ele>
        <time>2014-10-05T07:36:48.000Z</time>
      </trkpt>
      <trkpt lat="47.4917" lon="6.76505">
        <ele>326.6</ele>
        <time>2014-10-05T07:36:49.000Z</time>
      </trkpt>
      <trkpt lat="47.49168" lon="6.76506">
        <ele>326.3</ele>
        <time>2014-10-05T07:36:50.000Z</time>
      </trkpt>
      <trkpt lat="47.49165" lon="6.76507">
        <ele>326.5</ele>
        <time>2014-10-05T07:36:51.000Z</time>
      </trkpt>
      <trkpt lat="47.49161" lon="6.76509">
        <ele>326.7</ele>
        <time>2014-10-05T07:36:52.000Z</time>
      </trkpt>
      <trkpt lat="47.49157" lon="6.7651">
        <ele>326.2</ele>
        <time>2014-10-05T07:36:53.000Z</time>
      </trkpt>
      <trkpt lat="47.49153" lon="6.76511">
        <ele>326.6</ele>
        <time>2014-10-05T07:36:54.000Z</time>
      </trkpt>
      <trkpt lat="47.49141" lon="6.76509">
        <ele>326</ele>
        <time>2014-10-05T07:36:55.000Z</time>
      </trkpt>
      <trkpt lat="47.49136" lon="6.76509">
        <ele>326.4</ele>
        <time>2014-10-05T07:36:56.000Z</time>
      </trkpt>
      <trkpt lat="47.49131" lon="6.7651">
        <ele>326.1</ele>
        <time>2014-10-05T07:36:57.000Z</time>
      </trkpt>
      <trkpt lat="47.49126" lon="6.76514">
        <ele>325.8</ele>
        <time>2014-10-05T07:36:58.000Z</time>
      </trkpt>
      <trkpt lat="47.49124" lon="6.7652">
        <ele>325.5</ele>
        <time>2014-10-05T07:36:59.000Z</time>
      </trkpt>
      <trkpt lat="47.49122" lon="6.76527">
        <ele>325.7</ele>
        <time>2014-10-05T07:37:00.000Z</time>
      </trkpt>
      <trkpt lat="47.49121" lon="6.76534">
        <ele>325.7</ele>
        <time>2014-10-05T07:37:01.000Z</time>
      </trkpt>
      <trkpt lat="47.49121" lon="6.76542">
        <ele>325.9</ele>
        <time>2014-10-05T07:37:02.000Z</time>
      </trkpt>
      <trkpt lat="47.49122" lon="6.7655">
        <ele>325.7</ele>
        <time>2014-10-05T07:37:03.000Z</time>
      </trkpt>
      <trkpt lat="47.49123" lon="6.76558">
        <ele>325.7</ele>
        <time>2014-10-05T07:37:04.000Z</time>
      </trkpt>
      <trkpt lat="47.49123" lon="6.76566">
        <ele>326</ele>
        <time>2014-10-05T07:37:05.000Z</time>
      </trkpt>
      <trkpt lat="47.49124" lon="6.76574">
        <ele>325.2</ele>
        <time>2014-10-05T07:37:06.000Z</time>
      </trkpt>
      <trkpt lat="47.49126" lon="6.76583">
        <ele>325.2</ele>
        <time>2014-10-05T07:37:07.000Z</time>
      </trkpt>
      <trkpt lat="47.49127" lon="6.76592">
        <ele>324.6</ele>
        <time>2014-10-05T07:37:08.000Z</time>
      </trkpt>
      <trkpt lat="47.49129" lon="6.766">
        <ele>325.5</ele>
        <time>2014-10-05T07:37:09.000Z</time>
      </trkpt>
      <trkpt lat="47.4913" lon="6.76609">
        <ele>325</ele>
        <time>2014-10-05T07:37:10.000Z</time>
      </trkpt>
      <trkpt lat="47.49131" lon="6.76617">
        <ele>324.7</ele>
        <time>2014-10-05T07:37:11.000Z</time>
      </trkpt>
      <trkpt lat="47.49132" lon="6.76626">
        <ele>325.8</ele>
        <time>2014-10-05T07:37:12.000Z</time>
      </trkpt>
      <trkpt lat="47.49132" lon="6.76634">
        <ele>326.6</ele>
        <time>2014-10-05T07:37:13.000Z</time>
      </trkpt>
      <trkpt lat="47.49133" lon="6.76642">
        <ele>326.2</ele>
        <time>2014-10-05T07:37:14.000Z</time>
      </trkpt>
      <trkpt lat="47.49135" lon="6.76651">
        <ele>325.2</ele>
        <time>2014-10-05T07:37:15.000Z</time>
      </trkpt>
      <trkpt lat="47.49138" lon="6.76669">
        <ele>324.8</ele>
        <time>2014-10-05T07:37:18.000Z</time>
      </trkpt>
      <trkpt lat="47.49138" lon="6.76674">
        <ele>324.9</ele>
        <time>2014-10-05T07:37:19.000Z</time>
      </trkpt>
      <trkpt lat="47.49139" lon="6.76679">
        <ele>325.1</ele>
        <time>2014-10-05T07:37:20.000Z</time>
      </trkpt>
      <trkpt lat="47.49141" lon="6.76686">
        <ele>325</ele>
        <time>2014-10-05T07:37:21.000Z</time>
      </trkpt>
      <trkpt lat="47.49141" lon="6.76696">
        <ele>325.2</ele>
        <time>2014-10-05T07:37:22.000Z</time>
      </trkpt>
      <trkpt lat="47.49141" lon="6.76707">
        <ele>325.6</ele>
        <time>2014-10-05T07:37:23.000Z</time>
      </trkpt>
      <trkpt lat="47.49142" lon="6.76715">
        <ele>325.5</ele>
        <time>2014-10-05T07:37:24.000Z</time>
      </trkpt>
      <trkpt lat="47.49143" lon="6.76723">
        <ele>324.2</ele>
        <time>2014-10-05T07:37:25.000Z</time>
      </trkpt>
      <trkpt lat="47.49145" lon="6.76736">
        <ele>324.1</ele>
        <time>2014-10-05T07:37:26.000Z</time>
      </trkpt>
      <trkpt lat="47.49146" lon="6.76747">
        <ele>323.8</ele>
        <time>2014-10-05T07:37:27.000Z</time>
      </trkpt>
      <trkpt lat="47.49147" lon="6.76756">
        <ele>324.3</ele>
        <time>2014-10-05T07:37:28.000Z</time>
      </trkpt>
      <trkpt lat="47.49148" lon="6.76764">
        <ele>323.9</ele>
        <time>2014-10-05T07:37:29.000Z</time>
      </trkpt>
      <trkpt lat="47.49149" lon="6.76773">
        <ele>323.7</ele>
        <time>2014-10-05T07:37:30.000Z</time>
      </trkpt>
      <trkpt lat="47.4915" lon="6.76782">
        <ele>323.3</ele>
        <time>2014-10-05T07:37:31.000Z</time>
      </trkpt>
      <trkpt lat="47.49149" lon="6.76788">
        <ele>323.2</ele>
        <time>2014-10-05T07:37:32.000Z</time>
      </trkpt>
      <trkpt lat="47.49149" lon="6.76795">
        <ele>322.6</ele>
        <time>2014-10-05T07:37:33.000Z</time>
      </trkpt>
      <trkpt lat="47.49149" lon="6.76803">
        <ele>322.8</ele>
        <time>2014-10-05T07:37:34.000Z</time>
      </trkpt>
      <trkpt lat="47.4915" lon="6.76811">
        <ele>322.6</ele>
        <time>2014-10-05T07:37:35.000Z</time>
      </trkpt>
      <trkpt lat="47.4915" lon="6.76822">
        <ele>322.3</ele>
        <time>2014-10-05T07:37:36.000Z</time>
      </trkpt>
      <trkpt lat="47.4915" lon="6.76831">
        <ele>322.3</ele>
        <time>2014-10-05T07:37:37.000Z</time>
      </trkpt>
      <trkpt lat="47.49149" lon="6.76841">
        <ele>322.3</ele>
        <time>2014-10-05T07:37:38.000Z</time>
      </trkpt>
      <trkpt lat="47.49148" lon="6.76851">
        <ele>321.8</ele>
        <time>2014-10-05T07:37:39.000Z</time>
      </trkpt>
      <trkpt lat="47.49149" lon="6.7686">
        <ele>322.1</ele>
        <time>2014-10-05T07:37:40.000Z</time>
      </trkpt>
      <trkpt lat="47.49148" lon="6.76868">
        <ele>323.3</ele>
        <time>2014-10-05T07:37:41.000Z</time>
      </trkpt>
      <trkpt lat="47.49148" lon="6.76878">
        <ele>323.5</ele>
        <time>2014-10-05T07:37:42.000Z</time>
      </trkpt>
      <trkpt lat="47.49148" lon="6.76886">
        <ele>323.3</ele>
        <time>2014-10-05T07:37:43.000Z</time>
      </trkpt>
      <trkpt lat="47.49148" lon="6.76893">
        <ele>323.1</ele>
        <time>2014-10-05T07:37:44.000Z</time>
      </trkpt>
      <trkpt lat="47.49149" lon="6.769">
        <ele>323</ele>
        <time>2014-10-05T07:37:45.000Z</time>
      </trkpt>
      <trkpt lat="47.49148" lon="6.76908">
        <ele>323.3</ele>
        <time>2014-10-05T07:37:46.000Z</time>
      </trkpt>
      <trkpt lat="47.49147" lon="6.76917">
        <ele>323.6</ele>
        <time>2014-10-05T07:37:47.000Z</time>
      </trkpt>
      <trkpt lat="47.49147" lon="6.76925">
        <ele>321.6</ele>
        <time>2014-10-05T07:37:48.000Z</time>
      </trkpt>
      <trkpt lat="47.49147" lon="6.76932">
        <ele>321.5</ele>
        <time>2014-10-05T07:37:49.000Z</time>
      </trkpt>
      <trkpt lat="47.49147" lon="6.76939">
        <ele>321.7</ele>
        <time>2014-10-05T07:37:50.000Z</time>
      </trkpt>
      <trkpt lat="47.49147" lon="6.76945">
        <ele>322</ele>
        <time>2014-10-05T07:37:51.000Z</time>
      </trkpt>
      <trkpt lat="47.49146" lon="6.7695">
        <ele>322</ele>
        <time>2014-10-05T07:37:52.000Z</time>
      </trkpt>
      <trkpt lat="47.49145" lon="6.76956">
        <ele>322.7</ele>
        <time>2014-10-05T07:37:53.000Z</time>
      </trkpt>
      <trkpt lat="47.49147" lon="6.76969">
        <ele>321.9</ele>
        <time>2014-10-05T07:37:54.000Z</time>
      </trkpt>
      <trkpt lat="47.49147" lon="6.76978">
        <ele>321.8</ele>
        <time>2014-10-05T07:37:55.000Z</time>
      </trkpt>
      <trkpt lat="47.4915" lon="6.76985">
        <ele>320</ele>
        <time>2014-10-05T07:37:56.000Z</time>
      </trkpt>
      <trkpt lat="47.49155" lon="6.76992">
        <ele>320.2</ele>
        <time>2014-10-05T07:37:57.000Z</time>
      </trkpt>
      <trkpt lat="47.49158" lon="6.77">
        <ele>320.4</ele>
        <time>2014-10-05T07:37:58.000Z</time>
      </trkpt>
      <trkpt lat="47.49161" lon="6.77007">
        <ele>318.3</ele>
        <time>2014-10-05T07:37:59.000Z</time>
      </trkpt>
      <trkpt lat="47.49164" lon="6.77015">
        <ele>316.9</ele>
        <time>2014-10-05T07:38:00.000Z</time>
      </trkpt>
      <trkpt lat="47.49166" lon="6.77023">
        <ele>315.6</ele>
        <time>2014-10-05T07:38:01.000Z</time>
      </trkpt>
      <trkpt lat="47.49167" lon="6.77031">
        <ele>315.2</ele>
        <time>2014-10-05T07:38:02.000Z</time>
      </trkpt>
      <trkpt lat="47.49169" lon="6.77039">
        <ele>315.5</ele>
        <time>2014-10-05T07:38:03.000Z</time>
      </trkpt>
      <trkpt lat="47.4917" lon="6.77047">
        <ele>315.1</ele>
        <time>2014-10-05T07:38:04.000Z</time>
      </trkpt>
      <trkpt lat="47.49172" lon="6.77056">
        <ele>315.3</ele>
        <time>2014-10-05T07:38:05.000Z</time>
      </trkpt>
      <trkpt lat="47.49173" lon="6.77063">
        <ele>315.1</ele>
        <time>2014-10-05T07:38:06.000Z</time>
      </trkpt>
      <trkpt lat="47.49174" lon="6.77072">
        <ele>314.7</ele>
        <time>2014-10-05T07:38:07.000Z</time>
      </trkpt>
      <trkpt lat="47.49176" lon="6.77079">
        <ele>315.7</ele>
        <time>2014-10-05T07:38:08.000Z</time>
      </trkpt>
      <trkpt lat="47.49177" lon="6.77086">
        <ele>316.1</ele>
        <time>2014-10-05T07:38:09.000Z</time>
      </trkpt>
      <trkpt lat="47.49179" lon="6.77093">
        <ele>316.6</ele>
        <time>2014-10-05T07:38:10.000Z</time>
      </trkpt>
      <trkpt lat="47.4918" lon="6.771">
        <ele>316.5</ele>
        <time>2014-10-05T07:38:11.000Z</time>
      </trkpt>
      <trkpt lat="47.49182" lon="6.77107">
        <ele>316.8</ele>
        <time>2014-10-05T07:38:12.000Z</time>
      </trkpt>
      <trkpt lat="47.49182" lon="6.77112">
        <ele>317.3</ele>
        <time>2014-10-05T07:38:13.000Z</time>
      </trkpt>
      <trkpt lat="47.49182" lon="6.77116">
        <ele>319.3</ele>
        <time>2014-10-05T07:38:14.000Z</time>
      </trkpt>
      <trkpt lat="47.49182" lon="6.77118">
        <ele>320.4</ele>
        <time>2014-10-05T07:38:15.000Z</time>
      </trkpt>
      <trkpt lat="47.49182" lon="6.77124">
        <ele>320</ele>
        <time>2014-10-05T07:38:18.000Z</time>
      </trkpt>
      <trkpt lat="47.49183" lon="6.77133">
        <ele>319.7</ele>
        <time>2014-10-05T07:38:19.000Z</time>
      </trkpt>
      <trkpt lat="47.49183" lon="6.77139">
        <ele>319.9</ele>
        <time>2014-10-05T07:38:20.000Z</time>
      </trkpt>
      <trkpt lat="47.49184" lon="6.77146">
        <ele>320.2</ele>
        <time>2014-10-05T07:38:21.000Z</time>
      </trkpt>
      <trkpt lat="47.49184" lon="6.77155">
        <ele>321.5</ele>
        <time>2014-10-05T07:38:22.000Z</time>
      </trkpt>
      <trkpt lat="47.49185" lon="6.77163">
        <ele>321.3</ele>
        <time>2014-10-05T07:38:23.000Z</time>
      </trkpt>
      <trkpt lat="47.49185" lon="6.77169">
        <ele>321.4</ele>
        <time>2014-10-05T07:38:24.000Z</time>
      </trkpt>
      <trkpt lat="47.49185" lon="6.77176">
        <ele>321.6</ele>
        <time>2014-10-05T07:38:25.000Z</time>
      </trkpt>
      <trkpt lat="47.49185" lon="6.77181">
        <ele>322.4</ele>
        <time>2014-10-05T07:38:26.000Z</time>
      </trkpt>
      <trkpt lat="47.49185" lon="6.77189">
        <ele>321.9</ele>
        <time>2014-10-05T07:38:27.000Z</time>
      </trkpt>
      <trkpt lat="47.49185" lon="6.77196">
        <ele>322.4</ele>
        <time>2014-10-05T07:38:28.000Z</time>
      </trkpt>
      <trkpt lat="47.49186" lon="6.77204">
        <ele>324.9</ele>
        <time>2014-10-05T07:38:29.000Z</time>
      </trkpt>
      <trkpt lat="47.49186" lon="6.77211">
        <ele>325.9</ele>
        <time>2014-10-05T07:38:30.000Z</time>
      </trkpt>
      <trkpt lat="47.49184" lon="6.77216">
        <ele>327.5</ele>
        <time>2014-10-05T07:38:31.000Z</time>
      </trkpt>
      <trkpt lat="47.49183" lon="6.77222">
        <ele>328.5</ele>
        <time>2014-10-05T07:38:32.000Z</time>
      </trkpt>
      <trkpt lat="47.49182" lon="6.77227">
        <ele>328.9</ele>
        <time>2014-10-05T07:38:33.000Z</time>
      </trkpt>
      <trkpt lat="47.49181" lon="6.77232">
        <ele>329.5</ele>
        <time>2014-10-05T07:38:34.000Z</time>
      </trkpt>
      <trkpt lat="47.49181" lon="6.77239">
        <ele>329</ele>
        <time>2014-10-05T07:38:35.000Z</time>
      </trkpt>
      <trkpt lat="47.49182" lon="6.77248">
        <ele>326.7</ele>
        <time>2014-10-05T07:38:36.000Z</time>
      </trkpt>
      <trkpt lat="47.49182" lon="6.77256">
        <ele>326.2</ele>
        <time>2014-10-05T07:38:37.000Z</time>
      </trkpt>
      <trkpt lat="47.4918" lon="6.77265">
        <ele>327.4</ele>
        <time>2014-10-05T07:38:38.000Z</time>
      </trkpt>
      <trkpt lat="47.49179" lon="6.77272">
        <ele>326.9</ele>
        <time>2014-10-05T07:38:39.000Z</time>
      </trkpt>
      <trkpt lat="47.49179" lon="6.7728">
        <ele>327.4</ele>
        <time>2014-10-05T07:38:40.000Z</time>
      </trkpt>
      <trkpt lat="47.4918" lon="6.77288">
        <ele>326.8</ele>
        <time>2014-10-05T07:38:41.000Z</time>
      </trkpt>
      <trkpt lat="47.4918" lon="6.77297">
        <ele>326.6</ele>
        <time>2014-10-05T07:38:42.000Z</time>
      </trkpt>
      <trkpt lat="47.4918" lon="6.77305">
        <ele>325.9</ele>
        <time>2014-10-05T07:38:43.000Z</time>
      </trkpt>
      <trkpt lat="47.49179" lon="6.77312">
        <ele>325</ele>
        <time>2014-10-05T07:38:44.000Z</time>
      </trkpt>
      <trkpt lat="47.49177" lon="6.77319">
        <ele>326.4</ele>
        <time>2014-10-05T07:38:45.000Z</time>
      </trkpt>
      <trkpt lat="47.49174" lon="6.77326">
        <ele>326.6</ele>
        <time>2014-10-05T07:38:46.000Z</time>
      </trkpt>
      <trkpt lat="47.49171" lon="6.77328">
        <ele>326</ele>
        <time>2014-10-05T07:38:47.000Z</time>
      </trkpt>
      <trkpt lat="47.49166" lon="6.77326">
        <ele>326.9</ele>
        <time>2014-10-05T07:38:48.000Z</time>
      </trkpt>
      <trkpt lat="47.49162" lon="6.77325">
        <ele>327.1</ele>
        <time>2014-10-05T07:38:49.000Z</time>
      </trkpt>
      <trkpt lat="47.49158" lon="6.77325">
        <ele>326.9</ele>
        <time>2014-10-05T07:38:50.000Z</time>
      </trkpt>
      <trkpt lat="47.49152" lon="6.77327">
        <ele>327.6</ele>
        <time>2014-10-05T07:38:51.000Z</time>
      </trkpt>
      <trkpt lat="47.49151" lon="6.77327">
        <ele>329.7</ele>
        <time>2014-10-05T07:38:52.000Z</time>
      </trkpt>
      <trkpt lat="47.49146" lon="6.77325">
        <ele>330.9</ele>
        <time>2014-10-05T07:38:53.000Z</time>
      </trkpt>
      <trkpt lat="47.4914" lon="6.77326">
        <ele>330.8</ele>
        <time>2014-10-05T07:38:54.000Z</time>
      </trkpt>
      <trkpt lat="47.49135" lon="6.77326">
        <ele>331.4</ele>
        <time>2014-10-05T07:38:55.000Z</time>
      </trkpt>
      <trkpt lat="47.49129" lon="6.77326">
        <ele>330.7</ele>
        <time>2014-10-05T07:38:56.000Z</time>
      </trkpt>
      <trkpt lat="47.49123" lon="6.77326">
        <ele>331.1</ele>
        <time>2014-10-05T07:38:57.000Z</time>
      </trkpt>
      <trkpt lat="47.49117" lon="6.77326">
        <ele>331.1</ele>
        <time>2014-10-05T07:38:58.000Z</time>
      </trkpt>
      <trkpt lat="47.49112" lon="6.77327">
        <ele>331.3</ele>
        <time>2014-10-05T07:38:59.000Z</time>
      </trkpt>
      <trkpt lat="47.49106" lon="6.77327">
        <ele>330.9</ele>
        <time>2014-10-05T07:39:00.000Z</time>
      </trkpt>
      <trkpt lat="47.49101" lon="6.77323">
        <ele>330.1</ele>
        <time>2014-10-05T07:39:01.000Z</time>
      </trkpt>
      <trkpt lat="47.49094" lon="6.77324">
        <ele>330.3</ele>
        <time>2014-10-05T07:39:02.000Z</time>
      </trkpt>
      <trkpt lat="47.49088" lon="6.77323">
        <ele>330.4</ele>
        <time>2014-10-05T07:39:03.000Z</time>
      </trkpt>
      <trkpt lat="47.49081" lon="6.77325">
        <ele>329.5</ele>
        <time>2014-10-05T07:39:04.000Z</time>
      </trkpt>
      <trkpt lat="47.49074" lon="6.77325">
        <ele>329.2</ele>
        <time>2014-10-05T07:39:05.000Z</time>
      </trkpt>
      <trkpt lat="47.49067" lon="6.77324">
        <ele>329.1</ele>
        <time>2014-10-05T07:39:06.000Z</time>
      </trkpt>
      <trkpt lat="47.49061" lon="6.77323">
        <ele>329.3</ele>
        <time>2014-10-05T07:39:07.000Z</time>
      </trkpt>
      <trkpt lat="47.49055" lon="6.77324">
        <ele>330.2</ele>
        <time>2014-10-05T07:39:08.000Z</time>
      </trkpt>
      <trkpt lat="47.49049" lon="6.77323">
        <ele>329.9</ele>
        <time>2014-10-05T07:39:09.000Z</time>
      </trkpt>
      <trkpt lat="47.49043" lon="6.77323">
        <ele>330.5</ele>
        <time>2014-10-05T07:39:10.000Z</time>
      </trkpt>
      <trkpt lat="47.49037" lon="6.77322">
        <ele>330.4</ele>
        <time>2014-10-05T07:39:11.000Z</time>
      </trkpt>
      <trkpt lat="47.49031" lon="6.77322">
        <ele>330</ele>
        <time>2014-10-05T07:39:12.000Z</time>
      </trkpt>
      <trkpt lat="47.49026" lon="6.77322">
        <ele>330</ele>
        <time>2014-10-05T07:39:13.000Z</time>
      </trkpt>
      <trkpt lat="47.4902" lon="6.77323">
        <ele>329.4</ele>
        <time>2014-10-05T07:39:14.000Z</time>
      </trkpt>
      <trkpt lat="47.49014" lon="6.77322">
        <ele>329.6</ele>
        <time>2014-10-05T07:39:15.000Z</time>
      </trkpt>
      <trkpt lat="47.49001" lon="6.77321">
        <ele>330.9</ele>
        <time>2014-10-05T07:39:18.000Z</time>
      </trkpt>
      <trkpt lat="47.48995" lon="6.77321">
        <ele>331</ele>
        <time>2014-10-05T07:39:19.000Z</time>
      </trkpt>
      <trkpt lat="47.4899" lon="6.7732">
        <ele>329.9</ele>
        <time>2014-10-05T07:39:20.000Z</time>
      </trkpt>
      <trkpt lat="47.48984" lon="6.7732">
        <ele>329.5</ele>
        <time>2014-10-05T07:39:21.000Z</time>
      </trkpt>
      <trkpt lat="47.48979" lon="6.7732">
        <ele>329.3</ele>
        <time>2014-10-05T07:39:22.000Z</time>
      </trkpt>
      <trkpt lat="47.48974" lon="6.77319">
        <ele>329.8</ele>
        <time>2014-10-05T07:39:23.000Z</time>
      </trkpt>
      <trkpt lat="47.48968" lon="6.77318">
        <ele>329.5</ele>
        <time>2014-10-05T07:39:24.000Z</time>
      </trkpt>
      <trkpt lat="47.48962" lon="6.77316">
        <ele>329</ele>
        <time>2014-10-05T07:39:25.000Z</time>
      </trkpt>
      <trkpt lat="47.48956" lon="6.77315">
        <ele>328.8</ele>
        <time>2014-10-05T07:39:26.000Z</time>
      </trkpt>
      <trkpt lat="47.48949" lon="6.77314">
        <ele>328.8</ele>
        <time>2014-10-05T07:39:27.000Z</time>
      </trkpt>
      <trkpt lat="47.48944" lon="6.77312">
        <ele>328.1</ele>
        <time>2014-10-05T07:39:28.000Z</time>
      </trkpt>
      <trkpt lat="47.48939" lon="6.7731">
        <ele>327.7</ele>
        <time>2014-10-05T07:39:29.000Z</time>
      </trkpt>
      <trkpt lat="47.48933" lon="6.77307">
        <ele>326.9</ele>
        <time>2014-10-05T07:39:30.000Z</time>
      </trkpt>
      <trkpt lat="47.48928" lon="6.77306">
        <ele>327.2</ele>
        <time>2014-10-05T07:39:31.000Z</time>
      </trkpt>
      <trkpt lat="47.48923" lon="6.77303">
        <ele>327.6</ele>
        <time>2014-10-05T07:39:32.000Z</time>
      </trkpt>
      <trkpt lat="47.48918" lon="6.77301">
        <ele>328.2</ele>
        <time>2014-10-05T07:39:33.000Z</time>
      </trkpt>
      <trkpt lat="47.48913" lon="6.77299">
        <ele>328.6</ele>
        <time>2014-10-05T07:39:34.000Z</time>
      </trkpt>
      <trkpt lat="47.48908" lon="6.77296">
        <ele>328.1</ele>
        <time>2014-10-05T07:39:35.000Z</time>
      </trkpt>
      <trkpt lat="47.48902" lon="6.77294">
        <ele>328.3</ele>
        <time>2014-10-05T07:39:36.000Z</time>
      </trkpt>
      <trkpt lat="47.48898" lon="6.77292">
        <ele>329.8</ele>
        <time>2014-10-05T07:39:37.000Z</time>
      </trkpt>
      <trkpt lat="47.48892" lon="6.77291">
        <ele>330.1</ele>
        <time>2014-10-05T07:39:38.000Z</time>
      </trkpt>
      <trkpt lat="47.48886" lon="6.7729">
        <ele>330</ele>
        <time>2014-10-05T07:39:39.000Z</time>
      </trkpt>
      <trkpt lat="47.4888" lon="6.77288">
        <ele>330</ele>
        <time>2014-10-05T07:39:40.000Z</time>
      </trkpt>
      <trkpt lat="47.48874" lon="6.77286">
        <ele>329.3</ele>
        <time>2014-10-05T07:39:41.000Z</time>
      </trkpt>
      <trkpt lat="47.48869" lon="6.77283">
        <ele>329</ele>
        <time>2014-10-05T07:39:42.000Z</time>
      </trkpt>
      <trkpt lat="47.48864" lon="6.7728">
        <ele>329.7</ele>
        <time>2014-10-05T07:39:43.000Z</time>
      </trkpt>
      <trkpt lat="47.48858" lon="6.77277">
        <ele>328.6</ele>
        <time>2014-10-05T07:39:44.000Z</time>
      </trkpt>
      <trkpt lat="47.48851" lon="6.77273">
        <ele>327.3</ele>
        <time>2014-10-05T07:39:45.000Z</time>
      </trkpt>
      <trkpt lat="47.48845" lon="6.77271">
        <ele>327.5</ele>
        <time>2014-10-05T07:39:46.000Z</time>
      </trkpt>
      <trkpt lat="47.4884" lon="6.77267">
        <ele>327.1</ele>
        <time>2014-10-05T07:39:47.000Z</time>
      </trkpt>
      <trkpt lat="47.48833" lon="6.77265">
        <ele>328.6</ele>
        <time>2014-10-05T07:39:48.000Z</time>
      </trkpt>
      <trkpt lat="47.48828" lon="6.7726">
        <ele>327.4</ele>
        <time>2014-10-05T07:39:49.000Z</time>
      </trkpt>
      <trkpt lat="47.48823" lon="6.77256">
        <ele>327.4</ele>
        <time>2014-10-05T07:39:50.000Z</time>
      </trkpt>
      <trkpt lat="47.48818" lon="6.77252">
        <ele>327.3</ele>
        <time>2014-10-05T07:39:51.000Z</time>
      </trkpt>
      <trkpt lat="47.48812" lon="6.7725">
        <ele>326.7</ele>
        <time>2014-10-05T07:39:52.000Z</time>
      </trkpt>
      <trkpt lat="47.48807" lon="6.77245">
        <ele>326.6</ele>
        <time>2014-10-05T07:39:53.000Z</time>
      </trkpt>
      <trkpt lat="47.48802" lon="6.77241">
        <ele>326.7</ele>
        <time>2014-10-05T07:39:54.000Z</time>
      </trkpt>
      <trkpt lat="47.48797" lon="6.77237">
        <ele>326.7</ele>
        <time>2014-10-05T07:39:55.000Z</time>
      </trkpt>
      <trkpt lat="47.48791" lon="6.77233">
        <ele>326.1</ele>
        <time>2014-10-05T07:39:56.000Z</time>
      </trkpt>
      <trkpt lat="47.48785" lon="6.77229">
        <ele>326</ele>
        <time>2014-10-05T07:39:57.000Z</time>
      </trkpt>
      <trkpt lat="47.48781" lon="6.77225">
        <ele>328</ele>
        <time>2014-10-05T07:39:58.000Z</time>
      </trkpt>
      <trkpt lat="47.48776" lon="6.77221">
        <ele>328.4</ele>
        <time>2014-10-05T07:39:59.000Z</time>
      </trkpt>
      <trkpt lat="47.48771" lon="6.77216">
        <ele>328.1</ele>
        <time>2014-10-05T07:40:00.000Z</time>
      </trkpt>
      <trkpt lat="47.48765" lon="6.77212">
        <ele>328.1</ele>
        <time>2014-10-05T07:40:01.000Z</time>
      </trkpt>
      <trkpt lat="47.4876" lon="6.77209">
        <ele>329</ele>
        <time>2014-10-05T07:40:02.000Z</time>
      </trkpt>
      <trkpt lat="47.48754" lon="6.77205">
        <ele>329.5</ele>
        <time>2014-10-05T07:40:03.000Z</time>
      </trkpt>
      <trkpt lat="47.48749" lon="6.77201">
        <ele>329.7</ele>
        <time>2014-10-05T07:40:04.000Z</time>
      </trkpt>
      <trkpt lat="47.48743" lon="6.77197">
        <ele>329.8</ele>
        <time>2014-10-05T07:40:05.000Z</time>
      </trkpt>
      <trkpt lat="47.48737" lon="6.77193">
        <ele>329.7</ele>
        <time>2014-10-05T07:40:06.000Z</time>
      </trkpt>
      <trkpt lat="47.48731" lon="6.77189">
        <ele>329.2</ele>
        <time>2014-10-05T07:40:07.000Z</time>
      </trkpt>
      <trkpt lat="47.48726" lon="6.77185">
        <ele>329.1</ele>
        <time>2014-10-05T07:40:08.000Z</time>
      </trkpt>
      <trkpt lat="47.48722" lon="6.77181">
        <ele>329.9</ele>
        <time>2014-10-05T07:40:09.000Z</time>
      </trkpt>
      <trkpt lat="47.48717" lon="6.77177">
        <ele>329.6</ele>
        <time>2014-10-05T07:40:10.000Z</time>
      </trkpt>
      <trkpt lat="47.48711" lon="6.77172">
        <ele>329.6</ele>
        <time>2014-10-05T07:40:11.000Z</time>
      </trkpt>
      <trkpt lat="47.48706" lon="6.77168">
        <ele>330.1</ele>
        <time>2014-10-05T07:40:12.000Z</time>
      </trkpt>
      <trkpt lat="47.48701" lon="6.77164">
        <ele>329</ele>
        <time>2014-10-05T07:40:13.000Z</time>
      </trkpt>
      <trkpt lat="47.48696" lon="6.7716">
        <ele>329.8</ele>
        <time>2014-10-05T07:40:14.000Z</time>
      </trkpt>
      <trkpt lat="47.48692" lon="6.77154">
        <ele>330.3</ele>
        <time>2014-10-05T07:40:15.000Z</time>
      </trkpt>
      <trkpt lat="47.48687" lon="6.77148">
        <ele>329.9</ele>
        <time>2014-10-05T07:40:16.000Z</time>
      </trkpt>
      <trkpt lat="47.4865" lon="6.77106">
        <ele>329.4</ele>
        <time>2014-10-05T07:40:24.000Z</time>
      </trkpt>
      <trkpt lat="47.48645" lon="6.77102">
        <ele>330.5</ele>
        <time>2014-10-05T07:40:25.000Z</time>
      </trkpt>
      <trkpt lat="47.48641" lon="6.77096">
        <ele>330.5</ele>
        <time>2014-10-05T07:40:26.000Z</time>
      </trkpt>
      <trkpt lat="47.48635" lon="6.77091">
        <ele>329.4</ele>
        <time>2014-10-05T07:40:27.000Z</time>
      </trkpt>
      <trkpt lat="47.48631" lon="6.77087">
        <ele>329.7</ele>
        <time>2014-10-05T07:40:28.000Z</time>
      </trkpt>
      <trkpt lat="47.48627" lon="6.77084">
        <ele>329.9</ele>
        <time>2014-10-05T07:40:29.000Z</time>
      </trkpt>
      <trkpt lat="47.48622" lon="6.77081">
        <ele>329.9</ele>
        <time>2014-10-05T07:40:30.000Z</time>
      </trkpt>
      <trkpt lat="47.48617" lon="6.77078">
        <ele>330.4</ele>
        <time>2014-10-05T07:40:31.000Z</time>
      </trkpt>
      <trkpt lat="47.48613" lon="6.77074">
        <ele>331.1</ele>
        <time>2014-10-05T07:40:32.000Z</time>
      </trkpt>
      <trkpt lat="47.48609" lon="6.77069">
        <ele>332.6</ele>
        <time>2014-10-05T07:40:33.000Z</time>
      </trkpt>
      <trkpt lat="47.48602" lon="6.77066">
        <ele>333</ele>
        <time>2014-10-05T07:40:34.000Z</time>
      </trkpt>
      <trkpt lat="47.48596" lon="6.77064">
        <ele>332.7</ele>
        <time>2014-10-05T07:40:35.000Z</time>
      </trkpt>
      <trkpt lat="47.48592" lon="6.7706">
        <ele>333.5</ele>
        <time>2014-10-05T07:40:36.000Z</time>
      </trkpt>
      <trkpt lat="47.48589" lon="6.77057">
        <ele>335.4</ele>
        <time>2014-10-05T07:40:37.000Z</time>
      </trkpt>
      <trkpt lat="47.48585" lon="6.77053">
        <ele>335.5</ele>
        <time>2014-10-05T07:40:38.000Z</time>
      </trkpt>
      <trkpt lat="47.48581" lon="6.77049">
        <ele>335.6</ele>
        <time>2014-10-05T07:40:39.000Z</time>
      </trkpt>
      <trkpt lat="47.48577" lon="6.77045">
        <ele>334.9</ele>
        <time>2014-10-05T07:40:40.000Z</time>
      </trkpt>
      <trkpt lat="47.4857" lon="6.77043">
        <ele>334.5</ele>
        <time>2014-10-05T07:40:41.000Z</time>
      </trkpt>
      <trkpt lat="47.48565" lon="6.7704">
        <ele>333.4</ele>
        <time>2014-10-05T07:40:42.000Z</time>
      </trkpt>
      <trkpt lat="47.48558" lon="6.77037">
        <ele>332.7</ele>
        <time>2014-10-05T07:40:43.000Z</time>
      </trkpt>
      <trkpt lat="47.48551" lon="6.77032">
        <ele>331.4</ele>
        <time>2014-10-05T07:40:44.000Z</time>
      </trkpt>
      <trkpt lat="47.48544" lon="6.77026">
        <ele>330.7</ele>
        <time>2014-10-05T07:40:45.000Z</time>
      </trkpt>
      <trkpt lat="47.48538" lon="6.77019">
        <ele>328.6</ele>
        <time>2014-10-05T07:40:46.000Z</time>
      </trkpt>
      <trkpt lat="47.48531" lon="6.77014">
        <ele>329.2</ele>
        <time>2014-10-05T07:40:47.000Z</time>
      </trkpt>
      <trkpt lat="47.48525" lon="6.77009">
        <ele>329</ele>
        <time>2014-10-05T07:40:48.000Z</time>
      </trkpt>
      <trkpt lat="47.48519" lon="6.77003">
        <ele>327.9</ele>
        <time>2014-10-05T07:40:49.000Z</time>
      </trkpt>
      <trkpt lat="47.48513" lon="6.76999">
        <ele>328.5</ele>
        <time>2014-10-05T07:40:50.000Z</time>
      </trkpt>
      <trkpt lat="47.48508" lon="6.76995">
        <ele>328.4</ele>
        <time>2014-10-05T07:40:51.000Z</time>
      </trkpt>
      <trkpt lat="47.48503" lon="6.76992">
        <ele>329.5</ele>
        <time>2014-10-05T07:40:52.000Z</time>
      </trkpt>
      <trkpt lat="47.48498" lon="6.76987">
        <ele>328.6</ele>
        <time>2014-10-05T07:40:53.000Z</time>
      </trkpt>
      <trkpt lat="47.48493" lon="6.76982">
        <ele>328.2</ele>
        <time>2014-10-05T07:40:54.000Z</time>
      </trkpt>
      <trkpt lat="47.48488" lon="6.76978">
        <ele>328.8</ele>
        <time>2014-10-05T07:40:55.000Z</time>
      </trkpt>
      <trkpt lat="47.48483" lon="6.76974">
        <ele>329.6</ele>
        <time>2014-10-05T07:40:56.000Z</time>
      </trkpt>
      <trkpt lat="47.48478" lon="6.76968">
        <ele>329.8</ele>
        <time>2014-10-05T07:40:57.000Z</time>
      </trkpt>
      <trkpt lat="47.48473" lon="6.76965">
        <ele>331.3</ele>
        <time>2014-10-05T07:40:58.000Z</time>
      </trkpt>
      <trkpt lat="47.48468" lon="6.76961">
        <ele>331.8</ele>
        <time>2014-10-05T07:40:59.000Z</time>
      </trkpt>
      <trkpt lat="47.48462" lon="6.76956">
        <ele>330.7</ele>
        <time>2014-10-05T07:41:00.000Z</time>
      </trkpt>
      <trkpt lat="47.48456" lon="6.76953">
        <ele>330.2</ele>
        <time>2014-10-05T07:41:01.000Z</time>
      </trkpt>
      <trkpt lat="47.48449" lon="6.76949">
        <ele>330.3</ele>
        <time>2014-10-05T07:41:02.000Z</time>
      </trkpt>
      <trkpt lat="47.48443" lon="6.76947">
        <ele>330.2</ele>
        <time>2014-10-05T07:41:03.000Z</time>
      </trkpt>
      <trkpt lat="47.48436" lon="6.76944">
        <ele>329.7</ele>
        <time>2014-10-05T07:41:04.000Z</time>
      </trkpt>
      <trkpt lat="47.48433" lon="6.7694">
        <ele>331.1</ele>
        <time>2014-10-05T07:41:05.000Z</time>
      </trkpt>
      <trkpt lat="47.48426" lon="6.76938">
        <ele>330.8</ele>
        <time>2014-10-05T07:41:06.000Z</time>
      </trkpt>
      <trkpt lat="47.4842" lon="6.76935">
        <ele>330.9</ele>
        <time>2014-10-05T07:41:07.000Z</time>
      </trkpt>
      <trkpt lat="47.48414" lon="6.76932">
        <ele>330.5</ele>
        <time>2014-10-05T07:41:08.000Z</time>
      </trkpt>
      <trkpt lat="47.48408" lon="6.76928">
        <ele>330.2</ele>
        <time>2014-10-05T07:41:09.000Z</time>
      </trkpt>
      <trkpt lat="47.48402" lon="6.76926">
        <ele>330.1</ele>
        <time>2014-10-05T07:41:10.000Z</time>
      </trkpt>
      <trkpt lat="47.48395" lon="6.76923">
        <ele>329.7</ele>
        <time>2014-10-05T07:41:11.000Z</time>
      </trkpt>
      <trkpt lat="47.4839" lon="6.76919">
        <ele>330.3</ele>
        <time>2014-10-05T07:41:12.000Z</time>
      </trkpt>
      <trkpt lat="47.48384" lon="6.76916">
        <ele>330.5</ele>
        <time>2014-10-05T07:41:13.000Z</time>
      </trkpt>
      <trkpt lat="47.48379" lon="6.76913">
        <ele>331.4</ele>
        <time>2014-10-05T07:41:14.000Z</time>
      </trkpt>
      <trkpt lat="47.48372" lon="6.7691">
        <ele>331.2</ele>
        <time>2014-10-05T07:41:15.000Z</time>
      </trkpt>
      <trkpt lat="47.48365" lon="6.76907">
        <ele>329.5</ele>
        <time>2014-10-05T07:41:16.000Z</time>
      </trkpt>
      <trkpt lat="47.48325" lon="6.76874">
        <ele>332.7</ele>
        <time>2014-10-05T07:41:24.000Z</time>
      </trkpt>
      <trkpt lat="47.48317" lon="6.76869">
        <ele>332.1</ele>
        <time>2014-10-05T07:41:25.000Z</time>
      </trkpt>
      <trkpt lat="47.4831" lon="6.76864">
        <ele>331.2</ele>
        <time>2014-10-05T07:41:26.000Z</time>
      </trkpt>
      <trkpt lat="47.48306" lon="6.7686">
        <ele>331.8</ele>
        <time>2014-10-05T07:41:27.000Z</time>
      </trkpt>
      <trkpt lat="47.48301" lon="6.76854">
        <ele>331.1</ele>
        <time>2014-10-05T07:41:28.000Z</time>
      </trkpt>
      <trkpt lat="47.48295" lon="6.76848">
        <ele>330.4</ele>
        <time>2014-10-05T07:41:29.000Z</time>
      </trkpt>
      <trkpt lat="47.4829" lon="6.76844">
        <ele>331.1</ele>
        <time>2014-10-05T07:41:30.000Z</time>
      </trkpt>
      <trkpt lat="47.48284" lon="6.76838">
        <ele>331.5</ele>
        <time>2014-10-05T07:41:31.000Z</time>
      </trkpt>
      <trkpt lat="47.48281" lon="6.76831">
        <ele>330.2</ele>
        <time>2014-10-05T07:41:32.000Z</time>
      </trkpt>
      <trkpt lat="47.48277" lon="6.76826">
        <ele>330.9</ele>
        <time>2014-10-05T07:41:33.000Z</time>
      </trkpt>
      <trkpt lat="47.48275" lon="6.76819">
        <ele>333.3</ele>
        <time>2014-10-05T07:41:34.000Z</time>
      </trkpt>
      <trkpt lat="47.4827" lon="6.76813">
        <ele>332.5</ele>
        <time>2014-10-05T07:41:35.000Z</time>
      </trkpt>
      <trkpt lat="47.48266" lon="6.76808">
        <ele>334.4</ele>
        <time>2014-10-05T07:41:36.000Z</time>
      </trkpt>
      <trkpt lat="47.48261" lon="6.76802">
        <ele>334.6</ele>
        <time>2014-10-05T07:41:37.000Z</time>
      </trkpt>
      <trkpt lat="47.48256" lon="6.76798">
        <ele>334.2</ele>
        <time>2014-10-05T07:41:38.000Z</time>
      </trkpt>
      <trkpt lat="47.48249" lon="6.76795">
        <ele>332.3</ele>
        <time>2014-10-05T07:41:39.000Z</time>
      </trkpt>
      <trkpt lat="47.48241" lon="6.76792">
        <ele>331.4</ele>
        <time>2014-10-05T07:41:40.000Z</time>
      </trkpt>
      <trkpt lat="47.48235" lon="6.7679">
        <ele>331.6</ele>
        <time>2014-10-05T07:41:41.000Z</time>
      </trkpt>
      <trkpt lat="47.48229" lon="6.76787">
        <ele>330.1</ele>
        <time>2014-10-05T07:41:42.000Z</time>
      </trkpt>
      <trkpt lat="47.48223" lon="6.76783">
        <ele>330.1</ele>
        <time>2014-10-05T07:41:43.000Z</time>
      </trkpt>
      <trkpt lat="47.48217" lon="6.76782">
        <ele>330.2</ele>
        <time>2014-10-05T07:41:44.000Z</time>
      </trkpt>
      <trkpt lat="47.4821" lon="6.76779">
        <ele>331.3</ele>
        <time>2014-10-05T07:41:45.000Z</time>
      </trkpt>
      <trkpt lat="47.48204" lon="6.76776">
        <ele>330.7</ele>
        <time>2014-10-05T07:41:46.000Z</time>
      </trkpt>
      <trkpt lat="47.48198" lon="6.76772">
        <ele>330.2</ele>
        <time>2014-10-05T07:41:47.000Z</time>
      </trkpt>
      <trkpt lat="47.48192" lon="6.76767">
        <ele>329.9</ele>
        <time>2014-10-05T07:41:48.000Z</time>
      </trkpt>
      <trkpt lat="47.48186" lon="6.76762">
        <ele>329.6</ele>
        <time>2014-10-05T07:41:49.000Z</time>
      </trkpt>
      <trkpt lat="47.48181" lon="6.76757">
        <ele>329.7</ele>
        <time>2014-10-05T07:41:50.000Z</time>
      </trkpt>
      <trkpt lat="47.48175" lon="6.76752">
        <ele>329.7</ele>
        <time>2014-10-05T07:41:51.000Z</time>
      </trkpt>
      <trkpt lat="47.48171" lon="6.76744">
        <ele>330.2</ele>
        <time>2014-10-05T07:41:52.000Z</time>
      </trkpt>
      <trkpt lat="47.48166" lon="6.76738">
        <ele>330.4</ele>
        <time>2014-10-05T07:41:53.000Z</time>
      </trkpt>
      <trkpt lat="47.48164" lon="6.76728">
        <ele>330.7</ele>
        <time>2014-10-05T07:41:54.000Z</time>
      </trkpt>
      <trkpt lat="47.48159" lon="6.76722">
        <ele>330.6</ele>
        <time>2014-10-05T07:41:55.000Z</time>
      </trkpt>
      <trkpt lat="47.48154" lon="6.76714">
        <ele>329.7</ele>
        <time>2014-10-05T07:41:56.000Z</time>
      </trkpt>
      <trkpt lat="47.4815" lon="6.76708">
        <ele>330.7</ele>
        <time>2014-10-05T07:41:57.000Z</time>
      </trkpt>
      <trkpt lat="47.48149" lon="6.76699">
        <ele>332.7</ele>
        <time>2014-10-05T07:41:58.000Z</time>
      </trkpt>
      <trkpt lat="47.48147" lon="6.7669">
        <ele>332.5</ele>
        <time>2014-10-05T07:41:59.000Z</time>
      </trkpt>
      <trkpt lat="47.48143" lon="6.76683">
        <ele>331.2</ele>
        <time>2014-10-05T07:42:00.000Z</time>
      </trkpt>
      <trkpt lat="47.48139" lon="6.76677">
        <ele>331.5</ele>
        <time>2014-10-05T07:42:01.000Z</time>
      </trkpt>
      <trkpt lat="47.48134" lon="6.76671">
        <ele>331.1</ele>
        <time>2014-10-05T07:42:02.000Z</time>
      </trkpt>
      <trkpt lat="47.4813" lon="6.76665">
        <ele>330.3</ele>
        <time>2014-10-05T07:42:03.000Z</time>
      </trkpt>
      <trkpt lat="47.48126" lon="6.76659">
        <ele>330.7</ele>
        <time>2014-10-05T07:42:04.000Z</time>
      </trkpt>
      <trkpt lat="47.48122" lon="6.76654">
        <ele>331</ele>
        <time>2014-10-05T07:42:05.000Z</time>
      </trkpt>
      <trkpt lat="47.48118" lon="6.76647">
        <ele>331.2</ele>
        <time>2014-10-05T07:42:06.000Z</time>
      </trkpt>
      <trkpt lat="47.48114" lon="6.76642">
        <ele>331.5</ele>
        <time>2014-10-05T07:42:07.000Z</time>
      </trkpt>
      <trkpt lat="47.4811" lon="6.76635">
        <ele>330.5</ele>
        <time>2014-10-05T07:42:08.000Z</time>
      </trkpt>
      <trkpt lat="47.48107" lon="6.76628">
        <ele>330.2</ele>
        <time>2014-10-05T07:42:09.000Z</time>
      </trkpt>
      <trkpt lat="47.48105" lon="6.76618">
        <ele>330.3</ele>
        <time>2014-10-05T07:42:10.000Z</time>
      </trkpt>
      <trkpt lat="47.48104" lon="6.7661">
        <ele>331.4</ele>
        <time>2014-10-05T07:42:11.000Z</time>
      </trkpt>
      <trkpt lat="47.48106" lon="6.76607">
        <ele>333.5</ele>
        <time>2014-10-05T07:42:12.000Z</time>
      </trkpt>
      <trkpt lat="47.48109" lon="6.76601">
        <ele>337.8</ele>
        <time>2014-10-05T07:42:13.000Z</time>
      </trkpt>
      <trkpt lat="47.48112" lon="6.76595">
        <ele>336.4</ele>
        <time>2014-10-05T07:42:14.000Z</time>
      </trkpt>
      <trkpt lat="47.48115" lon="6.76588">
        <ele>336.3</ele>
        <time>2014-10-05T07:42:15.000Z</time>
      </trkpt>
      <trkpt lat="47.48121" lon="6.76576">
        <ele>337.1</ele>
        <time>2014-10-05T07:42:18.000Z</time>
      </trkpt>
      <trkpt lat="47.48125" lon="6.76568">
        <ele>337</ele>
        <time>2014-10-05T07:42:19.000Z</time>
      </trkpt>
      <trkpt lat="47.48127" lon="6.76564">
        <ele>336.7</ele>
        <time>2014-10-05T07:42:20.000Z</time>
      </trkpt>
      <trkpt lat="47.48127" lon="6.76558">
        <ele>336</ele>
        <time>2014-10-05T07:42:21.000Z</time>
      </trkpt>
      <trkpt lat="47.48124" lon="6.76553">
        <ele>336.5</ele>
        <time>2014-10-05T07:42:22.000Z</time>
      </trkpt>
      <trkpt lat="47.48123" lon="6.76548">
        <ele>336.9</ele>
        <time>2014-10-05T07:42:23.000Z</time>
      </trkpt>
      <trkpt lat="47.48121" lon="6.76544">
        <ele>340</ele>
        <time>2014-10-05T07:42:24.000Z</time>
      </trkpt>
      <trkpt lat="47.48118" lon="6.76538">
        <ele>339.7</ele>
        <time>2014-10-05T07:42:25.000Z</time>
      </trkpt>
      <trkpt lat="47.48116" lon="6.76534">
        <ele>339.1</ele>
        <time>2014-10-05T07:42:26.000Z</time>
      </trkpt>
      <trkpt lat="47.48114" lon="6.7653">
        <ele>339.9</ele>
        <time>2014-10-05T07:42:27.000Z</time>
      </trkpt>
      <trkpt lat="47.4811" lon="6.76527">
        <ele>338.7</ele>
        <time>2014-10-05T07:42:28.000Z</time>
      </trkpt>
      <trkpt lat="47.48106" lon="6.76525">
        <ele>336</ele>
        <time>2014-10-05T07:42:29.000Z</time>
      </trkpt>
      <trkpt lat="47.48102" lon="6.76527">
        <ele>335.2</ele>
        <time>2014-10-05T07:42:30.000Z</time>
      </trkpt>
      <trkpt lat="47.48098" lon="6.76529">
        <ele>334.3</ele>
        <time>2014-10-05T07:42:31.000Z</time>
      </trkpt>
      <trkpt lat="47.48091" lon="6.76534">
        <ele>338.2</ele>
        <time>2014-10-05T07:42:32.000Z</time>
      </trkpt>
      <trkpt lat="47.48087" lon="6.76536">
        <ele>338.2</ele>
        <time>2014-10-05T07:42:33.000Z</time>
      </trkpt>
      <trkpt lat="47.48083" lon="6.7654">
        <ele>339.4</ele>
        <time>2014-10-05T07:42:34.000Z</time>
      </trkpt>
      <trkpt lat="47.48079" lon="6.76544">
        <ele>339.5</ele>
        <time>2014-10-05T07:42:35.000Z</time>
      </trkpt>
      <trkpt lat="47.48078" lon="6.76546">
        <ele>341.3</ele>
        <time>2014-10-05T07:42:36.000Z</time>
      </trkpt>
      <trkpt lat="47.48073" lon="6.7655">
        <ele>342.1</ele>
        <time>2014-10-05T07:42:37.000Z</time>
      </trkpt>
      <trkpt lat="47.48068" lon="6.76555">
        <ele>341.7</ele>
        <time>2014-10-05T07:42:38.000Z</time>
      </trkpt>
      <trkpt lat="47.48064" lon="6.76557">
        <ele>341.4</ele>
        <time>2014-10-05T07:42:39.000Z</time>
      </trkpt>
      <trkpt lat="47.4806" lon="6.76561">
        <ele>341.1</ele>
        <time>2014-10-05T07:42:40.000Z</time>
      </trkpt>
      <trkpt lat="47.48055" lon="6.76564">
        <ele>340.7</ele>
        <time>2014-10-05T07:42:41.000Z</time>
      </trkpt>
      <trkpt lat="47.48051" lon="6.76566">
        <ele>340.3</ele>
        <time>2014-10-05T07:42:42.000Z</time>
      </trkpt>
      <trkpt lat="47.48046" lon="6.76571">
        <ele>339.8</ele>
        <time>2014-10-05T07:42:43.000Z</time>
      </trkpt>
      <trkpt lat="47.48041" lon="6.76573">
        <ele>340</ele>
        <time>2014-10-05T07:42:44.000Z</time>
      </trkpt>
      <trkpt lat="47.48037" lon="6.76577">
        <ele>339.4</ele>
        <time>2014-10-05T07:42:45.000Z</time>
      </trkpt>
      <trkpt lat="47.48033" lon="6.7658">
        <ele>338.9</ele>
        <time>2014-10-05T07:42:46.000Z</time>
      </trkpt>
      <trkpt lat="47.48028" lon="6.76582">
        <ele>338.3</ele>
        <time>2014-10-05T07:42:47.000Z</time>
      </trkpt>
      <trkpt lat="47.48023" lon="6.76585">
        <ele>338</ele>
        <time>2014-10-05T07:42:48.000Z</time>
      </trkpt>
      <trkpt lat="47.48018" lon="6.76589">
        <ele>338.5</ele>
        <time>2014-10-05T07:42:49.000Z</time>
      </trkpt>
      <trkpt lat="47.48012" lon="6.76592">
        <ele>337.8</ele>
        <time>2014-10-05T07:42:50.000Z</time>
      </trkpt>
      <trkpt lat="47.48007" lon="6.76594">
        <ele>337.9</ele>
        <time>2014-10-05T07:42:51.000Z</time>
      </trkpt>
      <trkpt lat="47.48002" lon="6.76597">
        <ele>337.1</ele>
        <time>2014-10-05T07:42:52.000Z</time>
      </trkpt>
      <trkpt lat="47.47998" lon="6.76598">
        <ele>336.2</ele>
        <time>2014-10-05T07:42:53.000Z</time>
      </trkpt>
      <trkpt lat="47.47992" lon="6.766">
        <ele>334.4</ele>
        <time>2014-10-05T07:42:54.000Z</time>
      </trkpt>
      <trkpt lat="47.47988" lon="6.76603">
        <ele>333.8</ele>
        <time>2014-10-05T07:42:55.000Z</time>
      </trkpt>
      <trkpt lat="47.47984" lon="6.76604">
        <ele>333.1</ele>
        <time>2014-10-05T07:42:56.000Z</time>
      </trkpt>
      <trkpt lat="47.4798" lon="6.76606">
        <ele>332.9</ele>
        <time>2014-10-05T07:42:57.000Z</time>
      </trkpt>
      <trkpt lat="47.47976" lon="6.76606">
        <ele>332.8</ele>
        <time>2014-10-05T07:42:58.000Z</time>
      </trkpt>
      <trkpt lat="47.47971" lon="6.76609">
        <ele>332.7</ele>
        <time>2014-10-05T07:42:59.000Z</time>
      </trkpt>
      <trkpt lat="47.47966" lon="6.76612">
        <ele>331.8</ele>
        <time>2014-10-05T07:43:00.000Z</time>
      </trkpt>
      <trkpt lat="47.47962" lon="6.76612">
        <ele>330.7</ele>
        <time>2014-10-05T07:43:01.000Z</time>
      </trkpt>
      <trkpt lat="47.47957" lon="6.76612">
        <ele>329.8</ele>
        <time>2014-10-05T07:43:02.000Z</time>
      </trkpt>
      <trkpt lat="47.47953" lon="6.76607">
        <ele>329.5</ele>
        <time>2014-10-05T07:43:03.000Z</time>
      </trkpt>
      <trkpt lat="47.47951" lon="6.766">
        <ele>328.7</ele>
        <time>2014-10-05T07:43:04.000Z</time>
      </trkpt>
      <trkpt lat="47.4795" lon="6.76592">
        <ele>328.3</ele>
        <time>2014-10-05T07:43:05.000Z</time>
      </trkpt>
      <trkpt lat="47.47949" lon="6.76583">
        <ele>328.1</ele>
        <time>2014-10-05T07:43:06.000Z</time>
      </trkpt>
      <trkpt lat="47.47949" lon="6.76574">
        <ele>327.2</ele>
        <time>2014-10-05T07:43:07.000Z</time>
      </trkpt>
      <trkpt lat="47.47946" lon="6.76565">
        <ele>326.3</ele>
        <time>2014-10-05T07:43:08.000Z</time>
      </trkpt>
      <trkpt lat="47.47944" lon="6.76556">
        <ele>325.8</ele>
        <time>2014-10-05T07:43:09.000Z</time>
      </trkpt>
      <trkpt lat="47.47942" lon="6.76548">
        <ele>326.2</ele>
        <time>2014-10-05T07:43:10.000Z</time>
      </trkpt>
      <trkpt lat="47.47941" lon="6.76541">
        <ele>326.9</ele>
        <time>2014-10-05T07:43:11.000Z</time>
      </trkpt>
      <trkpt lat="47.47939" lon="6.76533">
        <ele>327.4</ele>
        <time>2014-10-05T07:43:12.000Z</time>
      </trkpt>
      <trkpt lat="47.47937" lon="6.76523">
        <ele>327.4</ele>
        <time>2014-10-05T07:43:13.000Z</time>
      </trkpt>
      <trkpt lat="47.47935" lon="6.76515">
        <ele>327.1</ele>
        <time>2014-10-05T07:43:14.000Z</time>
      </trkpt>
      <trkpt lat="47.47933" lon="6.76507">
        <ele>327</ele>
        <time>2014-10-05T07:43:15.000Z</time>
      </trkpt>
      <trkpt lat="47.47929" lon="6.76489">
        <ele>328.2</ele>
        <time>2014-10-05T07:43:18.000Z</time>
      </trkpt>
      <trkpt lat="47.47926" lon="6.76478">
        <ele>327.4</ele>
        <time>2014-10-05T07:43:19.000Z</time>
      </trkpt>
      <trkpt lat="47.47925" lon="6.76469">
        <ele>327.3</ele>
        <time>2014-10-05T07:43:20.000Z</time>
      </trkpt>
      <trkpt lat="47.47922" lon="6.7646">
        <ele>327.2</ele>
        <time>2014-10-05T07:43:21.000Z</time>
      </trkpt>
      <trkpt lat="47.4792" lon="6.76451">
        <ele>327.3</ele>
        <time>2014-10-05T07:43:22.000Z</time>
      </trkpt>
      <trkpt lat="47.47917" lon="6.76442">
        <ele>327.6</ele>
        <time>2014-10-05T07:43:23.000Z</time>
      </trkpt>
      <trkpt lat="47.47914" lon="6.76433">
        <ele>327.5</ele>
        <time>2014-10-05T07:43:24.000Z</time>
      </trkpt>
      <trkpt lat="47.47911" lon="6.76425">
        <ele>327.5</ele>
        <time>2014-10-05T07:43:25.000Z</time>
      </trkpt>
      <trkpt lat="47.47908" lon="6.76416">
        <ele>328</ele>
        <time>2014-10-05T07:43:26.000Z</time>
      </trkpt>
      <trkpt lat="47.47905" lon="6.76408">
        <ele>328.1</ele>
        <time>2014-10-05T07:43:27.000Z</time>
      </trkpt>
      <trkpt lat="47.47901" lon="6.764">
        <ele>327.9</ele>
        <time>2014-10-05T07:43:28.000Z</time>
      </trkpt>
      <trkpt lat="47.47897" lon="6.76392">
        <ele>328.4</ele>
        <time>2014-10-05T07:43:29.000Z</time>
      </trkpt>
      <trkpt lat="47.47894" lon="6.76384">
        <ele>328.7</ele>
        <time>2014-10-05T07:43:30.000Z</time>
      </trkpt>
      <trkpt lat="47.4789" lon="6.76376">
        <ele>328.5</ele>
        <time>2014-10-05T07:43:31.000Z</time>
      </trkpt>
      <trkpt lat="47.47887" lon="6.76368">
        <ele>328.4</ele>
        <time>2014-10-05T07:43:32.000Z</time>
      </trkpt>
      <trkpt lat="47.47882" lon="6.76361">
        <ele>328.8</ele>
        <time>2014-10-05T07:43:33.000Z</time>
      </trkpt>
      <trkpt lat="47.47879" lon="6.76353">
        <ele>328.7</ele>
        <time>2014-10-05T07:43:34.000Z</time>
      </trkpt>
      <trkpt lat="47.47875" lon="6.76345">
        <ele>328.9</ele>
        <time>2014-10-05T07:43:35.000Z</time>
      </trkpt>
      <trkpt lat="47.4787" lon="6.76338">
        <ele>328.4</ele>
        <time>2014-10-05T07:43:36.000Z</time>
      </trkpt>
      <trkpt lat="47.47866" lon="6.76331">
        <ele>328.6</ele>
        <time>2014-10-05T07:43:37.000Z</time>
      </trkpt>
      <trkpt lat="47.47862" lon="6.76323">
        <ele>328.6</ele>
        <time>2014-10-05T07:43:38.000Z</time>
      </trkpt>
      <trkpt lat="47.47858" lon="6.76315">
        <ele>327.9</ele>
        <time>2014-10-05T07:43:39.000Z</time>
      </trkpt>
      <trkpt lat="47.47853" lon="6.76308">
        <ele>327.6</ele>
        <time>2014-10-05T07:43:40.000Z</time>
      </trkpt>
      <trkpt lat="47.47848" lon="6.76301">
        <ele>328.2</ele>
        <time>2014-10-05T07:43:41.000Z</time>
      </trkpt>
      <trkpt lat="47.47844" lon="6.76294">
        <ele>328.1</ele>
        <time>2014-10-05T07:43:42.000Z</time>
      </trkpt>
      <trkpt lat="47.47838" lon="6.76289">
        <ele>327.8</ele>
        <time>2014-10-05T07:43:43.000Z</time>
      </trkpt>
      <trkpt lat="47.47833" lon="6.76283">
        <ele>327.7</ele>
        <time>2014-10-05T07:43:44.000Z</time>
      </trkpt>
      <trkpt lat="47.47826" lon="6.76278">
        <ele>327.6</ele>
        <time>2014-10-05T07:43:45.000Z</time>
      </trkpt>
      <trkpt lat="47.4782" lon="6.76274">
        <ele>328.4</ele>
        <time>2014-10-05T07:43:46.000Z</time>
      </trkpt>
      <trkpt lat="47.47816" lon="6.76269">
        <ele>328.3</ele>
        <time>2014-10-05T07:43:47.000Z</time>
      </trkpt>
      <trkpt lat="47.47809" lon="6.76265">
        <ele>326.5</ele>
        <time>2014-10-05T07:43:48.000Z</time>
      </trkpt>
      <trkpt lat="47.47803" lon="6.76262">
        <ele>326.3</ele>
        <time>2014-10-05T07:43:49.000Z</time>
      </trkpt>
      <trkpt lat="47.47796" lon="6.76258">
        <ele>325.6</ele>
        <time>2014-10-05T07:43:50.000Z</time>
      </trkpt>
      <trkpt lat="47.47791" lon="6.76253">
        <ele>326</ele>
        <time>2014-10-05T07:43:51.000Z</time>
      </trkpt>
      <trkpt lat="47.47787" lon="6.76247">
        <ele>326.8</ele>
        <time>2014-10-05T07:43:52.000Z</time>
      </trkpt>
      <trkpt lat="47.47783" lon="6.76241">
        <ele>327</ele>
        <time>2014-10-05T07:43:53.000Z</time>
      </trkpt>
      <trkpt lat="47.47778" lon="6.76235">
        <ele>327</ele>
        <time>2014-10-05T07:43:54.000Z</time>
      </trkpt>
      <trkpt lat="47.47773" lon="6.76228">
        <ele>326.7</ele>
        <time>2014-10-05T07:43:55.000Z</time>
      </trkpt>
      <trkpt lat="47.4777" lon="6.76222">
        <ele>327.5</ele>
        <time>2014-10-05T07:43:56.000Z</time>
      </trkpt>
      <trkpt lat="47.47766" lon="6.76215">
        <ele>327.7</ele>
        <time>2014-10-05T07:43:57.000Z</time>
      </trkpt>
      <trkpt lat="47.47761" lon="6.76208">
        <ele>327.8</ele>
        <time>2014-10-05T07:43:58.000Z</time>
      </trkpt>
      <trkpt lat="47.47757" lon="6.76202">
        <ele>327.9</ele>
        <time>2014-10-05T07:43:59.000Z</time>
      </trkpt>
      <trkpt lat="47.47753" lon="6.76196">
        <ele>327.9</ele>
        <time>2014-10-05T07:44:00.000Z</time>
      </trkpt>
      <trkpt lat="47.47749" lon="6.76189">
        <ele>327.4</ele>
        <time>2014-10-05T07:44:01.000Z</time>
      </trkpt>
      <trkpt lat="47.47744" lon="6.76181">
        <ele>326.8</ele>
        <time>2014-10-05T07:44:02.000Z</time>
      </trkpt>
      <trkpt lat="47.4774" lon="6.76174">
        <ele>325.4</ele>
        <time>2014-10-05T07:44:03.000Z</time>
      </trkpt>
      <trkpt lat="47.47736" lon="6.76168">
        <ele>324.9</ele>
        <time>2014-10-05T07:44:04.000Z</time>
      </trkpt>
      <trkpt lat="47.47732" lon="6.76162">
        <ele>324.7</ele>
        <time>2014-10-05T07:44:05.000Z</time>
      </trkpt>
      <trkpt lat="47.47729" lon="6.76155">
        <ele>324.7</ele>
        <time>2014-10-05T07:44:06.000Z</time>
      </trkpt>
      <trkpt lat="47.47724" lon="6.76147">
        <ele>322.7</ele>
        <time>2014-10-05T07:44:07.000Z</time>
      </trkpt>
      <trkpt lat="47.4772" lon="6.7614">
        <ele>323.3</ele>
        <time>2014-10-05T07:44:08.000Z</time>
      </trkpt>
      <trkpt lat="47.47716" lon="6.76134">
        <ele>323.3</ele>
        <time>2014-10-05T07:44:09.000Z</time>
      </trkpt>
      <trkpt lat="47.47711" lon="6.76129">
        <ele>323.4</ele>
        <time>2014-10-05T07:44:10.000Z</time>
      </trkpt>
      <trkpt lat="47.47707" lon="6.76122">
        <ele>323.3</ele>
        <time>2014-10-05T07:44:11.000Z</time>
      </trkpt>
      <trkpt lat="47.47703" lon="6.76115">
        <ele>322.9</ele>
        <time>2014-10-05T07:44:12.000Z</time>
      </trkpt>
      <trkpt lat="47.47699" lon="6.76108">
        <ele>323.6</ele>
        <time>2014-10-05T07:44:13.000Z</time>
      </trkpt>
      <trkpt lat="47.47694" lon="6.76103">
        <ele>323.3</ele>
        <time>2014-10-05T07:44:14.000Z</time>
      </trkpt>
      <trkpt lat="47.47689" lon="6.76097">
        <ele>323.3</ele>
        <time>2014-10-05T07:44:15.000Z</time>
      </trkpt>
      <trkpt lat="47.4768" lon="6.76081">
        <ele>325.7</ele>
        <time>2014-10-05T07:44:18.000Z</time>
      </trkpt>
      <trkpt lat="47.47677" lon="6.76071">
        <ele>326.6</ele>
        <time>2014-10-05T07:44:19.000Z</time>
      </trkpt>
      <trkpt lat="47.47674" lon="6.76063">
        <ele>326.5</ele>
        <time>2014-10-05T07:44:20.000Z</time>
      </trkpt>
      <trkpt lat="47.47671" lon="6.76057">
        <ele>326.7</ele>
        <time>2014-10-05T07:44:21.000Z</time>
      </trkpt>
      <trkpt lat="47.47669" lon="6.76049">
        <ele>326.7</ele>
        <time>2014-10-05T07:44:22.000Z</time>
      </trkpt>
      <trkpt lat="47.47669" lon="6.76039">
        <ele>327.8</ele>
        <time>2014-10-05T07:44:23.000Z</time>
      </trkpt>
      <trkpt lat="47.47669" lon="6.76029">
        <ele>327.8</ele>
        <time>2014-10-05T07:44:24.000Z</time>
      </trkpt>
      <trkpt lat="47.4767" lon="6.7602">
        <ele>327.4</ele>
        <time>2014-10-05T07:44:25.000Z</time>
      </trkpt>
      <trkpt lat="47.47671" lon="6.76011">
        <ele>328</ele>
        <time>2014-10-05T07:44:26.000Z</time>
      </trkpt>
      <trkpt lat="47.47672" lon="6.76003">
        <ele>328.8</ele>
        <time>2014-10-05T07:44:27.000Z</time>
      </trkpt>
      <trkpt lat="47.47675" lon="6.75996">
        <ele>330.4</ele>
        <time>2014-10-05T07:44:28.000Z</time>
      </trkpt>
      <trkpt lat="47.47677" lon="6.75988">
        <ele>329.6</ele>
        <time>2014-10-05T07:44:29.000Z</time>
      </trkpt>
      <trkpt lat="47.4768" lon="6.7598">
        <ele>328.7</ele>
        <time>2014-10-05T07:44:30.000Z</time>
      </trkpt>
      <trkpt lat="47.47683" lon="6.75972">
        <ele>327.7</ele>
        <time>2014-10-05T07:44:31.000Z</time>
      </trkpt>
      <trkpt lat="47.47687" lon="6.75964">
        <ele>327</ele>
        <time>2014-10-05T07:44:32.000Z</time>
      </trkpt>
      <trkpt lat="47.47691" lon="6.75956">
        <ele>326.7</ele>
        <time>2014-10-05T07:44:33.000Z</time>
      </trkpt>
      <trkpt lat="47.47694" lon="6.75948">
        <ele>326.1</ele>
        <time>2014-10-05T07:44:34.000Z</time>
      </trkpt>
      <trkpt lat="47.47696" lon="6.75938">
        <ele>325</ele>
        <time>2014-10-05T07:44:35.000Z</time>
      </trkpt>
      <trkpt lat="47.47697" lon="6.75929">
        <ele>325.2</ele>
        <time>2014-10-05T07:44:36.000Z</time>
      </trkpt>
      <trkpt lat="47.47699" lon="6.75919">
        <ele>325.1</ele>
        <time>2014-10-05T07:44:37.000Z</time>
      </trkpt>
      <trkpt lat="47.47699" lon="6.75909">
        <ele>324.3</ele>
        <time>2014-10-05T07:44:38.000Z</time>
      </trkpt>
      <trkpt lat="47.47699" lon="6.75899">
        <ele>324.2</ele>
        <time>2014-10-05T07:44:39.000Z</time>
      </trkpt>
      <trkpt lat="47.47699" lon="6.7589">
        <ele>323.4</ele>
        <time>2014-10-05T07:44:40.000Z</time>
      </trkpt>
      <trkpt lat="47.47699" lon="6.75881">
        <ele>322.9</ele>
        <time>2014-10-05T07:44:41.000Z</time>
      </trkpt>
      <trkpt lat="47.47699" lon="6.75871">
        <ele>322.7</ele>
        <time>2014-10-05T07:44:42.000Z</time>
      </trkpt>
      <trkpt lat="47.47699" lon="6.75862">
        <ele>322.4</ele>
        <time>2014-10-05T07:44:43.000Z</time>
      </trkpt>
      <trkpt lat="47.47699" lon="6.75853">
        <ele>322.5</ele>
        <time>2014-10-05T07:44:44.000Z</time>
      </trkpt>
      <trkpt lat="47.477" lon="6.75843">
        <ele>321.8</ele>
        <time>2014-10-05T07:44:45.000Z</time>
      </trkpt>
      <trkpt lat="47.477" lon="6.75835">
        <ele>321.9</ele>
        <time>2014-10-05T07:44:46.000Z</time>
      </trkpt>
      <trkpt lat="47.47701" lon="6.75826">
        <ele>321.8</ele>
        <time>2014-10-05T07:44:47.000Z</time>
      </trkpt>
      <trkpt lat="47.47701" lon="6.75817">
        <ele>321.7</ele>
        <time>2014-10-05T07:44:48.000Z</time>
      </trkpt>
      <trkpt lat="47.47702" lon="6.75808">
        <ele>321.3</ele>
        <time>2014-10-05T07:44:49.000Z</time>
      </trkpt>
      <trkpt lat="47.47703" lon="6.75799">
        <ele>321.4</ele>
        <time>2014-10-05T07:44:50.000Z</time>
      </trkpt>
      <trkpt lat="47.47703" lon="6.75789">
        <ele>321.6</ele>
        <time>2014-10-05T07:44:51.000Z</time>
      </trkpt>
      <trkpt lat="47.47702" lon="6.75783">
        <ele>321.6</ele>
        <time>2014-10-05T07:44:52.000Z</time>
      </trkpt>
      <trkpt lat="47.47703" lon="6.75774">
        <ele>321.8</ele>
        <time>2014-10-05T07:44:53.000Z</time>
      </trkpt>
      <trkpt lat="47.47702" lon="6.75763">
        <ele>320.8</ele>
        <time>2014-10-05T07:44:54.000Z</time>
      </trkpt>
      <trkpt lat="47.47701" lon="6.75753">
        <ele>319.7</ele>
        <time>2014-10-05T07:44:55.000Z</time>
      </trkpt>
      <trkpt lat="47.477" lon="6.75742">
        <ele>319.9</ele>
        <time>2014-10-05T07:44:56.000Z</time>
      </trkpt>
      <trkpt lat="47.477" lon="6.75733">
        <ele>321</ele>
        <time>2014-10-05T07:44:57.000Z</time>
      </trkpt>
      <trkpt lat="47.47701" lon="6.75724">
        <ele>320.8</ele>
        <time>2014-10-05T07:44:58.000Z</time>
      </trkpt>
      <trkpt lat="47.47702" lon="6.75717">
        <ele>320.8</ele>
        <time>2014-10-05T07:44:59.000Z</time>
      </trkpt>
      <trkpt lat="47.47703" lon="6.75708">
        <ele>320.4</ele>
        <time>2014-10-05T07:45:00.000Z</time>
      </trkpt>
      <trkpt lat="47.47703" lon="6.757">
        <ele>319.9</ele>
        <time>2014-10-05T07:45:01.000Z</time>
      </trkpt>
      <trkpt lat="47.47704" lon="6.75691">
        <ele>319.7</ele>
        <time>2014-10-05T07:45:02.000Z</time>
      </trkpt>
      <trkpt lat="47.47704" lon="6.75682">
        <ele>319.1</ele>
        <time>2014-10-05T07:45:03.000Z</time>
      </trkpt>
      <trkpt lat="47.47704" lon="6.75673">
        <ele>318.8</ele>
        <time>2014-10-05T07:45:04.000Z</time>
      </trkpt>
      <trkpt lat="47.47704" lon="6.75663">
        <ele>318.7</ele>
        <time>2014-10-05T07:45:05.000Z</time>
      </trkpt>
      <trkpt lat="47.47705" lon="6.75653">
        <ele>318.4</ele>
        <time>2014-10-05T07:45:06.000Z</time>
      </trkpt>
      <trkpt lat="47.47705" lon="6.75645">
        <ele>319.3</ele>
        <time>2014-10-05T07:45:07.000Z</time>
      </trkpt>
      <trkpt lat="47.47704" lon="6.75638">
        <ele>321.3</ele>
        <time>2014-10-05T07:45:08.000Z</time>
      </trkpt>
      <trkpt lat="47.47704" lon="6.75628">
        <ele>321.8</ele>
        <time>2014-10-05T07:45:09.000Z</time>
      </trkpt>
      <trkpt lat="47.47704" lon="6.75619">
        <ele>321.4</ele>
        <time>2014-10-05T07:45:10.000Z</time>
      </trkpt>
      <trkpt lat="47.47704" lon="6.75608">
        <ele>319.5</ele>
        <time>2014-10-05T07:45:11.000Z</time>
      </trkpt>
      <trkpt lat="47.47704" lon="6.75599">
        <ele>319.8</ele>
        <time>2014-10-05T07:45:12.000Z</time>
      </trkpt>
      <trkpt lat="47.47703" lon="6.7559">
        <ele>320.4</ele>
        <time>2014-10-05T07:45:13.000Z</time>
      </trkpt>
      <trkpt lat="47.47703" lon="6.75581">
        <ele>320.3</ele>
        <time>2014-10-05T07:45:14.000Z</time>
      </trkpt>
      <trkpt lat="47.47704" lon="6.75571">
        <ele>319.9</ele>
        <time>2014-10-05T07:45:15.000Z</time>
      </trkpt>
      <trkpt lat="47.47705" lon="6.75548">
        <ele>321.6</ele>
        <time>2014-10-05T07:45:18.000Z</time>
      </trkpt>
      <trkpt lat="47.47705" lon="6.75538">
        <ele>321.1</ele>
        <time>2014-10-05T07:45:19.000Z</time>
      </trkpt>
      <trkpt lat="47.47705" lon="6.75528">
        <ele>319.8</ele>
        <time>2014-10-05T07:45:20.000Z</time>
      </trkpt>
      <trkpt lat="47.47706" lon="6.75518">
        <ele>319.5</ele>
        <time>2014-10-05T07:45:21.000Z</time>
      </trkpt>
      <trkpt lat="47.47707" lon="6.75509">
        <ele>319.4</ele>
        <time>2014-10-05T07:45:22.000Z</time>
      </trkpt>
      <trkpt lat="47.47709" lon="6.755">
        <ele>319.8</ele>
        <time>2014-10-05T07:45:23.000Z</time>
      </trkpt>
      <trkpt lat="47.4771" lon="6.75489">
        <ele>320.1</ele>
        <time>2014-10-05T07:45:24.000Z</time>
      </trkpt>
      <trkpt lat="47.4771" lon="6.7548">
        <ele>320.5</ele>
        <time>2014-10-05T07:45:25.000Z</time>
      </trkpt>
      <trkpt lat="47.47711" lon="6.75472">
        <ele>321.4</ele>
        <time>2014-10-05T07:45:26.000Z</time>
      </trkpt>
      <trkpt lat="47.47711" lon="6.75464">
        <ele>322.3</ele>
        <time>2014-10-05T07:45:26.999Z</time>
      </trkpt>
      <trkpt lat="47.47711" lon="6.75454">
        <ele>321.4</ele>
        <time>2014-10-05T07:45:28.000Z</time>
      </trkpt>
      <trkpt lat="47.47712" lon="6.75444">
        <ele>321.5</ele>
        <time>2014-10-05T07:45:29.000Z</time>
      </trkpt>
      <trkpt lat="47.47712" lon="6.75435">
        <ele>322.3</ele>
        <time>2014-10-05T07:45:30.000Z</time>
      </trkpt>
      <trkpt lat="47.47712" lon="6.75425">
        <ele>321.8</ele>
        <time>2014-10-05T07:45:31.000Z</time>
      </trkpt>
      <trkpt lat="47.47712" lon="6.75416">
        <ele>324.2</ele>
        <time>2014-10-05T07:45:32.000Z</time>
      </trkpt>
      <trkpt lat="47.47712" lon="6.75407">
        <ele>322.8</ele>
        <time>2014-10-05T07:45:33.000Z</time>
      </trkpt>
      <trkpt lat="47.47712" lon="6.754">
        <ele>323.6</ele>
        <time>2014-10-05T07:45:34.000Z</time>
      </trkpt>
      <trkpt lat="47.47713" lon="6.75391">
        <ele>323.8</ele>
        <time>2014-10-05T07:45:35.000Z</time>
      </trkpt>
      <trkpt lat="47.47714" lon="6.75382">
        <ele>324.1</ele>
        <time>2014-10-05T07:45:36.000Z</time>
      </trkpt>
      <trkpt lat="47.47714" lon="6.75372">
        <ele>323.8</ele>
        <time>2014-10-05T07:45:37.000Z</time>
      </trkpt>
      <trkpt lat="47.47714" lon="6.75362">
        <ele>324.9</ele>
        <time>2014-10-05T07:45:38.000Z</time>
      </trkpt>
      <trkpt lat="47.47716" lon="6.75355">
        <ele>324.8</ele>
        <time>2014-10-05T07:45:39.000Z</time>
      </trkpt>
      <trkpt lat="47.47716" lon="6.75346">
        <ele>324.8</ele>
        <time>2014-10-05T07:45:40.000Z</time>
      </trkpt>
      <trkpt lat="47.47717" lon="6.75338">
        <ele>324.9</ele>
        <time>2014-10-05T07:45:41.000Z</time>
      </trkpt>
      <trkpt lat="47.47718" lon="6.75327">
        <ele>323.6</ele>
        <time>2014-10-05T07:45:42.000Z</time>
      </trkpt>
      <trkpt lat="47.47718" lon="6.75318">
        <ele>324.8</ele>
        <time>2014-10-05T07:45:43.000Z</time>
      </trkpt>
      <trkpt lat="47.47718" lon="6.75309">
        <ele>324.2</ele>
        <time>2014-10-05T07:45:44.000Z</time>
      </trkpt>
      <trkpt lat="47.47718" lon="6.753">
        <ele>322.8</ele>
        <time>2014-10-05T07:45:45.000Z</time>
      </trkpt>
      <trkpt lat="47.47719" lon="6.75291">
        <ele>322.3</ele>
        <time>2014-10-05T07:45:46.000Z</time>
      </trkpt>
      <trkpt lat="47.47719" lon="6.75283">
        <ele>322.4</ele>
        <time>2014-10-05T07:45:47.000Z</time>
      </trkpt>
      <trkpt lat="47.47719" lon="6.75274">
        <ele>322.3</ele>
        <time>2014-10-05T07:45:48.000Z</time>
      </trkpt>
      <trkpt lat="47.47718" lon="6.75266">
        <ele>322.7</ele>
        <time>2014-10-05T07:45:49.000Z</time>
      </trkpt>
      <trkpt lat="47.47718" lon="6.75257">
        <ele>322.6</ele>
        <time>2014-10-05T07:45:50.000Z</time>
      </trkpt>
      <trkpt lat="47.47718" lon="6.75248">
        <ele>322.9</ele>
        <time>2014-10-05T07:45:51.000Z</time>
      </trkpt>
      <trkpt lat="47.47719" lon="6.75238">
        <ele>322.7</ele>
        <time>2014-10-05T07:45:52.000Z</time>
      </trkpt>
      <trkpt lat="47.47719" lon="6.75229">
        <ele>323.3</ele>
        <time>2014-10-05T07:45:53.000Z</time>
      </trkpt>
      <trkpt lat="47.47719" lon="6.75219">
        <ele>324</ele>
        <time>2014-10-05T07:45:54.000Z</time>
      </trkpt>
      <trkpt lat="47.47719" lon="6.7521">
        <ele>324.6</ele>
        <time>2014-10-05T07:45:55.000Z</time>
      </trkpt>
      <trkpt lat="47.47718" lon="6.75201">
        <ele>324.3</ele>
        <time>2014-10-05T07:45:56.000Z</time>
      </trkpt>
      <trkpt lat="47.47719" lon="6.75192">
        <ele>324.6</ele>
        <time>2014-10-05T07:45:57.000Z</time>
      </trkpt>
      <trkpt lat="47.4772" lon="6.75184">
        <ele>325.9</ele>
        <time>2014-10-05T07:45:58.000Z</time>
      </trkpt>
      <trkpt lat="47.4772" lon="6.75174">
        <ele>325.5</ele>
        <time>2014-10-05T07:45:59.000Z</time>
      </trkpt>
      <trkpt lat="47.47721" lon="6.75165">
        <ele>325.6</ele>
        <time>2014-10-05T07:46:00.000Z</time>
      </trkpt>
      <trkpt lat="47.47722" lon="6.75158">
        <ele>327.4</ele>
        <time>2014-10-05T07:46:01.000Z</time>
      </trkpt>
      <trkpt lat="47.47722" lon="6.75148">
        <ele>327.3</ele>
        <time>2014-10-05T07:46:02.000Z</time>
      </trkpt>
      <trkpt lat="47.47722" lon="6.75139">
        <ele>327.3</ele>
        <time>2014-10-05T07:46:03.000Z</time>
      </trkpt>
      <trkpt lat="47.47722" lon="6.75129">
        <ele>327.1</ele>
        <time>2014-10-05T07:46:04.000Z</time>
      </trkpt>
      <trkpt lat="47.47721" lon="6.7512">
        <ele>327</ele>
        <time>2014-10-05T07:46:05.000Z</time>
      </trkpt>
      <trkpt lat="47.47721" lon="6.75109">
        <ele>326.5</ele>
        <time>2014-10-05T07:46:06.000Z</time>
      </trkpt>
      <trkpt lat="47.47721" lon="6.751">
        <ele>326.2</ele>
        <time>2014-10-05T07:46:07.000Z</time>
      </trkpt>
      <trkpt lat="47.47721" lon="6.75091">
        <ele>326</ele>
        <time>2014-10-05T07:46:08.000Z</time>
      </trkpt>
      <trkpt lat="47.47722" lon="6.75081">
        <ele>326.1</ele>
        <time>2014-10-05T07:46:09.000Z</time>
      </trkpt>
      <trkpt lat="47.47722" lon="6.75073">
        <ele>327</ele>
        <time>2014-10-05T07:46:10.000Z</time>
      </trkpt>
      <trkpt lat="47.47722" lon="6.75063">
        <ele>326.8</ele>
        <time>2014-10-05T07:46:11.000Z</time>
      </trkpt>
      <trkpt lat="47.47722" lon="6.75055">
        <ele>327.2</ele>
        <time>2014-10-05T07:46:12.000Z</time>
      </trkpt>
      <trkpt lat="47.47723" lon="6.75045">
        <ele>326.9</ele>
        <time>2014-10-05T07:46:13.000Z</time>
      </trkpt>
      <trkpt lat="47.47723" lon="6.75035">
        <ele>326.6</ele>
        <time>2014-10-05T07:46:14.000Z</time>
      </trkpt>
      <trkpt lat="47.47724" lon="6.75024">
        <ele>324.9</ele>
        <time>2014-10-05T07:46:15.000Z</time>
      </trkpt>
      <trkpt lat="47.47723" lon="6.75015">
        <ele>325.4</ele>
        <time>2014-10-05T07:46:16.000Z</time>
      </trkpt>
      <trkpt lat="47.47725" lon="6.74991">
        <ele>326.1</ele>
        <time>2014-10-05T07:46:19.000Z</time>
      </trkpt>
      <trkpt lat="47.47725" lon="6.74982">
        <ele>325.9</ele>
        <time>2014-10-05T07:46:20.000Z</time>
      </trkpt>
      <trkpt lat="47.47724" lon="6.74972">
        <ele>325.5</ele>
        <time>2014-10-05T07:46:21.000Z</time>
      </trkpt>
      <trkpt lat="47.47724" lon="6.74962">
        <ele>325.5</ele>
        <time>2014-10-05T07:46:22.000Z</time>
      </trkpt>
      <trkpt lat="47.47725" lon="6.74953">
        <ele>325.2</ele>
        <time>2014-10-05T07:46:23.000Z</time>
      </trkpt>
      <trkpt lat="47.47725" lon="6.74942">
        <ele>325.5</ele>
        <time>2014-10-05T07:46:24.000Z</time>
      </trkpt>
      <trkpt lat="47.47725" lon="6.74933">
        <ele>325.5</ele>
        <time>2014-10-05T07:46:25.000Z</time>
      </trkpt>
      <trkpt lat="47.47723" lon="6.74928">
        <ele>330.3</ele>
        <time>2014-10-05T07:46:26.000Z</time>
      </trkpt>
      <trkpt lat="47.47722" lon="6.74919">
        <ele>331.2</ele>
        <time>2014-10-05T07:46:27.000Z</time>
      </trkpt>
      <trkpt lat="47.47723" lon="6.74909">
        <ele>330.7</ele>
        <time>2014-10-05T07:46:28.000Z</time>
      </trkpt>
      <trkpt lat="47.47723" lon="6.749">
        <ele>331.3</ele>
        <time>2014-10-05T07:46:29.000Z</time>
      </trkpt>
      <trkpt lat="47.47724" lon="6.7489">
        <ele>331.4</ele>
        <time>2014-10-05T07:46:30.000Z</time>
      </trkpt>
      <trkpt lat="47.47725" lon="6.74881">
        <ele>330.8</ele>
        <time>2014-10-05T07:46:31.000Z</time>
      </trkpt>
      <trkpt lat="47.47726" lon="6.74872">
        <ele>330.8</ele>
        <time>2014-10-05T07:46:32.000Z</time>
      </trkpt>
      <trkpt lat="47.47727" lon="6.74863">
        <ele>329.9</ele>
        <time>2014-10-05T07:46:33.000Z</time>
      </trkpt>
      <trkpt lat="47.47727" lon="6.74853">
        <ele>330.1</ele>
        <time>2014-10-05T07:46:34.000Z</time>
      </trkpt>
      <trkpt lat="47.4773" lon="6.74847">
        <ele>330.9</ele>
        <time>2014-10-05T07:46:35.000Z</time>
      </trkpt>
      <trkpt lat="47.4773" lon="6.74837">
        <ele>330.2</ele>
        <time>2014-10-05T07:46:36.000Z</time>
      </trkpt>
      <trkpt lat="47.4773" lon="6.74829">
        <ele>331.4</ele>
        <time>2014-10-05T07:46:37.000Z</time>
      </trkpt>
      <trkpt lat="47.4773" lon="6.74821">
        <ele>332.6</ele>
        <time>2014-10-05T07:46:38.000Z</time>
      </trkpt>
      <trkpt lat="47.4773" lon="6.74813">
        <ele>332.6</ele>
        <time>2014-10-05T07:46:39.000Z</time>
      </trkpt>
      <trkpt lat="47.4773" lon="6.74805">
        <ele>332.6</ele>
        <time>2014-10-05T07:46:40.000Z</time>
      </trkpt>
      <trkpt lat="47.4773" lon="6.74796">
        <ele>332.6</ele>
        <time>2014-10-05T07:46:41.000Z</time>
      </trkpt>
      <trkpt lat="47.47731" lon="6.74787">
        <ele>332</ele>
        <time>2014-10-05T07:46:42.000Z</time>
      </trkpt>
      <trkpt lat="47.47731" lon="6.74779">
        <ele>332.3</ele>
        <time>2014-10-05T07:46:43.000Z</time>
      </trkpt>
      <trkpt lat="47.47732" lon="6.74769">
        <ele>331.8</ele>
        <time>2014-10-05T07:46:44.000Z</time>
      </trkpt>
      <trkpt lat="47.47731" lon="6.7476">
        <ele>330.8</ele>
        <time>2014-10-05T07:46:45.000Z</time>
      </trkpt>
      <trkpt lat="47.47732" lon="6.74751">
        <ele>330.6</ele>
        <time>2014-10-05T07:46:46.000Z</time>
      </trkpt>
      <trkpt lat="47.47733" lon="6.74742">
        <ele>330.8</ele>
        <time>2014-10-05T07:46:47.000Z</time>
      </trkpt>
      <trkpt lat="47.47733" lon="6.74733">
        <ele>330.3</ele>
        <time>2014-10-05T07:46:48.000Z</time>
      </trkpt>
      <trkpt lat="47.47733" lon="6.74725">
        <ele>329.8</ele>
        <time>2014-10-05T07:46:49.000Z</time>
      </trkpt>
      <trkpt lat="47.47733" lon="6.74717">
        <ele>330</ele>
        <time>2014-10-05T07:46:50.000Z</time>
      </trkpt>
      <trkpt lat="47.47733" lon="6.74708">
        <ele>329.7</ele>
        <time>2014-10-05T07:46:51.000Z</time>
      </trkpt>
      <trkpt lat="47.47733" lon="6.74699">
        <ele>329.9</ele>
        <time>2014-10-05T07:46:52.000Z</time>
      </trkpt>
      <trkpt lat="47.47734" lon="6.7469">
        <ele>329.2</ele>
        <time>2014-10-05T07:46:53.000Z</time>
      </trkpt>
      <trkpt lat="47.47734" lon="6.74681">
        <ele>329.8</ele>
        <time>2014-10-05T07:46:54.000Z</time>
      </trkpt>
      <trkpt lat="47.47734" lon="6.74675">
        <ele>332.2</ele>
        <time>2014-10-05T07:46:55.000Z</time>
      </trkpt>
      <trkpt lat="47.47735" lon="6.74667">
        <ele>332.8</ele>
        <time>2014-10-05T07:46:56.000Z</time>
      </trkpt>
      <trkpt lat="47.47735" lon="6.74658">
        <ele>333.2</ele>
        <time>2014-10-05T07:46:57.000Z</time>
      </trkpt>
      <trkpt lat="47.47735" lon="6.74649">
        <ele>332.6</ele>
        <time>2014-10-05T07:46:58.000Z</time>
      </trkpt>
      <trkpt lat="47.47735" lon="6.7464">
        <ele>332.2</ele>
        <time>2014-10-05T07:46:59.000Z</time>
      </trkpt>
      <trkpt lat="47.47735" lon="6.7463">
        <ele>331.7</ele>
        <time>2014-10-05T07:47:00.000Z</time>
      </trkpt>
      <trkpt lat="47.47735" lon="6.74622">
        <ele>331.6</ele>
        <time>2014-10-05T07:47:01.000Z</time>
      </trkpt>
      <trkpt lat="47.47734" lon="6.74613">
        <ele>331.4</ele>
        <time>2014-10-05T07:47:02.000Z</time>
      </trkpt>
      <trkpt lat="47.47733" lon="6.74605">
        <ele>331.5</ele>
        <time>2014-10-05T07:47:03.000Z</time>
      </trkpt>
      <trkpt lat="47.47733" lon="6.74596">
        <ele>330.6</ele>
        <time>2014-10-05T07:47:04.000Z</time>
      </trkpt>
      <trkpt lat="47.47733" lon="6.74587">
        <ele>329.6</ele>
        <time>2014-10-05T07:47:05.000Z</time>
      </trkpt>
      <trkpt lat="47.47732" lon="6.7458">
        <ele>330</ele>
        <time>2014-10-05T07:47:06.000Z</time>
      </trkpt>
      <trkpt lat="47.47731" lon="6.74571">
        <ele>329</ele>
        <time>2014-10-05T07:47:07.000Z</time>
      </trkpt>
      <trkpt lat="47.47731" lon="6.74562">
        <ele>328.6</ele>
        <time>2014-10-05T07:47:08.000Z</time>
      </trkpt>
      <trkpt lat="47.4773" lon="6.74555">
        <ele>328.8</ele>
        <time>2014-10-05T07:47:09.000Z</time>
      </trkpt>
      <trkpt lat="47.4773" lon="6.74548">
        <ele>328.5</ele>
        <time>2014-10-05T07:47:10.000Z</time>
      </trkpt>
      <trkpt lat="47.4773" lon="6.74538">
        <ele>327.1</ele>
        <time>2014-10-05T07:47:11.000Z</time>
      </trkpt>
      <trkpt lat="47.47732" lon="6.74531">
        <ele>325.8</ele>
        <time>2014-10-05T07:47:12.000Z</time>
      </trkpt>
      <trkpt lat="47.47734" lon="6.74523">
        <ele>325.2</ele>
        <time>2014-10-05T07:47:13.000Z</time>
      </trkpt>
      <trkpt lat="47.47736" lon="6.74514">
        <ele>324.8</ele>
        <time>2014-10-05T07:47:14.000Z</time>
      </trkpt>
      <trkpt lat="47.47734" lon="6.74507">
        <ele>325.2</ele>
        <time>2014-10-05T07:47:15.000Z</time>
      </trkpt>
      <trkpt lat="47.47728" lon="6.74489">
        <ele>327</ele>
        <time>2014-10-05T07:47:18.000Z</time>
      </trkpt>
      <trkpt lat="47.47728" lon="6.74481">
        <ele>327.7</ele>
        <time>2014-10-05T07:47:19.000Z</time>
      </trkpt>
      <trkpt lat="47.47727" lon="6.74474">
        <ele>327.3</ele>
        <time>2014-10-05T07:47:20.000Z</time>
      </trkpt>
      <trkpt lat="47.47727" lon="6.74466">
        <ele>327.9</ele>
        <time>2014-10-05T07:47:21.000Z</time>
      </trkpt>
      <trkpt lat="47.47727" lon="6.74459">
        <ele>328.6</ele>
        <time>2014-10-05T07:47:22.000Z</time>
      </trkpt>
      <trkpt lat="47.47727" lon="6.74451">
        <ele>328.8</ele>
        <time>2014-10-05T07:47:23.000Z</time>
      </trkpt>
      <trkpt lat="47.47726" lon="6.74442">
        <ele>328.8</ele>
        <time>2014-10-05T07:47:24.000Z</time>
      </trkpt>
      <trkpt lat="47.47726" lon="6.74434">
        <ele>328.8</ele>
        <time>2014-10-05T07:47:25.000Z</time>
      </trkpt>
      <trkpt lat="47.47724" lon="6.74427">
        <ele>328.5</ele>
        <time>2014-10-05T07:47:26.000Z</time>
      </trkpt>
      <trkpt lat="47.47724" lon="6.7442">
        <ele>330</ele>
        <time>2014-10-05T07:47:27.000Z</time>
      </trkpt>
      <trkpt lat="47.47724" lon="6.74412">
        <ele>330.6</ele>
        <time>2014-10-05T07:47:28.000Z</time>
      </trkpt>
      <trkpt lat="47.47722" lon="6.74404">
        <ele>330.4</ele>
        <time>2014-10-05T07:47:29.000Z</time>
      </trkpt>
      <trkpt lat="47.47722" lon="6.74396">
        <ele>331.1</ele>
        <time>2014-10-05T07:47:30.000Z</time>
      </trkpt>
      <trkpt lat="47.47721" lon="6.74388">
        <ele>331.4</ele>
        <time>2014-10-05T07:47:31.000Z</time>
      </trkpt>
      <trkpt lat="47.47721" lon="6.7438">
        <ele>332.1</ele>
        <time>2014-10-05T07:47:32.000Z</time>
      </trkpt>
      <trkpt lat="47.47719" lon="6.74372">
        <ele>331.7</ele>
        <time>2014-10-05T07:47:33.000Z</time>
      </trkpt>
      <trkpt lat="47.47718" lon="6.74364">
        <ele>331.8</ele>
        <time>2014-10-05T07:47:34.000Z</time>
      </trkpt>
      <trkpt lat="47.47717" lon="6.74358">
        <ele>333.9</ele>
        <time>2014-10-05T07:47:35.000Z</time>
      </trkpt>
      <trkpt lat="47.47716" lon="6.74351">
        <ele>334.8</ele>
        <time>2014-10-05T07:47:36.000Z</time>
      </trkpt>
      <trkpt lat="47.47715" lon="6.74346">
        <ele>337.5</ele>
        <time>2014-10-05T07:47:37.000Z</time>
      </trkpt>
      <trkpt lat="47.47713" lon="6.74338">
        <ele>338.1</ele>
        <time>2014-10-05T07:47:38.000Z</time>
      </trkpt>
      <trkpt lat="47.47712" lon="6.74328">
        <ele>337.7</ele>
        <time>2014-10-05T07:47:39.000Z</time>
      </trkpt>
      <trkpt lat="47.4771" lon="6.74319">
        <ele>336.6</ele>
        <time>2014-10-05T07:47:40.000Z</time>
      </trkpt>
      <trkpt lat="47.47709" lon="6.74309">
        <ele>335.8</ele>
        <time>2014-10-05T07:47:41.000Z</time>
      </trkpt>
      <trkpt lat="47.47708" lon="6.74301">
        <ele>335.8</ele>
        <time>2014-10-05T07:47:42.000Z</time>
      </trkpt>
      <trkpt lat="47.47706" lon="6.74293">
        <ele>335.5</ele>
        <time>2014-10-05T07:47:43.000Z</time>
      </trkpt>
      <trkpt lat="47.47705" lon="6.74284">
        <ele>334</ele>
        <time>2014-10-05T07:47:44.000Z</time>
      </trkpt>
      <trkpt lat="47.47703" lon="6.74274">
        <ele>333.2</ele>
        <time>2014-10-05T07:47:45.000Z</time>
      </trkpt>
      <trkpt lat="47.47702" lon="6.74265">
        <ele>333</ele>
        <time>2014-10-05T07:47:46.000Z</time>
      </trkpt>
      <trkpt lat="47.477" lon="6.74256">
        <ele>332.6</ele>
        <time>2014-10-05T07:47:47.000Z</time>
      </trkpt>
      <trkpt lat="47.47698" lon="6.74248">
        <ele>332.6</ele>
        <time>2014-10-05T07:47:48.000Z</time>
      </trkpt>
      <trkpt lat="47.47696" lon="6.74239">
        <ele>332.6</ele>
        <time>2014-10-05T07:47:49.000Z</time>
      </trkpt>
      <trkpt lat="47.47695" lon="6.7423">
        <ele>332.3</ele>
        <time>2014-10-05T07:47:50.000Z</time>
      </trkpt>
      <trkpt lat="47.47694" lon="6.74222">
        <ele>333</ele>
        <time>2014-10-05T07:47:51.000Z</time>
      </trkpt>
      <trkpt lat="47.47693" lon="6.74214">
        <ele>333.5</ele>
        <time>2014-10-05T07:47:52.000Z</time>
      </trkpt>
      <trkpt lat="47.47689" lon="6.74202">
        <ele>331.6</ele>
        <time>2014-10-05T07:47:53.000Z</time>
      </trkpt>
      <trkpt lat="47.47688" lon="6.74195">
        <ele>332.2</ele>
        <time>2014-10-05T07:47:54.000Z</time>
      </trkpt>
      <trkpt lat="47.47687" lon="6.74188">
        <ele>332.7</ele>
        <time>2014-10-05T07:47:55.000Z</time>
      </trkpt>
      <trkpt lat="47.47686" lon="6.7418">
        <ele>332.4</ele>
        <time>2014-10-05T07:47:56.000Z</time>
      </trkpt>
      <trkpt lat="47.47684" lon="6.74172">
        <ele>332.3</ele>
        <time>2014-10-05T07:47:57.000Z</time>
      </trkpt>
      <trkpt lat="47.47683" lon="6.74164">
        <ele>331.4</ele>
        <time>2014-10-05T07:47:58.000Z</time>
      </trkpt>
      <trkpt lat="47.47681" lon="6.74155">
        <ele>330.9</ele>
        <time>2014-10-05T07:47:59.000Z</time>
      </trkpt>
      <trkpt lat="47.4768" lon="6.74147">
        <ele>330.5</ele>
        <time>2014-10-05T07:48:00.000Z</time>
      </trkpt>
      <trkpt lat="47.47678" lon="6.74139">
        <ele>330.4</ele>
        <time>2014-10-05T07:48:01.000Z</time>
      </trkpt>
      <trkpt lat="47.47677" lon="6.74133">
        <ele>330.4</ele>
        <time>2014-10-05T07:48:02.000Z</time>
      </trkpt>
      <trkpt lat="47.47676" lon="6.74128">
        <ele>329.8</ele>
        <time>2014-10-05T07:48:03.000Z</time>
      </trkpt>
      <trkpt lat="47.47674" lon="6.74121">
        <ele>328.4</ele>
        <time>2014-10-05T07:48:04.000Z</time>
      </trkpt>
      <trkpt lat="47.47672" lon="6.74118">
        <ele>327.5</ele>
        <time>2014-10-05T07:48:05.000Z</time>
      </trkpt>
      <trkpt lat="47.47669" lon="6.74116">
        <ele>325.7</ele>
        <time>2014-10-05T07:48:06.000Z</time>
      </trkpt>
      <trkpt lat="47.47665" lon="6.74115">
        <ele>325.3</ele>
        <time>2014-10-05T07:48:07.000Z</time>
      </trkpt>
      <trkpt lat="47.47662" lon="6.74114">
        <ele>324.7</ele>
        <time>2014-10-05T07:48:08.000Z</time>
      </trkpt>
      <trkpt lat="47.47658" lon="6.74111">
        <ele>325</ele>
        <time>2014-10-05T07:48:09.000Z</time>
      </trkpt>
      <trkpt lat="47.47654" lon="6.74108">
        <ele>325.5</ele>
        <time>2014-10-05T07:48:10.000Z</time>
      </trkpt>
      <trkpt lat="47.47651" lon="6.74104">
        <ele>325.9</ele>
        <time>2014-10-05T07:48:11.000Z</time>
      </trkpt>
      <trkpt lat="47.47648" lon="6.74096">
        <ele>325.1</ele>
        <time>2014-10-05T07:48:12.000Z</time>
      </trkpt>
      <trkpt lat="47.47644" lon="6.7409">
        <ele>325</ele>
        <time>2014-10-05T07:48:13.000Z</time>
      </trkpt>
      <trkpt lat="47.47642" lon="6.74083">
        <ele>325.1</ele>
        <time>2014-10-05T07:48:14.000Z</time>
      </trkpt>
      <trkpt lat="47.4764" lon="6.74076">
        <ele>324.8</ele>
        <time>2014-10-05T07:48:15.000Z</time>
      </trkpt>
      <trkpt lat="47.47634" lon="6.74063">
        <ele>325.6</ele>
        <time>2014-10-05T07:48:18.000Z</time>
      </trkpt>
      <trkpt lat="47.4763" lon="6.7406">
        <ele>326.5</ele>
        <time>2014-10-05T07:48:19.000Z</time>
      </trkpt>
      <trkpt lat="47.47627" lon="6.74059">
        <ele>326.8</ele>
        <time>2014-10-05T07:48:20.000Z</time>
      </trkpt>
      <trkpt lat="47.47622" lon="6.7406">
        <ele>326.7</ele>
        <time>2014-10-05T07:48:21.000Z</time>
      </trkpt>
      <trkpt lat="47.47619" lon="6.74061">
        <ele>326.5</ele>
        <time>2014-10-05T07:48:22.000Z</time>
      </trkpt>
      <trkpt lat="47.47616" lon="6.74062">
        <ele>326.4</ele>
        <time>2014-10-05T07:48:23.000Z</time>
      </trkpt>
      <trkpt lat="47.47613" lon="6.74062">
        <ele>326.8</ele>
        <time>2014-10-05T07:48:24.000Z</time>
      </trkpt>
      <trkpt lat="47.4761" lon="6.74064">
        <ele>327.3</ele>
        <time>2014-10-05T07:48:25.000Z</time>
      </trkpt>
      <trkpt lat="47.47607" lon="6.74066">
        <ele>326.1</ele>
        <time>2014-10-05T07:48:26.000Z</time>
      </trkpt>
      <trkpt lat="47.47604" lon="6.74067">
        <ele>326.5</ele>
        <time>2014-10-05T07:48:27.000Z</time>
      </trkpt>
      <trkpt lat="47.47601" lon="6.74069">
        <ele>325.4</ele>
        <time>2014-10-05T07:48:28.000Z</time>
      </trkpt>
      <trkpt lat="47.47597" lon="6.7407">
        <ele>326.1</ele>
        <time>2014-10-05T07:48:29.000Z</time>
      </trkpt>
      <trkpt lat="47.47594" lon="6.74072">
        <ele>326.5</ele>
        <time>2014-10-05T07:48:30.000Z</time>
      </trkpt>
      <trkpt lat="47.47591" lon="6.74074">
        <ele>326.2</ele>
        <time>2014-10-05T07:48:31.000Z</time>
      </trkpt>
      <trkpt lat="47.47588" lon="6.74076">
        <ele>327.3</ele>
        <time>2014-10-05T07:48:32.000Z</time>
      </trkpt>
      <trkpt lat="47.47585" lon="6.74078">
        <ele>327.5</ele>
        <time>2014-10-05T07:48:33.000Z</time>
      </trkpt>
      <trkpt lat="47.47582" lon="6.7408">
        <ele>326.8</ele>
        <time>2014-10-05T07:48:34.000Z</time>
      </trkpt>
      <trkpt lat="47.47579" lon="6.74082">
        <ele>325.6</ele>
        <time>2014-10-05T07:48:35.000Z</time>
      </trkpt>
      <trkpt lat="47.47575" lon="6.74085">
        <ele>326.5</ele>
        <time>2014-10-05T07:48:36.000Z</time>
      </trkpt>
      <trkpt lat="47.4757" lon="6.74089">
        <ele>325.8</ele>
        <time>2014-10-05T07:48:37.000Z</time>
      </trkpt>
      <trkpt lat="47.47566" lon="6.74091">
        <ele>326.6</ele>
        <time>2014-10-05T07:48:38.000Z</time>
      </trkpt>
      <trkpt lat="47.47563" lon="6.74094">
        <ele>326.7</ele>
        <time>2014-10-05T07:48:39.000Z</time>
      </trkpt>
      <trkpt lat="47.4756" lon="6.74095">
        <ele>325.9</ele>
        <time>2014-10-05T07:48:40.000Z</time>
      </trkpt>
      <trkpt lat="47.47556" lon="6.74097">
        <ele>325.4</ele>
        <time>2014-10-05T07:48:41.000Z</time>
      </trkpt>
      <trkpt lat="47.47552" lon="6.741">
        <ele>325.4</ele>
        <time>2014-10-05T07:48:42.000Z</time>
      </trkpt>
      <trkpt lat="47.47548" lon="6.74102">
        <ele>326.1</ele>
        <time>2014-10-05T07:48:43.000Z</time>
      </trkpt>
      <trkpt lat="47.47544" lon="6.74105">
        <ele>326.5</ele>
        <time>2014-10-05T07:48:44.000Z</time>
      </trkpt>
      <trkpt lat="47.4754" lon="6.74108">
        <ele>326.3</ele>
        <time>2014-10-05T07:48:45.000Z</time>
      </trkpt>
      <trkpt lat="47.47536" lon="6.74112">
        <ele>326.6</ele>
        <time>2014-10-05T07:48:46.000Z</time>
      </trkpt>
      <trkpt lat="47.47533" lon="6.74115">
        <ele>327.3</ele>
        <time>2014-10-05T07:48:47.000Z</time>
      </trkpt>
      <trkpt lat="47.47529" lon="6.74118">
        <ele>327</ele>
        <time>2014-10-05T07:48:48.000Z</time>
      </trkpt>
      <trkpt lat="47.47525" lon="6.74121">
        <ele>327</ele>
        <time>2014-10-05T07:48:49.000Z</time>
      </trkpt>
      <trkpt lat="47.47521" lon="6.74126">
        <ele>327</ele>
        <time>2014-10-05T07:48:50.000Z</time>
      </trkpt>
      <trkpt lat="47.47518" lon="6.74129">
        <ele>327.1</ele>
        <time>2014-10-05T07:48:51.000Z</time>
      </trkpt>
      <trkpt lat="47.47513" lon="6.74131">
        <ele>326.7</ele>
        <time>2014-10-05T07:48:52.000Z</time>
      </trkpt>
      <trkpt lat="47.4751" lon="6.74135">
        <ele>326.5</ele>
        <time>2014-10-05T07:48:53.000Z</time>
      </trkpt>
      <trkpt lat="47.47506" lon="6.74137">
        <ele>326.3</ele>
        <time>2014-10-05T07:48:54.000Z</time>
      </trkpt>
      <trkpt lat="47.47502" lon="6.7414">
        <ele>327.2</ele>
        <time>2014-10-05T07:48:55.000Z</time>
      </trkpt>
      <trkpt lat="47.47498" lon="6.74143">
        <ele>327.7</ele>
        <time>2014-10-05T07:48:56.000Z</time>
      </trkpt>
      <trkpt lat="47.47493" lon="6.74146">
        <ele>327.2</ele>
        <time>2014-10-05T07:48:57.000Z</time>
      </trkpt>
      <trkpt lat="47.4749" lon="6.74148">
        <ele>327.7</ele>
        <time>2014-10-05T07:48:58.000Z</time>
      </trkpt>
      <trkpt lat="47.47487" lon="6.74151">
        <ele>328.3</ele>
        <time>2014-10-05T07:48:59.000Z</time>
      </trkpt>
      <trkpt lat="47.47483" lon="6.74155">
        <ele>328.4</ele>
        <time>2014-10-05T07:49:00.000Z</time>
      </trkpt>
      <trkpt lat="47.47479" lon="6.74159">
        <ele>327.6</ele>
        <time>2014-10-05T07:49:01.000Z</time>
      </trkpt>
      <trkpt lat="47.47475" lon="6.74161">
        <ele>326.7</ele>
        <time>2014-10-05T07:49:02.000Z</time>
      </trkpt>
      <trkpt lat="47.47472" lon="6.74164">
        <ele>327.4</ele>
        <time>2014-10-05T07:49:03.000Z</time>
      </trkpt>
      <trkpt lat="47.47468" lon="6.74166">
        <ele>327</ele>
        <time>2014-10-05T07:49:04.000Z</time>
      </trkpt>
      <trkpt lat="47.47464" lon="6.74169">
        <ele>326.9</ele>
        <time>2014-10-05T07:49:05.000Z</time>
      </trkpt>
      <trkpt lat="47.47461" lon="6.74171">
        <ele>326.7</ele>
        <time>2014-10-05T07:49:06.000Z</time>
      </trkpt>
      <trkpt lat="47.47455" lon="6.74173">
        <ele>326.3</ele>
        <time>2014-10-05T07:49:07.000Z</time>
      </trkpt>
      <trkpt lat="47.47449" lon="6.74176">
        <ele>326.2</ele>
        <time>2014-10-05T07:49:08.000Z</time>
      </trkpt>
      <trkpt lat="47.47445" lon="6.74179">
        <ele>325.4</ele>
        <time>2014-10-05T07:49:09.000Z</time>
      </trkpt>
      <trkpt lat="47.4744" lon="6.74181">
        <ele>325.1</ele>
        <time>2014-10-05T07:49:10.000Z</time>
      </trkpt>
      <trkpt lat="47.47435" lon="6.74183">
        <ele>325</ele>
        <time>2014-10-05T07:49:11.000Z</time>
      </trkpt>
      <trkpt lat="47.4743" lon="6.74185">
        <ele>324.9</ele>
        <time>2014-10-05T07:49:12.000Z</time>
      </trkpt>
      <trkpt lat="47.47425" lon="6.74187">
        <ele>325</ele>
        <time>2014-10-05T07:49:13.000Z</time>
      </trkpt>
      <trkpt lat="47.47421" lon="6.74189">
        <ele>324.4</ele>
        <time>2014-10-05T07:49:14.000Z</time>
      </trkpt>
      <trkpt lat="47.47416" lon="6.74193">
        <ele>322.8</ele>
        <time>2014-10-05T07:49:15.000Z</time>
      </trkpt>
      <trkpt lat="47.47405" lon="6.74198">
        <ele>321.1</ele>
        <time>2014-10-05T07:49:18.000Z</time>
      </trkpt>
      <trkpt lat="47.47399" lon="6.742">
        <ele>322.4</ele>
        <time>2014-10-05T07:49:19.000Z</time>
      </trkpt>
      <trkpt lat="47.47394" lon="6.74203">
        <ele>322.7</ele>
        <time>2014-10-05T07:49:20.000Z</time>
      </trkpt>
      <trkpt lat="47.4739" lon="6.74205">
        <ele>323.5</ele>
        <time>2014-10-05T07:49:21.000Z</time>
      </trkpt>
      <trkpt lat="47.47385" lon="6.74207">
        <ele>323</ele>
        <time>2014-10-05T07:49:22.000Z</time>
      </trkpt>
      <trkpt lat="47.4738" lon="6.74209">
        <ele>323.4</ele>
        <time>2014-10-05T07:49:23.000Z</time>
      </trkpt>
      <trkpt lat="47.47375" lon="6.7421">
        <ele>323.2</ele>
        <time>2014-10-05T07:49:24.000Z</time>
      </trkpt>
      <trkpt lat="47.47371" lon="6.74213">
        <ele>323.3</ele>
        <time>2014-10-05T07:49:25.000Z</time>
      </trkpt>
      <trkpt lat="47.47366" lon="6.74216">
        <ele>323.1</ele>
        <time>2014-10-05T07:49:26.000Z</time>
      </trkpt>
      <trkpt lat="47.47361" lon="6.74218">
        <ele>323.3</ele>
        <time>2014-10-05T07:49:27.000Z</time>
      </trkpt>
      <trkpt lat="47.47356" lon="6.7422">
        <ele>323.7</ele>
        <time>2014-10-05T07:49:28.000Z</time>
      </trkpt>
      <trkpt lat="47.47352" lon="6.74223">
        <ele>325.2</ele>
        <time>2014-10-05T07:49:29.000Z</time>
      </trkpt>
      <trkpt lat="47.47348" lon="6.74226">
        <ele>325.6</ele>
        <time>2014-10-05T07:49:30.000Z</time>
      </trkpt>
      <trkpt lat="47.47343" lon="6.74229">
        <ele>324.6</ele>
        <time>2014-10-05T07:49:31.000Z</time>
      </trkpt>
      <trkpt lat="47.47338" lon="6.74231">
        <ele>324.3</ele>
        <time>2014-10-05T07:49:32.000Z</time>
      </trkpt>
      <trkpt lat="47.47334" lon="6.74234">
        <ele>323.2</ele>
        <time>2014-10-05T07:49:33.000Z</time>
      </trkpt>
      <trkpt lat="47.47329" lon="6.74236">
        <ele>323.5</ele>
        <time>2014-10-05T07:49:34.000Z</time>
      </trkpt>
      <trkpt lat="47.47325" lon="6.74237">
        <ele>323.2</ele>
        <time>2014-10-05T07:49:35.000Z</time>
      </trkpt>
      <trkpt lat="47.47323" lon="6.74239">
        <ele>324.4</ele>
        <time>2014-10-05T07:49:36.000Z</time>
      </trkpt>
      <trkpt lat="47.47319" lon="6.7424">
        <ele>324.2</ele>
        <time>2014-10-05T07:49:37.000Z</time>
      </trkpt>
      <trkpt lat="47.47313" lon="6.74243">
        <ele>324.8</ele>
        <time>2014-10-05T07:49:38.000Z</time>
      </trkpt>
      <trkpt lat="47.47308" lon="6.74245">
        <ele>324.4</ele>
        <time>2014-10-05T07:49:39.000Z</time>
      </trkpt>
      <trkpt lat="47.47304" lon="6.74246">
        <ele>324.5</ele>
        <time>2014-10-05T07:49:40.000Z</time>
      </trkpt>
      <trkpt lat="47.47299" lon="6.74245">
        <ele>325</ele>
        <time>2014-10-05T07:49:41.000Z</time>
      </trkpt>
      <trkpt lat="47.47294" lon="6.74248">
        <ele>324.4</ele>
        <time>2014-10-05T07:49:42.000Z</time>
      </trkpt>
      <trkpt lat="47.47289" lon="6.74249">
        <ele>325</ele>
        <time>2014-10-05T07:49:43.000Z</time>
      </trkpt>
      <trkpt lat="47.47285" lon="6.7425">
        <ele>325.3</ele>
        <time>2014-10-05T07:49:44.000Z</time>
      </trkpt>
      <trkpt lat="47.4728" lon="6.74251">
        <ele>324.4</ele>
        <time>2014-10-05T07:49:45.000Z</time>
      </trkpt>
      <trkpt lat="47.47275" lon="6.74253">
        <ele>324.4</ele>
        <time>2014-10-05T07:49:46.000Z</time>
      </trkpt>
      <trkpt lat="47.4727" lon="6.74255">
        <ele>324.4</ele>
        <time>2014-10-05T07:49:47.000Z</time>
      </trkpt>
      <trkpt lat="47.47266" lon="6.74256">
        <ele>324.5</ele>
        <time>2014-10-05T07:49:48.000Z</time>
      </trkpt>
      <trkpt lat="47.47261" lon="6.74258">
        <ele>324.6</ele>
        <time>2014-10-05T07:49:49.000Z</time>
      </trkpt>
      <trkpt lat="47.47258" lon="6.74265">
        <ele>324.6</ele>
        <time>2014-10-05T07:49:50.000Z</time>
      </trkpt>
      <trkpt lat="47.47254" lon="6.74269">
        <ele>324.6</ele>
        <time>2014-10-05T07:49:51.000Z</time>
      </trkpt>
      <trkpt lat="47.47253" lon="6.74277">
        <ele>324.5</ele>
        <time>2014-10-05T07:49:52.000Z</time>
      </trkpt>
      <trkpt lat="47.47253" lon="6.74284">
        <ele>323.6</ele>
        <time>2014-10-05T07:49:53.000Z</time>
      </trkpt>
      <trkpt lat="47.47252" lon="6.74289">
        <ele>323.7</ele>
        <time>2014-10-05T07:49:54.000Z</time>
      </trkpt>
      <trkpt lat="47.47252" lon="6.74295">
        <ele>323.6</ele>
        <time>2014-10-05T07:49:55.000Z</time>
      </trkpt>
      <trkpt lat="47.47251" lon="6.74301">
        <ele>322.8</ele>
        <time>2014-10-05T07:49:56.000Z</time>
      </trkpt>
      <trkpt lat="47.47249" lon="6.74307">
        <ele>322.7</ele>
        <time>2014-10-05T07:49:57.000Z</time>
      </trkpt>
      <trkpt lat="47.47247" lon="6.74311">
        <ele>323.1</ele>
        <time>2014-10-05T07:49:58.000Z</time>
      </trkpt>
      <trkpt lat="47.47245" lon="6.74319">
        <ele>324.2</ele>
        <time>2014-10-05T07:49:59.000Z</time>
      </trkpt>
      <trkpt lat="47.47242" lon="6.74325">
        <ele>324.1</ele>
        <time>2014-10-05T07:50:00.000Z</time>
      </trkpt>
      <trkpt lat="47.47239" lon="6.74329">
        <ele>323.8</ele>
        <time>2014-10-05T07:50:01.000Z</time>
      </trkpt>
      <trkpt lat="47.47237" lon="6.74334">
        <ele>324.7</ele>
        <time>2014-10-05T07:50:02.000Z</time>
      </trkpt>
      <trkpt lat="47.47234" lon="6.74338">
        <ele>325.1</ele>
        <time>2014-10-05T07:50:03.000Z</time>
      </trkpt>
      <trkpt lat="47.47231" lon="6.74343">
        <ele>325</ele>
        <time>2014-10-05T07:50:04.000Z</time>
      </trkpt>
      <trkpt lat="47.47228" lon="6.74347">
        <ele>325</ele>
        <time>2014-10-05T07:50:05.000Z</time>
      </trkpt>
      <trkpt lat="47.47224" lon="6.74351">
        <ele>325.1</ele>
        <time>2014-10-05T07:50:06.000Z</time>
      </trkpt>
      <trkpt lat="47.47221" lon="6.74354">
        <ele>325.6</ele>
        <time>2014-10-05T07:50:07.000Z</time>
      </trkpt>
      <trkpt lat="47.47218" lon="6.74356">
        <ele>325.7</ele>
        <time>2014-10-05T07:50:08.000Z</time>
      </trkpt>
      <trkpt lat="47.47214" lon="6.74357">
        <ele>326.9</ele>
        <time>2014-10-05T07:50:10.000Z</time>
      </trkpt>
      <trkpt lat="47.47212" lon="6.74356">
        <ele>326.1</ele>
        <time>2014-10-05T07:50:11.000Z</time>
      </trkpt>
      <trkpt lat="47.47209" lon="6.74354">
        <ele>326.2</ele>
        <time>2014-10-05T07:50:16.000Z</time>
      </trkpt>
      <trkpt lat="47.47207" lon="6.74352">
        <ele>326.4</ele>
        <time>2014-10-05T07:50:19.000Z</time>
      </trkpt>
      <trkpt lat="47.47204" lon="6.74352">
        <ele>322</ele>
        <time>2014-10-05T07:50:22.000Z</time>
      </trkpt>
      <trkpt lat="47.47202" lon="6.74352">
        <ele>321.6</ele>
        <time>2014-10-05T07:50:23.000Z</time>
      </trkpt>
      <trkpt lat="47.47198" lon="6.7435">
        <ele>326.6</ele>
        <time>2014-10-05T07:50:26.000Z</time>
      </trkpt>
      <trkpt lat="47.47196" lon="6.7435">
        <ele>327.3</ele>
        <time>2014-10-05T07:50:27.000Z</time>
      </trkpt>
      <trkpt lat="47.47193" lon="6.7435">
        <ele>327.5</ele>
        <time>2014-10-05T07:50:29.000Z</time>
      </trkpt>
      <trkpt lat="47.47191" lon="6.7435">
        <ele>328.5</ele>
        <time>2014-10-05T07:50:30.000Z</time>
      </trkpt>
      <trkpt lat="47.47186" lon="6.74349">
        <ele>329.1</ele>
        <time>2014-10-05T07:50:32.000Z</time>
      </trkpt>
      <trkpt lat="47.47184" lon="6.74349">
        <ele>329.2</ele>
        <time>2014-10-05T07:50:33.000Z</time>
      </trkpt>
      <trkpt lat="47.47182" lon="6.7435">
        <ele>329.5</ele>
        <time>2014-10-05T07:50:34.000Z</time>
      </trkpt>
      <trkpt lat="47.4718" lon="6.7435">
        <ele>330.9</ele>
        <time>2014-10-05T07:50:35.000Z</time>
      </trkpt>
      <trkpt lat="47.47177" lon="6.74351">
        <ele>331.4</ele>
        <time>2014-10-05T07:50:36.000Z</time>
      </trkpt>
      <trkpt lat="47.47175" lon="6.74351">
        <ele>332</ele>
        <time>2014-10-05T07:50:37.000Z</time>
      </trkpt>
      <trkpt lat="47.47171" lon="6.74352">
        <ele>333.4</ele>
        <time>2014-10-05T07:50:39.000Z</time>
      </trkpt>
      <trkpt lat="47.47169" lon="6.74352">
        <ele>334.1</ele>
        <time>2014-10-05T07:50:40.000Z</time>
      </trkpt>
      <trkpt lat="47.47165" lon="6.74353">
        <ele>331.7</ele>
        <time>2014-10-05T07:50:42.000Z</time>
      </trkpt>
      <trkpt lat="47.47162" lon="6.74354">
        <ele>330.5</ele>
        <time>2014-10-05T07:50:43.000Z</time>
      </trkpt>
      <trkpt lat="47.47159" lon="6.74355">
        <ele>328.5</ele>
        <time>2014-10-05T07:50:44.000Z</time>
      </trkpt>
      <trkpt lat="47.47156" lon="6.74356">
        <ele>327.4</ele>
        <time>2014-10-05T07:50:45.000Z</time>
      </trkpt>
      <trkpt lat="47.47152" lon="6.74356">
        <ele>327.3</ele>
        <time>2014-10-05T07:50:46.000Z</time>
      </trkpt>
      <trkpt lat="47.47148" lon="6.74355">
        <ele>327.6</ele>
        <time>2014-10-05T07:50:47.000Z</time>
      </trkpt>
      <trkpt lat="47.47145" lon="6.74354">
        <ele>327.5</ele>
        <time>2014-10-05T07:50:48.000Z</time>
      </trkpt>
      <trkpt lat="47.47141" lon="6.74354">
        <ele>325.2</ele>
        <time>2014-10-05T07:50:49.000Z</time>
      </trkpt>
      <trkpt lat="47.47138" lon="6.74356">
        <ele>324.4</ele>
        <time>2014-10-05T07:50:50.000Z</time>
      </trkpt>
      <trkpt lat="47.47136" lon="6.74357">
        <ele>325.2</ele>
        <time>2014-10-05T07:50:51.000Z</time>
      </trkpt>
      <trkpt lat="47.47133" lon="6.74359">
        <ele>325.5</ele>
        <time>2014-10-05T07:50:52.000Z</time>
      </trkpt>
      <trkpt lat="47.47131" lon="6.74359">
        <ele>326.8</ele>
        <time>2014-10-05T07:50:53.000Z</time>
      </trkpt>
      <trkpt lat="47.47127" lon="6.7436">
        <ele>327.9</ele>
        <time>2014-10-05T07:50:55.000Z</time>
      </trkpt>
      <trkpt lat="47.47124" lon="6.7436">
        <ele>328.2</ele>
        <time>2014-10-05T07:50:56.000Z</time>
      </trkpt>
      <trkpt lat="47.4712" lon="6.74361">
        <ele>328.7</ele>
        <time>2014-10-05T07:50:58.000Z</time>
      </trkpt>
      <trkpt lat="47.47118" lon="6.74362">
        <ele>328.7</ele>
        <time>2014-10-05T07:50:59.000Z</time>
      </trkpt>
      <trkpt lat="47.47116" lon="6.74363">
        <ele>329.1</ele>
        <time>2014-10-05T07:51:00.000Z</time>
      </trkpt>
      <trkpt lat="47.47114" lon="6.74365">
        <ele>329.4</ele>
        <time>2014-10-05T07:51:01.000Z</time>
      </trkpt>
      <trkpt lat="47.4711" lon="6.74367">
        <ele>329.8</ele>
        <time>2014-10-05T07:51:03.000Z</time>
      </trkpt>
      <trkpt lat="47.47108" lon="6.74367">
        <ele>330.9</ele>
        <time>2014-10-05T07:51:04.000Z</time>
      </trkpt>
      <trkpt lat="47.47105" lon="6.74368">
        <ele>333</ele>
        <time>2014-10-05T07:51:05.000Z</time>
      </trkpt>
      <trkpt lat="47.47103" lon="6.74368">
        <ele>333.4</ele>
        <time>2014-10-05T07:51:06.000Z</time>
      </trkpt>
      <trkpt lat="47.47101" lon="6.74369">
        <ele>333.6</ele>
        <time>2014-10-05T07:51:07.000Z</time>
      </trkpt>
      <trkpt lat="47.47098" lon="6.7437">
        <ele>333.8</ele>
        <time>2014-10-05T07:51:08.000Z</time>
      </trkpt>
      <trkpt lat="47.47096" lon="6.74371">
        <ele>335.9</ele>
        <time>2014-10-05T07:51:09.000Z</time>
      </trkpt>
      <trkpt lat="47.47094" lon="6.74374">
        <ele>336.3</ele>
        <time>2014-10-05T07:51:10.000Z</time>
      </trkpt>
      <trkpt lat="47.47091" lon="6.74376">
        <ele>336.7</ele>
        <time>2014-10-05T07:51:11.000Z</time>
      </trkpt>
      <trkpt lat="47.4709" lon="6.74378">
        <ele>337.5</ele>
        <time>2014-10-05T07:51:12.000Z</time>
      </trkpt>
      <trkpt lat="47.47086" lon="6.7438">
        <ele>337.7</ele>
        <time>2014-10-05T07:51:14.000Z</time>
      </trkpt>
      <trkpt lat="47.47085" lon="6.74381">
        <ele>337.5</ele>
        <time>2014-10-05T07:51:15.000Z</time>
      </trkpt>
      <trkpt lat="47.4708" lon="6.74385">
        <ele>339</ele>
        <time>2014-10-05T07:51:18.000Z</time>
      </trkpt>
      <trkpt lat="47.47076" lon="6.74387">
        <ele>338.7</ele>
        <time>2014-10-05T07:51:20.000Z</time>
      </trkpt>
      <trkpt lat="47.47074" lon="6.74387">
        <ele>338.8</ele>
        <time>2014-10-05T07:51:21.000Z</time>
      </trkpt>
      <trkpt lat="47.4707" lon="6.7439">
        <ele>339.5</ele>
        <time>2014-10-05T07:51:23.000Z</time>
      </trkpt>
      <trkpt lat="47.47068" lon="6.74392">
        <ele>340.2</ele>
        <time>2014-10-05T07:51:24.000Z</time>
      </trkpt>
      <trkpt lat="47.47066" lon="6.74395">
        <ele>339.6</ele>
        <time>2014-10-05T07:51:25.000Z</time>
      </trkpt>
      <trkpt lat="47.47065" lon="6.74397">
        <ele>339.1</ele>
        <time>2014-10-05T07:51:26.000Z</time>
      </trkpt>
      <trkpt lat="47.47061" lon="6.74401">
        <ele>338.6</ele>
        <time>2014-10-05T07:51:28.000Z</time>
      </trkpt>
      <trkpt lat="47.47059" lon="6.74402">
        <ele>338.6</ele>
        <time>2014-10-05T07:51:29.000Z</time>
      </trkpt>
      <trkpt lat="47.47056" lon="6.74402">
        <ele>338.7</ele>
        <time>2014-10-05T07:51:31.000Z</time>
      </trkpt>
      <trkpt lat="47.47054" lon="6.74403">
        <ele>338.7</ele>
        <time>2014-10-05T07:51:32.000Z</time>
      </trkpt>
      <trkpt lat="47.4705" lon="6.74404">
        <ele>338.9</ele>
        <time>2014-10-05T07:51:34.000Z</time>
      </trkpt>
      <trkpt lat="47.47049" lon="6.74405">
        <ele>338.7</ele>
        <time>2014-10-05T07:51:35.000Z</time>
      </trkpt>
      <trkpt lat="47.47046" lon="6.74407">
        <ele>340.3</ele>
        <time>2014-10-05T07:51:37.000Z</time>
      </trkpt>
      <trkpt lat="47.47044" lon="6.74408">
        <ele>340.4</ele>
        <time>2014-10-05T07:51:38.000Z</time>
      </trkpt>
      <trkpt lat="47.47042" lon="6.74413">
        <ele>344.7</ele>
        <time>2014-10-05T07:51:41.000Z</time>
      </trkpt>
      <trkpt lat="47.47041" lon="6.74415">
        <ele>344.5</ele>
        <time>2014-10-05T07:51:42.000Z</time>
      </trkpt>
      <trkpt lat="47.47038" lon="6.74417">
        <ele>346.1</ele>
        <time>2014-10-05T07:51:45.000Z</time>
      </trkpt>
      <trkpt lat="47.47037" lon="6.74417">
        <ele>347.6</ele>
        <time>2014-10-05T07:51:46.000Z</time>
      </trkpt>
      <trkpt lat="47.47035" lon="6.74419">
        <ele>348.3</ele>
        <time>2014-10-05T07:51:52.000Z</time>
      </trkpt>
      <trkpt lat="47.47033" lon="6.74421">
        <ele>348.2</ele>
        <time>2014-10-05T07:51:53.000Z</time>
      </trkpt>
      <trkpt lat="47.47031" lon="6.74422">
        <ele>348.6</ele>
        <time>2014-10-05T07:51:54.000Z</time>
      </trkpt>
      <trkpt lat="47.47029" lon="6.74424">
        <ele>346.1</ele>
        <time>2014-10-05T07:51:55.000Z</time>
      </trkpt>
      <trkpt lat="47.47025" lon="6.74426">
        <ele>345.3</ele>
        <time>2014-10-05T07:51:57.000Z</time>
      </trkpt>
      <trkpt lat="47.47023" lon="6.74427">
        <ele>344.7</ele>
        <time>2014-10-05T07:51:58.000Z</time>
      </trkpt>
      <trkpt lat="47.4702" lon="6.74431">
        <ele>345</ele>
        <time>2014-10-05T07:52:00.000Z</time>
      </trkpt>
      <trkpt lat="47.47019" lon="6.74432">
        <ele>344.6</ele>
        <time>2014-10-05T07:52:01.000Z</time>
      </trkpt>
      <trkpt lat="47.47017" lon="6.74436">
        <ele>346.3</ele>
        <time>2014-10-05T07:52:04.000Z</time>
      </trkpt>
      <trkpt lat="47.47016" lon="6.74438">
        <ele>346.5</ele>
        <time>2014-10-05T07:52:05.000Z</time>
      </trkpt>
      <trkpt lat="47.47014" lon="6.74443">
        <ele>348.6</ele>
        <time>2014-10-05T07:52:07.000Z</time>
      </trkpt>
      <trkpt lat="47.47014" lon="6.74445">
        <ele>350.5</ele>
        <time>2014-10-05T07:52:08.000Z</time>
      </trkpt>
      <trkpt lat="47.47013" lon="6.74452">
        <ele>351.7</ele>
        <time>2014-10-05T07:52:12.000Z</time>
      </trkpt>
      <trkpt lat="47.47012" lon="6.74453">
        <ele>351.9</ele>
        <time>2014-10-05T07:52:13.000Z</time>
      </trkpt>
      <trkpt lat="47.47012" lon="6.74459">
        <ele>355.5</ele>
        <time>2014-10-05T07:52:19.000Z</time>
      </trkpt>
      <trkpt lat="47.47011" lon="6.74461">
        <ele>352.2</ele>
        <time>2014-10-05T07:52:20.000Z</time>
      </trkpt>
      <trkpt lat="47.47007" lon="6.74463">
        <ele>352.5</ele>
        <time>2014-10-05T07:52:22.000Z</time>
      </trkpt>
      <trkpt lat="47.47004" lon="6.74465">
        <ele>352.7</ele>
        <time>2014-10-05T07:52:23.000Z</time>
      </trkpt>
      <trkpt lat="47.47" lon="6.74468">
        <ele>356.3</ele>
        <time>2014-10-05T07:52:26.000Z</time>
      </trkpt>
      <trkpt lat="47.47" lon="6.74469">
        <ele>357.9</ele>
        <time>2014-10-05T07:52:27.000Z</time>
      </trkpt>
      <trkpt lat="47.46997" lon="6.74474">
        <ele>362.1</ele>
        <time>2014-10-05T07:52:31.000Z</time>
      </trkpt>
      <trkpt lat="47.46996" lon="6.74476">
        <ele>363</ele>
        <time>2014-10-05T07:52:32.000Z</time>
      </trkpt>
      <trkpt lat="47.46995" lon="6.7448">
        <ele>364</ele>
        <time>2014-10-05T07:52:35.000Z</time>
      </trkpt>
      <trkpt lat="47.46993" lon="6.74481">
        <ele>364.3</ele>
        <time>2014-10-05T07:52:36.000Z</time>
      </trkpt>
      <trkpt lat="47.4699" lon="6.74483">
        <ele>364.7</ele>
        <time>2014-10-05T07:52:38.000Z</time>
      </trkpt>
      <trkpt lat="47.46988" lon="6.74484">
        <ele>364.4</ele>
        <time>2014-10-05T07:52:39.000Z</time>
      </trkpt>
      <trkpt lat="47.46985" lon="6.74485">
        <ele>367</ele>
        <time>2014-10-05T07:52:41.000Z</time>
      </trkpt>
      <trkpt lat="47.46983" lon="6.74486">
        <ele>367.2</ele>
        <time>2014-10-05T07:52:42.000Z</time>
      </trkpt>
      <trkpt lat="47.4698" lon="6.74487">
        <ele>366</ele>
        <time>2014-10-05T07:52:44.000Z</time>
      </trkpt>
      <trkpt lat="47.46977" lon="6.74488">
        <ele>364.7</ele>
        <time>2014-10-05T07:52:45.000Z</time>
      </trkpt>
      <trkpt lat="47.46975" lon="6.7449">
        <ele>365.5</ele>
        <time>2014-10-05T07:52:46.000Z</time>
      </trkpt>
      <trkpt lat="47.46973" lon="6.74492">
        <ele>363.6</ele>
        <time>2014-10-05T07:52:47.000Z</time>
      </trkpt>
      <trkpt lat="47.46971" lon="6.74493">
        <ele>363.1</ele>
        <time>2014-10-05T07:52:48.000Z</time>
      </trkpt>
      <trkpt lat="47.46969" lon="6.74495">
        <ele>362.7</ele>
        <time>2014-10-05T07:52:49.000Z</time>
      </trkpt>
      <trkpt lat="47.46965" lon="6.74496">
        <ele>362.8</ele>
        <time>2014-10-05T07:52:51.000Z</time>
      </trkpt>
      <trkpt lat="47.46963" lon="6.74497">
        <ele>362.5</ele>
        <time>2014-10-05T07:52:52.000Z</time>
      </trkpt>
      <trkpt lat="47.46958" lon="6.74498">
        <ele>361.8</ele>
        <time>2014-10-05T07:52:54.000Z</time>
      </trkpt>
      <trkpt lat="47.46955" lon="6.74499">
        <ele>361.1</ele>
        <time>2014-10-05T07:52:55.000Z</time>
      </trkpt>
      <trkpt lat="47.46953" lon="6.745">
        <ele>361.2</ele>
        <time>2014-10-05T07:52:56.000Z</time>
      </trkpt>
      <trkpt lat="47.4695" lon="6.74501">
        <ele>361.5</ele>
        <time>2014-10-05T07:52:57.000Z</time>
      </trkpt>
      <trkpt lat="47.46947" lon="6.74503">
        <ele>361.5</ele>
        <time>2014-10-05T07:52:58.000Z</time>
      </trkpt>
      <trkpt lat="47.46945" lon="6.74504">
        <ele>362.2</ele>
        <time>2014-10-05T07:52:59.000Z</time>
      </trkpt>
      <trkpt lat="47.46942" lon="6.74506">
        <ele>361.4</ele>
        <time>2014-10-05T07:53:00.000Z</time>
      </trkpt>
      <trkpt lat="47.4694" lon="6.74508">
        <ele>361.2</ele>
        <time>2014-10-05T07:53:01.000Z</time>
      </trkpt>
      <trkpt lat="47.46938" lon="6.7451">
        <ele>361.3</ele>
        <time>2014-10-05T07:53:02.000Z</time>
      </trkpt>
      <trkpt lat="47.46936" lon="6.74512">
        <ele>361.2</ele>
        <time>2014-10-05T07:53:03.000Z</time>
      </trkpt>
      <trkpt lat="47.46932" lon="6.74514">
        <ele>361.4</ele>
        <time>2014-10-05T07:53:05.000Z</time>
      </trkpt>
      <trkpt lat="47.4693" lon="6.74514">
        <ele>362.1</ele>
        <time>2014-10-05T07:53:06.000Z</time>
      </trkpt>
      <trkpt lat="47.46927" lon="6.74509">
        <ele>361.6</ele>
        <time>2014-10-05T07:53:10.000Z</time>
      </trkpt>
      <trkpt lat="47.46926" lon="6.74506">
        <ele>362</ele>
        <time>2014-10-05T07:53:11.000Z</time>
      </trkpt>
      <trkpt lat="47.46924" lon="6.74501">
        <ele>363</ele>
        <time>2014-10-05T07:53:13.000Z</time>
      </trkpt>
      <trkpt lat="47.46923" lon="6.74499">
        <ele>362.8</ele>
        <time>2014-10-05T07:53:14.000Z</time>
      </trkpt>
      <trkpt lat="47.46922" lon="6.74495">
        <ele>363.4</ele>
        <time>2014-10-05T07:53:16.000Z</time>
      </trkpt>
      <trkpt lat="47.46919" lon="6.74488">
        <ele>364.1</ele>
        <time>2014-10-05T07:53:19.000Z</time>
      </trkpt>
      <trkpt lat="47.46917" lon="6.74482">
        <ele>364.8</ele>
        <time>2014-10-05T07:53:21.000Z</time>
      </trkpt>
      <trkpt lat="47.46915" lon="6.74479">
        <ele>364.6</ele>
        <time>2014-10-05T07:53:22.000Z</time>
      </trkpt>
      <trkpt lat="47.46914" lon="6.74476">
        <ele>364.8</ele>
        <time>2014-10-05T07:53:23.000Z</time>
      </trkpt>
      <trkpt lat="47.46912" lon="6.74473">
        <ele>364.7</ele>
        <time>2014-10-05T07:53:24.000Z</time>
      </trkpt>
      <trkpt lat="47.46911" lon="6.7447">
        <ele>365.2</ele>
        <time>2014-10-05T07:53:25.000Z</time>
      </trkpt>
      <trkpt lat="47.46911" lon="6.74467">
        <ele>365.1</ele>
        <time>2014-10-05T07:53:26.000Z</time>
      </trkpt>
      <trkpt lat="47.46911" lon="6.74463">
        <ele>365.6</ele>
        <time>2014-10-05T07:53:27.000Z</time>
      </trkpt>
      <trkpt lat="47.46911" lon="6.7446">
        <ele>365.4</ele>
        <time>2014-10-05T07:53:28.000Z</time>
      </trkpt>
      <trkpt lat="47.4691" lon="6.74454">
        <ele>365.1</ele>
        <time>2014-10-05T07:53:30.000Z</time>
      </trkpt>
      <trkpt lat="47.4691" lon="6.74452">
        <ele>364.9</ele>
        <time>2014-10-05T07:53:31.000Z</time>
      </trkpt>
      <trkpt lat="47.46908" lon="6.74447">
        <ele>365.4</ele>
        <time>2014-10-05T07:53:34.000Z</time>
      </trkpt>
      <trkpt lat="47.46907" lon="6.74445">
        <ele>365.3</ele>
        <time>2014-10-05T07:53:35.000Z</time>
      </trkpt>
      <trkpt lat="47.46905" lon="6.74441">
        <ele>365.3</ele>
        <time>2014-10-05T07:53:37.000Z</time>
      </trkpt>
      <trkpt lat="47.46905" lon="6.74439">
        <ele>363</ele>
        <time>2014-10-05T07:53:38.000Z</time>
      </trkpt>
      <trkpt lat="47.46903" lon="6.74434">
        <ele>363</ele>
        <time>2014-10-05T07:53:40.000Z</time>
      </trkpt>
      <trkpt lat="47.46902" lon="6.74432">
        <ele>363.2</ele>
        <time>2014-10-05T07:53:41.000Z</time>
      </trkpt>
      <trkpt lat="47.469" lon="6.74426">
        <ele>364.1</ele>
        <time>2014-10-05T07:53:45.000Z</time>
      </trkpt>
      <trkpt lat="47.469" lon="6.74424">
        <ele>363.3</ele>
        <time>2014-10-05T07:53:46.000Z</time>
      </trkpt>
      <trkpt lat="47.46898" lon="6.74419">
        <ele>365.6</ele>
        <time>2014-10-05T07:55:06.000Z</time>
      </trkpt>
      <trkpt lat="47.46898" lon="6.74418">
        <ele>365</ele>
        <time>2014-10-05T07:55:07.000Z</time>
      </trkpt>
      <trkpt lat="47.46897" lon="6.74414">
        <ele>364.2</ele>
        <time>2014-10-05T07:55:09.000Z</time>
      </trkpt>
      <trkpt lat="47.46896" lon="6.74411">
        <ele>364</ele>
        <time>2014-10-05T07:55:10.000Z</time>
      </trkpt>
      <trkpt lat="47.46894" lon="6.74406">
        <ele>364.4</ele>
        <time>2014-10-05T07:55:12.000Z</time>
      </trkpt>
      <trkpt lat="47.46893" lon="6.74403">
        <ele>364.9</ele>
        <time>2014-10-05T07:55:13.000Z</time>
      </trkpt>
      <trkpt lat="47.46892" lon="6.74398">
        <ele>365.9</ele>
        <time>2014-10-05T07:55:15.000Z</time>
      </trkpt>
      <trkpt lat="47.46891" lon="6.7439">
        <ele>365.7</ele>
        <time>2014-10-05T07:55:18.000Z</time>
      </trkpt>
      <trkpt lat="47.4689" lon="6.74384">
        <ele>367</ele>
        <time>2014-10-05T07:55:20.000Z</time>
      </trkpt>
      <trkpt lat="47.4689" lon="6.74382">
        <ele>367.9</ele>
        <time>2014-10-05T07:55:21.000Z</time>
      </trkpt>
      <trkpt lat="47.46891" lon="6.74376">
        <ele>367.9</ele>
        <time>2014-10-05T07:55:24.000Z</time>
      </trkpt>
      <trkpt lat="47.4689" lon="6.74374">
        <ele>367.4</ele>
        <time>2014-10-05T07:55:25.000Z</time>
      </trkpt>
      <trkpt lat="47.46889" lon="6.74368">
        <ele>368.1</ele>
        <time>2014-10-05T07:55:28.000Z</time>
      </trkpt>
      <trkpt lat="47.4689" lon="6.74366">
        <ele>368.1</ele>
        <time>2014-10-05T07:55:29.000Z</time>
      </trkpt>
      <trkpt lat="47.4689" lon="6.7436">
        <ele>368.9</ele>
        <time>2014-10-05T07:55:33.000Z</time>
      </trkpt>
      <trkpt lat="47.4689" lon="6.74359">
        <ele>369</ele>
        <time>2014-10-05T07:55:34.000Z</time>
      </trkpt>
      <trkpt lat="47.4689" lon="6.74353">
        <ele>373.3</ele>
        <time>2014-10-05T07:55:39.000Z</time>
      </trkpt>
      <trkpt lat="47.46891" lon="6.74351">
        <ele>373.6</ele>
        <time>2014-10-05T07:55:40.000Z</time>
      </trkpt>
      <trkpt lat="47.46891" lon="6.74346">
        <ele>372.9</ele>
        <time>2014-10-05T07:55:42.000Z</time>
      </trkpt>
      <trkpt lat="47.46892" lon="6.74342">
        <ele>373.2</ele>
        <time>2014-10-05T07:55:43.000Z</time>
      </trkpt>
      <trkpt lat="47.46892" lon="6.74338">
        <ele>373.7</ele>
        <time>2014-10-05T07:55:44.000Z</time>
      </trkpt>
      <trkpt lat="47.46893" lon="6.74335">
        <ele>374.7</ele>
        <time>2014-10-05T07:55:45.000Z</time>
      </trkpt>
      <trkpt lat="47.46896" lon="6.74331">
        <ele>377.2</ele>
        <time>2014-10-05T07:55:49.000Z</time>
      </trkpt>
      <trkpt lat="47.46897" lon="6.7433">
        <ele>377.4</ele>
        <time>2014-10-05T07:55:50.000Z</time>
      </trkpt>
      <trkpt lat="47.46897" lon="6.74324">
        <ele>384.1</ele>
        <time>2014-10-05T07:56:01.000Z</time>
      </trkpt>
      <trkpt lat="47.46897" lon="6.74323">
        <ele>382.3</ele>
        <time>2014-10-05T07:56:02.000Z</time>
      </trkpt>
      <trkpt lat="47.46898" lon="6.74318">
        <ele>383</ele>
        <time>2014-10-05T07:56:06.000Z</time>
      </trkpt>
      <trkpt lat="47.46898" lon="6.74316">
        <ele>383.4</ele>
        <time>2014-10-05T07:56:07.000Z</time>
      </trkpt>
      <trkpt lat="47.46898" lon="6.74311">
        <ele>383.6</ele>
        <time>2014-10-05T07:56:09.000Z</time>
      </trkpt>
      <trkpt lat="47.46898" lon="6.74307">
        <ele>381.3</ele>
        <time>2014-10-05T07:56:10.000Z</time>
      </trkpt>
      <trkpt lat="47.46898" lon="6.74301">
        <ele>378.3</ele>
        <time>2014-10-05T07:56:12.000Z</time>
      </trkpt>
      <trkpt lat="47.46897" lon="6.74299">
        <ele>378.3</ele>
        <time>2014-10-05T07:56:13.000Z</time>
      </trkpt>
      <trkpt lat="47.46897" lon="6.74293">
        <ele>383.4</ele>
        <time>2014-10-05T07:56:18.000Z</time>
      </trkpt>
      <trkpt lat="47.46897" lon="6.74291">
        <ele>383.7</ele>
        <time>2014-10-05T07:56:19.000Z</time>
      </trkpt>
      <trkpt lat="47.46898" lon="6.74287">
        <ele>382.4</ele>
        <time>2014-10-05T07:56:21.000Z</time>
      </trkpt>
      <trkpt lat="47.46899" lon="6.74284">
        <ele>382.6</ele>
        <time>2014-10-05T07:56:22.000Z</time>
      </trkpt>
      <trkpt lat="47.469" lon="6.74279">
        <ele>383.2</ele>
        <time>2014-10-05T07:56:24.000Z</time>
      </trkpt>
      <trkpt lat="47.46901" lon="6.74276">
        <ele>383.7</ele>
        <time>2014-10-05T07:56:25.000Z</time>
      </trkpt>
      <trkpt lat="47.46902" lon="6.74271">
        <ele>383.4</ele>
        <time>2014-10-05T07:56:27.000Z</time>
      </trkpt>
      <trkpt lat="47.46902" lon="6.74269">
        <ele>382.5</ele>
        <time>2014-10-05T07:56:28.000Z</time>
      </trkpt>
      <trkpt lat="47.46904" lon="6.74263">
        <ele>381.9</ele>
        <time>2014-10-05T07:56:31.000Z</time>
      </trkpt>
      <trkpt lat="47.46904" lon="6.74261">
        <ele>379.9</ele>
        <time>2014-10-05T07:56:32.000Z</time>
      </trkpt>
      <trkpt lat="47.46903" lon="6.74256">
        <ele>378.6</ele>
        <time>2014-10-05T07:56:34.000Z</time>
      </trkpt>
      <trkpt lat="47.46903" lon="6.74254">
        <ele>381.1</ele>
        <time>2014-10-05T07:56:35.000Z</time>
      </trkpt>
      <trkpt lat="47.46904" lon="6.74248">
        <ele>381.7</ele>
        <time>2014-10-05T07:56:38.000Z</time>
      </trkpt>
      <trkpt lat="47.46905" lon="6.74246">
        <ele>382.5</ele>
        <time>2014-10-05T07:56:39.000Z</time>
      </trkpt>
      <trkpt lat="47.46905" lon="6.7424">
        <ele>383.6</ele>
        <time>2014-10-05T07:56:43.000Z</time>
      </trkpt>
      <trkpt lat="47.46905" lon="6.74238">
        <ele>383.7</ele>
        <time>2014-10-05T07:56:44.000Z</time>
      </trkpt>
      <trkpt lat="47.46904" lon="6.74233">
        <ele>384.6</ele>
        <time>2014-10-05T07:56:47.000Z</time>
      </trkpt>
      <trkpt lat="47.46905" lon="6.74231">
        <ele>385.7</ele>
        <time>2014-10-05T07:56:48.000Z</time>
      </trkpt>
      <trkpt lat="47.46907" lon="6.74225">
        <ele>386</ele>
        <time>2014-10-05T07:56:52.000Z</time>
      </trkpt>
      <trkpt lat="47.46907" lon="6.74224">
        <ele>386.8</ele>
        <time>2014-10-05T07:56:53.000Z</time>
      </trkpt>
      <trkpt lat="47.46907" lon="6.74219">
        <ele>385.7</ele>
        <time>2014-10-05T07:56:55.000Z</time>
      </trkpt>
      <trkpt lat="47.46907" lon="6.74216">
        <ele>386.3</ele>
        <time>2014-10-05T07:56:56.000Z</time>
      </trkpt>
      <trkpt lat="47.46908" lon="6.74211">
        <ele>385.4</ele>
        <time>2014-10-05T07:56:58.000Z</time>
      </trkpt>
      <trkpt lat="47.46908" lon="6.74208">
        <ele>386.6</ele>
        <time>2014-10-05T07:56:59.000Z</time>
      </trkpt>
      <trkpt lat="47.46909" lon="6.74203">
        <ele>389.8</ele>
        <time>2014-10-05T07:57:03.000Z</time>
      </trkpt>
      <trkpt lat="47.46909" lon="6.74202">
        <ele>391</ele>
        <time>2014-10-05T07:57:04.000Z</time>
      </trkpt>
      <trkpt lat="47.46909" lon="6.74197">
        <ele>390.9</ele>
        <time>2014-10-05T07:57:07.000Z</time>
      </trkpt>
      <trkpt lat="47.46908" lon="6.74195">
        <ele>390.4</ele>
        <time>2014-10-05T07:57:08.000Z</time>
      </trkpt>
      <trkpt lat="47.46907" lon="6.74188">
        <ele>393</ele>
        <time>2014-10-05T07:57:12.000Z</time>
      </trkpt>
      <trkpt lat="47.46907" lon="6.74187">
        <ele>393.1</ele>
        <time>2014-10-05T07:57:13.000Z</time>
      </trkpt>
      <trkpt lat="47.46908" lon="6.74183">
        <ele>392.1</ele>
        <time>2014-10-05T07:57:15.000Z</time>
      </trkpt>
      <trkpt lat="47.46908" lon="6.74175">
        <ele>392.4</ele>
        <time>2014-10-05T07:57:18.000Z</time>
      </trkpt>
      <trkpt lat="47.46908" lon="6.7417">
        <ele>393.3</ele>
        <time>2014-10-05T07:57:20.000Z</time>
      </trkpt>
      <trkpt lat="47.46908" lon="6.74168">
        <ele>393.4</ele>
        <time>2014-10-05T07:57:21.000Z</time>
      </trkpt>
      <trkpt lat="47.46908" lon="6.74162">
        <ele>394.1</ele>
        <time>2014-10-05T07:57:24.000Z</time>
      </trkpt>
      <trkpt lat="47.46908" lon="6.74159">
        <ele>394.4</ele>
        <time>2014-10-05T07:57:25.000Z</time>
      </trkpt>
      <trkpt lat="47.46908" lon="6.74154">
        <ele>398.3</ele>
        <time>2014-10-05T07:57:27.000Z</time>
      </trkpt>
      <trkpt lat="47.46908" lon="6.74152">
        <ele>399.9</ele>
        <time>2014-10-05T07:57:28.000Z</time>
      </trkpt>
      <trkpt lat="47.46907" lon="6.74147">
        <ele>400.2</ele>
        <time>2014-10-05T07:57:30.000Z</time>
      </trkpt>
      <trkpt lat="47.46907" lon="6.74143">
        <ele>400.3</ele>
        <time>2014-10-05T07:57:31.000Z</time>
      </trkpt>
      <trkpt lat="47.46907" lon="6.74139">
        <ele>400.8</ele>
        <time>2014-10-05T07:57:32.000Z</time>
      </trkpt>
      <trkpt lat="47.46908" lon="6.74135">
        <ele>401.3</ele>
        <time>2014-10-05T07:57:33.000Z</time>
      </trkpt>
      <trkpt lat="47.46908" lon="6.74129">
        <ele>405.2</ele>
        <time>2014-10-05T07:57:35.000Z</time>
      </trkpt>
      <trkpt lat="47.46909" lon="6.74127">
        <ele>404.4</ele>
        <time>2014-10-05T07:57:36.000Z</time>
      </trkpt>
      <trkpt lat="47.4691" lon="6.74121">
        <ele>404.9</ele>
        <time>2014-10-05T07:57:38.000Z</time>
      </trkpt>
      <trkpt lat="47.46911" lon="6.74117">
        <ele>405.1</ele>
        <time>2014-10-05T07:57:39.000Z</time>
      </trkpt>
      <trkpt lat="47.46911" lon="6.74111">
        <ele>406.4</ele>
        <time>2014-10-05T07:57:41.000Z</time>
      </trkpt>
      <trkpt lat="47.46911" lon="6.74108">
        <ele>406</ele>
        <time>2014-10-05T07:57:42.000Z</time>
      </trkpt>
      <trkpt lat="47.46911" lon="6.74104">
        <ele>406.3</ele>
        <time>2014-10-05T07:57:44.000Z</time>
      </trkpt>
      <trkpt lat="47.46911" lon="6.74101">
        <ele>406.8</ele>
        <time>2014-10-05T07:57:45.000Z</time>
      </trkpt>
      <trkpt lat="47.46911" lon="6.74096">
        <ele>407.2</ele>
        <time>2014-10-05T07:57:47.000Z</time>
      </trkpt>
      <trkpt lat="47.46912" lon="6.74094">
        <ele>407.6</ele>
        <time>2014-10-05T07:57:48.000Z</time>
      </trkpt>
      <trkpt lat="47.46911" lon="6.74089">
        <ele>409.3</ele>
        <time>2014-10-05T07:57:50.000Z</time>
      </trkpt>
      <trkpt lat="47.46911" lon="6.74086">
        <ele>410</ele>
        <time>2014-10-05T07:57:51.000Z</time>
      </trkpt>
      <trkpt lat="47.46911" lon="6.74081">
        <ele>411.1</ele>
        <time>2014-10-05T07:57:53.000Z</time>
      </trkpt>
      <trkpt lat="47.46911" lon="6.74079">
        <ele>410.8</ele>
        <time>2014-10-05T07:57:54.000Z</time>
      </trkpt>
      <trkpt lat="47.46911" lon="6.74073">
        <ele>410.6</ele>
        <time>2014-10-05T07:57:56.000Z</time>
      </trkpt>
      <trkpt lat="47.46911" lon="6.7407">
        <ele>410.7</ele>
        <time>2014-10-05T07:57:57.000Z</time>
      </trkpt>
      <trkpt lat="47.46911" lon="6.74063">
        <ele>407.9</ele>
        <time>2014-10-05T07:57:59.000Z</time>
      </trkpt>
      <trkpt lat="47.4691" lon="6.7406">
        <ele>407.8</ele>
        <time>2014-10-05T07:58:00.000Z</time>
      </trkpt>
      <trkpt lat="47.46909" lon="6.74054">
        <ele>408.4</ele>
        <time>2014-10-05T07:58:02.000Z</time>
      </trkpt>
      <trkpt lat="47.46908" lon="6.74052">
        <ele>409.1</ele>
        <time>2014-10-05T07:58:03.000Z</time>
      </trkpt>
      <trkpt lat="47.46907" lon="6.74048">
        <ele>408.3</ele>
        <time>2014-10-05T07:58:05.000Z</time>
      </trkpt>
      <trkpt lat="47.46906" lon="6.74045">
        <ele>408.5</ele>
        <time>2014-10-05T07:58:06.000Z</time>
      </trkpt>
      <trkpt lat="47.46905" lon="6.7404">
        <ele>408.8</ele>
        <time>2014-10-05T07:58:08.000Z</time>
      </trkpt>
      <trkpt lat="47.46904" lon="6.74037">
        <ele>409.6</ele>
        <time>2014-10-05T07:58:09.000Z</time>
      </trkpt>
      <trkpt lat="47.46903" lon="6.74031">
        <ele>412</ele>
        <time>2014-10-05T07:58:11.000Z</time>
      </trkpt>
      <trkpt lat="47.46903" lon="6.74029">
        <ele>412.9</ele>
        <time>2014-10-05T07:58:12.000Z</time>
      </trkpt>
      <trkpt lat="47.46902" lon="6.74024">
        <ele>413.6</ele>
        <time>2014-10-05T07:58:15.000Z</time>
      </trkpt>
      <trkpt lat="47.46901" lon="6.74019">
        <ele>415.1</ele>
        <time>2014-10-05T07:58:18.000Z</time>
      </trkpt>
      <trkpt lat="47.46899" lon="6.74015">
        <ele>415.8</ele>
        <time>2014-10-05T07:58:20.000Z</time>
      </trkpt>
      <trkpt lat="47.46898" lon="6.74012">
        <ele>415.6</ele>
        <time>2014-10-05T07:58:21.000Z</time>
      </trkpt>
      <trkpt lat="47.46897" lon="6.74009">
        <ele>415.4</ele>
        <time>2014-10-05T07:58:22.000Z</time>
      </trkpt>
      <trkpt lat="47.46896" lon="6.74006">
        <ele>415.1</ele>
        <time>2014-10-05T07:58:23.000Z</time>
      </trkpt>
      <trkpt lat="47.46895" lon="6.74002">
        <ele>414.6</ele>
        <time>2014-10-05T07:58:24.000Z</time>
      </trkpt>
      <trkpt lat="47.46893" lon="6.73999">
        <ele>413.4</ele>
        <time>2014-10-05T07:58:25.000Z</time>
      </trkpt>
      <trkpt lat="47.46892" lon="6.73995">
        <ele>413.1</ele>
        <time>2014-10-05T07:58:26.000Z</time>
      </trkpt>
      <trkpt lat="47.46891" lon="6.73992">
        <ele>413</ele>
        <time>2014-10-05T07:58:27.000Z</time>
      </trkpt>
      <trkpt lat="47.46889" lon="6.73987">
        <ele>413.4</ele>
        <time>2014-10-05T07:58:29.000Z</time>
      </trkpt>
      <trkpt lat="47.46888" lon="6.73985">
        <ele>415.8</ele>
        <time>2014-10-05T07:58:30.000Z</time>
      </trkpt>
      <trkpt lat="47.46885" lon="6.7398">
        <ele>418</ele>
        <time>2014-10-05T07:58:32.000Z</time>
      </trkpt>
      <trkpt lat="47.46884" lon="6.73978">
        <ele>419.2</ele>
        <time>2014-10-05T07:58:33.000Z</time>
      </trkpt>
      <trkpt lat="47.46882" lon="6.73974">
        <ele>419.9</ele>
        <time>2014-10-05T07:58:35.000Z</time>
      </trkpt>
      <trkpt lat="47.46881" lon="6.73972">
        <ele>420.6</ele>
        <time>2014-10-05T07:58:36.000Z</time>
      </trkpt>
      <trkpt lat="47.46879" lon="6.73968">
        <ele>425.9</ele>
        <time>2014-10-05T07:58:39.000Z</time>
      </trkpt>
      <trkpt lat="47.46878" lon="6.73966">
        <ele>426.8</ele>
        <time>2014-10-05T07:58:40.000Z</time>
      </trkpt>
      <trkpt lat="47.46876" lon="6.73963">
        <ele>429.4</ele>
        <time>2014-10-05T07:58:42.000Z</time>
      </trkpt>
      <trkpt lat="47.46875" lon="6.7396">
        <ele>429.3</ele>
        <time>2014-10-05T07:58:43.000Z</time>
      </trkpt>
      <trkpt lat="47.46873" lon="6.73955">
        <ele>428.9</ele>
        <time>2014-10-05T07:58:45.000Z</time>
      </trkpt>
      <trkpt lat="47.46872" lon="6.73952">
        <ele>429.9</ele>
        <time>2014-10-05T07:58:46.000Z</time>
      </trkpt>
      <trkpt lat="47.46871" lon="6.73949">
        <ele>430.4</ele>
        <time>2014-10-05T07:58:47.000Z</time>
      </trkpt>
      <trkpt lat="47.4687" lon="6.73946">
        <ele>429.8</ele>
        <time>2014-10-05T07:58:48.000Z</time>
      </trkpt>
      <trkpt lat="47.46868" lon="6.7394">
        <ele>428.9</ele>
        <time>2014-10-05T07:58:50.000Z</time>
      </trkpt>
      <trkpt lat="47.46867" lon="6.73938">
        <ele>429.1</ele>
        <time>2014-10-05T07:58:51.000Z</time>
      </trkpt>
      <trkpt lat="47.46866" lon="6.73933">
        <ele>429.2</ele>
        <time>2014-10-05T07:58:54.000Z</time>
      </trkpt>
      <trkpt lat="47.46866" lon="6.73931">
        <ele>429</ele>
        <time>2014-10-05T07:58:55.000Z</time>
      </trkpt>
      <trkpt lat="47.46864" lon="6.73926">
        <ele>427.9</ele>
        <time>2014-10-05T07:58:57.000Z</time>
      </trkpt>
      <trkpt lat="47.46863" lon="6.73923">
        <ele>427.4</ele>
        <time>2014-10-05T07:58:58.000Z</time>
      </trkpt>
      <trkpt lat="47.46862" lon="6.7392">
        <ele>427.2</ele>
        <time>2014-10-05T07:58:59.000Z</time>
      </trkpt>
      <trkpt lat="47.46861" lon="6.73916">
        <ele>426.6</ele>
        <time>2014-10-05T07:59:00.000Z</time>
      </trkpt>
      <trkpt lat="47.4686" lon="6.73914">
        <ele>426</ele>
        <time>2014-10-05T07:59:01.000Z</time>
      </trkpt>
      <trkpt lat="47.46858" lon="6.73911">
        <ele>424.9</ele>
        <time>2014-10-05T07:59:02.000Z</time>
      </trkpt>
      <trkpt lat="47.46857" lon="6.73908">
        <ele>424.3</ele>
        <time>2014-10-05T07:59:03.000Z</time>
      </trkpt>
      <trkpt lat="47.46856" lon="6.73905">
        <ele>424.1</ele>
        <time>2014-10-05T07:59:04.000Z</time>
      </trkpt>
      <trkpt lat="47.46855" lon="6.73901">
        <ele>424</ele>
        <time>2014-10-05T07:59:05.000Z</time>
      </trkpt>
      <trkpt lat="47.46854" lon="6.73898">
        <ele>423.8</ele>
        <time>2014-10-05T07:59:06.000Z</time>
      </trkpt>
      <trkpt lat="47.46853" lon="6.73895">
        <ele>424</ele>
        <time>2014-10-05T07:59:07.000Z</time>
      </trkpt>
      <trkpt lat="47.46852" lon="6.73891">
        <ele>423.7</ele>
        <time>2014-10-05T07:59:08.000Z</time>
      </trkpt>
      <trkpt lat="47.46851" lon="6.73888">
        <ele>423.3</ele>
        <time>2014-10-05T07:59:09.000Z</time>
      </trkpt>
      <trkpt lat="47.4685" lon="6.73884">
        <ele>421.9</ele>
        <time>2014-10-05T07:59:10.000Z</time>
      </trkpt>
      <trkpt lat="47.46849" lon="6.7388">
        <ele>421.5</ele>
        <time>2014-10-05T07:59:11.000Z</time>
      </trkpt>
      <trkpt lat="47.46849" lon="6.73877">
        <ele>421.8</ele>
        <time>2014-10-05T07:59:12.000Z</time>
      </trkpt>
      <trkpt lat="47.46848" lon="6.73873">
        <ele>422</ele>
        <time>2014-10-05T07:59:13.000Z</time>
      </trkpt>
      <trkpt lat="47.46847" lon="6.7387">
        <ele>421</ele>
        <time>2014-10-05T07:59:14.000Z</time>
      </trkpt>
      <trkpt lat="47.46847" lon="6.73867">
        <ele>420.7</ele>
        <time>2014-10-05T07:59:15.000Z</time>
      </trkpt>
      <trkpt lat="47.46845" lon="6.73861">
        <ele>414.9</ele>
        <time>2014-10-05T07:59:18.000Z</time>
      </trkpt>
      <trkpt lat="47.46842" lon="6.73857">
        <ele>415.3</ele>
        <time>2014-10-05T07:59:21.000Z</time>
      </trkpt>
      <trkpt lat="47.46841" lon="6.73856">
        <ele>418.6</ele>
        <time>2014-10-05T07:59:22.000Z</time>
      </trkpt>
      <trkpt lat="47.46839" lon="6.73851">
        <ele>419.8</ele>
        <time>2014-10-05T07:59:25.000Z</time>
      </trkpt>
      <trkpt lat="47.46838" lon="6.7385">
        <ele>419.8</ele>
        <time>2014-10-05T07:59:26.000Z</time>
      </trkpt>
      <trkpt lat="47.46836" lon="6.73845">
        <ele>418.2</ele>
        <time>2014-10-05T07:59:33.000Z</time>
      </trkpt>
      <trkpt lat="47.46836" lon="6.73844">
        <ele>418.2</ele>
        <time>2014-10-05T07:59:34.000Z</time>
      </trkpt>
      <trkpt lat="47.46832" lon="6.73841">
        <ele>416.8</ele>
        <time>2014-10-05T08:00:00.000Z</time>
      </trkpt>
      <trkpt lat="47.46832" lon="6.7384">
        <ele>416.5</ele>
        <time>2014-10-05T08:00:01.000Z</time>
      </trkpt>
      <trkpt lat="47.46832" lon="6.73834">
        <ele>414.1</ele>
        <time>2014-10-05T08:00:14.000Z</time>
      </trkpt>
      <trkpt lat="47.46832" lon="6.73831">
        <ele>413.7</ele>
        <time>2014-10-05T08:00:15.000Z</time>
      </trkpt>
      <trkpt lat="47.46832" lon="6.73829">
        <ele>413.2</ele>
        <time>2014-10-05T08:00:16.000Z</time>
      </trkpt>
      <trkpt lat="47.46832" lon="6.73806">
        <ele>416.2</ele>
        <time>2014-10-05T08:00:24.000Z</time>
      </trkpt>
      <trkpt lat="47.46832" lon="6.73803">
        <ele>416</ele>
        <time>2014-10-05T08:00:25.000Z</time>
      </trkpt>
      <trkpt lat="47.46831" lon="6.73799">
        <ele>416</ele>
        <time>2014-10-05T08:00:26.000Z</time>
      </trkpt>
      <trkpt lat="47.46828" lon="6.73794">
        <ele>413.6</ele>
        <time>2014-10-05T08:00:27.000Z</time>
      </trkpt>
      <trkpt lat="47.46825" lon="6.73789">
        <ele>411.3</ele>
        <time>2014-10-05T08:00:28.000Z</time>
      </trkpt>
      <trkpt lat="47.46821" lon="6.73785">
        <ele>411</ele>
        <time>2014-10-05T08:00:29.000Z</time>
      </trkpt>
      <trkpt lat="47.46817" lon="6.73782">
        <ele>410.4</ele>
        <time>2014-10-05T08:00:30.000Z</time>
      </trkpt>
      <trkpt lat="47.46813" lon="6.73781">
        <ele>410.2</ele>
        <time>2014-10-05T08:00:31.000Z</time>
      </trkpt>
      <trkpt lat="47.46809" lon="6.73779">
        <ele>409.8</ele>
        <time>2014-10-05T08:00:32.000Z</time>
      </trkpt>
      <trkpt lat="47.46805" lon="6.73777">
        <ele>409.5</ele>
        <time>2014-10-05T08:00:33.000Z</time>
      </trkpt>
      <trkpt lat="47.46795" lon="6.7378">
        <ele>410.8</ele>
        <time>2014-10-05T08:00:34.000Z</time>
      </trkpt>
      <trkpt lat="47.46789" lon="6.73781">
        <ele>410.6</ele>
        <time>2014-10-05T08:00:35.000Z</time>
      </trkpt>
      <trkpt lat="47.46784" lon="6.73781">
        <ele>410.4</ele>
        <time>2014-10-05T08:00:36.000Z</time>
      </trkpt>
      <trkpt lat="47.46778" lon="6.73781">
        <ele>410.1</ele>
        <time>2014-10-05T08:00:37.000Z</time>
      </trkpt>
      <trkpt lat="47.46772" lon="6.73785">
        <ele>411.3</ele>
        <time>2014-10-05T08:00:38.000Z</time>
      </trkpt>
      <trkpt lat="47.46766" lon="6.73787">
        <ele>411.3</ele>
        <time>2014-10-05T08:00:39.000Z</time>
      </trkpt>
      <trkpt lat="47.46761" lon="6.73788">
        <ele>412.8</ele>
        <time>2014-10-05T08:00:40.000Z</time>
      </trkpt>
      <trkpt lat="47.46755" lon="6.73789">
        <ele>413.9</ele>
        <time>2014-10-05T08:00:41.000Z</time>
      </trkpt>
      <trkpt lat="47.46749" lon="6.73791">
        <ele>414.5</ele>
        <time>2014-10-05T08:00:42.000Z</time>
      </trkpt>
      <trkpt lat="47.46744" lon="6.7379">
        <ele>414.6</ele>
        <time>2014-10-05T08:00:43.000Z</time>
      </trkpt>
      <trkpt lat="47.4674" lon="6.73792">
        <ele>414.6</ele>
        <time>2014-10-05T08:00:44.000Z</time>
      </trkpt>
      <trkpt lat="47.46735" lon="6.73794">
        <ele>414.6</ele>
        <time>2014-10-05T08:00:45.000Z</time>
      </trkpt>
      <trkpt lat="47.4673" lon="6.73801">
        <ele>414.7</ele>
        <time>2014-10-05T08:00:46.000Z</time>
      </trkpt>
      <trkpt lat="47.46725" lon="6.73808">
        <ele>415.2</ele>
        <time>2014-10-05T08:00:47.000Z</time>
      </trkpt>
      <trkpt lat="47.4672" lon="6.73814">
        <ele>416</ele>
        <time>2014-10-05T08:00:48.000Z</time>
      </trkpt>
      <trkpt lat="47.46714" lon="6.73824">
        <ele>415.8</ele>
        <time>2014-10-05T08:00:49.000Z</time>
      </trkpt>
      <trkpt lat="47.46707" lon="6.73832">
        <ele>416.3</ele>
        <time>2014-10-05T08:00:50.000Z</time>
      </trkpt>
      <trkpt lat="47.46703" lon="6.73839">
        <ele>416.6</ele>
        <time>2014-10-05T08:00:51.000Z</time>
      </trkpt>
      <trkpt lat="47.46698" lon="6.73844">
        <ele>415.9</ele>
        <time>2014-10-05T08:00:52.000Z</time>
      </trkpt>
      <trkpt lat="47.46693" lon="6.73844">
        <ele>413.2</ele>
        <time>2014-10-05T08:00:53.000Z</time>
      </trkpt>
      <trkpt lat="47.4669" lon="6.73839">
        <ele>412.9</ele>
        <time>2014-10-05T08:00:54.000Z</time>
      </trkpt>
      <trkpt lat="47.46686" lon="6.73835">
        <ele>412.5</ele>
        <time>2014-10-05T08:00:55.000Z</time>
      </trkpt>
      <trkpt lat="47.46682" lon="6.73832">
        <ele>411.5</ele>
        <time>2014-10-05T08:00:56.000Z</time>
      </trkpt>
      <trkpt lat="47.46682" lon="6.73825">
        <ele>410.3</ele>
        <time>2014-10-05T08:00:57.000Z</time>
      </trkpt>
      <trkpt lat="47.46681" lon="6.7382">
        <ele>409.6</ele>
        <time>2014-10-05T08:00:58.000Z</time>
      </trkpt>
      <trkpt lat="47.46681" lon="6.73814">
        <ele>409.8</ele>
        <time>2014-10-05T08:00:59.000Z</time>
      </trkpt>
      <trkpt lat="47.46678" lon="6.73811">
        <ele>411.1</ele>
        <time>2014-10-05T08:01:00.000Z</time>
      </trkpt>
      <trkpt lat="47.46677" lon="6.73807">
        <ele>410.6</ele>
        <time>2014-10-05T08:01:01.000Z</time>
      </trkpt>
      <trkpt lat="47.46676" lon="6.73803">
        <ele>410</ele>
        <time>2014-10-05T08:01:02.000Z</time>
      </trkpt>
      <trkpt lat="47.46676" lon="6.73798">
        <ele>409.8</ele>
        <time>2014-10-05T08:01:03.000Z</time>
      </trkpt>
      <trkpt lat="47.46674" lon="6.73794">
        <ele>409.5</ele>
        <time>2014-10-05T08:01:04.000Z</time>
      </trkpt>
      <trkpt lat="47.46672" lon="6.7379">
        <ele>409.6</ele>
        <time>2014-10-05T08:01:05.000Z</time>
      </trkpt>
      <trkpt lat="47.4667" lon="6.73787">
        <ele>410</ele>
        <time>2014-10-05T08:01:06.000Z</time>
      </trkpt>
      <trkpt lat="47.46669" lon="6.73783">
        <ele>410.2</ele>
        <time>2014-10-05T08:01:07.000Z</time>
      </trkpt>
      <trkpt lat="47.46667" lon="6.7378">
        <ele>410.2</ele>
        <time>2014-10-05T08:01:08.000Z</time>
      </trkpt>
      <trkpt lat="47.46666" lon="6.73777">
        <ele>409.1</ele>
        <time>2014-10-05T08:01:09.000Z</time>
      </trkpt>
      <trkpt lat="47.46664" lon="6.73775">
        <ele>409.9</ele>
        <time>2014-10-05T08:01:10.000Z</time>
      </trkpt>
      <trkpt lat="47.46662" lon="6.73773">
        <ele>409.8</ele>
        <time>2014-10-05T08:01:11.000Z</time>
      </trkpt>
      <trkpt lat="47.4666" lon="6.7377">
        <ele>409.7</ele>
        <time>2014-10-05T08:01:12.000Z</time>
      </trkpt>
      <trkpt lat="47.46658" lon="6.73767">
        <ele>410.5</ele>
        <time>2014-10-05T08:01:13.000Z</time>
      </trkpt>
      <trkpt lat="47.46656" lon="6.73765">
        <ele>409.8</ele>
        <time>2014-10-05T08:01:14.000Z</time>
      </trkpt>
      <trkpt lat="47.46653" lon="6.73762">
        <ele>409.9</ele>
        <time>2014-10-05T08:01:15.000Z</time>
      </trkpt>
      <trkpt lat="47.4665" lon="6.7376">
        <ele>409.5</ele>
        <time>2014-10-05T08:01:16.000Z</time>
      </trkpt>
      <trkpt lat="47.46643" lon="6.73753">
        <ele>411.4</ele>
        <time>2014-10-05T08:01:19.000Z</time>
      </trkpt>
      <trkpt lat="47.46641" lon="6.7375">
        <ele>411.7</ele>
        <time>2014-10-05T08:01:20.000Z</time>
      </trkpt>
      <trkpt lat="47.46638" lon="6.73749">
        <ele>411.9</ele>
        <time>2014-10-05T08:01:21.000Z</time>
      </trkpt>
      <trkpt lat="47.46635" lon="6.73747">
        <ele>411.2</ele>
        <time>2014-10-05T08:01:22.000Z</time>
      </trkpt>
      <trkpt lat="47.46632" lon="6.73746">
        <ele>410.9</ele>
        <time>2014-10-05T08:01:23.000Z</time>
      </trkpt>
      <trkpt lat="47.46629" lon="6.73745">
        <ele>410.6</ele>
        <time>2014-10-05T08:01:24.000Z</time>
      </trkpt>
      <trkpt lat="47.46627" lon="6.73744">
        <ele>410</ele>
        <time>2014-10-05T08:01:25.000Z</time>
      </trkpt>
      <trkpt lat="47.46624" lon="6.73742">
        <ele>409.7</ele>
        <time>2014-10-05T08:01:26.000Z</time>
      </trkpt>
      <trkpt lat="47.46622" lon="6.73741">
        <ele>410.4</ele>
        <time>2014-10-05T08:01:27.000Z</time>
      </trkpt>
      <trkpt lat="47.46619" lon="6.7374">
        <ele>411.3</ele>
        <time>2014-10-05T08:01:28.000Z</time>
      </trkpt>
      <trkpt lat="47.46616" lon="6.73739">
        <ele>412.1</ele>
        <time>2014-10-05T08:01:29.000Z</time>
      </trkpt>
      <trkpt lat="47.46614" lon="6.73737">
        <ele>412.5</ele>
        <time>2014-10-05T08:01:30.000Z</time>
      </trkpt>
      <trkpt lat="47.46611" lon="6.73735">
        <ele>414.6</ele>
        <time>2014-10-05T08:01:31.000Z</time>
      </trkpt>
      <trkpt lat="47.46609" lon="6.73734">
        <ele>415.4</ele>
        <time>2014-10-05T08:01:32.000Z</time>
      </trkpt>
      <trkpt lat="47.46606" lon="6.73733">
        <ele>416.5</ele>
        <time>2014-10-05T08:01:33.000Z</time>
      </trkpt>
      <trkpt lat="47.46604" lon="6.73731">
        <ele>417.4</ele>
        <time>2014-10-05T08:01:34.000Z</time>
      </trkpt>
      <trkpt lat="47.46602" lon="6.7373">
        <ele>418</ele>
        <time>2014-10-05T08:01:35.000Z</time>
      </trkpt>
      <trkpt lat="47.46599" lon="6.73728">
        <ele>418.8</ele>
        <time>2014-10-05T08:01:36.000Z</time>
      </trkpt>
      <trkpt lat="47.46596" lon="6.73726">
        <ele>419.2</ele>
        <time>2014-10-05T08:01:37.000Z</time>
      </trkpt>
      <trkpt lat="47.46593" lon="6.73725">
        <ele>419.6</ele>
        <time>2014-10-05T08:01:38.000Z</time>
      </trkpt>
      <trkpt lat="47.4659" lon="6.73723">
        <ele>419.9</ele>
        <time>2014-10-05T08:01:39.000Z</time>
      </trkpt>
      <trkpt lat="47.46587" lon="6.73722">
        <ele>421.7</ele>
        <time>2014-10-05T08:01:40.000Z</time>
      </trkpt>
      <trkpt lat="47.46584" lon="6.7372">
        <ele>421.9</ele>
        <time>2014-10-05T08:01:41.000Z</time>
      </trkpt>
      <trkpt lat="47.46581" lon="6.73719">
        <ele>420.6</ele>
        <time>2014-10-05T08:01:42.000Z</time>
      </trkpt>
      <trkpt lat="47.46578" lon="6.73717">
        <ele>420.5</ele>
        <time>2014-10-05T08:01:43.000Z</time>
      </trkpt>
      <trkpt lat="47.46574" lon="6.73714">
        <ele>420.9</ele>
        <time>2014-10-05T08:01:44.000Z</time>
      </trkpt>
      <trkpt lat="47.46571" lon="6.73712">
        <ele>421.4</ele>
        <time>2014-10-05T08:01:45.000Z</time>
      </trkpt>
      <trkpt lat="47.46567" lon="6.7371">
        <ele>423.8</ele>
        <time>2014-10-05T08:01:46.000Z</time>
      </trkpt>
      <trkpt lat="47.46563" lon="6.73708">
        <ele>423.2</ele>
        <time>2014-10-05T08:01:47.000Z</time>
      </trkpt>
      <trkpt lat="47.46559" lon="6.73707">
        <ele>422.7</ele>
        <time>2014-10-05T08:01:48.000Z</time>
      </trkpt>
      <trkpt lat="47.46554" lon="6.73706">
        <ele>422.8</ele>
        <time>2014-10-05T08:01:49.000Z</time>
      </trkpt>
      <trkpt lat="47.4655" lon="6.73706">
        <ele>422.7</ele>
        <time>2014-10-05T08:01:50.000Z</time>
      </trkpt>
      <trkpt lat="47.46546" lon="6.73706">
        <ele>422.9</ele>
        <time>2014-10-05T08:01:51.000Z</time>
      </trkpt>
      <trkpt lat="47.46543" lon="6.73705">
        <ele>422.7</ele>
        <time>2014-10-05T08:01:52.000Z</time>
      </trkpt>
      <trkpt lat="47.4654" lon="6.73704">
        <ele>423</ele>
        <time>2014-10-05T08:01:53.000Z</time>
      </trkpt>
      <trkpt lat="47.46537" lon="6.73703">
        <ele>423.1</ele>
        <time>2014-10-05T08:01:54.000Z</time>
      </trkpt>
      <trkpt lat="47.46534" lon="6.73701">
        <ele>423.4</ele>
        <time>2014-10-05T08:01:55.000Z</time>
      </trkpt>
      <trkpt lat="47.4653" lon="6.737">
        <ele>424.8</ele>
        <time>2014-10-05T08:01:56.000Z</time>
      </trkpt>
      <trkpt lat="47.46526" lon="6.73699">
        <ele>424.6</ele>
        <time>2014-10-05T08:01:57.000Z</time>
      </trkpt>
      <trkpt lat="47.46522" lon="6.73699">
        <ele>427</ele>
        <time>2014-10-05T08:01:58.000Z</time>
      </trkpt>
      <trkpt lat="47.46518" lon="6.73699">
        <ele>427.3</ele>
        <time>2014-10-05T08:01:59.000Z</time>
      </trkpt>
      <trkpt lat="47.46513" lon="6.737">
        <ele>427.1</ele>
        <time>2014-10-05T08:02:00.000Z</time>
      </trkpt>
      <trkpt lat="47.46509" lon="6.737">
        <ele>426.7</ele>
        <time>2014-10-05T08:02:01.000Z</time>
      </trkpt>
      <trkpt lat="47.46506" lon="6.737">
        <ele>426.6</ele>
        <time>2014-10-05T08:02:02.000Z</time>
      </trkpt>
      <trkpt lat="47.46504" lon="6.737">
        <ele>428.6</ele>
        <time>2014-10-05T08:02:03.000Z</time>
      </trkpt>
      <trkpt lat="47.46501" lon="6.73701">
        <ele>428.3</ele>
        <time>2014-10-05T08:02:04.000Z</time>
      </trkpt>
      <trkpt lat="47.46499" lon="6.73702">
        <ele>428.2</ele>
        <time>2014-10-05T08:02:05.000Z</time>
      </trkpt>
      <trkpt lat="47.46496" lon="6.73704">
        <ele>426.9</ele>
        <time>2014-10-05T08:02:06.000Z</time>
      </trkpt>
      <trkpt lat="47.46494" lon="6.73707">
        <ele>425.6</ele>
        <time>2014-10-05T08:02:07.000Z</time>
      </trkpt>
      <trkpt lat="47.46492" lon="6.73709">
        <ele>426.6</ele>
        <time>2014-10-05T08:02:08.000Z</time>
      </trkpt>
      <trkpt lat="47.46489" lon="6.73713">
        <ele>425.9</ele>
        <time>2014-10-05T08:02:09.000Z</time>
      </trkpt>
      <trkpt lat="47.46487" lon="6.73717">
        <ele>425.5</ele>
        <time>2014-10-05T08:02:10.000Z</time>
      </trkpt>
      <trkpt lat="47.46485" lon="6.7372">
        <ele>427.1</ele>
        <time>2014-10-05T08:02:11.000Z</time>
      </trkpt>
      <trkpt lat="47.46483" lon="6.73723">
        <ele>427.6</ele>
        <time>2014-10-05T08:02:12.000Z</time>
      </trkpt>
      <trkpt lat="47.46479" lon="6.73726">
        <ele>428.6</ele>
        <time>2014-10-05T08:02:14.000Z</time>
      </trkpt>
      <trkpt lat="47.46477" lon="6.73727">
        <ele>428.4</ele>
        <time>2014-10-05T08:02:15.000Z</time>
      </trkpt>
      <trkpt lat="47.46474" lon="6.7373">
        <ele>428</ele>
        <time>2014-10-05T08:02:17.000Z</time>
      </trkpt>
      <trkpt lat="47.4646" lon="6.73737">
        <ele>428.4</ele>
        <time>2014-10-05T08:02:25.000Z</time>
      </trkpt>
      <trkpt lat="47.46457" lon="6.73735">
        <ele>429.6</ele>
        <time>2014-10-05T08:02:28.000Z</time>
      </trkpt>
      <trkpt lat="47.46455" lon="6.73735">
        <ele>430.8</ele>
        <time>2014-10-05T08:02:29.000Z</time>
      </trkpt>
      <trkpt lat="47.46451" lon="6.73734">
        <ele>430.1</ele>
        <time>2014-10-05T08:02:31.000Z</time>
      </trkpt>
      <trkpt lat="47.46449" lon="6.73734">
        <ele>430.5</ele>
        <time>2014-10-05T08:02:32.000Z</time>
      </trkpt>
      <trkpt lat="47.46446" lon="6.73734">
        <ele>431.3</ele>
        <time>2014-10-05T08:02:34.000Z</time>
      </trkpt>
      <trkpt lat="47.46444" lon="6.73734">
        <ele>431.5</ele>
        <time>2014-10-05T08:02:35.000Z</time>
      </trkpt>
      <trkpt lat="47.46441" lon="6.73732">
        <ele>433.8</ele>
        <time>2014-10-05T08:02:37.000Z</time>
      </trkpt>
      <trkpt lat="47.46439" lon="6.73731">
        <ele>434.9</ele>
        <time>2014-10-05T08:02:38.000Z</time>
      </trkpt>
      <trkpt lat="47.46436" lon="6.73729">
        <ele>435</ele>
        <time>2014-10-05T08:02:40.000Z</time>
      </trkpt>
      <trkpt lat="47.46435" lon="6.73729">
        <ele>435</ele>
        <time>2014-10-05T08:02:41.000Z</time>
      </trkpt>
      <trkpt lat="47.46431" lon="6.73727">
        <ele>435.1</ele>
        <time>2014-10-05T08:02:42.998Z</time>
      </trkpt>
      <trkpt lat="47.46428" lon="6.73727">
        <ele>437.5</ele>
        <time>2014-10-05T08:02:44.000Z</time>
      </trkpt>
      <trkpt lat="47.46424" lon="6.73727">
        <ele>436.9</ele>
        <time>2014-10-05T08:02:46.000Z</time>
      </trkpt>
      <trkpt lat="47.46422" lon="6.73728">
        <ele>436.1</ele>
        <time>2014-10-05T08:02:47.000Z</time>
      </trkpt>
      <trkpt lat="47.46419" lon="6.73728">
        <ele>436.1</ele>
        <time>2014-10-05T08:02:48.000Z</time>
      </trkpt>
      <trkpt lat="47.46417" lon="6.73728">
        <ele>436.7</ele>
        <time>2014-10-05T08:02:49.000Z</time>
      </trkpt>
      <trkpt lat="47.46414" lon="6.73728">
        <ele>436.3</ele>
        <time>2014-10-05T08:02:50.000Z</time>
      </trkpt>
      <trkpt lat="47.46411" lon="6.73729">
        <ele>436</ele>
        <time>2014-10-05T08:02:51.000Z</time>
      </trkpt>
      <trkpt lat="47.46407" lon="6.7373">
        <ele>435.3</ele>
        <time>2014-10-05T08:02:53.000Z</time>
      </trkpt>
      <trkpt lat="47.46405" lon="6.73731">
        <ele>435.4</ele>
        <time>2014-10-05T08:02:54.000Z</time>
      </trkpt>
      <trkpt lat="47.46402" lon="6.73732">
        <ele>434.2</ele>
        <time>2014-10-05T08:02:56.000Z</time>
      </trkpt>
      <trkpt lat="47.46401" lon="6.73733">
        <ele>434.2</ele>
        <time>2014-10-05T08:02:57.000Z</time>
      </trkpt>
      <trkpt lat="47.46397" lon="6.73735">
        <ele>435.3</ele>
        <time>2014-10-05T08:03:00.000Z</time>
      </trkpt>
      <trkpt lat="47.46395" lon="6.73734">
        <ele>436.9</ele>
        <time>2014-10-05T08:03:01.000Z</time>
      </trkpt>
      <trkpt lat="47.46392" lon="6.73733">
        <ele>435.6</ele>
        <time>2014-10-05T08:03:03.000Z</time>
      </trkpt>
      <trkpt lat="47.4639" lon="6.73732">
        <ele>434.9</ele>
        <time>2014-10-05T08:03:04.000Z</time>
      </trkpt>
      <trkpt lat="47.46387" lon="6.7373">
        <ele>434.4</ele>
        <time>2014-10-05T08:03:06.000Z</time>
      </trkpt>
      <trkpt lat="47.46385" lon="6.73729">
        <ele>434.7</ele>
        <time>2014-10-05T08:03:07.000Z</time>
      </trkpt>
      <trkpt lat="47.46383" lon="6.73727">
        <ele>434.8</ele>
        <time>2014-10-05T08:03:08.000Z</time>
      </trkpt>
      <trkpt lat="47.46381" lon="6.73725">
        <ele>435.4</ele>
        <time>2014-10-05T08:03:09.000Z</time>
      </trkpt>
      <trkpt lat="47.46379" lon="6.73724">
        <ele>436.3</ele>
        <time>2014-10-05T08:03:10.000Z</time>
      </trkpt>
      <trkpt lat="47.46376" lon="6.73722">
        <ele>437.1</ele>
        <time>2014-10-05T08:03:11.000Z</time>
      </trkpt>
      <trkpt lat="47.46372" lon="6.73721">
        <ele>437</ele>
        <time>2014-10-05T08:03:13.000Z</time>
      </trkpt>
      <trkpt lat="47.4637" lon="6.7372">
        <ele>436.5</ele>
        <time>2014-10-05T08:03:14.000Z</time>
      </trkpt>
      <trkpt lat="47.46367" lon="6.7372">
        <ele>436.1</ele>
        <time>2014-10-05T08:03:16.000Z</time>
      </trkpt>
      <trkpt lat="47.46365" lon="6.7372">
        <ele>436.1</ele>
        <time>2014-10-05T08:03:17.000Z</time>
      </trkpt>
      <trkpt lat="47.46355" lon="6.73721">
        <ele>438.3</ele>
        <time>2014-10-05T08:03:25.000Z</time>
      </trkpt>
      <trkpt lat="47.46352" lon="6.73719">
        <ele>437.1</ele>
        <time>2014-10-05T08:03:27.000Z</time>
      </trkpt>
      <trkpt lat="47.4635" lon="6.73717">
        <ele>438.2</ele>
        <time>2014-10-05T08:03:28.000Z</time>
      </trkpt>
      <trkpt lat="47.46347" lon="6.73713">
        <ele>438.5</ele>
        <time>2014-10-05T08:03:30.000Z</time>
      </trkpt>
      <trkpt lat="47.46345" lon="6.7371">
        <ele>438.7</ele>
        <time>2014-10-05T08:03:31.000Z</time>
      </trkpt>
      <trkpt lat="47.46343" lon="6.73706">
        <ele>438.3</ele>
        <time>2014-10-05T08:03:33.000Z</time>
      </trkpt>
      <trkpt lat="47.46341" lon="6.73704">
        <ele>438.6</ele>
        <time>2014-10-05T08:03:34.000Z</time>
      </trkpt>
      <trkpt lat="47.46339" lon="6.73702">
        <ele>438.1</ele>
        <time>2014-10-05T08:03:35.000Z</time>
      </trkpt>
      <trkpt lat="47.46337" lon="6.73701">
        <ele>437.6</ele>
        <time>2014-10-05T08:03:36.000Z</time>
      </trkpt>
      <trkpt lat="47.46334" lon="6.737">
        <ele>437</ele>
        <time>2014-10-05T08:03:37.000Z</time>
      </trkpt>
      <trkpt lat="47.46332" lon="6.737">
        <ele>438</ele>
        <time>2014-10-05T08:03:38.000Z</time>
      </trkpt>
      <trkpt lat="47.46329" lon="6.73701">
        <ele>438</ele>
        <time>2014-10-05T08:03:39.000Z</time>
      </trkpt>
      <trkpt lat="47.46325" lon="6.73702">
        <ele>437.6</ele>
        <time>2014-10-05T08:03:40.000Z</time>
      </trkpt>
      <trkpt lat="47.46322" lon="6.73704">
        <ele>436.9</ele>
        <time>2014-10-05T08:03:41.000Z</time>
      </trkpt>
      <trkpt lat="47.46319" lon="6.73705">
        <ele>436.8</ele>
        <time>2014-10-05T08:03:42.000Z</time>
      </trkpt>
      <trkpt lat="47.46316" lon="6.73706">
        <ele>436.9</ele>
        <time>2014-10-05T08:03:43.000Z</time>
      </trkpt>
      <trkpt lat="47.46313" lon="6.73706">
        <ele>436.8</ele>
        <time>2014-10-05T08:03:44.000Z</time>
      </trkpt>
      <trkpt lat="47.46311" lon="6.73705">
        <ele>436.5</ele>
        <time>2014-10-05T08:03:45.000Z</time>
      </trkpt>
      <trkpt lat="47.46308" lon="6.73705">
        <ele>436</ele>
        <time>2014-10-05T08:03:46.000Z</time>
      </trkpt>
      <trkpt lat="47.46306" lon="6.73704">
        <ele>435.8</ele>
        <time>2014-10-05T08:03:47.000Z</time>
      </trkpt>
      <trkpt lat="47.46303" lon="6.73704">
        <ele>435</ele>
        <time>2014-10-05T08:03:48.000Z</time>
      </trkpt>
      <trkpt lat="47.46301" lon="6.73704">
        <ele>435.2</ele>
        <time>2014-10-05T08:03:49.000Z</time>
      </trkpt>
      <trkpt lat="47.46298" lon="6.73703">
        <ele>434.7</ele>
        <time>2014-10-05T08:03:50.000Z</time>
      </trkpt>
      <trkpt lat="47.46296" lon="6.73703">
        <ele>434.2</ele>
        <time>2014-10-05T08:03:51.000Z</time>
      </trkpt>
      <trkpt lat="47.46294" lon="6.73703">
        <ele>434.2</ele>
        <time>2014-10-05T08:03:52.000Z</time>
      </trkpt>
      <trkpt lat="47.46289" lon="6.73704">
        <ele>432.8</ele>
        <time>2014-10-05T08:03:54.000Z</time>
      </trkpt>
      <trkpt lat="47.46287" lon="6.73705">
        <ele>433.8</ele>
        <time>2014-10-05T08:03:55.000Z</time>
      </trkpt>
      <trkpt lat="47.46284" lon="6.73706">
        <ele>433.6</ele>
        <time>2014-10-05T08:03:56.000Z</time>
      </trkpt>
      <trkpt lat="47.46281" lon="6.73706">
        <ele>433.3</ele>
        <time>2014-10-05T08:03:57.000Z</time>
      </trkpt>
      <trkpt lat="47.46277" lon="6.73707">
        <ele>433.8</ele>
        <time>2014-10-05T08:03:58.000Z</time>
      </trkpt>
      <trkpt lat="47.46274" lon="6.73707">
        <ele>433.7</ele>
        <time>2014-10-05T08:03:59.000Z</time>
      </trkpt>
      <trkpt lat="47.46271" lon="6.73707">
        <ele>433.3</ele>
        <time>2014-10-05T08:04:00.000Z</time>
      </trkpt>
      <trkpt lat="47.46268" lon="6.73707">
        <ele>433.5</ele>
        <time>2014-10-05T08:04:01.000Z</time>
      </trkpt>
      <trkpt lat="47.46265" lon="6.73707">
        <ele>433.5</ele>
        <time>2014-10-05T08:04:02.000Z</time>
      </trkpt>
      <trkpt lat="47.46261" lon="6.73706">
        <ele>433.3</ele>
        <time>2014-10-05T08:04:03.000Z</time>
      </trkpt>
      <trkpt lat="47.46258" lon="6.73706">
        <ele>433.4</ele>
        <time>2014-10-05T08:04:04.000Z</time>
      </trkpt>
      <trkpt lat="47.46255" lon="6.73706">
        <ele>433.2</ele>
        <time>2014-10-05T08:04:05.000Z</time>
      </trkpt>
      <trkpt lat="47.46251" lon="6.73706">
        <ele>432.5</ele>
        <time>2014-10-05T08:04:06.000Z</time>
      </trkpt>
      <trkpt lat="47.46247" lon="6.73705">
        <ele>433</ele>
        <time>2014-10-05T08:04:07.000Z</time>
      </trkpt>
      <trkpt lat="47.46244" lon="6.73705">
        <ele>432.9</ele>
        <time>2014-10-05T08:04:08.000Z</time>
      </trkpt>
      <trkpt lat="47.4624" lon="6.73705">
        <ele>433.7</ele>
        <time>2014-10-05T08:04:09.000Z</time>
      </trkpt>
      <trkpt lat="47.46238" lon="6.73705">
        <ele>433.6</ele>
        <time>2014-10-05T08:04:10.000Z</time>
      </trkpt>
      <trkpt lat="47.46235" lon="6.73705">
        <ele>433.8</ele>
        <time>2014-10-05T08:04:11.000Z</time>
      </trkpt>
      <trkpt lat="47.46232" lon="6.73705">
        <ele>433.9</ele>
        <time>2014-10-05T08:04:12.000Z</time>
      </trkpt>
      <trkpt lat="47.4623" lon="6.73706">
        <ele>434.5</ele>
        <time>2014-10-05T08:04:13.000Z</time>
      </trkpt>
      <trkpt lat="47.46227" lon="6.73706">
        <ele>433.5</ele>
        <time>2014-10-05T08:04:14.000Z</time>
      </trkpt>
      <trkpt lat="47.46224" lon="6.73706">
        <ele>433.1</ele>
        <time>2014-10-05T08:04:15.000Z</time>
      </trkpt>
      <trkpt lat="47.46221" lon="6.73705">
        <ele>432.7</ele>
        <time>2014-10-05T08:04:16.000Z</time>
      </trkpt>
      <trkpt lat="47.46218" lon="6.73705">
        <ele>432.4</ele>
        <time>2014-10-05T08:04:17.000Z</time>
      </trkpt>
      <trkpt lat="47.46196" lon="6.73706">
        <ele>433.5</ele>
        <time>2014-10-05T08:04:25.000Z</time>
      </trkpt>
      <trkpt lat="47.46193" lon="6.73706">
        <ele>433.2</ele>
        <time>2014-10-05T08:04:26.000Z</time>
      </trkpt>
      <trkpt lat="47.4619" lon="6.73706">
        <ele>433.3</ele>
        <time>2014-10-05T08:04:27.000Z</time>
      </trkpt>
      <trkpt lat="47.46186" lon="6.73705">
        <ele>433.3</ele>
        <time>2014-10-05T08:04:28.000Z</time>
      </trkpt>
      <trkpt lat="47.46183" lon="6.73705">
        <ele>433.6</ele>
        <time>2014-10-05T08:04:29.000Z</time>
      </trkpt>
      <trkpt lat="47.4618" lon="6.73704">
        <ele>433.6</ele>
        <time>2014-10-05T08:04:30.000Z</time>
      </trkpt>
      <trkpt lat="47.46177" lon="6.73703">
        <ele>434</ele>
        <time>2014-10-05T08:04:31.000Z</time>
      </trkpt>
      <trkpt lat="47.46174" lon="6.73702">
        <ele>433.2</ele>
        <time>2014-10-05T08:04:32.000Z</time>
      </trkpt>
      <trkpt lat="47.46171" lon="6.73701">
        <ele>433.2</ele>
        <time>2014-10-05T08:04:33.000Z</time>
      </trkpt>
      <trkpt lat="47.46168" lon="6.73699">
        <ele>432.8</ele>
        <time>2014-10-05T08:04:34.000Z</time>
      </trkpt>
      <trkpt lat="47.46165" lon="6.73698">
        <ele>432.9</ele>
        <time>2014-10-05T08:04:35.000Z</time>
      </trkpt>
      <trkpt lat="47.46162" lon="6.73696">
        <ele>433.3</ele>
        <time>2014-10-05T08:04:36.000Z</time>
      </trkpt>
      <trkpt lat="47.46159" lon="6.73694">
        <ele>433.6</ele>
        <time>2014-10-05T08:04:37.000Z</time>
      </trkpt>
      <trkpt lat="47.46156" lon="6.73692">
        <ele>433.7</ele>
        <time>2014-10-05T08:04:38.000Z</time>
      </trkpt>
      <trkpt lat="47.46154" lon="6.7369">
        <ele>434.7</ele>
        <time>2014-10-05T08:04:39.000Z</time>
      </trkpt>
      <trkpt lat="47.46151" lon="6.73688">
        <ele>434.7</ele>
        <time>2014-10-05T08:04:40.000Z</time>
      </trkpt>
      <trkpt lat="47.46149" lon="6.73686">
        <ele>434.6</ele>
        <time>2014-10-05T08:04:41.000Z</time>
      </trkpt>
      <trkpt lat="47.46146" lon="6.73684">
        <ele>436</ele>
        <time>2014-10-05T08:04:42.000Z</time>
      </trkpt>
      <trkpt lat="47.46144" lon="6.73681">
        <ele>436.5</ele>
        <time>2014-10-05T08:04:43.000Z</time>
      </trkpt>
      <trkpt lat="47.46142" lon="6.73679">
        <ele>437.6</ele>
        <time>2014-10-05T08:04:44.000Z</time>
      </trkpt>
      <trkpt lat="47.4614" lon="6.73678">
        <ele>438.2</ele>
        <time>2014-10-05T08:04:45.000Z</time>
      </trkpt>
      <trkpt lat="47.46137" lon="6.73676">
        <ele>438.4</ele>
        <time>2014-10-05T08:04:46.000Z</time>
      </trkpt>
      <trkpt lat="47.46135" lon="6.73675">
        <ele>439.2</ele>
        <time>2014-10-05T08:04:47.000Z</time>
      </trkpt>
      <trkpt lat="47.46132" lon="6.73672">
        <ele>440.3</ele>
        <time>2014-10-05T08:04:49.000Z</time>
      </trkpt>
      <trkpt lat="47.4613" lon="6.73671">
        <ele>440.8</ele>
        <time>2014-10-05T08:04:49.999Z</time>
      </trkpt>
      <trkpt lat="47.46127" lon="6.73668">
        <ele>441.3</ele>
        <time>2014-10-05T08:04:52.000Z</time>
      </trkpt>
      <trkpt lat="47.46125" lon="6.73667">
        <ele>441.4</ele>
        <time>2014-10-05T08:04:53.000Z</time>
      </trkpt>
      <trkpt lat="47.46121" lon="6.73666">
        <ele>442.1</ele>
        <time>2014-10-05T08:04:55.000Z</time>
      </trkpt>
      <trkpt lat="47.46119" lon="6.73665">
        <ele>443.7</ele>
        <time>2014-10-05T08:04:56.000Z</time>
      </trkpt>
      <trkpt lat="47.46117" lon="6.73664">
        <ele>444.8</ele>
        <time>2014-10-05T08:04:57.000Z</time>
      </trkpt>
      <trkpt lat="47.46115" lon="6.73662">
        <ele>443.9</ele>
        <time>2014-10-05T08:04:58.000Z</time>
      </trkpt>
      <trkpt lat="47.46112" lon="6.7366">
        <ele>443</ele>
        <time>2014-10-05T08:04:59.000Z</time>
      </trkpt>
      <trkpt lat="47.46109" lon="6.73658">
        <ele>443.8</ele>
        <time>2014-10-05T08:05:00.000Z</time>
      </trkpt>
      <trkpt lat="47.46107" lon="6.73655">
        <ele>443.6</ele>
        <time>2014-10-05T08:05:01.000Z</time>
      </trkpt>
      <trkpt lat="47.46105" lon="6.73653">
        <ele>443.9</ele>
        <time>2014-10-05T08:05:02.000Z</time>
      </trkpt>
      <trkpt lat="47.46103" lon="6.7365">
        <ele>444</ele>
        <time>2014-10-05T08:05:03.000Z</time>
      </trkpt>
      <trkpt lat="47.46101" lon="6.73648">
        <ele>443.9</ele>
        <time>2014-10-05T08:05:04.000Z</time>
      </trkpt>
      <trkpt lat="47.46099" lon="6.73647">
        <ele>443.9</ele>
        <time>2014-10-05T08:05:05.000Z</time>
      </trkpt>
      <trkpt lat="47.46096" lon="6.73645">
        <ele>442.3</ele>
        <time>2014-10-05T08:05:06.000Z</time>
      </trkpt>
      <trkpt lat="47.46094" lon="6.73642">
        <ele>441.2</ele>
        <time>2014-10-05T08:05:07.000Z</time>
      </trkpt>
      <trkpt lat="47.46091" lon="6.7364">
        <ele>441</ele>
        <time>2014-10-05T08:05:08.000Z</time>
      </trkpt>
      <trkpt lat="47.46089" lon="6.73638">
        <ele>440.1</ele>
        <time>2014-10-05T08:05:09.000Z</time>
      </trkpt>
      <trkpt lat="47.46086" lon="6.73636">
        <ele>440</ele>
        <time>2014-10-05T08:05:10.000Z</time>
      </trkpt>
      <trkpt lat="47.46083" lon="6.73633">
        <ele>440.3</ele>
        <time>2014-10-05T08:05:11.000Z</time>
      </trkpt>
      <trkpt lat="47.4608" lon="6.73631">
        <ele>440.7</ele>
        <time>2014-10-05T08:05:12.000Z</time>
      </trkpt>
      <trkpt lat="47.46078" lon="6.73629">
        <ele>441.5</ele>
        <time>2014-10-05T08:05:13.000Z</time>
      </trkpt>
      <trkpt lat="47.46076" lon="6.73627">
        <ele>442.1</ele>
        <time>2014-10-05T08:05:14.000Z</time>
      </trkpt>
      <trkpt lat="47.46074" lon="6.73624">
        <ele>443.3</ele>
        <time>2014-10-05T08:05:15.000Z</time>
      </trkpt>
      <trkpt lat="47.46071" lon="6.73622">
        <ele>443.5</ele>
        <time>2014-10-05T08:05:16.000Z</time>
      </trkpt>
      <trkpt lat="47.46053" lon="6.73612">
        <ele>446.6</ele>
        <time>2014-10-05T08:05:24.000Z</time>
      </trkpt>
      <trkpt lat="47.46051" lon="6.73612">
        <ele>446</ele>
        <time>2014-10-05T08:05:25.000Z</time>
      </trkpt>
      <trkpt lat="47.46048" lon="6.7361">
        <ele>445.4</ele>
        <time>2014-10-05T08:05:26.000Z</time>
      </trkpt>
      <trkpt lat="47.46046" lon="6.73609">
        <ele>446</ele>
        <time>2014-10-05T08:05:27.000Z</time>
      </trkpt>
      <trkpt lat="47.46043" lon="6.73607">
        <ele>445.5</ele>
        <time>2014-10-05T08:05:28.000Z</time>
      </trkpt>
      <trkpt lat="47.46041" lon="6.73605">
        <ele>445</ele>
        <time>2014-10-05T08:05:29.000Z</time>
      </trkpt>
      <trkpt lat="47.46038" lon="6.73604">
        <ele>445.4</ele>
        <time>2014-10-05T08:05:30.000Z</time>
      </trkpt>
      <trkpt lat="47.46036" lon="6.73603">
        <ele>446.9</ele>
        <time>2014-10-05T08:05:31.000Z</time>
      </trkpt>
      <trkpt lat="47.46033" lon="6.73603">
        <ele>447</ele>
        <time>2014-10-05T08:05:32.000Z</time>
      </trkpt>
      <trkpt lat="47.46031" lon="6.73602">
        <ele>446.8</ele>
        <time>2014-10-05T08:05:33.000Z</time>
      </trkpt>
      <trkpt lat="47.46028" lon="6.73602">
        <ele>447.7</ele>
        <time>2014-10-05T08:05:34.000Z</time>
      </trkpt>
      <trkpt lat="47.46026" lon="6.73601">
        <ele>447.8</ele>
        <time>2014-10-05T08:05:35.000Z</time>
      </trkpt>
      <trkpt lat="47.46023" lon="6.73601">
        <ele>446.8</ele>
        <time>2014-10-05T08:05:36.000Z</time>
      </trkpt>
      <trkpt lat="47.4602" lon="6.73601">
        <ele>446.9</ele>
        <time>2014-10-05T08:05:37.000Z</time>
      </trkpt>
      <trkpt lat="47.46018" lon="6.73601">
        <ele>446.6</ele>
        <time>2014-10-05T08:05:38.000Z</time>
      </trkpt>
      <trkpt lat="47.46015" lon="6.73601">
        <ele>446.3</ele>
        <time>2014-10-05T08:05:39.000Z</time>
      </trkpt>
      <trkpt lat="47.46012" lon="6.73602">
        <ele>446.6</ele>
        <time>2014-10-05T08:05:40.000Z</time>
      </trkpt>
      <trkpt lat="47.46009" lon="6.73603">
        <ele>446.2</ele>
        <time>2014-10-05T08:05:41.000Z</time>
      </trkpt>
      <trkpt lat="47.46006" lon="6.73603">
        <ele>446.5</ele>
        <time>2014-10-05T08:05:42.000Z</time>
      </trkpt>
      <trkpt lat="47.46004" lon="6.73603">
        <ele>446.7</ele>
        <time>2014-10-05T08:05:43.000Z</time>
      </trkpt>
      <trkpt lat="47.46001" lon="6.73602">
        <ele>445.5</ele>
        <time>2014-10-05T08:05:44.000Z</time>
      </trkpt>
      <trkpt lat="47.45999" lon="6.73601">
        <ele>444.7</ele>
        <time>2014-10-05T08:05:45.000Z</time>
      </trkpt>
      <trkpt lat="47.45997" lon="6.73599">
        <ele>444.4</ele>
        <time>2014-10-05T08:05:46.000Z</time>
      </trkpt>
      <trkpt lat="47.45995" lon="6.73598">
        <ele>444.2</ele>
        <time>2014-10-05T08:05:47.000Z</time>
      </trkpt>
      <trkpt lat="47.45992" lon="6.73598">
        <ele>444.3</ele>
        <time>2014-10-05T08:05:48.000Z</time>
      </trkpt>
      <trkpt lat="47.45989" lon="6.73597">
        <ele>445.9</ele>
        <time>2014-10-05T08:05:49.000Z</time>
      </trkpt>
      <trkpt lat="47.45987" lon="6.73597">
        <ele>446.3</ele>
        <time>2014-10-05T08:05:50.000Z</time>
      </trkpt>
      <trkpt lat="47.45984" lon="6.73597">
        <ele>445.8</ele>
        <time>2014-10-05T08:05:51.000Z</time>
      </trkpt>
      <trkpt lat="47.45981" lon="6.73597">
        <ele>445.3</ele>
        <time>2014-10-05T08:05:52.000Z</time>
      </trkpt>
      <trkpt lat="47.45978" lon="6.73598">
        <ele>445.8</ele>
        <time>2014-10-05T08:05:53.000Z</time>
      </trkpt>
      <trkpt lat="47.45976" lon="6.73598">
        <ele>446</ele>
        <time>2014-10-05T08:05:54.000Z</time>
      </trkpt>
      <trkpt lat="47.45973" lon="6.736">
        <ele>446.5</ele>
        <time>2014-10-05T08:05:55.000Z</time>
      </trkpt>
      <trkpt lat="47.4597" lon="6.73601">
        <ele>446.5</ele>
        <time>2014-10-05T08:05:56.000Z</time>
      </trkpt>
      <trkpt lat="47.45968" lon="6.73602">
        <ele>446.8</ele>
        <time>2014-10-05T08:05:57.000Z</time>
      </trkpt>
      <trkpt lat="47.45965" lon="6.73603">
        <ele>448.3</ele>
        <time>2014-10-05T08:05:58.000Z</time>
      </trkpt>
      <trkpt lat="47.45963" lon="6.73604">
        <ele>448.8</ele>
        <time>2014-10-05T08:05:59.000Z</time>
      </trkpt>
      <trkpt lat="47.45961" lon="6.73605">
        <ele>449.2</ele>
        <time>2014-10-05T08:06:00.000Z</time>
      </trkpt>
      <trkpt lat="47.45957" lon="6.73607">
        <ele>451.1</ele>
        <time>2014-10-05T08:06:02.000Z</time>
      </trkpt>
      <trkpt lat="47.45955" lon="6.73608">
        <ele>450.5</ele>
        <time>2014-10-05T08:06:03.000Z</time>
      </trkpt>
      <trkpt lat="47.45952" lon="6.73609">
        <ele>451.1</ele>
        <time>2014-10-05T08:06:04.000Z</time>
      </trkpt>
      <trkpt lat="47.4595" lon="6.73611">
        <ele>450.2</ele>
        <time>2014-10-05T08:06:05.000Z</time>
      </trkpt>
      <trkpt lat="47.45947" lon="6.73613">
        <ele>449.7</ele>
        <time>2014-10-05T08:06:06.000Z</time>
      </trkpt>
      <trkpt lat="47.45945" lon="6.73615">
        <ele>449.6</ele>
        <time>2014-10-05T08:06:07.000Z</time>
      </trkpt>
      <trkpt lat="47.45942" lon="6.73617">
        <ele>450.1</ele>
        <time>2014-10-05T08:06:08.000Z</time>
      </trkpt>
      <trkpt lat="47.4594" lon="6.73619">
        <ele>450.3</ele>
        <time>2014-10-05T08:06:09.000Z</time>
      </trkpt>
      <trkpt lat="47.45938" lon="6.73621">
        <ele>449.9</ele>
        <time>2014-10-05T08:06:10.000Z</time>
      </trkpt>
      <trkpt lat="47.45935" lon="6.73624">
        <ele>449.9</ele>
        <time>2014-10-05T08:06:11.000Z</time>
      </trkpt>
      <trkpt lat="47.45933" lon="6.73626">
        <ele>449.7</ele>
        <time>2014-10-05T08:06:12.000Z</time>
      </trkpt>
      <trkpt lat="47.45931" lon="6.73629">
        <ele>449.2</ele>
        <time>2014-10-05T08:06:13.000Z</time>
      </trkpt>
      <trkpt lat="47.45928" lon="6.73631">
        <ele>449.7</ele>
        <time>2014-10-05T08:06:14.000Z</time>
      </trkpt>
      <trkpt lat="47.45926" lon="6.73633">
        <ele>449.5</ele>
        <time>2014-10-05T08:06:15.000Z</time>
      </trkpt>
      <trkpt lat="47.45924" lon="6.73635">
        <ele>449.7</ele>
        <time>2014-10-05T08:06:16.000Z</time>
      </trkpt>
      <trkpt lat="47.45906" lon="6.73645">
        <ele>450.9</ele>
        <time>2014-10-05T08:06:24.000Z</time>
      </trkpt>
      <trkpt lat="47.45904" lon="6.73646">
        <ele>450.7</ele>
        <time>2014-10-05T08:06:25.000Z</time>
      </trkpt>
      <trkpt lat="47.45901" lon="6.73647">
        <ele>450.6</ele>
        <time>2014-10-05T08:06:26.000Z</time>
      </trkpt>
      <trkpt lat="47.45899" lon="6.73647">
        <ele>451.7</ele>
        <time>2014-10-05T08:06:27.000Z</time>
      </trkpt>
      <trkpt lat="47.45897" lon="6.73646">
        <ele>451.5</ele>
        <time>2014-10-05T08:06:28.000Z</time>
      </trkpt>
      <trkpt lat="47.45894" lon="6.73645">
        <ele>450.9</ele>
        <time>2014-10-05T08:06:29.000Z</time>
      </trkpt>
      <trkpt lat="47.45891" lon="6.73644">
        <ele>451.4</ele>
        <time>2014-10-05T08:06:30.000Z</time>
      </trkpt>
      <trkpt lat="47.45889" lon="6.73643">
        <ele>450.8</ele>
        <time>2014-10-05T08:06:31.000Z</time>
      </trkpt>
      <trkpt lat="47.45886" lon="6.73643">
        <ele>450.8</ele>
        <time>2014-10-05T08:06:32.000Z</time>
      </trkpt>
      <trkpt lat="47.45883" lon="6.73643">
        <ele>450.5</ele>
        <time>2014-10-05T08:06:33.000Z</time>
      </trkpt>
      <trkpt lat="47.45881" lon="6.73643">
        <ele>451.4</ele>
        <time>2014-10-05T08:06:34.000Z</time>
      </trkpt>
      <trkpt lat="47.45878" lon="6.73643">
        <ele>452.5</ele>
        <time>2014-10-05T08:06:35.000Z</time>
      </trkpt>
      <trkpt lat="47.45876" lon="6.73642">
        <ele>452.8</ele>
        <time>2014-10-05T08:06:36.000Z</time>
      </trkpt>
      <trkpt lat="47.45873" lon="6.73642">
        <ele>452.5</ele>
        <time>2014-10-05T08:06:37.000Z</time>
      </trkpt>
      <trkpt lat="47.4587" lon="6.73642">
        <ele>451.2</ele>
        <time>2014-10-05T08:06:38.000Z</time>
      </trkpt>
      <trkpt lat="47.45867" lon="6.73642">
        <ele>451.2</ele>
        <time>2014-10-05T08:06:39.000Z</time>
      </trkpt>
      <trkpt lat="47.45864" lon="6.73642">
        <ele>451.6</ele>
        <time>2014-10-05T08:06:40.000Z</time>
      </trkpt>
      <trkpt lat="47.45862" lon="6.73642">
        <ele>452.3</ele>
        <time>2014-10-05T08:06:41.000Z</time>
      </trkpt>
      <trkpt lat="47.45859" lon="6.73642">
        <ele>452.9</ele>
        <time>2014-10-05T08:06:42.000Z</time>
      </trkpt>
      <trkpt lat="47.45856" lon="6.73641">
        <ele>453.5</ele>
        <time>2014-10-05T08:06:43.000Z</time>
      </trkpt>
      <trkpt lat="47.45853" lon="6.73641">
        <ele>454.1</ele>
        <time>2014-10-05T08:06:44.000Z</time>
      </trkpt>
      <trkpt lat="47.45851" lon="6.73641">
        <ele>454.7</ele>
        <time>2014-10-05T08:06:45.000Z</time>
      </trkpt>
      <trkpt lat="47.45848" lon="6.73641">
        <ele>454.9</ele>
        <time>2014-10-05T08:06:46.000Z</time>
      </trkpt>
      <trkpt lat="47.45845" lon="6.73641">
        <ele>455.9</ele>
        <time>2014-10-05T08:06:47.000Z</time>
      </trkpt>
      <trkpt lat="47.45842" lon="6.73641">
        <ele>456.2</ele>
        <time>2014-10-05T08:06:48.000Z</time>
      </trkpt>
      <trkpt lat="47.4584" lon="6.73641">
        <ele>455.8</ele>
        <time>2014-10-05T08:06:49.000Z</time>
      </trkpt>
      <trkpt lat="47.45837" lon="6.73641">
        <ele>455.4</ele>
        <time>2014-10-05T08:06:50.000Z</time>
      </trkpt>
      <trkpt lat="47.45834" lon="6.73642">
        <ele>455.2</ele>
        <time>2014-10-05T08:06:51.000Z</time>
      </trkpt>
      <trkpt lat="47.4583" lon="6.73643">
        <ele>453.5</ele>
        <time>2014-10-05T08:06:52.000Z</time>
      </trkpt>
      <trkpt lat="47.45828" lon="6.73643">
        <ele>454.3</ele>
        <time>2014-10-05T08:06:53.000Z</time>
      </trkpt>
      <trkpt lat="47.45825" lon="6.73644">
        <ele>453.9</ele>
        <time>2014-10-05T08:06:54.000Z</time>
      </trkpt>
      <trkpt lat="47.45822" lon="6.73645">
        <ele>454.1</ele>
        <time>2014-10-05T08:06:55.000Z</time>
      </trkpt>
      <trkpt lat="47.45819" lon="6.73646">
        <ele>454.4</ele>
        <time>2014-10-05T08:06:56.000Z</time>
      </trkpt>
      <trkpt lat="47.45816" lon="6.73646">
        <ele>454.8</ele>
        <time>2014-10-05T08:06:57.000Z</time>
      </trkpt>
      <trkpt lat="47.45813" lon="6.73646">
        <ele>454.8</ele>
        <time>2014-10-05T08:06:58.000Z</time>
      </trkpt>
      <trkpt lat="47.4581" lon="6.73646">
        <ele>454.7</ele>
        <time>2014-10-05T08:06:59.000Z</time>
      </trkpt>
      <trkpt lat="47.45808" lon="6.73646">
        <ele>454.9</ele>
        <time>2014-10-05T08:07:00.000Z</time>
      </trkpt>
      <trkpt lat="47.45805" lon="6.73646">
        <ele>454.6</ele>
        <time>2014-10-05T08:07:01.000Z</time>
      </trkpt>
      <trkpt lat="47.45802" lon="6.73646">
        <ele>454.6</ele>
        <time>2014-10-05T08:07:02.000Z</time>
      </trkpt>
      <trkpt lat="47.45799" lon="6.73646">
        <ele>455.1</ele>
        <time>2014-10-05T08:07:03.000Z</time>
      </trkpt>
      <trkpt lat="47.45796" lon="6.73645">
        <ele>456.1</ele>
        <time>2014-10-05T08:07:04.000Z</time>
      </trkpt>
      <trkpt lat="47.45793" lon="6.73645">
        <ele>456</ele>
        <time>2014-10-05T08:07:05.000Z</time>
      </trkpt>
      <trkpt lat="47.45791" lon="6.73644">
        <ele>456.6</ele>
        <time>2014-10-05T08:07:06.000Z</time>
      </trkpt>
      <trkpt lat="47.45788" lon="6.73644">
        <ele>456.4</ele>
        <time>2014-10-05T08:07:07.000Z</time>
      </trkpt>
      <trkpt lat="47.45785" lon="6.73644">
        <ele>456.5</ele>
        <time>2014-10-05T08:07:07.999Z</time>
      </trkpt>
      <trkpt lat="47.45782" lon="6.73645">
        <ele>456.8</ele>
        <time>2014-10-05T08:07:09.000Z</time>
      </trkpt>
      <trkpt lat="47.45779" lon="6.73645">
        <ele>457.9</ele>
        <time>2014-10-05T08:07:10.000Z</time>
      </trkpt>
      <trkpt lat="47.45777" lon="6.73646">
        <ele>458</ele>
        <time>2014-10-05T08:07:11.000Z</time>
      </trkpt>
      <trkpt lat="47.45774" lon="6.73647">
        <ele>458.2</ele>
        <time>2014-10-05T08:07:12.000Z</time>
      </trkpt>
      <trkpt lat="47.45772" lon="6.73647">
        <ele>459.2</ele>
        <time>2014-10-05T08:07:13.000Z</time>
      </trkpt>
      <trkpt lat="47.45769" lon="6.73646">
        <ele>459.4</ele>
        <time>2014-10-05T08:07:14.000Z</time>
      </trkpt>
      <trkpt lat="47.45767" lon="6.73645">
        <ele>459.8</ele>
        <time>2014-10-05T08:07:15.000Z</time>
      </trkpt>
      <trkpt lat="47.45759" lon="6.73644">
        <ele>459</ele>
        <time>2014-10-05T08:07:18.000Z</time>
      </trkpt>
      <trkpt lat="47.45756" lon="6.73644">
        <ele>458</ele>
        <time>2014-10-05T08:07:19.000Z</time>
      </trkpt>
      <trkpt lat="47.45754" lon="6.73644">
        <ele>458.7</ele>
        <time>2014-10-05T08:07:20.000Z</time>
      </trkpt>
      <trkpt lat="47.45751" lon="6.73645">
        <ele>459.2</ele>
        <time>2014-10-05T08:07:21.000Z</time>
      </trkpt>
      <trkpt lat="47.45749" lon="6.73645">
        <ele>459.6</ele>
        <time>2014-10-05T08:07:22.000Z</time>
      </trkpt>
      <trkpt lat="47.45746" lon="6.73645">
        <ele>458.9</ele>
        <time>2014-10-05T08:07:23.000Z</time>
      </trkpt>
      <trkpt lat="47.45743" lon="6.73646">
        <ele>458.2</ele>
        <time>2014-10-05T08:07:24.000Z</time>
      </trkpt>
      <trkpt lat="47.45741" lon="6.73646">
        <ele>459.1</ele>
        <time>2014-10-05T08:07:25.000Z</time>
      </trkpt>
      <trkpt lat="47.45738" lon="6.73647">
        <ele>459.4</ele>
        <time>2014-10-05T08:07:26.000Z</time>
      </trkpt>
      <trkpt lat="47.45735" lon="6.73647">
        <ele>459.6</ele>
        <time>2014-10-05T08:07:27.000Z</time>
      </trkpt>
      <trkpt lat="47.45732" lon="6.73647">
        <ele>459</ele>
        <time>2014-10-05T08:07:28.000Z</time>
      </trkpt>
      <trkpt lat="47.45729" lon="6.73648">
        <ele>458.7</ele>
        <time>2014-10-05T08:07:29.000Z</time>
      </trkpt>
      <trkpt lat="47.45727" lon="6.73648">
        <ele>459.2</ele>
        <time>2014-10-05T08:07:30.000Z</time>
      </trkpt>
      <trkpt lat="47.45724" lon="6.73648">
        <ele>459.3</ele>
        <time>2014-10-05T08:07:31.000Z</time>
      </trkpt>
      <trkpt lat="47.45721" lon="6.73648">
        <ele>459.8</ele>
        <time>2014-10-05T08:07:32.000Z</time>
      </trkpt>
      <trkpt lat="47.45718" lon="6.73647">
        <ele>459.8</ele>
        <time>2014-10-05T08:07:33.000Z</time>
      </trkpt>
      <trkpt lat="47.45715" lon="6.73647">
        <ele>460.1</ele>
        <time>2014-10-05T08:07:34.000Z</time>
      </trkpt>
      <trkpt lat="47.45712" lon="6.73647">
        <ele>460.3</ele>
        <time>2014-10-05T08:07:35.000Z</time>
      </trkpt>
      <trkpt lat="47.45709" lon="6.73648">
        <ele>460.5</ele>
        <time>2014-10-05T08:07:36.000Z</time>
      </trkpt>
      <trkpt lat="47.45706" lon="6.73648">
        <ele>460.3</ele>
        <time>2014-10-05T08:07:37.000Z</time>
      </trkpt>
      <trkpt lat="47.45703" lon="6.73649">
        <ele>460.1</ele>
        <time>2014-10-05T08:07:38.000Z</time>
      </trkpt>
      <trkpt lat="47.457" lon="6.73649">
        <ele>460.3</ele>
        <time>2014-10-05T08:07:39.000Z</time>
      </trkpt>
      <trkpt lat="47.45697" lon="6.7365">
        <ele>461</ele>
        <time>2014-10-05T08:07:40.000Z</time>
      </trkpt>
      <trkpt lat="47.45694" lon="6.7365">
        <ele>460</ele>
        <time>2014-10-05T08:07:41.000Z</time>
      </trkpt>
      <trkpt lat="47.45691" lon="6.73651">
        <ele>460.4</ele>
        <time>2014-10-05T08:07:42.000Z</time>
      </trkpt>
      <trkpt lat="47.45688" lon="6.73652">
        <ele>460.1</ele>
        <time>2014-10-05T08:07:43.000Z</time>
      </trkpt>
      <trkpt lat="47.45685" lon="6.73652">
        <ele>460.1</ele>
        <time>2014-10-05T08:07:44.000Z</time>
      </trkpt>
      <trkpt lat="47.45682" lon="6.73653">
        <ele>460.9</ele>
        <time>2014-10-05T08:07:45.000Z</time>
      </trkpt>
      <trkpt lat="47.45679" lon="6.73653">
        <ele>461</ele>
        <time>2014-10-05T08:07:46.000Z</time>
      </trkpt>
      <trkpt lat="47.45676" lon="6.73653">
        <ele>461.6</ele>
        <time>2014-10-05T08:07:47.000Z</time>
      </trkpt>
      <trkpt lat="47.45673" lon="6.73654">
        <ele>461.5</ele>
        <time>2014-10-05T08:07:48.000Z</time>
      </trkpt>
      <trkpt lat="47.4567" lon="6.73654">
        <ele>461.7</ele>
        <time>2014-10-05T08:07:49.000Z</time>
      </trkpt>
      <trkpt lat="47.45667" lon="6.73654">
        <ele>462.3</ele>
        <time>2014-10-05T08:07:50.000Z</time>
      </trkpt>
      <trkpt lat="47.45664" lon="6.73655">
        <ele>462.5</ele>
        <time>2014-10-05T08:07:51.000Z</time>
      </trkpt>
      <trkpt lat="47.45662" lon="6.73655">
        <ele>462.6</ele>
        <time>2014-10-05T08:07:52.000Z</time>
      </trkpt>
      <trkpt lat="47.45659" lon="6.73656">
        <ele>462.8</ele>
        <time>2014-10-05T08:07:53.000Z</time>
      </trkpt>
      <trkpt lat="47.45657" lon="6.73657">
        <ele>463.1</ele>
        <time>2014-10-05T08:07:54.000Z</time>
      </trkpt>
      <trkpt lat="47.45653" lon="6.73658">
        <ele>462.8</ele>
        <time>2014-10-05T08:07:56.000Z</time>
      </trkpt>
      <trkpt lat="47.4565" lon="6.73659">
        <ele>462.6</ele>
        <time>2014-10-05T08:07:57.000Z</time>
      </trkpt>
      <trkpt lat="47.45648" lon="6.7366">
        <ele>462.5</ele>
        <time>2014-10-05T08:07:58.000Z</time>
      </trkpt>
      <trkpt lat="47.45646" lon="6.73661">
        <ele>462.7</ele>
        <time>2014-10-05T08:07:59.000Z</time>
      </trkpt>
      <trkpt lat="47.45643" lon="6.73662">
        <ele>463.2</ele>
        <time>2014-10-05T08:08:00.000Z</time>
      </trkpt>
      <trkpt lat="47.45641" lon="6.73664">
        <ele>460.9</ele>
        <time>2014-10-05T08:08:01.000Z</time>
      </trkpt>
      <trkpt lat="47.45638" lon="6.73665">
        <ele>460.9</ele>
        <time>2014-10-05T08:08:02.000Z</time>
      </trkpt>
      <trkpt lat="47.45635" lon="6.73666">
        <ele>460.8</ele>
        <time>2014-10-05T08:08:03.000Z</time>
      </trkpt>
      <trkpt lat="47.45632" lon="6.73666">
        <ele>460.6</ele>
        <time>2014-10-05T08:08:04.000Z</time>
      </trkpt>
      <trkpt lat="47.4563" lon="6.73666">
        <ele>460.8</ele>
        <time>2014-10-05T08:08:05.000Z</time>
      </trkpt>
      <trkpt lat="47.45627" lon="6.73666">
        <ele>461</ele>
        <time>2014-10-05T08:08:06.000Z</time>
      </trkpt>
      <trkpt lat="47.45625" lon="6.73666">
        <ele>461.4</ele>
        <time>2014-10-05T08:08:06.998Z</time>
      </trkpt>
      <trkpt lat="47.45621" lon="6.73665">
        <ele>460.3</ele>
        <time>2014-10-05T08:08:09.000Z</time>
      </trkpt>
      <trkpt lat="47.45619" lon="6.73664">
        <ele>460.9</ele>
        <time>2014-10-05T08:08:10.000Z</time>
      </trkpt>
      <trkpt lat="47.45617" lon="6.73663">
        <ele>461.2</ele>
        <time>2014-10-05T08:08:11.000Z</time>
      </trkpt>
      <trkpt lat="47.45615" lon="6.73662">
        <ele>461.5</ele>
        <time>2014-10-05T08:08:12.000Z</time>
      </trkpt>
      <trkpt lat="47.45612" lon="6.73661">
        <ele>461.3</ele>
        <time>2014-10-05T08:08:13.000Z</time>
      </trkpt>
      <trkpt lat="47.45608" lon="6.7366">
        <ele>460.3</ele>
        <time>2014-10-05T08:08:14.000Z</time>
      </trkpt>
      <trkpt lat="47.45605" lon="6.7366">
        <ele>460.5</ele>
        <time>2014-10-05T08:08:15.000Z</time>
      </trkpt>
      <trkpt lat="47.45575" lon="6.73658">
        <ele>455.5</ele>
        <time>2014-10-05T08:08:24.000Z</time>
      </trkpt>
      <trkpt lat="47.45571" lon="6.7366">
        <ele>455.3</ele>
        <time>2014-10-05T08:08:26.000Z</time>
      </trkpt>
      <trkpt lat="47.45571" lon="6.73661">
        <ele>454.6</ele>
        <time>2014-10-05T08:08:27.000Z</time>
      </trkpt>
      <trkpt lat="47.45568" lon="6.73662">
        <ele>456.9</ele>
        <time>2014-10-05T08:08:34.000Z</time>
      </trkpt>
      <trkpt lat="47.45566" lon="6.73661">
        <ele>456.5</ele>
        <time>2014-10-05T08:08:35.000Z</time>
      </trkpt>
      <trkpt lat="47.45562" lon="6.7366">
        <ele>457.1</ele>
        <time>2014-10-05T08:08:36.000Z</time>
      </trkpt>
      <trkpt lat="47.45559" lon="6.73659">
        <ele>457.3</ele>
        <time>2014-10-05T08:08:37.000Z</time>
      </trkpt>
      <trkpt lat="47.45558" lon="6.73658">
        <ele>457.3</ele>
        <time>2014-10-05T08:08:37.999Z</time>
      </trkpt>
      <trkpt lat="47.45553" lon="6.73658">
        <ele>454.7</ele>
        <time>2014-10-05T08:08:39.000Z</time>
      </trkpt>
      <trkpt lat="47.45549" lon="6.73658">
        <ele>454</ele>
        <time>2014-10-05T08:08:40.000Z</time>
      </trkpt>
      <trkpt lat="47.45545" lon="6.73658">
        <ele>454.4</ele>
        <time>2014-10-05T08:08:41.000Z</time>
      </trkpt>
      <trkpt lat="47.45541" lon="6.73657">
        <ele>455.4</ele>
        <time>2014-10-05T08:08:42.000Z</time>
      </trkpt>
      <trkpt lat="47.45538" lon="6.73656">
        <ele>456.1</ele>
        <time>2014-10-05T08:08:43.000Z</time>
      </trkpt>
      <trkpt lat="47.45535" lon="6.73655">
        <ele>457.5</ele>
        <time>2014-10-05T08:08:44.000Z</time>
      </trkpt>
      <trkpt lat="47.45531" lon="6.73653">
        <ele>458.5</ele>
        <time>2014-10-05T08:08:45.000Z</time>
      </trkpt>
      <trkpt lat="47.45529" lon="6.73651">
        <ele>459.1</ele>
        <time>2014-10-05T08:08:46.000Z</time>
      </trkpt>
      <trkpt lat="47.45525" lon="6.73648">
        <ele>457</ele>
        <time>2014-10-05T08:08:47.000Z</time>
      </trkpt>
      <trkpt lat="47.45522" lon="6.73645">
        <ele>456.5</ele>
        <time>2014-10-05T08:08:48.000Z</time>
      </trkpt>
      <trkpt lat="47.45519" lon="6.73642">
        <ele>456.7</ele>
        <time>2014-10-05T08:08:49.000Z</time>
      </trkpt>
      <trkpt lat="47.45516" lon="6.73639">
        <ele>457.4</ele>
        <time>2014-10-05T08:08:50.000Z</time>
      </trkpt>
      <trkpt lat="47.45513" lon="6.73636">
        <ele>457.8</ele>
        <time>2014-10-05T08:08:51.000Z</time>
      </trkpt>
      <trkpt lat="47.45511" lon="6.73633">
        <ele>458.4</ele>
        <time>2014-10-05T08:08:52.000Z</time>
      </trkpt>
      <trkpt lat="47.45509" lon="6.7363">
        <ele>459.5</ele>
        <time>2014-10-05T08:08:53.000Z</time>
      </trkpt>
      <trkpt lat="47.45508" lon="6.73627">
        <ele>460.8</ele>
        <time>2014-10-05T08:08:54.000Z</time>
      </trkpt>
      <trkpt lat="47.45506" lon="6.73623">
        <ele>462.2</ele>
        <time>2014-10-05T08:08:55.000Z</time>
      </trkpt>
      <trkpt lat="47.45505" lon="6.7362">
        <ele>463.8</ele>
        <time>2014-10-05T08:08:56.000Z</time>
      </trkpt>
      <trkpt lat="47.45503" lon="6.73616">
        <ele>464.8</ele>
        <time>2014-10-05T08:08:57.000Z</time>
      </trkpt>
      <trkpt lat="47.45501" lon="6.73614">
        <ele>465.7</ele>
        <time>2014-10-05T08:08:58.000Z</time>
      </trkpt>
      <trkpt lat="47.45498" lon="6.73611">
        <ele>466.8</ele>
        <time>2014-10-05T08:08:59.000Z</time>
      </trkpt>
      <trkpt lat="47.45495" lon="6.7361">
        <ele>467.5</ele>
        <time>2014-10-05T08:09:00.000Z</time>
      </trkpt>
      <trkpt lat="47.45493" lon="6.73609">
        <ele>468.2</ele>
        <time>2014-10-05T08:09:01.000Z</time>
      </trkpt>
      <trkpt lat="47.4549" lon="6.73609">
        <ele>466.1</ele>
        <time>2014-10-05T08:09:02.000Z</time>
      </trkpt>
      <trkpt lat="47.45487" lon="6.73608">
        <ele>465.7</ele>
        <time>2014-10-05T08:09:03.000Z</time>
      </trkpt>
      <trkpt lat="47.45485" lon="6.73607">
        <ele>466.6</ele>
        <time>2014-10-05T08:09:04.000Z</time>
      </trkpt>
      <trkpt lat="47.45483" lon="6.73606">
        <ele>466.5</ele>
        <time>2014-10-05T08:09:05.000Z</time>
      </trkpt>
      <trkpt lat="47.45479" lon="6.73602">
        <ele>465.7</ele>
        <time>2014-10-05T08:09:07.000Z</time>
      </trkpt>
      <trkpt lat="47.45477" lon="6.73599">
        <ele>465.9</ele>
        <time>2014-10-05T08:09:08.000Z</time>
      </trkpt>
      <trkpt lat="47.45475" lon="6.73597">
        <ele>465.7</ele>
        <time>2014-10-05T08:09:09.000Z</time>
      </trkpt>
      <trkpt lat="47.45474" lon="6.73594">
        <ele>466.4</ele>
        <time>2014-10-05T08:09:10.000Z</time>
      </trkpt>
      <trkpt lat="47.45471" lon="6.73589">
        <ele>466</ele>
        <time>2014-10-05T08:09:14.000Z</time>
      </trkpt>
      <trkpt lat="47.45471" lon="6.73589">
        <ele>464.9</ele>
        <time>2014-10-05T08:09:15.000Z</time>
      </trkpt>
      <trkpt lat="47.45471" lon="6.73589">
        <ele>464.6</ele>
        <time>2014-10-05T08:09:16.000Z</time>
      </trkpt>
      <trkpt lat="47.45472" lon="6.73602">
        <ele>455</ele>
        <time>2014-10-05T08:09:24.000Z</time>
      </trkpt>
      <trkpt lat="47.45475" lon="6.73606">
        <ele>461.1</ele>
        <time>2014-10-05T08:09:30.000Z</time>
      </trkpt>
      <trkpt lat="47.45476" lon="6.73607">
        <ele>461.7</ele>
        <time>2014-10-05T08:09:31.000Z</time>
      </trkpt>
      <trkpt lat="47.45477" lon="6.73612">
        <ele>463</ele>
        <time>2014-10-05T08:09:33.000Z</time>
      </trkpt>
      <trkpt lat="47.45477" lon="6.73614">
        <ele>463.7</ele>
        <time>2014-10-05T08:09:34.000Z</time>
      </trkpt>
      <trkpt lat="47.45478" lon="6.73617">
        <ele>464.1</ele>
        <time>2014-10-05T08:09:35.000Z</time>
      </trkpt>
      <trkpt lat="47.45479" lon="6.73621">
        <ele>464.4</ele>
        <time>2014-10-05T08:09:36.000Z</time>
      </trkpt>
      <trkpt lat="47.45481" lon="6.73625">
        <ele>464.6</ele>
        <time>2014-10-05T08:09:37.000Z</time>
      </trkpt>
      <trkpt lat="47.45483" lon="6.73629">
        <ele>465.2</ele>
        <time>2014-10-05T08:09:38.000Z</time>
      </trkpt>
      <trkpt lat="47.45485" lon="6.73633">
        <ele>465.8</ele>
        <time>2014-10-05T08:09:39.000Z</time>
      </trkpt>
      <trkpt lat="47.45487" lon="6.73637">
        <ele>467.2</ele>
        <time>2014-10-05T08:09:40.000Z</time>
      </trkpt>
      <trkpt lat="47.45489" lon="6.7364">
        <ele>467.4</ele>
        <time>2014-10-05T08:09:41.000Z</time>
      </trkpt>
      <trkpt lat="47.45492" lon="6.73643">
        <ele>468.3</ele>
        <time>2014-10-05T08:09:42.000Z</time>
      </trkpt>
      <trkpt lat="47.45494" lon="6.73646">
        <ele>471</ele>
        <time>2014-10-05T08:09:43.000Z</time>
      </trkpt>
      <trkpt lat="47.45496" lon="6.73649">
        <ele>471.7</ele>
        <time>2014-10-05T08:09:44.000Z</time>
      </trkpt>
      <trkpt lat="47.45499" lon="6.73651">
        <ele>472.7</ele>
        <time>2014-10-05T08:09:45.000Z</time>
      </trkpt>
      <trkpt lat="47.45501" lon="6.73653">
        <ele>473.4</ele>
        <time>2014-10-05T08:09:46.000Z</time>
      </trkpt>
      <trkpt lat="47.45503" lon="6.73654">
        <ele>473.5</ele>
        <time>2014-10-05T08:09:47.000Z</time>
      </trkpt>
      <trkpt lat="47.45505" lon="6.73657">
        <ele>476.5</ele>
        <time>2014-10-05T08:09:48.000Z</time>
      </trkpt>
      <trkpt lat="47.45507" lon="6.73659">
        <ele>476.2</ele>
        <time>2014-10-05T08:09:49.000Z</time>
      </trkpt>
      <trkpt lat="47.4551" lon="6.73662">
        <ele>476.7</ele>
        <time>2014-10-05T08:09:50.000Z</time>
      </trkpt>
      <trkpt lat="47.45512" lon="6.73665">
        <ele>476.4</ele>
        <time>2014-10-05T08:09:51.000Z</time>
      </trkpt>
      <trkpt lat="47.45515" lon="6.73667">
        <ele>477.4</ele>
        <time>2014-10-05T08:09:52.000Z</time>
      </trkpt>
      <trkpt lat="47.45518" lon="6.73668">
        <ele>477.8</ele>
        <time>2014-10-05T08:09:53.000Z</time>
      </trkpt>
      <trkpt lat="47.45521" lon="6.7367">
        <ele>478.5</ele>
        <time>2014-10-05T08:09:54.000Z</time>
      </trkpt>
      <trkpt lat="47.45523" lon="6.73671">
        <ele>482</ele>
        <time>2014-10-05T08:09:55.000Z</time>
      </trkpt>
      <trkpt lat="47.45525" lon="6.73672">
        <ele>482.9</ele>
        <time>2014-10-05T08:09:56.000Z</time>
      </trkpt>
      <trkpt lat="47.45529" lon="6.73674">
        <ele>484.2</ele>
        <time>2014-10-05T08:09:58.000Z</time>
      </trkpt>
      <trkpt lat="47.45531" lon="6.73675">
        <ele>485</ele>
        <time>2014-10-05T08:09:59.000Z</time>
      </trkpt>
      <trkpt lat="47.45533" lon="6.7368">
        <ele>481.8</ele>
        <time>2014-10-05T08:10:02.000Z</time>
      </trkpt>
      <trkpt lat="47.45533" lon="6.73682">
        <ele>481.7</ele>
        <time>2014-10-05T08:10:03.000Z</time>
      </trkpt>
      <trkpt lat="47.4553" lon="6.73685">
        <ele>476.5</ele>
        <time>2014-10-05T08:10:07.000Z</time>
      </trkpt>
      <trkpt lat="47.45528" lon="6.73685">
        <ele>477.9</ele>
        <time>2014-10-05T08:10:08.000Z</time>
      </trkpt>
      <trkpt lat="47.45526" lon="6.73684">
        <ele>478.2</ele>
        <time>2014-10-05T08:10:09.000Z</time>
      </trkpt>
      <trkpt lat="47.45523" lon="6.73684">
        <ele>478.4</ele>
        <time>2014-10-05T08:10:10.000Z</time>
      </trkpt>
      <trkpt lat="47.4552" lon="6.73683">
        <ele>477.8</ele>
        <time>2014-10-05T08:10:11.000Z</time>
      </trkpt>
      <trkpt lat="47.45518" lon="6.73683">
        <ele>477</ele>
        <time>2014-10-05T08:10:12.000Z</time>
      </trkpt>
      <trkpt lat="47.45514" lon="6.73685">
        <ele>476.8</ele>
        <time>2014-10-05T08:10:14.000Z</time>
      </trkpt>
      <trkpt lat="47.45511" lon="6.73686">
        <ele>476.7</ele>
        <time>2014-10-05T08:10:15.000Z</time>
      </trkpt>
      <trkpt lat="47.45508" lon="6.73688">
        <ele>477.8</ele>
        <time>2014-10-05T08:10:16.000Z</time>
      </trkpt>
      <trkpt lat="47.45477" lon="6.73697">
        <ele>467.4</ele>
        <time>2014-10-05T08:10:24.000Z</time>
      </trkpt>
      <trkpt lat="47.45469" lon="6.73697">
        <ele>467.2</ele>
        <time>2014-10-05T08:10:25.000Z</time>
      </trkpt>
      <trkpt lat="47.45464" lon="6.73699">
        <ele>466.8</ele>
        <time>2014-10-05T08:10:26.000Z</time>
      </trkpt>
      <trkpt lat="47.45457" lon="6.73705">
        <ele>465.9</ele>
        <time>2014-10-05T08:10:27.000Z</time>
      </trkpt>
      <trkpt lat="47.45447" lon="6.73707">
        <ele>464</ele>
        <time>2014-10-05T08:10:28.000Z</time>
      </trkpt>
      <trkpt lat="47.45442" lon="6.73707">
        <ele>463.8</ele>
        <time>2014-10-05T08:10:29.000Z</time>
      </trkpt>
      <trkpt lat="47.45437" lon="6.73708">
        <ele>463.7</ele>
        <time>2014-10-05T08:10:30.000Z</time>
      </trkpt>
      <trkpt lat="47.45431" lon="6.7371">
        <ele>463.4</ele>
        <time>2014-10-05T08:10:31.000Z</time>
      </trkpt>
      <trkpt lat="47.45425" lon="6.73713">
        <ele>463.1</ele>
        <time>2014-10-05T08:10:32.000Z</time>
      </trkpt>
      <trkpt lat="47.45418" lon="6.73717">
        <ele>463.1</ele>
        <time>2014-10-05T08:10:33.000Z</time>
      </trkpt>
      <trkpt lat="47.45411" lon="6.73724">
        <ele>462.3</ele>
        <time>2014-10-05T08:10:34.000Z</time>
      </trkpt>
      <trkpt lat="47.45405" lon="6.73732">
        <ele>462.8</ele>
        <time>2014-10-05T08:10:35.000Z</time>
      </trkpt>
      <trkpt lat="47.45397" lon="6.73742">
        <ele>462</ele>
        <time>2014-10-05T08:10:36.000Z</time>
      </trkpt>
      <trkpt lat="47.45393" lon="6.73752">
        <ele>462</ele>
        <time>2014-10-05T08:10:37.000Z</time>
      </trkpt>
      <trkpt lat="47.45386" lon="6.73763">
        <ele>461.2</ele>
        <time>2014-10-05T08:10:38.000Z</time>
      </trkpt>
      <trkpt lat="47.45378" lon="6.73769">
        <ele>460.6</ele>
        <time>2014-10-05T08:10:39.000Z</time>
      </trkpt>
      <trkpt lat="47.45372" lon="6.73776">
        <ele>460.1</ele>
        <time>2014-10-05T08:10:40.000Z</time>
      </trkpt>
      <trkpt lat="47.45367" lon="6.73789">
        <ele>459.4</ele>
        <time>2014-10-05T08:10:41.000Z</time>
      </trkpt>
      <trkpt lat="47.4536" lon="6.7381">
        <ele>457.9</ele>
        <time>2014-10-05T08:10:42.000Z</time>
      </trkpt>
      <trkpt lat="47.45355" lon="6.73822">
        <ele>457.6</ele>
        <time>2014-10-05T08:10:43.000Z</time>
      </trkpt>
      <trkpt lat="47.45354" lon="6.73835">
        <ele>457.6</ele>
        <time>2014-10-05T08:10:44.000Z</time>
      </trkpt>
      <trkpt lat="47.4535" lon="6.73847">
        <ele>457.2</ele>
        <time>2014-10-05T08:10:45.000Z</time>
      </trkpt>
      <trkpt lat="47.45347" lon="6.73856">
        <ele>457</ele>
        <time>2014-10-05T08:10:46.000Z</time>
      </trkpt>
      <trkpt lat="47.45345" lon="6.73865">
        <ele>457.1</ele>
        <time>2014-10-05T08:10:47.000Z</time>
      </trkpt>
      <trkpt lat="47.45339" lon="6.73874">
        <ele>456.9</ele>
        <time>2014-10-05T08:10:48.000Z</time>
      </trkpt>
      <trkpt lat="47.45336" lon="6.73886">
        <ele>456.7</ele>
        <time>2014-10-05T08:10:49.000Z</time>
      </trkpt>
      <trkpt lat="47.45332" lon="6.73898">
        <ele>456.6</ele>
        <time>2014-10-05T08:10:50.000Z</time>
      </trkpt>
      <trkpt lat="47.45327" lon="6.73911">
        <ele>455.8</ele>
        <time>2014-10-05T08:10:51.000Z</time>
      </trkpt>
      <trkpt lat="47.45323" lon="6.73925">
        <ele>455.8</ele>
        <time>2014-10-05T08:10:52.000Z</time>
      </trkpt>
      <trkpt lat="47.45318" lon="6.73937">
        <ele>456.3</ele>
        <time>2014-10-05T08:10:53.000Z</time>
      </trkpt>
      <trkpt lat="47.45315" lon="6.73952">
        <ele>456.5</ele>
        <time>2014-10-05T08:10:54.000Z</time>
      </trkpt>
      <trkpt lat="47.45309" lon="6.73969">
        <ele>455.6</ele>
        <time>2014-10-05T08:10:55.000Z</time>
      </trkpt>
      <trkpt lat="47.45301" lon="6.73978">
        <ele>455.4</ele>
        <time>2014-10-05T08:10:56.000Z</time>
      </trkpt>
      <trkpt lat="47.45295" lon="6.73987">
        <ele>455.2</ele>
        <time>2014-10-05T08:10:57.000Z</time>
      </trkpt>
      <trkpt lat="47.45288" lon="6.73996">
        <ele>455.1</ele>
        <time>2014-10-05T08:10:58.000Z</time>
      </trkpt>
      <trkpt lat="47.45282" lon="6.74005">
        <ele>454.9</ele>
        <time>2014-10-05T08:10:59.000Z</time>
      </trkpt>
      <trkpt lat="47.45275" lon="6.74013">
        <ele>454.7</ele>
        <time>2014-10-05T08:11:00.000Z</time>
      </trkpt>
      <trkpt lat="47.45268" lon="6.74021">
        <ele>454.3</ele>
        <time>2014-10-05T08:11:01.000Z</time>
      </trkpt>
      <trkpt lat="47.45262" lon="6.74028">
        <ele>453.6</ele>
        <time>2014-10-05T08:11:02.000Z</time>
      </trkpt>
      <trkpt lat="47.45256" lon="6.74036">
        <ele>453.6</ele>
        <time>2014-10-05T08:11:03.000Z</time>
      </trkpt>
      <trkpt lat="47.4525" lon="6.74045">
        <ele>453.1</ele>
        <time>2014-10-05T08:11:04.000Z</time>
      </trkpt>
      <trkpt lat="47.45246" lon="6.74051">
        <ele>456.2</ele>
        <time>2014-10-05T08:11:05.000Z</time>
      </trkpt>
      <trkpt lat="47.45242" lon="6.74058">
        <ele>456.4</ele>
        <time>2014-10-05T08:11:06.000Z</time>
      </trkpt>
      <trkpt lat="47.45238" lon="6.74064">
        <ele>456.3</ele>
        <time>2014-10-05T08:11:07.000Z</time>
      </trkpt>
      <trkpt lat="47.45234" lon="6.74071">
        <ele>456.5</ele>
        <time>2014-10-05T08:11:08.000Z</time>
      </trkpt>
      <trkpt lat="47.4523" lon="6.74077">
        <ele>456.5</ele>
        <time>2014-10-05T08:11:09.000Z</time>
      </trkpt>
      <trkpt lat="47.45226" lon="6.74082">
        <ele>456.4</ele>
        <time>2014-10-05T08:11:10.000Z</time>
      </trkpt>
      <trkpt lat="47.45219" lon="6.7409">
        <ele>456.2</ele>
        <time>2014-10-05T08:11:11.000Z</time>
      </trkpt>
      <trkpt lat="47.45213" lon="6.74096">
        <ele>456</ele>
        <time>2014-10-05T08:11:12.000Z</time>
      </trkpt>
      <trkpt lat="47.45207" lon="6.74104">
        <ele>455.6</ele>
        <time>2014-10-05T08:11:13.000Z</time>
      </trkpt>
      <trkpt lat="47.45201" lon="6.74109">
        <ele>455.2</ele>
        <time>2014-10-05T08:11:14.000Z</time>
      </trkpt>
      <trkpt lat="47.45195" lon="6.74113">
        <ele>455.1</ele>
        <time>2014-10-05T08:11:15.000Z</time>
      </trkpt>
      <trkpt lat="47.45162" lon="6.74163">
        <ele>437.4</ele>
        <time>2014-10-05T08:11:24.000Z</time>
      </trkpt>
      <trkpt lat="47.45158" lon="6.74168">
        <ele>436.9</ele>
        <time>2014-10-05T08:11:25.000Z</time>
      </trkpt>
      <trkpt lat="47.45154" lon="6.74178">
        <ele>437.4</ele>
        <time>2014-10-05T08:11:26.000Z</time>
      </trkpt>
      <trkpt lat="47.4515" lon="6.74183">
        <ele>437.2</ele>
        <time>2014-10-05T08:11:27.000Z</time>
      </trkpt>
      <trkpt lat="47.45147" lon="6.74186">
        <ele>437.2</ele>
        <time>2014-10-05T08:11:29.000Z</time>
      </trkpt>
      <trkpt lat="47.45146" lon="6.74187">
        <ele>437.2</ele>
        <time>2014-10-05T08:11:30.000Z</time>
      </trkpt>
      <trkpt lat="47.45143" lon="6.74189">
        <ele>437.1</ele>
        <time>2014-10-05T08:11:32.000Z</time>
      </trkpt>
      <trkpt lat="47.45142" lon="6.74193">
        <ele>437.4</ele>
        <time>2014-10-05T08:11:33.000Z</time>
      </trkpt>
      <trkpt lat="47.45139" lon="6.74197">
        <ele>438.3</ele>
        <time>2014-10-05T08:11:36.000Z</time>
      </trkpt>
      <trkpt lat="47.45138" lon="6.74199">
        <ele>438.5</ele>
        <time>2014-10-05T08:11:37.000Z</time>
      </trkpt>
      <trkpt lat="47.45134" lon="6.742">
        <ele>441.6</ele>
        <time>2014-10-05T08:11:40.000Z</time>
      </trkpt>
      <trkpt lat="47.45133" lon="6.74199">
        <ele>441.8</ele>
        <time>2014-10-05T08:11:41.000Z</time>
      </trkpt>
      <trkpt lat="47.45129" lon="6.74195">
        <ele>439.7</ele>
        <time>2014-10-05T08:11:44.000Z</time>
      </trkpt>
      <trkpt lat="47.45128" lon="6.74195">
        <ele>438</ele>
        <time>2014-10-05T08:11:45.000Z</time>
      </trkpt>
      <trkpt lat="47.45127" lon="6.74197">
        <ele>437.6</ele>
        <time>2014-10-05T08:11:46.000Z</time>
      </trkpt>
      <trkpt lat="47.45126" lon="6.74201">
        <ele>437.6</ele>
        <time>2014-10-05T08:11:47.000Z</time>
      </trkpt>
      <trkpt lat="47.45124" lon="6.74205">
        <ele>436.8</ele>
        <time>2014-10-05T08:11:48.000Z</time>
      </trkpt>
      <trkpt lat="47.45116" lon="6.74218">
        <ele>434.5</ele>
        <time>2014-10-05T08:11:49.000Z</time>
      </trkpt>
      <trkpt lat="47.45112" lon="6.74222">
        <ele>433.2</ele>
        <time>2014-10-05T08:11:50.000Z</time>
      </trkpt>
      <trkpt lat="47.45107" lon="6.74229">
        <ele>433.7</ele>
        <time>2014-10-05T08:11:51.000Z</time>
      </trkpt>
      <trkpt lat="47.45102" lon="6.74233">
        <ele>433</ele>
        <time>2014-10-05T08:11:52.000Z</time>
      </trkpt>
      <trkpt lat="47.45098" lon="6.74238">
        <ele>432.8</ele>
        <time>2014-10-05T08:11:53.000Z</time>
      </trkpt>
      <trkpt lat="47.45093" lon="6.74243">
        <ele>432.7</ele>
        <time>2014-10-05T08:11:54.000Z</time>
      </trkpt>
      <trkpt lat="47.45088" lon="6.74246">
        <ele>430.4</ele>
        <time>2014-10-05T08:11:55.000Z</time>
      </trkpt>
      <trkpt lat="47.45085" lon="6.74253">
        <ele>429.6</ele>
        <time>2014-10-05T08:11:56.000Z</time>
      </trkpt>
      <trkpt lat="47.45083" lon="6.74261">
        <ele>427.8</ele>
        <time>2014-10-05T08:11:57.000Z</time>
      </trkpt>
      <trkpt lat="47.45081" lon="6.74265">
        <ele>427.5</ele>
        <time>2014-10-05T08:11:58.000Z</time>
      </trkpt>
      <trkpt lat="47.45078" lon="6.74271">
        <ele>427.3</ele>
        <time>2014-10-05T08:11:59.000Z</time>
      </trkpt>
      <trkpt lat="47.45074" lon="6.74277">
        <ele>427.3</ele>
        <time>2014-10-05T08:12:00.000Z</time>
      </trkpt>
      <trkpt lat="47.45072" lon="6.74283">
        <ele>427.1</ele>
        <time>2014-10-05T08:12:01.000Z</time>
      </trkpt>
      <trkpt lat="47.45069" lon="6.7429">
        <ele>426.6</ele>
        <time>2014-10-05T08:12:02.000Z</time>
      </trkpt>
      <trkpt lat="47.45065" lon="6.74301">
        <ele>422.7</ele>
        <time>2014-10-05T08:12:03.000Z</time>
      </trkpt>
      <trkpt lat="47.45063" lon="6.74308">
        <ele>422.5</ele>
        <time>2014-10-05T08:12:04.000Z</time>
      </trkpt>
      <trkpt lat="47.45062" lon="6.74312">
        <ele>422.2</ele>
        <time>2014-10-05T08:12:05.000Z</time>
      </trkpt>
      <trkpt lat="47.4506" lon="6.74316">
        <ele>421.8</ele>
        <time>2014-10-05T08:12:06.000Z</time>
      </trkpt>
      <trkpt lat="47.45057" lon="6.74318">
        <ele>418.5</ele>
        <time>2014-10-05T08:12:11.000Z</time>
      </trkpt>
      <trkpt lat="47.45055" lon="6.74319">
        <ele>418.5</ele>
        <time>2014-10-05T08:12:12.000Z</time>
      </trkpt>
      <trkpt lat="47.45054" lon="6.7432">
        <ele>418.4</ele>
        <time>2014-10-05T08:12:13.000Z</time>
      </trkpt>
      <trkpt lat="47.45051" lon="6.74322">
        <ele>417.7</ele>
        <time>2014-10-05T08:12:14.000Z</time>
      </trkpt>
      <trkpt lat="47.45048" lon="6.74325">
        <ele>417.2</ele>
        <time>2014-10-05T08:12:15.000Z</time>
      </trkpt>
      <trkpt lat="47.45037" lon="6.74335">
        <ele>416.3</ele>
        <time>2014-10-05T08:12:16.000Z</time>
      </trkpt>
      <trkpt lat="47.45009" lon="6.7437">
        <ele>414.7</ele>
        <time>2014-10-05T08:12:24.000Z</time>
      </trkpt>
      <trkpt lat="47.45003" lon="6.7437">
        <ele>413.6</ele>
        <time>2014-10-05T08:12:25.000Z</time>
      </trkpt>
      <trkpt lat="47.44999" lon="6.74373">
        <ele>413.3</ele>
        <time>2014-10-05T08:12:26.000Z</time>
      </trkpt>
      <trkpt lat="47.44995" lon="6.74376">
        <ele>412.6</ele>
        <time>2014-10-05T08:12:27.000Z</time>
      </trkpt>
      <trkpt lat="47.44993" lon="6.74379">
        <ele>412.1</ele>
        <time>2014-10-05T08:12:28.000Z</time>
      </trkpt>
      <trkpt lat="47.44991" lon="6.74381">
        <ele>412.1</ele>
        <time>2014-10-05T08:12:29.000Z</time>
      </trkpt>
      <trkpt lat="47.44988" lon="6.74384">
        <ele>411.4</ele>
        <time>2014-10-05T08:12:31.000Z</time>
      </trkpt>
      <trkpt lat="47.44988" lon="6.74385">
        <ele>411.8</ele>
        <time>2014-10-05T08:12:32.000Z</time>
      </trkpt>
      <trkpt lat="47.44985" lon="6.7439">
        <ele>410.7</ele>
        <time>2014-10-05T08:12:34.000Z</time>
      </trkpt>
      <trkpt lat="47.44983" lon="6.74392">
        <ele>410.6</ele>
        <time>2014-10-05T08:12:35.000Z</time>
      </trkpt>
      <trkpt lat="47.44981" lon="6.74396">
        <ele>410.6</ele>
        <time>2014-10-05T08:12:37.000Z</time>
      </trkpt>
      <trkpt lat="47.4498" lon="6.74398">
        <ele>410.4</ele>
        <time>2014-10-05T08:12:38.000Z</time>
      </trkpt>
      <trkpt lat="47.44978" lon="6.74402">
        <ele>410.2</ele>
        <time>2014-10-05T08:12:40.000Z</time>
      </trkpt>
      <trkpt lat="47.44977" lon="6.74405">
        <ele>409.6</ele>
        <time>2014-10-05T08:12:41.000Z</time>
      </trkpt>
      <trkpt lat="47.44977" lon="6.74409">
        <ele>404.5</ele>
        <time>2014-10-05T08:12:42.000Z</time>
      </trkpt>
      <trkpt lat="47.44977" lon="6.74413">
        <ele>400.9</ele>
        <time>2014-10-05T08:12:43.000Z</time>
      </trkpt>
      <trkpt lat="47.44977" lon="6.74417">
        <ele>397.8</ele>
        <time>2014-10-05T08:12:44.000Z</time>
      </trkpt>
      <trkpt lat="47.44977" lon="6.74421">
        <ele>397.7</ele>
        <time>2014-10-05T08:12:45.000Z</time>
      </trkpt>
      <trkpt lat="47.44978" lon="6.74425">
        <ele>397.2</ele>
        <time>2014-10-05T08:12:46.000Z</time>
      </trkpt>
      <trkpt lat="47.44978" lon="6.74428">
        <ele>396.8</ele>
        <time>2014-10-05T08:12:47.000Z</time>
      </trkpt>
      <trkpt lat="47.44979" lon="6.74432">
        <ele>396.6</ele>
        <time>2014-10-05T08:12:48.000Z</time>
      </trkpt>
      <trkpt lat="47.44978" lon="6.74435">
        <ele>398.5</ele>
        <time>2014-10-05T08:12:49.000Z</time>
      </trkpt>
      <trkpt lat="47.44978" lon="6.74441">
        <ele>399.2</ele>
        <time>2014-10-05T08:12:51.000Z</time>
      </trkpt>
      <trkpt lat="47.44978" lon="6.74443">
        <ele>399.7</ele>
        <time>2014-10-05T08:12:52.000Z</time>
      </trkpt>
      <trkpt lat="47.44979" lon="6.74448">
        <ele>400.7</ele>
        <time>2014-10-05T08:12:55.000Z</time>
      </trkpt>
      <trkpt lat="47.44978" lon="6.74451">
        <ele>400.6</ele>
        <time>2014-10-05T08:12:56.000Z</time>
      </trkpt>
      <trkpt lat="47.44977" lon="6.74456">
        <ele>402.9</ele>
        <time>2014-10-05T08:12:58.000Z</time>
      </trkpt>
      <trkpt lat="47.44977" lon="6.74459">
        <ele>403</ele>
        <time>2014-10-05T08:12:59.000Z</time>
      </trkpt>
      <trkpt lat="47.44978" lon="6.74466">
        <ele>401.8</ele>
        <time>2014-10-05T08:13:01.000Z</time>
      </trkpt>
      <trkpt lat="47.44979" lon="6.74468">
        <ele>401.4</ele>
        <time>2014-10-05T08:13:02.000Z</time>
      </trkpt>
      <trkpt lat="47.4498" lon="6.74474">
        <ele>405.6</ele>
        <time>2014-10-05T08:13:09.000Z</time>
      </trkpt>
      <trkpt lat="47.44981" lon="6.74475">
        <ele>406.3</ele>
        <time>2014-10-05T08:13:10.000Z</time>
      </trkpt>
      <trkpt lat="47.44982" lon="6.74479">
        <ele>407.6</ele>
        <time>2014-10-05T08:13:51.000Z</time>
      </trkpt>
      <trkpt lat="47.44983" lon="6.74481">
        <ele>406.6</ele>
        <time>2014-10-05T08:13:52.000Z</time>
      </trkpt>
      <trkpt lat="47.44985" lon="6.74485">
        <ele>405.4</ele>
        <time>2014-10-05T08:13:54.000Z</time>
      </trkpt>
      <trkpt lat="47.44986" lon="6.74487">
        <ele>403.2</ele>
        <time>2014-10-05T08:13:55.000Z</time>
      </trkpt>
      <trkpt lat="47.44989" lon="6.74489">
        <ele>402.1</ele>
        <time>2014-10-05T08:13:56.000Z</time>
      </trkpt>
      <trkpt lat="47.44991" lon="6.74491">
        <ele>401.1</ele>
        <time>2014-10-05T08:13:57.000Z</time>
      </trkpt>
      <trkpt lat="47.44993" lon="6.74493">
        <ele>400.7</ele>
        <time>2014-10-05T08:13:58.000Z</time>
      </trkpt>
      <trkpt lat="47.44995" lon="6.74494">
        <ele>399.9</ele>
        <time>2014-10-05T08:13:59.000Z</time>
      </trkpt>
      <trkpt lat="47.44998" lon="6.74497">
        <ele>399.7</ele>
        <time>2014-10-05T08:14:01.000Z</time>
      </trkpt>
      <trkpt lat="47.45" lon="6.745">
        <ele>400.2</ele>
        <time>2014-10-05T08:14:02.000Z</time>
      </trkpt>
      <trkpt lat="47.45003" lon="6.74502">
        <ele>400.1</ele>
        <time>2014-10-05T08:14:03.000Z</time>
      </trkpt>
      <trkpt lat="47.45005" lon="6.74504">
        <ele>400.8</ele>
        <time>2014-10-05T08:14:04.000Z</time>
      </trkpt>
      <trkpt lat="47.45007" lon="6.74506">
        <ele>400.8</ele>
        <time>2014-10-05T08:14:05.000Z</time>
      </trkpt>
      <trkpt lat="47.4501" lon="6.74507">
        <ele>400.9</ele>
        <time>2014-10-05T08:14:06.000Z</time>
      </trkpt>
      <trkpt lat="47.45011" lon="6.7451">
        <ele>405.5</ele>
        <time>2014-10-05T08:14:07.000Z</time>
      </trkpt>
      <trkpt lat="47.45013" lon="6.74513">
        <ele>406.5</ele>
        <time>2014-10-05T08:14:08.000Z</time>
      </trkpt>
      <trkpt lat="47.45015" lon="6.74516">
        <ele>406.7</ele>
        <time>2014-10-05T08:14:09.000Z</time>
      </trkpt>
      <trkpt lat="47.45016" lon="6.7452">
        <ele>407.1</ele>
        <time>2014-10-05T08:14:10.000Z</time>
      </trkpt>
      <trkpt lat="47.45018" lon="6.74524">
        <ele>407.8</ele>
        <time>2014-10-05T08:14:11.000Z</time>
      </trkpt>
      <trkpt lat="47.4502" lon="6.74528">
        <ele>408.7</ele>
        <time>2014-10-05T08:14:12.000Z</time>
      </trkpt>
      <trkpt lat="47.45022" lon="6.74531">
        <ele>408.5</ele>
        <time>2014-10-05T08:14:13.000Z</time>
      </trkpt>
      <trkpt lat="47.45024" lon="6.74534">
        <ele>408.2</ele>
        <time>2014-10-05T08:14:14.000Z</time>
      </trkpt>
      <trkpt lat="47.45026" lon="6.74538">
        <ele>408</ele>
        <time>2014-10-05T08:14:15.000Z</time>
      </trkpt>
      <trkpt lat="47.45028" lon="6.74541">
        <ele>407.8</ele>
        <time>2014-10-05T08:14:16.000Z</time>
      </trkpt>
      <trkpt lat="47.45035" lon="6.74553">
        <ele>406.5</ele>
        <time>2014-10-05T08:14:20.000Z</time>
      </trkpt>
      <trkpt lat="47.45037" lon="6.74557">
        <ele>406.9</ele>
        <time>2014-10-05T08:14:21.000Z</time>
      </trkpt>
      <trkpt lat="47.45039" lon="6.74561">
        <ele>407.5</ele>
        <time>2014-10-05T08:14:22.000Z</time>
      </trkpt>
      <trkpt lat="47.45041" lon="6.74566">
        <ele>407.2</ele>
        <time>2014-10-05T08:14:23.000Z</time>
      </trkpt>
      <trkpt lat="47.45044" lon="6.7457">
        <ele>406.5</ele>
        <time>2014-10-05T08:14:24.000Z</time>
      </trkpt>
      <trkpt lat="47.45046" lon="6.74575">
        <ele>406.3</ele>
        <time>2014-10-05T08:14:25.000Z</time>
      </trkpt>
      <trkpt lat="47.45049" lon="6.74581">
        <ele>405</ele>
        <time>2014-10-05T08:14:26.000Z</time>
      </trkpt>
      <trkpt lat="47.45053" lon="6.74587">
        <ele>404.3</ele>
        <time>2014-10-05T08:14:27.000Z</time>
      </trkpt>
      <trkpt lat="47.45056" lon="6.74593">
        <ele>403.9</ele>
        <time>2014-10-05T08:14:28.000Z</time>
      </trkpt>
      <trkpt lat="47.45059" lon="6.74599">
        <ele>405</ele>
        <time>2014-10-05T08:14:29.000Z</time>
      </trkpt>
      <trkpt lat="47.45062" lon="6.74604">
        <ele>405.4</ele>
        <time>2014-10-05T08:14:30.000Z</time>
      </trkpt>
      <trkpt lat="47.45065" lon="6.74609">
        <ele>405.7</ele>
        <time>2014-10-05T08:14:31.000Z</time>
      </trkpt>
      <trkpt lat="47.45068" lon="6.74614">
        <ele>405.7</ele>
        <time>2014-10-05T08:14:32.000Z</time>
      </trkpt>
      <trkpt lat="47.45071" lon="6.74619">
        <ele>405.5</ele>
        <time>2014-10-05T08:14:33.000Z</time>
      </trkpt>
      <trkpt lat="47.45074" lon="6.74623">
        <ele>405</ele>
        <time>2014-10-05T08:14:34.000Z</time>
      </trkpt>
      <trkpt lat="47.45076" lon="6.74628">
        <ele>404.6</ele>
        <time>2014-10-05T08:14:35.000Z</time>
      </trkpt>
      <trkpt lat="47.45079" lon="6.74632">
        <ele>405.2</ele>
        <time>2014-10-05T08:14:36.000Z</time>
      </trkpt>
      <trkpt lat="47.45081" lon="6.74635">
        <ele>405.3</ele>
        <time>2014-10-05T08:14:37.000Z</time>
      </trkpt>
      <trkpt lat="47.45083" lon="6.74639">
        <ele>405</ele>
        <time>2014-10-05T08:14:38.000Z</time>
      </trkpt>
      <trkpt lat="47.45085" lon="6.74643">
        <ele>404.9</ele>
        <time>2014-10-05T08:14:39.000Z</time>
      </trkpt>
      <trkpt lat="47.45088" lon="6.74647">
        <ele>404.2</ele>
        <time>2014-10-05T08:14:40.000Z</time>
      </trkpt>
      <trkpt lat="47.45091" lon="6.74651">
        <ele>403.1</ele>
        <time>2014-10-05T08:14:41.000Z</time>
      </trkpt>
      <trkpt lat="47.45094" lon="6.74654">
        <ele>402.2</ele>
        <time>2014-10-05T08:14:42.000Z</time>
      </trkpt>
      <trkpt lat="47.45097" lon="6.74658">
        <ele>402.3</ele>
        <time>2014-10-05T08:14:43.000Z</time>
      </trkpt>
      <trkpt lat="47.451" lon="6.74661">
        <ele>403.1</ele>
        <time>2014-10-05T08:14:44.000Z</time>
      </trkpt>
      <trkpt lat="47.45103" lon="6.74664">
        <ele>401.5</ele>
        <time>2014-10-05T08:14:45.000Z</time>
      </trkpt>
      <trkpt lat="47.45106" lon="6.74668">
        <ele>399.9</ele>
        <time>2014-10-05T08:14:46.000Z</time>
      </trkpt>
      <trkpt lat="47.4511" lon="6.74671">
        <ele>399</ele>
        <time>2014-10-05T08:14:47.000Z</time>
      </trkpt>
      <trkpt lat="47.45114" lon="6.74675">
        <ele>399</ele>
        <time>2014-10-05T08:14:48.000Z</time>
      </trkpt>
      <trkpt lat="47.45117" lon="6.74679">
        <ele>398.1</ele>
        <time>2014-10-05T08:14:49.000Z</time>
      </trkpt>
      <trkpt lat="47.45119" lon="6.74682">
        <ele>397.5</ele>
        <time>2014-10-05T08:14:50.000Z</time>
      </trkpt>
      <trkpt lat="47.4512" lon="6.74686">
        <ele>397.4</ele>
        <time>2014-10-05T08:14:51.000Z</time>
      </trkpt>
      <trkpt lat="47.4512" lon="6.7469">
        <ele>397.8</ele>
        <time>2014-10-05T08:14:52.000Z</time>
      </trkpt>
      <trkpt lat="47.45121" lon="6.74693">
        <ele>397.4</ele>
        <time>2014-10-05T08:14:53.000Z</time>
      </trkpt>
      <trkpt lat="47.45122" lon="6.74695">
        <ele>397.7</ele>
        <time>2014-10-05T08:14:54.000Z</time>
      </trkpt>
      <trkpt lat="47.45124" lon="6.74698">
        <ele>397.3</ele>
        <time>2014-10-05T08:14:55.000Z</time>
      </trkpt>
      <trkpt lat="47.45126" lon="6.74701">
        <ele>397.3</ele>
        <time>2014-10-05T08:14:56.000Z</time>
      </trkpt>
      <trkpt lat="47.45128" lon="6.74703">
        <ele>397.1</ele>
        <time>2014-10-05T08:14:57.000Z</time>
      </trkpt>
      <trkpt lat="47.4513" lon="6.74706">
        <ele>396.8</ele>
        <time>2014-10-05T08:14:58.000Z</time>
      </trkpt>
      <trkpt lat="47.45132" lon="6.74708">
        <ele>396.2</ele>
        <time>2014-10-05T08:14:59.000Z</time>
      </trkpt>
      <trkpt lat="47.45135" lon="6.74711">
        <ele>396.5</ele>
        <time>2014-10-05T08:15:00.000Z</time>
      </trkpt>
      <trkpt lat="47.45137" lon="6.74715">
        <ele>396.9</ele>
        <time>2014-10-05T08:15:01.000Z</time>
      </trkpt>
      <trkpt lat="47.4514" lon="6.74719">
        <ele>397.1</ele>
        <time>2014-10-05T08:15:02.000Z</time>
      </trkpt>
      <trkpt lat="47.45142" lon="6.74723">
        <ele>397</ele>
        <time>2014-10-05T08:15:03.000Z</time>
      </trkpt>
      <trkpt lat="47.45144" lon="6.74727">
        <ele>396.8</ele>
        <time>2014-10-05T08:15:04.000Z</time>
      </trkpt>
      <trkpt lat="47.45147" lon="6.74731">
        <ele>397.5</ele>
        <time>2014-10-05T08:15:05.000Z</time>
      </trkpt>
      <trkpt lat="47.45149" lon="6.74735">
        <ele>397.2</ele>
        <time>2014-10-05T08:15:06.000Z</time>
      </trkpt>
      <trkpt lat="47.45151" lon="6.7474">
        <ele>398</ele>
        <time>2014-10-05T08:15:07.000Z</time>
      </trkpt>
      <trkpt lat="47.45154" lon="6.74745">
        <ele>398.3</ele>
        <time>2014-10-05T08:15:08.000Z</time>
      </trkpt>
      <trkpt lat="47.45157" lon="6.74751">
        <ele>399</ele>
        <time>2014-10-05T08:15:09.000Z</time>
      </trkpt>
      <trkpt lat="47.4516" lon="6.74756">
        <ele>398.4</ele>
        <time>2014-10-05T08:15:10.000Z</time>
      </trkpt>
      <trkpt lat="47.45163" lon="6.74762">
        <ele>397.5</ele>
        <time>2014-10-05T08:15:11.000Z</time>
      </trkpt>
      <trkpt lat="47.45166" lon="6.74768">
        <ele>396.7</ele>
        <time>2014-10-05T08:15:12.000Z</time>
      </trkpt>
      <trkpt lat="47.45169" lon="6.74774">
        <ele>396.5</ele>
        <time>2014-10-05T08:15:13.000Z</time>
      </trkpt>
      <trkpt lat="47.45172" lon="6.7478">
        <ele>396.7</ele>
        <time>2014-10-05T08:15:14.000Z</time>
      </trkpt>
      <trkpt lat="47.45174" lon="6.74786">
        <ele>400.2</ele>
        <time>2014-10-05T08:15:15.000Z</time>
      </trkpt>
      <trkpt lat="47.45177" lon="6.74794">
        <ele>401.2</ele>
        <time>2014-10-05T08:15:16.000Z</time>
      </trkpt>
      <trkpt lat="47.45183" lon="6.74813">
        <ele>402.4</ele>
        <time>2014-10-05T08:15:19.000Z</time>
      </trkpt>
      <trkpt lat="47.45185" lon="6.7482">
        <ele>402.8</ele>
        <time>2014-10-05T08:15:20.000Z</time>
      </trkpt>
      <trkpt lat="47.45187" lon="6.74826">
        <ele>403.4</ele>
        <time>2014-10-05T08:15:21.000Z</time>
      </trkpt>
      <trkpt lat="47.45193" lon="6.74841">
        <ele>402.7</ele>
        <time>2014-10-05T08:15:22.000Z</time>
      </trkpt>
      <trkpt lat="47.45195" lon="6.7485">
        <ele>402.3</ele>
        <time>2014-10-05T08:15:23.000Z</time>
      </trkpt>
      <trkpt lat="47.45202" lon="6.74862">
        <ele>404.3</ele>
        <time>2014-10-05T08:15:24.000Z</time>
      </trkpt>
      <trkpt lat="47.45206" lon="6.7487">
        <ele>404.5</ele>
        <time>2014-10-05T08:15:25.000Z</time>
      </trkpt>
      <trkpt lat="47.45209" lon="6.74877">
        <ele>404.6</ele>
        <time>2014-10-05T08:15:26.000Z</time>
      </trkpt>
      <trkpt lat="47.4521" lon="6.74882">
        <ele>404.8</ele>
        <time>2014-10-05T08:15:27.000Z</time>
      </trkpt>
      <trkpt lat="47.45211" lon="6.74886">
        <ele>404.6</ele>
        <time>2014-10-05T08:15:28.000Z</time>
      </trkpt>
      <trkpt lat="47.45212" lon="6.74892">
        <ele>403</ele>
        <time>2014-10-05T08:15:30.000Z</time>
      </trkpt>
      <trkpt lat="47.45212" lon="6.74898">
        <ele>402.9</ele>
        <time>2014-10-05T08:15:31.000Z</time>
      </trkpt>
      <trkpt lat="47.45212" lon="6.74904">
        <ele>404.3</ele>
        <time>2014-10-05T08:15:32.000Z</time>
      </trkpt>
      <trkpt lat="47.45212" lon="6.74909">
        <ele>404.4</ele>
        <time>2014-10-05T08:15:33.000Z</time>
      </trkpt>
      <trkpt lat="47.45214" lon="6.74917">
        <ele>405.2</ele>
        <time>2014-10-05T08:15:34.000Z</time>
      </trkpt>
      <trkpt lat="47.45215" lon="6.74923">
        <ele>405.6</ele>
        <time>2014-10-05T08:15:35.000Z</time>
      </trkpt>
      <trkpt lat="47.45215" lon="6.74928">
        <ele>406.2</ele>
        <time>2014-10-05T08:15:36.000Z</time>
      </trkpt>
      <trkpt lat="47.45216" lon="6.74933">
        <ele>405.6</ele>
        <time>2014-10-05T08:15:37.000Z</time>
      </trkpt>
      <trkpt lat="47.45216" lon="6.74938">
        <ele>404.9</ele>
        <time>2014-10-05T08:15:38.000Z</time>
      </trkpt>
      <trkpt lat="47.45217" lon="6.74942">
        <ele>404.6</ele>
        <time>2014-10-05T08:15:39.000Z</time>
      </trkpt>
      <trkpt lat="47.45217" lon="6.74946">
        <ele>404.1</ele>
        <time>2014-10-05T08:15:40.000Z</time>
      </trkpt>
      <trkpt lat="47.45217" lon="6.74951">
        <ele>404.1</ele>
        <time>2014-10-05T08:15:41.000Z</time>
      </trkpt>
      <trkpt lat="47.45217" lon="6.74958">
        <ele>402.7</ele>
        <time>2014-10-05T08:15:42.000Z</time>
      </trkpt>
      <trkpt lat="47.45217" lon="6.74965">
        <ele>403.1</ele>
        <time>2014-10-05T08:15:43.000Z</time>
      </trkpt>
      <trkpt lat="47.45217" lon="6.74973">
        <ele>403.6</ele>
        <time>2014-10-05T08:15:44.000Z</time>
      </trkpt>
      <trkpt lat="47.45217" lon="6.74979">
        <ele>404.1</ele>
        <time>2014-10-05T08:15:45.000Z</time>
      </trkpt>
      <trkpt lat="47.45218" lon="6.74986">
        <ele>404.7</ele>
        <time>2014-10-05T08:15:46.000Z</time>
      </trkpt>
      <trkpt lat="47.4522" lon="6.74992">
        <ele>405.4</ele>
        <time>2014-10-05T08:15:47.000Z</time>
      </trkpt>
      <trkpt lat="47.45221" lon="6.74998">
        <ele>405.3</ele>
        <time>2014-10-05T08:15:48.000Z</time>
      </trkpt>
      <trkpt lat="47.45223" lon="6.75004">
        <ele>405</ele>
        <time>2014-10-05T08:15:49.000Z</time>
      </trkpt>
      <trkpt lat="47.45225" lon="6.75011">
        <ele>405</ele>
        <time>2014-10-05T08:15:50.000Z</time>
      </trkpt>
      <trkpt lat="47.45228" lon="6.75018">
        <ele>406.3</ele>
        <time>2014-10-05T08:15:51.000Z</time>
      </trkpt>
      <trkpt lat="47.4523" lon="6.75024">
        <ele>406.1</ele>
        <time>2014-10-05T08:15:52.000Z</time>
      </trkpt>
      <trkpt lat="47.45233" lon="6.75031">
        <ele>406.2</ele>
        <time>2014-10-05T08:15:53.000Z</time>
      </trkpt>
      <trkpt lat="47.45235" lon="6.75038">
        <ele>405.6</ele>
        <time>2014-10-05T08:15:54.000Z</time>
      </trkpt>
      <trkpt lat="47.45237" lon="6.75044">
        <ele>405.8</ele>
        <time>2014-10-05T08:15:55.000Z</time>
      </trkpt>
      <trkpt lat="47.45238" lon="6.75051">
        <ele>405.8</ele>
        <time>2014-10-05T08:15:56.000Z</time>
      </trkpt>
      <trkpt lat="47.4524" lon="6.75059">
        <ele>406</ele>
        <time>2014-10-05T08:15:57.000Z</time>
      </trkpt>
      <trkpt lat="47.45241" lon="6.75066">
        <ele>405.4</ele>
        <time>2014-10-05T08:15:58.000Z</time>
      </trkpt>
      <trkpt lat="47.45243" lon="6.75074">
        <ele>406.2</ele>
        <time>2014-10-05T08:15:59.000Z</time>
      </trkpt>
      <trkpt lat="47.45245" lon="6.75082">
        <ele>406.8</ele>
        <time>2014-10-05T08:16:00.000Z</time>
      </trkpt>
      <trkpt lat="47.45247" lon="6.75089">
        <ele>406.7</ele>
        <time>2014-10-05T08:16:01.000Z</time>
      </trkpt>
      <trkpt lat="47.4525" lon="6.75097">
        <ele>406.8</ele>
        <time>2014-10-05T08:16:02.000Z</time>
      </trkpt>
      <trkpt lat="47.45252" lon="6.75104">
        <ele>406.1</ele>
        <time>2014-10-05T08:16:03.000Z</time>
      </trkpt>
      <trkpt lat="47.45256" lon="6.75111">
        <ele>405.1</ele>
        <time>2014-10-05T08:16:04.000Z</time>
      </trkpt>
      <trkpt lat="47.45259" lon="6.75119">
        <ele>405.3</ele>
        <time>2014-10-05T08:16:05.000Z</time>
      </trkpt>
      <trkpt lat="47.45262" lon="6.75126">
        <ele>405.8</ele>
        <time>2014-10-05T08:16:06.000Z</time>
      </trkpt>
      <trkpt lat="47.45273" lon="6.75145">
        <ele>409.8</ele>
        <time>2014-10-05T08:16:07.000Z</time>
      </trkpt>
      <trkpt lat="47.45279" lon="6.75151">
        <ele>406</ele>
        <time>2014-10-05T08:16:08.000Z</time>
      </trkpt>
      <trkpt lat="47.45285" lon="6.75156">
        <ele>402.1</ele>
        <time>2014-10-05T08:16:09.000Z</time>
      </trkpt>
      <trkpt lat="47.45291" lon="6.75161">
        <ele>403.5</ele>
        <time>2014-10-05T08:16:10.000Z</time>
      </trkpt>
      <trkpt lat="47.45295" lon="6.75165">
        <ele>402.5</ele>
        <time>2014-10-05T08:16:11.000Z</time>
      </trkpt>
      <trkpt lat="47.453" lon="6.7517">
        <ele>398.3</ele>
        <time>2014-10-05T08:16:12.000Z</time>
      </trkpt>
      <trkpt lat="47.45307" lon="6.75173">
        <ele>390.5</ele>
        <time>2014-10-05T08:16:13.000Z</time>
      </trkpt>
      <trkpt lat="47.45312" lon="6.75177">
        <ele>390.1</ele>
        <time>2014-10-05T08:16:14.000Z</time>
      </trkpt>
      <trkpt lat="47.45318" lon="6.7518">
        <ele>386</ele>
        <time>2014-10-05T08:16:15.000Z</time>
      </trkpt>
      <trkpt lat="47.45322" lon="6.75185">
        <ele>386.2</ele>
        <time>2014-10-05T08:16:16.000Z</time>
      </trkpt>
      <trkpt lat="47.4534" lon="6.75219">
        <ele>386.9</ele>
        <time>2014-10-05T08:16:24.000Z</time>
      </trkpt>
      <trkpt lat="47.45343" lon="6.75226">
        <ele>386.2</ele>
        <time>2014-10-05T08:16:25.000Z</time>
      </trkpt>
      <trkpt lat="47.45345" lon="6.7523">
        <ele>385.4</ele>
        <time>2014-10-05T08:16:26.000Z</time>
      </trkpt>
      <trkpt lat="47.45348" lon="6.75235">
        <ele>385.2</ele>
        <time>2014-10-05T08:16:27.000Z</time>
      </trkpt>
      <trkpt lat="47.45351" lon="6.75239">
        <ele>383.7</ele>
        <time>2014-10-05T08:16:28.000Z</time>
      </trkpt>
      <trkpt lat="47.45354" lon="6.75242">
        <ele>383.8</ele>
        <time>2014-10-05T08:16:29.000Z</time>
      </trkpt>
      <trkpt lat="47.45362" lon="6.75247">
        <ele>372.8</ele>
        <time>2014-10-05T08:16:30.000Z</time>
      </trkpt>
      <trkpt lat="47.45367" lon="6.75251">
        <ele>367.1</ele>
        <time>2014-10-05T08:16:31.000Z</time>
      </trkpt>
      <trkpt lat="47.4537" lon="6.75253">
        <ele>364.3</ele>
        <time>2014-10-05T08:16:32.000Z</time>
      </trkpt>
      <trkpt lat="47.45372" lon="6.75255">
        <ele>363.2</ele>
        <time>2014-10-05T08:16:33.000Z</time>
      </trkpt>
      <trkpt lat="47.45374" lon="6.75256">
        <ele>358.5</ele>
        <time>2014-10-05T08:16:34.000Z</time>
      </trkpt>
      <trkpt lat="47.45376" lon="6.75258">
        <ele>358.7</ele>
        <time>2014-10-05T08:16:35.000Z</time>
      </trkpt>
      <trkpt lat="47.45378" lon="6.7526">
        <ele>359.6</ele>
        <time>2014-10-05T08:16:36.000Z</time>
      </trkpt>
      <trkpt lat="47.4538" lon="6.75263">
        <ele>355.4</ele>
        <time>2014-10-05T08:16:37.000Z</time>
      </trkpt>
      <trkpt lat="47.45382" lon="6.75266">
        <ele>352.7</ele>
        <time>2014-10-05T08:16:38.000Z</time>
      </trkpt>
      <trkpt lat="47.45385" lon="6.7527">
        <ele>351.1</ele>
        <time>2014-10-05T08:16:39.000Z</time>
      </trkpt>
      <trkpt lat="47.45387" lon="6.75274">
        <ele>351.1</ele>
        <time>2014-10-05T08:16:40.000Z</time>
      </trkpt>
      <trkpt lat="47.45388" lon="6.75278">
        <ele>351.2</ele>
        <time>2014-10-05T08:16:41.000Z</time>
      </trkpt>
      <trkpt lat="47.45388" lon="6.75284">
        <ele>351.2</ele>
        <time>2014-10-05T08:16:43.000Z</time>
      </trkpt>
      <trkpt lat="47.45387" lon="6.75286">
        <ele>351.1</ele>
        <time>2014-10-05T08:16:44.000Z</time>
      </trkpt>
      <trkpt lat="47.45384" lon="6.75288">
        <ele>350.2</ele>
        <time>2014-10-05T08:16:46.000Z</time>
      </trkpt>
      <trkpt lat="47.45382" lon="6.75288">
        <ele>349.9</ele>
        <time>2014-10-05T08:16:47.000Z</time>
      </trkpt>
      <trkpt lat="47.45377" lon="6.75289">
        <ele>350.3</ele>
        <time>2014-10-05T08:16:49.000Z</time>
      </trkpt>
      <trkpt lat="47.45375" lon="6.7529">
        <ele>349.6</ele>
        <time>2014-10-05T08:16:50.000Z</time>
      </trkpt>
      <trkpt lat="47.45371" lon="6.75292">
        <ele>349.5</ele>
        <time>2014-10-05T08:16:52.000Z</time>
      </trkpt>
      <trkpt lat="47.45368" lon="6.75292">
        <ele>349.2</ele>
        <time>2014-10-05T08:16:53.000Z</time>
      </trkpt>
      <trkpt lat="47.45366" lon="6.75293">
        <ele>349.7</ele>
        <time>2014-10-05T08:16:54.000Z</time>
      </trkpt>
      <trkpt lat="47.45364" lon="6.75293">
        <ele>349.7</ele>
        <time>2014-10-05T08:16:55.000Z</time>
      </trkpt>
      <trkpt lat="47.45361" lon="6.75294">
        <ele>349.7</ele>
        <time>2014-10-05T08:16:55.998Z</time>
      </trkpt>
      <trkpt lat="47.45359" lon="6.75296">
        <ele>350.3</ele>
        <time>2014-10-05T08:16:57.000Z</time>
      </trkpt>
      <trkpt lat="47.45356" lon="6.75297">
        <ele>350.3</ele>
        <time>2014-10-05T08:16:58.000Z</time>
      </trkpt>
      <trkpt lat="47.45354" lon="6.75299">
        <ele>350.8</ele>
        <time>2014-10-05T08:16:59.000Z</time>
      </trkpt>
      <trkpt lat="47.45351" lon="6.75301">
        <ele>351.4</ele>
        <time>2014-10-05T08:17:00.000Z</time>
      </trkpt>
      <trkpt lat="47.45349" lon="6.75303">
        <ele>351.5</ele>
        <time>2014-10-05T08:17:01.000Z</time>
      </trkpt>
      <trkpt lat="47.45346" lon="6.75304">
        <ele>351.3</ele>
        <time>2014-10-05T08:17:02.000Z</time>
      </trkpt>
      <trkpt lat="47.45344" lon="6.75306">
        <ele>352.3</ele>
        <time>2014-10-05T08:17:03.000Z</time>
      </trkpt>
      <trkpt lat="47.45342" lon="6.75308">
        <ele>352.4</ele>
        <time>2014-10-05T08:17:04.000Z</time>
      </trkpt>
      <trkpt lat="47.4534" lon="6.7531">
        <ele>352.4</ele>
        <time>2014-10-05T08:17:05.000Z</time>
      </trkpt>
      <trkpt lat="47.45337" lon="6.75314">
        <ele>352.6</ele>
        <time>2014-10-05T08:17:07.000Z</time>
      </trkpt>
      <trkpt lat="47.45336" lon="6.75316">
        <ele>352.6</ele>
        <time>2014-10-05T08:17:08.000Z</time>
      </trkpt>
      <trkpt lat="47.45332" lon="6.75319">
        <ele>352.2</ele>
        <time>2014-10-05T08:17:10.000Z</time>
      </trkpt>
      <trkpt lat="47.4533" lon="6.7532">
        <ele>352.4</ele>
        <time>2014-10-05T08:17:11.000Z</time>
      </trkpt>
      <trkpt lat="47.45327" lon="6.75321">
        <ele>352.4</ele>
        <time>2014-10-05T08:17:12.000Z</time>
      </trkpt>
      <trkpt lat="47.45325" lon="6.75322">
        <ele>352.5</ele>
        <time>2014-10-05T08:17:13.000Z</time>
      </trkpt>
      <trkpt lat="47.45322" lon="6.75324">
        <ele>352.6</ele>
        <time>2014-10-05T08:17:14.000Z</time>
      </trkpt>
      <trkpt lat="47.45319" lon="6.75325">
        <ele>353.1</ele>
        <time>2014-10-05T08:17:15.000Z</time>
      </trkpt>
      <trkpt lat="47.45284" lon="6.75344">
        <ele>357.1</ele>
        <time>2014-10-05T08:17:24.000Z</time>
      </trkpt>
      <trkpt lat="47.4528" lon="6.75346">
        <ele>357.1</ele>
        <time>2014-10-05T08:17:25.000Z</time>
      </trkpt>
      <trkpt lat="47.45276" lon="6.75348">
        <ele>357.9</ele>
        <time>2014-10-05T08:17:26.000Z</time>
      </trkpt>
      <trkpt lat="47.45271" lon="6.7535">
        <ele>357.3</ele>
        <time>2014-10-05T08:17:27.000Z</time>
      </trkpt>
      <trkpt lat="47.45267" lon="6.75352">
        <ele>356.7</ele>
        <time>2014-10-05T08:17:28.000Z</time>
      </trkpt>
      <trkpt lat="47.45263" lon="6.75354">
        <ele>357</ele>
        <time>2014-10-05T08:17:29.000Z</time>
      </trkpt>
      <trkpt lat="47.45258" lon="6.75356">
        <ele>357.1</ele>
        <time>2014-10-05T08:17:30.000Z</time>
      </trkpt>
      <trkpt lat="47.45254" lon="6.75358">
        <ele>356.4</ele>
        <time>2014-10-05T08:17:31.000Z</time>
      </trkpt>
      <trkpt lat="47.45249" lon="6.7536">
        <ele>356.1</ele>
        <time>2014-10-05T08:17:32.000Z</time>
      </trkpt>
      <trkpt lat="47.45242" lon="6.75364">
        <ele>356.7</ele>
        <time>2014-10-05T08:17:33.000Z</time>
      </trkpt>
      <trkpt lat="47.45238" lon="6.75366">
        <ele>356.6</ele>
        <time>2014-10-05T08:17:34.000Z</time>
      </trkpt>
      <trkpt lat="47.45233" lon="6.7537">
        <ele>356.3</ele>
        <time>2014-10-05T08:17:35.000Z</time>
      </trkpt>
      <trkpt lat="47.45228" lon="6.75373">
        <ele>356</ele>
        <time>2014-10-05T08:17:36.000Z</time>
      </trkpt>
      <trkpt lat="47.45223" lon="6.75375">
        <ele>355.7</ele>
        <time>2014-10-05T08:17:37.000Z</time>
      </trkpt>
      <trkpt lat="47.45218" lon="6.75378">
        <ele>355.4</ele>
        <time>2014-10-05T08:17:38.000Z</time>
      </trkpt>
      <trkpt lat="47.45213" lon="6.75381">
        <ele>355.6</ele>
        <time>2014-10-05T08:17:39.000Z</time>
      </trkpt>
      <trkpt lat="47.45208" lon="6.75384">
        <ele>356.1</ele>
        <time>2014-10-05T08:17:40.000Z</time>
      </trkpt>
      <trkpt lat="47.45203" lon="6.75386">
        <ele>356.9</ele>
        <time>2014-10-05T08:17:41.000Z</time>
      </trkpt>
      <trkpt lat="47.45198" lon="6.75388">
        <ele>356.7</ele>
        <time>2014-10-05T08:17:42.000Z</time>
      </trkpt>
      <trkpt lat="47.45194" lon="6.75391">
        <ele>357.2</ele>
        <time>2014-10-05T08:17:43.000Z</time>
      </trkpt>
      <trkpt lat="47.45189" lon="6.75394">
        <ele>357.1</ele>
        <time>2014-10-05T08:17:44.000Z</time>
      </trkpt>
      <trkpt lat="47.45184" lon="6.75397">
        <ele>356.5</ele>
        <time>2014-10-05T08:17:45.000Z</time>
      </trkpt>
      <trkpt lat="47.4518" lon="6.75399">
        <ele>356.7</ele>
        <time>2014-10-05T08:17:46.000Z</time>
      </trkpt>
      <trkpt lat="47.45174" lon="6.75402">
        <ele>356.9</ele>
        <time>2014-10-05T08:17:47.000Z</time>
      </trkpt>
      <trkpt lat="47.45169" lon="6.75404">
        <ele>356.9</ele>
        <time>2014-10-05T08:17:48.000Z</time>
      </trkpt>
      <trkpt lat="47.45164" lon="6.75406">
        <ele>356.6</ele>
        <time>2014-10-05T08:17:49.000Z</time>
      </trkpt>
      <trkpt lat="47.45159" lon="6.75408">
        <ele>357.2</ele>
        <time>2014-10-05T08:17:50.000Z</time>
      </trkpt>
      <trkpt lat="47.45154" lon="6.75409">
        <ele>357.3</ele>
        <time>2014-10-05T08:17:51.000Z</time>
      </trkpt>
      <trkpt lat="47.45149" lon="6.7541">
        <ele>358</ele>
        <time>2014-10-05T08:17:52.000Z</time>
      </trkpt>
      <trkpt lat="47.45145" lon="6.75412">
        <ele>357.9</ele>
        <time>2014-10-05T08:17:53.000Z</time>
      </trkpt>
      <trkpt lat="47.4514" lon="6.75412">
        <ele>357.4</ele>
        <time>2014-10-05T08:17:54.000Z</time>
      </trkpt>
      <trkpt lat="47.45135" lon="6.75414">
        <ele>357.8</ele>
        <time>2014-10-05T08:17:55.000Z</time>
      </trkpt>
      <trkpt lat="47.45131" lon="6.75416">
        <ele>357.1</ele>
        <time>2014-10-05T08:17:56.000Z</time>
      </trkpt>
      <trkpt lat="47.45126" lon="6.75416">
        <ele>356.4</ele>
        <time>2014-10-05T08:17:57.000Z</time>
      </trkpt>
      <trkpt lat="47.45121" lon="6.75416">
        <ele>357.1</ele>
        <time>2014-10-05T08:17:58.000Z</time>
      </trkpt>
      <trkpt lat="47.45117" lon="6.75417">
        <ele>357.4</ele>
        <time>2014-10-05T08:17:59.000Z</time>
      </trkpt>
      <trkpt lat="47.45112" lon="6.75418">
        <ele>358.3</ele>
        <time>2014-10-05T08:18:00.000Z</time>
      </trkpt>
      <trkpt lat="47.45106" lon="6.7542">
        <ele>359</ele>
        <time>2014-10-05T08:18:01.000Z</time>
      </trkpt>
      <trkpt lat="47.45101" lon="6.75422">
        <ele>359.6</ele>
        <time>2014-10-05T08:18:02.000Z</time>
      </trkpt>
      <trkpt lat="47.45096" lon="6.75423">
        <ele>359.4</ele>
        <time>2014-10-05T08:18:03.000Z</time>
      </trkpt>
      <trkpt lat="47.45091" lon="6.75425">
        <ele>357.3</ele>
        <time>2014-10-05T08:18:04.000Z</time>
      </trkpt>
      <trkpt lat="47.45086" lon="6.75426">
        <ele>357.8</ele>
        <time>2014-10-05T08:18:05.000Z</time>
      </trkpt>
      <trkpt lat="47.45081" lon="6.75426">
        <ele>357.7</ele>
        <time>2014-10-05T08:18:06.000Z</time>
      </trkpt>
      <trkpt lat="47.45075" lon="6.75427">
        <ele>357.7</ele>
        <time>2014-10-05T08:18:07.000Z</time>
      </trkpt>
      <trkpt lat="47.45071" lon="6.75427">
        <ele>358.5</ele>
        <time>2014-10-05T08:18:08.000Z</time>
      </trkpt>
      <trkpt lat="47.45066" lon="6.75428">
        <ele>359</ele>
        <time>2014-10-05T08:18:09.000Z</time>
      </trkpt>
      <trkpt lat="47.45061" lon="6.75429">
        <ele>359.5</ele>
        <time>2014-10-05T08:18:10.000Z</time>
      </trkpt>
      <trkpt lat="47.45056" lon="6.7543">
        <ele>359.5</ele>
        <time>2014-10-05T08:18:11.000Z</time>
      </trkpt>
      <trkpt lat="47.45051" lon="6.75431">
        <ele>359.4</ele>
        <time>2014-10-05T08:18:12.000Z</time>
      </trkpt>
      <trkpt lat="47.45046" lon="6.75432">
        <ele>359.3</ele>
        <time>2014-10-05T08:18:13.000Z</time>
      </trkpt>
      <trkpt lat="47.45041" lon="6.75433">
        <ele>360.1</ele>
        <time>2014-10-05T08:18:14.000Z</time>
      </trkpt>
      <trkpt lat="47.45037" lon="6.75433">
        <ele>360.6</ele>
        <time>2014-10-05T08:18:15.000Z</time>
      </trkpt>
      <trkpt lat="47.45032" lon="6.75434">
        <ele>360.3</ele>
        <time>2014-10-05T08:18:16.000Z</time>
      </trkpt>
      <trkpt lat="47.44992" lon="6.75437">
        <ele>360.8</ele>
        <time>2014-10-05T08:18:24.000Z</time>
      </trkpt>
      <trkpt lat="47.44985" lon="6.75438">
        <ele>361.2</ele>
        <time>2014-10-05T08:18:25.000Z</time>
      </trkpt>
      <trkpt lat="47.44979" lon="6.75437">
        <ele>360.8</ele>
        <time>2014-10-05T08:18:26.000Z</time>
      </trkpt>
      <trkpt lat="47.44975" lon="6.75436">
        <ele>361</ele>
        <time>2014-10-05T08:18:27.000Z</time>
      </trkpt>
      <trkpt lat="47.4497" lon="6.75435">
        <ele>361.6</ele>
        <time>2014-10-05T08:18:28.000Z</time>
      </trkpt>
      <trkpt lat="47.44965" lon="6.75433">
        <ele>362.1</ele>
        <time>2014-10-05T08:18:29.000Z</time>
      </trkpt>
      <trkpt lat="47.44961" lon="6.75431">
        <ele>362.1</ele>
        <time>2014-10-05T08:18:30.000Z</time>
      </trkpt>
      <trkpt lat="47.44957" lon="6.7543">
        <ele>362</ele>
        <time>2014-10-05T08:18:31.000Z</time>
      </trkpt>
      <trkpt lat="47.44953" lon="6.7543">
        <ele>362</ele>
        <time>2014-10-05T08:18:32.000Z</time>
      </trkpt>
      <trkpt lat="47.44949" lon="6.7543">
        <ele>362.1</ele>
        <time>2014-10-05T08:18:33.000Z</time>
      </trkpt>
      <trkpt lat="47.44945" lon="6.75429">
        <ele>362.6</ele>
        <time>2014-10-05T08:18:34.000Z</time>
      </trkpt>
      <trkpt lat="47.4494" lon="6.75428">
        <ele>364</ele>
        <time>2014-10-05T08:18:35.000Z</time>
      </trkpt>
      <trkpt lat="47.44935" lon="6.75427">
        <ele>364.1</ele>
        <time>2014-10-05T08:18:36.000Z</time>
      </trkpt>
      <trkpt lat="47.44932" lon="6.75426">
        <ele>364.8</ele>
        <time>2014-10-05T08:18:37.000Z</time>
      </trkpt>
      <trkpt lat="47.44927" lon="6.75426">
        <ele>364.9</ele>
        <time>2014-10-05T08:18:38.000Z</time>
      </trkpt>
      <trkpt lat="47.44923" lon="6.75425">
        <ele>364.7</ele>
        <time>2014-10-05T08:18:39.000Z</time>
      </trkpt>
      <trkpt lat="47.44918" lon="6.75424">
        <ele>365</ele>
        <time>2014-10-05T08:18:40.000Z</time>
      </trkpt>
      <trkpt lat="47.44914" lon="6.75423">
        <ele>366.1</ele>
        <time>2014-10-05T08:18:41.000Z</time>
      </trkpt>
      <trkpt lat="47.44909" lon="6.75423">
        <ele>365.8</ele>
        <time>2014-10-05T08:18:42.000Z</time>
      </trkpt>
      <trkpt lat="47.44904" lon="6.75422">
        <ele>365.8</ele>
        <time>2014-10-05T08:18:43.000Z</time>
      </trkpt>
      <trkpt lat="47.44899" lon="6.75421">
        <ele>365.9</ele>
        <time>2014-10-05T08:18:44.000Z</time>
      </trkpt>
      <trkpt lat="47.44894" lon="6.75422">
        <ele>366.4</ele>
        <time>2014-10-05T08:18:45.000Z</time>
      </trkpt>
      <trkpt lat="47.44888" lon="6.75422">
        <ele>366.5</ele>
        <time>2014-10-05T08:18:46.000Z</time>
      </trkpt>
      <trkpt lat="47.44884" lon="6.75422">
        <ele>366.9</ele>
        <time>2014-10-05T08:18:47.000Z</time>
      </trkpt>
      <trkpt lat="47.44879" lon="6.75423">
        <ele>367.4</ele>
        <time>2014-10-05T08:18:48.000Z</time>
      </trkpt>
      <trkpt lat="47.44874" lon="6.75422">
        <ele>368</ele>
        <time>2014-10-05T08:18:49.000Z</time>
      </trkpt>
      <trkpt lat="47.44869" lon="6.75422">
        <ele>368</ele>
        <time>2014-10-05T08:18:50.000Z</time>
      </trkpt>
      <trkpt lat="47.44864" lon="6.75423">
        <ele>368.2</ele>
        <time>2014-10-05T08:18:51.000Z</time>
      </trkpt>
      <trkpt lat="47.44858" lon="6.75423">
        <ele>368.2</ele>
        <time>2014-10-05T08:18:52.000Z</time>
      </trkpt>
      <trkpt lat="47.44854" lon="6.75423">
        <ele>368</ele>
        <time>2014-10-05T08:18:53.000Z</time>
      </trkpt>
      <trkpt lat="47.44849" lon="6.75423">
        <ele>367.6</ele>
        <time>2014-10-05T08:18:54.000Z</time>
      </trkpt>
      <trkpt lat="47.44844" lon="6.75423">
        <ele>368.7</ele>
        <time>2014-10-05T08:18:55.000Z</time>
      </trkpt>
      <trkpt lat="47.4484" lon="6.75424">
        <ele>369.9</ele>
        <time>2014-10-05T08:18:56.000Z</time>
      </trkpt>
      <trkpt lat="47.44835" lon="6.75425">
        <ele>370</ele>
        <time>2014-10-05T08:18:57.000Z</time>
      </trkpt>
      <trkpt lat="47.4483" lon="6.75425">
        <ele>370.4</ele>
        <time>2014-10-05T08:18:58.000Z</time>
      </trkpt>
      <trkpt lat="47.44826" lon="6.75425">
        <ele>370.3</ele>
        <time>2014-10-05T08:18:59.000Z</time>
      </trkpt>
      <trkpt lat="47.4482" lon="6.75428">
        <ele>371.8</ele>
        <time>2014-10-05T08:19:00.000Z</time>
      </trkpt>
      <trkpt lat="47.44816" lon="6.75427">
        <ele>371.5</ele>
        <time>2014-10-05T08:19:01.000Z</time>
      </trkpt>
      <trkpt lat="47.44811" lon="6.75428">
        <ele>371.9</ele>
        <time>2014-10-05T08:19:02.000Z</time>
      </trkpt>
      <trkpt lat="47.44807" lon="6.75429">
        <ele>371.8</ele>
        <time>2014-10-05T08:19:03.000Z</time>
      </trkpt>
      <trkpt lat="47.44802" lon="6.7543">
        <ele>371.9</ele>
        <time>2014-10-05T08:19:04.000Z</time>
      </trkpt>
      <trkpt lat="47.44798" lon="6.75432">
        <ele>371.7</ele>
        <time>2014-10-05T08:19:05.000Z</time>
      </trkpt>
      <trkpt lat="47.44793" lon="6.75432">
        <ele>371.5</ele>
        <time>2014-10-05T08:19:06.000Z</time>
      </trkpt>
      <trkpt lat="47.44789" lon="6.75432">
        <ele>371.5</ele>
        <time>2014-10-05T08:19:07.000Z</time>
      </trkpt>
      <trkpt lat="47.44785" lon="6.75431">
        <ele>371.2</ele>
        <time>2014-10-05T08:19:08.000Z</time>
      </trkpt>
      <trkpt lat="47.44779" lon="6.75431">
        <ele>371.3</ele>
        <time>2014-10-05T08:19:09.000Z</time>
      </trkpt>
      <trkpt lat="47.44775" lon="6.75433">
        <ele>370.9</ele>
        <time>2014-10-05T08:19:10.000Z</time>
      </trkpt>
      <trkpt lat="47.44768" lon="6.75436">
        <ele>371.3</ele>
        <time>2014-10-05T08:19:11.000Z</time>
      </trkpt>
      <trkpt lat="47.44763" lon="6.75434">
        <ele>369.2</ele>
        <time>2014-10-05T08:19:12.000Z</time>
      </trkpt>
      <trkpt lat="47.44758" lon="6.75433">
        <ele>368.5</ele>
        <time>2014-10-05T08:19:13.000Z</time>
      </trkpt>
      <trkpt lat="47.44753" lon="6.75434">
        <ele>368.5</ele>
        <time>2014-10-05T08:19:14.000Z</time>
      </trkpt>
      <trkpt lat="47.44749" lon="6.75434">
        <ele>368.2</ele>
        <time>2014-10-05T08:19:15.000Z</time>
      </trkpt>
      <trkpt lat="47.44744" lon="6.75434">
        <ele>369.2</ele>
        <time>2014-10-05T08:19:16.000Z</time>
      </trkpt>
      <trkpt lat="47.44713" lon="6.75436">
        <ele>369.1</ele>
        <time>2014-10-05T08:19:24.000Z</time>
      </trkpt>
      <trkpt lat="47.44706" lon="6.75437">
        <ele>368.9</ele>
        <time>2014-10-05T08:19:25.000Z</time>
      </trkpt>
      <trkpt lat="47.44702" lon="6.75436">
        <ele>368.9</ele>
        <time>2014-10-05T08:19:26.000Z</time>
      </trkpt>
      <trkpt lat="47.44698" lon="6.75436">
        <ele>369.3</ele>
        <time>2014-10-05T08:19:27.000Z</time>
      </trkpt>
      <trkpt lat="47.44694" lon="6.75435">
        <ele>369.4</ele>
        <time>2014-10-05T08:19:28.000Z</time>
      </trkpt>
      <trkpt lat="47.44689" lon="6.75435">
        <ele>370</ele>
        <time>2014-10-05T08:19:29.000Z</time>
      </trkpt>
      <trkpt lat="47.44686" lon="6.75434">
        <ele>370.4</ele>
        <time>2014-10-05T08:19:30.000Z</time>
      </trkpt>
      <trkpt lat="47.44683" lon="6.75433">
        <ele>371.3</ele>
        <time>2014-10-05T08:19:31.000Z</time>
      </trkpt>
      <trkpt lat="47.4468" lon="6.75434">
        <ele>371.8</ele>
        <time>2014-10-05T08:19:32.000Z</time>
      </trkpt>
      <trkpt lat="47.44676" lon="6.75432">
        <ele>370</ele>
        <time>2014-10-05T08:19:33.000Z</time>
      </trkpt>
      <trkpt lat="47.44673" lon="6.75432">
        <ele>370.8</ele>
        <time>2014-10-05T08:19:34.000Z</time>
      </trkpt>
      <trkpt lat="47.44669" lon="6.75432">
        <ele>371.8</ele>
        <time>2014-10-05T08:19:35.000Z</time>
      </trkpt>
      <trkpt lat="47.44665" lon="6.75432">
        <ele>371.5</ele>
        <time>2014-10-05T08:19:36.000Z</time>
      </trkpt>
      <trkpt lat="47.44661" lon="6.75432">
        <ele>371.8</ele>
        <time>2014-10-05T08:19:37.000Z</time>
      </trkpt>
      <trkpt lat="47.44657" lon="6.75432">
        <ele>372.1</ele>
        <time>2014-10-05T08:19:38.000Z</time>
      </trkpt>
      <trkpt lat="47.44654" lon="6.75433">
        <ele>372.1</ele>
        <time>2014-10-05T08:19:39.000Z</time>
      </trkpt>
      <trkpt lat="47.4465" lon="6.75433">
        <ele>372.9</ele>
        <time>2014-10-05T08:19:40.000Z</time>
      </trkpt>
      <trkpt lat="47.44646" lon="6.75433">
        <ele>372.2</ele>
        <time>2014-10-05T08:19:41.000Z</time>
      </trkpt>
      <trkpt lat="47.44642" lon="6.75433">
        <ele>373.5</ele>
        <time>2014-10-05T08:19:42.000Z</time>
      </trkpt>
      <trkpt lat="47.44638" lon="6.75432">
        <ele>374.4</ele>
        <time>2014-10-05T08:19:43.000Z</time>
      </trkpt>
      <trkpt lat="47.44635" lon="6.75432">
        <ele>376.1</ele>
        <time>2014-10-05T08:19:44.000Z</time>
      </trkpt>
      <trkpt lat="47.44628" lon="6.75434">
        <ele>374.8</ele>
        <time>2014-10-05T08:19:45.000Z</time>
      </trkpt>
      <trkpt lat="47.44625" lon="6.7543">
        <ele>373.3</ele>
        <time>2014-10-05T08:19:46.000Z</time>
      </trkpt>
      <trkpt lat="47.44619" lon="6.75431">
        <ele>372.3</ele>
        <time>2014-10-05T08:19:47.000Z</time>
      </trkpt>
      <trkpt lat="47.44616" lon="6.75431">
        <ele>373</ele>
        <time>2014-10-05T08:19:48.000Z</time>
      </trkpt>
      <trkpt lat="47.44612" lon="6.75428">
        <ele>373.2</ele>
        <time>2014-10-05T08:19:49.000Z</time>
      </trkpt>
      <trkpt lat="47.44609" lon="6.75425">
        <ele>373.5</ele>
        <time>2014-10-05T08:19:50.000Z</time>
      </trkpt>
      <trkpt lat="47.44603" lon="6.75428">
        <ele>373.2</ele>
        <time>2014-10-05T08:19:51.000Z</time>
      </trkpt>
      <trkpt lat="47.44598" lon="6.7543">
        <ele>374</ele>
        <time>2014-10-05T08:19:52.000Z</time>
      </trkpt>
      <trkpt lat="47.44593" lon="6.75431">
        <ele>375</ele>
        <time>2014-10-05T08:19:53.000Z</time>
      </trkpt>
      <trkpt lat="47.44588" lon="6.75431">
        <ele>375.4</ele>
        <time>2014-10-05T08:19:54.000Z</time>
      </trkpt>
      <trkpt lat="47.44583" lon="6.75433">
        <ele>375</ele>
        <time>2014-10-05T08:19:55.000Z</time>
      </trkpt>
      <trkpt lat="47.44578" lon="6.75434">
        <ele>374.8</ele>
        <time>2014-10-05T08:19:56.000Z</time>
      </trkpt>
      <trkpt lat="47.44573" lon="6.75434">
        <ele>375.1</ele>
        <time>2014-10-05T08:19:57.000Z</time>
      </trkpt>
      <trkpt lat="47.44567" lon="6.75435">
        <ele>375.5</ele>
        <time>2014-10-05T08:19:58.000Z</time>
      </trkpt>
      <trkpt lat="47.44562" lon="6.75436">
        <ele>375.4</ele>
        <time>2014-10-05T08:19:59.000Z</time>
      </trkpt>
      <trkpt lat="47.44557" lon="6.75437">
        <ele>375.6</ele>
        <time>2014-10-05T08:20:00.000Z</time>
      </trkpt>
      <trkpt lat="47.44552" lon="6.75438">
        <ele>376.1</ele>
        <time>2014-10-05T08:20:01.000Z</time>
      </trkpt>
      <trkpt lat="47.44547" lon="6.75438">
        <ele>375.9</ele>
        <time>2014-10-05T08:20:02.000Z</time>
      </trkpt>
      <trkpt lat="47.44542" lon="6.75438">
        <ele>376.4</ele>
        <time>2014-10-05T08:20:03.000Z</time>
      </trkpt>
      <trkpt lat="47.44537" lon="6.75439">
        <ele>376.1</ele>
        <time>2014-10-05T08:20:04.000Z</time>
      </trkpt>
      <trkpt lat="47.44532" lon="6.75435">
        <ele>374.7</ele>
        <time>2014-10-05T08:20:05.000Z</time>
      </trkpt>
      <trkpt lat="47.44527" lon="6.75433">
        <ele>374</ele>
        <time>2014-10-05T08:20:06.000Z</time>
      </trkpt>
      <trkpt lat="47.44523" lon="6.75432">
        <ele>374</ele>
        <time>2014-10-05T08:20:07.000Z</time>
      </trkpt>
      <trkpt lat="47.44519" lon="6.75429">
        <ele>375.2</ele>
        <time>2014-10-05T08:20:08.000Z</time>
      </trkpt>
      <trkpt lat="47.44514" lon="6.75429">
        <ele>374.6</ele>
        <time>2014-10-05T08:20:09.000Z</time>
      </trkpt>
      <trkpt lat="47.4451" lon="6.75428">
        <ele>374.9</ele>
        <time>2014-10-05T08:20:10.000Z</time>
      </trkpt>
      <trkpt lat="47.44506" lon="6.75425">
        <ele>375.6</ele>
        <time>2014-10-05T08:20:11.000Z</time>
      </trkpt>
      <trkpt lat="47.44502" lon="6.75424">
        <ele>376.1</ele>
        <time>2014-10-05T08:20:12.000Z</time>
      </trkpt>
      <trkpt lat="47.44497" lon="6.75421">
        <ele>376.3</ele>
        <time>2014-10-05T08:20:13.000Z</time>
      </trkpt>
      <trkpt lat="47.44493" lon="6.75419">
        <ele>376</ele>
        <time>2014-10-05T08:20:14.000Z</time>
      </trkpt>
      <trkpt lat="47.44489" lon="6.75416">
        <ele>375.7</ele>
        <time>2014-10-05T08:20:15.000Z</time>
      </trkpt>
      <trkpt lat="47.44485" lon="6.75412">
        <ele>375.4</ele>
        <time>2014-10-05T08:20:16.000Z</time>
      </trkpt>
      <trkpt lat="47.44456" lon="6.75379">
        <ele>378.6</ele>
        <time>2014-10-05T08:20:24.000Z</time>
      </trkpt>
      <trkpt lat="47.44453" lon="6.75374">
        <ele>379</ele>
        <time>2014-10-05T08:20:25.000Z</time>
      </trkpt>
      <trkpt lat="47.44449" lon="6.7537">
        <ele>380.1</ele>
        <time>2014-10-05T08:20:26.000Z</time>
      </trkpt>
      <trkpt lat="47.44444" lon="6.75368">
        <ele>381</ele>
        <time>2014-10-05T08:20:27.000Z</time>
      </trkpt>
      <trkpt lat="47.44441" lon="6.75363">
        <ele>381.5</ele>
        <time>2014-10-05T08:20:28.000Z</time>
      </trkpt>
      <trkpt lat="47.44439" lon="6.75359">
        <ele>382.2</ele>
        <time>2014-10-05T08:20:29.000Z</time>
      </trkpt>
      <trkpt lat="47.44436" lon="6.75355">
        <ele>382.2</ele>
        <time>2014-10-05T08:20:30.000Z</time>
      </trkpt>
      <trkpt lat="47.44431" lon="6.75351">
        <ele>382.2</ele>
        <time>2014-10-05T08:20:31.000Z</time>
      </trkpt>
      <trkpt lat="47.44428" lon="6.75347">
        <ele>381.8</ele>
        <time>2014-10-05T08:20:32.000Z</time>
      </trkpt>
      <trkpt lat="47.44425" lon="6.75344">
        <ele>381.8</ele>
        <time>2014-10-05T08:20:33.000Z</time>
      </trkpt>
      <trkpt lat="47.44421" lon="6.7534">
        <ele>382</ele>
        <time>2014-10-05T08:20:34.000Z</time>
      </trkpt>
      <trkpt lat="47.44417" lon="6.75335">
        <ele>381.6</ele>
        <time>2014-10-05T08:20:35.000Z</time>
      </trkpt>
      <trkpt lat="47.44414" lon="6.75331">
        <ele>381.4</ele>
        <time>2014-10-05T08:20:36.000Z</time>
      </trkpt>
      <trkpt lat="47.44409" lon="6.75328">
        <ele>381.3</ele>
        <time>2014-10-05T08:20:37.000Z</time>
      </trkpt>
      <trkpt lat="47.44404" lon="6.75323">
        <ele>381.5</ele>
        <time>2014-10-05T08:20:38.000Z</time>
      </trkpt>
      <trkpt lat="47.444" lon="6.75318">
        <ele>380.9</ele>
        <time>2014-10-05T08:20:39.000Z</time>
      </trkpt>
      <trkpt lat="47.44395" lon="6.75314">
        <ele>380.5</ele>
        <time>2014-10-05T08:20:40.000Z</time>
      </trkpt>
      <trkpt lat="47.44391" lon="6.75311">
        <ele>379.9</ele>
        <time>2014-10-05T08:20:41.000Z</time>
      </trkpt>
      <trkpt lat="47.44385" lon="6.75308">
        <ele>379.6</ele>
        <time>2014-10-05T08:20:42.000Z</time>
      </trkpt>
      <trkpt lat="47.44381" lon="6.75305">
        <ele>379.2</ele>
        <time>2014-10-05T08:20:43.000Z</time>
      </trkpt>
      <trkpt lat="47.44376" lon="6.75302">
        <ele>378.3</ele>
        <time>2014-10-05T08:20:44.000Z</time>
      </trkpt>
      <trkpt lat="47.44373" lon="6.75298">
        <ele>378.1</ele>
        <time>2014-10-05T08:20:45.000Z</time>
      </trkpt>
      <trkpt lat="47.44366" lon="6.75301">
        <ele>379.4</ele>
        <time>2014-10-05T08:20:46.000Z</time>
      </trkpt>
      <trkpt lat="47.44361" lon="6.75299">
        <ele>379.1</ele>
        <time>2014-10-05T08:20:47.000Z</time>
      </trkpt>
      <trkpt lat="47.44354" lon="6.75299">
        <ele>379</ele>
        <time>2014-10-05T08:20:48.000Z</time>
      </trkpt>
      <trkpt lat="47.44347" lon="6.75298">
        <ele>378.8</ele>
        <time>2014-10-05T08:20:49.000Z</time>
      </trkpt>
      <trkpt lat="47.44342" lon="6.75298">
        <ele>378.6</ele>
        <time>2014-10-05T08:20:50.000Z</time>
      </trkpt>
      <trkpt lat="47.44337" lon="6.75298">
        <ele>378.8</ele>
        <time>2014-10-05T08:20:51.000Z</time>
      </trkpt>
      <trkpt lat="47.44333" lon="6.75295">
        <ele>379.6</ele>
        <time>2014-10-05T08:20:52.000Z</time>
      </trkpt>
      <trkpt lat="47.44325" lon="6.75294">
        <ele>380.4</ele>
        <time>2014-10-05T08:20:53.000Z</time>
      </trkpt>
      <trkpt lat="47.44319" lon="6.75294">
        <ele>381.2</ele>
        <time>2014-10-05T08:20:54.000Z</time>
      </trkpt>
      <trkpt lat="47.44315" lon="6.75292">
        <ele>381.1</ele>
        <time>2014-10-05T08:20:55.000Z</time>
      </trkpt>
      <trkpt lat="47.44309" lon="6.75291">
        <ele>380.6</ele>
        <time>2014-10-05T08:20:56.000Z</time>
      </trkpt>
      <trkpt lat="47.44304" lon="6.75291">
        <ele>381.2</ele>
        <time>2014-10-05T08:20:57.000Z</time>
      </trkpt>
      <trkpt lat="47.443" lon="6.7529">
        <ele>381.2</ele>
        <time>2014-10-05T08:20:58.000Z</time>
      </trkpt>
      <trkpt lat="47.44295" lon="6.7529">
        <ele>381.6</ele>
        <time>2014-10-05T08:20:59.000Z</time>
      </trkpt>
      <trkpt lat="47.44289" lon="6.75288">
        <ele>381.8</ele>
        <time>2014-10-05T08:21:00.000Z</time>
      </trkpt>
      <trkpt lat="47.44286" lon="6.7529">
        <ele>385</ele>
        <time>2014-10-05T08:21:01.000Z</time>
      </trkpt>
      <trkpt lat="47.44283" lon="6.75289">
        <ele>385.7</ele>
        <time>2014-10-05T08:21:02.000Z</time>
      </trkpt>
      <trkpt lat="47.44279" lon="6.75287">
        <ele>386.1</ele>
        <time>2014-10-05T08:21:03.000Z</time>
      </trkpt>
      <trkpt lat="47.44276" lon="6.75284">
        <ele>385.9</ele>
        <time>2014-10-05T08:21:04.000Z</time>
      </trkpt>
      <trkpt lat="47.44271" lon="6.75282">
        <ele>385.7</ele>
        <time>2014-10-05T08:21:05.000Z</time>
      </trkpt>
      <trkpt lat="47.44267" lon="6.75282">
        <ele>387.3</ele>
        <time>2014-10-05T08:21:06.000Z</time>
      </trkpt>
      <trkpt lat="47.44264" lon="6.75278">
        <ele>386.8</ele>
        <time>2014-10-05T08:21:07.000Z</time>
      </trkpt>
      <trkpt lat="47.44261" lon="6.75276">
        <ele>386.6</ele>
        <time>2014-10-05T08:21:08.000Z</time>
      </trkpt>
      <trkpt lat="47.44257" lon="6.75275">
        <ele>386.2</ele>
        <time>2014-10-05T08:21:09.000Z</time>
      </trkpt>
      <trkpt lat="47.44256" lon="6.75272">
        <ele>386.6</ele>
        <time>2014-10-05T08:21:10.000Z</time>
      </trkpt>
      <trkpt lat="47.44252" lon="6.75267">
        <ele>384.6</ele>
        <time>2014-10-05T08:21:11.000Z</time>
      </trkpt>
      <trkpt lat="47.44247" lon="6.75262">
        <ele>387</ele>
        <time>2014-10-05T08:21:12.000Z</time>
      </trkpt>
      <trkpt lat="47.44244" lon="6.75259">
        <ele>387.1</ele>
        <time>2014-10-05T08:21:13.000Z</time>
      </trkpt>
      <trkpt lat="47.44239" lon="6.75256">
        <ele>386.9</ele>
        <time>2014-10-05T08:21:14.000Z</time>
      </trkpt>
      <trkpt lat="47.44234" lon="6.75253">
        <ele>387.8</ele>
        <time>2014-10-05T08:21:15.000Z</time>
      </trkpt>
      <trkpt lat="47.4423" lon="6.75249">
        <ele>387</ele>
        <time>2014-10-05T08:21:16.000Z</time>
      </trkpt>
      <trkpt lat="47.4422" lon="6.7524">
        <ele>388.2</ele>
        <time>2014-10-05T08:21:19.000Z</time>
      </trkpt>
      <trkpt lat="47.44216" lon="6.75235">
        <ele>388.4</ele>
        <time>2014-10-05T08:21:20.000Z</time>
      </trkpt>
      <trkpt lat="47.44213" lon="6.75231">
        <ele>388.7</ele>
        <time>2014-10-05T08:21:21.000Z</time>
      </trkpt>
      <trkpt lat="47.44209" lon="6.75226">
        <ele>388.3</ele>
        <time>2014-10-05T08:21:22.000Z</time>
      </trkpt>
      <trkpt lat="47.44207" lon="6.75222">
        <ele>388.2</ele>
        <time>2014-10-05T08:21:23.000Z</time>
      </trkpt>
      <trkpt lat="47.44205" lon="6.75219">
        <ele>387.9</ele>
        <time>2014-10-05T08:21:24.000Z</time>
      </trkpt>
      <trkpt lat="47.44199" lon="6.75215">
        <ele>388.7</ele>
        <time>2014-10-05T08:21:25.000Z</time>
      </trkpt>
      <trkpt lat="47.44195" lon="6.75207">
        <ele>388.2</ele>
        <time>2014-10-05T08:21:26.000Z</time>
      </trkpt>
      <trkpt lat="47.4419" lon="6.75202">
        <ele>387.1</ele>
        <time>2014-10-05T08:21:27.000Z</time>
      </trkpt>
      <trkpt lat="47.44187" lon="6.75197">
        <ele>387.2</ele>
        <time>2014-10-05T08:21:28.000Z</time>
      </trkpt>
      <trkpt lat="47.44183" lon="6.75193">
        <ele>387</ele>
        <time>2014-10-05T08:21:29.000Z</time>
      </trkpt>
      <trkpt lat="47.4418" lon="6.75188">
        <ele>386.8</ele>
        <time>2014-10-05T08:21:30.000Z</time>
      </trkpt>
      <trkpt lat="47.44176" lon="6.75184">
        <ele>386.3</ele>
        <time>2014-10-05T08:21:31.000Z</time>
      </trkpt>
      <trkpt lat="47.44172" lon="6.75179">
        <ele>387.3</ele>
        <time>2014-10-05T08:21:32.000Z</time>
      </trkpt>
      <trkpt lat="47.44169" lon="6.75174">
        <ele>387.2</ele>
        <time>2014-10-05T08:21:33.000Z</time>
      </trkpt>
      <trkpt lat="47.44165" lon="6.7517">
        <ele>387.2</ele>
        <time>2014-10-05T08:21:34.000Z</time>
      </trkpt>
      <trkpt lat="47.44162" lon="6.75164">
        <ele>386.8</ele>
        <time>2014-10-05T08:21:35.000Z</time>
      </trkpt>
      <trkpt lat="47.44158" lon="6.75159">
        <ele>386.9</ele>
        <time>2014-10-05T08:21:36.000Z</time>
      </trkpt>
      <trkpt lat="47.44154" lon="6.7515">
        <ele>385.3</ele>
        <time>2014-10-05T08:21:37.000Z</time>
      </trkpt>
      <trkpt lat="47.4415" lon="6.75143">
        <ele>384</ele>
        <time>2014-10-05T08:21:38.000Z</time>
      </trkpt>
      <trkpt lat="47.44146" lon="6.75137">
        <ele>384.2</ele>
        <time>2014-10-05T08:21:39.000Z</time>
      </trkpt>
      <trkpt lat="47.44142" lon="6.75131">
        <ele>384.1</ele>
        <time>2014-10-05T08:21:40.000Z</time>
      </trkpt>
      <trkpt lat="47.44138" lon="6.75124">
        <ele>383.5</ele>
        <time>2014-10-05T08:21:41.000Z</time>
      </trkpt>
      <trkpt lat="47.44135" lon="6.75118">
        <ele>383.5</ele>
        <time>2014-10-05T08:21:42.000Z</time>
      </trkpt>
      <trkpt lat="47.44131" lon="6.75111">
        <ele>383.7</ele>
        <time>2014-10-05T08:21:43.000Z</time>
      </trkpt>
      <trkpt lat="47.44128" lon="6.75105">
        <ele>383.4</ele>
        <time>2014-10-05T08:21:44.000Z</time>
      </trkpt>
      <trkpt lat="47.44124" lon="6.75098">
        <ele>383.6</ele>
        <time>2014-10-05T08:21:45.000Z</time>
      </trkpt>
      <trkpt lat="47.4412" lon="6.75092">
        <ele>383.5</ele>
        <time>2014-10-05T08:21:46.000Z</time>
      </trkpt>
      <trkpt lat="47.44117" lon="6.75084">
        <ele>382.9</ele>
        <time>2014-10-05T08:21:47.000Z</time>
      </trkpt>
      <trkpt lat="47.44114" lon="6.75077">
        <ele>382.2</ele>
        <time>2014-10-05T08:21:48.000Z</time>
      </trkpt>
      <trkpt lat="47.44111" lon="6.75071">
        <ele>383.2</ele>
        <time>2014-10-05T08:21:49.000Z</time>
      </trkpt>
      <trkpt lat="47.44108" lon="6.75064">
        <ele>383.1</ele>
        <time>2014-10-05T08:21:50.000Z</time>
      </trkpt>
      <trkpt lat="47.44105" lon="6.75058">
        <ele>383.3</ele>
        <time>2014-10-05T08:21:51.000Z</time>
      </trkpt>
      <trkpt lat="47.44102" lon="6.75052">
        <ele>383</ele>
        <time>2014-10-05T08:21:52.000Z</time>
      </trkpt>
      <trkpt lat="47.44098" lon="6.75046">
        <ele>383.5</ele>
        <time>2014-10-05T08:21:53.000Z</time>
      </trkpt>
      <trkpt lat="47.44095" lon="6.75039">
        <ele>383.5</ele>
        <time>2014-10-05T08:21:54.000Z</time>
      </trkpt>
      <trkpt lat="47.44092" lon="6.75033">
        <ele>382.6</ele>
        <time>2014-10-05T08:21:55.000Z</time>
      </trkpt>
      <trkpt lat="47.4409" lon="6.75025">
        <ele>382.5</ele>
        <time>2014-10-05T08:21:56.000Z</time>
      </trkpt>
      <trkpt lat="47.44088" lon="6.75019">
        <ele>383.2</ele>
        <time>2014-10-05T08:21:57.000Z</time>
      </trkpt>
      <trkpt lat="47.44085" lon="6.75013">
        <ele>383.7</ele>
        <time>2014-10-05T08:21:58.000Z</time>
      </trkpt>
      <trkpt lat="47.44083" lon="6.75007">
        <ele>383.4</ele>
        <time>2014-10-05T08:21:59.000Z</time>
      </trkpt>
      <trkpt lat="47.44082" lon="6.75002">
        <ele>383.7</ele>
        <time>2014-10-05T08:22:00.000Z</time>
      </trkpt>
      <trkpt lat="47.44081" lon="6.74997">
        <ele>383.2</ele>
        <time>2014-10-05T08:22:01.000Z</time>
      </trkpt>
      <trkpt lat="47.4408" lon="6.74992">
        <ele>383.7</ele>
        <time>2014-10-05T08:22:02.000Z</time>
      </trkpt>
      <trkpt lat="47.44077" lon="6.74987">
        <ele>383.8</ele>
        <time>2014-10-05T08:22:03.000Z</time>
      </trkpt>
      <trkpt lat="47.44075" lon="6.74982">
        <ele>383.4</ele>
        <time>2014-10-05T08:22:04.000Z</time>
      </trkpt>
      <trkpt lat="47.44072" lon="6.74978">
        <ele>383</ele>
        <time>2014-10-05T08:22:05.000Z</time>
      </trkpt>
      <trkpt lat="47.44069" lon="6.74973">
        <ele>383.3</ele>
        <time>2014-10-05T08:22:06.000Z</time>
      </trkpt>
      <trkpt lat="47.44066" lon="6.74969">
        <ele>383.1</ele>
        <time>2014-10-05T08:22:07.000Z</time>
      </trkpt>
      <trkpt lat="47.44064" lon="6.74963">
        <ele>383.2</ele>
        <time>2014-10-05T08:22:08.000Z</time>
      </trkpt>
      <trkpt lat="47.4406" lon="6.74958">
        <ele>383.5</ele>
        <time>2014-10-05T08:22:09.000Z</time>
      </trkpt>
      <trkpt lat="47.44058" lon="6.74955">
        <ele>383.2</ele>
        <time>2014-10-05T08:22:10.000Z</time>
      </trkpt>
      <trkpt lat="47.44056" lon="6.74952">
        <ele>382.6</ele>
        <time>2014-10-05T08:22:11.000Z</time>
      </trkpt>
      <trkpt lat="47.44054" lon="6.74949">
        <ele>382.4</ele>
        <time>2014-10-05T08:22:12.000Z</time>
      </trkpt>
      <trkpt lat="47.44051" lon="6.74943">
        <ele>382.5</ele>
        <time>2014-10-05T08:22:13.000Z</time>
      </trkpt>
      <trkpt lat="47.44049" lon="6.74938">
        <ele>382.5</ele>
        <time>2014-10-05T08:22:14.000Z</time>
      </trkpt>
      <trkpt lat="47.44046" lon="6.74934">
        <ele>382.1</ele>
        <time>2014-10-05T08:22:15.000Z</time>
      </trkpt>
      <trkpt lat="47.44043" lon="6.74931">
        <ele>383.7</ele>
        <time>2014-10-05T08:22:16.000Z</time>
      </trkpt>
      <trkpt lat="47.4402" lon="6.74899">
        <ele>389.1</ele>
        <time>2014-10-05T08:22:24.000Z</time>
      </trkpt>
      <trkpt lat="47.44017" lon="6.74895">
        <ele>389.9</ele>
        <time>2014-10-05T08:22:25.000Z</time>
      </trkpt>
      <trkpt lat="47.44014" lon="6.7489">
        <ele>390</ele>
        <time>2014-10-05T08:22:26.000Z</time>
      </trkpt>
      <trkpt lat="47.4401" lon="6.74886">
        <ele>389.8</ele>
        <time>2014-10-05T08:22:27.000Z</time>
      </trkpt>
      <trkpt lat="47.44008" lon="6.7488">
        <ele>388.3</ele>
        <time>2014-10-05T08:22:28.000Z</time>
      </trkpt>
      <trkpt lat="47.44005" lon="6.74876">
        <ele>388.2</ele>
        <time>2014-10-05T08:22:29.000Z</time>
      </trkpt>
      <trkpt lat="47.44002" lon="6.74872">
        <ele>388.3</ele>
        <time>2014-10-05T08:22:30.000Z</time>
      </trkpt>
      <trkpt lat="47.43999" lon="6.74868">
        <ele>388.3</ele>
        <time>2014-10-05T08:22:31.000Z</time>
      </trkpt>
      <trkpt lat="47.43997" lon="6.74866">
        <ele>390.7</ele>
        <time>2014-10-05T08:22:32.000Z</time>
      </trkpt>
      <trkpt lat="47.43994" lon="6.74863">
        <ele>391.5</ele>
        <time>2014-10-05T08:22:33.000Z</time>
      </trkpt>
      <trkpt lat="47.43991" lon="6.7486">
        <ele>391.8</ele>
        <time>2014-10-05T08:22:34.000Z</time>
      </trkpt>
      <trkpt lat="47.43987" lon="6.74858">
        <ele>392.2</ele>
        <time>2014-10-05T08:22:35.000Z</time>
      </trkpt>
      <trkpt lat="47.43984" lon="6.74855">
        <ele>392.5</ele>
        <time>2014-10-05T08:22:36.000Z</time>
      </trkpt>
      <trkpt lat="47.4398" lon="6.74851">
        <ele>391.1</ele>
        <time>2014-10-05T08:22:37.000Z</time>
      </trkpt>
      <trkpt lat="47.43977" lon="6.74848">
        <ele>392.4</ele>
        <time>2014-10-05T08:22:38.000Z</time>
      </trkpt>
      <trkpt lat="47.43973" lon="6.74844">
        <ele>392.2</ele>
        <time>2014-10-05T08:22:39.000Z</time>
      </trkpt>
      <trkpt lat="47.4397" lon="6.7484">
        <ele>391.9</ele>
        <time>2014-10-05T08:22:40.000Z</time>
      </trkpt>
      <trkpt lat="47.43964" lon="6.74836">
        <ele>392</ele>
        <time>2014-10-05T08:22:41.000Z</time>
      </trkpt>
      <trkpt lat="47.43959" lon="6.74833">
        <ele>392.1</ele>
        <time>2014-10-05T08:22:42.000Z</time>
      </trkpt>
      <trkpt lat="47.43956" lon="6.7483">
        <ele>391.1</ele>
        <time>2014-10-05T08:22:43.000Z</time>
      </trkpt>
      <trkpt lat="47.43951" lon="6.74827">
        <ele>391.1</ele>
        <time>2014-10-05T08:22:44.000Z</time>
      </trkpt>
      <trkpt lat="47.43946" lon="6.74824">
        <ele>391.4</ele>
        <time>2014-10-05T08:22:45.000Z</time>
      </trkpt>
      <trkpt lat="47.43941" lon="6.7482">
        <ele>390.4</ele>
        <time>2014-10-05T08:22:46.000Z</time>
      </trkpt>
      <trkpt lat="47.43938" lon="6.74815">
        <ele>389.7</ele>
        <time>2014-10-05T08:22:47.000Z</time>
      </trkpt>
      <trkpt lat="47.43935" lon="6.74812">
        <ele>389.5</ele>
        <time>2014-10-05T08:22:48.000Z</time>
      </trkpt>
      <trkpt lat="47.43931" lon="6.74807">
        <ele>389</ele>
        <time>2014-10-05T08:22:49.000Z</time>
      </trkpt>
      <trkpt lat="47.43927" lon="6.74804">
        <ele>388.5</ele>
        <time>2014-10-05T08:22:50.000Z</time>
      </trkpt>
      <trkpt lat="47.43921" lon="6.74802">
        <ele>386.8</ele>
        <time>2014-10-05T08:22:51.000Z</time>
      </trkpt>
      <trkpt lat="47.43918" lon="6.748">
        <ele>386</ele>
        <time>2014-10-05T08:22:52.000Z</time>
      </trkpt>
      <trkpt lat="47.43913" lon="6.74797">
        <ele>384.2</ele>
        <time>2014-10-05T08:22:53.000Z</time>
      </trkpt>
      <trkpt lat="47.43909" lon="6.74795">
        <ele>383.1</ele>
        <time>2014-10-05T08:22:54.000Z</time>
      </trkpt>
      <trkpt lat="47.43905" lon="6.74793">
        <ele>381.7</ele>
        <time>2014-10-05T08:22:55.000Z</time>
      </trkpt>
      <trkpt lat="47.439" lon="6.7479">
        <ele>382.3</ele>
        <time>2014-10-05T08:22:56.000Z</time>
      </trkpt>
      <trkpt lat="47.43895" lon="6.74788">
        <ele>382.5</ele>
        <time>2014-10-05T08:22:57.000Z</time>
      </trkpt>
      <trkpt lat="47.43892" lon="6.74784">
        <ele>382.4</ele>
        <time>2014-10-05T08:22:58.000Z</time>
      </trkpt>
      <trkpt lat="47.43887" lon="6.74781">
        <ele>381.4</ele>
        <time>2014-10-05T08:22:59.000Z</time>
      </trkpt>
      <trkpt lat="47.43883" lon="6.74778">
        <ele>381.5</ele>
        <time>2014-10-05T08:23:00.000Z</time>
      </trkpt>
      <trkpt lat="47.4388" lon="6.74775">
        <ele>382.2</ele>
        <time>2014-10-05T08:23:01.000Z</time>
      </trkpt>
      <trkpt lat="47.43876" lon="6.74772">
        <ele>382.9</ele>
        <time>2014-10-05T08:23:02.000Z</time>
      </trkpt>
      <trkpt lat="47.43871" lon="6.74769">
        <ele>383.1</ele>
        <time>2014-10-05T08:23:03.000Z</time>
      </trkpt>
      <trkpt lat="47.43868" lon="6.74766">
        <ele>384</ele>
        <time>2014-10-05T08:23:04.000Z</time>
      </trkpt>
      <trkpt lat="47.43864" lon="6.74762">
        <ele>384.7</ele>
        <time>2014-10-05T08:23:05.000Z</time>
      </trkpt>
      <trkpt lat="47.4386" lon="6.74757">
        <ele>383.9</ele>
        <time>2014-10-05T08:23:06.000Z</time>
      </trkpt>
      <trkpt lat="47.43857" lon="6.74753">
        <ele>383.9</ele>
        <time>2014-10-05T08:23:07.000Z</time>
      </trkpt>
      <trkpt lat="47.43853" lon="6.74748">
        <ele>384</ele>
        <time>2014-10-05T08:23:08.000Z</time>
      </trkpt>
      <trkpt lat="47.4385" lon="6.74742">
        <ele>382.1</ele>
        <time>2014-10-05T08:23:09.000Z</time>
      </trkpt>
      <trkpt lat="47.43847" lon="6.74737">
        <ele>381.7</ele>
        <time>2014-10-05T08:23:10.000Z</time>
      </trkpt>
      <trkpt lat="47.43844" lon="6.74733">
        <ele>381.8</ele>
        <time>2014-10-05T08:23:11.000Z</time>
      </trkpt>
      <trkpt lat="47.4384" lon="6.74729">
        <ele>381.9</ele>
        <time>2014-10-05T08:23:12.000Z</time>
      </trkpt>
      <trkpt lat="47.43834" lon="6.74726">
        <ele>382.6</ele>
        <time>2014-10-05T08:23:13.000Z</time>
      </trkpt>
      <trkpt lat="47.4383" lon="6.74722">
        <ele>382.5</ele>
        <time>2014-10-05T08:23:14.000Z</time>
      </trkpt>
      <trkpt lat="47.43827" lon="6.74717">
        <ele>382.8</ele>
        <time>2014-10-05T08:23:15.000Z</time>
      </trkpt>
      <trkpt lat="47.43824" lon="6.74712">
        <ele>382.8</ele>
        <time>2014-10-05T08:23:16.000Z</time>
      </trkpt>
      <trkpt lat="47.438" lon="6.74683">
        <ele>383.5</ele>
        <time>2014-10-05T08:23:24.000Z</time>
      </trkpt>
      <trkpt lat="47.43794" lon="6.74683">
        <ele>378.4</ele>
        <time>2014-10-05T08:23:25.000Z</time>
      </trkpt>
      <trkpt lat="47.43791" lon="6.7468">
        <ele>380.5</ele>
        <time>2014-10-05T08:23:26.000Z</time>
      </trkpt>
      <trkpt lat="47.43787" lon="6.74678">
        <ele>380.9</ele>
        <time>2014-10-05T08:23:27.000Z</time>
      </trkpt>
      <trkpt lat="47.43784" lon="6.74676">
        <ele>381</ele>
        <time>2014-10-05T08:23:28.000Z</time>
      </trkpt>
      <trkpt lat="47.4378" lon="6.74673">
        <ele>381.1</ele>
        <time>2014-10-05T08:23:29.000Z</time>
      </trkpt>
      <trkpt lat="47.43777" lon="6.74671">
        <ele>381.3</ele>
        <time>2014-10-05T08:23:30.000Z</time>
      </trkpt>
      <trkpt lat="47.43775" lon="6.74668">
        <ele>381.7</ele>
        <time>2014-10-05T08:23:31.000Z</time>
      </trkpt>
      <trkpt lat="47.43772" lon="6.74666">
        <ele>382.6</ele>
        <time>2014-10-05T08:23:32.000Z</time>
      </trkpt>
      <trkpt lat="47.4377" lon="6.74664">
        <ele>382.2</ele>
        <time>2014-10-05T08:23:33.000Z</time>
      </trkpt>
      <trkpt lat="47.43767" lon="6.74662">
        <ele>381.7</ele>
        <time>2014-10-05T08:23:34.000Z</time>
      </trkpt>
      <trkpt lat="47.43765" lon="6.74659">
        <ele>383.3</ele>
        <time>2014-10-05T08:23:35.000Z</time>
      </trkpt>
      <trkpt lat="47.43763" lon="6.74657">
        <ele>384.1</ele>
        <time>2014-10-05T08:23:36.000Z</time>
      </trkpt>
      <trkpt lat="47.43761" lon="6.74655">
        <ele>384.2</ele>
        <time>2014-10-05T08:23:37.000Z</time>
      </trkpt>
      <trkpt lat="47.43759" lon="6.74654">
        <ele>384.9</ele>
        <time>2014-10-05T08:23:38.000Z</time>
      </trkpt>
      <trkpt lat="47.43756" lon="6.74652">
        <ele>386.2</ele>
        <time>2014-10-05T08:23:39.000Z</time>
      </trkpt>
      <trkpt lat="47.43754" lon="6.74651">
        <ele>386.7</ele>
        <time>2014-10-05T08:23:40.000Z</time>
      </trkpt>
      <trkpt lat="47.43751" lon="6.74649">
        <ele>385.7</ele>
        <time>2014-10-05T08:23:41.000Z</time>
      </trkpt>
      <trkpt lat="47.43749" lon="6.74647">
        <ele>385.8</ele>
        <time>2014-10-05T08:23:42.000Z</time>
      </trkpt>
      <trkpt lat="47.43747" lon="6.74644">
        <ele>386</ele>
        <time>2014-10-05T08:23:43.000Z</time>
      </trkpt>
      <trkpt lat="47.43745" lon="6.74642">
        <ele>387.6</ele>
        <time>2014-10-05T08:23:44.000Z</time>
      </trkpt>
      <trkpt lat="47.43743" lon="6.7464">
        <ele>388</ele>
        <time>2014-10-05T08:23:45.000Z</time>
      </trkpt>
      <trkpt lat="47.43739" lon="6.74636">
        <ele>389.4</ele>
        <time>2014-10-05T08:23:47.000Z</time>
      </trkpt>
      <trkpt lat="47.43737" lon="6.74634">
        <ele>390.1</ele>
        <time>2014-10-05T08:23:48.000Z</time>
      </trkpt>
      <trkpt lat="47.43735" lon="6.74632">
        <ele>390.3</ele>
        <time>2014-10-05T08:23:49.000Z</time>
      </trkpt>
      <trkpt lat="47.43733" lon="6.74631">
        <ele>391.4</ele>
        <time>2014-10-05T08:23:50.000Z</time>
      </trkpt>
      <trkpt lat="47.43731" lon="6.74629">
        <ele>391.8</ele>
        <time>2014-10-05T08:23:51.000Z</time>
      </trkpt>
      <trkpt lat="47.43729" lon="6.74627">
        <ele>392</ele>
        <time>2014-10-05T08:23:52.000Z</time>
      </trkpt>
      <trkpt lat="47.43726" lon="6.74626">
        <ele>393.3</ele>
        <time>2014-10-05T08:23:53.000Z</time>
      </trkpt>
      <trkpt lat="47.43724" lon="6.74624">
        <ele>393.8</ele>
        <time>2014-10-05T08:23:54.000Z</time>
      </trkpt>
      <trkpt lat="47.43721" lon="6.7462">
        <ele>394.1</ele>
        <time>2014-10-05T08:23:56.000Z</time>
      </trkpt>
      <trkpt lat="47.43719" lon="6.74619">
        <ele>394.5</ele>
        <time>2014-10-05T08:23:57.000Z</time>
      </trkpt>
      <trkpt lat="47.43716" lon="6.74615">
        <ele>394.7</ele>
        <time>2014-10-05T08:23:59.000Z</time>
      </trkpt>
      <trkpt lat="47.43714" lon="6.74613">
        <ele>394.4</ele>
        <time>2014-10-05T08:24:00.000Z</time>
      </trkpt>
      <trkpt lat="47.43711" lon="6.74608">
        <ele>394.7</ele>
        <time>2014-10-05T08:24:02.000Z</time>
      </trkpt>
      <trkpt lat="47.43709" lon="6.74607">
        <ele>394.9</ele>
        <time>2014-10-05T08:24:03.000Z</time>
      </trkpt>
      <trkpt lat="47.43707" lon="6.74603">
        <ele>395.5</ele>
        <time>2014-10-05T08:24:05.000Z</time>
      </trkpt>
      <trkpt lat="47.43705" lon="6.74601">
        <ele>394.6</ele>
        <time>2014-10-05T08:24:06.000Z</time>
      </trkpt>
      <trkpt lat="47.43703" lon="6.74599">
        <ele>395.1</ele>
        <time>2014-10-05T08:24:07.000Z</time>
      </trkpt>
      <trkpt lat="47.43701" lon="6.74596">
        <ele>395.8</ele>
        <time>2014-10-05T08:24:08.000Z</time>
      </trkpt>
      <trkpt lat="47.43698" lon="6.74592">
        <ele>395.6</ele>
        <time>2014-10-05T08:24:10.000Z</time>
      </trkpt>
      <trkpt lat="47.43696" lon="6.74591">
        <ele>395.6</ele>
        <time>2014-10-05T08:24:11.000Z</time>
      </trkpt>
      <trkpt lat="47.43693" lon="6.74588">
        <ele>396.3</ele>
        <time>2014-10-05T08:24:13.000Z</time>
      </trkpt>
      <trkpt lat="47.43692" lon="6.74586">
        <ele>396.6</ele>
        <time>2014-10-05T08:24:14.000Z</time>
      </trkpt>
      <trkpt lat="47.43689" lon="6.74582">
        <ele>397.2</ele>
        <time>2014-10-05T08:24:16.000Z</time>
      </trkpt>
      <trkpt lat="47.43684" lon="6.74577">
        <ele>398.2</ele>
        <time>2014-10-05T08:24:19.000Z</time>
      </trkpt>
      <trkpt lat="47.43681" lon="6.74574">
        <ele>398.7</ele>
        <time>2014-10-05T08:24:23.000Z</time>
      </trkpt>
      <trkpt lat="47.4368" lon="6.74572">
        <ele>399.5</ele>
        <time>2014-10-05T08:24:24.000Z</time>
      </trkpt>
      <trkpt lat="47.43677" lon="6.74568">
        <ele>398.6</ele>
        <time>2014-10-05T08:24:26.000Z</time>
      </trkpt>
      <trkpt lat="47.43676" lon="6.74566">
        <ele>398.4</ele>
        <time>2014-10-05T08:24:27.000Z</time>
      </trkpt>
      <trkpt lat="47.43673" lon="6.74561">
        <ele>400.2</ele>
        <time>2014-10-05T08:24:29.000Z</time>
      </trkpt>
      <trkpt lat="47.43671" lon="6.74559">
        <ele>400.5</ele>
        <time>2014-10-05T08:24:30.000Z</time>
      </trkpt>
      <trkpt lat="47.4367" lon="6.74557">
        <ele>400.1</ele>
        <time>2014-10-05T08:24:31.000Z</time>
      </trkpt>
      <trkpt lat="47.43667" lon="6.74554">
        <ele>399.6</ele>
        <time>2014-10-05T08:24:32.000Z</time>
      </trkpt>
      <trkpt lat="47.43665" lon="6.74552">
        <ele>400</ele>
        <time>2014-10-05T08:24:33.000Z</time>
      </trkpt>
      <trkpt lat="47.43663" lon="6.7455">
        <ele>400.1</ele>
        <time>2014-10-05T08:24:34.000Z</time>
      </trkpt>
      <trkpt lat="47.43661" lon="6.74548">
        <ele>400.4</ele>
        <time>2014-10-05T08:24:35.000Z</time>
      </trkpt>
      <trkpt lat="47.43659" lon="6.74546">
        <ele>401.2</ele>
        <time>2014-10-05T08:24:36.000Z</time>
      </trkpt>
      <trkpt lat="47.43657" lon="6.74544">
        <ele>402.3</ele>
        <time>2014-10-05T08:24:37.000Z</time>
      </trkpt>
      <trkpt lat="47.43655" lon="6.74542">
        <ele>402.7</ele>
        <time>2014-10-05T08:24:38.000Z</time>
      </trkpt>
      <trkpt lat="47.43653" lon="6.7454">
        <ele>402.6</ele>
        <time>2014-10-05T08:24:39.000Z</time>
      </trkpt>
      <trkpt lat="47.43651" lon="6.74538">
        <ele>403.7</ele>
        <time>2014-10-05T08:24:40.000Z</time>
      </trkpt>
      <trkpt lat="47.43649" lon="6.74537">
        <ele>403.7</ele>
        <time>2014-10-05T08:24:41.000Z</time>
      </trkpt>
      <trkpt lat="47.43647" lon="6.74535">
        <ele>403.2</ele>
        <time>2014-10-05T08:24:42.000Z</time>
      </trkpt>
      <trkpt lat="47.43645" lon="6.74533">
        <ele>403.3</ele>
        <time>2014-10-05T08:24:43.000Z</time>
      </trkpt>
      <trkpt lat="47.43643" lon="6.7453">
        <ele>404.2</ele>
        <time>2014-10-05T08:24:44.000Z</time>
      </trkpt>
      <trkpt lat="47.43641" lon="6.74528">
        <ele>404.8</ele>
        <time>2014-10-05T08:24:45.000Z</time>
      </trkpt>
      <trkpt lat="47.43639" lon="6.74526">
        <ele>404.9</ele>
        <time>2014-10-05T08:24:46.000Z</time>
      </trkpt>
      <trkpt lat="47.43637" lon="6.74525">
        <ele>404.9</ele>
        <time>2014-10-05T08:24:47.000Z</time>
      </trkpt>
      <trkpt lat="47.43635" lon="6.74524">
        <ele>405.4</ele>
        <time>2014-10-05T08:24:48.000Z</time>
      </trkpt>
      <trkpt lat="47.43632" lon="6.74523">
        <ele>405.1</ele>
        <time>2014-10-05T08:24:49.000Z</time>
      </trkpt>
      <trkpt lat="47.4363" lon="6.74521">
        <ele>405.3</ele>
        <time>2014-10-05T08:24:50.000Z</time>
      </trkpt>
      <trkpt lat="47.43628" lon="6.74519">
        <ele>405.3</ele>
        <time>2014-10-05T08:24:51.000Z</time>
      </trkpt>
      <trkpt lat="47.43626" lon="6.74516">
        <ele>405.4</ele>
        <time>2014-10-05T08:24:52.000Z</time>
      </trkpt>
      <trkpt lat="47.43623" lon="6.74512">
        <ele>405.9</ele>
        <time>2014-10-05T08:24:54.000Z</time>
      </trkpt>
      <trkpt lat="47.43621" lon="6.74509">
        <ele>406.3</ele>
        <time>2014-10-05T08:24:55.000Z</time>
      </trkpt>
      <trkpt lat="47.4362" lon="6.74507">
        <ele>406</ele>
        <time>2014-10-05T08:24:56.000Z</time>
      </trkpt>
      <trkpt lat="47.43618" lon="6.74504">
        <ele>406.5</ele>
        <time>2014-10-05T08:24:57.000Z</time>
      </trkpt>
      <trkpt lat="47.43614" lon="6.745">
        <ele>407.3</ele>
        <time>2014-10-05T08:24:59.000Z</time>
      </trkpt>
      <trkpt lat="47.43612" lon="6.74498">
        <ele>407</ele>
        <time>2014-10-05T08:25:00.000Z</time>
      </trkpt>
      <trkpt lat="47.4361" lon="6.74496">
        <ele>406.6</ele>
        <time>2014-10-05T08:25:01.000Z</time>
      </trkpt>
      <trkpt lat="47.43608" lon="6.74495">
        <ele>406.7</ele>
        <time>2014-10-05T08:25:02.000Z</time>
      </trkpt>
      <trkpt lat="47.43605" lon="6.74493">
        <ele>406.6</ele>
        <time>2014-10-05T08:25:03.000Z</time>
      </trkpt>
      <trkpt lat="47.43602" lon="6.74491">
        <ele>407.1</ele>
        <time>2014-10-05T08:25:04.000Z</time>
      </trkpt>
      <trkpt lat="47.436" lon="6.74489">
        <ele>406.2</ele>
        <time>2014-10-05T08:25:05.000Z</time>
      </trkpt>
      <trkpt lat="47.43597" lon="6.74487">
        <ele>406.4</ele>
        <time>2014-10-05T08:25:06.000Z</time>
      </trkpt>
      <trkpt lat="47.43595" lon="6.74485">
        <ele>406.6</ele>
        <time>2014-10-05T08:25:07.000Z</time>
      </trkpt>
      <trkpt lat="47.43592" lon="6.74483">
        <ele>407</ele>
        <time>2014-10-05T08:25:08.000Z</time>
      </trkpt>
      <trkpt lat="47.43589" lon="6.74482">
        <ele>405.5</ele>
        <time>2014-10-05T08:25:09.000Z</time>
      </trkpt>
      <trkpt lat="47.43587" lon="6.7448">
        <ele>405.2</ele>
        <time>2014-10-05T08:25:10.000Z</time>
      </trkpt>
      <trkpt lat="47.43584" lon="6.74478">
        <ele>405</ele>
        <time>2014-10-05T08:25:11.000Z</time>
      </trkpt>
      <trkpt lat="47.43581" lon="6.74476">
        <ele>405.1</ele>
        <time>2014-10-05T08:25:12.000Z</time>
      </trkpt>
      <trkpt lat="47.43577" lon="6.74474">
        <ele>404.8</ele>
        <time>2014-10-05T08:25:13.000Z</time>
      </trkpt>
      <trkpt lat="47.43574" lon="6.74473">
        <ele>404.8</ele>
        <time>2014-10-05T08:25:14.000Z</time>
      </trkpt>
      <trkpt lat="47.4357" lon="6.74471">
        <ele>404.9</ele>
        <time>2014-10-05T08:25:15.000Z</time>
      </trkpt>
      <trkpt lat="47.43567" lon="6.74469">
        <ele>405.5</ele>
        <time>2014-10-05T08:25:16.000Z</time>
      </trkpt>
      <trkpt lat="47.43557" lon="6.74465">
        <ele>405.5</ele>
        <time>2014-10-05T08:25:19.000Z</time>
      </trkpt>
      <trkpt lat="47.43553" lon="6.74464">
        <ele>404.3</ele>
        <time>2014-10-05T08:25:20.000Z</time>
      </trkpt>
      <trkpt lat="47.43549" lon="6.74462">
        <ele>403.9</ele>
        <time>2014-10-05T08:25:21.000Z</time>
      </trkpt>
      <trkpt lat="47.43545" lon="6.7446">
        <ele>403.5</ele>
        <time>2014-10-05T08:25:22.000Z</time>
      </trkpt>
      <trkpt lat="47.43541" lon="6.74458">
        <ele>404</ele>
        <time>2014-10-05T08:25:23.000Z</time>
      </trkpt>
      <trkpt lat="47.43536" lon="6.74455">
        <ele>403.7</ele>
        <time>2014-10-05T08:25:24.000Z</time>
      </trkpt>
      <trkpt lat="47.43531" lon="6.74452">
        <ele>403.5</ele>
        <time>2014-10-05T08:25:25.000Z</time>
      </trkpt>
      <trkpt lat="47.43526" lon="6.74449">
        <ele>402.8</ele>
        <time>2014-10-05T08:25:26.000Z</time>
      </trkpt>
      <trkpt lat="47.43521" lon="6.74447">
        <ele>402.7</ele>
        <time>2014-10-05T08:25:27.000Z</time>
      </trkpt>
      <trkpt lat="47.43516" lon="6.74445">
        <ele>403.4</ele>
        <time>2014-10-05T08:25:28.000Z</time>
      </trkpt>
      <trkpt lat="47.43511" lon="6.74443">
        <ele>403.5</ele>
        <time>2014-10-05T08:25:29.000Z</time>
      </trkpt>
      <trkpt lat="47.43505" lon="6.74442">
        <ele>403.6</ele>
        <time>2014-10-05T08:25:30.000Z</time>
      </trkpt>
      <trkpt lat="47.43501" lon="6.74441">
        <ele>403.4</ele>
        <time>2014-10-05T08:25:31.000Z</time>
      </trkpt>
      <trkpt lat="47.43496" lon="6.74439">
        <ele>403.7</ele>
        <time>2014-10-05T08:25:32.000Z</time>
      </trkpt>
      <trkpt lat="47.43492" lon="6.74439">
        <ele>403.7</ele>
        <time>2014-10-05T08:25:33.000Z</time>
      </trkpt>
      <trkpt lat="47.43487" lon="6.74438">
        <ele>403.7</ele>
        <time>2014-10-05T08:25:34.000Z</time>
      </trkpt>
      <trkpt lat="47.43483" lon="6.74437">
        <ele>404.4</ele>
        <time>2014-10-05T08:25:35.000Z</time>
      </trkpt>
      <trkpt lat="47.43479" lon="6.74436">
        <ele>404.4</ele>
        <time>2014-10-05T08:25:36.000Z</time>
      </trkpt>
      <trkpt lat="47.43474" lon="6.74435">
        <ele>404.7</ele>
        <time>2014-10-05T08:25:37.000Z</time>
      </trkpt>
      <trkpt lat="47.43471" lon="6.74435">
        <ele>406</ele>
        <time>2014-10-05T08:25:38.000Z</time>
      </trkpt>
      <trkpt lat="47.43467" lon="6.74433">
        <ele>406.3</ele>
        <time>2014-10-05T08:25:39.000Z</time>
      </trkpt>
      <trkpt lat="47.43463" lon="6.74432">
        <ele>406.3</ele>
        <time>2014-10-05T08:25:40.000Z</time>
      </trkpt>
      <trkpt lat="47.4346" lon="6.7443">
        <ele>405.9</ele>
        <time>2014-10-05T08:25:41.000Z</time>
      </trkpt>
      <trkpt lat="47.43456" lon="6.74428">
        <ele>405.5</ele>
        <time>2014-10-05T08:25:42.000Z</time>
      </trkpt>
      <trkpt lat="47.43452" lon="6.74426">
        <ele>405.1</ele>
        <time>2014-10-05T08:25:43.000Z</time>
      </trkpt>
      <trkpt lat="47.43448" lon="6.74425">
        <ele>404.8</ele>
        <time>2014-10-05T08:25:44.000Z</time>
      </trkpt>
      <trkpt lat="47.43444" lon="6.74423">
        <ele>404.6</ele>
        <time>2014-10-05T08:25:45.000Z</time>
      </trkpt>
      <trkpt lat="47.4344" lon="6.74421">
        <ele>404.8</ele>
        <time>2014-10-05T08:25:46.000Z</time>
      </trkpt>
      <trkpt lat="47.43436" lon="6.74419">
        <ele>404.5</ele>
        <time>2014-10-05T08:25:47.000Z</time>
      </trkpt>
      <trkpt lat="47.43432" lon="6.74417">
        <ele>404.6</ele>
        <time>2014-10-05T08:25:48.000Z</time>
      </trkpt>
      <trkpt lat="47.43427" lon="6.74415">
        <ele>405.1</ele>
        <time>2014-10-05T08:25:49.000Z</time>
      </trkpt>
      <trkpt lat="47.43423" lon="6.74413">
        <ele>404.8</ele>
        <time>2014-10-05T08:25:50.000Z</time>
      </trkpt>
      <trkpt lat="47.43419" lon="6.74412">
        <ele>404.2</ele>
        <time>2014-10-05T08:25:51.000Z</time>
      </trkpt>
      <trkpt lat="47.43414" lon="6.7441">
        <ele>405</ele>
        <time>2014-10-05T08:25:52.000Z</time>
      </trkpt>
      <trkpt lat="47.4341" lon="6.74408">
        <ele>405.5</ele>
        <time>2014-10-05T08:25:53.000Z</time>
      </trkpt>
      <trkpt lat="47.43406" lon="6.74406">
        <ele>405.3</ele>
        <time>2014-10-05T08:25:54.000Z</time>
      </trkpt>
      <trkpt lat="47.43402" lon="6.74404">
        <ele>405.8</ele>
        <time>2014-10-05T08:25:55.000Z</time>
      </trkpt>
      <trkpt lat="47.43397" lon="6.74401">
        <ele>403.7</ele>
        <time>2014-10-05T08:25:56.000Z</time>
      </trkpt>
      <trkpt lat="47.43393" lon="6.74399">
        <ele>404.2</ele>
        <time>2014-10-05T08:25:57.000Z</time>
      </trkpt>
      <trkpt lat="47.43389" lon="6.74397">
        <ele>404.2</ele>
        <time>2014-10-05T08:25:58.000Z</time>
      </trkpt>
      <trkpt lat="47.43384" lon="6.74394">
        <ele>404</ele>
        <time>2014-10-05T08:25:59.000Z</time>
      </trkpt>
      <trkpt lat="47.4338" lon="6.74392">
        <ele>404</ele>
        <time>2014-10-05T08:26:00.000Z</time>
      </trkpt>
      <trkpt lat="47.43375" lon="6.74389">
        <ele>404.1</ele>
        <time>2014-10-05T08:26:01.000Z</time>
      </trkpt>
      <trkpt lat="47.4337" lon="6.74386">
        <ele>403.6</ele>
        <time>2014-10-05T08:26:02.000Z</time>
      </trkpt>
      <trkpt lat="47.43365" lon="6.74383">
        <ele>403.5</ele>
        <time>2014-10-05T08:26:03.000Z</time>
      </trkpt>
      <trkpt lat="47.4336" lon="6.7438">
        <ele>402.9</ele>
        <time>2014-10-05T08:26:04.000Z</time>
      </trkpt>
      <trkpt lat="47.43355" lon="6.74377">
        <ele>402.9</ele>
        <time>2014-10-05T08:26:05.000Z</time>
      </trkpt>
      <trkpt lat="47.4335" lon="6.74373">
        <ele>402.5</ele>
        <time>2014-10-05T08:26:06.000Z</time>
      </trkpt>
      <trkpt lat="47.43344" lon="6.7437">
        <ele>402.2</ele>
        <time>2014-10-05T08:26:07.000Z</time>
      </trkpt>
      <trkpt lat="47.43339" lon="6.74367">
        <ele>402.2</ele>
        <time>2014-10-05T08:26:08.000Z</time>
      </trkpt>
      <trkpt lat="47.43334" lon="6.74363">
        <ele>401.3</ele>
        <time>2014-10-05T08:26:09.000Z</time>
      </trkpt>
      <trkpt lat="47.4333" lon="6.7436">
        <ele>401.4</ele>
        <time>2014-10-05T08:26:10.000Z</time>
      </trkpt>
      <trkpt lat="47.43325" lon="6.74357">
        <ele>401.6</ele>
        <time>2014-10-05T08:26:11.000Z</time>
      </trkpt>
      <trkpt lat="47.4332" lon="6.74354">
        <ele>401.3</ele>
        <time>2014-10-05T08:26:12.000Z</time>
      </trkpt>
      <trkpt lat="47.43315" lon="6.74352">
        <ele>400.6</ele>
        <time>2014-10-05T08:26:13.000Z</time>
      </trkpt>
      <trkpt lat="47.43309" lon="6.74349">
        <ele>399.9</ele>
        <time>2014-10-05T08:26:14.000Z</time>
      </trkpt>
      <trkpt lat="47.43302" lon="6.74347">
        <ele>399.8</ele>
        <time>2014-10-05T08:26:15.000Z</time>
      </trkpt>
      <trkpt lat="47.43297" lon="6.74346">
        <ele>399.5</ele>
        <time>2014-10-05T08:26:16.000Z</time>
      </trkpt>
      <trkpt lat="47.43282" lon="6.74344">
        <ele>399.3</ele>
        <time>2014-10-05T08:26:19.000Z</time>
      </trkpt>
      <trkpt lat="47.43276" lon="6.74342">
        <ele>399.1</ele>
        <time>2014-10-05T08:26:20.000Z</time>
      </trkpt>
      <trkpt lat="47.43272" lon="6.74341">
        <ele>399.2</ele>
        <time>2014-10-05T08:26:21.000Z</time>
      </trkpt>
      <trkpt lat="47.43266" lon="6.74341">
        <ele>399</ele>
        <time>2014-10-05T08:26:22.000Z</time>
      </trkpt>
      <trkpt lat="47.43261" lon="6.7434">
        <ele>398.8</ele>
        <time>2014-10-05T08:26:23.000Z</time>
      </trkpt>
      <trkpt lat="47.43255" lon="6.74339">
        <ele>398.4</ele>
        <time>2014-10-05T08:26:24.000Z</time>
      </trkpt>
      <trkpt lat="47.4325" lon="6.74337">
        <ele>397.7</ele>
        <time>2014-10-05T08:26:25.000Z</time>
      </trkpt>
      <trkpt lat="47.43245" lon="6.74336">
        <ele>399.1</ele>
        <time>2014-10-05T08:26:26.000Z</time>
      </trkpt>
      <trkpt lat="47.4324" lon="6.74334">
        <ele>398.8</ele>
        <time>2014-10-05T08:26:27.000Z</time>
      </trkpt>
      <trkpt lat="47.43234" lon="6.74334">
        <ele>398.9</ele>
        <time>2014-10-05T08:26:28.000Z</time>
      </trkpt>
      <trkpt lat="47.43229" lon="6.74333">
        <ele>398.3</ele>
        <time>2014-10-05T08:26:29.000Z</time>
      </trkpt>
      <trkpt lat="47.43223" lon="6.74332">
        <ele>398.4</ele>
        <time>2014-10-05T08:26:30.000Z</time>
      </trkpt>
      <trkpt lat="47.43219" lon="6.74331">
        <ele>398.5</ele>
        <time>2014-10-05T08:26:31.000Z</time>
      </trkpt>
      <trkpt lat="47.43213" lon="6.74331">
        <ele>397.3</ele>
        <time>2014-10-05T08:26:32.000Z</time>
      </trkpt>
      <trkpt lat="47.43207" lon="6.74331">
        <ele>397.5</ele>
        <time>2014-10-05T08:26:33.000Z</time>
      </trkpt>
      <trkpt lat="47.43201" lon="6.74332">
        <ele>397.9</ele>
        <time>2014-10-05T08:26:34.000Z</time>
      </trkpt>
      <trkpt lat="47.43198" lon="6.74329">
        <ele>398.2</ele>
        <time>2014-10-05T08:26:35.000Z</time>
      </trkpt>
      <trkpt lat="47.43192" lon="6.74328">
        <ele>398.2</ele>
        <time>2014-10-05T08:26:36.000Z</time>
      </trkpt>
      <trkpt lat="47.43188" lon="6.74327">
        <ele>399.7</ele>
        <time>2014-10-05T08:26:37.000Z</time>
      </trkpt>
      <trkpt lat="47.4318" lon="6.74329">
        <ele>395.4</ele>
        <time>2014-10-05T08:26:38.000Z</time>
      </trkpt>
      <trkpt lat="47.43174" lon="6.74329">
        <ele>394.7</ele>
        <time>2014-10-05T08:26:39.000Z</time>
      </trkpt>
      <trkpt lat="47.43171" lon="6.74325">
        <ele>395.7</ele>
        <time>2014-10-05T08:26:40.000Z</time>
      </trkpt>
      <trkpt lat="47.43167" lon="6.74323">
        <ele>396.8</ele>
        <time>2014-10-05T08:26:41.000Z</time>
      </trkpt>
      <trkpt lat="47.43164" lon="6.7432">
        <ele>398.3</ele>
        <time>2014-10-05T08:26:42.000Z</time>
      </trkpt>
      <trkpt lat="47.4316" lon="6.74317">
        <ele>399.1</ele>
        <time>2014-10-05T08:26:43.000Z</time>
      </trkpt>
      <trkpt lat="47.43158" lon="6.74313">
        <ele>402.2</ele>
        <time>2014-10-05T08:26:44.000Z</time>
      </trkpt>
      <trkpt lat="47.43155" lon="6.7431">
        <ele>402.7</ele>
        <time>2014-10-05T08:26:45.000Z</time>
      </trkpt>
      <trkpt lat="47.4315" lon="6.74312">
        <ele>402.6</ele>
        <time>2014-10-05T08:26:46.000Z</time>
      </trkpt>
      <trkpt lat="47.43146" lon="6.74312">
        <ele>402</ele>
        <time>2014-10-05T08:26:47.000Z</time>
      </trkpt>
      <trkpt lat="47.43141" lon="6.74316">
        <ele>402</ele>
        <time>2014-10-05T08:26:48.000Z</time>
      </trkpt>
      <trkpt lat="47.43137" lon="6.74316">
        <ele>402.6</ele>
        <time>2014-10-05T08:26:49.000Z</time>
      </trkpt>
      <trkpt lat="47.43133" lon="6.74317">
        <ele>402.5</ele>
        <time>2014-10-05T08:26:50.000Z</time>
      </trkpt>
      <trkpt lat="47.43129" lon="6.74317">
        <ele>402.4</ele>
        <time>2014-10-05T08:26:51.000Z</time>
      </trkpt>
      <trkpt lat="47.43129" lon="6.74314">
        <ele>402.4</ele>
        <time>2014-10-05T08:26:52.000Z</time>
      </trkpt>
      <trkpt lat="47.43125" lon="6.74313">
        <ele>402.4</ele>
        <time>2014-10-05T08:26:54.000Z</time>
      </trkpt>
      <trkpt lat="47.43123" lon="6.74314">
        <ele>401.9</ele>
        <time>2014-10-05T08:26:55.000Z</time>
      </trkpt>
      <trkpt lat="47.43119" lon="6.74313">
        <ele>402.1</ele>
        <time>2014-10-05T08:26:58.000Z</time>
      </trkpt>
      <trkpt lat="47.43118" lon="6.74312">
        <ele>402.3</ele>
        <time>2014-10-05T08:26:59.000Z</time>
      </trkpt>
      <trkpt lat="47.43114" lon="6.74312">
        <ele>403.8</ele>
        <time>2014-10-05T08:27:02.000Z</time>
      </trkpt>
      <trkpt lat="47.43112" lon="6.74312">
        <ele>403.8</ele>
        <time>2014-10-05T08:27:03.000Z</time>
      </trkpt>
      <trkpt lat="47.43108" lon="6.74313">
        <ele>403.9</ele>
        <time>2014-10-05T08:27:05.000Z</time>
      </trkpt>
      <trkpt lat="47.43106" lon="6.74313">
        <ele>404.1</ele>
        <time>2014-10-05T08:27:06.000Z</time>
      </trkpt>
      <trkpt lat="47.43104" lon="6.74314">
        <ele>403.8</ele>
        <time>2014-10-05T08:27:07.000Z</time>
      </trkpt>
      <trkpt lat="47.43101" lon="6.74315">
        <ele>403.3</ele>
        <time>2014-10-05T08:27:08.000Z</time>
      </trkpt>
      <trkpt lat="47.43098" lon="6.74316">
        <ele>402</ele>
        <time>2014-10-05T08:27:09.000Z</time>
      </trkpt>
      <trkpt lat="47.43093" lon="6.74318">
        <ele>402.4</ele>
        <time>2014-10-05T08:27:10.000Z</time>
      </trkpt>
      <trkpt lat="47.43089" lon="6.7432">
        <ele>402.4</ele>
        <time>2014-10-05T08:27:11.000Z</time>
      </trkpt>
      <trkpt lat="47.43085" lon="6.74322">
        <ele>402.4</ele>
        <time>2014-10-05T08:27:12.000Z</time>
      </trkpt>
      <trkpt lat="47.43082" lon="6.74323">
        <ele>403.1</ele>
        <time>2014-10-05T08:27:13.000Z</time>
      </trkpt>
      <trkpt lat="47.43079" lon="6.74324">
        <ele>403.5</ele>
        <time>2014-10-05T08:27:14.000Z</time>
      </trkpt>
      <trkpt lat="47.43077" lon="6.74325">
        <ele>403.7</ele>
        <time>2014-10-05T08:27:15.000Z</time>
      </trkpt>
      <trkpt lat="47.43074" lon="6.74325">
        <ele>403.8</ele>
        <time>2014-10-05T08:27:16.000Z</time>
      </trkpt>
      <trkpt lat="47.43058" lon="6.74331">
        <ele>407.4</ele>
        <time>2014-10-05T08:27:24.000Z</time>
      </trkpt>
      <trkpt lat="47.43055" lon="6.74332">
        <ele>408.2</ele>
        <time>2014-10-05T08:27:26.000Z</time>
      </trkpt>
      <trkpt lat="47.43052" lon="6.74332">
        <ele>408.4</ele>
        <time>2014-10-05T08:27:27.000Z</time>
      </trkpt>
      <trkpt lat="47.4305" lon="6.74333">
        <ele>408.2</ele>
        <time>2014-10-05T08:27:28.000Z</time>
      </trkpt>
      <trkpt lat="47.43048" lon="6.74333">
        <ele>408.5</ele>
        <time>2014-10-05T08:27:29.000Z</time>
      </trkpt>
      <trkpt lat="47.43045" lon="6.74335">
        <ele>408</ele>
        <time>2014-10-05T08:27:30.000Z</time>
      </trkpt>
      <trkpt lat="47.43042" lon="6.74336">
        <ele>408.2</ele>
        <time>2014-10-05T08:27:31.000Z</time>
      </trkpt>
      <trkpt lat="47.43039" lon="6.74338">
        <ele>408.2</ele>
        <time>2014-10-05T08:27:32.000Z</time>
      </trkpt>
      <trkpt lat="47.43036" lon="6.74339">
        <ele>408.1</ele>
        <time>2014-10-05T08:27:33.000Z</time>
      </trkpt>
      <trkpt lat="47.43033" lon="6.74341">
        <ele>407.3</ele>
        <time>2014-10-05T08:27:34.000Z</time>
      </trkpt>
      <trkpt lat="47.43029" lon="6.74344">
        <ele>405.7</ele>
        <time>2014-10-05T08:27:35.000Z</time>
      </trkpt>
      <trkpt lat="47.43024" lon="6.74347">
        <ele>405</ele>
        <time>2014-10-05T08:27:36.000Z</time>
      </trkpt>
      <trkpt lat="47.43019" lon="6.7435">
        <ele>406</ele>
        <time>2014-10-05T08:27:37.000Z</time>
      </trkpt>
      <trkpt lat="47.43014" lon="6.74353">
        <ele>405.7</ele>
        <time>2014-10-05T08:27:38.000Z</time>
      </trkpt>
      <trkpt lat="47.4301" lon="6.74356">
        <ele>407.3</ele>
        <time>2014-10-05T08:27:39.000Z</time>
      </trkpt>
      <trkpt lat="47.43006" lon="6.74359">
        <ele>407.3</ele>
        <time>2014-10-05T08:27:40.000Z</time>
      </trkpt>
      <trkpt lat="47.43002" lon="6.74361">
        <ele>407.8</ele>
        <time>2014-10-05T08:27:41.000Z</time>
      </trkpt>
      <trkpt lat="47.43" lon="6.74363">
        <ele>410.1</ele>
        <time>2014-10-05T08:27:42.000Z</time>
      </trkpt>
      <trkpt lat="47.42998" lon="6.74364">
        <ele>411.9</ele>
        <time>2014-10-05T08:27:43.000Z</time>
      </trkpt>
      <trkpt lat="47.42993" lon="6.74366">
        <ele>414.4</ele>
        <time>2014-10-05T08:27:45.000Z</time>
      </trkpt>
      <trkpt lat="47.42991" lon="6.74367">
        <ele>416.7</ele>
        <time>2014-10-05T08:27:46.000Z</time>
      </trkpt>
      <trkpt lat="47.42989" lon="6.74368">
        <ele>418.5</ele>
        <time>2014-10-05T08:27:47.000Z</time>
      </trkpt>
      <trkpt lat="47.42986" lon="6.7437">
        <ele>421.8</ele>
        <time>2014-10-05T08:27:48.000Z</time>
      </trkpt>
      <trkpt lat="47.42984" lon="6.74372">
        <ele>423.8</ele>
        <time>2014-10-05T08:27:49.000Z</time>
      </trkpt>
      <trkpt lat="47.42982" lon="6.74374">
        <ele>425.2</ele>
        <time>2014-10-05T08:27:50.000Z</time>
      </trkpt>
      <trkpt lat="47.4298" lon="6.74376">
        <ele>425.1</ele>
        <time>2014-10-05T08:27:51.000Z</time>
      </trkpt>
      <trkpt lat="47.42978" lon="6.74378">
        <ele>426.8</ele>
        <time>2014-10-05T08:27:52.000Z</time>
      </trkpt>
      <trkpt lat="47.42976" lon="6.7438">
        <ele>428.2</ele>
        <time>2014-10-05T08:27:53.000Z</time>
      </trkpt>
      <trkpt lat="47.42973" lon="6.74382">
        <ele>428.7</ele>
        <time>2014-10-05T08:27:54.000Z</time>
      </trkpt>
      <trkpt lat="47.4297" lon="6.74384">
        <ele>432.3</ele>
        <time>2014-10-05T08:27:56.000Z</time>
      </trkpt>
      <trkpt lat="47.42969" lon="6.74385">
        <ele>432.9</ele>
        <time>2014-10-05T08:27:57.000Z</time>
      </trkpt>
      <trkpt lat="47.42965" lon="6.74387">
        <ele>432.9</ele>
        <time>2014-10-05T08:28:01.000Z</time>
      </trkpt>
      <trkpt lat="47.42964" lon="6.74387">
        <ele>433</ele>
        <time>2014-10-05T08:28:02.000Z</time>
      </trkpt>
      <trkpt lat="47.42962" lon="6.74386">
        <ele>433</ele>
        <time>2014-10-05T08:28:04.000Z</time>
      </trkpt>
      <trkpt lat="47.4296" lon="6.74385">
        <ele>431</ele>
        <time>2014-10-05T08:28:05.000Z</time>
      </trkpt>
      <trkpt lat="47.42958" lon="6.74383">
        <ele>430.5</ele>
        <time>2014-10-05T08:28:06.000Z</time>
      </trkpt>
      <trkpt lat="47.42956" lon="6.74381">
        <ele>430.5</ele>
        <time>2014-10-05T08:28:07.000Z</time>
      </trkpt>
      <trkpt lat="47.42953" lon="6.74379">
        <ele>427.9</ele>
        <time>2014-10-05T08:28:09.000Z</time>
      </trkpt>
      <trkpt lat="47.42951" lon="6.74378">
        <ele>424.9</ele>
        <time>2014-10-05T08:28:10.000Z</time>
      </trkpt>
      <trkpt lat="47.42949" lon="6.74376">
        <ele>423.6</ele>
        <time>2014-10-05T08:28:11.000Z</time>
      </trkpt>
      <trkpt lat="47.42946" lon="6.74375">
        <ele>423.5</ele>
        <time>2014-10-05T08:28:12.000Z</time>
      </trkpt>
      <trkpt lat="47.42944" lon="6.74374">
        <ele>423.2</ele>
        <time>2014-10-05T08:28:13.000Z</time>
      </trkpt>
      <trkpt lat="47.42942" lon="6.74373">
        <ele>425.2</ele>
        <time>2014-10-05T08:28:14.000Z</time>
      </trkpt>
      <trkpt lat="47.42939" lon="6.7437">
        <ele>426.9</ele>
        <time>2014-10-05T08:28:16.000Z</time>
      </trkpt>
      <trkpt lat="47.42927" lon="6.74362">
        <ele>429.6</ele>
        <time>2014-10-05T08:28:24.000Z</time>
      </trkpt>
      <trkpt lat="47.42923" lon="6.74361">
        <ele>429.8</ele>
        <time>2014-10-05T08:28:27.000Z</time>
      </trkpt>
      <trkpt lat="47.42921" lon="6.7436">
        <ele>424.9</ele>
        <time>2014-10-05T08:28:28.000Z</time>
      </trkpt>
      <trkpt lat="47.42918" lon="6.74358">
        <ele>426.3</ele>
        <time>2014-10-05T08:28:29.000Z</time>
      </trkpt>
      <trkpt lat="47.42916" lon="6.74355">
        <ele>427.6</ele>
        <time>2014-10-05T08:28:30.000Z</time>
      </trkpt>
      <trkpt lat="47.42913" lon="6.74354">
        <ele>427.9</ele>
        <time>2014-10-05T08:28:31.000Z</time>
      </trkpt>
      <trkpt lat="47.4291" lon="6.74352">
        <ele>428.4</ele>
        <time>2014-10-05T08:28:32.000Z</time>
      </trkpt>
      <trkpt lat="47.42908" lon="6.7435">
        <ele>428.5</ele>
        <time>2014-10-05T08:28:33.000Z</time>
      </trkpt>
      <trkpt lat="47.42906" lon="6.74348">
        <ele>428.1</ele>
        <time>2014-10-05T08:28:34.000Z</time>
      </trkpt>
      <trkpt lat="47.42903" lon="6.74346">
        <ele>427.4</ele>
        <time>2014-10-05T08:28:35.000Z</time>
      </trkpt>
      <trkpt lat="47.42901" lon="6.74344">
        <ele>427</ele>
        <time>2014-10-05T08:28:36.000Z</time>
      </trkpt>
      <trkpt lat="47.42899" lon="6.74342">
        <ele>427.1</ele>
        <time>2014-10-05T08:28:37.000Z</time>
      </trkpt>
      <trkpt lat="47.42896" lon="6.74341">
        <ele>428</ele>
        <time>2014-10-05T08:28:38.000Z</time>
      </trkpt>
      <trkpt lat="47.42894" lon="6.74339">
        <ele>428.6</ele>
        <time>2014-10-05T08:28:39.000Z</time>
      </trkpt>
      <trkpt lat="47.42892" lon="6.74338">
        <ele>428.6</ele>
        <time>2014-10-05T08:28:40.000Z</time>
      </trkpt>
      <trkpt lat="47.42889" lon="6.74336">
        <ele>428.6</ele>
        <time>2014-10-05T08:28:41.000Z</time>
      </trkpt>
      <trkpt lat="47.42887" lon="6.74335">
        <ele>428.7</ele>
        <time>2014-10-05T08:28:42.000Z</time>
      </trkpt>
      <trkpt lat="47.42885" lon="6.74333">
        <ele>428.7</ele>
        <time>2014-10-05T08:28:43.000Z</time>
      </trkpt>
      <trkpt lat="47.42883" lon="6.74331">
        <ele>428</ele>
        <time>2014-10-05T08:28:44.000Z</time>
      </trkpt>
      <trkpt lat="47.4288" lon="6.74329">
        <ele>427.6</ele>
        <time>2014-10-05T08:28:45.000Z</time>
      </trkpt>
      <trkpt lat="47.42878" lon="6.74327">
        <ele>427.5</ele>
        <time>2014-10-05T08:28:46.000Z</time>
      </trkpt>
      <trkpt lat="47.42876" lon="6.74324">
        <ele>427.3</ele>
        <time>2014-10-05T08:28:47.000Z</time>
      </trkpt>
      <trkpt lat="47.42873" lon="6.74322">
        <ele>427.7</ele>
        <time>2014-10-05T08:28:48.000Z</time>
      </trkpt>
      <trkpt lat="47.4287" lon="6.7432">
        <ele>428.1</ele>
        <time>2014-10-05T08:28:49.000Z</time>
      </trkpt>
      <trkpt lat="47.42868" lon="6.74317">
        <ele>427.8</ele>
        <time>2014-10-05T08:28:50.000Z</time>
      </trkpt>
      <trkpt lat="47.42865" lon="6.74314">
        <ele>427.7</ele>
        <time>2014-10-05T08:28:51.000Z</time>
      </trkpt>
      <trkpt lat="47.42862" lon="6.74311">
        <ele>427.3</ele>
        <time>2014-10-05T08:28:52.000Z</time>
      </trkpt>
      <trkpt lat="47.4286" lon="6.74307">
        <ele>427.2</ele>
        <time>2014-10-05T08:28:53.000Z</time>
      </trkpt>
      <trkpt lat="47.42857" lon="6.74304">
        <ele>427.1</ele>
        <time>2014-10-05T08:28:54.000Z</time>
      </trkpt>
      <trkpt lat="47.42853" lon="6.74302">
        <ele>427.4</ele>
        <time>2014-10-05T08:28:55.000Z</time>
      </trkpt>
      <trkpt lat="47.4285" lon="6.743">
        <ele>427.6</ele>
        <time>2014-10-05T08:28:56.000Z</time>
      </trkpt>
      <trkpt lat="47.42847" lon="6.74298">
        <ele>427.5</ele>
        <time>2014-10-05T08:28:57.000Z</time>
      </trkpt>
      <trkpt lat="47.42843" lon="6.74296">
        <ele>427.7</ele>
        <time>2014-10-05T08:28:58.000Z</time>
      </trkpt>
      <trkpt lat="47.4284" lon="6.74294">
        <ele>427.8</ele>
        <time>2014-10-05T08:28:59.000Z</time>
      </trkpt>
      <trkpt lat="47.42837" lon="6.74291">
        <ele>427.5</ele>
        <time>2014-10-05T08:29:00.000Z</time>
      </trkpt>
      <trkpt lat="47.42834" lon="6.74287">
        <ele>427.4</ele>
        <time>2014-10-05T08:29:01.000Z</time>
      </trkpt>
      <trkpt lat="47.4283" lon="6.74283">
        <ele>427.4</ele>
        <time>2014-10-05T08:29:02.000Z</time>
      </trkpt>
      <trkpt lat="47.42827" lon="6.7428">
        <ele>426.9</ele>
        <time>2014-10-05T08:29:03.000Z</time>
      </trkpt>
      <trkpt lat="47.42823" lon="6.74276">
        <ele>426.9</ele>
        <time>2014-10-05T08:29:04.000Z</time>
      </trkpt>
      <trkpt lat="47.42818" lon="6.74273">
        <ele>427.2</ele>
        <time>2014-10-05T08:29:05.000Z</time>
      </trkpt>
      <trkpt lat="47.42814" lon="6.7427">
        <ele>427.2</ele>
        <time>2014-10-05T08:29:06.000Z</time>
      </trkpt>
      <trkpt lat="47.4281" lon="6.74267">
        <ele>425.8</ele>
        <time>2014-10-05T08:29:07.000Z</time>
      </trkpt>
      <trkpt lat="47.42806" lon="6.74264">
        <ele>425.5</ele>
        <time>2014-10-05T08:29:08.000Z</time>
      </trkpt>
      <trkpt lat="47.42802" lon="6.74261">
        <ele>425.1</ele>
        <time>2014-10-05T08:29:09.000Z</time>
      </trkpt>
      <trkpt lat="47.42798" lon="6.74258">
        <ele>424.8</ele>
        <time>2014-10-05T08:29:10.000Z</time>
      </trkpt>
      <trkpt lat="47.42794" lon="6.74255">
        <ele>424.3</ele>
        <time>2014-10-05T08:29:11.000Z</time>
      </trkpt>
      <trkpt lat="47.42789" lon="6.74252">
        <ele>424.2</ele>
        <time>2014-10-05T08:29:12.000Z</time>
      </trkpt>
      <trkpt lat="47.42785" lon="6.7425">
        <ele>425.5</ele>
        <time>2014-10-05T08:29:13.000Z</time>
      </trkpt>
      <trkpt lat="47.42781" lon="6.74247">
        <ele>424.9</ele>
        <time>2014-10-05T08:29:14.000Z</time>
      </trkpt>
      <trkpt lat="47.42776" lon="6.74246">
        <ele>424.7</ele>
        <time>2014-10-05T08:29:15.000Z</time>
      </trkpt>
      <trkpt lat="47.42772" lon="6.74244">
        <ele>426.1</ele>
        <time>2014-10-05T08:29:16.000Z</time>
      </trkpt>
      <trkpt lat="47.42744" lon="6.74238">
        <ele>428.1</ele>
        <time>2014-10-05T08:29:24.000Z</time>
      </trkpt>
      <trkpt lat="47.42741" lon="6.74235">
        <ele>426.4</ele>
        <time>2014-10-05T08:29:26.000Z</time>
      </trkpt>
      <trkpt lat="47.42739" lon="6.74233">
        <ele>426</ele>
        <time>2014-10-05T08:29:27.000Z</time>
      </trkpt>
      <trkpt lat="47.42737" lon="6.7423">
        <ele>425.6</ele>
        <time>2014-10-05T08:29:28.000Z</time>
      </trkpt>
      <trkpt lat="47.42735" lon="6.74229">
        <ele>425.4</ele>
        <time>2014-10-05T08:29:29.000Z</time>
      </trkpt>
      <trkpt lat="47.42732" lon="6.74227">
        <ele>425</ele>
        <time>2014-10-05T08:29:30.000Z</time>
      </trkpt>
      <trkpt lat="47.42729" lon="6.74225">
        <ele>425.3</ele>
        <time>2014-10-05T08:29:31.000Z</time>
      </trkpt>
      <trkpt lat="47.42726" lon="6.74225">
        <ele>427.7</ele>
        <time>2014-10-05T08:29:32.000Z</time>
      </trkpt>
      <trkpt lat="47.42721" lon="6.74227">
        <ele>430.1</ele>
        <time>2014-10-05T08:29:33.000Z</time>
      </trkpt>
      <trkpt lat="47.42716" lon="6.74229">
        <ele>429.3</ele>
        <time>2014-10-05T08:29:34.000Z</time>
      </trkpt>
      <trkpt lat="47.4271" lon="6.74232">
        <ele>429.6</ele>
        <time>2014-10-05T08:29:35.000Z</time>
      </trkpt>
      <trkpt lat="47.42705" lon="6.74235">
        <ele>430.3</ele>
        <time>2014-10-05T08:29:36.000Z</time>
      </trkpt>
      <trkpt lat="47.427" lon="6.74236">
        <ele>431.7</ele>
        <time>2014-10-05T08:29:37.000Z</time>
      </trkpt>
      <trkpt lat="47.42696" lon="6.74238">
        <ele>432.8</ele>
        <time>2014-10-05T08:29:38.000Z</time>
      </trkpt>
      <trkpt lat="47.42693" lon="6.74239">
        <ele>433.7</ele>
        <time>2014-10-05T08:29:39.000Z</time>
      </trkpt>
      <trkpt lat="47.4269" lon="6.7424">
        <ele>435.1</ele>
        <time>2014-10-05T08:29:40.000Z</time>
      </trkpt>
      <trkpt lat="47.42687" lon="6.7424">
        <ele>439.1</ele>
        <time>2014-10-05T08:29:41.000Z</time>
      </trkpt>
      <trkpt lat="47.42683" lon="6.74241">
        <ele>438.8</ele>
        <time>2014-10-05T08:29:42.000Z</time>
      </trkpt>
      <trkpt lat="47.4268" lon="6.74242">
        <ele>436.9</ele>
        <time>2014-10-05T08:29:43.000Z</time>
      </trkpt>
      <trkpt lat="47.42677" lon="6.74243">
        <ele>437.9</ele>
        <time>2014-10-05T08:29:44.000Z</time>
      </trkpt>
      <trkpt lat="47.42675" lon="6.74245">
        <ele>438</ele>
        <time>2014-10-05T08:29:45.000Z</time>
      </trkpt>
      <trkpt lat="47.42671" lon="6.74248">
        <ele>444.7</ele>
        <time>2014-10-05T08:29:47.000Z</time>
      </trkpt>
      <trkpt lat="47.42669" lon="6.74249">
        <ele>447.2</ele>
        <time>2014-10-05T08:29:48.000Z</time>
      </trkpt>
      <trkpt lat="47.42665" lon="6.74249">
        <ele>448.5</ele>
        <time>2014-10-05T08:29:51.000Z</time>
      </trkpt>
      <trkpt lat="47.42663" lon="6.74249">
        <ele>448.8</ele>
        <time>2014-10-05T08:29:52.000Z</time>
      </trkpt>
      <trkpt lat="47.42661" lon="6.7425">
        <ele>449.2</ele>
        <time>2014-10-05T08:29:53.000Z</time>
      </trkpt>
      <trkpt lat="47.42658" lon="6.74251">
        <ele>449.3</ele>
        <time>2014-10-05T08:29:54.000Z</time>
      </trkpt>
      <trkpt lat="47.42654" lon="6.74252">
        <ele>448.7</ele>
        <time>2014-10-05T08:29:55.000Z</time>
      </trkpt>
      <trkpt lat="47.4265" lon="6.74254">
        <ele>447.5</ele>
        <time>2014-10-05T08:29:56.000Z</time>
      </trkpt>
      <trkpt lat="47.42645" lon="6.74255">
        <ele>447.1</ele>
        <time>2014-10-05T08:29:57.000Z</time>
      </trkpt>
      <trkpt lat="47.42641" lon="6.74257">
        <ele>446.8</ele>
        <time>2014-10-05T08:29:58.000Z</time>
      </trkpt>
      <trkpt lat="47.42637" lon="6.74258">
        <ele>446.5</ele>
        <time>2014-10-05T08:29:59.000Z</time>
      </trkpt>
      <trkpt lat="47.42632" lon="6.74259">
        <ele>446.1</ele>
        <time>2014-10-05T08:30:00.000Z</time>
      </trkpt>
      <trkpt lat="47.42628" lon="6.7426">
        <ele>446.1</ele>
        <time>2014-10-05T08:30:01.000Z</time>
      </trkpt>
      <trkpt lat="47.42624" lon="6.7426">
        <ele>445.9</ele>
        <time>2014-10-05T08:30:02.000Z</time>
      </trkpt>
      <trkpt lat="47.4262" lon="6.74261">
        <ele>445.9</ele>
        <time>2014-10-05T08:30:03.000Z</time>
      </trkpt>
      <trkpt lat="47.42616" lon="6.74263">
        <ele>444.9</ele>
        <time>2014-10-05T08:30:04.000Z</time>
      </trkpt>
      <trkpt lat="47.42612" lon="6.74264">
        <ele>445</ele>
        <time>2014-10-05T08:30:05.000Z</time>
      </trkpt>
      <trkpt lat="47.42609" lon="6.74265">
        <ele>445.4</ele>
        <time>2014-10-05T08:30:06.000Z</time>
      </trkpt>
      <trkpt lat="47.42606" lon="6.74266">
        <ele>445.3</ele>
        <time>2014-10-05T08:30:07.000Z</time>
      </trkpt>
      <trkpt lat="47.42603" lon="6.74266">
        <ele>445.4</ele>
        <time>2014-10-05T08:30:08.000Z</time>
      </trkpt>
      <trkpt lat="47.426" lon="6.74266">
        <ele>445.9</ele>
        <time>2014-10-05T08:30:09.000Z</time>
      </trkpt>
      <trkpt lat="47.42598" lon="6.74267">
        <ele>442.7</ele>
        <time>2014-10-05T08:30:10.000Z</time>
      </trkpt>
      <trkpt lat="47.42595" lon="6.74269">
        <ele>440.5</ele>
        <time>2014-10-05T08:30:11.000Z</time>
      </trkpt>
      <trkpt lat="47.42591" lon="6.7427">
        <ele>439.6</ele>
        <time>2014-10-05T08:30:12.000Z</time>
      </trkpt>
      <trkpt lat="47.42587" lon="6.74272">
        <ele>439.5</ele>
        <time>2014-10-05T08:30:13.000Z</time>
      </trkpt>
      <trkpt lat="47.42584" lon="6.74273">
        <ele>439.2</ele>
        <time>2014-10-05T08:30:14.000Z</time>
      </trkpt>
      <trkpt lat="47.4258" lon="6.74274">
        <ele>436.4</ele>
        <time>2014-10-05T08:30:15.000Z</time>
      </trkpt>
      <trkpt lat="47.42578" lon="6.74274">
        <ele>437.3</ele>
        <time>2014-10-05T08:30:16.000Z</time>
      </trkpt>
      <trkpt lat="47.42561" lon="6.74269">
        <ele>439</ele>
        <time>2014-10-05T08:30:24.000Z</time>
      </trkpt>
      <trkpt lat="47.42557" lon="6.74268">
        <ele>439.8</ele>
        <time>2014-10-05T08:30:26.000Z</time>
      </trkpt>
      <trkpt lat="47.42554" lon="6.74268">
        <ele>436.1</ele>
        <time>2014-10-05T08:30:27.000Z</time>
      </trkpt>
      <trkpt lat="47.4255" lon="6.74268">
        <ele>436.3</ele>
        <time>2014-10-05T08:30:28.000Z</time>
      </trkpt>
      <trkpt lat="47.42546" lon="6.74269">
        <ele>436.9</ele>
        <time>2014-10-05T08:30:29.000Z</time>
      </trkpt>
      <trkpt lat="47.42542" lon="6.74269">
        <ele>436.7</ele>
        <time>2014-10-05T08:30:30.000Z</time>
      </trkpt>
      <trkpt lat="47.42537" lon="6.74268">
        <ele>436.1</ele>
        <time>2014-10-05T08:30:31.000Z</time>
      </trkpt>
      <trkpt lat="47.42533" lon="6.74267">
        <ele>436.2</ele>
        <time>2014-10-05T08:30:32.000Z</time>
      </trkpt>
      <trkpt lat="47.4253" lon="6.74266">
        <ele>435.7</ele>
        <time>2014-10-05T08:30:33.000Z</time>
      </trkpt>
      <trkpt lat="47.42526" lon="6.74265">
        <ele>435.7</ele>
        <time>2014-10-05T08:30:34.000Z</time>
      </trkpt>
      <trkpt lat="47.42522" lon="6.74264">
        <ele>436</ele>
        <time>2014-10-05T08:30:35.000Z</time>
      </trkpt>
      <trkpt lat="47.42519" lon="6.74263">
        <ele>437</ele>
        <time>2014-10-05T08:30:36.000Z</time>
      </trkpt>
      <trkpt lat="47.42516" lon="6.74262">
        <ele>438</ele>
        <time>2014-10-05T08:30:37.000Z</time>
      </trkpt>
      <trkpt lat="47.42513" lon="6.74261">
        <ele>439.1</ele>
        <time>2014-10-05T08:30:38.000Z</time>
      </trkpt>
      <trkpt lat="47.42511" lon="6.7426">
        <ele>439.9</ele>
        <time>2014-10-05T08:30:39.000Z</time>
      </trkpt>
      <trkpt lat="47.42508" lon="6.7426">
        <ele>437.4</ele>
        <time>2014-10-05T08:30:40.000Z</time>
      </trkpt>
      <trkpt lat="47.42506" lon="6.7426">
        <ele>437</ele>
        <time>2014-10-05T08:30:41.000Z</time>
      </trkpt>
      <trkpt lat="47.42501" lon="6.74259">
        <ele>437.2</ele>
        <time>2014-10-05T08:30:43.000Z</time>
      </trkpt>
      <trkpt lat="47.42499" lon="6.74259">
        <ele>437.7</ele>
        <time>2014-10-05T08:30:44.000Z</time>
      </trkpt>
      <trkpt lat="47.42495" lon="6.74257">
        <ele>437.7</ele>
        <time>2014-10-05T08:30:46.000Z</time>
      </trkpt>
      <trkpt lat="47.42493" lon="6.74255">
        <ele>438.1</ele>
        <time>2014-10-05T08:30:47.000Z</time>
      </trkpt>
      <trkpt lat="47.4249" lon="6.74254">
        <ele>438.7</ele>
        <time>2014-10-05T08:30:48.000Z</time>
      </trkpt>
      <trkpt lat="47.42488" lon="6.74253">
        <ele>439.2</ele>
        <time>2014-10-05T08:30:49.000Z</time>
      </trkpt>
      <trkpt lat="47.42486" lon="6.74252">
        <ele>439.3</ele>
        <time>2014-10-05T08:30:50.000Z</time>
      </trkpt>
      <trkpt lat="47.42483" lon="6.74251">
        <ele>439.1</ele>
        <time>2014-10-05T08:30:51.000Z</time>
      </trkpt>
      <trkpt lat="47.42481" lon="6.7425">
        <ele>440</ele>
        <time>2014-10-05T08:30:52.000Z</time>
      </trkpt>
      <trkpt lat="47.42478" lon="6.7425">
        <ele>441</ele>
        <time>2014-10-05T08:30:53.000Z</time>
      </trkpt>
      <trkpt lat="47.42475" lon="6.74249">
        <ele>443.8</ele>
        <time>2014-10-05T08:30:54.000Z</time>
      </trkpt>
      <trkpt lat="47.42473" lon="6.74249">
        <ele>442.9</ele>
        <time>2014-10-05T08:30:55.000Z</time>
      </trkpt>
      <trkpt lat="47.4247" lon="6.74248">
        <ele>444.3</ele>
        <time>2014-10-05T08:30:56.000Z</time>
      </trkpt>
      <trkpt lat="47.42467" lon="6.74247">
        <ele>444.4</ele>
        <time>2014-10-05T08:30:57.000Z</time>
      </trkpt>
      <trkpt lat="47.42465" lon="6.74246">
        <ele>444.7</ele>
        <time>2014-10-05T08:30:58.000Z</time>
      </trkpt>
      <trkpt lat="47.42462" lon="6.74245">
        <ele>444.5</ele>
        <time>2014-10-05T08:30:59.000Z</time>
      </trkpt>
      <trkpt lat="47.4246" lon="6.74245">
        <ele>444.8</ele>
        <time>2014-10-05T08:31:00.000Z</time>
      </trkpt>
      <trkpt lat="47.42458" lon="6.74243">
        <ele>449.5</ele>
        <time>2014-10-05T08:31:01.000Z</time>
      </trkpt>
      <trkpt lat="47.42455" lon="6.74242">
        <ele>449.9</ele>
        <time>2014-10-05T08:31:02.000Z</time>
      </trkpt>
      <trkpt lat="47.42453" lon="6.74241">
        <ele>450.5</ele>
        <time>2014-10-05T08:31:03.000Z</time>
      </trkpt>
      <trkpt lat="47.4245" lon="6.7424">
        <ele>450.9</ele>
        <time>2014-10-05T08:31:04.000Z</time>
      </trkpt>
      <trkpt lat="47.42448" lon="6.74239">
        <ele>450.7</ele>
        <time>2014-10-05T08:31:05.000Z</time>
      </trkpt>
      <trkpt lat="47.42444" lon="6.74238">
        <ele>451</ele>
        <time>2014-10-05T08:31:07.000Z</time>
      </trkpt>
      <trkpt lat="47.42442" lon="6.74238">
        <ele>451.5</ele>
        <time>2014-10-05T08:31:08.000Z</time>
      </trkpt>
      <trkpt lat="47.42438" lon="6.74238">
        <ele>452.4</ele>
        <time>2014-10-05T08:31:10.000Z</time>
      </trkpt>
      <trkpt lat="47.42436" lon="6.74238">
        <ele>452.8</ele>
        <time>2014-10-05T08:31:11.000Z</time>
      </trkpt>
      <trkpt lat="47.42432" lon="6.74237">
        <ele>453.8</ele>
        <time>2014-10-05T08:31:13.000Z</time>
      </trkpt>
      <trkpt lat="47.4243" lon="6.74237">
        <ele>454.3</ele>
        <time>2014-10-05T08:31:14.000Z</time>
      </trkpt>
      <trkpt lat="47.42428" lon="6.74237">
        <ele>454.4</ele>
        <time>2014-10-05T08:31:15.000Z</time>
      </trkpt>
      <trkpt lat="47.42425" lon="6.74236">
        <ele>455.5</ele>
        <time>2014-10-05T08:31:16.000Z</time>
      </trkpt>
      <trkpt lat="47.42404" lon="6.74236">
        <ele>442.6</ele>
        <time>2014-10-05T08:31:24.000Z</time>
      </trkpt>
      <trkpt lat="47.424" lon="6.74236">
        <ele>442.4</ele>
        <time>2014-10-05T08:31:26.000Z</time>
      </trkpt>
      <trkpt lat="47.42398" lon="6.74236">
        <ele>442.1</ele>
        <time>2014-10-05T08:31:27.000Z</time>
      </trkpt>
      <trkpt lat="47.42394" lon="6.74237">
        <ele>440</ele>
        <time>2014-10-05T08:31:30.000Z</time>
      </trkpt>
      <trkpt lat="47.42393" lon="6.74238">
        <ele>439.6</ele>
        <time>2014-10-05T08:31:31.000Z</time>
      </trkpt>
      <trkpt lat="47.4239" lon="6.74243">
        <ele>440.1</ele>
        <time>2014-10-05T08:31:49.000Z</time>
      </trkpt>
      <trkpt lat="47.42389" lon="6.74244">
        <ele>440.1</ele>
        <time>2014-10-05T08:31:50.000Z</time>
      </trkpt>
      <trkpt lat="47.42385" lon="6.74246">
        <ele>441.3</ele>
        <time>2014-10-05T08:31:53.000Z</time>
      </trkpt>
      <trkpt lat="47.42383" lon="6.74247">
        <ele>442.8</ele>
        <time>2014-10-05T08:31:54.000Z</time>
      </trkpt>
      <trkpt lat="47.42379" lon="6.74248">
        <ele>445.4</ele>
        <time>2014-10-05T08:31:57.000Z</time>
      </trkpt>
      <trkpt lat="47.42378" lon="6.74249">
        <ele>445.8</ele>
        <time>2014-10-05T08:31:58.000Z</time>
      </trkpt>
      <trkpt lat="47.42375" lon="6.74252">
        <ele>447.3</ele>
        <time>2014-10-05T08:32:01.000Z</time>
      </trkpt>
      <trkpt lat="47.42373" lon="6.74253">
        <ele>447.8</ele>
        <time>2014-10-05T08:32:02.000Z</time>
      </trkpt>
      <trkpt lat="47.42369" lon="6.74254">
        <ele>448.4</ele>
        <time>2014-10-05T08:32:05.000Z</time>
      </trkpt>
      <trkpt lat="47.42368" lon="6.74255">
        <ele>448.7</ele>
        <time>2014-10-05T08:32:06.000Z</time>
      </trkpt>
      <trkpt lat="47.42365" lon="6.74258">
        <ele>447.9</ele>
        <time>2014-10-05T08:32:08.000Z</time>
      </trkpt>
      <trkpt lat="47.42364" lon="6.74259">
        <ele>448.8</ele>
        <time>2014-10-05T08:32:09.000Z</time>
      </trkpt>
      <trkpt lat="47.42361" lon="6.74264">
        <ele>450.5</ele>
        <time>2014-10-05T08:32:12.000Z</time>
      </trkpt>
      <trkpt lat="47.4236" lon="6.74265">
        <ele>451.9</ele>
        <time>2014-10-05T08:32:13.000Z</time>
      </trkpt>
      <trkpt lat="47.42358" lon="6.74266">
        <ele>453</ele>
        <time>2014-10-05T08:32:16.000Z</time>
      </trkpt>
      <trkpt lat="47.42356" lon="6.74269">
        <ele>436.7</ele>
        <time>2014-10-05T08:32:19.000Z</time>
      </trkpt>
      <trkpt lat="47.42353" lon="6.74274">
        <ele>437</ele>
        <time>2014-10-05T08:32:23.000Z</time>
      </trkpt>
      <trkpt lat="47.42353" lon="6.74274">
        <ele>436.4</ele>
        <time>2014-10-05T08:32:24.000Z</time>
      </trkpt>
      <trkpt lat="47.42352" lon="6.7428">
        <ele>438.3</ele>
        <time>2014-10-05T08:32:36.000Z</time>
      </trkpt>
      <trkpt lat="47.42351" lon="6.7428">
        <ele>439.2</ele>
        <time>2014-10-05T08:32:37.000Z</time>
      </trkpt>
      <trkpt lat="47.42347" lon="6.74283">
        <ele>444.5</ele>
        <time>2014-10-05T08:32:43.000Z</time>
      </trkpt>
      <trkpt lat="47.42347" lon="6.74284">
        <ele>445.7</ele>
        <time>2014-10-05T08:32:44.000Z</time>
      </trkpt>
      <trkpt lat="47.42346" lon="6.74289">
        <ele>444.8</ele>
        <time>2014-10-05T08:32:47.000Z</time>
      </trkpt>
      <trkpt lat="47.42346" lon="6.74291">
        <ele>447.2</ele>
        <time>2014-10-05T08:32:48.000Z</time>
      </trkpt>
      <trkpt lat="47.42344" lon="6.74295">
        <ele>445.4</ele>
        <time>2014-10-05T08:32:54.000Z</time>
      </trkpt>
      <trkpt lat="47.42343" lon="6.74298">
        <ele>443.1</ele>
        <time>2014-10-05T08:32:55.000Z</time>
      </trkpt>
      <trkpt lat="47.4234" lon="6.74302">
        <ele>442.8</ele>
        <time>2014-10-05T08:33:00.000Z</time>
      </trkpt>
      <trkpt lat="47.4234" lon="6.74303">
        <ele>443</ele>
        <time>2014-10-05T08:33:01.000Z</time>
      </trkpt>
      <trkpt lat="47.42337" lon="6.74306">
        <ele>441.5</ele>
        <time>2014-10-05T08:33:04.000Z</time>
      </trkpt>
      <trkpt lat="47.42336" lon="6.74308">
        <ele>439.9</ele>
        <time>2014-10-05T08:33:05.000Z</time>
      </trkpt>
      <trkpt lat="47.42335" lon="6.74312">
        <ele>437.4</ele>
        <time>2014-10-05T08:33:07.000Z</time>
      </trkpt>
      <trkpt lat="47.42335" lon="6.74314">
        <ele>438.5</ele>
        <time>2014-10-05T08:33:08.000Z</time>
      </trkpt>
      <trkpt lat="47.42334" lon="6.7432">
        <ele>438.2</ele>
        <time>2014-10-05T08:33:11.000Z</time>
      </trkpt>
      <trkpt lat="47.42334" lon="6.74322">
        <ele>439.5</ele>
        <time>2014-10-05T08:33:12.000Z</time>
      </trkpt>
      <trkpt lat="47.42332" lon="6.74327">
        <ele>448.2</ele>
        <time>2014-10-05T08:33:21.000Z</time>
      </trkpt>
      <trkpt lat="47.42332" lon="6.74328">
        <ele>448.1</ele>
        <time>2014-10-05T08:33:22.000Z</time>
      </trkpt>
      <trkpt lat="47.4233" lon="6.74334">
        <ele>451.4</ele>
        <time>2014-10-05T08:33:29.000Z</time>
      </trkpt>
      <trkpt lat="47.4233" lon="6.74335">
        <ele>451.8</ele>
        <time>2014-10-05T08:33:30.000Z</time>
      </trkpt>
      <trkpt lat="47.42329" lon="6.74342">
        <ele>456.7</ele>
        <time>2014-10-05T08:33:35.000Z</time>
      </trkpt>
      <trkpt lat="47.4233" lon="6.74343">
        <ele>457.6</ele>
        <time>2014-10-05T08:33:36.000Z</time>
      </trkpt>
      <trkpt lat="47.4233" lon="6.74349">
        <ele>458.8</ele>
        <time>2014-10-05T08:33:39.000Z</time>
      </trkpt>
      <trkpt lat="47.42329" lon="6.7435">
        <ele>458.4</ele>
        <time>2014-10-05T08:33:40.000Z</time>
      </trkpt>
      <trkpt lat="47.42326" lon="6.7435">
        <ele>458.6</ele>
        <time>2014-10-05T08:33:46.000Z</time>
      </trkpt>
      <trkpt lat="47.42323" lon="6.74351">
        <ele>458.4</ele>
        <time>2014-10-05T08:33:47.000Z</time>
      </trkpt>
      <trkpt lat="47.4232" lon="6.74353">
        <ele>456.1</ele>
        <time>2014-10-05T08:33:53.000Z</time>
      </trkpt>
      <trkpt lat="47.42319" lon="6.74354">
        <ele>455.8</ele>
        <time>2014-10-05T08:33:54.000Z</time>
      </trkpt>
      <trkpt lat="47.42318" lon="6.7436">
        <ele>458.1</ele>
        <time>2014-10-05T08:34:14.000Z</time>
      </trkpt>
      <trkpt lat="47.42318" lon="6.74361">
        <ele>458.4</ele>
        <time>2014-10-05T08:34:15.000Z</time>
      </trkpt>
      <trkpt lat="47.42316" lon="6.74367">
        <ele>445.4</ele>
        <time>2014-10-05T08:34:22.000Z</time>
      </trkpt>
      <trkpt lat="47.42316" lon="6.74367">
        <ele>446.3</ele>
        <time>2014-10-05T08:34:23.000Z</time>
      </trkpt>
      <trkpt lat="47.42315" lon="6.74373">
        <ele>449.7</ele>
        <time>2014-10-05T08:34:29.000Z</time>
      </trkpt>
      <trkpt lat="47.42315" lon="6.74374">
        <ele>447.9</ele>
        <time>2014-10-05T08:34:30.000Z</time>
      </trkpt>
      <trkpt lat="47.42317" lon="6.74379">
        <ele>455.7</ele>
        <time>2014-10-05T08:34:37.000Z</time>
      </trkpt>
      <trkpt lat="47.42318" lon="6.74379">
        <ele>456.8</ele>
        <time>2014-10-05T08:34:38.000Z</time>
      </trkpt>
      <trkpt lat="47.42321" lon="6.74383">
        <ele>458.5</ele>
        <time>2014-10-05T08:34:42.000Z</time>
      </trkpt>
      <trkpt lat="47.42322" lon="6.74384">
        <ele>460.5</ele>
        <time>2014-10-05T08:34:43.000Z</time>
      </trkpt>
      <trkpt lat="47.42326" lon="6.74385">
        <ele>465.3</ele>
        <time>2014-10-05T08:34:48.000Z</time>
      </trkpt>
      <trkpt lat="47.42327" lon="6.74385">
        <ele>464.5</ele>
        <time>2014-10-05T08:34:49.000Z</time>
      </trkpt>
      <trkpt lat="47.4233" lon="6.7439">
        <ele>463.9</ele>
        <time>2014-10-05T08:34:56.000Z</time>
      </trkpt>
      <trkpt lat="47.4233" lon="6.74391">
        <ele>464</ele>
        <time>2014-10-05T08:34:57.000Z</time>
      </trkpt>
      <trkpt lat="47.4233" lon="6.74396">
        <ele>459.4</ele>
        <time>2014-10-05T08:35:15.000Z</time>
      </trkpt>
      <trkpt lat="47.4233" lon="6.74397">
        <ele>460</ele>
        <time>2014-10-05T08:35:16.000Z</time>
      </trkpt>
      <trkpt lat="47.4233" lon="6.74399">
        <ele>460.1</ele>
        <time>2014-10-05T08:35:17.000Z</time>
      </trkpt>
      <trkpt lat="47.42328" lon="6.74406">
        <ele>444.1</ele>
        <time>2014-10-05T08:35:20.000Z</time>
      </trkpt>
      <trkpt lat="47.42326" lon="6.74412">
        <ele>449.5</ele>
        <time>2014-10-05T08:35:23.000Z</time>
      </trkpt>
      <trkpt lat="47.42327" lon="6.74413">
        <ele>451.2</ele>
        <time>2014-10-05T08:35:24.000Z</time>
      </trkpt>
      <trkpt lat="47.42326" lon="6.74419">
        <ele>454</ele>
        <time>2014-10-05T08:35:28.000Z</time>
      </trkpt>
      <trkpt lat="47.42325" lon="6.74421">
        <ele>453.4</ele>
        <time>2014-10-05T08:35:29.000Z</time>
      </trkpt>
      <trkpt lat="47.42323" lon="6.74425">
        <ele>454</ele>
        <time>2014-10-05T08:35:31.000Z</time>
      </trkpt>
      <trkpt lat="47.42323" lon="6.74427">
        <ele>454.7</ele>
        <time>2014-10-05T08:35:32.000Z</time>
      </trkpt>
      <trkpt lat="47.42321" lon="6.74432">
        <ele>455</ele>
        <time>2014-10-05T08:35:34.000Z</time>
      </trkpt>
      <trkpt lat="47.4232" lon="6.74434">
        <ele>455.2</ele>
        <time>2014-10-05T08:35:35.000Z</time>
      </trkpt>
      <trkpt lat="47.42319" lon="6.74438">
        <ele>455.2</ele>
        <time>2014-10-05T08:35:37.000Z</time>
      </trkpt>
      <trkpt lat="47.42319" lon="6.74441">
        <ele>455.9</ele>
        <time>2014-10-05T08:35:38.000Z</time>
      </trkpt>
      <trkpt lat="47.42318" lon="6.74446">
        <ele>456.8</ele>
        <time>2014-10-05T08:35:41.000Z</time>
      </trkpt>
      <trkpt lat="47.42317" lon="6.74449">
        <ele>457.1</ele>
        <time>2014-10-05T08:35:42.000Z</time>
      </trkpt>
      <trkpt lat="47.42315" lon="6.74453">
        <ele>459.4</ele>
        <time>2014-10-05T08:35:45.000Z</time>
      </trkpt>
      <trkpt lat="47.42315" lon="6.74455">
        <ele>459.1</ele>
        <time>2014-10-05T08:35:46.000Z</time>
      </trkpt>
      <trkpt lat="47.42314" lon="6.7446">
        <ele>458.3</ele>
        <time>2014-10-05T08:35:48.000Z</time>
      </trkpt>
      <trkpt lat="47.42314" lon="6.74463">
        <ele>458.3</ele>
        <time>2014-10-05T08:35:49.000Z</time>
      </trkpt>
      <trkpt lat="47.42314" lon="6.74469">
        <ele>458.4</ele>
        <time>2014-10-05T08:35:51.000Z</time>
      </trkpt>
      <trkpt lat="47.42314" lon="6.74471">
        <ele>458.4</ele>
        <time>2014-10-05T08:35:52.000Z</time>
      </trkpt>
      <trkpt lat="47.42314" lon="6.74475">
        <ele>458.2</ele>
        <time>2014-10-05T08:35:54.000Z</time>
      </trkpt>
      <trkpt lat="47.42314" lon="6.74478">
        <ele>458.5</ele>
        <time>2014-10-05T08:35:55.000Z</time>
      </trkpt>
      <trkpt lat="47.42314" lon="6.74484">
        <ele>459.4</ele>
        <time>2014-10-05T08:35:58.000Z</time>
      </trkpt>
      <trkpt lat="47.42314" lon="6.74485">
        <ele>460.1</ele>
        <time>2014-10-05T08:35:59.000Z</time>
      </trkpt>
      <trkpt lat="47.42318" lon="6.74488">
        <ele>463.8</ele>
        <time>2014-10-05T08:36:03.000Z</time>
      </trkpt>
      <trkpt lat="47.4232" lon="6.74488">
        <ele>465</ele>
        <time>2014-10-05T08:36:04.000Z</time>
      </trkpt>
      <trkpt lat="47.42324" lon="6.74487">
        <ele>464.9</ele>
        <time>2014-10-05T08:36:07.000Z</time>
      </trkpt>
      <trkpt lat="47.42325" lon="6.74487">
        <ele>466.7</ele>
        <time>2014-10-05T08:36:08.000Z</time>
      </trkpt>
      <trkpt lat="47.42329" lon="6.74487">
        <ele>466.3</ele>
        <time>2014-10-05T08:36:11.000Z</time>
      </trkpt>
      <trkpt lat="47.4233" lon="6.74487">
        <ele>466</ele>
        <time>2014-10-05T08:36:12.000Z</time>
      </trkpt>
      <trkpt lat="47.42334" lon="6.74489">
        <ele>463.2</ele>
        <time>2014-10-05T08:36:16.000Z</time>
      </trkpt>
      <trkpt lat="47.42339" lon="6.7449">
        <ele>456.9</ele>
        <time>2014-10-05T08:36:19.000Z</time>
      </trkpt>
      <trkpt lat="47.42343" lon="6.74491">
        <ele>459.6</ele>
        <time>2014-10-05T08:36:22.000Z</time>
      </trkpt>
      <trkpt lat="47.42344" lon="6.74491">
        <ele>460.3</ele>
        <time>2014-10-05T08:36:23.000Z</time>
      </trkpt>
      <trkpt lat="47.42348" lon="6.74491">
        <ele>464.6</ele>
        <time>2014-10-05T08:36:26.000Z</time>
      </trkpt>
      <trkpt lat="47.42349" lon="6.74492">
        <ele>465.5</ele>
        <time>2014-10-05T08:36:27.000Z</time>
      </trkpt>
      <trkpt lat="47.42353" lon="6.74492">
        <ele>467.8</ele>
        <time>2014-10-05T08:36:31.000Z</time>
      </trkpt>
      <trkpt lat="47.42355" lon="6.74492">
        <ele>468.1</ele>
        <time>2014-10-05T08:36:32.000Z</time>
      </trkpt>
      <trkpt lat="47.42359" lon="6.74492">
        <ele>470.3</ele>
        <time>2014-10-05T08:36:36.000Z</time>
      </trkpt>
      <trkpt lat="47.4236" lon="6.74492">
        <ele>471.5</ele>
        <time>2014-10-05T08:36:37.000Z</time>
      </trkpt>
      <trkpt lat="47.42364" lon="6.74493">
        <ele>473.3</ele>
        <time>2014-10-05T08:36:40.000Z</time>
      </trkpt>
      <trkpt lat="47.42365" lon="6.74493">
        <ele>472.3</ele>
        <time>2014-10-05T08:36:41.000Z</time>
      </trkpt>
      <trkpt lat="47.42369" lon="6.74494">
        <ele>476.7</ele>
        <time>2014-10-05T08:36:46.000Z</time>
      </trkpt>
      <trkpt lat="47.4237" lon="6.74494">
        <ele>477.5</ele>
        <time>2014-10-05T08:36:47.000Z</time>
      </trkpt>
      <trkpt lat="47.42374" lon="6.74496">
        <ele>482</ele>
        <time>2014-10-05T08:36:51.000Z</time>
      </trkpt>
      <trkpt lat="47.42375" lon="6.74496">
        <ele>483.1</ele>
        <time>2014-10-05T08:36:52.000Z</time>
      </trkpt>
      <trkpt lat="47.42379" lon="6.74497">
        <ele>486.1</ele>
        <time>2014-10-05T08:36:57.000Z</time>
      </trkpt>
      <trkpt lat="47.42379" lon="6.74497">
        <ele>485.9</ele>
        <time>2014-10-05T08:36:58.000Z</time>
      </trkpt>
      <trkpt lat="47.42383" lon="6.74501">
        <ele>486.3</ele>
        <time>2014-10-05T08:37:05.000Z</time>
      </trkpt>
      <trkpt lat="47.42383" lon="6.74502">
        <ele>486.3</ele>
        <time>2014-10-05T08:37:06.000Z</time>
      </trkpt>
      <trkpt lat="47.42386" lon="6.74507">
        <ele>485</ele>
        <time>2014-10-05T08:37:14.000Z</time>
      </trkpt>
      <trkpt lat="47.42386" lon="6.74508">
        <ele>485.1</ele>
        <time>2014-10-05T08:37:15.000Z</time>
      </trkpt>
      <trkpt lat="47.42387" lon="6.74509">
        <ele>487</ele>
        <time>2014-10-05T08:37:16.000Z</time>
      </trkpt>
      <trkpt lat="47.42393" lon="6.74519">
        <ele>480.8</ele>
        <time>2014-10-05T08:37:24.000Z</time>
      </trkpt>
      <trkpt lat="47.42396" lon="6.74523">
        <ele>479.8</ele>
        <time>2014-10-05T08:37:27.000Z</time>
      </trkpt>
      <trkpt lat="47.42397" lon="6.74525">
        <ele>480.6</ele>
        <time>2014-10-05T08:37:28.000Z</time>
      </trkpt>
      <trkpt lat="47.42401" lon="6.74528">
        <ele>482.3</ele>
        <time>2014-10-05T08:37:31.000Z</time>
      </trkpt>
      <trkpt lat="47.42402" lon="6.74529">
        <ele>482</ele>
        <time>2014-10-05T08:37:32.000Z</time>
      </trkpt>
      <trkpt lat="47.42404" lon="6.74535">
        <ele>480</ele>
        <time>2014-10-05T08:37:36.000Z</time>
      </trkpt>
      <trkpt lat="47.42403" lon="6.74537">
        <ele>479.6</ele>
        <time>2014-10-05T08:37:37.000Z</time>
      </trkpt>
      <trkpt lat="47.42402" lon="6.74542">
        <ele>475.1</ele>
        <time>2014-10-05T08:37:40.000Z</time>
      </trkpt>
      <trkpt lat="47.42402" lon="6.74543">
        <ele>475.5</ele>
        <time>2014-10-05T08:37:41.000Z</time>
      </trkpt>
      <trkpt lat="47.424" lon="6.74547">
        <ele>474.1</ele>
        <time>2014-10-05T08:37:43.000Z</time>
      </trkpt>
      <trkpt lat="47.42399" lon="6.74549">
        <ele>473.5</ele>
        <time>2014-10-05T08:37:44.000Z</time>
      </trkpt>
      <trkpt lat="47.42397" lon="6.74555">
        <ele>473.6</ele>
        <time>2014-10-05T08:37:47.000Z</time>
      </trkpt>
      <trkpt lat="47.42396" lon="6.74557">
        <ele>471.4</ele>
        <time>2014-10-05T08:37:48.000Z</time>
      </trkpt>
      <trkpt lat="47.42394" lon="6.74561">
        <ele>469.8</ele>
        <time>2014-10-05T08:37:50.000Z</time>
      </trkpt>
      <trkpt lat="47.42392" lon="6.74563">
        <ele>469.2</ele>
        <time>2014-10-05T08:37:51.000Z</time>
      </trkpt>
      <trkpt lat="47.4239" lon="6.74568">
        <ele>473.3</ele>
        <time>2014-10-05T08:37:54.000Z</time>
      </trkpt>
      <trkpt lat="47.42389" lon="6.74569">
        <ele>471</ele>
        <time>2014-10-05T08:37:55.000Z</time>
      </trkpt>
      <trkpt lat="47.42387" lon="6.74574">
        <ele>470.1</ele>
        <time>2014-10-05T08:37:58.000Z</time>
      </trkpt>
      <trkpt lat="47.42386" lon="6.74576">
        <ele>468.4</ele>
        <time>2014-10-05T08:37:59.000Z</time>
      </trkpt>
      <trkpt lat="47.42385" lon="6.74579">
        <ele>466.8</ele>
        <time>2014-10-05T08:38:01.000Z</time>
      </trkpt>
      <trkpt lat="47.42384" lon="6.74581">
        <ele>466.4</ele>
        <time>2014-10-05T08:38:02.000Z</time>
      </trkpt>
      <trkpt lat="47.42382" lon="6.74587">
        <ele>467.1</ele>
        <time>2014-10-05T08:38:04.000Z</time>
      </trkpt>
      <trkpt lat="47.42382" lon="6.74589">
        <ele>468.2</ele>
        <time>2014-10-05T08:38:05.000Z</time>
      </trkpt>
      <trkpt lat="47.4238" lon="6.74595">
        <ele>469.6</ele>
        <time>2014-10-05T08:38:08.000Z</time>
      </trkpt>
      <trkpt lat="47.4238" lon="6.74597">
        <ele>471.9</ele>
        <time>2014-10-05T08:38:09.000Z</time>
      </trkpt>
      <trkpt lat="47.42378" lon="6.74602">
        <ele>472.3</ele>
        <time>2014-10-05T08:38:11.000Z</time>
      </trkpt>
      <trkpt lat="47.42377" lon="6.74605">
        <ele>473.5</ele>
        <time>2014-10-05T08:38:12.000Z</time>
      </trkpt>
      <trkpt lat="47.42375" lon="6.74609">
        <ele>474.4</ele>
        <time>2014-10-05T08:38:14.000Z</time>
      </trkpt>
      <trkpt lat="47.42374" lon="6.7461">
        <ele>477</ele>
        <time>2014-10-05T08:38:15.000Z</time>
      </trkpt>
      <trkpt lat="47.42372" lon="6.74615">
        <ele>474.1</ele>
        <time>2014-10-05T08:38:24.000Z</time>
      </trkpt>
      <trkpt lat="47.42372" lon="6.74617">
        <ele>474.3</ele>
        <time>2014-10-05T08:38:25.000Z</time>
      </trkpt>
      <trkpt lat="47.42372" lon="6.74623">
        <ele>476.2</ele>
        <time>2014-10-05T08:38:27.000Z</time>
      </trkpt>
      <trkpt lat="47.42371" lon="6.74626">
        <ele>476</ele>
        <time>2014-10-05T08:38:28.000Z</time>
      </trkpt>
      <trkpt lat="47.42371" lon="6.74629">
        <ele>476.4</ele>
        <time>2014-10-05T08:38:29.000Z</time>
      </trkpt>
      <trkpt lat="47.42371" lon="6.74632">
        <ele>476.6</ele>
        <time>2014-10-05T08:38:30.000Z</time>
      </trkpt>
      <trkpt lat="47.4237" lon="6.74638">
        <ele>477.3</ele>
        <time>2014-10-05T08:38:32.000Z</time>
      </trkpt>
      <trkpt lat="47.42369" lon="6.74641">
        <ele>477.4</ele>
        <time>2014-10-05T08:38:33.000Z</time>
      </trkpt>
      <trkpt lat="47.42367" lon="6.74646">
        <ele>484.3</ele>
        <time>2014-10-05T08:38:36.000Z</time>
      </trkpt>
      <trkpt lat="47.42367" lon="6.74647">
        <ele>485.7</ele>
        <time>2014-10-05T08:38:37.000Z</time>
      </trkpt>
      <trkpt lat="47.42365" lon="6.74653">
        <ele>489.5</ele>
        <time>2014-10-05T08:38:40.000Z</time>
      </trkpt>
      <trkpt lat="47.42364" lon="6.74655">
        <ele>489.8</ele>
        <time>2014-10-05T08:38:41.000Z</time>
      </trkpt>
      <trkpt lat="47.42362" lon="6.74661">
        <ele>488</ele>
        <time>2014-10-05T08:38:43.000Z</time>
      </trkpt>
      <trkpt lat="47.42362" lon="6.74663">
        <ele>487.8</ele>
        <time>2014-10-05T08:38:44.000Z</time>
      </trkpt>
      <trkpt lat="47.42361" lon="6.74669">
        <ele>488.7</ele>
        <time>2014-10-05T08:38:46.000Z</time>
      </trkpt>
      <trkpt lat="47.42361" lon="6.74672">
        <ele>488.6</ele>
        <time>2014-10-05T08:38:47.000Z</time>
      </trkpt>
      <trkpt lat="47.42361" lon="6.74677">
        <ele>487.4</ele>
        <time>2014-10-05T08:38:49.000Z</time>
      </trkpt>
      <trkpt lat="47.42362" lon="6.7468">
        <ele>487.6</ele>
        <time>2014-10-05T08:38:50.000Z</time>
      </trkpt>
      <trkpt lat="47.42362" lon="6.74686">
        <ele>487.9</ele>
        <time>2014-10-05T08:38:52.000Z</time>
      </trkpt>
      <trkpt lat="47.42363" lon="6.74689">
        <ele>488.6</ele>
        <time>2014-10-05T08:38:53.000Z</time>
      </trkpt>
      <trkpt lat="47.42363" lon="6.74695">
        <ele>488.3</ele>
        <time>2014-10-05T08:38:55.000Z</time>
      </trkpt>
      <trkpt lat="47.42363" lon="6.74698">
        <ele>488.8</ele>
        <time>2014-10-05T08:38:56.000Z</time>
      </trkpt>
      <trkpt lat="47.42363" lon="6.74705">
        <ele>488.9</ele>
        <time>2014-10-05T08:38:59.000Z</time>
      </trkpt>
      <trkpt lat="47.42363" lon="6.74706">
        <ele>488.8</ele>
        <time>2014-10-05T08:39:00.000Z</time>
      </trkpt>
      <trkpt lat="47.42362" lon="6.74712">
        <ele>489.9</ele>
        <time>2014-10-05T08:39:03.000Z</time>
      </trkpt>
      <trkpt lat="47.42362" lon="6.74715">
        <ele>490.5</ele>
        <time>2014-10-05T08:39:04.000Z</time>
      </trkpt>
      <trkpt lat="47.4236" lon="6.7472">
        <ele>490.8</ele>
        <time>2014-10-05T08:39:07.000Z</time>
      </trkpt>
      <trkpt lat="47.4236" lon="6.74721">
        <ele>491</ele>
        <time>2014-10-05T08:39:08.000Z</time>
      </trkpt>
      <trkpt lat="47.42358" lon="6.74727">
        <ele>496.1</ele>
        <time>2014-10-05T08:39:11.000Z</time>
      </trkpt>
      <trkpt lat="47.42358" lon="6.74729">
        <ele>497</ele>
        <time>2014-10-05T08:39:12.000Z</time>
      </trkpt>
      <trkpt lat="47.42356" lon="6.74735">
        <ele>498.5</ele>
        <time>2014-10-05T08:39:15.000Z</time>
      </trkpt>
      <trkpt lat="47.42356" lon="6.74737">
        <ele>498.9</ele>
        <time>2014-10-05T08:39:16.000Z</time>
      </trkpt>
      <trkpt lat="47.42354" lon="6.74742">
        <ele>491.8</ele>
        <time>2014-10-05T08:39:19.000Z</time>
      </trkpt>
      <trkpt lat="47.42354" lon="6.74744">
        <ele>490.6</ele>
        <time>2014-10-05T08:39:20.000Z</time>
      </trkpt>
      <trkpt lat="47.42356" lon="6.74749">
        <ele>487.2</ele>
        <time>2014-10-05T08:39:23.000Z</time>
      </trkpt>
      <trkpt lat="47.42356" lon="6.7475">
        <ele>485.9</ele>
        <time>2014-10-05T08:39:24.000Z</time>
      </trkpt>
      <trkpt lat="47.42357" lon="6.74756">
        <ele>486.2</ele>
        <time>2014-10-05T08:40:05.000Z</time>
      </trkpt>
      <trkpt lat="47.42357" lon="6.74757">
        <ele>486.4</ele>
        <time>2014-10-05T08:40:06.000Z</time>
      </trkpt>
      <trkpt lat="47.42356" lon="6.74763">
        <ele>488.2</ele>
        <time>2014-10-05T08:40:10.000Z</time>
      </trkpt>
      <trkpt lat="47.42355" lon="6.74763">
        <ele>487.5</ele>
        <time>2014-10-05T08:40:11.000Z</time>
      </trkpt>
      <trkpt lat="47.42351" lon="6.74765">
        <ele>485.4</ele>
        <time>2014-10-05T08:40:30.000Z</time>
      </trkpt>
      <trkpt lat="47.4235" lon="6.74765">
        <ele>485.1</ele>
        <time>2014-10-05T08:40:31.000Z</time>
      </trkpt>
      <trkpt lat="47.42346" lon="6.74767">
        <ele>485</ele>
        <time>2014-10-05T08:40:35.000Z</time>
      </trkpt>
      <trkpt lat="47.42345" lon="6.74768">
        <ele>485</ele>
        <time>2014-10-05T08:40:36.000Z</time>
      </trkpt>
      <trkpt lat="47.42342" lon="6.74772">
        <ele>485.8</ele>
        <time>2014-10-05T08:40:39.000Z</time>
      </trkpt>
      <trkpt lat="47.42342" lon="6.74774">
        <ele>485.2</ele>
        <time>2014-10-05T08:40:40.000Z</time>
      </trkpt>
      <trkpt lat="47.42342" lon="6.7478">
        <ele>489.4</ele>
        <time>2014-10-05T08:40:48.000Z</time>
      </trkpt>
      <trkpt lat="47.42342" lon="6.7478">
        <ele>488.8</ele>
        <time>2014-10-05T08:40:49.000Z</time>
      </trkpt>
      <trkpt lat="47.42339" lon="6.74783">
        <ele>489.6</ele>
        <time>2014-10-05T08:40:59.000Z</time>
      </trkpt>
      <trkpt lat="47.42338" lon="6.74784">
        <ele>489.7</ele>
        <time>2014-10-05T08:41:00.000Z</time>
      </trkpt>
      <trkpt lat="47.42335" lon="6.74786">
        <ele>490.3</ele>
        <time>2014-10-05T08:41:07.000Z</time>
      </trkpt>
      <trkpt lat="47.42334" lon="6.74787">
        <ele>490.4</ele>
        <time>2014-10-05T08:41:08.000Z</time>
      </trkpt>
      <trkpt lat="47.42332" lon="6.7479">
        <ele>493.3</ele>
        <time>2014-10-05T08:41:16.000Z</time>
      </trkpt>
      <trkpt lat="47.42327" lon="6.74794">
        <ele>489</ele>
        <time>2014-10-05T08:41:24.000Z</time>
      </trkpt>
      <trkpt lat="47.42324" lon="6.74797">
        <ele>491.6</ele>
        <time>2014-10-05T08:41:28.000Z</time>
      </trkpt>
      <trkpt lat="47.42323" lon="6.74798">
        <ele>492.7</ele>
        <time>2014-10-05T08:41:29.000Z</time>
      </trkpt>
      <trkpt lat="47.42319" lon="6.74801">
        <ele>495</ele>
        <time>2014-10-05T08:41:33.000Z</time>
      </trkpt>
      <trkpt lat="47.42318" lon="6.74802">
        <ele>496.4</ele>
        <time>2014-10-05T08:41:34.000Z</time>
      </trkpt>
      <trkpt lat="47.42315" lon="6.74807">
        <ele>503.3</ele>
        <time>2014-10-05T08:41:38.000Z</time>
      </trkpt>
      <trkpt lat="47.42315" lon="6.74807">
        <ele>503.9</ele>
        <time>2014-10-05T08:41:39.000Z</time>
      </trkpt>
      <trkpt lat="47.42311" lon="6.7481">
        <ele>508.9</ele>
        <time>2014-10-05T08:41:46.000Z</time>
      </trkpt>
      <trkpt lat="47.42311" lon="6.74811">
        <ele>509.8</ele>
        <time>2014-10-05T08:41:47.000Z</time>
      </trkpt>
      <trkpt lat="47.42308" lon="6.74815">
        <ele>512.5</ele>
        <time>2014-10-05T08:41:52.000Z</time>
      </trkpt>
      <trkpt lat="47.42307" lon="6.74816">
        <ele>509.3</ele>
        <time>2014-10-05T08:41:53.000Z</time>
      </trkpt>
      <trkpt lat="47.42303" lon="6.74819">
        <ele>512.2</ele>
        <time>2014-10-05T08:41:57.000Z</time>
      </trkpt>
      <trkpt lat="47.42303" lon="6.74819">
        <ele>512.9</ele>
        <time>2014-10-05T08:41:58.000Z</time>
      </trkpt>
      <trkpt lat="47.423" lon="6.74824">
        <ele>512.6</ele>
        <time>2014-10-05T08:42:03.000Z</time>
      </trkpt>
      <trkpt lat="47.42299" lon="6.74825">
        <ele>513.9</ele>
        <time>2014-10-05T08:42:04.000Z</time>
      </trkpt>
      <trkpt lat="47.42296" lon="6.74828">
        <ele>517.6</ele>
        <time>2014-10-05T08:42:08.000Z</time>
      </trkpt>
      <trkpt lat="47.42295" lon="6.74829">
        <ele>517.9</ele>
        <time>2014-10-05T08:42:09.000Z</time>
      </trkpt>
      <trkpt lat="47.42292" lon="6.74833">
        <ele>521.5</ele>
        <time>2014-10-05T08:42:14.000Z</time>
      </trkpt>
      <trkpt lat="47.42291" lon="6.74834">
        <ele>521.6</ele>
        <time>2014-10-05T08:42:15.000Z</time>
      </trkpt>
      <trkpt lat="47.42289" lon="6.74835">
        <ele>523.8</ele>
        <time>2014-10-05T08:42:17.000Z</time>
      </trkpt>
      <trkpt lat="47.42285" lon="6.74839">
        <ele>518.7</ele>
        <time>2014-10-05T08:42:25.000Z</time>
      </trkpt>
      <trkpt lat="47.42282" lon="6.74843">
        <ele>526.4</ele>
        <time>2014-10-05T08:42:32.000Z</time>
      </trkpt>
      <trkpt lat="47.42282" lon="6.74843">
        <ele>526.9</ele>
        <time>2014-10-05T08:42:33.000Z</time>
      </trkpt>
      <trkpt lat="47.42279" lon="6.74847">
        <ele>529.2</ele>
        <time>2014-10-05T08:42:38.000Z</time>
      </trkpt>
      <trkpt lat="47.42278" lon="6.74848">
        <ele>529.5</ele>
        <time>2014-10-05T08:42:39.000Z</time>
      </trkpt>
      <trkpt lat="47.42275" lon="6.74851">
        <ele>528.8</ele>
        <time>2014-10-05T08:42:41.000Z</time>
      </trkpt>
      <trkpt lat="47.42274" lon="6.74853">
        <ele>530.6</ele>
        <time>2014-10-05T08:42:42.000Z</time>
      </trkpt>
      <trkpt lat="47.42272" lon="6.74857">
        <ele>531.7</ele>
        <time>2014-10-05T08:42:44.000Z</time>
      </trkpt>
      <trkpt lat="47.42271" lon="6.74858">
        <ele>531.5</ele>
        <time>2014-10-05T08:42:45.000Z</time>
      </trkpt>
      <trkpt lat="47.42269" lon="6.74861">
        <ele>531.2</ele>
        <time>2014-10-05T08:42:47.000Z</time>
      </trkpt>
      <trkpt lat="47.42268" lon="6.74863">
        <ele>531.5</ele>
        <time>2014-10-05T08:42:48.000Z</time>
      </trkpt>
      <trkpt lat="47.42265" lon="6.74867">
        <ele>534.9</ele>
        <time>2014-10-05T08:42:51.000Z</time>
      </trkpt>
      <trkpt lat="47.42265" lon="6.74869">
        <ele>535.8</ele>
        <time>2014-10-05T08:42:52.000Z</time>
      </trkpt>
      <trkpt lat="47.42264" lon="6.74875">
        <ele>536</ele>
        <time>2014-10-05T08:42:55.000Z</time>
      </trkpt>
      <trkpt lat="47.42264" lon="6.74876">
        <ele>539.6</ele>
        <time>2014-10-05T08:42:56.000Z</time>
      </trkpt>
      <trkpt lat="47.42263" lon="6.74882">
        <ele>536.4</ele>
        <time>2014-10-05T08:43:00.000Z</time>
      </trkpt>
      <trkpt lat="47.42262" lon="6.74883">
        <ele>536.5</ele>
        <time>2014-10-05T08:43:01.000Z</time>
      </trkpt>
      <trkpt lat="47.42261" lon="6.74889">
        <ele>540.6</ele>
        <time>2014-10-05T08:43:06.000Z</time>
      </trkpt>
      <trkpt lat="47.42261" lon="6.74891">
        <ele>540.8</ele>
        <time>2014-10-05T08:43:07.000Z</time>
      </trkpt>
      <trkpt lat="47.4226" lon="6.74896">
        <ele>495.6</ele>
        <time>2014-10-05T08:43:38.000Z</time>
      </trkpt>
      <trkpt lat="47.42259" lon="6.74897">
        <ele>495.9</ele>
        <time>2014-10-05T08:43:39.000Z</time>
      </trkpt>
      <trkpt lat="47.42255" lon="6.749">
        <ele>512.5</ele>
        <time>2014-10-05T08:43:54.000Z</time>
      </trkpt>
      <trkpt lat="47.42255" lon="6.749">
        <ele>512.6</ele>
        <time>2014-10-05T08:43:55.000Z</time>
      </trkpt>
      <trkpt lat="47.42251" lon="6.74899">
        <ele>515</ele>
        <time>2014-10-05T08:44:01.000Z</time>
      </trkpt>
      <trkpt lat="47.4225" lon="6.74899">
        <ele>514.9</ele>
        <time>2014-10-05T08:44:02.000Z</time>
      </trkpt>
      <trkpt lat="47.42246" lon="6.74897">
        <ele>521.3</ele>
        <time>2014-10-05T08:44:11.000Z</time>
      </trkpt>
      <trkpt lat="47.42245" lon="6.74897">
        <ele>522.1</ele>
        <time>2014-10-05T08:44:12.000Z</time>
      </trkpt>
      <trkpt lat="47.42241" lon="6.74897">
        <ele>522.3</ele>
        <time>2014-10-05T08:44:16.000Z</time>
      </trkpt>
      <trkpt lat="47.4223" lon="6.74898">
        <ele>517.8</ele>
        <time>2014-10-05T08:44:24.000Z</time>
      </trkpt>
      <trkpt lat="47.42227" lon="6.74896">
        <ele>518.4</ele>
        <time>2014-10-05T08:44:30.000Z</time>
      </trkpt>
      <trkpt lat="47.42226" lon="6.74896">
        <ele>518.9</ele>
        <time>2014-10-05T08:44:31.000Z</time>
      </trkpt>
      <trkpt lat="47.42223" lon="6.74896">
        <ele>519.3</ele>
        <time>2014-10-05T08:44:33.000Z</time>
      </trkpt>
      <trkpt lat="47.42221" lon="6.74895">
        <ele>519.4</ele>
        <time>2014-10-05T08:44:34.000Z</time>
      </trkpt>
      <trkpt lat="47.42218" lon="6.74894">
        <ele>518.1</ele>
        <time>2014-10-05T08:44:36.000Z</time>
      </trkpt>
      <trkpt lat="47.42216" lon="6.74894">
        <ele>519.5</ele>
        <time>2014-10-05T08:44:37.000Z</time>
      </trkpt>
      <trkpt lat="47.42212" lon="6.74895">
        <ele>520</ele>
        <time>2014-10-05T08:44:39.000Z</time>
      </trkpt>
      <trkpt lat="47.4221" lon="6.74895">
        <ele>520.2</ele>
        <time>2014-10-05T08:44:40.000Z</time>
      </trkpt>
      <trkpt lat="47.42206" lon="6.74895">
        <ele>523.5</ele>
        <time>2014-10-05T08:44:44.000Z</time>
      </trkpt>
      <trkpt lat="47.42204" lon="6.74895">
        <ele>523.9</ele>
        <time>2014-10-05T08:44:45.000Z</time>
      </trkpt>
      <trkpt lat="47.422" lon="6.74897">
        <ele>523.5</ele>
        <time>2014-10-05T08:44:48.000Z</time>
      </trkpt>
      <trkpt lat="47.42199" lon="6.74898">
        <ele>523.7</ele>
        <time>2014-10-05T08:44:49.000Z</time>
      </trkpt>
      <trkpt lat="47.42194" lon="6.74898">
        <ele>524.9</ele>
        <time>2014-10-05T08:44:53.000Z</time>
      </trkpt>
      <trkpt lat="47.42194" lon="6.74898">
        <ele>524.5</ele>
        <time>2014-10-05T08:44:54.000Z</time>
      </trkpt>
      <trkpt lat="47.4219" lon="6.749">
        <ele>524.9</ele>
        <time>2014-10-05T08:44:57.000Z</time>
      </trkpt>
      <trkpt lat="47.42189" lon="6.749">
        <ele>525.6</ele>
        <time>2014-10-05T08:44:58.000Z</time>
      </trkpt>
      <trkpt lat="47.42185" lon="6.749">
        <ele>526.4</ele>
        <time>2014-10-05T08:45:02.000Z</time>
      </trkpt>
      <trkpt lat="47.42184" lon="6.749">
        <ele>525.2</ele>
        <time>2014-10-05T08:45:03.000Z</time>
      </trkpt>
      <trkpt lat="47.4218" lon="6.749">
        <ele>526.5</ele>
        <time>2014-10-05T08:45:08.000Z</time>
      </trkpt>
      <trkpt lat="47.42179" lon="6.74901">
        <ele>526.1</ele>
        <time>2014-10-05T08:45:09.000Z</time>
      </trkpt>
      <trkpt lat="47.42175" lon="6.74903">
        <ele>527.7</ele>
        <time>2014-10-05T08:45:15.000Z</time>
      </trkpt>
      <trkpt lat="47.42174" lon="6.74903">
        <ele>528.1</ele>
        <time>2014-10-05T08:45:16.000Z</time>
      </trkpt>
      <trkpt lat="47.42169" lon="6.74903">
        <ele>519.3</ele>
        <time>2014-10-05T08:45:24.000Z</time>
      </trkpt>
      <trkpt lat="47.42165" lon="6.74904">
        <ele>519.6</ele>
        <time>2014-10-05T08:45:34.000Z</time>
      </trkpt>
      <trkpt lat="47.42163" lon="6.74904">
        <ele>521</ele>
        <time>2014-10-05T08:45:35.000Z</time>
      </trkpt>
      <trkpt lat="47.4216" lon="6.74904">
        <ele>521.5</ele>
        <time>2014-10-05T08:45:37.000Z</time>
      </trkpt>
      <trkpt lat="47.42158" lon="6.74904">
        <ele>521.9</ele>
        <time>2014-10-05T08:45:38.000Z</time>
      </trkpt>
      <trkpt lat="47.42154" lon="6.74905">
        <ele>525.2</ele>
        <time>2014-10-05T08:45:41.000Z</time>
      </trkpt>
      <trkpt lat="47.42153" lon="6.74905">
        <ele>526.5</ele>
        <time>2014-10-05T08:45:42.000Z</time>
      </trkpt>
      <trkpt lat="47.42149" lon="6.74905">
        <ele>524.9</ele>
        <time>2014-10-05T08:45:45.000Z</time>
      </trkpt>
      <trkpt lat="47.42148" lon="6.74905">
        <ele>525</ele>
        <time>2014-10-05T08:45:46.000Z</time>
      </trkpt>
      <trkpt lat="47.42145" lon="6.74904">
        <ele>529.6</ele>
        <time>2014-10-05T08:45:50.000Z</time>
      </trkpt>
      <trkpt lat="47.42144" lon="6.74905">
        <ele>530</ele>
        <time>2014-10-05T08:45:51.000Z</time>
      </trkpt>
      <trkpt lat="47.4214" lon="6.74908">
        <ele>531.2</ele>
        <time>2014-10-05T08:45:56.000Z</time>
      </trkpt>
      <trkpt lat="47.42139" lon="6.74909">
        <ele>532.4</ele>
        <time>2014-10-05T08:45:57.000Z</time>
      </trkpt>
      <trkpt lat="47.42135" lon="6.7491">
        <ele>534.9</ele>
        <time>2014-10-05T08:46:02.000Z</time>
      </trkpt>
      <trkpt lat="47.42134" lon="6.7491">
        <ele>535.2</ele>
        <time>2014-10-05T08:46:03.000Z</time>
      </trkpt>
      <trkpt lat="47.4213" lon="6.74911">
        <ele>537.1</ele>
        <time>2014-10-05T08:46:14.000Z</time>
      </trkpt>
      <trkpt lat="47.42129" lon="6.7491">
        <ele>536.8</ele>
        <time>2014-10-05T08:46:15.000Z</time>
      </trkpt>
      <trkpt lat="47.42129" lon="6.7491">
        <ele>536.5</ele>
        <time>2014-10-05T08:46:16.000Z</time>
      </trkpt>
      <trkpt lat="47.42125" lon="6.74911">
        <ele>537.8</ele>
        <time>2014-10-05T08:46:24.000Z</time>
      </trkpt>
      <trkpt lat="47.42122" lon="6.7491">
        <ele>540.7</ele>
        <time>2014-10-05T08:46:27.000Z</time>
      </trkpt>
      <trkpt lat="47.4212" lon="6.7491">
        <ele>541.2</ele>
        <time>2014-10-05T08:46:28.000Z</time>
      </trkpt>
      <trkpt lat="47.42116" lon="6.74909">
        <ele>541.6</ele>
        <time>2014-10-05T08:46:31.000Z</time>
      </trkpt>
      <trkpt lat="47.42115" lon="6.74909">
        <ele>541.5</ele>
        <time>2014-10-05T08:46:32.000Z</time>
      </trkpt>
      <trkpt lat="47.42112" lon="6.74906">
        <ele>541</ele>
        <time>2014-10-05T08:46:37.000Z</time>
      </trkpt>
      <trkpt lat="47.42111" lon="6.74905">
        <ele>540.9</ele>
        <time>2014-10-05T08:46:38.000Z</time>
      </trkpt>
      <trkpt lat="47.4211" lon="6.74899">
        <ele>542.1</ele>
        <time>2014-10-05T08:46:45.000Z</time>
      </trkpt>
      <trkpt lat="47.42109" lon="6.74898">
        <ele>542.6</ele>
        <time>2014-10-05T08:46:46.000Z</time>
      </trkpt>
      <trkpt lat="47.42106" lon="6.74896">
        <ele>541.6</ele>
        <time>2014-10-05T08:46:50.000Z</time>
      </trkpt>
      <trkpt lat="47.42105" lon="6.74896">
        <ele>541.4</ele>
        <time>2014-10-05T08:46:51.000Z</time>
      </trkpt>
      <trkpt lat="47.42101" lon="6.74893">
        <ele>492.3</ele>
        <time>2014-10-05T08:48:32.000Z</time>
      </trkpt>
      <trkpt lat="47.421" lon="6.74893">
        <ele>492.7</ele>
        <time>2014-10-05T08:48:33.000Z</time>
      </trkpt>
      <trkpt lat="47.42096" lon="6.74892">
        <ele>493</ele>
        <time>2014-10-05T08:48:36.000Z</time>
      </trkpt>
      <trkpt lat="47.42094" lon="6.74892">
        <ele>493.6</ele>
        <time>2014-10-05T08:48:37.000Z</time>
      </trkpt>
      <trkpt lat="47.4209" lon="6.74891">
        <ele>495.1</ele>
        <time>2014-10-05T08:48:39.000Z</time>
      </trkpt>
      <trkpt lat="47.42088" lon="6.74892">
        <ele>496.1</ele>
        <time>2014-10-05T08:48:40.000Z</time>
      </trkpt>
      <trkpt lat="47.42085" lon="6.74893">
        <ele>497.6</ele>
        <time>2014-10-05T08:48:42.000Z</time>
      </trkpt>
      <trkpt lat="47.42083" lon="6.74893">
        <ele>496</ele>
        <time>2014-10-05T08:48:43.000Z</time>
      </trkpt>
      <trkpt lat="47.42079" lon="6.74894">
        <ele>496.8</ele>
        <time>2014-10-05T08:48:45.000Z</time>
      </trkpt>
      <trkpt lat="47.42076" lon="6.74895">
        <ele>497.4</ele>
        <time>2014-10-05T08:48:46.000Z</time>
      </trkpt>
      <trkpt lat="47.42072" lon="6.74897">
        <ele>500.2</ele>
        <time>2014-10-05T08:48:48.000Z</time>
      </trkpt>
      <trkpt lat="47.4207" lon="6.74899">
        <ele>499.1</ele>
        <time>2014-10-05T08:48:49.000Z</time>
      </trkpt>
      <trkpt lat="47.42065" lon="6.749">
        <ele>500.8</ele>
        <time>2014-10-05T08:48:51.000Z</time>
      </trkpt>
      <trkpt lat="47.42063" lon="6.74901">
        <ele>501.2</ele>
        <time>2014-10-05T08:48:52.000Z</time>
      </trkpt>
      <trkpt lat="47.4206" lon="6.74902">
        <ele>501.5</ele>
        <time>2014-10-05T08:48:54.000Z</time>
      </trkpt>
      <trkpt lat="47.42059" lon="6.74902">
        <ele>501.8</ele>
        <time>2014-10-05T08:48:55.000Z</time>
      </trkpt>
      <trkpt lat="47.42056" lon="6.74904">
        <ele>503.3</ele>
        <time>2014-10-05T08:48:57.000Z</time>
      </trkpt>
      <trkpt lat="47.42054" lon="6.74904">
        <ele>503</ele>
        <time>2014-10-05T08:48:58.000Z</time>
      </trkpt>
      <trkpt lat="47.4205" lon="6.74907">
        <ele>503.1</ele>
        <time>2014-10-05T08:49:01.000Z</time>
      </trkpt>
      <trkpt lat="47.42049" lon="6.74908">
        <ele>503.3</ele>
        <time>2014-10-05T08:49:02.000Z</time>
      </trkpt>
      <trkpt lat="47.42045" lon="6.7491">
        <ele>504.4</ele>
        <time>2014-10-05T08:49:05.000Z</time>
      </trkpt>
      <trkpt lat="47.42043" lon="6.7491">
        <ele>504.1</ele>
        <time>2014-10-05T08:49:06.000Z</time>
      </trkpt>
      <trkpt lat="47.4204" lon="6.74912">
        <ele>509.7</ele>
        <time>2014-10-05T08:49:09.000Z</time>
      </trkpt>
      <trkpt lat="47.42039" lon="6.74913">
        <ele>510.2</ele>
        <time>2014-10-05T08:49:10.000Z</time>
      </trkpt>
      <trkpt lat="47.42035" lon="6.74915">
        <ele>516.4</ele>
        <time>2014-10-05T08:49:14.000Z</time>
      </trkpt>
      <trkpt lat="47.42033" lon="6.74915">
        <ele>517</ele>
        <time>2014-10-05T08:49:15.000Z</time>
      </trkpt>
      <trkpt lat="47.42032" lon="6.74916">
        <ele>518.6</ele>
        <time>2014-10-05T08:49:16.000Z</time>
      </trkpt>
      <trkpt lat="47.42024" lon="6.74919">
        <ele>473.7</ele>
        <time>2014-10-05T08:49:24.000Z</time>
      </trkpt>
      <trkpt lat="47.4202" lon="6.7492">
        <ele>482.7</ele>
        <time>2014-10-05T08:49:27.000Z</time>
      </trkpt>
      <trkpt lat="47.42019" lon="6.7492">
        <ele>485.9</ele>
        <time>2014-10-05T08:49:28.000Z</time>
      </trkpt>
      <trkpt lat="47.42016" lon="6.7492">
        <ele>490.7</ele>
        <time>2014-10-05T08:49:30.000Z</time>
      </trkpt>
      <trkpt lat="47.42014" lon="6.7492">
        <ele>492.6</ele>
        <time>2014-10-05T08:49:31.000Z</time>
      </trkpt>
      <trkpt lat="47.4201" lon="6.74919">
        <ele>496.8</ele>
        <time>2014-10-05T08:49:33.000Z</time>
      </trkpt>
      <trkpt lat="47.42008" lon="6.74919">
        <ele>498.2</ele>
        <time>2014-10-05T08:49:34.000Z</time>
      </trkpt>
      <trkpt lat="47.42005" lon="6.74919">
        <ele>501</ele>
        <time>2014-10-05T08:49:36.000Z</time>
      </trkpt>
      <trkpt lat="47.42003" lon="6.74919">
        <ele>502.6</ele>
        <time>2014-10-05T08:49:37.000Z</time>
      </trkpt>
      <trkpt lat="47.42" lon="6.74919">
        <ele>505.7</ele>
        <time>2014-10-05T08:49:39.000Z</time>
      </trkpt>
      <trkpt lat="47.41999" lon="6.7492">
        <ele>507.1</ele>
        <time>2014-10-05T08:49:40.000Z</time>
      </trkpt>
      <trkpt lat="47.41994" lon="6.74922">
        <ele>509.7</ele>
        <time>2014-10-05T08:49:43.000Z</time>
      </trkpt>
      <trkpt lat="47.41993" lon="6.74922">
        <ele>510.6</ele>
        <time>2014-10-05T08:49:44.000Z</time>
      </trkpt>
      <trkpt lat="47.4199" lon="6.74924">
        <ele>513.1</ele>
        <time>2014-10-05T08:49:47.000Z</time>
      </trkpt>
      <trkpt lat="47.41989" lon="6.74924">
        <ele>513.8</ele>
        <time>2014-10-05T08:49:48.000Z</time>
      </trkpt>
      <trkpt lat="47.41984" lon="6.74926">
        <ele>517.2</ele>
        <time>2014-10-05T08:49:52.000Z</time>
      </trkpt>
      <trkpt lat="47.41983" lon="6.74926">
        <ele>517.9</ele>
        <time>2014-10-05T08:49:53.000Z</time>
      </trkpt>
      <trkpt lat="47.4198" lon="6.74928">
        <ele>519</ele>
        <time>2014-10-05T08:49:56.000Z</time>
      </trkpt>
      <trkpt lat="47.41979" lon="6.74928">
        <ele>519.8</ele>
        <time>2014-10-05T08:49:57.000Z</time>
      </trkpt>
      <trkpt lat="47.41975" lon="6.74928">
        <ele>522.2</ele>
        <time>2014-10-05T08:50:00.000Z</time>
      </trkpt>
      <trkpt lat="47.41974" lon="6.74929">
        <ele>523.1</ele>
        <time>2014-10-05T08:50:01.000Z</time>
      </trkpt>
      <trkpt lat="47.41971" lon="6.74931">
        <ele>524.9</ele>
        <time>2014-10-05T08:50:04.000Z</time>
      </trkpt>
      <trkpt lat="47.41969" lon="6.74931">
        <ele>525.3</ele>
        <time>2014-10-05T08:50:05.000Z</time>
      </trkpt>
      <trkpt lat="47.41965" lon="6.74934">
        <ele>528.1</ele>
        <time>2014-10-05T08:50:09.000Z</time>
      </trkpt>
      <trkpt lat="47.41964" lon="6.74934">
        <ele>528.4</ele>
        <time>2014-10-05T08:50:10.000Z</time>
      </trkpt>
      <trkpt lat="47.41961" lon="6.74935">
        <ele>530.8</ele>
        <time>2014-10-05T08:50:13.000Z</time>
      </trkpt>
      <trkpt lat="47.41959" lon="6.74935">
        <ele>531.3</ele>
        <time>2014-10-05T08:50:14.000Z</time>
      </trkpt>
      <trkpt lat="47.41957" lon="6.74935">
        <ele>532</ele>
        <time>2014-10-05T08:50:16.000Z</time>
      </trkpt>
      <trkpt lat="47.41953" lon="6.74937">
        <ele>532.4</ele>
        <time>2014-10-05T08:50:19.000Z</time>
      </trkpt>
      <trkpt lat="47.4195" lon="6.74937">
        <ele>534.3</ele>
        <time>2014-10-05T08:50:22.000Z</time>
      </trkpt>
      <trkpt lat="47.41948" lon="6.74937">
        <ele>534.4</ele>
        <time>2014-10-05T08:50:22.998Z</time>
      </trkpt>
      <trkpt lat="47.41945" lon="6.74939">
        <ele>536.5</ele>
        <time>2014-10-05T08:50:26.000Z</time>
      </trkpt>
      <trkpt lat="47.41943" lon="6.7494">
        <ele>536.7</ele>
        <time>2014-10-05T08:50:27.000Z</time>
      </trkpt>
      <trkpt lat="47.41939" lon="6.74941">
        <ele>538.2</ele>
        <time>2014-10-05T08:50:30.000Z</time>
      </trkpt>
      <trkpt lat="47.41938" lon="6.74942">
        <ele>538.8</ele>
        <time>2014-10-05T08:50:31.000Z</time>
      </trkpt>
      <trkpt lat="47.41934" lon="6.74944">
        <ele>539.4</ele>
        <time>2014-10-05T08:50:34.000Z</time>
      </trkpt>
      <trkpt lat="47.41933" lon="6.74944">
        <ele>539.8</ele>
        <time>2014-10-05T08:50:35.000Z</time>
      </trkpt>
      <trkpt lat="47.41929" lon="6.74945">
        <ele>540.4</ele>
        <time>2014-10-05T08:50:37.998Z</time>
      </trkpt>
      <trkpt lat="47.41927" lon="6.74945">
        <ele>541.2</ele>
        <time>2014-10-05T08:50:39.000Z</time>
      </trkpt>
      <trkpt lat="47.41924" lon="6.74946">
        <ele>539.6</ele>
        <time>2014-10-05T08:50:41.000Z</time>
      </trkpt>
      <trkpt lat="47.41923" lon="6.74947">
        <ele>539.6</ele>
        <time>2014-10-05T08:50:42.000Z</time>
      </trkpt>
      <trkpt lat="47.41919" lon="6.74948">
        <ele>540.3</ele>
        <time>2014-10-05T08:50:45.104Z</time>
      </trkpt>
      <trkpt lat="47.41916" lon="6.74949">
        <ele>540.7</ele>
        <time>2014-10-05T08:50:47.000Z</time>
      </trkpt>
      <trkpt lat="47.41913" lon="6.74952">
        <ele>541.5</ele>
        <time>2014-10-05T08:50:50.000Z</time>
      </trkpt>
      <trkpt lat="47.41912" lon="6.74952">
        <ele>541.8</ele>
        <time>2014-10-05T08:50:51.000Z</time>
      </trkpt>
      <trkpt lat="47.41908" lon="6.74953">
        <ele>542.6</ele>
        <time>2014-10-05T08:50:54.000Z</time>
      </trkpt>
      <trkpt lat="47.41907" lon="6.74954">
        <ele>543</ele>
        <time>2014-10-05T08:50:55.000Z</time>
      </trkpt>
      <trkpt lat="47.41904" lon="6.74956">
        <ele>543.5</ele>
        <time>2014-10-05T08:50:58.000Z</time>
      </trkpt>
      <trkpt lat="47.41902" lon="6.74956">
        <ele>544</ele>
        <time>2014-10-05T08:50:59.000Z</time>
      </trkpt>
      <trkpt lat="47.41899" lon="6.74957">
        <ele>545.3</ele>
        <time>2014-10-05T08:51:02.000Z</time>
      </trkpt>
      <trkpt lat="47.41898" lon="6.74957">
        <ele>545.3</ele>
        <time>2014-10-05T08:51:03.000Z</time>
      </trkpt>
      <trkpt lat="47.41893" lon="6.74957">
        <ele>545.2</ele>
        <time>2014-10-05T08:51:07.000Z</time>
      </trkpt>
      <trkpt lat="47.41892" lon="6.74957">
        <ele>545.3</ele>
        <time>2014-10-05T08:51:08.000Z</time>
      </trkpt>
      <trkpt lat="47.41888" lon="6.74954">
        <ele>545.8</ele>
        <time>2014-10-05T08:51:11.000Z</time>
      </trkpt>
      <trkpt lat="47.41887" lon="6.74952">
        <ele>545.8</ele>
        <time>2014-10-05T08:51:12.000Z</time>
      </trkpt>
      <trkpt lat="47.41885" lon="6.74948">
        <ele>545.7</ele>
        <time>2014-10-05T08:51:14.000Z</time>
      </trkpt>
      <trkpt lat="47.41884" lon="6.74946">
        <ele>546</ele>
        <time>2014-10-05T08:51:15.000Z</time>
      </trkpt>
      <trkpt lat="47.41883" lon="6.74944">
        <ele>546.2</ele>
        <time>2014-10-05T08:51:16.000Z</time>
      </trkpt>
      <trkpt lat="47.41876" lon="6.74931">
        <ele>546.1</ele>
        <time>2014-10-05T08:51:24.000Z</time>
      </trkpt>
      <trkpt lat="47.41872" lon="6.7493">
        <ele>548.4</ele>
        <time>2014-10-05T08:51:54.000Z</time>
      </trkpt>
      <trkpt lat="47.41872" lon="6.74931">
        <ele>548.4</ele>
        <time>2014-10-05T08:51:55.000Z</time>
      </trkpt>
      <trkpt lat="47.4187" lon="6.74936">
        <ele>549</ele>
        <time>2014-10-05T08:52:00.000Z</time>
      </trkpt>
      <trkpt lat="47.41869" lon="6.74937">
        <ele>549.2</ele>
        <time>2014-10-05T08:52:01.000Z</time>
      </trkpt>
      <trkpt lat="47.41867" lon="6.74942">
        <ele>549.1</ele>
        <time>2014-10-05T08:52:06.000Z</time>
      </trkpt>
      <trkpt lat="47.41866" lon="6.74944">
        <ele>549</ele>
        <time>2014-10-05T08:52:07.000Z</time>
      </trkpt>
      <trkpt lat="47.41864" lon="6.74948">
        <ele>549.1</ele>
        <time>2014-10-05T08:52:09.000Z</time>
      </trkpt>
      <trkpt lat="47.41863" lon="6.74951">
        <ele>548.5</ele>
        <time>2014-10-05T08:52:10.000Z</time>
      </trkpt>
      <trkpt lat="47.4186" lon="6.74954">
        <ele>550</ele>
        <time>2014-10-05T08:52:12.000Z</time>
      </trkpt>
      <trkpt lat="47.4186" lon="6.74956">
        <ele>549.8</ele>
        <time>2014-10-05T08:52:13.000Z</time>
      </trkpt>
      <trkpt lat="47.41858" lon="6.74959">
        <ele>550.8</ele>
        <time>2014-10-05T08:52:15.000Z</time>
      </trkpt>
      <trkpt lat="47.41857" lon="6.74961">
        <ele>551</ele>
        <time>2014-10-05T08:52:16.000Z</time>
      </trkpt>
      <trkpt lat="47.41854" lon="6.74967">
        <ele>552.4</ele>
        <time>2014-10-05T08:52:19.000Z</time>
      </trkpt>
      <trkpt lat="47.4185" lon="6.74969">
        <ele>556.4</ele>
        <time>2014-10-05T08:52:23.000Z</time>
      </trkpt>
      <trkpt lat="47.41849" lon="6.7497">
        <ele>556.6</ele>
        <time>2014-10-05T08:52:24.000Z</time>
      </trkpt>
      <trkpt lat="47.41847" lon="6.74974">
        <ele>556.2</ele>
        <time>2014-10-05T08:52:26.000Z</time>
      </trkpt>
      <trkpt lat="47.41846" lon="6.74976">
        <ele>556</ele>
        <time>2014-10-05T08:52:27.000Z</time>
      </trkpt>
      <trkpt lat="47.41844" lon="6.7498">
        <ele>556.1</ele>
        <time>2014-10-05T08:52:29.000Z</time>
      </trkpt>
      <trkpt lat="47.41844" lon="6.74983">
        <ele>555.2</ele>
        <time>2014-10-05T08:52:30.000Z</time>
      </trkpt>
      <trkpt lat="47.41844" lon="6.74989">
        <ele>553.1</ele>
        <time>2014-10-05T08:52:40.000Z</time>
      </trkpt>
      <trkpt lat="47.41844" lon="6.74989">
        <ele>553.4</ele>
        <time>2014-10-05T08:52:41.000Z</time>
      </trkpt>
      <trkpt lat="47.41845" lon="6.74996">
        <ele>552.8</ele>
        <time>2014-10-05T08:52:53.000Z</time>
      </trkpt>
      <trkpt lat="47.41846" lon="6.74996">
        <ele>554.4</ele>
        <time>2014-10-05T08:52:54.000Z</time>
      </trkpt>
      <trkpt lat="47.41847" lon="6.75002">
        <ele>552</ele>
        <time>2014-10-05T08:53:24.000Z</time>
      </trkpt>
      <trkpt lat="47.41846" lon="6.75004">
        <ele>552.5</ele>
        <time>2014-10-05T08:53:25.000Z</time>
      </trkpt>
      <trkpt lat="47.41845" lon="6.75007">
        <ele>552.9</ele>
        <time>2014-10-05T08:53:26.000Z</time>
      </trkpt>
      <trkpt lat="47.41843" lon="6.7501">
        <ele>552.6</ele>
        <time>2014-10-05T08:53:27.000Z</time>
      </trkpt>
      <trkpt lat="47.41841" lon="6.75013">
        <ele>553.1</ele>
        <time>2014-10-05T08:53:28.000Z</time>
      </trkpt>
      <trkpt lat="47.4184" lon="6.75015">
        <ele>553.1</ele>
        <time>2014-10-05T08:53:29.000Z</time>
      </trkpt>
      <trkpt lat="47.41837" lon="6.75019">
        <ele>553.2</ele>
        <time>2014-10-05T08:53:31.000Z</time>
      </trkpt>
      <trkpt lat="47.41836" lon="6.75021">
        <ele>553.7</ele>
        <time>2014-10-05T08:53:32.000Z</time>
      </trkpt>
      <trkpt lat="47.41834" lon="6.75026">
        <ele>553.2</ele>
        <time>2014-10-05T08:53:34.000Z</time>
      </trkpt>
      <trkpt lat="47.41833" lon="6.75028">
        <ele>553.8</ele>
        <time>2014-10-05T08:53:35.000Z</time>
      </trkpt>
      <trkpt lat="47.41831" lon="6.75033">
        <ele>555.2</ele>
        <time>2014-10-05T08:53:37.000Z</time>
      </trkpt>
      <trkpt lat="47.4183" lon="6.75036">
        <ele>555.3</ele>
        <time>2014-10-05T08:53:38.000Z</time>
      </trkpt>
      <trkpt lat="47.41829" lon="6.75039">
        <ele>554.6</ele>
        <time>2014-10-05T08:53:39.000Z</time>
      </trkpt>
      <trkpt lat="47.41829" lon="6.75042">
        <ele>554.5</ele>
        <time>2014-10-05T08:53:40.000Z</time>
      </trkpt>
      <trkpt lat="47.41828" lon="6.75046">
        <ele>554.5</ele>
        <time>2014-10-05T08:53:41.000Z</time>
      </trkpt>
      <trkpt lat="47.41827" lon="6.75049">
        <ele>554.7</ele>
        <time>2014-10-05T08:53:42.000Z</time>
      </trkpt>
      <trkpt lat="47.41827" lon="6.75053">
        <ele>554.8</ele>
        <time>2014-10-05T08:53:43.000Z</time>
      </trkpt>
      <trkpt lat="47.41826" lon="6.75057">
        <ele>554</ele>
        <time>2014-10-05T08:53:44.000Z</time>
      </trkpt>
      <trkpt lat="47.41826" lon="6.7506">
        <ele>554</ele>
        <time>2014-10-05T08:53:45.000Z</time>
      </trkpt>
      <trkpt lat="47.41825" lon="6.75063">
        <ele>554.2</ele>
        <time>2014-10-05T08:53:46.000Z</time>
      </trkpt>
      <trkpt lat="47.41825" lon="6.75067">
        <ele>554.4</ele>
        <time>2014-10-05T08:53:47.000Z</time>
      </trkpt>
      <trkpt lat="47.41824" lon="6.7507">
        <ele>553.9</ele>
        <time>2014-10-05T08:53:48.000Z</time>
      </trkpt>
      <trkpt lat="47.41823" lon="6.75074">
        <ele>553.7</ele>
        <time>2014-10-05T08:53:49.000Z</time>
      </trkpt>
      <trkpt lat="47.41823" lon="6.75077">
        <ele>553.9</ele>
        <time>2014-10-05T08:53:50.000Z</time>
      </trkpt>
      <trkpt lat="47.41822" lon="6.75081">
        <ele>554.1</ele>
        <time>2014-10-05T08:53:51.000Z</time>
      </trkpt>
      <trkpt lat="47.41822" lon="6.75084">
        <ele>554.1</ele>
        <time>2014-10-05T08:53:52.000Z</time>
      </trkpt>
      <trkpt lat="47.41821" lon="6.7509">
        <ele>554.3</ele>
        <time>2014-10-05T08:53:54.000Z</time>
      </trkpt>
      <trkpt lat="47.41821" lon="6.75093">
        <ele>554.1</ele>
        <time>2014-10-05T08:53:55.000Z</time>
      </trkpt>
      <trkpt lat="47.41818" lon="6.75097">
        <ele>519</ele>
        <time>2014-10-05T08:54:41.000Z</time>
      </trkpt>
      <trkpt lat="47.41818" lon="6.75097">
        <ele>519.9</ele>
        <time>2014-10-05T08:54:42.000Z</time>
      </trkpt>
      <trkpt lat="47.41814" lon="6.75101">
        <ele>527.2</ele>
        <time>2014-10-05T08:54:59.000Z</time>
      </trkpt>
      <trkpt lat="47.41814" lon="6.75101">
        <ele>526.7</ele>
        <time>2014-10-05T08:55:00.000Z</time>
      </trkpt>
      <trkpt lat="47.41811" lon="6.75099">
        <ele>535.8</ele>
        <time>2014-10-05T08:55:13.000Z</time>
      </trkpt>
      <trkpt lat="47.4181" lon="6.75097">
        <ele>536.1</ele>
        <time>2014-10-05T08:55:14.000Z</time>
      </trkpt>
      <trkpt lat="47.41808" lon="6.75094">
        <ele>536.5</ele>
        <time>2014-10-05T08:55:16.000Z</time>
      </trkpt>
      <trkpt lat="47.41796" lon="6.7508">
        <ele>540.8</ele>
        <time>2014-10-05T08:55:24.000Z</time>
      </trkpt>
      <trkpt lat="47.41792" lon="6.75076">
        <ele>542.1</ele>
        <time>2014-10-05T08:55:26.000Z</time>
      </trkpt>
      <trkpt lat="47.41791" lon="6.75074">
        <ele>543.1</ele>
        <time>2014-10-05T08:55:27.000Z</time>
      </trkpt>
      <trkpt lat="47.41787" lon="6.75072">
        <ele>544</ele>
        <time>2014-10-05T08:55:29.000Z</time>
      </trkpt>
      <trkpt lat="47.41786" lon="6.75071">
        <ele>544.3</ele>
        <time>2014-10-05T08:55:30.000Z</time>
      </trkpt>
      <trkpt lat="47.41782" lon="6.75068">
        <ele>545.3</ele>
        <time>2014-10-05T08:55:32.000Z</time>
      </trkpt>
      <trkpt lat="47.4178" lon="6.75066">
        <ele>545.3</ele>
        <time>2014-10-05T08:55:33.000Z</time>
      </trkpt>
      <trkpt lat="47.41777" lon="6.75065">
        <ele>545.7</ele>
        <time>2014-10-05T08:55:34.000Z</time>
      </trkpt>
      <trkpt lat="47.41775" lon="6.75063">
        <ele>545.8</ele>
        <time>2014-10-05T08:55:35.000Z</time>
      </trkpt>
      <trkpt lat="47.41773" lon="6.75061">
        <ele>546</ele>
        <time>2014-10-05T08:55:36.000Z</time>
      </trkpt>
      <trkpt lat="47.41771" lon="6.7506">
        <ele>546</ele>
        <time>2014-10-05T08:55:37.000Z</time>
      </trkpt>
      <trkpt lat="47.41767" lon="6.75058">
        <ele>545.7</ele>
        <time>2014-10-05T08:55:39.000Z</time>
      </trkpt>
      <trkpt lat="47.41765" lon="6.75057">
        <ele>545.8</ele>
        <time>2014-10-05T08:55:40.000Z</time>
      </trkpt>
      <trkpt lat="47.41763" lon="6.75057">
        <ele>545.7</ele>
        <time>2014-10-05T08:55:41.000Z</time>
      </trkpt>
      <trkpt lat="47.4176" lon="6.75056">
        <ele>545.7</ele>
        <time>2014-10-05T08:55:42.000Z</time>
      </trkpt>
      <trkpt lat="47.41758" lon="6.75055">
        <ele>546</ele>
        <time>2014-10-05T08:55:43.000Z</time>
      </trkpt>
      <trkpt lat="47.41755" lon="6.75054">
        <ele>546.4</ele>
        <time>2014-10-05T08:55:44.000Z</time>
      </trkpt>
      <trkpt lat="47.41752" lon="6.75053">
        <ele>546.4</ele>
        <time>2014-10-05T08:55:45.000Z</time>
      </trkpt>
      <trkpt lat="47.41749" lon="6.75053">
        <ele>546.6</ele>
        <time>2014-10-05T08:55:46.000Z</time>
      </trkpt>
      <trkpt lat="47.41746" lon="6.75053">
        <ele>546.7</ele>
        <time>2014-10-05T08:55:47.000Z</time>
      </trkpt>
      <trkpt lat="47.41743" lon="6.75054">
        <ele>546.9</ele>
        <time>2014-10-05T08:55:48.000Z</time>
      </trkpt>
      <trkpt lat="47.4174" lon="6.75055">
        <ele>547.2</ele>
        <time>2014-10-05T08:55:49.000Z</time>
      </trkpt>
      <trkpt lat="47.41737" lon="6.75057">
        <ele>547.2</ele>
        <time>2014-10-05T08:55:50.000Z</time>
      </trkpt>
      <trkpt lat="47.41734" lon="6.75058">
        <ele>547.4</ele>
        <time>2014-10-05T08:55:51.000Z</time>
      </trkpt>
      <trkpt lat="47.41731" lon="6.75059">
        <ele>547.7</ele>
        <time>2014-10-05T08:55:52.000Z</time>
      </trkpt>
      <trkpt lat="47.41728" lon="6.75061">
        <ele>547.9</ele>
        <time>2014-10-05T08:55:53.000Z</time>
      </trkpt>
      <trkpt lat="47.41724" lon="6.75062">
        <ele>547.9</ele>
        <time>2014-10-05T08:55:54.000Z</time>
      </trkpt>
      <trkpt lat="47.41721" lon="6.75064">
        <ele>547.7</ele>
        <time>2014-10-05T08:55:55.000Z</time>
      </trkpt>
      <trkpt lat="47.41718" lon="6.75066">
        <ele>547.6</ele>
        <time>2014-10-05T08:55:56.000Z</time>
      </trkpt>
      <trkpt lat="47.41715" lon="6.75069">
        <ele>547.6</ele>
        <time>2014-10-05T08:55:57.000Z</time>
      </trkpt>
      <trkpt lat="47.41711" lon="6.75071">
        <ele>547.8</ele>
        <time>2014-10-05T08:55:58.000Z</time>
      </trkpt>
      <trkpt lat="47.41708" lon="6.75074">
        <ele>548.1</ele>
        <time>2014-10-05T08:55:59.000Z</time>
      </trkpt>
      <trkpt lat="47.41705" lon="6.75076">
        <ele>548.2</ele>
        <time>2014-10-05T08:56:00.000Z</time>
      </trkpt>
      <trkpt lat="47.41701" lon="6.75079">
        <ele>548.1</ele>
        <time>2014-10-05T08:56:01.000Z</time>
      </trkpt>
      <trkpt lat="47.41697" lon="6.75082">
        <ele>546.8</ele>
        <time>2014-10-05T08:56:02.000Z</time>
      </trkpt>
      <trkpt lat="47.41693" lon="6.75086">
        <ele>546.6</ele>
        <time>2014-10-05T08:56:03.000Z</time>
      </trkpt>
      <trkpt lat="47.4169" lon="6.75089">
        <ele>546.5</ele>
        <time>2014-10-05T08:56:04.000Z</time>
      </trkpt>
      <trkpt lat="47.41686" lon="6.75094">
        <ele>546.4</ele>
        <time>2014-10-05T08:56:05.000Z</time>
      </trkpt>
      <trkpt lat="47.41681" lon="6.751">
        <ele>546.3</ele>
        <time>2014-10-05T08:56:06.000Z</time>
      </trkpt>
      <trkpt lat="47.41675" lon="6.75104">
        <ele>546.2</ele>
        <time>2014-10-05T08:56:07.000Z</time>
      </trkpt>
      <trkpt lat="47.41668" lon="6.7511">
        <ele>546.4</ele>
        <time>2014-10-05T08:56:08.000Z</time>
      </trkpt>
      <trkpt lat="47.41661" lon="6.75115">
        <ele>546.3</ele>
        <time>2014-10-05T08:56:09.000Z</time>
      </trkpt>
      <trkpt lat="47.41653" lon="6.75116">
        <ele>546.1</ele>
        <time>2014-10-05T08:56:10.000Z</time>
      </trkpt>
      <trkpt lat="47.41646" lon="6.75118">
        <ele>546.2</ele>
        <time>2014-10-05T08:56:11.000Z</time>
      </trkpt>
      <trkpt lat="47.41639" lon="6.75121">
        <ele>546.2</ele>
        <time>2014-10-05T08:56:12.000Z</time>
      </trkpt>
      <trkpt lat="47.41632" lon="6.75123">
        <ele>546.3</ele>
        <time>2014-10-05T08:56:13.000Z</time>
      </trkpt>
      <trkpt lat="47.41625" lon="6.75124">
        <ele>546.4</ele>
        <time>2014-10-05T08:56:14.000Z</time>
      </trkpt>
      <trkpt lat="47.41617" lon="6.75128">
        <ele>546.5</ele>
        <time>2014-10-05T08:56:15.000Z</time>
      </trkpt>
      <trkpt lat="47.4161" lon="6.7513">
        <ele>546.9</ele>
        <time>2014-10-05T08:56:16.000Z</time>
      </trkpt>
      <trkpt lat="47.41589" lon="6.75138">
        <ele>540.4</ele>
        <time>2014-10-05T08:56:19.000Z</time>
      </trkpt>
      <trkpt lat="47.41583" lon="6.75142">
        <ele>540.3</ele>
        <time>2014-10-05T08:56:20.000Z</time>
      </trkpt>
      <trkpt lat="47.41578" lon="6.75144">
        <ele>540.2</ele>
        <time>2014-10-05T08:56:21.000Z</time>
      </trkpt>
      <trkpt lat="47.41572" lon="6.75145">
        <ele>540.1</ele>
        <time>2014-10-05T08:56:22.000Z</time>
      </trkpt>
      <trkpt lat="47.41566" lon="6.75147">
        <ele>540.1</ele>
        <time>2014-10-05T08:56:23.000Z</time>
      </trkpt>
      <trkpt lat="47.4156" lon="6.75149">
        <ele>540.4</ele>
        <time>2014-10-05T08:56:24.000Z</time>
      </trkpt>
      <trkpt lat="47.41554" lon="6.75151">
        <ele>540.4</ele>
        <time>2014-10-05T08:56:25.000Z</time>
      </trkpt>
      <trkpt lat="47.41548" lon="6.75154">
        <ele>540.4</ele>
        <time>2014-10-05T08:56:26.000Z</time>
      </trkpt>
      <trkpt lat="47.41542" lon="6.75154">
        <ele>540.2</ele>
        <time>2014-10-05T08:56:27.000Z</time>
      </trkpt>
      <trkpt lat="47.41536" lon="6.75157">
        <ele>540.1</ele>
        <time>2014-10-05T08:56:28.000Z</time>
      </trkpt>
      <trkpt lat="47.41532" lon="6.75158">
        <ele>540.3</ele>
        <time>2014-10-05T08:56:29.000Z</time>
      </trkpt>
      <trkpt lat="47.41526" lon="6.75157">
        <ele>539.3</ele>
        <time>2014-10-05T08:56:30.000Z</time>
      </trkpt>
      <trkpt lat="47.41521" lon="6.75159">
        <ele>539.8</ele>
        <time>2014-10-05T08:56:31.000Z</time>
      </trkpt>
      <trkpt lat="47.41516" lon="6.75159">
        <ele>539.8</ele>
        <time>2014-10-05T08:56:32.000Z</time>
      </trkpt>
      <trkpt lat="47.41511" lon="6.75161">
        <ele>540.3</ele>
        <time>2014-10-05T08:56:33.000Z</time>
      </trkpt>
      <trkpt lat="47.41506" lon="6.75163">
        <ele>540.6</ele>
        <time>2014-10-05T08:56:34.000Z</time>
      </trkpt>
      <trkpt lat="47.41501" lon="6.75164">
        <ele>541.6</ele>
        <time>2014-10-05T08:56:35.000Z</time>
      </trkpt>
      <trkpt lat="47.41496" lon="6.75163">
        <ele>542.5</ele>
        <time>2014-10-05T08:56:36.000Z</time>
      </trkpt>
      <trkpt lat="47.41493" lon="6.75163">
        <ele>543.5</ele>
        <time>2014-10-05T08:56:37.000Z</time>
      </trkpt>
      <trkpt lat="47.41489" lon="6.75163">
        <ele>544</ele>
        <time>2014-10-05T08:56:38.000Z</time>
      </trkpt>
      <trkpt lat="47.41484" lon="6.75163">
        <ele>542.9</ele>
        <time>2014-10-05T08:56:39.000Z</time>
      </trkpt>
      <trkpt lat="47.4148" lon="6.75164">
        <ele>542.6</ele>
        <time>2014-10-05T08:56:40.000Z</time>
      </trkpt>
      <trkpt lat="47.41477" lon="6.75165">
        <ele>541.1</ele>
        <time>2014-10-05T08:56:41.000Z</time>
      </trkpt>
      <trkpt lat="47.41472" lon="6.75166">
        <ele>541.1</ele>
        <time>2014-10-05T08:56:42.000Z</time>
      </trkpt>
      <trkpt lat="47.41469" lon="6.75165">
        <ele>542.5</ele>
        <time>2014-10-05T08:56:43.000Z</time>
      </trkpt>
      <trkpt lat="47.41466" lon="6.75164">
        <ele>542.6</ele>
        <time>2014-10-05T08:56:44.000Z</time>
      </trkpt>
      <trkpt lat="47.41462" lon="6.75163">
        <ele>543.9</ele>
        <time>2014-10-05T08:56:45.000Z</time>
      </trkpt>
      <trkpt lat="47.41459" lon="6.75163">
        <ele>546.1</ele>
        <time>2014-10-05T08:56:46.000Z</time>
      </trkpt>
      <trkpt lat="47.41455" lon="6.75162">
        <ele>546.6</ele>
        <time>2014-10-05T08:56:47.000Z</time>
      </trkpt>
      <trkpt lat="47.41452" lon="6.75162">
        <ele>547.1</ele>
        <time>2014-10-05T08:56:48.000Z</time>
      </trkpt>
      <trkpt lat="47.41448" lon="6.75162">
        <ele>548.9</ele>
        <time>2014-10-05T08:56:49.000Z</time>
      </trkpt>
      <trkpt lat="47.41445" lon="6.75162">
        <ele>549.4</ele>
        <time>2014-10-05T08:56:50.000Z</time>
      </trkpt>
      <trkpt lat="47.41441" lon="6.75162">
        <ele>549.1</ele>
        <time>2014-10-05T08:56:51.000Z</time>
      </trkpt>
      <trkpt lat="47.41438" lon="6.75162">
        <ele>549.3</ele>
        <time>2014-10-05T08:56:52.000Z</time>
      </trkpt>
      <trkpt lat="47.41434" lon="6.75163">
        <ele>549.8</ele>
        <time>2014-10-05T08:56:53.000Z</time>
      </trkpt>
      <trkpt lat="47.41431" lon="6.75163">
        <ele>550</ele>
        <time>2014-10-05T08:56:54.000Z</time>
      </trkpt>
      <trkpt lat="47.41427" lon="6.75164">
        <ele>549.2</ele>
        <time>2014-10-05T08:56:55.000Z</time>
      </trkpt>
      <trkpt lat="47.41423" lon="6.75165">
        <ele>549.1</ele>
        <time>2014-10-05T08:56:56.000Z</time>
      </trkpt>
      <trkpt lat="47.4142" lon="6.75165">
        <ele>549</ele>
        <time>2014-10-05T08:56:57.000Z</time>
      </trkpt>
      <trkpt lat="47.41416" lon="6.75166">
        <ele>548.5</ele>
        <time>2014-10-05T08:56:58.000Z</time>
      </trkpt>
      <trkpt lat="47.41412" lon="6.75166">
        <ele>548.5</ele>
        <time>2014-10-05T08:56:59.000Z</time>
      </trkpt>
      <trkpt lat="47.41408" lon="6.75167">
        <ele>548.3</ele>
        <time>2014-10-05T08:57:00.000Z</time>
      </trkpt>
      <trkpt lat="47.41404" lon="6.75167">
        <ele>548.4</ele>
        <time>2014-10-05T08:57:01.000Z</time>
      </trkpt>
      <trkpt lat="47.41401" lon="6.75167">
        <ele>548.9</ele>
        <time>2014-10-05T08:57:02.000Z</time>
      </trkpt>
      <trkpt lat="47.41397" lon="6.75167">
        <ele>549.3</ele>
        <time>2014-10-05T08:57:03.000Z</time>
      </trkpt>
      <trkpt lat="47.41394" lon="6.75167">
        <ele>549</ele>
        <time>2014-10-05T08:57:04.000Z</time>
      </trkpt>
      <trkpt lat="47.41391" lon="6.75167">
        <ele>549.4</ele>
        <time>2014-10-05T08:57:05.000Z</time>
      </trkpt>
      <trkpt lat="47.41388" lon="6.75167">
        <ele>550</ele>
        <time>2014-10-05T08:57:06.000Z</time>
      </trkpt>
      <trkpt lat="47.41385" lon="6.75167">
        <ele>550.3</ele>
        <time>2014-10-05T08:57:07.000Z</time>
      </trkpt>
      <trkpt lat="47.41382" lon="6.75167">
        <ele>550.4</ele>
        <time>2014-10-05T08:57:08.000Z</time>
      </trkpt>
      <trkpt lat="47.41379" lon="6.75167">
        <ele>550.8</ele>
        <time>2014-10-05T08:57:09.000Z</time>
      </trkpt>
      <trkpt lat="47.41376" lon="6.75167">
        <ele>552.1</ele>
        <time>2014-10-05T08:57:10.000Z</time>
      </trkpt>
      <trkpt lat="47.41373" lon="6.75166">
        <ele>552.8</ele>
        <time>2014-10-05T08:57:11.000Z</time>
      </trkpt>
      <trkpt lat="47.4137" lon="6.75166">
        <ele>553.6</ele>
        <time>2014-10-05T08:57:12.000Z</time>
      </trkpt>
      <trkpt lat="47.41367" lon="6.75166">
        <ele>553.4</ele>
        <time>2014-10-05T08:57:13.000Z</time>
      </trkpt>
      <trkpt lat="47.41364" lon="6.75166">
        <ele>554</ele>
        <time>2014-10-05T08:57:14.000Z</time>
      </trkpt>
      <trkpt lat="47.41361" lon="6.75166">
        <ele>554.2</ele>
        <time>2014-10-05T08:57:15.000Z</time>
      </trkpt>
      <trkpt lat="47.41359" lon="6.75166">
        <ele>555.1</ele>
        <time>2014-10-05T08:57:16.000Z</time>
      </trkpt>
      <trkpt lat="47.41356" lon="6.75167">
        <ele>555.1</ele>
        <time>2014-10-05T08:57:17.000Z</time>
      </trkpt>
      <trkpt lat="47.41342" lon="6.75169">
        <ele>562.7</ele>
        <time>2014-10-05T08:57:25.000Z</time>
      </trkpt>
      <trkpt lat="47.4134" lon="6.75171">
        <ele>562.1</ele>
        <time>2014-10-05T08:57:26.000Z</time>
      </trkpt>
      <trkpt lat="47.41337" lon="6.75172">
        <ele>562.9</ele>
        <time>2014-10-05T08:57:27.000Z</time>
      </trkpt>
      <trkpt lat="47.41333" lon="6.75173">
        <ele>566.5</ele>
        <time>2014-10-05T08:57:29.000Z</time>
      </trkpt>
      <trkpt lat="47.41331" lon="6.75173">
        <ele>566.6</ele>
        <time>2014-10-05T08:57:30.000Z</time>
      </trkpt>
      <trkpt lat="47.41327" lon="6.75173">
        <ele>566.2</ele>
        <time>2014-10-05T08:57:32.000Z</time>
      </trkpt>
      <trkpt lat="47.41325" lon="6.75174">
        <ele>566.4</ele>
        <time>2014-10-05T08:57:33.000Z</time>
      </trkpt>
      <trkpt lat="47.41321" lon="6.75176">
        <ele>565.5</ele>
        <time>2014-10-05T08:57:35.000Z</time>
      </trkpt>
      <trkpt lat="47.41319" lon="6.75177">
        <ele>565.4</ele>
        <time>2014-10-05T08:57:36.000Z</time>
      </trkpt>
      <trkpt lat="47.41317" lon="6.75177">
        <ele>565.6</ele>
        <time>2014-10-05T08:57:37.000Z</time>
      </trkpt>
      <trkpt lat="47.41314" lon="6.75178">
        <ele>566.1</ele>
        <time>2014-10-05T08:57:38.000Z</time>
      </trkpt>
      <trkpt lat="47.41312" lon="6.75178">
        <ele>566.3</ele>
        <time>2014-10-05T08:57:39.000Z</time>
      </trkpt>
      <trkpt lat="47.41309" lon="6.75178">
        <ele>567</ele>
        <time>2014-10-05T08:57:40.000Z</time>
      </trkpt>
      <trkpt lat="47.41305" lon="6.75179">
        <ele>569.1</ele>
        <time>2014-10-05T08:57:42.000Z</time>
      </trkpt>
      <trkpt lat="47.41303" lon="6.7518">
        <ele>570</ele>
        <time>2014-10-05T08:57:43.000Z</time>
      </trkpt>
      <trkpt lat="47.41299" lon="6.75181">
        <ele>568</ele>
        <time>2014-10-05T08:57:45.000Z</time>
      </trkpt>
      <trkpt lat="47.41297" lon="6.75181">
        <ele>567.2</ele>
        <time>2014-10-05T08:57:46.000Z</time>
      </trkpt>
      <trkpt lat="47.41294" lon="6.7518">
        <ele>567.8</ele>
        <time>2014-10-05T08:57:48.000Z</time>
      </trkpt>
      <trkpt lat="47.41292" lon="6.7518">
        <ele>568</ele>
        <time>2014-10-05T08:57:49.000Z</time>
      </trkpt>
      <trkpt lat="47.41288" lon="6.75181">
        <ele>568.5</ele>
        <time>2014-10-05T08:57:51.000Z</time>
      </trkpt>
      <trkpt lat="47.41287" lon="6.75181">
        <ele>569.9</ele>
        <time>2014-10-05T08:57:52.000Z</time>
      </trkpt>
      <trkpt lat="47.41283" lon="6.75182">
        <ele>569.9</ele>
        <time>2014-10-05T08:57:54.000Z</time>
      </trkpt>
      <trkpt lat="47.41282" lon="6.75182">
        <ele>570.2</ele>
        <time>2014-10-05T08:57:55.000Z</time>
      </trkpt>
      <trkpt lat="47.41278" lon="6.75182">
        <ele>571.2</ele>
        <time>2014-10-05T08:57:58.000Z</time>
      </trkpt>
      <trkpt lat="47.41277" lon="6.75182">
        <ele>571.1</ele>
        <time>2014-10-05T08:57:59.000Z</time>
      </trkpt>
      <trkpt lat="47.41274" lon="6.75176">
        <ele>573.8</ele>
        <time>2014-10-05T08:58:05.000Z</time>
      </trkpt>
      <trkpt lat="47.41275" lon="6.75174">
        <ele>573.7</ele>
        <time>2014-10-05T08:58:06.000Z</time>
      </trkpt>
      <trkpt lat="47.41275" lon="6.75169">
        <ele>573.5</ele>
        <time>2014-10-05T08:58:08.000Z</time>
      </trkpt>
      <trkpt lat="47.41276" lon="6.75165">
        <ele>573.8</ele>
        <time>2014-10-05T08:58:09.000Z</time>
      </trkpt>
      <trkpt lat="47.41276" lon="6.75161">
        <ele>574.1</ele>
        <time>2014-10-05T08:58:10.000Z</time>
      </trkpt>
      <trkpt lat="47.41277" lon="6.75156">
        <ele>573.4</ele>
        <time>2014-10-05T08:58:11.000Z</time>
      </trkpt>
      <trkpt lat="47.41277" lon="6.7515">
        <ele>573.3</ele>
        <time>2014-10-05T08:58:12.000Z</time>
      </trkpt>
      <trkpt lat="47.41278" lon="6.75144">
        <ele>573.1</ele>
        <time>2014-10-05T08:58:13.000Z</time>
      </trkpt>
      <trkpt lat="47.41278" lon="6.75137">
        <ele>572.8</ele>
        <time>2014-10-05T08:58:14.000Z</time>
      </trkpt>
      <trkpt lat="47.41278" lon="6.7513">
        <ele>572.4</ele>
        <time>2014-10-05T08:58:15.000Z</time>
      </trkpt>
      <trkpt lat="47.41278" lon="6.75115">
        <ele>572.6</ele>
        <time>2014-10-05T08:58:16.000Z</time>
      </trkpt>
      <trkpt lat="47.41278" lon="6.75097">
        <ele>558.8</ele>
        <time>2014-10-05T08:58:19.000Z</time>
      </trkpt>
      <trkpt lat="47.41276" lon="6.75085">
        <ele>560.7</ele>
        <time>2014-10-05T08:58:20.000Z</time>
      </trkpt>
      <trkpt lat="47.41275" lon="6.75077">
        <ele>560.1</ele>
        <time>2014-10-05T08:58:21.000Z</time>
      </trkpt>
      <trkpt lat="47.41274" lon="6.75068">
        <ele>558.7</ele>
        <time>2014-10-05T08:58:22.000Z</time>
      </trkpt>
      <trkpt lat="47.41273" lon="6.7506">
        <ele>557.8</ele>
        <time>2014-10-05T08:58:23.000Z</time>
      </trkpt>
      <trkpt lat="47.41271" lon="6.75052">
        <ele>556.2</ele>
        <time>2014-10-05T08:58:24.000Z</time>
      </trkpt>
      <trkpt lat="47.41269" lon="6.75045">
        <ele>556</ele>
        <time>2014-10-05T08:58:25.000Z</time>
      </trkpt>
      <trkpt lat="47.41268" lon="6.75037">
        <ele>555.6</ele>
        <time>2014-10-05T08:58:26.000Z</time>
      </trkpt>
      <trkpt lat="47.41268" lon="6.7503">
        <ele>555.8</ele>
        <time>2014-10-05T08:58:27.000Z</time>
      </trkpt>
      <trkpt lat="47.41267" lon="6.75021">
        <ele>554.4</ele>
        <time>2014-10-05T08:58:28.000Z</time>
      </trkpt>
      <trkpt lat="47.41266" lon="6.75012">
        <ele>555.1</ele>
        <time>2014-10-05T08:58:29.000Z</time>
      </trkpt>
      <trkpt lat="47.41265" lon="6.75003">
        <ele>555</ele>
        <time>2014-10-05T08:58:30.000Z</time>
      </trkpt>
      <trkpt lat="47.41264" lon="6.74993">
        <ele>557.4</ele>
        <time>2014-10-05T08:58:31.000Z</time>
      </trkpt>
      <trkpt lat="47.41261" lon="6.74985">
        <ele>557.5</ele>
        <time>2014-10-05T08:58:32.000Z</time>
      </trkpt>
      <trkpt lat="47.41259" lon="6.74976">
        <ele>557.9</ele>
        <time>2014-10-05T08:58:33.000Z</time>
      </trkpt>
      <trkpt lat="47.41256" lon="6.74968">
        <ele>558</ele>
        <time>2014-10-05T08:58:34.000Z</time>
      </trkpt>
      <trkpt lat="47.41254" lon="6.74961">
        <ele>558.1</ele>
        <time>2014-10-05T08:58:35.000Z</time>
      </trkpt>
      <trkpt lat="47.41251" lon="6.74953">
        <ele>558.6</ele>
        <time>2014-10-05T08:58:36.000Z</time>
      </trkpt>
      <trkpt lat="47.41248" lon="6.74945">
        <ele>559.5</ele>
        <time>2014-10-05T08:58:37.000Z</time>
      </trkpt>
      <trkpt lat="47.41245" lon="6.74938">
        <ele>560</ele>
        <time>2014-10-05T08:58:38.000Z</time>
      </trkpt>
      <trkpt lat="47.41243" lon="6.74931">
        <ele>560.2</ele>
        <time>2014-10-05T08:58:39.000Z</time>
      </trkpt>
      <trkpt lat="47.4124" lon="6.74923">
        <ele>560.8</ele>
        <time>2014-10-05T08:58:40.000Z</time>
      </trkpt>
      <trkpt lat="47.41236" lon="6.74915">
        <ele>560.1</ele>
        <time>2014-10-05T08:58:41.000Z</time>
      </trkpt>
      <trkpt lat="47.41234" lon="6.74909">
        <ele>561.3</ele>
        <time>2014-10-05T08:58:42.000Z</time>
      </trkpt>
      <trkpt lat="47.41231" lon="6.74901">
        <ele>561.4</ele>
        <time>2014-10-05T08:58:43.000Z</time>
      </trkpt>
      <trkpt lat="47.41226" lon="6.74893">
        <ele>560.4</ele>
        <time>2014-10-05T08:58:44.000Z</time>
      </trkpt>
      <trkpt lat="47.41223" lon="6.74885">
        <ele>561.4</ele>
        <time>2014-10-05T08:58:45.000Z</time>
      </trkpt>
      <trkpt lat="47.41221" lon="6.74878">
        <ele>561.6</ele>
        <time>2014-10-05T08:58:46.000Z</time>
      </trkpt>
      <trkpt lat="47.41219" lon="6.7487">
        <ele>561.5</ele>
        <time>2014-10-05T08:58:47.000Z</time>
      </trkpt>
      <trkpt lat="47.41216" lon="6.74863">
        <ele>561.5</ele>
        <time>2014-10-05T08:58:48.000Z</time>
      </trkpt>
      <trkpt lat="47.41214" lon="6.74855">
        <ele>561.9</ele>
        <time>2014-10-05T08:58:49.000Z</time>
      </trkpt>
      <trkpt lat="47.4121" lon="6.74848">
        <ele>561.5</ele>
        <time>2014-10-05T08:58:50.000Z</time>
      </trkpt>
      <trkpt lat="47.41206" lon="6.7484">
        <ele>561.9</ele>
        <time>2014-10-05T08:58:51.000Z</time>
      </trkpt>
      <trkpt lat="47.41203" lon="6.74831">
        <ele>561.7</ele>
        <time>2014-10-05T08:58:52.000Z</time>
      </trkpt>
      <trkpt lat="47.41198" lon="6.74824">
        <ele>560.7</ele>
        <time>2014-10-05T08:58:53.000Z</time>
      </trkpt>
      <trkpt lat="47.41194" lon="6.74817">
        <ele>560.8</ele>
        <time>2014-10-05T08:58:54.000Z</time>
      </trkpt>
      <trkpt lat="47.41191" lon="6.7481">
        <ele>560.8</ele>
        <time>2014-10-05T08:58:55.000Z</time>
      </trkpt>
      <trkpt lat="47.41188" lon="6.74803">
        <ele>561</ele>
        <time>2014-10-05T08:58:56.000Z</time>
      </trkpt>
      <trkpt lat="47.41183" lon="6.74798">
        <ele>559.9</ele>
        <time>2014-10-05T08:58:57.000Z</time>
      </trkpt>
      <trkpt lat="47.41179" lon="6.74792">
        <ele>559.6</ele>
        <time>2014-10-05T08:58:58.000Z</time>
      </trkpt>
      <trkpt lat="47.41174" lon="6.74785">
        <ele>560</ele>
        <time>2014-10-05T08:58:59.000Z</time>
      </trkpt>
      <trkpt lat="47.41171" lon="6.74779">
        <ele>560</ele>
        <time>2014-10-05T08:59:00.000Z</time>
      </trkpt>
      <trkpt lat="47.41166" lon="6.74772">
        <ele>559.1</ele>
        <time>2014-10-05T08:59:01.000Z</time>
      </trkpt>
      <trkpt lat="47.41163" lon="6.74764">
        <ele>559.3</ele>
        <time>2014-10-05T08:59:02.000Z</time>
      </trkpt>
      <trkpt lat="47.4116" lon="6.74756">
        <ele>559</ele>
        <time>2014-10-05T08:59:03.000Z</time>
      </trkpt>
      <trkpt lat="47.41158" lon="6.74748">
        <ele>558.1</ele>
        <time>2014-10-05T08:59:04.000Z</time>
      </trkpt>
      <trkpt lat="47.41156" lon="6.74739">
        <ele>557.5</ele>
        <time>2014-10-05T08:59:05.000Z</time>
      </trkpt>
      <trkpt lat="47.41155" lon="6.74729">
        <ele>557.6</ele>
        <time>2014-10-05T08:59:06.000Z</time>
      </trkpt>
      <trkpt lat="47.41155" lon="6.7472">
        <ele>557.2</ele>
        <time>2014-10-05T08:59:07.000Z</time>
      </trkpt>
      <trkpt lat="47.41157" lon="6.74711">
        <ele>557.9</ele>
        <time>2014-10-05T08:59:08.000Z</time>
      </trkpt>
      <trkpt lat="47.41158" lon="6.74701">
        <ele>557.1</ele>
        <time>2014-10-05T08:59:09.000Z</time>
      </trkpt>
      <trkpt lat="47.41159" lon="6.74692">
        <ele>557</ele>
        <time>2014-10-05T08:59:10.000Z</time>
      </trkpt>
      <trkpt lat="47.41163" lon="6.74686">
        <ele>557.1</ele>
        <time>2014-10-05T08:59:11.000Z</time>
      </trkpt>
      <trkpt lat="47.41169" lon="6.74681">
        <ele>557</ele>
        <time>2014-10-05T08:59:12.000Z</time>
      </trkpt>
      <trkpt lat="47.41174" lon="6.74675">
        <ele>557.1</ele>
        <time>2014-10-05T08:59:13.000Z</time>
      </trkpt>
      <trkpt lat="47.41179" lon="6.7467">
        <ele>557.2</ele>
        <time>2014-10-05T08:59:14.000Z</time>
      </trkpt>
      <trkpt lat="47.41181" lon="6.74673">
        <ele>557</ele>
        <time>2014-10-05T08:59:15.000Z</time>
      </trkpt>
      <trkpt lat="47.41185" lon="6.74671">
        <ele>556.9</ele>
        <time>2014-10-05T08:59:16.000Z</time>
      </trkpt>
      <trkpt lat="47.41231" lon="6.74645">
        <ele>546.8</ele>
        <time>2014-10-05T08:59:24.000Z</time>
      </trkpt>
      <trkpt lat="47.41237" lon="6.74636">
        <ele>546.8</ele>
        <time>2014-10-05T08:59:25.000Z</time>
      </trkpt>
      <trkpt lat="47.41247" lon="6.74629">
        <ele>547.1</ele>
        <time>2014-10-05T08:59:26.000Z</time>
      </trkpt>
      <trkpt lat="47.41255" lon="6.74625">
        <ele>546.3</ele>
        <time>2014-10-05T08:59:27.000Z</time>
      </trkpt>
      <trkpt lat="47.41261" lon="6.74618">
        <ele>546.4</ele>
        <time>2014-10-05T08:59:28.000Z</time>
      </trkpt>
      <trkpt lat="47.41269" lon="6.74613">
        <ele>546</ele>
        <time>2014-10-05T08:59:29.000Z</time>
      </trkpt>
      <trkpt lat="47.41275" lon="6.74608">
        <ele>546.3</ele>
        <time>2014-10-05T08:59:30.000Z</time>
      </trkpt>
      <trkpt lat="47.4128" lon="6.746">
        <ele>547</ele>
        <time>2014-10-05T08:59:31.000Z</time>
      </trkpt>
      <trkpt lat="47.41283" lon="6.74594">
        <ele>548.4</ele>
        <time>2014-10-05T08:59:32.000Z</time>
      </trkpt>
      <trkpt lat="47.41288" lon="6.74584">
        <ele>548.4</ele>
        <time>2014-10-05T08:59:33.000Z</time>
      </trkpt>
      <trkpt lat="47.41293" lon="6.74574">
        <ele>549.9</ele>
        <time>2014-10-05T08:59:34.000Z</time>
      </trkpt>
      <trkpt lat="47.41297" lon="6.74565">
        <ele>550.5</ele>
        <time>2014-10-05T08:59:35.000Z</time>
      </trkpt>
      <trkpt lat="47.41301" lon="6.74558">
        <ele>550.3</ele>
        <time>2014-10-05T08:59:36.000Z</time>
      </trkpt>
      <trkpt lat="47.41305" lon="6.7455">
        <ele>550.5</ele>
        <time>2014-10-05T08:59:37.000Z</time>
      </trkpt>
      <trkpt lat="47.4131" lon="6.74541">
        <ele>549.6</ele>
        <time>2014-10-05T08:59:38.000Z</time>
      </trkpt>
      <trkpt lat="47.41316" lon="6.74532">
        <ele>549.4</ele>
        <time>2014-10-05T08:59:39.000Z</time>
      </trkpt>
      <trkpt lat="47.41321" lon="6.74521">
        <ele>548.1</ele>
        <time>2014-10-05T08:59:40.000Z</time>
      </trkpt>
      <trkpt lat="47.41327" lon="6.7451">
        <ele>547.4</ele>
        <time>2014-10-05T08:59:41.000Z</time>
      </trkpt>
      <trkpt lat="47.41331" lon="6.74496">
        <ele>546.9</ele>
        <time>2014-10-05T08:59:42.000Z</time>
      </trkpt>
      <trkpt lat="47.41334" lon="6.74482">
        <ele>546</ele>
        <time>2014-10-05T08:59:43.000Z</time>
      </trkpt>
      <trkpt lat="47.41337" lon="6.74468">
        <ele>544.1</ele>
        <time>2014-10-05T08:59:44.000Z</time>
      </trkpt>
      <trkpt lat="47.41338" lon="6.74456">
        <ele>544.3</ele>
        <time>2014-10-05T08:59:45.000Z</time>
      </trkpt>
      <trkpt lat="47.41339" lon="6.74443">
        <ele>544.8</ele>
        <time>2014-10-05T08:59:46.000Z</time>
      </trkpt>
      <trkpt lat="47.41341" lon="6.74429">
        <ele>545</ele>
        <time>2014-10-05T08:59:47.000Z</time>
      </trkpt>
      <trkpt lat="47.41341" lon="6.74416">
        <ele>544.4</ele>
        <time>2014-10-05T08:59:48.000Z</time>
      </trkpt>
      <trkpt lat="47.41342" lon="6.74402">
        <ele>544</ele>
        <time>2014-10-05T08:59:49.000Z</time>
      </trkpt>
      <trkpt lat="47.41342" lon="6.7439">
        <ele>544.2</ele>
        <time>2014-10-05T08:59:50.000Z</time>
      </trkpt>
      <trkpt lat="47.41342" lon="6.74378">
        <ele>543.7</ele>
        <time>2014-10-05T08:59:51.000Z</time>
      </trkpt>
      <trkpt lat="47.41342" lon="6.74365">
        <ele>543.6</ele>
        <time>2014-10-05T08:59:52.000Z</time>
      </trkpt>
      <trkpt lat="47.4134" lon="6.74353">
        <ele>543.9</ele>
        <time>2014-10-05T08:59:53.000Z</time>
      </trkpt>
      <trkpt lat="47.41338" lon="6.74341">
        <ele>543.6</ele>
        <time>2014-10-05T08:59:54.000Z</time>
      </trkpt>
      <trkpt lat="47.41337" lon="6.74329">
        <ele>544.1</ele>
        <time>2014-10-05T08:59:55.000Z</time>
      </trkpt>
      <trkpt lat="47.41336" lon="6.74319">
        <ele>543.9</ele>
        <time>2014-10-05T08:59:56.000Z</time>
      </trkpt>
      <trkpt lat="47.41334" lon="6.74308">
        <ele>544.2</ele>
        <time>2014-10-05T08:59:57.000Z</time>
      </trkpt>
      <trkpt lat="47.41334" lon="6.74298">
        <ele>543.5</ele>
        <time>2014-10-05T08:59:58.000Z</time>
      </trkpt>
      <trkpt lat="47.41334" lon="6.74288">
        <ele>542.6</ele>
        <time>2014-10-05T08:59:59.000Z</time>
      </trkpt>
      <trkpt lat="47.41333" lon="6.74278">
        <ele>541.8</ele>
        <time>2014-10-05T09:00:00.000Z</time>
      </trkpt>
      <trkpt lat="47.41332" lon="6.74268">
        <ele>541.5</ele>
        <time>2014-10-05T09:00:01.000Z</time>
      </trkpt>
      <trkpt lat="47.41329" lon="6.74256">
        <ele>538.8</ele>
        <time>2014-10-05T09:00:02.000Z</time>
      </trkpt>
      <trkpt lat="47.41327" lon="6.74244">
        <ele>537.2</ele>
        <time>2014-10-05T09:00:03.000Z</time>
      </trkpt>
      <trkpt lat="47.41327" lon="6.74234">
        <ele>536.6</ele>
        <time>2014-10-05T09:00:04.000Z</time>
      </trkpt>
      <trkpt lat="47.41325" lon="6.74225">
        <ele>534.5</ele>
        <time>2014-10-05T09:00:05.000Z</time>
      </trkpt>
      <trkpt lat="47.41324" lon="6.74217">
        <ele>533.7</ele>
        <time>2014-10-05T09:00:06.000Z</time>
      </trkpt>
      <trkpt lat="47.41323" lon="6.74208">
        <ele>533.5</ele>
        <time>2014-10-05T09:00:07.000Z</time>
      </trkpt>
      <trkpt lat="47.41325" lon="6.742">
        <ele>531.2</ele>
        <time>2014-10-05T09:00:08.000Z</time>
      </trkpt>
      <trkpt lat="47.41325" lon="6.74192">
        <ele>531</ele>
        <time>2014-10-05T09:00:09.000Z</time>
      </trkpt>
      <trkpt lat="47.41324" lon="6.74184">
        <ele>530.6</ele>
        <time>2014-10-05T09:00:10.000Z</time>
      </trkpt>
      <trkpt lat="47.41323" lon="6.74176">
        <ele>530.4</ele>
        <time>2014-10-05T09:00:11.000Z</time>
      </trkpt>
      <trkpt lat="47.41323" lon="6.74169">
        <ele>529.7</ele>
        <time>2014-10-05T09:00:12.000Z</time>
      </trkpt>
      <trkpt lat="47.41321" lon="6.74161">
        <ele>529.7</ele>
        <time>2014-10-05T09:00:13.000Z</time>
      </trkpt>
      <trkpt lat="47.41319" lon="6.74155">
        <ele>529.2</ele>
        <time>2014-10-05T09:00:14.000Z</time>
      </trkpt>
      <trkpt lat="47.41319" lon="6.74146">
        <ele>529.1</ele>
        <time>2014-10-05T09:00:15.000Z</time>
      </trkpt>
      <trkpt lat="47.41318" lon="6.74137">
        <ele>528.7</ele>
        <time>2014-10-05T09:00:16.000Z</time>
      </trkpt>
      <trkpt lat="47.41318" lon="6.74061">
        <ele>522.6</ele>
        <time>2014-10-05T09:00:24.000Z</time>
      </trkpt>
      <trkpt lat="47.41318" lon="6.74046">
        <ele>522.1</ele>
        <time>2014-10-05T09:00:25.000Z</time>
      </trkpt>
      <trkpt lat="47.41319" lon="6.74033">
        <ele>521.6</ele>
        <time>2014-10-05T09:00:26.000Z</time>
      </trkpt>
      <trkpt lat="47.41318" lon="6.7402">
        <ele>521.1</ele>
        <time>2014-10-05T09:00:27.000Z</time>
      </trkpt>
      <trkpt lat="47.41318" lon="6.74008">
        <ele>521</ele>
        <time>2014-10-05T09:00:28.000Z</time>
      </trkpt>
      <trkpt lat="47.41317" lon="6.73997">
        <ele>520.7</ele>
        <time>2014-10-05T09:00:29.000Z</time>
      </trkpt>
      <trkpt lat="47.41316" lon="6.73984">
        <ele>519.7</ele>
        <time>2014-10-05T09:00:30.000Z</time>
      </trkpt>
      <trkpt lat="47.41316" lon="6.73973">
        <ele>519.7</ele>
        <time>2014-10-05T09:00:31.000Z</time>
      </trkpt>
      <trkpt lat="47.41314" lon="6.73962">
        <ele>519.6</ele>
        <time>2014-10-05T09:00:32.000Z</time>
      </trkpt>
      <trkpt lat="47.41313" lon="6.73951">
        <ele>520.2</ele>
        <time>2014-10-05T09:00:33.000Z</time>
      </trkpt>
      <trkpt lat="47.41315" lon="6.73938">
        <ele>522.7</ele>
        <time>2014-10-05T09:00:34.000Z</time>
      </trkpt>
      <trkpt lat="47.41317" lon="6.73925">
        <ele>524.4</ele>
        <time>2014-10-05T09:00:34.999Z</time>
      </trkpt>
      <trkpt lat="47.41314" lon="6.73913">
        <ele>524.7</ele>
        <time>2014-10-05T09:00:36.000Z</time>
      </trkpt>
      <trkpt lat="47.41313" lon="6.739">
        <ele>524.3</ele>
        <time>2014-10-05T09:00:37.000Z</time>
      </trkpt>
      <trkpt lat="47.41311" lon="6.73888">
        <ele>524.6</ele>
        <time>2014-10-05T09:00:38.000Z</time>
      </trkpt>
      <trkpt lat="47.41311" lon="6.73875">
        <ele>524.7</ele>
        <time>2014-10-05T09:00:39.000Z</time>
      </trkpt>
      <trkpt lat="47.41311" lon="6.73863">
        <ele>523.3</ele>
        <time>2014-10-05T09:00:40.000Z</time>
      </trkpt>
      <trkpt lat="47.41311" lon="6.7385">
        <ele>522.9</ele>
        <time>2014-10-05T09:00:41.000Z</time>
      </trkpt>
      <trkpt lat="47.41311" lon="6.73837">
        <ele>522.2</ele>
        <time>2014-10-05T09:00:42.000Z</time>
      </trkpt>
      <trkpt lat="47.41313" lon="6.73826">
        <ele>523</ele>
        <time>2014-10-05T09:00:43.000Z</time>
      </trkpt>
      <trkpt lat="47.41313" lon="6.73812">
        <ele>524</ele>
        <time>2014-10-05T09:00:44.000Z</time>
      </trkpt>
      <trkpt lat="47.41314" lon="6.738">
        <ele>523.7</ele>
        <time>2014-10-05T09:00:45.000Z</time>
      </trkpt>
      <trkpt lat="47.41317" lon="6.73787">
        <ele>523.9</ele>
        <time>2014-10-05T09:00:46.000Z</time>
      </trkpt>
      <trkpt lat="47.41321" lon="6.73772">
        <ele>522.5</ele>
        <time>2014-10-05T09:00:47.000Z</time>
      </trkpt>
      <trkpt lat="47.41323" lon="6.73759">
        <ele>522.6</ele>
        <time>2014-10-05T09:00:48.000Z</time>
      </trkpt>
      <trkpt lat="47.41325" lon="6.73746">
        <ele>523.7</ele>
        <time>2014-10-05T09:00:49.000Z</time>
      </trkpt>
      <trkpt lat="47.41327" lon="6.73733">
        <ele>524.4</ele>
        <time>2014-10-05T09:00:50.000Z</time>
      </trkpt>
      <trkpt lat="47.4133" lon="6.73719">
        <ele>525.2</ele>
        <time>2014-10-05T09:00:51.000Z</time>
      </trkpt>
      <trkpt lat="47.41331" lon="6.73709">
        <ele>522.9</ele>
        <time>2014-10-05T09:00:52.000Z</time>
      </trkpt>
      <trkpt lat="47.41333" lon="6.73696">
        <ele>522.8</ele>
        <time>2014-10-05T09:00:53.000Z</time>
      </trkpt>
      <trkpt lat="47.41334" lon="6.73684">
        <ele>523.4</ele>
        <time>2014-10-05T09:00:54.000Z</time>
      </trkpt>
      <trkpt lat="47.41336" lon="6.73673">
        <ele>522.9</ele>
        <time>2014-10-05T09:00:55.000Z</time>
      </trkpt>
      <trkpt lat="47.41337" lon="6.73664">
        <ele>522.5</ele>
        <time>2014-10-05T09:00:56.000Z</time>
      </trkpt>
      <trkpt lat="47.41337" lon="6.73657">
        <ele>522.1</ele>
        <time>2014-10-05T09:00:57.000Z</time>
      </trkpt>
      <trkpt lat="47.41336" lon="6.7365">
        <ele>522.8</ele>
        <time>2014-10-05T09:00:58.000Z</time>
      </trkpt>
      <trkpt lat="47.41333" lon="6.73646">
        <ele>523.3</ele>
        <time>2014-10-05T09:00:59.000Z</time>
      </trkpt>
      <trkpt lat="47.41329" lon="6.73642">
        <ele>523.1</ele>
        <time>2014-10-05T09:01:00.000Z</time>
      </trkpt>
      <trkpt lat="47.41326" lon="6.73639">
        <ele>521.5</ele>
        <time>2014-10-05T09:01:01.000Z</time>
      </trkpt>
      <trkpt lat="47.41323" lon="6.73638">
        <ele>521.6</ele>
        <time>2014-10-05T09:01:02.000Z</time>
      </trkpt>
      <trkpt lat="47.41318" lon="6.73638">
        <ele>522.2</ele>
        <time>2014-10-05T09:01:04.000Z</time>
      </trkpt>
      <trkpt lat="47.41315" lon="6.73639">
        <ele>522.6</ele>
        <time>2014-10-05T09:01:05.000Z</time>
      </trkpt>
      <trkpt lat="47.41313" lon="6.73641">
        <ele>522.7</ele>
        <time>2014-10-05T09:01:06.000Z</time>
      </trkpt>
      <trkpt lat="47.41311" lon="6.73644">
        <ele>523.3</ele>
        <time>2014-10-05T09:01:07.000Z</time>
      </trkpt>
      <trkpt lat="47.41309" lon="6.73646">
        <ele>524.2</ele>
        <time>2014-10-05T09:01:08.000Z</time>
      </trkpt>
      <trkpt lat="47.41308" lon="6.73648">
        <ele>523.8</ele>
        <time>2014-10-05T09:01:09.000Z</time>
      </trkpt>
      <trkpt lat="47.41304" lon="6.73652">
        <ele>525.8</ele>
        <time>2014-10-05T09:01:11.000Z</time>
      </trkpt>
      <trkpt lat="47.41303" lon="6.73653">
        <ele>526</ele>
        <time>2014-10-05T09:01:12.000Z</time>
      </trkpt>
      <trkpt lat="47.413" lon="6.73657">
        <ele>526.8</ele>
        <time>2014-10-05T09:01:14.000Z</time>
      </trkpt>
      <trkpt lat="47.41299" lon="6.73658">
        <ele>527.3</ele>
        <time>2014-10-05T09:01:15.000Z</time>
      </trkpt>
      <trkpt lat="47.41297" lon="6.7366">
        <ele>527.1</ele>
        <time>2014-10-05T09:01:16.000Z</time>
      </trkpt>
      <trkpt lat="47.41291" lon="6.73665">
        <ele>522.6</ele>
        <time>2014-10-05T09:01:19.000Z</time>
      </trkpt>
      <trkpt lat="47.41289" lon="6.73667">
        <ele>525.7</ele>
        <time>2014-10-05T09:01:20.000Z</time>
      </trkpt>
      <trkpt lat="47.41286" lon="6.73671">
        <ele>525.3</ele>
        <time>2014-10-05T09:01:21.000Z</time>
      </trkpt>
      <trkpt lat="47.41284" lon="6.73674">
        <ele>526</ele>
        <time>2014-10-05T09:01:22.000Z</time>
      </trkpt>
      <trkpt lat="47.41282" lon="6.73676">
        <ele>525.6</ele>
        <time>2014-10-05T09:01:23.000Z</time>
      </trkpt>
      <trkpt lat="47.4128" lon="6.73679">
        <ele>525.6</ele>
        <time>2014-10-05T09:01:24.000Z</time>
      </trkpt>
      <trkpt lat="47.41278" lon="6.73681">
        <ele>525.2</ele>
        <time>2014-10-05T09:01:25.000Z</time>
      </trkpt>
      <trkpt lat="47.41276" lon="6.73683">
        <ele>525.5</ele>
        <time>2014-10-05T09:01:26.000Z</time>
      </trkpt>
      <trkpt lat="47.41274" lon="6.73685">
        <ele>525.9</ele>
        <time>2014-10-05T09:01:27.000Z</time>
      </trkpt>
      <trkpt lat="47.4127" lon="6.73689">
        <ele>527.2</ele>
        <time>2014-10-05T09:01:29.000Z</time>
      </trkpt>
      <trkpt lat="47.41269" lon="6.73691">
        <ele>527.5</ele>
        <time>2014-10-05T09:01:30.000Z</time>
      </trkpt>
      <trkpt lat="47.41267" lon="6.73693">
        <ele>527.8</ele>
        <time>2014-10-05T09:01:31.000Z</time>
      </trkpt>
      <trkpt lat="47.41265" lon="6.73695">
        <ele>528.1</ele>
        <time>2014-10-05T09:01:32.000Z</time>
      </trkpt>
      <trkpt lat="47.41262" lon="6.737">
        <ele>530</ele>
        <time>2014-10-05T09:01:34.000Z</time>
      </trkpt>
      <trkpt lat="47.4126" lon="6.73701">
        <ele>530.1</ele>
        <time>2014-10-05T09:01:35.000Z</time>
      </trkpt>
      <trkpt lat="47.41257" lon="6.73704">
        <ele>528.5</ele>
        <time>2014-10-05T09:01:37.000Z</time>
      </trkpt>
      <trkpt lat="47.41255" lon="6.73706">
        <ele>529.3</ele>
        <time>2014-10-05T09:01:38.000Z</time>
      </trkpt>
      <trkpt lat="47.41251" lon="6.73708">
        <ele>531.1</ele>
        <time>2014-10-05T09:01:40.000Z</time>
      </trkpt>
      <trkpt lat="47.41249" lon="6.7371">
        <ele>531.9</ele>
        <time>2014-10-05T09:01:41.000Z</time>
      </trkpt>
      <trkpt lat="47.41246" lon="6.73712">
        <ele>533.9</ele>
        <time>2014-10-05T09:01:43.000Z</time>
      </trkpt>
      <trkpt lat="47.41244" lon="6.73713">
        <ele>534.8</ele>
        <time>2014-10-05T09:01:44.000Z</time>
      </trkpt>
      <trkpt lat="47.4124" lon="6.73714">
        <ele>536.3</ele>
        <time>2014-10-05T09:01:46.000Z</time>
      </trkpt>
      <trkpt lat="47.41238" lon="6.73715">
        <ele>536.3</ele>
        <time>2014-10-05T09:01:47.000Z</time>
      </trkpt>
      <trkpt lat="47.41234" lon="6.73716">
        <ele>536.3</ele>
        <time>2014-10-05T09:01:49.000Z</time>
      </trkpt>
      <trkpt lat="47.41233" lon="6.73716">
        <ele>536.8</ele>
        <time>2014-10-05T09:01:50.000Z</time>
      </trkpt>
      <trkpt lat="47.41229" lon="6.73717">
        <ele>537.2</ele>
        <time>2014-10-05T09:01:52.000Z</time>
      </trkpt>
      <trkpt lat="47.41227" lon="6.73718">
        <ele>537.1</ele>
        <time>2014-10-05T09:01:53.000Z</time>
      </trkpt>
      <trkpt lat="47.41223" lon="6.7372">
        <ele>538.3</ele>
        <time>2014-10-05T09:01:55.000Z</time>
      </trkpt>
      <trkpt lat="47.41221" lon="6.73721">
        <ele>538.5</ele>
        <time>2014-10-05T09:01:56.000Z</time>
      </trkpt>
      <trkpt lat="47.41218" lon="6.73723">
        <ele>539.3</ele>
        <time>2014-10-05T09:01:58.000Z</time>
      </trkpt>
      <trkpt lat="47.41216" lon="6.73724">
        <ele>539.6</ele>
        <time>2014-10-05T09:01:59.000Z</time>
      </trkpt>
      <trkpt lat="47.41213" lon="6.73724">
        <ele>541.8</ele>
        <time>2014-10-05T09:02:01.000Z</time>
      </trkpt>
      <trkpt lat="47.41211" lon="6.73725">
        <ele>543.2</ele>
        <time>2014-10-05T09:02:02.000Z</time>
      </trkpt>
      <trkpt lat="47.41207" lon="6.73728">
        <ele>544.3</ele>
        <time>2014-10-05T09:02:05.000Z</time>
      </trkpt>
      <trkpt lat="47.41206" lon="6.73728">
        <ele>544.6</ele>
        <time>2014-10-05T09:02:06.000Z</time>
      </trkpt>
      <trkpt lat="47.41203" lon="6.73731">
        <ele>544.9</ele>
        <time>2014-10-05T09:02:08.000Z</time>
      </trkpt>
      <trkpt lat="47.41201" lon="6.73732">
        <ele>545.1</ele>
        <time>2014-10-05T09:02:09.000Z</time>
      </trkpt>
      <trkpt lat="47.41199" lon="6.73733">
        <ele>545.3</ele>
        <time>2014-10-05T09:02:11.000Z</time>
      </trkpt>
      <trkpt lat="47.41197" lon="6.73734">
        <ele>545</ele>
        <time>2014-10-05T09:02:12.000Z</time>
      </trkpt>
      <trkpt lat="47.41193" lon="6.73737">
        <ele>544.6</ele>
        <time>2014-10-05T09:02:14.000Z</time>
      </trkpt>
      <trkpt lat="47.41192" lon="6.73738">
        <ele>543.3</ele>
        <time>2014-10-05T09:02:15.000Z</time>
      </trkpt>
      <trkpt lat="47.41188" lon="6.73742">
        <ele>543.2</ele>
        <time>2014-10-05T09:02:17.000Z</time>
      </trkpt>
      <trkpt lat="47.41176" lon="6.73754">
        <ele>543.2</ele>
        <time>2014-10-05T09:02:25.000Z</time>
      </trkpt>
      <trkpt lat="47.41173" lon="6.73756">
        <ele>543</ele>
        <time>2014-10-05T09:02:27.000Z</time>
      </trkpt>
      <trkpt lat="47.41171" lon="6.73757">
        <ele>543.8</ele>
        <time>2014-10-05T09:02:28.000Z</time>
      </trkpt>
      <trkpt lat="47.41168" lon="6.73759">
        <ele>544.8</ele>
        <time>2014-10-05T09:02:30.000Z</time>
      </trkpt>
      <trkpt lat="47.41166" lon="6.73761">
        <ele>545.2</ele>
        <time>2014-10-05T09:02:31.000Z</time>
      </trkpt>
      <trkpt lat="47.41164" lon="6.73765">
        <ele>544.6</ele>
        <time>2014-10-05T09:02:33.000Z</time>
      </trkpt>
      <trkpt lat="47.41162" lon="6.73766">
        <ele>545.5</ele>
        <time>2014-10-05T09:02:34.000Z</time>
      </trkpt>
      <trkpt lat="47.4116" lon="6.7377">
        <ele>547.6</ele>
        <time>2014-10-05T09:02:36.000Z</time>
      </trkpt>
      <trkpt lat="47.41159" lon="6.73771">
        <ele>547.5</ele>
        <time>2014-10-05T09:02:37.000Z</time>
      </trkpt>
      <trkpt lat="47.41156" lon="6.73776">
        <ele>549.3</ele>
        <time>2014-10-05T09:02:40.000Z</time>
      </trkpt>
      <trkpt lat="47.41155" lon="6.73777">
        <ele>547.4</ele>
        <time>2014-10-05T09:02:41.000Z</time>
      </trkpt>
      <trkpt lat="47.41152" lon="6.73779">
        <ele>547.2</ele>
        <time>2014-10-05T09:02:44.000Z</time>
      </trkpt>
      <trkpt lat="47.41151" lon="6.7378">
        <ele>548</ele>
        <time>2014-10-05T09:02:45.000Z</time>
      </trkpt>
      <trkpt lat="47.4115" lon="6.73784">
        <ele>551</ele>
        <time>2014-10-05T09:02:47.000Z</time>
      </trkpt>
      <trkpt lat="47.41149" lon="6.73787">
        <ele>551.9</ele>
        <time>2014-10-05T09:02:48.000Z</time>
      </trkpt>
      <trkpt lat="47.41147" lon="6.73792">
        <ele>555.1</ele>
        <time>2014-10-05T09:02:50.000Z</time>
      </trkpt>
      <trkpt lat="47.41146" lon="6.73794">
        <ele>555.1</ele>
        <time>2014-10-05T09:02:51.000Z</time>
      </trkpt>
      <trkpt lat="47.41143" lon="6.73797">
        <ele>557.6</ele>
        <time>2014-10-05T09:02:53.000Z</time>
      </trkpt>
      <trkpt lat="47.41141" lon="6.73799">
        <ele>557.6</ele>
        <time>2014-10-05T09:02:54.000Z</time>
      </trkpt>
      <trkpt lat="47.41137" lon="6.73802">
        <ele>559.5</ele>
        <time>2014-10-05T09:02:56.000Z</time>
      </trkpt>
      <trkpt lat="47.41136" lon="6.73803">
        <ele>560.1</ele>
        <time>2014-10-05T09:02:57.000Z</time>
      </trkpt>
      <trkpt lat="47.41133" lon="6.73805">
        <ele>560.7</ele>
        <time>2014-10-05T09:02:59.000Z</time>
      </trkpt>
      <trkpt lat="47.41131" lon="6.73806">
        <ele>561.2</ele>
        <time>2014-10-05T09:03:00.000Z</time>
      </trkpt>
      <trkpt lat="47.41128" lon="6.73808">
        <ele>562.3</ele>
        <time>2014-10-05T09:03:02.000Z</time>
      </trkpt>
      <trkpt lat="47.41126" lon="6.73809">
        <ele>560.7</ele>
        <time>2014-10-05T09:03:03.000Z</time>
      </trkpt>
      <trkpt lat="47.41122" lon="6.73811">
        <ele>561.1</ele>
        <time>2014-10-05T09:03:05.000Z</time>
      </trkpt>
      <trkpt lat="47.4112" lon="6.73813">
        <ele>560.9</ele>
        <time>2014-10-05T09:03:06.000Z</time>
      </trkpt>
      <trkpt lat="47.41117" lon="6.73817">
        <ele>563.9</ele>
        <time>2014-10-05T09:03:08.000Z</time>
      </trkpt>
      <trkpt lat="47.41116" lon="6.73819">
        <ele>566</ele>
        <time>2014-10-05T09:03:09.000Z</time>
      </trkpt>
      <trkpt lat="47.41113" lon="6.73822">
        <ele>567.2</ele>
        <time>2014-10-05T09:03:11.000Z</time>
      </trkpt>
      <trkpt lat="47.41112" lon="6.73823">
        <ele>567.5</ele>
        <time>2014-10-05T09:03:12.000Z</time>
      </trkpt>
      <trkpt lat="47.4111" lon="6.73826">
        <ele>569.9</ele>
        <time>2014-10-05T09:03:14.000Z</time>
      </trkpt>
      <trkpt lat="47.41108" lon="6.73828">
        <ele>569.1</ele>
        <time>2014-10-05T09:03:15.000Z</time>
      </trkpt>
      <trkpt lat="47.41107" lon="6.73829">
        <ele>569</ele>
        <time>2014-10-05T09:03:16.000Z</time>
      </trkpt>
      <trkpt lat="47.41096" lon="6.73842">
        <ele>567.1</ele>
        <time>2014-10-05T09:03:24.000Z</time>
      </trkpt>
      <trkpt lat="47.41093" lon="6.73846">
        <ele>570.8</ele>
        <time>2014-10-05T09:03:26.000Z</time>
      </trkpt>
      <trkpt lat="47.41091" lon="6.73848">
        <ele>571</ele>
        <time>2014-10-05T09:03:27.000Z</time>
      </trkpt>
      <trkpt lat="47.4109" lon="6.7385">
        <ele>573.6</ele>
        <time>2014-10-05T09:03:28.000Z</time>
      </trkpt>
      <trkpt lat="47.41088" lon="6.73852">
        <ele>574.5</ele>
        <time>2014-10-05T09:03:29.000Z</time>
      </trkpt>
      <trkpt lat="47.41085" lon="6.73855">
        <ele>574.7</ele>
        <time>2014-10-05T09:03:30.000Z</time>
      </trkpt>
      <trkpt lat="47.41083" lon="6.73857">
        <ele>575.9</ele>
        <time>2014-10-05T09:03:31.000Z</time>
      </trkpt>
      <trkpt lat="47.41081" lon="6.73859">
        <ele>574.9</ele>
        <time>2014-10-05T09:03:32.000Z</time>
      </trkpt>
      <trkpt lat="47.41079" lon="6.73862">
        <ele>575.4</ele>
        <time>2014-10-05T09:03:33.000Z</time>
      </trkpt>
      <trkpt lat="47.41077" lon="6.73865">
        <ele>574.2</ele>
        <time>2014-10-05T09:03:34.000Z</time>
      </trkpt>
      <trkpt lat="47.41075" lon="6.73868">
        <ele>572.9</ele>
        <time>2014-10-05T09:03:35.000Z</time>
      </trkpt>
      <trkpt lat="47.41073" lon="6.73872">
        <ele>571.9</ele>
        <time>2014-10-05T09:03:36.000Z</time>
      </trkpt>
      <trkpt lat="47.41071" lon="6.73875">
        <ele>571</ele>
        <time>2014-10-05T09:03:37.000Z</time>
      </trkpt>
      <trkpt lat="47.41069" lon="6.73878">
        <ele>571.3</ele>
        <time>2014-10-05T09:03:38.000Z</time>
      </trkpt>
      <trkpt lat="47.41067" lon="6.7388">
        <ele>569.2</ele>
        <time>2014-10-05T09:03:39.000Z</time>
      </trkpt>
      <trkpt lat="47.41064" lon="6.73885">
        <ele>568.8</ele>
        <time>2014-10-05T09:03:41.000Z</time>
      </trkpt>
      <trkpt lat="47.41062" lon="6.73888">
        <ele>569.9</ele>
        <time>2014-10-05T09:03:42.000Z</time>
      </trkpt>
      <trkpt lat="47.4106" lon="6.7389">
        <ele>569.5</ele>
        <time>2014-10-05T09:03:43.000Z</time>
      </trkpt>
      <trkpt lat="47.41057" lon="6.73892">
        <ele>569.9</ele>
        <time>2014-10-05T09:03:44.000Z</time>
      </trkpt>
      <trkpt lat="47.41055" lon="6.73894">
        <ele>570.1</ele>
        <time>2014-10-05T09:03:45.000Z</time>
      </trkpt>
      <trkpt lat="47.41052" lon="6.73897">
        <ele>569.3</ele>
        <time>2014-10-05T09:03:46.000Z</time>
      </trkpt>
      <trkpt lat="47.4105" lon="6.73899">
        <ele>568.6</ele>
        <time>2014-10-05T09:03:47.000Z</time>
      </trkpt>
      <trkpt lat="47.41048" lon="6.73901">
        <ele>568.4</ele>
        <time>2014-10-05T09:03:48.000Z</time>
      </trkpt>
      <trkpt lat="47.41046" lon="6.73904">
        <ele>568</ele>
        <time>2014-10-05T09:03:49.000Z</time>
      </trkpt>
      <trkpt lat="47.41044" lon="6.73907">
        <ele>567.2</ele>
        <time>2014-10-05T09:03:50.000Z</time>
      </trkpt>
      <trkpt lat="47.41042" lon="6.7391">
        <ele>566.1</ele>
        <time>2014-10-05T09:03:51.000Z</time>
      </trkpt>
      <trkpt lat="47.4104" lon="6.73913">
        <ele>565.9</ele>
        <time>2014-10-05T09:03:52.000Z</time>
      </trkpt>
      <trkpt lat="47.41037" lon="6.73916">
        <ele>566.6</ele>
        <time>2014-10-05T09:03:53.000Z</time>
      </trkpt>
      <trkpt lat="47.41035" lon="6.73918">
        <ele>566.9</ele>
        <time>2014-10-05T09:03:54.000Z</time>
      </trkpt>
      <trkpt lat="47.41033" lon="6.73921">
        <ele>567.2</ele>
        <time>2014-10-05T09:03:55.000Z</time>
      </trkpt>
      <trkpt lat="47.41031" lon="6.73923">
        <ele>568.6</ele>
        <time>2014-10-05T09:03:56.000Z</time>
      </trkpt>
      <trkpt lat="47.41029" lon="6.73927">
        <ele>568.4</ele>
        <time>2014-10-05T09:03:57.000Z</time>
      </trkpt>
      <trkpt lat="47.41027" lon="6.7393">
        <ele>568.7</ele>
        <time>2014-10-05T09:03:58.000Z</time>
      </trkpt>
      <trkpt lat="47.41025" lon="6.73933">
        <ele>568.4</ele>
        <time>2014-10-05T09:03:59.000Z</time>
      </trkpt>
      <trkpt lat="47.41023" lon="6.73936">
        <ele>568.9</ele>
        <time>2014-10-05T09:04:00.000Z</time>
      </trkpt>
      <trkpt lat="47.41021" lon="6.73939">
        <ele>570.9</ele>
        <time>2014-10-05T09:04:01.000Z</time>
      </trkpt>
      <trkpt lat="47.41018" lon="6.73943">
        <ele>571.8</ele>
        <time>2014-10-05T09:04:02.000Z</time>
      </trkpt>
      <trkpt lat="47.41016" lon="6.73946">
        <ele>571.9</ele>
        <time>2014-10-05T09:04:03.000Z</time>
      </trkpt>
      <trkpt lat="47.41014" lon="6.73949">
        <ele>573.5</ele>
        <time>2014-10-05T09:04:04.000Z</time>
      </trkpt>
      <trkpt lat="47.41012" lon="6.73952">
        <ele>574.9</ele>
        <time>2014-10-05T09:04:05.000Z</time>
      </trkpt>
      <trkpt lat="47.41011" lon="6.73954">
        <ele>575.4</ele>
        <time>2014-10-05T09:04:06.000Z</time>
      </trkpt>
      <trkpt lat="47.41009" lon="6.73957">
        <ele>578.9</ele>
        <time>2014-10-05T09:04:07.000Z</time>
      </trkpt>
      <trkpt lat="47.41007" lon="6.73961">
        <ele>579.8</ele>
        <time>2014-10-05T09:04:08.000Z</time>
      </trkpt>
      <trkpt lat="47.41006" lon="6.73964">
        <ele>579.6</ele>
        <time>2014-10-05T09:04:09.000Z</time>
      </trkpt>
      <trkpt lat="47.41004" lon="6.73968">
        <ele>577.6</ele>
        <time>2014-10-05T09:04:10.000Z</time>
      </trkpt>
      <trkpt lat="47.41002" lon="6.73971">
        <ele>577.4</ele>
        <time>2014-10-05T09:04:11.000Z</time>
      </trkpt>
      <trkpt lat="47.40999" lon="6.73975">
        <ele>576.9</ele>
        <time>2014-10-05T09:04:12.000Z</time>
      </trkpt>
      <trkpt lat="47.40997" lon="6.73978">
        <ele>576.5</ele>
        <time>2014-10-05T09:04:13.000Z</time>
      </trkpt>
      <trkpt lat="47.40995" lon="6.73981">
        <ele>576</ele>
        <time>2014-10-05T09:04:14.000Z</time>
      </trkpt>
      <trkpt lat="47.40993" lon="6.73984">
        <ele>576.6</ele>
        <time>2014-10-05T09:04:15.000Z</time>
      </trkpt>
      <trkpt lat="47.40992" lon="6.73987">
        <ele>577.3</ele>
        <time>2014-10-05T09:04:16.000Z</time>
      </trkpt>
      <trkpt lat="47.4099" lon="6.73991">
        <ele>577.7</ele>
        <time>2014-10-05T09:04:17.000Z</time>
      </trkpt>
      <trkpt lat="47.4098" lon="6.74014">
        <ele>567.4</ele>
        <time>2014-10-05T09:04:25.000Z</time>
      </trkpt>
      <trkpt lat="47.40979" lon="6.74017">
        <ele>567.4</ele>
        <time>2014-10-05T09:04:26.000Z</time>
      </trkpt>
      <trkpt lat="47.40977" lon="6.7402">
        <ele>567.3</ele>
        <time>2014-10-05T09:04:27.000Z</time>
      </trkpt>
      <trkpt lat="47.40976" lon="6.74024">
        <ele>566.7</ele>
        <time>2014-10-05T09:04:28.000Z</time>
      </trkpt>
      <trkpt lat="47.40974" lon="6.74028">
        <ele>566.1</ele>
        <time>2014-10-05T09:04:29.000Z</time>
      </trkpt>
      <trkpt lat="47.40972" lon="6.74033">
        <ele>565.6</ele>
        <time>2014-10-05T09:04:30.000Z</time>
      </trkpt>
      <trkpt lat="47.4097" lon="6.74038">
        <ele>565.3</ele>
        <time>2014-10-05T09:04:31.000Z</time>
      </trkpt>
      <trkpt lat="47.40967" lon="6.74042">
        <ele>564.8</ele>
        <time>2014-10-05T09:04:32.000Z</time>
      </trkpt>
      <trkpt lat="47.40965" lon="6.74046">
        <ele>564.6</ele>
        <time>2014-10-05T09:04:33.000Z</time>
      </trkpt>
      <trkpt lat="47.40962" lon="6.7405">
        <ele>564.5</ele>
        <time>2014-10-05T09:04:34.000Z</time>
      </trkpt>
      <trkpt lat="47.40959" lon="6.74054">
        <ele>566</ele>
        <time>2014-10-05T09:04:35.000Z</time>
      </trkpt>
      <trkpt lat="47.40955" lon="6.74059">
        <ele>565.8</ele>
        <time>2014-10-05T09:04:36.000Z</time>
      </trkpt>
      <trkpt lat="47.40952" lon="6.74065">
        <ele>566</ele>
        <time>2014-10-05T09:04:37.000Z</time>
      </trkpt>
      <trkpt lat="47.40948" lon="6.7407">
        <ele>565</ele>
        <time>2014-10-05T09:04:38.000Z</time>
      </trkpt>
      <trkpt lat="47.40944" lon="6.74075">
        <ele>565</ele>
        <time>2014-10-05T09:04:39.000Z</time>
      </trkpt>
      <trkpt lat="47.4094" lon="6.74079">
        <ele>564.9</ele>
        <time>2014-10-05T09:04:40.000Z</time>
      </trkpt>
      <trkpt lat="47.40937" lon="6.74082">
        <ele>565.4</ele>
        <time>2014-10-05T09:04:41.000Z</time>
      </trkpt>
      <trkpt lat="47.40934" lon="6.74084">
        <ele>565.4</ele>
        <time>2014-10-05T09:04:42.000Z</time>
      </trkpt>
      <trkpt lat="47.40931" lon="6.74085">
        <ele>566</ele>
        <time>2014-10-05T09:04:43.000Z</time>
      </trkpt>
      <trkpt lat="47.40928" lon="6.74087">
        <ele>562.4</ele>
        <time>2014-10-05T09:04:44.000Z</time>
      </trkpt>
      <trkpt lat="47.40925" lon="6.74088">
        <ele>560</ele>
        <time>2014-10-05T09:04:45.000Z</time>
      </trkpt>
      <trkpt lat="47.40923" lon="6.74088">
        <ele>559.8</ele>
        <time>2014-10-05T09:04:46.000Z</time>
      </trkpt>
      <trkpt lat="47.4092" lon="6.74089">
        <ele>562.8</ele>
        <time>2014-10-05T09:04:47.000Z</time>
      </trkpt>
      <trkpt lat="47.40918" lon="6.74089">
        <ele>563.5</ele>
        <time>2014-10-05T09:04:48.000Z</time>
      </trkpt>
      <trkpt lat="47.40915" lon="6.74089">
        <ele>564.8</ele>
        <time>2014-10-05T09:04:49.000Z</time>
      </trkpt>
      <trkpt lat="47.40913" lon="6.74089">
        <ele>564</ele>
        <time>2014-10-05T09:04:50.000Z</time>
      </trkpt>
      <trkpt lat="47.40911" lon="6.74089">
        <ele>563.6</ele>
        <time>2014-10-05T09:04:51.000Z</time>
      </trkpt>
      <trkpt lat="47.40907" lon="6.74088">
        <ele>563.3</ele>
        <time>2014-10-05T09:04:53.000Z</time>
      </trkpt>
      <trkpt lat="47.40904" lon="6.74088">
        <ele>566.2</ele>
        <time>2014-10-05T09:04:54.000Z</time>
      </trkpt>
      <trkpt lat="47.40902" lon="6.74087">
        <ele>566.2</ele>
        <time>2014-10-05T09:04:55.000Z</time>
      </trkpt>
      <trkpt lat="47.409" lon="6.74087">
        <ele>566.3</ele>
        <time>2014-10-05T09:04:56.000Z</time>
      </trkpt>
      <trkpt lat="47.40897" lon="6.74086">
        <ele>564.5</ele>
        <time>2014-10-05T09:04:57.000Z</time>
      </trkpt>
      <trkpt lat="47.40895" lon="6.74084">
        <ele>563.7</ele>
        <time>2014-10-05T09:04:58.000Z</time>
      </trkpt>
      <trkpt lat="47.40892" lon="6.74083">
        <ele>564.9</ele>
        <time>2014-10-05T09:04:59.000Z</time>
      </trkpt>
      <trkpt lat="47.40889" lon="6.74082">
        <ele>565.1</ele>
        <time>2014-10-05T09:05:00.000Z</time>
      </trkpt>
      <trkpt lat="47.40886" lon="6.7408">
        <ele>567.3</ele>
        <time>2014-10-05T09:05:01.000Z</time>
      </trkpt>
      <trkpt lat="47.40883" lon="6.74078">
        <ele>565.2</ele>
        <time>2014-10-05T09:05:02.000Z</time>
      </trkpt>
      <trkpt lat="47.4088" lon="6.74075">
        <ele>563.6</ele>
        <time>2014-10-05T09:05:03.000Z</time>
      </trkpt>
      <trkpt lat="47.40877" lon="6.74073">
        <ele>563.8</ele>
        <time>2014-10-05T09:05:04.000Z</time>
      </trkpt>
      <trkpt lat="47.40875" lon="6.74071">
        <ele>563.7</ele>
        <time>2014-10-05T09:05:05.000Z</time>
      </trkpt>
      <trkpt lat="47.40872" lon="6.7407">
        <ele>563.7</ele>
        <time>2014-10-05T09:05:06.000Z</time>
      </trkpt>
      <trkpt lat="47.40869" lon="6.74069">
        <ele>561.4</ele>
        <time>2014-10-05T09:05:07.000Z</time>
      </trkpt>
      <trkpt lat="47.40866" lon="6.74067">
        <ele>560.6</ele>
        <time>2014-10-05T09:05:08.000Z</time>
      </trkpt>
      <trkpt lat="47.40863" lon="6.74066">
        <ele>560.8</ele>
        <time>2014-10-05T09:05:09.000Z</time>
      </trkpt>
      <trkpt lat="47.4086" lon="6.74065">
        <ele>560.8</ele>
        <time>2014-10-05T09:05:10.000Z</time>
      </trkpt>
      <trkpt lat="47.40857" lon="6.74064">
        <ele>561</ele>
        <time>2014-10-05T09:05:11.000Z</time>
      </trkpt>
      <trkpt lat="47.40854" lon="6.74064">
        <ele>562.4</ele>
        <time>2014-10-05T09:05:12.000Z</time>
      </trkpt>
      <trkpt lat="47.40851" lon="6.74063">
        <ele>560.8</ele>
        <time>2014-10-05T09:05:13.000Z</time>
      </trkpt>
      <trkpt lat="47.40848" lon="6.74063">
        <ele>560.6</ele>
        <time>2014-10-05T09:05:14.000Z</time>
      </trkpt>
      <trkpt lat="47.40846" lon="6.74063">
        <ele>560.9</ele>
        <time>2014-10-05T09:05:15.000Z</time>
      </trkpt>
      <trkpt lat="47.40844" lon="6.74061">
        <ele>561.1</ele>
        <time>2014-10-05T09:05:16.000Z</time>
      </trkpt>
      <trkpt lat="47.40838" lon="6.74053">
        <ele>556.6</ele>
        <time>2014-10-05T09:05:19.000Z</time>
      </trkpt>
      <trkpt lat="47.40834" lon="6.7405">
        <ele>556.5</ele>
        <time>2014-10-05T09:05:21.000Z</time>
      </trkpt>
      <trkpt lat="47.40832" lon="6.74049">
        <ele>557.2</ele>
        <time>2014-10-05T09:05:22.000Z</time>
      </trkpt>
      <trkpt lat="47.40827" lon="6.74048">
        <ele>562.9</ele>
        <time>2014-10-05T09:05:24.000Z</time>
      </trkpt>
      <trkpt lat="47.40825" lon="6.74048">
        <ele>564.3</ele>
        <time>2014-10-05T09:05:25.000Z</time>
      </trkpt>
      <trkpt lat="47.40821" lon="6.74048">
        <ele>564.4</ele>
        <time>2014-10-05T09:05:27.000Z</time>
      </trkpt>
      <trkpt lat="47.40819" lon="6.74048">
        <ele>564.1</ele>
        <time>2014-10-05T09:05:28.000Z</time>
      </trkpt>
      <trkpt lat="47.40816" lon="6.74048">
        <ele>564.3</ele>
        <time>2014-10-05T09:05:29.000Z</time>
      </trkpt>
      <trkpt lat="47.40812" lon="6.74048">
        <ele>563.8</ele>
        <time>2014-10-05T09:05:30.000Z</time>
      </trkpt>
      <trkpt lat="47.40808" lon="6.74048">
        <ele>563.3</ele>
        <time>2014-10-05T09:05:31.000Z</time>
      </trkpt>
      <trkpt lat="47.40805" lon="6.74047">
        <ele>564.8</ele>
        <time>2014-10-05T09:05:32.000Z</time>
      </trkpt>
      <trkpt lat="47.40801" lon="6.74047">
        <ele>564.3</ele>
        <time>2014-10-05T09:05:33.000Z</time>
      </trkpt>
      <trkpt lat="47.40797" lon="6.74046">
        <ele>565.4</ele>
        <time>2014-10-05T09:05:34.000Z</time>
      </trkpt>
      <trkpt lat="47.40794" lon="6.74046">
        <ele>564.5</ele>
        <time>2014-10-05T09:05:35.000Z</time>
      </trkpt>
      <trkpt lat="47.40789" lon="6.74045">
        <ele>564.6</ele>
        <time>2014-10-05T09:05:36.000Z</time>
      </trkpt>
      <trkpt lat="47.40785" lon="6.74044">
        <ele>564.6</ele>
        <time>2014-10-05T09:05:37.000Z</time>
      </trkpt>
      <trkpt lat="47.40781" lon="6.74043">
        <ele>564.8</ele>
        <time>2014-10-05T09:05:38.000Z</time>
      </trkpt>
      <trkpt lat="47.40777" lon="6.74042">
        <ele>565.3</ele>
        <time>2014-10-05T09:05:39.000Z</time>
      </trkpt>
      <trkpt lat="47.40773" lon="6.74041">
        <ele>567</ele>
        <time>2014-10-05T09:05:40.000Z</time>
      </trkpt>
      <trkpt lat="47.4077" lon="6.74041">
        <ele>567.6</ele>
        <time>2014-10-05T09:05:41.000Z</time>
      </trkpt>
      <trkpt lat="47.40767" lon="6.74042">
        <ele>567.8</ele>
        <time>2014-10-05T09:05:42.000Z</time>
      </trkpt>
      <trkpt lat="47.40764" lon="6.74042">
        <ele>568.5</ele>
        <time>2014-10-05T09:05:43.000Z</time>
      </trkpt>
      <trkpt lat="47.40761" lon="6.74042">
        <ele>568.7</ele>
        <time>2014-10-05T09:05:44.000Z</time>
      </trkpt>
      <trkpt lat="47.40758" lon="6.74042">
        <ele>568.6</ele>
        <time>2014-10-05T09:05:45.000Z</time>
      </trkpt>
      <trkpt lat="47.40756" lon="6.74041">
        <ele>568.3</ele>
        <time>2014-10-05T09:05:46.000Z</time>
      </trkpt>
      <trkpt lat="47.40753" lon="6.7404">
        <ele>568</ele>
        <time>2014-10-05T09:05:47.000Z</time>
      </trkpt>
      <trkpt lat="47.40751" lon="6.74039">
        <ele>568</ele>
        <time>2014-10-05T09:05:48.000Z</time>
      </trkpt>
      <trkpt lat="47.40748" lon="6.74038">
        <ele>572</ele>
        <time>2014-10-05T09:05:49.000Z</time>
      </trkpt>
      <trkpt lat="47.40746" lon="6.74037">
        <ele>572.6</ele>
        <time>2014-10-05T09:05:50.000Z</time>
      </trkpt>
      <trkpt lat="47.40743" lon="6.74036">
        <ele>572.7</ele>
        <time>2014-10-05T09:05:51.000Z</time>
      </trkpt>
      <trkpt lat="47.4074" lon="6.74035">
        <ele>572.5</ele>
        <time>2014-10-05T09:05:52.000Z</time>
      </trkpt>
      <trkpt lat="47.40737" lon="6.74034">
        <ele>572.6</ele>
        <time>2014-10-05T09:05:53.000Z</time>
      </trkpt>
      <trkpt lat="47.40734" lon="6.74032">
        <ele>572.6</ele>
        <time>2014-10-05T09:05:54.000Z</time>
      </trkpt>
      <trkpt lat="47.40732" lon="6.7403">
        <ele>574.7</ele>
        <time>2014-10-05T09:05:55.000Z</time>
      </trkpt>
      <trkpt lat="47.4073" lon="6.74028">
        <ele>574.8</ele>
        <time>2014-10-05T09:05:56.000Z</time>
      </trkpt>
      <trkpt lat="47.40728" lon="6.74023">
        <ele>574.4</ele>
        <time>2014-10-05T09:05:58.000Z</time>
      </trkpt>
      <trkpt lat="47.40726" lon="6.74022">
        <ele>575</ele>
        <time>2014-10-05T09:05:59.000Z</time>
      </trkpt>
      <trkpt lat="47.40724" lon="6.74021">
        <ele>574.4</ele>
        <time>2014-10-05T09:06:00.000Z</time>
      </trkpt>
      <trkpt lat="47.40721" lon="6.7402">
        <ele>574.1</ele>
        <time>2014-10-05T09:06:01.000Z</time>
      </trkpt>
      <trkpt lat="47.40719" lon="6.74019">
        <ele>574.1</ele>
        <time>2014-10-05T09:06:02.000Z</time>
      </trkpt>
      <trkpt lat="47.40716" lon="6.74018">
        <ele>574.7</ele>
        <time>2014-10-05T09:06:03.000Z</time>
      </trkpt>
      <trkpt lat="47.40713" lon="6.74017">
        <ele>574.5</ele>
        <time>2014-10-05T09:06:04.000Z</time>
      </trkpt>
      <trkpt lat="47.4071" lon="6.74016">
        <ele>574.8</ele>
        <time>2014-10-05T09:06:05.000Z</time>
      </trkpt>
      <trkpt lat="47.40706" lon="6.74015">
        <ele>574</ele>
        <time>2014-10-05T09:06:06.000Z</time>
      </trkpt>
      <trkpt lat="47.40701" lon="6.74014">
        <ele>573.1</ele>
        <time>2014-10-05T09:06:07.000Z</time>
      </trkpt>
      <trkpt lat="47.40696" lon="6.74014">
        <ele>572.5</ele>
        <time>2014-10-05T09:06:08.000Z</time>
      </trkpt>
      <trkpt lat="47.40691" lon="6.74014">
        <ele>571.2</ele>
        <time>2014-10-05T09:06:09.000Z</time>
      </trkpt>
      <trkpt lat="47.40686" lon="6.74013">
        <ele>571</ele>
        <time>2014-10-05T09:06:10.000Z</time>
      </trkpt>
      <trkpt lat="47.40681" lon="6.74013">
        <ele>570.7</ele>
        <time>2014-10-05T09:06:11.000Z</time>
      </trkpt>
      <trkpt lat="47.40677" lon="6.74013">
        <ele>570.4</ele>
        <time>2014-10-05T09:06:12.000Z</time>
      </trkpt>
      <trkpt lat="47.40673" lon="6.74013">
        <ele>571.1</ele>
        <time>2014-10-05T09:06:13.000Z</time>
      </trkpt>
      <trkpt lat="47.4067" lon="6.74013">
        <ele>572.6</ele>
        <time>2014-10-05T09:06:14.000Z</time>
      </trkpt>
      <trkpt lat="47.40667" lon="6.74013">
        <ele>572.9</ele>
        <time>2014-10-05T09:06:15.000Z</time>
      </trkpt>
      <trkpt lat="47.40664" lon="6.74013">
        <ele>573.8</ele>
        <time>2014-10-05T09:06:16.000Z</time>
      </trkpt>
      <trkpt lat="47.40656" lon="6.74015">
        <ele>562.7</ele>
        <time>2014-10-05T09:06:19.000Z</time>
      </trkpt>
      <trkpt lat="47.40653" lon="6.74015">
        <ele>560</ele>
        <time>2014-10-05T09:06:20.000Z</time>
      </trkpt>
      <trkpt lat="47.40649" lon="6.74014">
        <ele>559.5</ele>
        <time>2014-10-05T09:06:21.000Z</time>
      </trkpt>
      <trkpt lat="47.40645" lon="6.74013">
        <ele>554.5</ele>
        <time>2014-10-05T09:06:22.000Z</time>
      </trkpt>
      <trkpt lat="47.4064" lon="6.74012">
        <ele>552.3</ele>
        <time>2014-10-05T09:06:23.000Z</time>
      </trkpt>
      <trkpt lat="47.40636" lon="6.74011">
        <ele>551.9</ele>
        <time>2014-10-05T09:06:24.000Z</time>
      </trkpt>
      <trkpt lat="47.40632" lon="6.7401">
        <ele>551.6</ele>
        <time>2014-10-05T09:06:25.000Z</time>
      </trkpt>
      <trkpt lat="47.40629" lon="6.74009">
        <ele>553.7</ele>
        <time>2014-10-05T09:06:26.000Z</time>
      </trkpt>
      <trkpt lat="47.40627" lon="6.7401">
        <ele>554.1</ele>
        <time>2014-10-05T09:06:27.000Z</time>
      </trkpt>
      <trkpt lat="47.40624" lon="6.74011">
        <ele>554.8</ele>
        <time>2014-10-05T09:06:29.000Z</time>
      </trkpt>
      <trkpt lat="47.40622" lon="6.74011">
        <ele>554.9</ele>
        <time>2014-10-05T09:06:30.000Z</time>
      </trkpt>
      <trkpt lat="47.40618" lon="6.7401">
        <ele>555.1</ele>
        <time>2014-10-05T09:06:33.000Z</time>
      </trkpt>
      <trkpt lat="47.40615" lon="6.74009">
        <ele>551.2</ele>
        <time>2014-10-05T09:06:34.000Z</time>
      </trkpt>
      <trkpt lat="47.40611" lon="6.74009">
        <ele>550.4</ele>
        <time>2014-10-05T09:06:35.000Z</time>
      </trkpt>
      <trkpt lat="47.40607" lon="6.74008">
        <ele>550.2</ele>
        <time>2014-10-05T09:06:36.000Z</time>
      </trkpt>
      <trkpt lat="47.40602" lon="6.74007">
        <ele>550</ele>
        <time>2014-10-05T09:06:37.000Z</time>
      </trkpt>
      <trkpt lat="47.40598" lon="6.74006">
        <ele>551.1</ele>
        <time>2014-10-05T09:06:38.000Z</time>
      </trkpt>
      <trkpt lat="47.40594" lon="6.74005">
        <ele>550.9</ele>
        <time>2014-10-05T09:06:39.000Z</time>
      </trkpt>
      <trkpt lat="47.40591" lon="6.74004">
        <ele>550.7</ele>
        <time>2014-10-05T09:06:40.000Z</time>
      </trkpt>
      <trkpt lat="47.40587" lon="6.74003">
        <ele>550.3</ele>
        <time>2014-10-05T09:06:41.000Z</time>
      </trkpt>
      <trkpt lat="47.40584" lon="6.74002">
        <ele>550.5</ele>
        <time>2014-10-05T09:06:42.000Z</time>
      </trkpt>
      <trkpt lat="47.40581" lon="6.74001">
        <ele>551.3</ele>
        <time>2014-10-05T09:06:43.000Z</time>
      </trkpt>
      <trkpt lat="47.40577" lon="6.74001">
        <ele>551</ele>
        <time>2014-10-05T09:06:44.000Z</time>
      </trkpt>
      <trkpt lat="47.40574" lon="6.74001">
        <ele>551.3</ele>
        <time>2014-10-05T09:06:45.000Z</time>
      </trkpt>
      <trkpt lat="47.40569" lon="6.74001">
        <ele>550.8</ele>
        <time>2014-10-05T09:06:46.000Z</time>
      </trkpt>
      <trkpt lat="47.40564" lon="6.74">
        <ele>549.4</ele>
        <time>2014-10-05T09:06:47.000Z</time>
      </trkpt>
      <trkpt lat="47.40559" lon="6.73998">
        <ele>548</ele>
        <time>2014-10-05T09:06:48.000Z</time>
      </trkpt>
      <trkpt lat="47.40553" lon="6.73996">
        <ele>547.6</ele>
        <time>2014-10-05T09:06:49.000Z</time>
      </trkpt>
      <trkpt lat="47.40549" lon="6.73993">
        <ele>547.6</ele>
        <time>2014-10-05T09:06:50.000Z</time>
      </trkpt>
      <trkpt lat="47.40544" lon="6.73992">
        <ele>547.5</ele>
        <time>2014-10-05T09:06:51.000Z</time>
      </trkpt>
      <trkpt lat="47.4054" lon="6.73991">
        <ele>547.5</ele>
        <time>2014-10-05T09:06:52.000Z</time>
      </trkpt>
      <trkpt lat="47.40537" lon="6.7399">
        <ele>547.5</ele>
        <time>2014-10-05T09:06:53.000Z</time>
      </trkpt>
      <trkpt lat="47.40532" lon="6.7399">
        <ele>548.2</ele>
        <time>2014-10-05T09:06:54.000Z</time>
      </trkpt>
      <trkpt lat="47.40528" lon="6.73991">
        <ele>548.8</ele>
        <time>2014-10-05T09:06:55.000Z</time>
      </trkpt>
      <trkpt lat="47.40524" lon="6.7399">
        <ele>551.8</ele>
        <time>2014-10-05T09:06:56.000Z</time>
      </trkpt>
      <trkpt lat="47.40513" lon="6.73989">
        <ele>551.4</ele>
        <time>2014-10-05T09:06:57.000Z</time>
      </trkpt>
      <trkpt lat="47.40509" lon="6.73988">
        <ele>550.8</ele>
        <time>2014-10-05T09:06:58.000Z</time>
      </trkpt>
      <trkpt lat="47.40506" lon="6.73988">
        <ele>550.2</ele>
        <time>2014-10-05T09:06:59.000Z</time>
      </trkpt>
      <trkpt lat="47.40499" lon="6.73987">
        <ele>549.9</ele>
        <time>2014-10-05T09:07:00.000Z</time>
      </trkpt>
      <trkpt lat="47.40493" lon="6.73983">
        <ele>550.5</ele>
        <time>2014-10-05T09:07:01.000Z</time>
      </trkpt>
      <trkpt lat="47.40486" lon="6.73984">
        <ele>549.2</ele>
        <time>2014-10-05T09:07:02.000Z</time>
      </trkpt>
      <trkpt lat="47.4048" lon="6.73985">
        <ele>548</ele>
        <time>2014-10-05T09:07:03.000Z</time>
      </trkpt>
      <trkpt lat="47.40475" lon="6.73989">
        <ele>543.4</ele>
        <time>2014-10-05T09:07:04.000Z</time>
      </trkpt>
      <trkpt lat="47.40471" lon="6.73991">
        <ele>542.3</ele>
        <time>2014-10-05T09:07:05.000Z</time>
      </trkpt>
      <trkpt lat="47.40467" lon="6.73991">
        <ele>541.9</ele>
        <time>2014-10-05T09:07:06.000Z</time>
      </trkpt>
      <trkpt lat="47.40465" lon="6.7399">
        <ele>541.9</ele>
        <time>2014-10-05T09:07:07.000Z</time>
      </trkpt>
      <trkpt lat="47.40461" lon="6.73988">
        <ele>541.4</ele>
        <time>2014-10-05T09:07:08.000Z</time>
      </trkpt>
      <trkpt lat="47.40458" lon="6.73984">
        <ele>541.4</ele>
        <time>2014-10-05T09:07:09.000Z</time>
      </trkpt>
      <trkpt lat="47.40456" lon="6.73983">
        <ele>542</ele>
        <time>2014-10-05T09:07:10.000Z</time>
      </trkpt>
      <trkpt lat="47.40453" lon="6.73979">
        <ele>543.4</ele>
        <time>2014-10-05T09:07:14.000Z</time>
      </trkpt>
      <trkpt lat="47.40452" lon="6.73979">
        <ele>543.9</ele>
        <time>2014-10-05T09:07:15.000Z</time>
      </trkpt>
      <trkpt lat="47.40449" lon="6.73977">
        <ele>527.3</ele>
        <time>2014-10-05T09:07:19.000Z</time>
      </trkpt>
      <trkpt lat="47.40448" lon="6.73976">
        <ele>527.9</ele>
        <time>2014-10-05T09:07:20.000Z</time>
      </trkpt>
      <trkpt lat="47.40445" lon="6.73973">
        <ele>528.9</ele>
        <time>2014-10-05T09:07:22.000Z</time>
      </trkpt>
      <trkpt lat="47.40444" lon="6.73971">
        <ele>529.6</ele>
        <time>2014-10-05T09:07:23.000Z</time>
      </trkpt>
      <trkpt lat="47.40442" lon="6.73968">
        <ele>530.5</ele>
        <time>2014-10-05T09:07:24.000Z</time>
      </trkpt>
      <trkpt lat="47.40439" lon="6.73965">
        <ele>531.5</ele>
        <time>2014-10-05T09:07:25.000Z</time>
      </trkpt>
      <trkpt lat="47.40437" lon="6.73962">
        <ele>532.3</ele>
        <time>2014-10-05T09:07:26.000Z</time>
      </trkpt>
      <trkpt lat="47.40435" lon="6.73958">
        <ele>532.9</ele>
        <time>2014-10-05T09:07:27.000Z</time>
      </trkpt>
      <trkpt lat="47.40433" lon="6.73955">
        <ele>532.9</ele>
        <time>2014-10-05T09:07:28.000Z</time>
      </trkpt>
      <trkpt lat="47.40431" lon="6.73951">
        <ele>533.9</ele>
        <time>2014-10-05T09:07:29.000Z</time>
      </trkpt>
      <trkpt lat="47.40428" lon="6.73948">
        <ele>534.8</ele>
        <time>2014-10-05T09:07:30.000Z</time>
      </trkpt>
      <trkpt lat="47.40425" lon="6.73944">
        <ele>535.9</ele>
        <time>2014-10-05T09:07:31.000Z</time>
      </trkpt>
      <trkpt lat="47.40423" lon="6.7394">
        <ele>537</ele>
        <time>2014-10-05T09:07:32.000Z</time>
      </trkpt>
      <trkpt lat="47.40421" lon="6.73937">
        <ele>536.9</ele>
        <time>2014-10-05T09:07:33.000Z</time>
      </trkpt>
      <trkpt lat="47.4042" lon="6.73931">
        <ele>536</ele>
        <time>2014-10-05T09:07:37.000Z</time>
      </trkpt>
      <trkpt lat="47.4042" lon="6.73931">
        <ele>535.3</ele>
        <time>2014-10-05T09:07:38.000Z</time>
      </trkpt>
      <trkpt lat="47.40416" lon="6.73931">
        <ele>536.1</ele>
        <time>2014-10-05T09:07:43.000Z</time>
      </trkpt>
      <trkpt lat="47.40415" lon="6.73931">
        <ele>536.4</ele>
        <time>2014-10-05T09:07:44.000Z</time>
      </trkpt>
      <trkpt lat="47.40414" lon="6.73927">
        <ele>536.3</ele>
        <time>2014-10-05T09:08:08.000Z</time>
      </trkpt>
      <trkpt lat="47.40415" lon="6.73924">
        <ele>537</ele>
        <time>2014-10-05T09:08:09.000Z</time>
      </trkpt>
      <trkpt lat="47.40417" lon="6.73922">
        <ele>539.2</ele>
        <time>2014-10-05T09:08:10.000Z</time>
      </trkpt>
      <trkpt lat="47.4042" lon="6.73919">
        <ele>541</ele>
        <time>2014-10-05T09:08:11.000Z</time>
      </trkpt>
      <trkpt lat="47.40422" lon="6.73917">
        <ele>541</ele>
        <time>2014-10-05T09:08:12.000Z</time>
      </trkpt>
      <trkpt lat="47.40425" lon="6.73914">
        <ele>542.2</ele>
        <time>2014-10-05T09:08:13.000Z</time>
      </trkpt>
      <trkpt lat="47.40427" lon="6.73911">
        <ele>542.7</ele>
        <time>2014-10-05T09:08:14.000Z</time>
      </trkpt>
      <trkpt lat="47.40429" lon="6.73909">
        <ele>542.1</ele>
        <time>2014-10-05T09:08:15.000Z</time>
      </trkpt>
      <trkpt lat="47.40431" lon="6.73907">
        <ele>542.3</ele>
        <time>2014-10-05T09:08:16.000Z</time>
      </trkpt>
      <trkpt lat="47.40434" lon="6.73906">
        <ele>542.1</ele>
        <time>2014-10-05T09:08:17.000Z</time>
      </trkpt>
      <trkpt lat="47.40454" lon="6.73877">
        <ele>530</ele>
        <time>2014-10-05T09:08:25.000Z</time>
      </trkpt>
      <trkpt lat="47.40457" lon="6.73875">
        <ele>530.4</ele>
        <time>2014-10-05T09:08:26.000Z</time>
      </trkpt>
      <trkpt lat="47.4046" lon="6.73873">
        <ele>531</ele>
        <time>2014-10-05T09:08:27.000Z</time>
      </trkpt>
      <trkpt lat="47.40463" lon="6.73872">
        <ele>532.1</ele>
        <time>2014-10-05T09:08:28.000Z</time>
      </trkpt>
      <trkpt lat="47.40467" lon="6.7387">
        <ele>531.4</ele>
        <time>2014-10-05T09:08:29.000Z</time>
      </trkpt>
      <trkpt lat="47.4047" lon="6.73868">
        <ele>531.4</ele>
        <time>2014-10-05T09:08:30.000Z</time>
      </trkpt>
      <trkpt lat="47.40472" lon="6.73866">
        <ele>532.8</ele>
        <time>2014-10-05T09:08:31.000Z</time>
      </trkpt>
      <trkpt lat="47.40475" lon="6.73861">
        <ele>534.1</ele>
        <time>2014-10-05T09:08:33.000Z</time>
      </trkpt>
      <trkpt lat="47.40476" lon="6.73859">
        <ele>534.9</ele>
        <time>2014-10-05T09:08:34.000Z</time>
      </trkpt>
      <trkpt lat="47.40477" lon="6.73855">
        <ele>537</ele>
        <time>2014-10-05T09:08:36.000Z</time>
      </trkpt>
      <trkpt lat="47.40478" lon="6.73853">
        <ele>537.7</ele>
        <time>2014-10-05T09:08:37.000Z</time>
      </trkpt>
      <trkpt lat="47.40481" lon="6.73848">
        <ele>540.3</ele>
        <time>2014-10-05T09:08:39.000Z</time>
      </trkpt>
      <trkpt lat="47.40482" lon="6.73845">
        <ele>541.3</ele>
        <time>2014-10-05T09:08:40.000Z</time>
      </trkpt>
      <trkpt lat="47.40485" lon="6.73841">
        <ele>545.2</ele>
        <time>2014-10-05T09:08:42.000Z</time>
      </trkpt>
      <trkpt lat="47.40487" lon="6.73839">
        <ele>546.2</ele>
        <time>2014-10-05T09:08:43.000Z</time>
      </trkpt>
      <trkpt lat="47.4049" lon="6.73834">
        <ele>546.6</ele>
        <time>2014-10-05T09:08:47.000Z</time>
      </trkpt>
      <trkpt lat="47.4049" lon="6.73832">
        <ele>545.8</ele>
        <time>2014-10-05T09:08:48.000Z</time>
      </trkpt>
      <trkpt lat="47.40492" lon="6.73828">
        <ele>547.5</ele>
        <time>2014-10-05T09:08:50.000Z</time>
      </trkpt>
      <trkpt lat="47.40494" lon="6.73826">
        <ele>546.4</ele>
        <time>2014-10-05T09:08:51.000Z</time>
      </trkpt>
      <trkpt lat="47.40495" lon="6.73823">
        <ele>546.8</ele>
        <time>2014-10-05T09:08:52.000Z</time>
      </trkpt>
      <trkpt lat="47.40497" lon="6.73821">
        <ele>546.7</ele>
        <time>2014-10-05T09:08:53.000Z</time>
      </trkpt>
      <trkpt lat="47.40499" lon="6.73816">
        <ele>546.9</ele>
        <time>2014-10-05T09:08:55.000Z</time>
      </trkpt>
      <trkpt lat="47.405" lon="6.73814">
        <ele>547</ele>
        <time>2014-10-05T09:08:56.000Z</time>
      </trkpt>
      <trkpt lat="47.40501" lon="6.73809">
        <ele>547.9</ele>
        <time>2014-10-05T09:09:02.000Z</time>
      </trkpt>
      <trkpt lat="47.40501" lon="6.73808">
        <ele>548.5</ele>
        <time>2014-10-05T09:09:03.000Z</time>
      </trkpt>
      <trkpt lat="47.40501" lon="6.73804">
        <ele>549.3</ele>
        <time>2014-10-05T09:09:07.000Z</time>
      </trkpt>
      <trkpt lat="47.40501" lon="6.73801">
        <ele>549.8</ele>
        <time>2014-10-05T09:09:08.000Z</time>
      </trkpt>
      <trkpt lat="47.40504" lon="6.73798">
        <ele>502.7</ele>
        <time>2014-10-05T09:09:23.000Z</time>
      </trkpt>
      <trkpt lat="47.40505" lon="6.73797">
        <ele>502.8</ele>
        <time>2014-10-05T09:09:24.000Z</time>
      </trkpt>
      <trkpt lat="47.40508" lon="6.73796">
        <ele>503.5</ele>
        <time>2014-10-05T09:09:29.000Z</time>
      </trkpt>
      <trkpt lat="47.40509" lon="6.73796">
        <ele>503.6</ele>
        <time>2014-10-05T09:09:30.000Z</time>
      </trkpt>
      <trkpt lat="47.40512" lon="6.73792">
        <ele>506.6</ele>
        <time>2014-10-05T09:09:40.000Z</time>
      </trkpt>
      <trkpt lat="47.40511" lon="6.73789">
        <ele>507.6</ele>
        <time>2014-10-05T09:09:41.000Z</time>
      </trkpt>
      <trkpt lat="47.40509" lon="6.73782">
        <ele>510.6</ele>
        <time>2014-10-05T09:09:43.000Z</time>
      </trkpt>
      <trkpt lat="47.40508" lon="6.73778">
        <ele>511.5</ele>
        <time>2014-10-05T09:09:44.000Z</time>
      </trkpt>
      <trkpt lat="47.40508" lon="6.73774">
        <ele>511.9</ele>
        <time>2014-10-05T09:09:45.000Z</time>
      </trkpt>
      <trkpt lat="47.40508" lon="6.73769">
        <ele>512.8</ele>
        <time>2014-10-05T09:09:46.000Z</time>
      </trkpt>
      <trkpt lat="47.40508" lon="6.73764">
        <ele>513.4</ele>
        <time>2014-10-05T09:09:47.000Z</time>
      </trkpt>
      <trkpt lat="47.40507" lon="6.73758">
        <ele>514.7</ele>
        <time>2014-10-05T09:09:48.000Z</time>
      </trkpt>
      <trkpt lat="47.40507" lon="6.73751">
        <ele>516.6</ele>
        <time>2014-10-05T09:09:49.000Z</time>
      </trkpt>
      <trkpt lat="47.40506" lon="6.73745">
        <ele>517.5</ele>
        <time>2014-10-05T09:09:50.000Z</time>
      </trkpt>
      <trkpt lat="47.40505" lon="6.73738">
        <ele>517.8</ele>
        <time>2014-10-05T09:09:51.000Z</time>
      </trkpt>
      <trkpt lat="47.40505" lon="6.73732">
        <ele>518.5</ele>
        <time>2014-10-05T09:09:52.000Z</time>
      </trkpt>
      <trkpt lat="47.40504" lon="6.73726">
        <ele>519.6</ele>
        <time>2014-10-05T09:09:53.000Z</time>
      </trkpt>
      <trkpt lat="47.40504" lon="6.7372">
        <ele>523.9</ele>
        <time>2014-10-05T09:09:54.000Z</time>
      </trkpt>
      <trkpt lat="47.40505" lon="6.73713">
        <ele>525</ele>
        <time>2014-10-05T09:09:55.000Z</time>
      </trkpt>
      <trkpt lat="47.40505" lon="6.73707">
        <ele>525.3</ele>
        <time>2014-10-05T09:09:56.000Z</time>
      </trkpt>
      <trkpt lat="47.40505" lon="6.73701">
        <ele>525.4</ele>
        <time>2014-10-05T09:09:57.000Z</time>
      </trkpt>
      <trkpt lat="47.40504" lon="6.73695">
        <ele>526.6</ele>
        <time>2014-10-05T09:09:58.000Z</time>
      </trkpt>
      <trkpt lat="47.40504" lon="6.73688">
        <ele>526.9</ele>
        <time>2014-10-05T09:09:59.000Z</time>
      </trkpt>
      <trkpt lat="47.40503" lon="6.73681">
        <ele>527.6</ele>
        <time>2014-10-05T09:10:00.000Z</time>
      </trkpt>
      <trkpt lat="47.40503" lon="6.73673">
        <ele>528.1</ele>
        <time>2014-10-05T09:10:01.000Z</time>
      </trkpt>
      <trkpt lat="47.40502" lon="6.73664">
        <ele>528.1</ele>
        <time>2014-10-05T09:10:02.000Z</time>
      </trkpt>
      <trkpt lat="47.40502" lon="6.73656">
        <ele>529.5</ele>
        <time>2014-10-05T09:10:03.000Z</time>
      </trkpt>
      <trkpt lat="47.40501" lon="6.73647">
        <ele>529.3</ele>
        <time>2014-10-05T09:10:04.000Z</time>
      </trkpt>
      <trkpt lat="47.405" lon="6.73638">
        <ele>529.4</ele>
        <time>2014-10-05T09:10:05.000Z</time>
      </trkpt>
      <trkpt lat="47.40498" lon="6.73617">
        <ele>528.3</ele>
        <time>2014-10-05T09:10:06.000Z</time>
      </trkpt>
      <trkpt lat="47.40497" lon="6.73606">
        <ele>528</ele>
        <time>2014-10-05T09:10:07.000Z</time>
      </trkpt>
      <trkpt lat="47.40495" lon="6.73597">
        <ele>528.1</ele>
        <time>2014-10-05T09:10:08.000Z</time>
      </trkpt>
      <trkpt lat="47.40493" lon="6.7359">
        <ele>528</ele>
        <time>2014-10-05T09:10:09.000Z</time>
      </trkpt>
      <trkpt lat="47.40492" lon="6.73584">
        <ele>528.3</ele>
        <time>2014-10-05T09:10:10.000Z</time>
      </trkpt>
      <trkpt lat="47.40491" lon="6.73578">
        <ele>529.4</ele>
        <time>2014-10-05T09:10:11.000Z</time>
      </trkpt>
      <trkpt lat="47.40489" lon="6.73569">
        <ele>529.5</ele>
        <time>2014-10-05T09:10:12.000Z</time>
      </trkpt>
      <trkpt lat="47.40486" lon="6.73562">
        <ele>529.5</ele>
        <time>2014-10-05T09:10:13.000Z</time>
      </trkpt>
      <trkpt lat="47.40485" lon="6.73557">
        <ele>530</ele>
        <time>2014-10-05T09:10:14.000Z</time>
      </trkpt>
      <trkpt lat="47.40484" lon="6.73551">
        <ele>530.7</ele>
        <time>2014-10-05T09:10:15.000Z</time>
      </trkpt>
      <trkpt lat="47.40483" lon="6.73545">
        <ele>532.1</ele>
        <time>2014-10-05T09:10:16.000Z</time>
      </trkpt>
      <trkpt lat="47.40479" lon="6.73529">
        <ele>520.7</ele>
        <time>2014-10-05T09:10:19.000Z</time>
      </trkpt>
      <trkpt lat="47.40479" lon="6.73519">
        <ele>519.9</ele>
        <time>2014-10-05T09:10:20.000Z</time>
      </trkpt>
      <trkpt lat="47.40478" lon="6.7351">
        <ele>519.9</ele>
        <time>2014-10-05T09:10:21.000Z</time>
      </trkpt>
      <trkpt lat="47.40476" lon="6.73502">
        <ele>520.5</ele>
        <time>2014-10-05T09:10:22.000Z</time>
      </trkpt>
      <trkpt lat="47.40474" lon="6.73493">
        <ele>521.6</ele>
        <time>2014-10-05T09:10:23.000Z</time>
      </trkpt>
      <trkpt lat="47.40474" lon="6.73486">
        <ele>522</ele>
        <time>2014-10-05T09:10:24.000Z</time>
      </trkpt>
      <trkpt lat="47.40473" lon="6.7348">
        <ele>522.4</ele>
        <time>2014-10-05T09:10:25.000Z</time>
      </trkpt>
      <trkpt lat="47.40472" lon="6.73475">
        <ele>523</ele>
        <time>2014-10-05T09:10:26.000Z</time>
      </trkpt>
      <trkpt lat="47.40471" lon="6.73469">
        <ele>523.4</ele>
        <time>2014-10-05T09:10:27.000Z</time>
      </trkpt>
      <trkpt lat="47.4047" lon="6.73464">
        <ele>523.2</ele>
        <time>2014-10-05T09:10:28.000Z</time>
      </trkpt>
      <trkpt lat="47.40469" lon="6.73459">
        <ele>524.7</ele>
        <time>2014-10-05T09:10:29.000Z</time>
      </trkpt>
      <trkpt lat="47.40467" lon="6.73454">
        <ele>523.7</ele>
        <time>2014-10-05T09:10:30.000Z</time>
      </trkpt>
      <trkpt lat="47.40466" lon="6.73449">
        <ele>523.7</ele>
        <time>2014-10-05T09:10:31.000Z</time>
      </trkpt>
      <trkpt lat="47.40466" lon="6.73444">
        <ele>524.8</ele>
        <time>2014-10-05T09:10:32.000Z</time>
      </trkpt>
      <trkpt lat="47.40466" lon="6.73438">
        <ele>525.4</ele>
        <time>2014-10-05T09:10:33.000Z</time>
      </trkpt>
      <trkpt lat="47.40466" lon="6.73433">
        <ele>525.9</ele>
        <time>2014-10-05T09:10:34.000Z</time>
      </trkpt>
      <trkpt lat="47.40467" lon="6.73427">
        <ele>526.7</ele>
        <time>2014-10-05T09:10:35.000Z</time>
      </trkpt>
      <trkpt lat="47.40469" lon="6.73421">
        <ele>527.1</ele>
        <time>2014-10-05T09:10:36.000Z</time>
      </trkpt>
      <trkpt lat="47.4047" lon="6.73413">
        <ele>525.5</ele>
        <time>2014-10-05T09:10:37.000Z</time>
      </trkpt>
      <trkpt lat="47.40471" lon="6.73405">
        <ele>525.5</ele>
        <time>2014-10-05T09:10:38.000Z</time>
      </trkpt>
      <trkpt lat="47.40472" lon="6.73397">
        <ele>524.4</ele>
        <time>2014-10-05T09:10:39.000Z</time>
      </trkpt>
      <trkpt lat="47.40472" lon="6.73387">
        <ele>525</ele>
        <time>2014-10-05T09:10:40.000Z</time>
      </trkpt>
      <trkpt lat="47.40472" lon="6.73378">
        <ele>524.7</ele>
        <time>2014-10-05T09:10:41.000Z</time>
      </trkpt>
      <trkpt lat="47.40467" lon="6.73356">
        <ele>525</ele>
        <time>2014-10-05T09:10:42.000Z</time>
      </trkpt>
      <trkpt lat="47.40465" lon="6.73345">
        <ele>525.3</ele>
        <time>2014-10-05T09:10:43.000Z</time>
      </trkpt>
      <trkpt lat="47.40463" lon="6.73336">
        <ele>525.4</ele>
        <time>2014-10-05T09:10:44.000Z</time>
      </trkpt>
      <trkpt lat="47.40458" lon="6.73331">
        <ele>525</ele>
        <time>2014-10-05T09:10:45.000Z</time>
      </trkpt>
      <trkpt lat="47.40443" lon="6.73331">
        <ele>523.4</ele>
        <time>2014-10-05T09:10:46.000Z</time>
      </trkpt>
      <trkpt lat="47.40437" lon="6.7333">
        <ele>523.7</ele>
        <time>2014-10-05T09:10:47.000Z</time>
      </trkpt>
      <trkpt lat="47.40433" lon="6.7333">
        <ele>524.8</ele>
        <time>2014-10-05T09:10:48.000Z</time>
      </trkpt>
      <trkpt lat="47.40429" lon="6.73334">
        <ele>524.8</ele>
        <time>2014-10-05T09:10:49.000Z</time>
      </trkpt>
      <trkpt lat="47.40424" lon="6.73337">
        <ele>524</ele>
        <time>2014-10-05T09:10:50.000Z</time>
      </trkpt>
      <trkpt lat="47.40421" lon="6.73341">
        <ele>524</ele>
        <time>2014-10-05T09:10:51.000Z</time>
      </trkpt>
      <trkpt lat="47.4042" lon="6.73343">
        <ele>524.6</ele>
        <time>2014-10-05T09:10:52.000Z</time>
      </trkpt>
      <trkpt lat="47.40416" lon="6.73346">
        <ele>527.3</ele>
        <time>2014-10-05T09:10:54.000Z</time>
      </trkpt>
      <trkpt lat="47.40414" lon="6.73347">
        <ele>526.3</ele>
        <time>2014-10-05T09:10:55.000Z</time>
      </trkpt>
      <trkpt lat="47.40411" lon="6.7335">
        <ele>521.9</ele>
        <time>2014-10-05T09:11:01.000Z</time>
      </trkpt>
      <trkpt lat="47.4041" lon="6.73352">
        <ele>522.5</ele>
        <time>2014-10-05T09:11:02.000Z</time>
      </trkpt>
      <trkpt lat="47.40409" lon="6.73355">
        <ele>522.5</ele>
        <time>2014-10-05T09:11:03.000Z</time>
      </trkpt>
      <trkpt lat="47.40409" lon="6.73361">
        <ele>523.4</ele>
        <time>2014-10-05T09:11:04.000Z</time>
      </trkpt>
      <trkpt lat="47.40408" lon="6.73367">
        <ele>524</ele>
        <time>2014-10-05T09:11:05.000Z</time>
      </trkpt>
      <trkpt lat="47.40407" lon="6.73374">
        <ele>524.5</ele>
        <time>2014-10-05T09:11:06.000Z</time>
      </trkpt>
      <trkpt lat="47.40406" lon="6.7338">
        <ele>524.2</ele>
        <time>2014-10-05T09:11:07.000Z</time>
      </trkpt>
      <trkpt lat="47.40405" lon="6.73388">
        <ele>524.9</ele>
        <time>2014-10-05T09:11:08.000Z</time>
      </trkpt>
      <trkpt lat="47.40407" lon="6.73409">
        <ele>523.7</ele>
        <time>2014-10-05T09:11:09.000Z</time>
      </trkpt>
      <trkpt lat="47.40407" lon="6.7342">
        <ele>523.1</ele>
        <time>2014-10-05T09:11:10.000Z</time>
      </trkpt>
      <trkpt lat="47.40406" lon="6.73427">
        <ele>522.5</ele>
        <time>2014-10-05T09:11:11.000Z</time>
      </trkpt>
      <trkpt lat="47.40406" lon="6.73431">
        <ele>522.2</ele>
        <time>2014-10-05T09:11:12.000Z</time>
      </trkpt>
      <trkpt lat="47.40405" lon="6.73437">
        <ele>522.4</ele>
        <time>2014-10-05T09:11:13.000Z</time>
      </trkpt>
      <trkpt lat="47.40406" lon="6.73448">
        <ele>522.6</ele>
        <time>2014-10-05T09:11:14.000Z</time>
      </trkpt>
      <trkpt lat="47.40409" lon="6.7346">
        <ele>521.5</ele>
        <time>2014-10-05T09:11:15.000Z</time>
      </trkpt>
      <trkpt lat="47.40408" lon="6.73468">
        <ele>521.9</ele>
        <time>2014-10-05T09:11:16.000Z</time>
      </trkpt>
      <trkpt lat="47.40412" lon="6.73498">
        <ele>510.4</ele>
        <time>2014-10-05T09:11:19.000Z</time>
      </trkpt>
      <trkpt lat="47.40412" lon="6.73511">
        <ele>513.7</ele>
        <time>2014-10-05T09:11:20.000Z</time>
      </trkpt>
      <trkpt lat="47.40411" lon="6.73521">
        <ele>515.7</ele>
        <time>2014-10-05T09:11:21.000Z</time>
      </trkpt>
      <trkpt lat="47.40411" lon="6.73528">
        <ele>516.2</ele>
        <time>2014-10-05T09:11:22.000Z</time>
      </trkpt>
      <trkpt lat="47.40411" lon="6.73537">
        <ele>517.6</ele>
        <time>2014-10-05T09:11:23.000Z</time>
      </trkpt>
      <trkpt lat="47.4041" lon="6.73545">
        <ele>518</ele>
        <time>2014-10-05T09:11:24.000Z</time>
      </trkpt>
      <trkpt lat="47.4041" lon="6.73548">
        <ele>519.4</ele>
        <time>2014-10-05T09:11:25.000Z</time>
      </trkpt>
      <trkpt lat="47.40411" lon="6.73553">
        <ele>520.6</ele>
        <time>2014-10-05T09:11:26.000Z</time>
      </trkpt>
      <trkpt lat="47.40412" lon="6.73557">
        <ele>520.8</ele>
        <time>2014-10-05T09:11:27.000Z</time>
      </trkpt>
      <trkpt lat="47.40412" lon="6.73562">
        <ele>522</ele>
        <time>2014-10-05T09:11:28.000Z</time>
      </trkpt>
      <trkpt lat="47.40413" lon="6.7357">
        <ele>522.5</ele>
        <time>2014-10-05T09:11:29.000Z</time>
      </trkpt>
      <trkpt lat="47.40412" lon="6.73576">
        <ele>523.1</ele>
        <time>2014-10-05T09:11:30.000Z</time>
      </trkpt>
      <trkpt lat="47.40412" lon="6.73583">
        <ele>523.2</ele>
        <time>2014-10-05T09:11:31.000Z</time>
      </trkpt>
      <trkpt lat="47.40411" lon="6.73595">
        <ele>522.4</ele>
        <time>2014-10-05T09:11:32.000Z</time>
      </trkpt>
      <trkpt lat="47.40409" lon="6.73607">
        <ele>521.3</ele>
        <time>2014-10-05T09:11:33.000Z</time>
      </trkpt>
      <trkpt lat="47.40408" lon="6.73619">
        <ele>521.2</ele>
        <time>2014-10-05T09:11:34.000Z</time>
      </trkpt>
      <trkpt lat="47.40407" lon="6.73628">
        <ele>521.6</ele>
        <time>2014-10-05T09:11:35.000Z</time>
      </trkpt>
      <trkpt lat="47.40407" lon="6.73635">
        <ele>521.7</ele>
        <time>2014-10-05T09:11:36.000Z</time>
      </trkpt>
      <trkpt lat="47.40406" lon="6.73641">
        <ele>521.6</ele>
        <time>2014-10-05T09:11:37.000Z</time>
      </trkpt>
      <trkpt lat="47.40405" lon="6.73647">
        <ele>522</ele>
        <time>2014-10-05T09:11:38.000Z</time>
      </trkpt>
      <trkpt lat="47.40403" lon="6.7365">
        <ele>525.5</ele>
        <time>2014-10-05T09:11:40.000Z</time>
      </trkpt>
      <trkpt lat="47.40406" lon="6.73654">
        <ele>521.8</ele>
        <time>2014-10-05T09:11:41.000Z</time>
      </trkpt>
      <trkpt lat="47.40409" lon="6.7365">
        <ele>515.4</ele>
        <time>2014-10-05T09:11:56.000Z</time>
      </trkpt>
      <trkpt lat="47.40409" lon="6.73643">
        <ele>514.8</ele>
        <time>2014-10-05T09:11:57.000Z</time>
      </trkpt>
      <trkpt lat="47.4041" lon="6.73626">
        <ele>514.7</ele>
        <time>2014-10-05T09:11:58.000Z</time>
      </trkpt>
      <trkpt lat="47.4041" lon="6.73615">
        <ele>514.5</ele>
        <time>2014-10-05T09:11:59.000Z</time>
      </trkpt>
      <trkpt lat="47.40409" lon="6.73607">
        <ele>515</ele>
        <time>2014-10-05T09:12:00.000Z</time>
      </trkpt>
      <trkpt lat="47.40407" lon="6.73596">
        <ele>514.7</ele>
        <time>2014-10-05T09:12:01.000Z</time>
      </trkpt>
      <trkpt lat="47.40404" lon="6.73585">
        <ele>514.5</ele>
        <time>2014-10-05T09:12:02.000Z</time>
      </trkpt>
      <trkpt lat="47.40403" lon="6.73574">
        <ele>514.7</ele>
        <time>2014-10-05T09:12:03.000Z</time>
      </trkpt>
      <trkpt lat="47.40399" lon="6.73562">
        <ele>514.7</ele>
        <time>2014-10-05T09:12:04.000Z</time>
      </trkpt>
      <trkpt lat="47.40397" lon="6.73551">
        <ele>515.3</ele>
        <time>2014-10-05T09:12:05.000Z</time>
      </trkpt>
      <trkpt lat="47.40395" lon="6.73538">
        <ele>515.2</ele>
        <time>2014-10-05T09:12:06.000Z</time>
      </trkpt>
      <trkpt lat="47.4039" lon="6.73525">
        <ele>514</ele>
        <time>2014-10-05T09:12:07.000Z</time>
      </trkpt>
      <trkpt lat="47.40383" lon="6.73515">
        <ele>513.1</ele>
        <time>2014-10-05T09:12:08.000Z</time>
      </trkpt>
      <trkpt lat="47.4038" lon="6.73506">
        <ele>512.4</ele>
        <time>2014-10-05T09:12:09.000Z</time>
      </trkpt>
      <trkpt lat="47.40376" lon="6.73498">
        <ele>512.5</ele>
        <time>2014-10-05T09:12:10.000Z</time>
      </trkpt>
      <trkpt lat="47.40374" lon="6.7349">
        <ele>512.4</ele>
        <time>2014-10-05T09:12:11.000Z</time>
      </trkpt>
      <trkpt lat="47.40375" lon="6.7348">
        <ele>512.5</ele>
        <time>2014-10-05T09:12:12.000Z</time>
      </trkpt>
      <trkpt lat="47.40371" lon="6.7347">
        <ele>512.6</ele>
        <time>2014-10-05T09:12:13.000Z</time>
      </trkpt>
      <trkpt lat="47.40367" lon="6.73461">
        <ele>512.3</ele>
        <time>2014-10-05T09:12:14.000Z</time>
      </trkpt>
      <trkpt lat="47.40367" lon="6.73451">
        <ele>512.2</ele>
        <time>2014-10-05T09:12:15.000Z</time>
      </trkpt>
      <trkpt lat="47.40366" lon="6.7344">
        <ele>511.3</ele>
        <time>2014-10-05T09:12:16.000Z</time>
      </trkpt>
      <trkpt lat="47.40355" lon="6.73399">
        <ele>497.6</ele>
        <time>2014-10-05T09:12:20.000Z</time>
      </trkpt>
      <trkpt lat="47.40354" lon="6.7339">
        <ele>497.4</ele>
        <time>2014-10-05T09:12:21.000Z</time>
      </trkpt>
      <trkpt lat="47.4035" lon="6.7338">
        <ele>497.6</ele>
        <time>2014-10-05T09:12:22.000Z</time>
      </trkpt>
      <trkpt lat="47.40347" lon="6.73369">
        <ele>497.4</ele>
        <time>2014-10-05T09:12:23.000Z</time>
      </trkpt>
      <trkpt lat="47.40342" lon="6.73358">
        <ele>497.1</ele>
        <time>2014-10-05T09:12:24.000Z</time>
      </trkpt>
      <trkpt lat="47.40341" lon="6.73348">
        <ele>497.1</ele>
        <time>2014-10-05T09:12:25.000Z</time>
      </trkpt>
      <trkpt lat="47.40341" lon="6.73337">
        <ele>496.5</ele>
        <time>2014-10-05T09:12:26.000Z</time>
      </trkpt>
      <trkpt lat="47.40341" lon="6.73325">
        <ele>496</ele>
        <time>2014-10-05T09:12:27.000Z</time>
      </trkpt>
      <trkpt lat="47.4034" lon="6.73314">
        <ele>496.5</ele>
        <time>2014-10-05T09:12:28.000Z</time>
      </trkpt>
      <trkpt lat="47.40337" lon="6.73301">
        <ele>496.5</ele>
        <time>2014-10-05T09:12:29.000Z</time>
      </trkpt>
      <trkpt lat="47.40335" lon="6.73291">
        <ele>496.4</ele>
        <time>2014-10-05T09:12:30.000Z</time>
      </trkpt>
      <trkpt lat="47.40335" lon="6.73282">
        <ele>496.3</ele>
        <time>2014-10-05T09:12:31.000Z</time>
      </trkpt>
      <trkpt lat="47.40333" lon="6.7327">
        <ele>494.9</ele>
        <time>2014-10-05T09:12:32.000Z</time>
      </trkpt>
      <trkpt lat="47.40332" lon="6.7326">
        <ele>494.5</ele>
        <time>2014-10-05T09:12:33.000Z</time>
      </trkpt>
      <trkpt lat="47.40332" lon="6.73247">
        <ele>493.5</ele>
        <time>2014-10-05T09:12:34.000Z</time>
      </trkpt>
      <trkpt lat="47.40331" lon="6.73235">
        <ele>491.3</ele>
        <time>2014-10-05T09:12:35.000Z</time>
      </trkpt>
      <trkpt lat="47.40333" lon="6.73221">
        <ele>490.8</ele>
        <time>2014-10-05T09:12:36.000Z</time>
      </trkpt>
      <trkpt lat="47.40334" lon="6.7321">
        <ele>490.6</ele>
        <time>2014-10-05T09:12:37.000Z</time>
      </trkpt>
      <trkpt lat="47.40334" lon="6.732">
        <ele>490.3</ele>
        <time>2014-10-05T09:12:38.000Z</time>
      </trkpt>
      <trkpt lat="47.40336" lon="6.7319">
        <ele>490.3</ele>
        <time>2014-10-05T09:12:39.000Z</time>
      </trkpt>
      <trkpt lat="47.40337" lon="6.73179">
        <ele>490.5</ele>
        <time>2014-10-05T09:12:40.000Z</time>
      </trkpt>
      <trkpt lat="47.40338" lon="6.73168">
        <ele>491</ele>
        <time>2014-10-05T09:12:41.000Z</time>
      </trkpt>
      <trkpt lat="47.40339" lon="6.73159">
        <ele>490.6</ele>
        <time>2014-10-05T09:12:42.000Z</time>
      </trkpt>
      <trkpt lat="47.4034" lon="6.73149">
        <ele>490.3</ele>
        <time>2014-10-05T09:12:43.000Z</time>
      </trkpt>
      <trkpt lat="47.40342" lon="6.73137">
        <ele>490.3</ele>
        <time>2014-10-05T09:12:44.000Z</time>
      </trkpt>
      <trkpt lat="47.40343" lon="6.73129">
        <ele>490</ele>
        <time>2014-10-05T09:12:45.000Z</time>
      </trkpt>
      <trkpt lat="47.40344" lon="6.73117">
        <ele>490.1</ele>
        <time>2014-10-05T09:12:46.000Z</time>
      </trkpt>
      <trkpt lat="47.40344" lon="6.7311">
        <ele>490.4</ele>
        <time>2014-10-05T09:12:47.000Z</time>
      </trkpt>
      <trkpt lat="47.40347" lon="6.73098">
        <ele>490.7</ele>
        <time>2014-10-05T09:12:48.000Z</time>
      </trkpt>
      <trkpt lat="47.4035" lon="6.73085">
        <ele>490.8</ele>
        <time>2014-10-05T09:12:49.000Z</time>
      </trkpt>
      <trkpt lat="47.40355" lon="6.73069">
        <ele>491.6</ele>
        <time>2014-10-05T09:12:50.000Z</time>
      </trkpt>
      <trkpt lat="47.40357" lon="6.73054">
        <ele>491.8</ele>
        <time>2014-10-05T09:12:51.000Z</time>
      </trkpt>
      <trkpt lat="47.40357" lon="6.73043">
        <ele>491.7</ele>
        <time>2014-10-05T09:12:52.000Z</time>
      </trkpt>
      <trkpt lat="47.40358" lon="6.73032">
        <ele>492.3</ele>
        <time>2014-10-05T09:12:53.000Z</time>
      </trkpt>
      <trkpt lat="47.40358" lon="6.73019">
        <ele>491.8</ele>
        <time>2014-10-05T09:12:54.000Z</time>
      </trkpt>
      <trkpt lat="47.40359" lon="6.73006">
        <ele>490.6</ele>
        <time>2014-10-05T09:12:55.000Z</time>
      </trkpt>
      <trkpt lat="47.40362" lon="6.72996">
        <ele>489.9</ele>
        <time>2014-10-05T09:12:56.000Z</time>
      </trkpt>
      <trkpt lat="47.40366" lon="6.72988">
        <ele>489.5</ele>
        <time>2014-10-05T09:12:57.000Z</time>
      </trkpt>
      <trkpt lat="47.40368" lon="6.72977">
        <ele>489.8</ele>
        <time>2014-10-05T09:12:58.000Z</time>
      </trkpt>
      <trkpt lat="47.40368" lon="6.7297">
        <ele>490.1</ele>
        <time>2014-10-05T09:12:59.000Z</time>
      </trkpt>
      <trkpt lat="47.40369" lon="6.72961">
        <ele>489.5</ele>
        <time>2014-10-05T09:13:00.000Z</time>
      </trkpt>
      <trkpt lat="47.40365" lon="6.72959">
        <ele>487.4</ele>
        <time>2014-10-05T09:13:03.000Z</time>
      </trkpt>
      <trkpt lat="47.40365" lon="6.72957">
        <ele>487.2</ele>
        <time>2014-10-05T09:13:04.000Z</time>
      </trkpt>
      <trkpt lat="47.40361" lon="6.72954">
        <ele>485.2</ele>
        <time>2014-10-05T09:13:06.000Z</time>
      </trkpt>
      <trkpt lat="47.4036" lon="6.72952">
        <ele>483.8</ele>
        <time>2014-10-05T09:13:07.000Z</time>
      </trkpt>
      <trkpt lat="47.4036" lon="6.72946">
        <ele>466</ele>
        <time>2014-10-05T09:13:19.000Z</time>
      </trkpt>
      <trkpt lat="47.40361" lon="6.72944">
        <ele>466</ele>
        <time>2014-10-05T09:13:20.000Z</time>
      </trkpt>
      <trkpt lat="47.4036" lon="6.72939">
        <ele>466.6</ele>
        <time>2014-10-05T09:13:30.000Z</time>
      </trkpt>
      <trkpt lat="47.40361" lon="6.72937">
        <ele>468.1</ele>
        <time>2014-10-05T09:13:31.000Z</time>
      </trkpt>
      <trkpt lat="47.40363" lon="6.72932">
        <ele>467.5</ele>
        <time>2014-10-05T09:13:36.000Z</time>
      </trkpt>
      <trkpt lat="47.40363" lon="6.72931">
        <ele>467.9</ele>
        <time>2014-10-05T09:13:37.000Z</time>
      </trkpt>
      <trkpt lat="47.40366" lon="6.72928">
        <ele>466.8</ele>
        <time>2014-10-05T09:13:48.000Z</time>
      </trkpt>
      <trkpt lat="47.40367" lon="6.72927">
        <ele>466.2</ele>
        <time>2014-10-05T09:13:49.000Z</time>
      </trkpt>
      <trkpt lat="47.4037" lon="6.72926">
        <ele>462.9</ele>
        <time>2014-10-05T09:13:51.000Z</time>
      </trkpt>
      <trkpt lat="47.40372" lon="6.72925">
        <ele>462</ele>
        <time>2014-10-05T09:13:52.000Z</time>
      </trkpt>
      <trkpt lat="47.40376" lon="6.72924">
        <ele>462.8</ele>
        <time>2014-10-05T09:13:54.000Z</time>
      </trkpt>
      <trkpt lat="47.40378" lon="6.72924">
        <ele>462</ele>
        <time>2014-10-05T09:13:55.000Z</time>
      </trkpt>
      <trkpt lat="47.40382" lon="6.72924">
        <ele>459.4</ele>
        <time>2014-10-05T09:13:57.000Z</time>
      </trkpt>
      <trkpt lat="47.40384" lon="6.72925">
        <ele>458.8</ele>
        <time>2014-10-05T09:13:58.000Z</time>
      </trkpt>
      <trkpt lat="47.40388" lon="6.72925">
        <ele>458.2</ele>
        <time>2014-10-05T09:13:59.000Z</time>
      </trkpt>
      <trkpt lat="47.40392" lon="6.72924">
        <ele>458.5</ele>
        <time>2014-10-05T09:14:00.000Z</time>
      </trkpt>
      <trkpt lat="47.40396" lon="6.72925">
        <ele>457.2</ele>
        <time>2014-10-05T09:14:01.000Z</time>
      </trkpt>
      <trkpt lat="47.404" lon="6.72924">
        <ele>456.5</ele>
        <time>2014-10-05T09:14:02.000Z</time>
      </trkpt>
      <trkpt lat="47.40406" lon="6.72923">
        <ele>457.3</ele>
        <time>2014-10-05T09:14:03.000Z</time>
      </trkpt>
      <trkpt lat="47.40411" lon="6.72921">
        <ele>456.5</ele>
        <time>2014-10-05T09:14:04.000Z</time>
      </trkpt>
      <trkpt lat="47.40425" lon="6.7291">
        <ele>456.1</ele>
        <time>2014-10-05T09:14:05.000Z</time>
      </trkpt>
      <trkpt lat="47.40428" lon="6.7291">
        <ele>455.5</ele>
        <time>2014-10-05T09:14:06.000Z</time>
      </trkpt>
      <trkpt lat="47.40433" lon="6.72912">
        <ele>455.7</ele>
        <time>2014-10-05T09:14:07.000Z</time>
      </trkpt>
      <trkpt lat="47.4044" lon="6.72912">
        <ele>455.4</ele>
        <time>2014-10-05T09:14:08.000Z</time>
      </trkpt>
      <trkpt lat="47.40443" lon="6.72912">
        <ele>455.2</ele>
        <time>2014-10-05T09:14:09.000Z</time>
      </trkpt>
      <trkpt lat="47.4044" lon="6.72919">
        <ele>455.3</ele>
        <time>2014-10-05T09:14:10.000Z</time>
      </trkpt>
      <trkpt lat="47.40447" lon="6.72911">
        <ele>456</ele>
        <time>2014-10-05T09:14:11.000Z</time>
      </trkpt>
      <trkpt lat="47.40452" lon="6.7291">
        <ele>456.9</ele>
        <time>2014-10-05T09:14:12.000Z</time>
      </trkpt>
      <trkpt lat="47.40454" lon="6.72911">
        <ele>456.9</ele>
        <time>2014-10-05T09:14:13.000Z</time>
      </trkpt>
      <trkpt lat="47.40458" lon="6.7291">
        <ele>456.9</ele>
        <time>2014-10-05T09:14:14.000Z</time>
      </trkpt>
      <trkpt lat="47.4046" lon="6.72908">
        <ele>456.8</ele>
        <time>2014-10-05T09:14:15.000Z</time>
      </trkpt>
      <trkpt lat="47.40462" lon="6.72907">
        <ele>456.2</ele>
        <time>2014-10-05T09:14:16.000Z</time>
      </trkpt>
      <trkpt lat="47.40479" lon="6.72887">
        <ele>448.5</ele>
        <time>2014-10-05T09:14:24.000Z</time>
      </trkpt>
      <trkpt lat="47.4049" lon="6.72871">
        <ele>446.8</ele>
        <time>2014-10-05T09:14:25.000Z</time>
      </trkpt>
      <trkpt lat="47.40497" lon="6.72861">
        <ele>443.7</ele>
        <time>2014-10-05T09:14:26.000Z</time>
      </trkpt>
      <trkpt lat="47.40501" lon="6.72852">
        <ele>442.3</ele>
        <time>2014-10-05T09:14:27.000Z</time>
      </trkpt>
      <trkpt lat="47.40505" lon="6.72845">
        <ele>441.7</ele>
        <time>2014-10-05T09:14:28.000Z</time>
      </trkpt>
      <trkpt lat="47.40506" lon="6.72832">
        <ele>439.8</ele>
        <time>2014-10-05T09:14:29.000Z</time>
      </trkpt>
      <trkpt lat="47.40509" lon="6.72815">
        <ele>440.1</ele>
        <time>2014-10-05T09:14:30.000Z</time>
      </trkpt>
      <trkpt lat="47.40511" lon="6.72805">
        <ele>439.7</ele>
        <time>2014-10-05T09:14:31.000Z</time>
      </trkpt>
      <trkpt lat="47.40513" lon="6.72789">
        <ele>438.6</ele>
        <time>2014-10-05T09:14:32.000Z</time>
      </trkpt>
      <trkpt lat="47.40515" lon="6.7278">
        <ele>438.4</ele>
        <time>2014-10-05T09:14:33.000Z</time>
      </trkpt>
      <trkpt lat="47.40517" lon="6.72771">
        <ele>438</ele>
        <time>2014-10-05T09:14:34.000Z</time>
      </trkpt>
      <trkpt lat="47.4052" lon="6.72763">
        <ele>437.9</ele>
        <time>2014-10-05T09:14:35.000Z</time>
      </trkpt>
      <trkpt lat="47.40522" lon="6.72754">
        <ele>437.7</ele>
        <time>2014-10-05T09:14:36.000Z</time>
      </trkpt>
      <trkpt lat="47.40526" lon="6.72747">
        <ele>437.6</ele>
        <time>2014-10-05T09:14:37.000Z</time>
      </trkpt>
      <trkpt lat="47.40529" lon="6.72741">
        <ele>437.3</ele>
        <time>2014-10-05T09:14:38.000Z</time>
      </trkpt>
      <trkpt lat="47.40532" lon="6.72734">
        <ele>437.3</ele>
        <time>2014-10-05T09:14:39.000Z</time>
      </trkpt>
      <trkpt lat="47.4054" lon="6.72731">
        <ele>437.3</ele>
        <time>2014-10-05T09:14:40.000Z</time>
      </trkpt>
      <trkpt lat="47.40542" lon="6.72728">
        <ele>437.5</ele>
        <time>2014-10-05T09:14:41.000Z</time>
      </trkpt>
      <trkpt lat="47.40545" lon="6.72721">
        <ele>437.2</ele>
        <time>2014-10-05T09:14:42.000Z</time>
      </trkpt>
      <trkpt lat="47.40544" lon="6.72713">
        <ele>437.5</ele>
        <time>2014-10-05T09:14:43.000Z</time>
      </trkpt>
      <trkpt lat="47.40546" lon="6.72705">
        <ele>436.8</ele>
        <time>2014-10-05T09:14:44.000Z</time>
      </trkpt>
      <trkpt lat="47.40548" lon="6.72696">
        <ele>436.3</ele>
        <time>2014-10-05T09:14:45.000Z</time>
      </trkpt>
      <trkpt lat="47.40549" lon="6.72688">
        <ele>435.7</ele>
        <time>2014-10-05T09:14:46.000Z</time>
      </trkpt>
      <trkpt lat="47.40549" lon="6.72681">
        <ele>435.2</ele>
        <time>2014-10-05T09:14:47.000Z</time>
      </trkpt>
      <trkpt lat="47.40549" lon="6.72677">
        <ele>435</ele>
        <time>2014-10-05T09:14:48.000Z</time>
      </trkpt>
      <trkpt lat="47.40546" lon="6.72671">
        <ele>434.5</ele>
        <time>2014-10-05T09:14:49.000Z</time>
      </trkpt>
      <trkpt lat="47.40543" lon="6.72667">
        <ele>434.2</ele>
        <time>2014-10-05T09:14:50.000Z</time>
      </trkpt>
      <trkpt lat="47.40546" lon="6.72664">
        <ele>435.3</ele>
        <time>2014-10-05T09:14:51.000Z</time>
      </trkpt>
      <trkpt lat="47.40546" lon="6.72659">
        <ele>435.6</ele>
        <time>2014-10-05T09:14:52.000Z</time>
      </trkpt>
      <trkpt lat="47.40547" lon="6.72655">
        <ele>435.7</ele>
        <time>2014-10-05T09:14:53.000Z</time>
      </trkpt>
      <trkpt lat="47.40547" lon="6.72651">
        <ele>436.2</ele>
        <time>2014-10-05T09:14:54.000Z</time>
      </trkpt>
      <trkpt lat="47.40548" lon="6.72647">
        <ele>434.8</ele>
        <time>2014-10-05T09:14:55.000Z</time>
      </trkpt>
      <trkpt lat="47.40549" lon="6.72643">
        <ele>435.1</ele>
        <time>2014-10-05T09:14:56.000Z</time>
      </trkpt>
      <trkpt lat="47.40549" lon="6.7264">
        <ele>435.4</ele>
        <time>2014-10-05T09:14:57.000Z</time>
      </trkpt>
      <trkpt lat="47.4055" lon="6.72636">
        <ele>435.3</ele>
        <time>2014-10-05T09:14:58.000Z</time>
      </trkpt>
      <trkpt lat="47.40551" lon="6.72633">
        <ele>435.7</ele>
        <time>2014-10-05T09:14:59.000Z</time>
      </trkpt>
      <trkpt lat="47.40552" lon="6.7263">
        <ele>435.3</ele>
        <time>2014-10-05T09:15:00.000Z</time>
      </trkpt>
      <trkpt lat="47.40553" lon="6.72624">
        <ele>435.2</ele>
        <time>2014-10-05T09:15:02.000Z</time>
      </trkpt>
      <trkpt lat="47.40553" lon="6.72621">
        <ele>434.9</ele>
        <time>2014-10-05T09:15:03.000Z</time>
      </trkpt>
      <trkpt lat="47.40554" lon="6.72617">
        <ele>435.4</ele>
        <time>2014-10-05T09:15:04.000Z</time>
      </trkpt>
      <trkpt lat="47.40554" lon="6.72613">
        <ele>435.4</ele>
        <time>2014-10-05T09:15:05.000Z</time>
      </trkpt>
      <trkpt lat="47.40555" lon="6.72609">
        <ele>436.5</ele>
        <time>2014-10-05T09:15:06.000Z</time>
      </trkpt>
      <trkpt lat="47.40555" lon="6.72606">
        <ele>436.9</ele>
        <time>2014-10-05T09:15:07.000Z</time>
      </trkpt>
      <trkpt lat="47.40556" lon="6.72602">
        <ele>437.5</ele>
        <time>2014-10-05T09:15:08.000Z</time>
      </trkpt>
      <trkpt lat="47.40556" lon="6.72598">
        <ele>437.9</ele>
        <time>2014-10-05T09:15:09.000Z</time>
      </trkpt>
      <trkpt lat="47.40556" lon="6.72594">
        <ele>437.9</ele>
        <time>2014-10-05T09:15:10.000Z</time>
      </trkpt>
      <trkpt lat="47.40556" lon="6.72589">
        <ele>438.1</ele>
        <time>2014-10-05T09:15:11.000Z</time>
      </trkpt>
      <trkpt lat="47.40556" lon="6.72585">
        <ele>438.5</ele>
        <time>2014-10-05T09:15:12.000Z</time>
      </trkpt>
      <trkpt lat="47.40556" lon="6.7258">
        <ele>438.7</ele>
        <time>2014-10-05T09:15:13.000Z</time>
      </trkpt>
      <trkpt lat="47.40557" lon="6.72575">
        <ele>439.3</ele>
        <time>2014-10-05T09:15:14.000Z</time>
      </trkpt>
      <trkpt lat="47.40557" lon="6.7257">
        <ele>440.1</ele>
        <time>2014-10-05T09:15:15.000Z</time>
      </trkpt>
      <trkpt lat="47.40558" lon="6.72564">
        <ele>440.5</ele>
        <time>2014-10-05T09:15:16.000Z</time>
      </trkpt>
      <trkpt lat="47.4056" lon="6.72549">
        <ele>440.2</ele>
        <time>2014-10-05T09:15:19.000Z</time>
      </trkpt>
      <trkpt lat="47.4056" lon="6.72543">
        <ele>440.2</ele>
        <time>2014-10-05T09:15:20.000Z</time>
      </trkpt>
      <trkpt lat="47.4056" lon="6.72536">
        <ele>440.7</ele>
        <time>2014-10-05T09:15:21.000Z</time>
      </trkpt>
      <trkpt lat="47.4056" lon="6.72528">
        <ele>441</ele>
        <time>2014-10-05T09:15:22.000Z</time>
      </trkpt>
      <trkpt lat="47.40559" lon="6.72521">
        <ele>441.5</ele>
        <time>2014-10-05T09:15:23.000Z</time>
      </trkpt>
      <trkpt lat="47.40559" lon="6.72513">
        <ele>441.8</ele>
        <time>2014-10-05T09:15:24.000Z</time>
      </trkpt>
      <trkpt lat="47.40558" lon="6.72506">
        <ele>441.6</ele>
        <time>2014-10-05T09:15:25.000Z</time>
      </trkpt>
      <trkpt lat="47.40557" lon="6.72499">
        <ele>442.3</ele>
        <time>2014-10-05T09:15:26.000Z</time>
      </trkpt>
      <trkpt lat="47.40556" lon="6.72491">
        <ele>442.1</ele>
        <time>2014-10-05T09:15:27.000Z</time>
      </trkpt>
      <trkpt lat="47.40555" lon="6.72484">
        <ele>442.2</ele>
        <time>2014-10-05T09:15:28.000Z</time>
      </trkpt>
      <trkpt lat="47.40554" lon="6.72476">
        <ele>442.1</ele>
        <time>2014-10-05T09:15:29.000Z</time>
      </trkpt>
      <trkpt lat="47.40552" lon="6.72469">
        <ele>442.4</ele>
        <time>2014-10-05T09:15:30.000Z</time>
      </trkpt>
      <trkpt lat="47.40549" lon="6.72462">
        <ele>443.4</ele>
        <time>2014-10-05T09:15:31.000Z</time>
      </trkpt>
      <trkpt lat="47.40546" lon="6.72455">
        <ele>441.3</ele>
        <time>2014-10-05T09:15:32.000Z</time>
      </trkpt>
      <trkpt lat="47.40541" lon="6.7245">
        <ele>438.5</ele>
        <time>2014-10-05T09:15:33.000Z</time>
      </trkpt>
      <trkpt lat="47.40536" lon="6.72445">
        <ele>436.7</ele>
        <time>2014-10-05T09:15:34.000Z</time>
      </trkpt>
      <trkpt lat="47.4053" lon="6.72441">
        <ele>434.4</ele>
        <time>2014-10-05T09:15:35.000Z</time>
      </trkpt>
      <trkpt lat="47.40524" lon="6.72438">
        <ele>433.1</ele>
        <time>2014-10-05T09:15:36.000Z</time>
      </trkpt>
      <trkpt lat="47.40518" lon="6.72435">
        <ele>431.6</ele>
        <time>2014-10-05T09:15:37.000Z</time>
      </trkpt>
      <trkpt lat="47.40513" lon="6.72432">
        <ele>429.8</ele>
        <time>2014-10-05T09:15:38.000Z</time>
      </trkpt>
      <trkpt lat="47.40508" lon="6.7243">
        <ele>429.3</ele>
        <time>2014-10-05T09:15:39.000Z</time>
      </trkpt>
      <trkpt lat="47.40503" lon="6.72427">
        <ele>429.7</ele>
        <time>2014-10-05T09:15:40.000Z</time>
      </trkpt>
      <trkpt lat="47.40498" lon="6.72424">
        <ele>429.7</ele>
        <time>2014-10-05T09:15:41.000Z</time>
      </trkpt>
      <trkpt lat="47.40494" lon="6.72421">
        <ele>429.9</ele>
        <time>2014-10-05T09:15:42.000Z</time>
      </trkpt>
      <trkpt lat="47.40489" lon="6.72418">
        <ele>429.9</ele>
        <time>2014-10-05T09:15:43.000Z</time>
      </trkpt>
      <trkpt lat="47.40485" lon="6.72416">
        <ele>430.3</ele>
        <time>2014-10-05T09:15:44.000Z</time>
      </trkpt>
      <trkpt lat="47.4048" lon="6.72414">
        <ele>429.7</ele>
        <time>2014-10-05T09:15:45.000Z</time>
      </trkpt>
      <trkpt lat="47.40475" lon="6.72413">
        <ele>428.7</ele>
        <time>2014-10-05T09:15:46.000Z</time>
      </trkpt>
      <trkpt lat="47.4047" lon="6.72411">
        <ele>429.3</ele>
        <time>2014-10-05T09:15:47.000Z</time>
      </trkpt>
      <trkpt lat="47.40466" lon="6.72409">
        <ele>430.5</ele>
        <time>2014-10-05T09:15:48.000Z</time>
      </trkpt>
      <trkpt lat="47.40462" lon="6.72407">
        <ele>431.5</ele>
        <time>2014-10-05T09:15:49.000Z</time>
      </trkpt>
      <trkpt lat="47.40458" lon="6.72404">
        <ele>432</ele>
        <time>2014-10-05T09:15:50.000Z</time>
      </trkpt>
      <trkpt lat="47.40455" lon="6.72402">
        <ele>432.3</ele>
        <time>2014-10-05T09:15:51.000Z</time>
      </trkpt>
      <trkpt lat="47.40451" lon="6.724">
        <ele>431.6</ele>
        <time>2014-10-05T09:15:52.000Z</time>
      </trkpt>
      <trkpt lat="47.40448" lon="6.72398">
        <ele>431.9</ele>
        <time>2014-10-05T09:15:53.000Z</time>
      </trkpt>
      <trkpt lat="47.40444" lon="6.72397">
        <ele>433.4</ele>
        <time>2014-10-05T09:15:54.000Z</time>
      </trkpt>
      <trkpt lat="47.4044" lon="6.72396">
        <ele>434.7</ele>
        <time>2014-10-05T09:15:55.000Z</time>
      </trkpt>
      <trkpt lat="47.40436" lon="6.72395">
        <ele>435.9</ele>
        <time>2014-10-05T09:15:56.000Z</time>
      </trkpt>
      <trkpt lat="47.40432" lon="6.72393">
        <ele>436.4</ele>
        <time>2014-10-05T09:15:57.000Z</time>
      </trkpt>
      <trkpt lat="47.40428" lon="6.72392">
        <ele>436.2</ele>
        <time>2014-10-05T09:15:58.000Z</time>
      </trkpt>
      <trkpt lat="47.40424" lon="6.7239">
        <ele>436.6</ele>
        <time>2014-10-05T09:15:59.000Z</time>
      </trkpt>
      <trkpt lat="47.40421" lon="6.72389">
        <ele>436.8</ele>
        <time>2014-10-05T09:16:00.000Z</time>
      </trkpt>
      <trkpt lat="47.40418" lon="6.72388">
        <ele>436.4</ele>
        <time>2014-10-05T09:16:01.000Z</time>
      </trkpt>
      <trkpt lat="47.40415" lon="6.72386">
        <ele>435.3</ele>
        <time>2014-10-05T09:16:02.000Z</time>
      </trkpt>
      <trkpt lat="47.40412" lon="6.72384">
        <ele>435.1</ele>
        <time>2014-10-05T09:16:03.000Z</time>
      </trkpt>
      <trkpt lat="47.40409" lon="6.72382">
        <ele>434.4</ele>
        <time>2014-10-05T09:16:04.000Z</time>
      </trkpt>
      <trkpt lat="47.40406" lon="6.72381">
        <ele>437.3</ele>
        <time>2014-10-05T09:16:05.000Z</time>
      </trkpt>
      <trkpt lat="47.40403" lon="6.7238">
        <ele>437.5</ele>
        <time>2014-10-05T09:16:06.000Z</time>
      </trkpt>
      <trkpt lat="47.404" lon="6.72379">
        <ele>438.1</ele>
        <time>2014-10-05T09:16:07.000Z</time>
      </trkpt>
      <trkpt lat="47.40397" lon="6.72378">
        <ele>438.9</ele>
        <time>2014-10-05T09:16:08.000Z</time>
      </trkpt>
      <trkpt lat="47.40393" lon="6.72377">
        <ele>439.2</ele>
        <time>2014-10-05T09:16:09.000Z</time>
      </trkpt>
      <trkpt lat="47.4039" lon="6.72376">
        <ele>439.3</ele>
        <time>2014-10-05T09:16:10.000Z</time>
      </trkpt>
      <trkpt lat="47.40385" lon="6.72375">
        <ele>439.3</ele>
        <time>2014-10-05T09:16:11.000Z</time>
      </trkpt>
      <trkpt lat="47.40382" lon="6.72373">
        <ele>439.1</ele>
        <time>2014-10-05T09:16:12.000Z</time>
      </trkpt>
      <trkpt lat="47.40378" lon="6.72372">
        <ele>438.9</ele>
        <time>2014-10-05T09:16:13.000Z</time>
      </trkpt>
      <trkpt lat="47.40374" lon="6.7237">
        <ele>439.1</ele>
        <time>2014-10-05T09:16:14.000Z</time>
      </trkpt>
      <trkpt lat="47.40371" lon="6.72368">
        <ele>438.8</ele>
        <time>2014-10-05T09:16:15.000Z</time>
      </trkpt>
      <trkpt lat="47.40368" lon="6.72366">
        <ele>437.9</ele>
        <time>2014-10-05T09:16:16.000Z</time>
      </trkpt>
      <trkpt lat="47.4036" lon="6.72362">
        <ele>437.9</ele>
        <time>2014-10-05T09:16:19.000Z</time>
      </trkpt>
      <trkpt lat="47.40357" lon="6.72361">
        <ele>438</ele>
        <time>2014-10-05T09:16:20.000Z</time>
      </trkpt>
      <trkpt lat="47.40354" lon="6.72359">
        <ele>438.5</ele>
        <time>2014-10-05T09:16:21.000Z</time>
      </trkpt>
      <trkpt lat="47.40352" lon="6.72357">
        <ele>438.4</ele>
        <time>2014-10-05T09:16:22.000Z</time>
      </trkpt>
      <trkpt lat="47.40349" lon="6.72355">
        <ele>438</ele>
        <time>2014-10-05T09:16:23.000Z</time>
      </trkpt>
      <trkpt lat="47.40347" lon="6.72354">
        <ele>437.5</ele>
        <time>2014-10-05T09:16:24.000Z</time>
      </trkpt>
      <trkpt lat="47.40344" lon="6.72352">
        <ele>436.8</ele>
        <time>2014-10-05T09:16:25.000Z</time>
      </trkpt>
      <trkpt lat="47.40342" lon="6.7235">
        <ele>436.8</ele>
        <time>2014-10-05T09:16:26.000Z</time>
      </trkpt>
      <trkpt lat="47.40339" lon="6.72348">
        <ele>435.9</ele>
        <time>2014-10-05T09:16:27.000Z</time>
      </trkpt>
      <trkpt lat="47.40336" lon="6.72346">
        <ele>435.6</ele>
        <time>2014-10-05T09:16:28.000Z</time>
      </trkpt>
      <trkpt lat="47.40333" lon="6.72345">
        <ele>436.6</ele>
        <time>2014-10-05T09:16:29.000Z</time>
      </trkpt>
      <trkpt lat="47.4033" lon="6.72343">
        <ele>436.5</ele>
        <time>2014-10-05T09:16:30.000Z</time>
      </trkpt>
      <trkpt lat="47.40328" lon="6.72342">
        <ele>436.8</ele>
        <time>2014-10-05T09:16:31.000Z</time>
      </trkpt>
      <trkpt lat="47.40324" lon="6.72338">
        <ele>438.2</ele>
        <time>2014-10-05T09:16:33.000Z</time>
      </trkpt>
      <trkpt lat="47.40322" lon="6.72336">
        <ele>438.5</ele>
        <time>2014-10-05T09:16:34.000Z</time>
      </trkpt>
      <trkpt lat="47.40319" lon="6.72334">
        <ele>436.2</ele>
        <time>2014-10-05T09:16:35.000Z</time>
      </trkpt>
      <trkpt lat="47.40316" lon="6.72332">
        <ele>435.3</ele>
        <time>2014-10-05T09:16:36.000Z</time>
      </trkpt>
      <trkpt lat="47.40312" lon="6.72329">
        <ele>434.1</ele>
        <time>2014-10-05T09:16:37.000Z</time>
      </trkpt>
      <trkpt lat="47.40308" lon="6.72326">
        <ele>433.4</ele>
        <time>2014-10-05T09:16:38.000Z</time>
      </trkpt>
      <trkpt lat="47.40304" lon="6.72324">
        <ele>431.7</ele>
        <time>2014-10-05T09:16:39.000Z</time>
      </trkpt>
      <trkpt lat="47.40301" lon="6.72322">
        <ele>430.9</ele>
        <time>2014-10-05T09:16:40.000Z</time>
      </trkpt>
      <trkpt lat="47.40299" lon="6.72319">
        <ele>433.3</ele>
        <time>2014-10-05T09:16:41.000Z</time>
      </trkpt>
      <trkpt lat="47.40297" lon="6.72316">
        <ele>434.4</ele>
        <time>2014-10-05T09:16:42.000Z</time>
      </trkpt>
      <trkpt lat="47.40295" lon="6.72312">
        <ele>435.1</ele>
        <time>2014-10-05T09:16:44.000Z</time>
      </trkpt>
      <trkpt lat="47.40294" lon="6.72309">
        <ele>434.8</ele>
        <time>2014-10-05T09:16:45.000Z</time>
      </trkpt>
      <trkpt lat="47.4029" lon="6.72307">
        <ele>433</ele>
        <time>2014-10-05T09:16:47.000Z</time>
      </trkpt>
      <trkpt lat="47.40287" lon="6.72306">
        <ele>434.8</ele>
        <time>2014-10-05T09:16:48.000Z</time>
      </trkpt>
      <trkpt lat="47.40284" lon="6.72305">
        <ele>436</ele>
        <time>2014-10-05T09:16:49.000Z</time>
      </trkpt>
      <trkpt lat="47.40282" lon="6.72304">
        <ele>440.5</ele>
        <time>2014-10-05T09:16:50.000Z</time>
      </trkpt>
      <trkpt lat="47.40279" lon="6.72302">
        <ele>441.1</ele>
        <time>2014-10-05T09:16:52.000Z</time>
      </trkpt>
      <trkpt lat="47.40278" lon="6.72301">
        <ele>441</ele>
        <time>2014-10-05T09:16:53.000Z</time>
      </trkpt>
      <trkpt lat="47.40274" lon="6.72298">
        <ele>440.6</ele>
        <time>2014-10-05T09:16:55.000Z</time>
      </trkpt>
      <trkpt lat="47.40272" lon="6.72297">
        <ele>441.4</ele>
        <time>2014-10-05T09:16:56.000Z</time>
      </trkpt>
      <trkpt lat="47.40268" lon="6.72293">
        <ele>441.9</ele>
        <time>2014-10-05T09:16:58.000Z</time>
      </trkpt>
      <trkpt lat="47.40266" lon="6.72291">
        <ele>441.8</ele>
        <time>2014-10-05T09:16:59.000Z</time>
      </trkpt>
      <trkpt lat="47.40262" lon="6.72288">
        <ele>441.8</ele>
        <time>2014-10-05T09:17:01.000Z</time>
      </trkpt>
      <trkpt lat="47.4026" lon="6.72287">
        <ele>444.3</ele>
        <time>2014-10-05T09:17:02.000Z</time>
      </trkpt>
      <trkpt lat="47.40256" lon="6.72287">
        <ele>445.9</ele>
        <time>2014-10-05T09:17:04.000Z</time>
      </trkpt>
      <trkpt lat="47.40253" lon="6.72287">
        <ele>445.3</ele>
        <time>2014-10-05T09:17:05.000Z</time>
      </trkpt>
      <trkpt lat="47.40251" lon="6.72286">
        <ele>445</ele>
        <time>2014-10-05T09:17:06.000Z</time>
      </trkpt>
      <trkpt lat="47.40249" lon="6.72286">
        <ele>444.8</ele>
        <time>2014-10-05T09:17:07.000Z</time>
      </trkpt>
      <trkpt lat="47.40246" lon="6.72285">
        <ele>444.4</ele>
        <time>2014-10-05T09:17:08.000Z</time>
      </trkpt>
      <trkpt lat="47.40243" lon="6.72285">
        <ele>444</ele>
        <time>2014-10-05T09:17:09.000Z</time>
      </trkpt>
      <trkpt lat="47.4024" lon="6.72284">
        <ele>444.5</ele>
        <time>2014-10-05T09:17:11.000Z</time>
      </trkpt>
      <trkpt lat="47.40237" lon="6.72284">
        <ele>443.5</ele>
        <time>2014-10-05T09:17:12.000Z</time>
      </trkpt>
      <trkpt lat="47.40234" lon="6.72282">
        <ele>445.7</ele>
        <time>2014-10-05T09:17:14.000Z</time>
      </trkpt>
      <trkpt lat="47.40233" lon="6.7228">
        <ele>446.5</ele>
        <time>2014-10-05T09:17:15.000Z</time>
      </trkpt>
      <trkpt lat="47.40232" lon="6.72277">
        <ele>446.5</ele>
        <time>2014-10-05T09:17:16.000Z</time>
      </trkpt>
      <trkpt lat="47.40217" lon="6.7227">
        <ele>442.1</ele>
        <time>2014-10-05T09:17:24.000Z</time>
      </trkpt>
      <trkpt lat="47.40215" lon="6.7227">
        <ele>443</ele>
        <time>2014-10-05T09:17:26.000Z</time>
      </trkpt>
      <trkpt lat="47.40213" lon="6.7227">
        <ele>443.1</ele>
        <time>2014-10-05T09:17:27.000Z</time>
      </trkpt>
      <trkpt lat="47.4021" lon="6.7227">
        <ele>443.6</ele>
        <time>2014-10-05T09:17:28.000Z</time>
      </trkpt>
      <trkpt lat="47.40208" lon="6.72271">
        <ele>443.8</ele>
        <time>2014-10-05T09:17:29.000Z</time>
      </trkpt>
      <trkpt lat="47.40206" lon="6.7227">
        <ele>444.2</ele>
        <time>2014-10-05T09:17:30.000Z</time>
      </trkpt>
      <trkpt lat="47.40203" lon="6.7227">
        <ele>445.1</ele>
        <time>2014-10-05T09:17:31.000Z</time>
      </trkpt>
      <trkpt lat="47.402" lon="6.72268">
        <ele>445.6</ele>
        <time>2014-10-05T09:17:33.000Z</time>
      </trkpt>
      <trkpt lat="47.40198" lon="6.72268">
        <ele>446.6</ele>
        <time>2014-10-05T09:17:34.000Z</time>
      </trkpt>
      <trkpt lat="47.40195" lon="6.72268">
        <ele>448.6</ele>
        <time>2014-10-05T09:17:36.000Z</time>
      </trkpt>
      <trkpt lat="47.40193" lon="6.72268">
        <ele>449.4</ele>
        <time>2014-10-05T09:17:37.000Z</time>
      </trkpt>
      <trkpt lat="47.40189" lon="6.72266">
        <ele>449.8</ele>
        <time>2014-10-05T09:17:39.000Z</time>
      </trkpt>
      <trkpt lat="47.40187" lon="6.72265">
        <ele>449.8</ele>
        <time>2014-10-05T09:17:40.000Z</time>
      </trkpt>
      <trkpt lat="47.40184" lon="6.72264">
        <ele>449.9</ele>
        <time>2014-10-05T09:17:42.000Z</time>
      </trkpt>
      <trkpt lat="47.40182" lon="6.72264">
        <ele>449.7</ele>
        <time>2014-10-05T09:17:43.000Z</time>
      </trkpt>
      <trkpt lat="47.40179" lon="6.72264">
        <ele>453.8</ele>
        <time>2014-10-05T09:17:46.000Z</time>
      </trkpt>
      <trkpt lat="47.40178" lon="6.72264">
        <ele>457.3</ele>
        <time>2014-10-05T09:17:47.000Z</time>
      </trkpt>
      <trkpt lat="47.40174" lon="6.72262">
        <ele>458.3</ele>
        <time>2014-10-05T09:17:49.000Z</time>
      </trkpt>
      <trkpt lat="47.40172" lon="6.7226">
        <ele>457</ele>
        <time>2014-10-05T09:17:50.000Z</time>
      </trkpt>
      <trkpt lat="47.40169" lon="6.72258">
        <ele>457.8</ele>
        <time>2014-10-05T09:17:51.000Z</time>
      </trkpt>
      <trkpt lat="47.40166" lon="6.72254">
        <ele>457.7</ele>
        <time>2014-10-05T09:17:52.000Z</time>
      </trkpt>
      <trkpt lat="47.40163" lon="6.72251">
        <ele>457.1</ele>
        <time>2014-10-05T09:17:53.000Z</time>
      </trkpt>
      <trkpt lat="47.4016" lon="6.72248">
        <ele>458.3</ele>
        <time>2014-10-05T09:17:54.000Z</time>
      </trkpt>
      <trkpt lat="47.40157" lon="6.72246">
        <ele>457.5</ele>
        <time>2014-10-05T09:17:55.000Z</time>
      </trkpt>
      <trkpt lat="47.40155" lon="6.72245">
        <ele>458.4</ele>
        <time>2014-10-05T09:17:56.000Z</time>
      </trkpt>
      <trkpt lat="47.40151" lon="6.72244">
        <ele>459.4</ele>
        <time>2014-10-05T09:17:58.000Z</time>
      </trkpt>
      <trkpt lat="47.40149" lon="6.72243">
        <ele>458.5</ele>
        <time>2014-10-05T09:17:59.000Z</time>
      </trkpt>
      <trkpt lat="47.40147" lon="6.72243">
        <ele>459.5</ele>
        <time>2014-10-05T09:18:00.000Z</time>
      </trkpt>
      <trkpt lat="47.40145" lon="6.72243">
        <ele>459.8</ele>
        <time>2014-10-05T09:18:01.000Z</time>
      </trkpt>
      <trkpt lat="47.4014" lon="6.72243">
        <ele>459.9</ele>
        <time>2014-10-05T09:18:03.000Z</time>
      </trkpt>
      <trkpt lat="47.40138" lon="6.72244">
        <ele>459</ele>
        <time>2014-10-05T09:18:04.000Z</time>
      </trkpt>
      <trkpt lat="47.40135" lon="6.72243">
        <ele>459.2</ele>
        <time>2014-10-05T09:18:05.000Z</time>
      </trkpt>
      <trkpt lat="47.40133" lon="6.72243">
        <ele>459.6</ele>
        <time>2014-10-05T09:18:06.000Z</time>
      </trkpt>
      <trkpt lat="47.40129" lon="6.72242">
        <ele>459.2</ele>
        <time>2014-10-05T09:18:08.000Z</time>
      </trkpt>
      <trkpt lat="47.40127" lon="6.72241">
        <ele>461</ele>
        <time>2014-10-05T09:18:09.000Z</time>
      </trkpt>
      <trkpt lat="47.40123" lon="6.72241">
        <ele>461.1</ele>
        <time>2014-10-05T09:18:11.000Z</time>
      </trkpt>
      <trkpt lat="47.40121" lon="6.72241">
        <ele>461.1</ele>
        <time>2014-10-05T09:18:12.000Z</time>
      </trkpt>
      <trkpt lat="47.40117" lon="6.7224">
        <ele>460.7</ele>
        <time>2014-10-05T09:18:14.000Z</time>
      </trkpt>
      <trkpt lat="47.40115" lon="6.7224">
        <ele>460.7</ele>
        <time>2014-10-05T09:18:15.000Z</time>
      </trkpt>
      <trkpt lat="47.40113" lon="6.7224">
        <ele>460.2</ele>
        <time>2014-10-05T09:18:16.000Z</time>
      </trkpt>
      <trkpt lat="47.40109" lon="6.72239">
        <ele>448.5</ele>
        <time>2014-10-05T09:18:19.000Z</time>
      </trkpt>
      <trkpt lat="47.40106" lon="6.72238">
        <ele>447.5</ele>
        <time>2014-10-05T09:18:21.000Z</time>
      </trkpt>
      <trkpt lat="47.40104" lon="6.72237">
        <ele>447.2</ele>
        <time>2014-10-05T09:18:22.000Z</time>
      </trkpt>
      <trkpt lat="47.401" lon="6.72236">
        <ele>446.7</ele>
        <time>2014-10-05T09:18:26.000Z</time>
      </trkpt>
      <trkpt lat="47.40099" lon="6.72236">
        <ele>446.2</ele>
        <time>2014-10-05T09:18:27.000Z</time>
      </trkpt>
      <trkpt lat="47.40095" lon="6.72234">
        <ele>446.6</ele>
        <time>2014-10-05T09:18:31.000Z</time>
      </trkpt>
      <trkpt lat="47.40094" lon="6.72233">
        <ele>447.4</ele>
        <time>2014-10-05T09:18:32.000Z</time>
      </trkpt>
      <trkpt lat="47.40091" lon="6.72229">
        <ele>448.9</ele>
        <time>2014-10-05T09:18:37.000Z</time>
      </trkpt>
      <trkpt lat="47.4009" lon="6.72228">
        <ele>449.1</ele>
        <time>2014-10-05T09:18:38.000Z</time>
      </trkpt>
      <trkpt lat="47.40086" lon="6.72226">
        <ele>450</ele>
        <time>2014-10-05T09:18:42.000Z</time>
      </trkpt>
      <trkpt lat="47.40085" lon="6.72225">
        <ele>450.9</ele>
        <time>2014-10-05T09:18:43.000Z</time>
      </trkpt>
      <trkpt lat="47.40082" lon="6.72222">
        <ele>451</ele>
        <time>2014-10-05T09:18:46.000Z</time>
      </trkpt>
      <trkpt lat="47.40081" lon="6.7222">
        <ele>451.4</ele>
        <time>2014-10-05T09:18:47.000Z</time>
      </trkpt>
      <trkpt lat="47.40078" lon="6.72217">
        <ele>452</ele>
        <time>2014-10-05T09:18:49.000Z</time>
      </trkpt>
      <trkpt lat="47.40076" lon="6.72216">
        <ele>451.7</ele>
        <time>2014-10-05T09:18:50.000Z</time>
      </trkpt>
      <trkpt lat="47.40073" lon="6.72212">
        <ele>453.5</ele>
        <time>2014-10-05T09:18:52.000Z</time>
      </trkpt>
      <trkpt lat="47.40071" lon="6.7221">
        <ele>453.7</ele>
        <time>2014-10-05T09:18:53.000Z</time>
      </trkpt>
      <trkpt lat="47.40067" lon="6.72207">
        <ele>455</ele>
        <time>2014-10-05T09:18:55.000Z</time>
      </trkpt>
      <trkpt lat="47.40065" lon="6.72206">
        <ele>455.6</ele>
        <time>2014-10-05T09:18:56.000Z</time>
      </trkpt>
      <trkpt lat="47.40063" lon="6.72202">
        <ele>461.4</ele>
        <time>2014-10-05T09:18:58.000Z</time>
      </trkpt>
      <trkpt lat="47.40061" lon="6.722">
        <ele>461.9</ele>
        <time>2014-10-05T09:18:59.000Z</time>
      </trkpt>
      <trkpt lat="47.4006" lon="6.72195">
        <ele>464</ele>
        <time>2014-10-05T09:19:01.000Z</time>
      </trkpt>
      <trkpt lat="47.40059" lon="6.72192">
        <ele>465.1</ele>
        <time>2014-10-05T09:19:02.000Z</time>
      </trkpt>
      <trkpt lat="47.40058" lon="6.72186">
        <ele>465.8</ele>
        <time>2014-10-05T09:19:04.000Z</time>
      </trkpt>
      <trkpt lat="47.40057" lon="6.72183">
        <ele>465.9</ele>
        <time>2014-10-05T09:19:05.000Z</time>
      </trkpt>
      <trkpt lat="47.40055" lon="6.72179">
        <ele>467.6</ele>
        <time>2014-10-05T09:19:07.000Z</time>
      </trkpt>
      <trkpt lat="47.40054" lon="6.72177">
        <ele>468.8</ele>
        <time>2014-10-05T09:19:08.000Z</time>
      </trkpt>
      <trkpt lat="47.40051" lon="6.72174">
        <ele>468.7</ele>
        <time>2014-10-05T09:19:10.000Z</time>
      </trkpt>
      <trkpt lat="47.40049" lon="6.72172">
        <ele>469.3</ele>
        <time>2014-10-05T09:19:11.000Z</time>
      </trkpt>
      <trkpt lat="47.40046" lon="6.72168">
        <ele>469.4</ele>
        <time>2014-10-05T09:19:13.000Z</time>
      </trkpt>
      <trkpt lat="47.40044" lon="6.72166">
        <ele>469.6</ele>
        <time>2014-10-05T09:19:14.000Z</time>
      </trkpt>
      <trkpt lat="47.40041" lon="6.72162">
        <ele>469.7</ele>
        <time>2014-10-05T09:19:16.000Z</time>
      </trkpt>
      <trkpt lat="47.40035" lon="6.72156">
        <ele>454.1</ele>
        <time>2014-10-05T09:19:19.000Z</time>
      </trkpt>
      <trkpt lat="47.40032" lon="6.72152">
        <ele>455.2</ele>
        <time>2014-10-05T09:19:21.000Z</time>
      </trkpt>
      <trkpt lat="47.40031" lon="6.7215">
        <ele>454.8</ele>
        <time>2014-10-05T09:19:22.000Z</time>
      </trkpt>
      <trkpt lat="47.40028" lon="6.72149">
        <ele>457.1</ele>
        <time>2014-10-05T09:19:23.000Z</time>
      </trkpt>
      <trkpt lat="47.40026" lon="6.72148">
        <ele>458.3</ele>
        <time>2014-10-05T09:19:24.000Z</time>
      </trkpt>
      <trkpt lat="47.40023" lon="6.72145">
        <ele>461.3</ele>
        <time>2014-10-05T09:19:26.000Z</time>
      </trkpt>
      <trkpt lat="47.40022" lon="6.72144">
        <ele>462.4</ele>
        <time>2014-10-05T09:19:27.000Z</time>
      </trkpt>
      <trkpt lat="47.40019" lon="6.72141">
        <ele>464.5</ele>
        <time>2014-10-05T09:19:29.000Z</time>
      </trkpt>
      <trkpt lat="47.40018" lon="6.7214">
        <ele>464.6</ele>
        <time>2014-10-05T09:19:30.000Z</time>
      </trkpt>
      <trkpt lat="47.40015" lon="6.72135">
        <ele>464.7</ele>
        <time>2014-10-05T09:19:33.000Z</time>
      </trkpt>
      <trkpt lat="47.40015" lon="6.72134">
        <ele>465.4</ele>
        <time>2014-10-05T09:19:34.000Z</time>
      </trkpt>
      <trkpt lat="47.40011" lon="6.72133">
        <ele>469.7</ele>
        <time>2014-10-05T09:19:37.000Z</time>
      </trkpt>
      <trkpt lat="47.40009" lon="6.72132">
        <ele>470.6</ele>
        <time>2014-10-05T09:19:38.000Z</time>
      </trkpt>
      <trkpt lat="47.40006" lon="6.72129">
        <ele>472.5</ele>
        <time>2014-10-05T09:19:41.000Z</time>
      </trkpt>
      <trkpt lat="47.40004" lon="6.72128">
        <ele>472.6</ele>
        <time>2014-10-05T09:19:42.000Z</time>
      </trkpt>
      <trkpt lat="47.40001" lon="6.72124">
        <ele>472.7</ele>
        <time>2014-10-05T09:19:44.000Z</time>
      </trkpt>
      <trkpt lat="47.4" lon="6.72122">
        <ele>472.9</ele>
        <time>2014-10-05T09:19:45.000Z</time>
      </trkpt>
      <trkpt lat="47.39999" lon="6.72116">
        <ele>473.6</ele>
        <time>2014-10-05T09:19:47.000Z</time>
      </trkpt>
      <trkpt lat="47.39998" lon="6.72113">
        <ele>472.9</ele>
        <time>2014-10-05T09:19:48.000Z</time>
      </trkpt>
      <trkpt lat="47.39995" lon="6.72108">
        <ele>471.3</ele>
        <time>2014-10-05T09:19:50.000Z</time>
      </trkpt>
      <trkpt lat="47.39994" lon="6.72105">
        <ele>472.4</ele>
        <time>2014-10-05T09:19:51.000Z</time>
      </trkpt>
      <trkpt lat="47.39991" lon="6.721">
        <ele>475.5</ele>
        <time>2014-10-05T09:19:53.000Z</time>
      </trkpt>
      <trkpt lat="47.39989" lon="6.72098">
        <ele>475.7</ele>
        <time>2014-10-05T09:19:54.000Z</time>
      </trkpt>
      <trkpt lat="47.39988" lon="6.72095">
        <ele>475.8</ele>
        <time>2014-10-05T09:19:55.000Z</time>
      </trkpt>
      <trkpt lat="47.39986" lon="6.72093">
        <ele>477.2</ele>
        <time>2014-10-05T09:19:56.000Z</time>
      </trkpt>
      <trkpt lat="47.39984" lon="6.72087">
        <ele>479.5</ele>
        <time>2014-10-05T09:19:58.000Z</time>
      </trkpt>
      <trkpt lat="47.39983" lon="6.72085">
        <ele>480.2</ele>
        <time>2014-10-05T09:19:59.000Z</time>
      </trkpt>
      <trkpt lat="47.39981" lon="6.7208">
        <ele>479.9</ele>
        <time>2014-10-05T09:20:01.000Z</time>
      </trkpt>
      <trkpt lat="47.39981" lon="6.72078">
        <ele>480.3</ele>
        <time>2014-10-05T09:20:02.000Z</time>
      </trkpt>
      <trkpt lat="47.39982" lon="6.72083">
        <ele>477.5</ele>
        <time>2014-10-05T09:20:11.000Z</time>
      </trkpt>
      <trkpt lat="47.39983" lon="6.72084">
        <ele>477.7</ele>
        <time>2014-10-05T09:20:12.000Z</time>
      </trkpt>
      <trkpt lat="47.39986" lon="6.72088">
        <ele>478.6</ele>
        <time>2014-10-05T09:20:16.000Z</time>
      </trkpt>
      <trkpt lat="47.39993" lon="6.72095">
        <ele>430.8</ele>
        <time>2014-10-05T09:20:24.000Z</time>
      </trkpt>
      <trkpt lat="47.39996" lon="6.72098">
        <ele>432</ele>
        <time>2014-10-05T09:20:27.000Z</time>
      </trkpt>
      <trkpt lat="47.39997" lon="6.72099">
        <ele>432.5</ele>
        <time>2014-10-05T09:20:28.000Z</time>
      </trkpt>
      <trkpt lat="47.39999" lon="6.72103">
        <ele>434.3</ele>
        <time>2014-10-05T09:20:30.000Z</time>
      </trkpt>
      <trkpt lat="47.4" lon="6.72104">
        <ele>435.3</ele>
        <time>2014-10-05T09:20:31.000Z</time>
      </trkpt>
      <trkpt lat="47.40003" lon="6.72108">
        <ele>436.2</ele>
        <time>2014-10-05T09:20:33.000Z</time>
      </trkpt>
      <trkpt lat="47.40004" lon="6.72109">
        <ele>437.3</ele>
        <time>2014-10-05T09:20:34.000Z</time>
      </trkpt>
      <trkpt lat="47.40007" lon="6.72114">
        <ele>438.1</ele>
        <time>2014-10-05T09:20:37.000Z</time>
      </trkpt>
      <trkpt lat="47.40008" lon="6.72115">
        <ele>439.4</ele>
        <time>2014-10-05T09:20:38.000Z</time>
      </trkpt>
      <trkpt lat="47.40012" lon="6.72117">
        <ele>441.9</ele>
        <time>2014-10-05T09:20:41.000Z</time>
      </trkpt>
      <trkpt lat="47.40013" lon="6.72117">
        <ele>442.1</ele>
        <time>2014-10-05T09:20:42.000Z</time>
      </trkpt>
      <trkpt lat="47.40017" lon="6.72119">
        <ele>446</ele>
        <time>2014-10-05T09:20:45.000Z</time>
      </trkpt>
      <trkpt lat="47.40018" lon="6.72119">
        <ele>446.8</ele>
        <time>2014-10-05T09:20:46.000Z</time>
      </trkpt>
      <trkpt lat="47.40022" lon="6.7212">
        <ele>447.9</ele>
        <time>2014-10-05T09:20:49.000Z</time>
      </trkpt>
      <trkpt lat="47.40024" lon="6.7212">
        <ele>448.4</ele>
        <time>2014-10-05T09:20:50.000Z</time>
      </trkpt>
      <trkpt lat="47.40027" lon="6.72123">
        <ele>450.4</ele>
        <time>2014-10-05T09:20:53.000Z</time>
      </trkpt>
      <trkpt lat="47.40029" lon="6.72124">
        <ele>451.3</ele>
        <time>2014-10-05T09:20:54.000Z</time>
      </trkpt>
      <trkpt lat="47.40032" lon="6.72126">
        <ele>452.9</ele>
        <time>2014-10-05T09:20:57.000Z</time>
      </trkpt>
      <trkpt lat="47.40034" lon="6.72127">
        <ele>454.4</ele>
        <time>2014-10-05T09:20:58.000Z</time>
      </trkpt>
      <trkpt lat="47.40036" lon="6.72129">
        <ele>456.3</ele>
        <time>2014-10-05T09:21:00.000Z</time>
      </trkpt>
      <trkpt lat="47.40038" lon="6.7213">
        <ele>457.3</ele>
        <time>2014-10-05T09:21:01.000Z</time>
      </trkpt>
      <trkpt lat="47.40041" lon="6.72132">
        <ele>459.5</ele>
        <time>2014-10-05T09:21:03.000Z</time>
      </trkpt>
      <trkpt lat="47.40043" lon="6.72133">
        <ele>460.3</ele>
        <time>2014-10-05T09:21:04.000Z</time>
      </trkpt>
      <trkpt lat="47.40046" lon="6.72133">
        <ele>462</ele>
        <time>2014-10-05T09:21:06.000Z</time>
      </trkpt>
      <trkpt lat="47.40048" lon="6.72134">
        <ele>463.3</ele>
        <time>2014-10-05T09:21:07.000Z</time>
      </trkpt>
      <trkpt lat="47.40051" lon="6.72135">
        <ele>465.8</ele>
        <time>2014-10-05T09:21:09.000Z</time>
      </trkpt>
      <trkpt lat="47.40052" lon="6.72136">
        <ele>467.4</ele>
        <time>2014-10-05T09:21:10.000Z</time>
      </trkpt>
      <trkpt lat="47.40055" lon="6.72137">
        <ele>468.9</ele>
        <time>2014-10-05T09:21:12.000Z</time>
      </trkpt>
      <trkpt lat="47.40057" lon="6.72138">
        <ele>469.4</ele>
        <time>2014-10-05T09:21:13.000Z</time>
      </trkpt>
      <trkpt lat="47.4006" lon="6.72139">
        <ele>470.9</ele>
        <time>2014-10-05T09:21:15.000Z</time>
      </trkpt>
      <trkpt lat="47.40062" lon="6.72139">
        <ele>472.2</ele>
        <time>2014-10-05T09:21:16.000Z</time>
      </trkpt>
      <trkpt lat="47.40066" lon="6.72141">
        <ele>453.7</ele>
        <time>2014-10-05T09:21:19.000Z</time>
      </trkpt>
      <trkpt lat="47.40069" lon="6.72143">
        <ele>455.2</ele>
        <time>2014-10-05T09:21:21.000Z</time>
      </trkpt>
      <trkpt lat="47.40071" lon="6.72143">
        <ele>456.5</ele>
        <time>2014-10-05T09:21:22.000Z</time>
      </trkpt>
      <trkpt lat="47.40074" lon="6.72145">
        <ele>457</ele>
        <time>2014-10-05T09:21:24.000Z</time>
      </trkpt>
      <trkpt lat="47.40076" lon="6.72146">
        <ele>458.1</ele>
        <time>2014-10-05T09:21:25.000Z</time>
      </trkpt>
      <trkpt lat="47.40078" lon="6.72149">
        <ele>461.6</ele>
        <time>2014-10-05T09:21:27.000Z</time>
      </trkpt>
      <trkpt lat="47.40079" lon="6.7215">
        <ele>463.1</ele>
        <time>2014-10-05T09:21:28.000Z</time>
      </trkpt>
      <trkpt lat="47.40083" lon="6.72152">
        <ele>464.3</ele>
        <time>2014-10-05T09:21:30.000Z</time>
      </trkpt>
      <trkpt lat="47.40085" lon="6.72152">
        <ele>465.9</ele>
        <time>2014-10-05T09:21:31.000Z</time>
      </trkpt>
      <trkpt lat="47.40089" lon="6.72152">
        <ele>468</ele>
        <time>2014-10-05T09:21:33.000Z</time>
      </trkpt>
      <trkpt lat="47.4009" lon="6.72153">
        <ele>467.8</ele>
        <time>2014-10-05T09:21:34.000Z</time>
      </trkpt>
      <trkpt lat="47.40094" lon="6.72154">
        <ele>474.2</ele>
        <time>2014-10-05T09:21:36.000Z</time>
      </trkpt>
      <trkpt lat="47.40096" lon="6.72155">
        <ele>475.8</ele>
        <time>2014-10-05T09:21:37.000Z</time>
      </trkpt>
      <trkpt lat="47.40099" lon="6.72155">
        <ele>477.3</ele>
        <time>2014-10-05T09:21:39.000Z</time>
      </trkpt>
      <trkpt lat="47.40101" lon="6.72155">
        <ele>478.1</ele>
        <time>2014-10-05T09:21:40.000Z</time>
      </trkpt>
      <trkpt lat="47.40104" lon="6.72152">
        <ele>480.7</ele>
        <time>2014-10-05T09:21:42.000Z</time>
      </trkpt>
      <trkpt lat="47.40106" lon="6.72149">
        <ele>480.9</ele>
        <time>2014-10-05T09:21:43.000Z</time>
      </trkpt>
      <trkpt lat="47.40107" lon="6.72144">
        <ele>480.9</ele>
        <time>2014-10-05T09:21:44.000Z</time>
      </trkpt>
      <trkpt lat="47.40109" lon="6.7214">
        <ele>481.1</ele>
        <time>2014-10-05T09:21:45.000Z</time>
      </trkpt>
      <trkpt lat="47.4011" lon="6.72135">
        <ele>481.9</ele>
        <time>2014-10-05T09:21:46.000Z</time>
      </trkpt>
      <trkpt lat="47.40111" lon="6.7213">
        <ele>482.6</ele>
        <time>2014-10-05T09:21:47.000Z</time>
      </trkpt>
      <trkpt lat="47.40113" lon="6.72125">
        <ele>482.6</ele>
        <time>2014-10-05T09:21:48.000Z</time>
      </trkpt>
      <trkpt lat="47.40114" lon="6.72119">
        <ele>483.4</ele>
        <time>2014-10-05T09:21:49.000Z</time>
      </trkpt>
      <trkpt lat="47.40116" lon="6.72114">
        <ele>485.8</ele>
        <time>2014-10-05T09:21:50.000Z</time>
      </trkpt>
      <trkpt lat="47.40118" lon="6.72109">
        <ele>487.1</ele>
        <time>2014-10-05T09:21:51.000Z</time>
      </trkpt>
      <trkpt lat="47.4012" lon="6.72104">
        <ele>487.9</ele>
        <time>2014-10-05T09:21:52.000Z</time>
      </trkpt>
      <trkpt lat="47.40121" lon="6.72099">
        <ele>487.8</ele>
        <time>2014-10-05T09:21:53.000Z</time>
      </trkpt>
      <trkpt lat="47.40122" lon="6.72094">
        <ele>488</ele>
        <time>2014-10-05T09:21:54.000Z</time>
      </trkpt>
      <trkpt lat="47.40123" lon="6.72089">
        <ele>489</ele>
        <time>2014-10-05T09:21:55.000Z</time>
      </trkpt>
      <trkpt lat="47.40124" lon="6.72084">
        <ele>489.6</ele>
        <time>2014-10-05T09:21:56.000Z</time>
      </trkpt>
      <trkpt lat="47.40124" lon="6.72079">
        <ele>489.8</ele>
        <time>2014-10-05T09:21:57.000Z</time>
      </trkpt>
      <trkpt lat="47.40125" lon="6.72075">
        <ele>490.2</ele>
        <time>2014-10-05T09:21:58.000Z</time>
      </trkpt>
      <trkpt lat="47.40125" lon="6.7207">
        <ele>490.6</ele>
        <time>2014-10-05T09:21:59.000Z</time>
      </trkpt>
      <trkpt lat="47.40125" lon="6.72066">
        <ele>491.2</ele>
        <time>2014-10-05T09:22:00.000Z</time>
      </trkpt>
      <trkpt lat="47.40125" lon="6.72062">
        <ele>491.7</ele>
        <time>2014-10-05T09:22:01.000Z</time>
      </trkpt>
      <trkpt lat="47.40126" lon="6.72057">
        <ele>492.5</ele>
        <time>2014-10-05T09:22:02.000Z</time>
      </trkpt>
      <trkpt lat="47.40126" lon="6.72053">
        <ele>493.6</ele>
        <time>2014-10-05T09:22:03.000Z</time>
      </trkpt>
      <trkpt lat="47.40127" lon="6.72049">
        <ele>494.1</ele>
        <time>2014-10-05T09:22:04.000Z</time>
      </trkpt>
      <trkpt lat="47.40127" lon="6.72045">
        <ele>493.6</ele>
        <time>2014-10-05T09:22:05.000Z</time>
      </trkpt>
      <trkpt lat="47.40128" lon="6.72041">
        <ele>492.7</ele>
        <time>2014-10-05T09:22:06.000Z</time>
      </trkpt>
      <trkpt lat="47.40129" lon="6.72036">
        <ele>492.7</ele>
        <time>2014-10-05T09:22:07.000Z</time>
      </trkpt>
      <trkpt lat="47.40131" lon="6.72032">
        <ele>493.6</ele>
        <time>2014-10-05T09:22:08.000Z</time>
      </trkpt>
      <trkpt lat="47.40132" lon="6.72027">
        <ele>494.1</ele>
        <time>2014-10-05T09:22:09.000Z</time>
      </trkpt>
      <trkpt lat="47.40134" lon="6.72023">
        <ele>495.9</ele>
        <time>2014-10-05T09:22:10.000Z</time>
      </trkpt>
      <trkpt lat="47.40135" lon="6.72019">
        <ele>497.1</ele>
        <time>2014-10-05T09:22:11.000Z</time>
      </trkpt>
      <trkpt lat="47.40137" lon="6.72014">
        <ele>498.6</ele>
        <time>2014-10-05T09:22:12.000Z</time>
      </trkpt>
      <trkpt lat="47.40138" lon="6.7201">
        <ele>499</ele>
        <time>2014-10-05T09:22:13.000Z</time>
      </trkpt>
      <trkpt lat="47.4014" lon="6.72007">
        <ele>498.7</ele>
        <time>2014-10-05T09:22:14.000Z</time>
      </trkpt>
      <trkpt lat="47.40141" lon="6.72003">
        <ele>499.6</ele>
        <time>2014-10-05T09:22:15.000Z</time>
      </trkpt>
      <trkpt lat="47.40142" lon="6.71999">
        <ele>499.4</ele>
        <time>2014-10-05T09:22:16.000Z</time>
      </trkpt>
      <trkpt lat="47.40139" lon="6.7197">
        <ele>502.9</ele>
        <time>2014-10-05T09:22:24.000Z</time>
      </trkpt>
      <trkpt lat="47.40138" lon="6.71967">
        <ele>503.7</ele>
        <time>2014-10-05T09:22:25.000Z</time>
      </trkpt>
      <trkpt lat="47.40137" lon="6.71963">
        <ele>504.9</ele>
        <time>2014-10-05T09:22:26.000Z</time>
      </trkpt>
      <trkpt lat="47.40136" lon="6.7196">
        <ele>507.1</ele>
        <time>2014-10-05T09:22:27.000Z</time>
      </trkpt>
      <trkpt lat="47.40135" lon="6.71956">
        <ele>507.6</ele>
        <time>2014-10-05T09:22:28.000Z</time>
      </trkpt>
      <trkpt lat="47.40135" lon="6.71951">
        <ele>507.7</ele>
        <time>2014-10-05T09:22:30.000Z</time>
      </trkpt>
      <trkpt lat="47.40135" lon="6.71947">
        <ele>508.3</ele>
        <time>2014-10-05T09:22:31.000Z</time>
      </trkpt>
      <trkpt lat="47.40134" lon="6.71942">
        <ele>509</ele>
        <time>2014-10-05T09:22:33.000Z</time>
      </trkpt>
      <trkpt lat="47.40134" lon="6.71939">
        <ele>508.8</ele>
        <time>2014-10-05T09:22:34.000Z</time>
      </trkpt>
      <trkpt lat="47.40133" lon="6.71934">
        <ele>509.1</ele>
        <time>2014-10-05T09:22:36.000Z</time>
      </trkpt>
      <trkpt lat="47.40133" lon="6.71932">
        <ele>510.6</ele>
        <time>2014-10-05T09:22:37.000Z</time>
      </trkpt>
      <trkpt lat="47.40129" lon="6.71928">
        <ele>509.2</ele>
        <time>2014-10-05T09:22:40.000Z</time>
      </trkpt>
      <trkpt lat="47.40128" lon="6.71927">
        <ele>508.6</ele>
        <time>2014-10-05T09:22:41.000Z</time>
      </trkpt>
      <trkpt lat="47.40126" lon="6.71921">
        <ele>510.7</ele>
        <time>2014-10-05T09:22:49.000Z</time>
      </trkpt>
      <trkpt lat="47.40127" lon="6.7192">
        <ele>511</ele>
        <time>2014-10-05T09:22:50.000Z</time>
      </trkpt>
      <trkpt lat="47.4013" lon="6.71917">
        <ele>511.3</ele>
        <time>2014-10-05T09:22:55.000Z</time>
      </trkpt>
      <trkpt lat="47.4013" lon="6.71917">
        <ele>511.4</ele>
        <time>2014-10-05T09:22:56.000Z</time>
      </trkpt>
      <trkpt lat="47.40127" lon="6.71913">
        <ele>509.8</ele>
        <time>2014-10-05T09:23:01.000Z</time>
      </trkpt>
      <trkpt lat="47.40125" lon="6.71914">
        <ele>509.7</ele>
        <time>2014-10-05T09:23:02.000Z</time>
      </trkpt>
      <trkpt lat="47.40122" lon="6.71916">
        <ele>509</ele>
        <time>2014-10-05T09:23:04.000Z</time>
      </trkpt>
      <trkpt lat="47.40121" lon="6.71918">
        <ele>508.2</ele>
        <time>2014-10-05T09:23:05.000Z</time>
      </trkpt>
      <trkpt lat="47.40118" lon="6.71922">
        <ele>507.5</ele>
        <time>2014-10-05T09:23:08.000Z</time>
      </trkpt>
      <trkpt lat="47.40117" lon="6.71923">
        <ele>506.5</ele>
        <time>2014-10-05T09:23:09.000Z</time>
      </trkpt>
      <trkpt lat="47.40114" lon="6.71926">
        <ele>505.8</ele>
        <time>2014-10-05T09:23:11.000Z</time>
      </trkpt>
      <trkpt lat="47.40113" lon="6.71928">
        <ele>505.3</ele>
        <time>2014-10-05T09:23:12.000Z</time>
      </trkpt>
      <trkpt lat="47.40109" lon="6.7193">
        <ele>504.3</ele>
        <time>2014-10-05T09:23:15.000Z</time>
      </trkpt>
      <trkpt lat="47.40108" lon="6.71931">
        <ele>504.4</ele>
        <time>2014-10-05T09:23:16.000Z</time>
      </trkpt>
      <trkpt lat="47.40105" lon="6.71933">
        <ele>457.4</ele>
        <time>2014-10-05T09:23:19.000Z</time>
      </trkpt>
      <trkpt lat="47.40104" lon="6.71934">
        <ele>458.5</ele>
        <time>2014-10-05T09:23:20.000Z</time>
      </trkpt>
      <trkpt lat="47.40101" lon="6.71936">
        <ele>460.7</ele>
        <time>2014-10-05T09:23:22.000Z</time>
      </trkpt>
      <trkpt lat="47.40099" lon="6.71937">
        <ele>461.3</ele>
        <time>2014-10-05T09:23:23.000Z</time>
      </trkpt>
      <trkpt lat="47.40097" lon="6.7194">
        <ele>463.5</ele>
        <time>2014-10-05T09:23:25.000Z</time>
      </trkpt>
      <trkpt lat="47.40095" lon="6.71942">
        <ele>464.3</ele>
        <time>2014-10-05T09:23:26.000Z</time>
      </trkpt>
      <trkpt lat="47.40092" lon="6.71945">
        <ele>465.3</ele>
        <time>2014-10-05T09:23:28.000Z</time>
      </trkpt>
      <trkpt lat="47.4009" lon="6.71947">
        <ele>467.2</ele>
        <time>2014-10-05T09:23:29.000Z</time>
      </trkpt>
      <trkpt lat="47.40087" lon="6.71949">
        <ele>469.8</ele>
        <time>2014-10-05T09:23:31.000Z</time>
      </trkpt>
      <trkpt lat="47.40085" lon="6.7195">
        <ele>470.3</ele>
        <time>2014-10-05T09:23:32.000Z</time>
      </trkpt>
      <trkpt lat="47.40082" lon="6.71953">
        <ele>473.3</ele>
        <time>2014-10-05T09:23:34.000Z</time>
      </trkpt>
      <trkpt lat="47.4008" lon="6.71954">
        <ele>474.2</ele>
        <time>2014-10-05T09:23:35.000Z</time>
      </trkpt>
      <trkpt lat="47.40076" lon="6.71957">
        <ele>475.6</ele>
        <time>2014-10-05T09:23:37.000Z</time>
      </trkpt>
      <trkpt lat="47.40075" lon="6.71959">
        <ele>476.1</ele>
        <time>2014-10-05T09:23:38.000Z</time>
      </trkpt>
      <trkpt lat="47.40072" lon="6.71962">
        <ele>477.2</ele>
        <time>2014-10-05T09:23:40.000Z</time>
      </trkpt>
      <trkpt lat="47.4007" lon="6.71963">
        <ele>477.7</ele>
        <time>2014-10-05T09:23:41.000Z</time>
      </trkpt>
      <trkpt lat="47.40067" lon="6.71966">
        <ele>480.5</ele>
        <time>2014-10-05T09:23:43.000Z</time>
      </trkpt>
      <trkpt lat="47.40065" lon="6.71967">
        <ele>481.8</ele>
        <time>2014-10-05T09:23:44.000Z</time>
      </trkpt>
      <trkpt lat="47.40062" lon="6.71969">
        <ele>483.5</ele>
        <time>2014-10-05T09:23:46.000Z</time>
      </trkpt>
      <trkpt lat="47.40061" lon="6.71969">
        <ele>484.4</ele>
        <time>2014-10-05T09:23:47.000Z</time>
      </trkpt>
      <trkpt lat="47.40057" lon="6.71969">
        <ele>486.6</ele>
        <time>2014-10-05T09:23:50.000Z</time>
      </trkpt>
      <trkpt lat="47.40056" lon="6.71969">
        <ele>487.1</ele>
        <time>2014-10-05T09:23:51.000Z</time>
      </trkpt>
      <trkpt lat="47.40052" lon="6.71971">
        <ele>488.2</ele>
        <time>2014-10-05T09:23:54.000Z</time>
      </trkpt>
      <trkpt lat="47.4005" lon="6.71972">
        <ele>485.2</ele>
        <time>2014-10-05T09:23:55.000Z</time>
      </trkpt>
      <trkpt lat="47.40046" lon="6.71971">
        <ele>487</ele>
        <time>2014-10-05T09:23:57.000Z</time>
      </trkpt>
      <trkpt lat="47.40045" lon="6.71971">
        <ele>487.7</ele>
        <time>2014-10-05T09:23:58.000Z</time>
      </trkpt>
      <trkpt lat="47.40041" lon="6.71968">
        <ele>488</ele>
        <time>2014-10-05T09:24:01.000Z</time>
      </trkpt>
      <trkpt lat="47.40039" lon="6.71967">
        <ele>487.9</ele>
        <time>2014-10-05T09:24:02.000Z</time>
      </trkpt>
      <trkpt lat="47.40036" lon="6.71963">
        <ele>488.6</ele>
        <time>2014-10-05T09:24:04.000Z</time>
      </trkpt>
      <trkpt lat="47.40035" lon="6.71961">
        <ele>489.7</ele>
        <time>2014-10-05T09:24:05.000Z</time>
      </trkpt>
      <trkpt lat="47.40032" lon="6.71957">
        <ele>490.7</ele>
        <time>2014-10-05T09:24:07.000Z</time>
      </trkpt>
      <trkpt lat="47.4003" lon="6.71956">
        <ele>490.6</ele>
        <time>2014-10-05T09:24:08.000Z</time>
      </trkpt>
      <trkpt lat="47.40026" lon="6.71954">
        <ele>490.9</ele>
        <time>2014-10-05T09:24:10.000Z</time>
      </trkpt>
      <trkpt lat="47.40025" lon="6.71953">
        <ele>491.2</ele>
        <time>2014-10-05T09:24:11.000Z</time>
      </trkpt>
      <trkpt lat="47.40021" lon="6.71951">
        <ele>493.1</ele>
        <time>2014-10-05T09:24:13.000Z</time>
      </trkpt>
      <trkpt lat="47.40019" lon="6.7195">
        <ele>493.8</ele>
        <time>2014-10-05T09:24:14.000Z</time>
      </trkpt>
      <trkpt lat="47.40014" lon="6.71948">
        <ele>494.9</ele>
        <time>2014-10-05T09:24:16.000Z</time>
      </trkpt>
      <trkpt lat="47.40012" lon="6.71947">
        <ele>494.9</ele>
        <time>2014-10-05T09:24:17.000Z</time>
      </trkpt>
      <trkpt lat="47.39996" lon="6.71937">
        <ele>495.6</ele>
        <time>2014-10-05T09:24:25.000Z</time>
      </trkpt>
      <trkpt lat="47.39994" lon="6.71936">
        <ele>497.1</ele>
        <time>2014-10-05T09:24:26.000Z</time>
      </trkpt>
      <trkpt lat="47.39991" lon="6.71935">
        <ele>497.5</ele>
        <time>2014-10-05T09:24:27.000Z</time>
      </trkpt>
      <trkpt lat="47.39988" lon="6.71934">
        <ele>498.7</ele>
        <time>2014-10-05T09:24:28.000Z</time>
      </trkpt>
      <trkpt lat="47.39986" lon="6.71933">
        <ele>499.3</ele>
        <time>2014-10-05T09:24:29.000Z</time>
      </trkpt>
      <trkpt lat="47.39983" lon="6.71932">
        <ele>499.5</ele>
        <time>2014-10-05T09:24:30.000Z</time>
      </trkpt>
      <trkpt lat="47.39981" lon="6.71931">
        <ele>500.1</ele>
        <time>2014-10-05T09:24:31.000Z</time>
      </trkpt>
      <trkpt lat="47.39978" lon="6.7193">
        <ele>501.1</ele>
        <time>2014-10-05T09:24:32.000Z</time>
      </trkpt>
      <trkpt lat="47.39975" lon="6.71929">
        <ele>501.3</ele>
        <time>2014-10-05T09:24:33.000Z</time>
      </trkpt>
      <trkpt lat="47.39973" lon="6.71928">
        <ele>501.8</ele>
        <time>2014-10-05T09:24:34.000Z</time>
      </trkpt>
      <trkpt lat="47.3997" lon="6.71928">
        <ele>503.2</ele>
        <time>2014-10-05T09:24:35.000Z</time>
      </trkpt>
      <trkpt lat="47.39968" lon="6.71928">
        <ele>503.8</ele>
        <time>2014-10-05T09:24:36.000Z</time>
      </trkpt>
      <trkpt lat="47.39966" lon="6.71927">
        <ele>504.4</ele>
        <time>2014-10-05T09:24:37.000Z</time>
      </trkpt>
      <trkpt lat="47.39963" lon="6.71927">
        <ele>504.9</ele>
        <time>2014-10-05T09:24:38.000Z</time>
      </trkpt>
      <trkpt lat="47.39961" lon="6.71926">
        <ele>504.8</ele>
        <time>2014-10-05T09:24:39.000Z</time>
      </trkpt>
      <trkpt lat="47.39959" lon="6.71926">
        <ele>504.9</ele>
        <time>2014-10-05T09:24:40.000Z</time>
      </trkpt>
      <trkpt lat="47.39956" lon="6.71925">
        <ele>505.2</ele>
        <time>2014-10-05T09:24:41.000Z</time>
      </trkpt>
      <trkpt lat="47.39952" lon="6.71923">
        <ele>506.2</ele>
        <time>2014-10-05T09:24:43.000Z</time>
      </trkpt>
      <trkpt lat="47.3995" lon="6.71921">
        <ele>506.7</ele>
        <time>2014-10-05T09:24:44.000Z</time>
      </trkpt>
      <trkpt lat="47.39946" lon="6.71919">
        <ele>508.5</ele>
        <time>2014-10-05T09:24:46.000Z</time>
      </trkpt>
      <trkpt lat="47.39944" lon="6.71919">
        <ele>508</ele>
        <time>2014-10-05T09:24:47.000Z</time>
      </trkpt>
      <trkpt lat="47.3994" lon="6.71918">
        <ele>508</ele>
        <time>2014-10-05T09:24:49.000Z</time>
      </trkpt>
      <trkpt lat="47.39938" lon="6.71918">
        <ele>508.3</ele>
        <time>2014-10-05T09:24:50.000Z</time>
      </trkpt>
      <trkpt lat="47.39934" lon="6.71916">
        <ele>509.1</ele>
        <time>2014-10-05T09:24:52.000Z</time>
      </trkpt>
      <trkpt lat="47.39933" lon="6.71915">
        <ele>509.3</ele>
        <time>2014-10-05T09:24:53.000Z</time>
      </trkpt>
      <trkpt lat="47.39928" lon="6.71914">
        <ele>509.6</ele>
        <time>2014-10-05T09:24:55.000Z</time>
      </trkpt>
      <trkpt lat="47.39926" lon="6.71914">
        <ele>510.9</ele>
        <time>2014-10-05T09:24:56.000Z</time>
      </trkpt>
      <trkpt lat="47.39924" lon="6.71914">
        <ele>511.3</ele>
        <time>2014-10-05T09:24:57.000Z</time>
      </trkpt>
      <trkpt lat="47.39922" lon="6.71914">
        <ele>511.9</ele>
        <time>2014-10-05T09:24:58.000Z</time>
      </trkpt>
      <trkpt lat="47.39919" lon="6.71914">
        <ele>512.3</ele>
        <time>2014-10-05T09:24:59.000Z</time>
      </trkpt>
      <trkpt lat="47.39917" lon="6.71915">
        <ele>512.6</ele>
        <time>2014-10-05T09:25:00.000Z</time>
      </trkpt>
      <trkpt lat="47.39913" lon="6.71914">
        <ele>513.4</ele>
        <time>2014-10-05T09:25:02.000Z</time>
      </trkpt>
      <trkpt lat="47.3991" lon="6.71912">
        <ele>513.3</ele>
        <time>2014-10-05T09:25:03.000Z</time>
      </trkpt>
      <trkpt lat="47.39908" lon="6.71911">
        <ele>513.6</ele>
        <time>2014-10-05T09:25:04.000Z</time>
      </trkpt>
      <trkpt lat="47.39906" lon="6.71909">
        <ele>513.9</ele>
        <time>2014-10-05T09:25:05.000Z</time>
      </trkpt>
      <trkpt lat="47.39904" lon="6.71908">
        <ele>513.4</ele>
        <time>2014-10-05T09:25:06.000Z</time>
      </trkpt>
      <trkpt lat="47.39901" lon="6.71907">
        <ele>513.7</ele>
        <time>2014-10-05T09:25:07.000Z</time>
      </trkpt>
      <trkpt lat="47.39899" lon="6.71905">
        <ele>513.9</ele>
        <time>2014-10-05T09:25:08.000Z</time>
      </trkpt>
      <trkpt lat="47.39897" lon="6.71904">
        <ele>514.3</ele>
        <time>2014-10-05T09:25:09.000Z</time>
      </trkpt>
      <trkpt lat="47.39895" lon="6.71903">
        <ele>514.3</ele>
        <time>2014-10-05T09:25:10.000Z</time>
      </trkpt>
      <trkpt lat="47.39892" lon="6.71902">
        <ele>514.3</ele>
        <time>2014-10-05T09:25:11.000Z</time>
      </trkpt>
      <trkpt lat="47.3989" lon="6.71902">
        <ele>514.3</ele>
        <time>2014-10-05T09:25:12.000Z</time>
      </trkpt>
      <trkpt lat="47.39888" lon="6.71902">
        <ele>514.2</ele>
        <time>2014-10-05T09:25:13.000Z</time>
      </trkpt>
      <trkpt lat="47.39883" lon="6.71902">
        <ele>514.9</ele>
        <time>2014-10-05T09:25:15.000Z</time>
      </trkpt>
      <trkpt lat="47.39881" lon="6.71901">
        <ele>514.8</ele>
        <time>2014-10-05T09:25:16.000Z</time>
      </trkpt>
      <trkpt lat="47.39875" lon="6.71897">
        <ele>515.3</ele>
        <time>2014-10-05T09:25:19.000Z</time>
      </trkpt>
      <trkpt lat="47.39873" lon="6.71896">
        <ele>515.5</ele>
        <time>2014-10-05T09:25:20.000Z</time>
      </trkpt>
      <trkpt lat="47.39871" lon="6.71895">
        <ele>515.7</ele>
        <time>2014-10-05T09:25:21.000Z</time>
      </trkpt>
      <trkpt lat="47.39867" lon="6.71894">
        <ele>517.1</ele>
        <time>2014-10-05T09:25:23.000Z</time>
      </trkpt>
      <trkpt lat="47.39864" lon="6.71893">
        <ele>517.4</ele>
        <time>2014-10-05T09:25:24.000Z</time>
      </trkpt>
      <trkpt lat="47.39861" lon="6.71892">
        <ele>518.1</ele>
        <time>2014-10-05T09:25:26.000Z</time>
      </trkpt>
      <trkpt lat="47.39859" lon="6.71891">
        <ele>518.3</ele>
        <time>2014-10-05T09:25:27.000Z</time>
      </trkpt>
      <trkpt lat="47.39855" lon="6.71889">
        <ele>517.5</ele>
        <time>2014-10-05T09:25:29.000Z</time>
      </trkpt>
      <trkpt lat="47.39852" lon="6.71889">
        <ele>517.7</ele>
        <time>2014-10-05T09:25:30.000Z</time>
      </trkpt>
      <trkpt lat="47.39848" lon="6.71887">
        <ele>518.4</ele>
        <time>2014-10-05T09:25:32.000Z</time>
      </trkpt>
      <trkpt lat="47.39846" lon="6.71885">
        <ele>518.8</ele>
        <time>2014-10-05T09:25:33.000Z</time>
      </trkpt>
      <trkpt lat="47.39842" lon="6.71882">
        <ele>519.5</ele>
        <time>2014-10-05T09:25:35.000Z</time>
      </trkpt>
      <trkpt lat="47.3984" lon="6.7188">
        <ele>519.4</ele>
        <time>2014-10-05T09:25:36.000Z</time>
      </trkpt>
      <trkpt lat="47.39837" lon="6.71876">
        <ele>519.5</ele>
        <time>2014-10-05T09:25:38.000Z</time>
      </trkpt>
      <trkpt lat="47.39835" lon="6.71874">
        <ele>519.9</ele>
        <time>2014-10-05T09:25:39.000Z</time>
      </trkpt>
      <trkpt lat="47.39832" lon="6.71871">
        <ele>520.6</ele>
        <time>2014-10-05T09:25:41.000Z</time>
      </trkpt>
      <trkpt lat="47.3983" lon="6.71869">
        <ele>520.4</ele>
        <time>2014-10-05T09:25:42.000Z</time>
      </trkpt>
      <trkpt lat="47.39828" lon="6.71865">
        <ele>521.2</ele>
        <time>2014-10-05T09:25:44.000Z</time>
      </trkpt>
      <trkpt lat="47.39827" lon="6.71863">
        <ele>522</ele>
        <time>2014-10-05T09:25:45.000Z</time>
      </trkpt>
      <trkpt lat="47.39824" lon="6.71859">
        <ele>523.4</ele>
        <time>2014-10-05T09:25:47.000Z</time>
      </trkpt>
      <trkpt lat="47.39822" lon="6.71857">
        <ele>523.6</ele>
        <time>2014-10-05T09:25:48.000Z</time>
      </trkpt>
      <trkpt lat="47.3982" lon="6.71853">
        <ele>523.7</ele>
        <time>2014-10-05T09:25:50.000Z</time>
      </trkpt>
      <trkpt lat="47.39818" lon="6.71851">
        <ele>524.1</ele>
        <time>2014-10-05T09:25:51.000Z</time>
      </trkpt>
      <trkpt lat="47.39815" lon="6.71848">
        <ele>525.2</ele>
        <time>2014-10-05T09:25:53.000Z</time>
      </trkpt>
      <trkpt lat="47.39813" lon="6.71847">
        <ele>525.7</ele>
        <time>2014-10-05T09:25:54.000Z</time>
      </trkpt>
      <trkpt lat="47.39809" lon="6.71845">
        <ele>525.9</ele>
        <time>2014-10-05T09:25:56.000Z</time>
      </trkpt>
      <trkpt lat="47.39806" lon="6.71844">
        <ele>525.5</ele>
        <time>2014-10-05T09:25:57.000Z</time>
      </trkpt>
      <trkpt lat="47.39804" lon="6.71843">
        <ele>525.1</ele>
        <time>2014-10-05T09:25:58.000Z</time>
      </trkpt>
      <trkpt lat="47.39801" lon="6.71842">
        <ele>525</ele>
        <time>2014-10-05T09:25:59.000Z</time>
      </trkpt>
      <trkpt lat="47.39799" lon="6.71841">
        <ele>524.9</ele>
        <time>2014-10-05T09:26:00.000Z</time>
      </trkpt>
      <trkpt lat="47.39797" lon="6.71841">
        <ele>525.1</ele>
        <time>2014-10-05T09:26:01.000Z</time>
      </trkpt>
      <trkpt lat="47.39794" lon="6.7184">
        <ele>525.9</ele>
        <time>2014-10-05T09:26:02.000Z</time>
      </trkpt>
      <trkpt lat="47.39792" lon="6.7184">
        <ele>526</ele>
        <time>2014-10-05T09:26:03.000Z</time>
      </trkpt>
      <trkpt lat="47.39788" lon="6.71838">
        <ele>525.2</ele>
        <time>2014-10-05T09:26:05.000Z</time>
      </trkpt>
      <trkpt lat="47.39786" lon="6.71838">
        <ele>525.9</ele>
        <time>2014-10-05T09:26:06.000Z</time>
      </trkpt>
      <trkpt lat="47.39782" lon="6.71835">
        <ele>526.8</ele>
        <time>2014-10-05T09:26:08.000Z</time>
      </trkpt>
      <trkpt lat="47.3978" lon="6.71834">
        <ele>526.6</ele>
        <time>2014-10-05T09:26:09.000Z</time>
      </trkpt>
      <trkpt lat="47.39776" lon="6.71831">
        <ele>526.1</ele>
        <time>2014-10-05T09:26:11.000Z</time>
      </trkpt>
      <trkpt lat="47.39774" lon="6.7183">
        <ele>526.6</ele>
        <time>2014-10-05T09:26:12.000Z</time>
      </trkpt>
      <trkpt lat="47.3977" lon="6.71827">
        <ele>527.5</ele>
        <time>2014-10-05T09:26:14.000Z</time>
      </trkpt>
      <trkpt lat="47.39768" lon="6.71826">
        <ele>527.9</ele>
        <time>2014-10-05T09:26:15.000Z</time>
      </trkpt>
      <trkpt lat="47.39766" lon="6.71825">
        <ele>528.3</ele>
        <time>2014-10-05T09:26:16.000Z</time>
      </trkpt>
      <trkpt lat="47.39748" lon="6.71817">
        <ele>530.8</ele>
        <time>2014-10-05T09:26:24.000Z</time>
      </trkpt>
      <trkpt lat="47.39745" lon="6.71815">
        <ele>530.4</ele>
        <time>2014-10-05T09:26:25.000Z</time>
      </trkpt>
      <trkpt lat="47.39743" lon="6.71813">
        <ele>530.6</ele>
        <time>2014-10-05T09:26:26.000Z</time>
      </trkpt>
      <trkpt lat="47.3974" lon="6.71811">
        <ele>530.9</ele>
        <time>2014-10-05T09:26:27.000Z</time>
      </trkpt>
      <trkpt lat="47.39737" lon="6.7181">
        <ele>531</ele>
        <time>2014-10-05T09:26:28.000Z</time>
      </trkpt>
      <trkpt lat="47.39735" lon="6.71808">
        <ele>531.1</ele>
        <time>2014-10-05T09:26:29.000Z</time>
      </trkpt>
      <trkpt lat="47.39732" lon="6.71807">
        <ele>531.7</ele>
        <time>2014-10-05T09:26:30.000Z</time>
      </trkpt>
      <trkpt lat="47.39729" lon="6.71805">
        <ele>531.4</ele>
        <time>2014-10-05T09:26:31.000Z</time>
      </trkpt>
      <trkpt lat="47.39726" lon="6.71804">
        <ele>531.5</ele>
        <time>2014-10-05T09:26:32.000Z</time>
      </trkpt>
      <trkpt lat="47.39723" lon="6.71803">
        <ele>531.2</ele>
        <time>2014-10-05T09:26:33.000Z</time>
      </trkpt>
      <trkpt lat="47.3972" lon="6.71803">
        <ele>531.2</ele>
        <time>2014-10-05T09:26:34.000Z</time>
      </trkpt>
      <trkpt lat="47.39718" lon="6.71802">
        <ele>531.6</ele>
        <time>2014-10-05T09:26:35.000Z</time>
      </trkpt>
      <trkpt lat="47.39715" lon="6.71801">
        <ele>532</ele>
        <time>2014-10-05T09:26:36.000Z</time>
      </trkpt>
      <trkpt lat="47.39712" lon="6.71801">
        <ele>532.1</ele>
        <time>2014-10-05T09:26:37.000Z</time>
      </trkpt>
      <trkpt lat="47.3971" lon="6.71801">
        <ele>532.1</ele>
        <time>2014-10-05T09:26:38.000Z</time>
      </trkpt>
      <trkpt lat="47.39707" lon="6.71802">
        <ele>532.2</ele>
        <time>2014-10-05T09:26:39.000Z</time>
      </trkpt>
      <trkpt lat="47.39704" lon="6.71803">
        <ele>532.1</ele>
        <time>2014-10-05T09:26:40.000Z</time>
      </trkpt>
      <trkpt lat="47.39701" lon="6.71804">
        <ele>531.6</ele>
        <time>2014-10-05T09:26:41.000Z</time>
      </trkpt>
      <trkpt lat="47.39698" lon="6.71807">
        <ele>531.4</ele>
        <time>2014-10-05T09:26:42.000Z</time>
      </trkpt>
      <trkpt lat="47.39695" lon="6.71809">
        <ele>531.3</ele>
        <time>2014-10-05T09:26:43.000Z</time>
      </trkpt>
      <trkpt lat="47.39692" lon="6.71812">
        <ele>531</ele>
        <time>2014-10-05T09:26:44.000Z</time>
      </trkpt>
      <trkpt lat="47.39689" lon="6.71815">
        <ele>531.1</ele>
        <time>2014-10-05T09:26:45.000Z</time>
      </trkpt>
      <trkpt lat="47.39686" lon="6.71817">
        <ele>532</ele>
        <time>2014-10-05T09:26:46.000Z</time>
      </trkpt>
      <trkpt lat="47.39683" lon="6.71818">
        <ele>532.2</ele>
        <time>2014-10-05T09:26:47.000Z</time>
      </trkpt>
      <trkpt lat="47.3968" lon="6.7182">
        <ele>531.9</ele>
        <time>2014-10-05T09:26:48.000Z</time>
      </trkpt>
      <trkpt lat="47.39677" lon="6.71822">
        <ele>530.2</ele>
        <time>2014-10-05T09:26:49.000Z</time>
      </trkpt>
      <trkpt lat="47.39674" lon="6.71824">
        <ele>530.2</ele>
        <time>2014-10-05T09:26:50.000Z</time>
      </trkpt>
      <trkpt lat="47.39671" lon="6.71826">
        <ele>530.2</ele>
        <time>2014-10-05T09:26:51.000Z</time>
      </trkpt>
      <trkpt lat="47.39669" lon="6.71828">
        <ele>530.4</ele>
        <time>2014-10-05T09:26:52.000Z</time>
      </trkpt>
      <trkpt lat="47.39666" lon="6.7183">
        <ele>530.4</ele>
        <time>2014-10-05T09:26:53.000Z</time>
      </trkpt>
      <trkpt lat="47.39664" lon="6.71832">
        <ele>531.4</ele>
        <time>2014-10-05T09:26:54.000Z</time>
      </trkpt>
      <trkpt lat="47.39661" lon="6.71833">
        <ele>531.7</ele>
        <time>2014-10-05T09:26:55.000Z</time>
      </trkpt>
      <trkpt lat="47.39659" lon="6.71835">
        <ele>531.8</ele>
        <time>2014-10-05T09:26:56.000Z</time>
      </trkpt>
      <trkpt lat="47.39657" lon="6.71837">
        <ele>531.5</ele>
        <time>2014-10-05T09:26:57.000Z</time>
      </trkpt>
      <trkpt lat="47.39655" lon="6.71838">
        <ele>531.7</ele>
        <time>2014-10-05T09:26:58.000Z</time>
      </trkpt>
      <trkpt lat="47.39652" lon="6.71839">
        <ele>531.9</ele>
        <time>2014-10-05T09:26:59.000Z</time>
      </trkpt>
      <trkpt lat="47.3965" lon="6.7184">
        <ele>535.3</ele>
        <time>2014-10-05T09:27:00.000Z</time>
      </trkpt>
      <trkpt lat="47.39646" lon="6.71841">
        <ele>536.7</ele>
        <time>2014-10-05T09:27:02.000Z</time>
      </trkpt>
      <trkpt lat="47.39644" lon="6.71842">
        <ele>537</ele>
        <time>2014-10-05T09:27:03.000Z</time>
      </trkpt>
      <trkpt lat="47.3964" lon="6.71843">
        <ele>537.8</ele>
        <time>2014-10-05T09:27:05.000Z</time>
      </trkpt>
      <trkpt lat="47.39638" lon="6.71844">
        <ele>538.1</ele>
        <time>2014-10-05T09:27:06.000Z</time>
      </trkpt>
      <trkpt lat="47.39634" lon="6.71845">
        <ele>540.2</ele>
        <time>2014-10-05T09:27:08.000Z</time>
      </trkpt>
      <trkpt lat="47.39633" lon="6.71846">
        <ele>540</ele>
        <time>2014-10-05T09:27:09.000Z</time>
      </trkpt>
      <trkpt lat="47.39629" lon="6.71846">
        <ele>540.3</ele>
        <time>2014-10-05T09:27:11.000Z</time>
      </trkpt>
      <trkpt lat="47.39628" lon="6.71846">
        <ele>540.3</ele>
        <time>2014-10-05T09:27:12.000Z</time>
      </trkpt>
      <trkpt lat="47.39625" lon="6.71843">
        <ele>541.9</ele>
        <time>2014-10-05T09:27:14.000Z</time>
      </trkpt>
      <trkpt lat="47.39625" lon="6.71841">
        <ele>542</ele>
        <time>2014-10-05T09:27:15.000Z</time>
      </trkpt>
      <trkpt lat="47.39625" lon="6.71838">
        <ele>544.7</ele>
        <time>2014-10-05T09:27:16.000Z</time>
      </trkpt>
      <trkpt lat="47.39625" lon="6.71831">
        <ele>542.4</ele>
        <time>2014-10-05T09:27:19.000Z</time>
      </trkpt>
      <trkpt lat="47.39626" lon="6.71827">
        <ele>541.8</ele>
        <time>2014-10-05T09:27:21.000Z</time>
      </trkpt>
      <trkpt lat="47.39627" lon="6.71824">
        <ele>542.6</ele>
        <time>2014-10-05T09:27:22.000Z</time>
      </trkpt>
      <trkpt lat="47.39628" lon="6.71818">
        <ele>543</ele>
        <time>2014-10-05T09:27:24.000Z</time>
      </trkpt>
      <trkpt lat="47.39628" lon="6.71816">
        <ele>543</ele>
        <time>2014-10-05T09:27:25.000Z</time>
      </trkpt>
      <trkpt lat="47.39629" lon="6.71809">
        <ele>546.1</ele>
        <time>2014-10-05T09:27:28.000Z</time>
      </trkpt>
      <trkpt lat="47.39629" lon="6.71808">
        <ele>547.2</ele>
        <time>2014-10-05T09:27:29.000Z</time>
      </trkpt>
      <trkpt lat="47.3963" lon="6.71801">
        <ele>549.2</ele>
        <time>2014-10-05T09:27:32.000Z</time>
      </trkpt>
      <trkpt lat="47.3963" lon="6.71798">
        <ele>550.5</ele>
        <time>2014-10-05T09:27:33.000Z</time>
      </trkpt>
      <trkpt lat="47.3963" lon="6.71794">
        <ele>550.3</ele>
        <time>2014-10-05T09:27:34.000Z</time>
      </trkpt>
      <trkpt lat="47.3963" lon="6.7179">
        <ele>550</ele>
        <time>2014-10-05T09:27:35.000Z</time>
      </trkpt>
      <trkpt lat="47.3963" lon="6.71786">
        <ele>550</ele>
        <time>2014-10-05T09:27:36.000Z</time>
      </trkpt>
      <trkpt lat="47.39631" lon="6.71782">
        <ele>549.2</ele>
        <time>2014-10-05T09:27:37.000Z</time>
      </trkpt>
      <trkpt lat="47.3963" lon="6.71776">
        <ele>547.5</ele>
        <time>2014-10-05T09:27:39.000Z</time>
      </trkpt>
      <trkpt lat="47.3963" lon="6.71774">
        <ele>547.3</ele>
        <time>2014-10-05T09:27:40.000Z</time>
      </trkpt>
      <trkpt lat="47.3963" lon="6.71768">
        <ele>547.6</ele>
        <time>2014-10-05T09:27:42.000Z</time>
      </trkpt>
      <trkpt lat="47.3963" lon="6.71765">
        <ele>548.5</ele>
        <time>2014-10-05T09:27:43.000Z</time>
      </trkpt>
      <trkpt lat="47.39631" lon="6.71761">
        <ele>548.7</ele>
        <time>2014-10-05T09:27:44.000Z</time>
      </trkpt>
      <trkpt lat="47.39631" lon="6.71757">
        <ele>549</ele>
        <time>2014-10-05T09:27:45.000Z</time>
      </trkpt>
      <trkpt lat="47.39632" lon="6.71753">
        <ele>549.7</ele>
        <time>2014-10-05T09:27:46.000Z</time>
      </trkpt>
      <trkpt lat="47.39632" lon="6.7175">
        <ele>549.5</ele>
        <time>2014-10-05T09:27:47.000Z</time>
      </trkpt>
      <trkpt lat="47.39632" lon="6.71744">
        <ele>549.4</ele>
        <time>2014-10-05T09:27:49.000Z</time>
      </trkpt>
      <trkpt lat="47.39632" lon="6.71741">
        <ele>549.8</ele>
        <time>2014-10-05T09:27:50.000Z</time>
      </trkpt>
      <trkpt lat="47.39633" lon="6.71735">
        <ele>547.4</ele>
        <time>2014-10-05T09:27:52.000Z</time>
      </trkpt>
      <trkpt lat="47.39633" lon="6.71732">
        <ele>547.6</ele>
        <time>2014-10-05T09:27:53.000Z</time>
      </trkpt>
      <trkpt lat="47.39634" lon="6.71725">
        <ele>545.7</ele>
        <time>2014-10-05T09:27:55.000Z</time>
      </trkpt>
      <trkpt lat="47.39635" lon="6.71722">
        <ele>545.7</ele>
        <time>2014-10-05T09:27:56.000Z</time>
      </trkpt>
      <trkpt lat="47.39636" lon="6.71715">
        <ele>546.3</ele>
        <time>2014-10-05T09:27:58.000Z</time>
      </trkpt>
      <trkpt lat="47.39636" lon="6.71713">
        <ele>545.7</ele>
        <time>2014-10-05T09:27:59.000Z</time>
      </trkpt>
      <trkpt lat="47.39636" lon="6.71707">
        <ele>546.3</ele>
        <time>2014-10-05T09:28:01.000Z</time>
      </trkpt>
      <trkpt lat="47.39635" lon="6.71704">
        <ele>547.6</ele>
        <time>2014-10-05T09:28:02.000Z</time>
      </trkpt>
      <trkpt lat="47.39634" lon="6.717">
        <ele>547.9</ele>
        <time>2014-10-05T09:28:03.000Z</time>
      </trkpt>
      <trkpt lat="47.39634" lon="6.71696">
        <ele>547.3</ele>
        <time>2014-10-05T09:28:04.000Z</time>
      </trkpt>
      <trkpt lat="47.39634" lon="6.71692">
        <ele>546.6</ele>
        <time>2014-10-05T09:28:05.000Z</time>
      </trkpt>
      <trkpt lat="47.39634" lon="6.71689">
        <ele>546.4</ele>
        <time>2014-10-05T09:28:06.000Z</time>
      </trkpt>
      <trkpt lat="47.39635" lon="6.71685">
        <ele>546.7</ele>
        <time>2014-10-05T09:28:07.000Z</time>
      </trkpt>
      <trkpt lat="47.39635" lon="6.71681">
        <ele>548.6</ele>
        <time>2014-10-05T09:28:08.000Z</time>
      </trkpt>
      <trkpt lat="47.39635" lon="6.71677">
        <ele>549.5</ele>
        <time>2014-10-05T09:28:09.000Z</time>
      </trkpt>
      <trkpt lat="47.39635" lon="6.71673">
        <ele>550</ele>
        <time>2014-10-05T09:28:10.000Z</time>
      </trkpt>
      <trkpt lat="47.39636" lon="6.71668">
        <ele>550.5</ele>
        <time>2014-10-05T09:28:11.000Z</time>
      </trkpt>
      <trkpt lat="47.39636" lon="6.71663">
        <ele>550.5</ele>
        <time>2014-10-05T09:28:12.000Z</time>
      </trkpt>
      <trkpt lat="47.39637" lon="6.71658">
        <ele>550.9</ele>
        <time>2014-10-05T09:28:13.000Z</time>
      </trkpt>
      <trkpt lat="47.39637" lon="6.71654">
        <ele>550.4</ele>
        <time>2014-10-05T09:28:14.000Z</time>
      </trkpt>
      <trkpt lat="47.39637" lon="6.71649">
        <ele>550</ele>
        <time>2014-10-05T09:28:15.000Z</time>
      </trkpt>
      <trkpt lat="47.39637" lon="6.71645">
        <ele>550.2</ele>
        <time>2014-10-05T09:28:16.000Z</time>
      </trkpt>
      <trkpt lat="47.3964" lon="6.71614">
        <ele>553.8</ele>
        <time>2014-10-05T09:28:24.000Z</time>
      </trkpt>
      <trkpt lat="47.39641" lon="6.71611">
        <ele>553</ele>
        <time>2014-10-05T09:28:25.000Z</time>
      </trkpt>
      <trkpt lat="47.39642" lon="6.71607">
        <ele>553.1</ele>
        <time>2014-10-05T09:28:26.000Z</time>
      </trkpt>
      <trkpt lat="47.39643" lon="6.71604">
        <ele>553.3</ele>
        <time>2014-10-05T09:28:27.000Z</time>
      </trkpt>
      <trkpt lat="47.39643" lon="6.716">
        <ele>552.3</ele>
        <time>2014-10-05T09:28:28.000Z</time>
      </trkpt>
      <trkpt lat="47.39643" lon="6.71596">
        <ele>551.6</ele>
        <time>2014-10-05T09:28:29.000Z</time>
      </trkpt>
      <trkpt lat="47.39643" lon="6.71591">
        <ele>551.5</ele>
        <time>2014-10-05T09:28:30.000Z</time>
      </trkpt>
      <trkpt lat="47.39643" lon="6.71587">
        <ele>551.6</ele>
        <time>2014-10-05T09:28:31.000Z</time>
      </trkpt>
      <trkpt lat="47.39643" lon="6.71582">
        <ele>551.3</ele>
        <time>2014-10-05T09:28:32.000Z</time>
      </trkpt>
      <trkpt lat="47.39643" lon="6.71578">
        <ele>551.5</ele>
        <time>2014-10-05T09:28:33.000Z</time>
      </trkpt>
      <trkpt lat="47.39644" lon="6.71573">
        <ele>551.4</ele>
        <time>2014-10-05T09:28:34.000Z</time>
      </trkpt>
      <trkpt lat="47.39644" lon="6.71568">
        <ele>551.2</ele>
        <time>2014-10-05T09:28:35.000Z</time>
      </trkpt>
      <trkpt lat="47.39644" lon="6.71564">
        <ele>551.3</ele>
        <time>2014-10-05T09:28:36.000Z</time>
      </trkpt>
      <trkpt lat="47.39644" lon="6.7156">
        <ele>550.6</ele>
        <time>2014-10-05T09:28:37.000Z</time>
      </trkpt>
      <trkpt lat="47.39644" lon="6.71555">
        <ele>550.5</ele>
        <time>2014-10-05T09:28:38.000Z</time>
      </trkpt>
      <trkpt lat="47.39644" lon="6.71551">
        <ele>550.6</ele>
        <time>2014-10-05T09:28:39.000Z</time>
      </trkpt>
      <trkpt lat="47.39644" lon="6.71546">
        <ele>551</ele>
        <time>2014-10-05T09:28:40.000Z</time>
      </trkpt>
      <trkpt lat="47.39643" lon="6.71542">
        <ele>550.7</ele>
        <time>2014-10-05T09:28:41.000Z</time>
      </trkpt>
      <trkpt lat="47.39642" lon="6.71536">
        <ele>551.1</ele>
        <time>2014-10-05T09:28:42.000Z</time>
      </trkpt>
      <trkpt lat="47.39641" lon="6.71531">
        <ele>550.3</ele>
        <time>2014-10-05T09:28:43.000Z</time>
      </trkpt>
      <trkpt lat="47.3964" lon="6.71525">
        <ele>550.8</ele>
        <time>2014-10-05T09:28:44.000Z</time>
      </trkpt>
      <trkpt lat="47.39639" lon="6.7152">
        <ele>550.7</ele>
        <time>2014-10-05T09:28:45.000Z</time>
      </trkpt>
      <trkpt lat="47.39639" lon="6.71515">
        <ele>551.6</ele>
        <time>2014-10-05T09:28:46.000Z</time>
      </trkpt>
      <trkpt lat="47.39639" lon="6.7151">
        <ele>552</ele>
        <time>2014-10-05T09:28:47.000Z</time>
      </trkpt>
      <trkpt lat="47.39639" lon="6.71506">
        <ele>552.3</ele>
        <time>2014-10-05T09:28:48.000Z</time>
      </trkpt>
      <trkpt lat="47.39639" lon="6.71501">
        <ele>550.9</ele>
        <time>2014-10-05T09:28:49.000Z</time>
      </trkpt>
      <trkpt lat="47.39639" lon="6.71497">
        <ele>550.8</ele>
        <time>2014-10-05T09:28:50.000Z</time>
      </trkpt>
      <trkpt lat="47.39638" lon="6.71492">
        <ele>550.1</ele>
        <time>2014-10-05T09:28:51.000Z</time>
      </trkpt>
      <trkpt lat="47.39638" lon="6.71488">
        <ele>550.2</ele>
        <time>2014-10-05T09:28:52.000Z</time>
      </trkpt>
      <trkpt lat="47.39639" lon="6.71484">
        <ele>550.8</ele>
        <time>2014-10-05T09:28:53.000Z</time>
      </trkpt>
      <trkpt lat="47.39639" lon="6.7148">
        <ele>550.7</ele>
        <time>2014-10-05T09:28:54.000Z</time>
      </trkpt>
      <trkpt lat="47.39642" lon="6.71475">
        <ele>551</ele>
        <time>2014-10-05T09:28:56.000Z</time>
      </trkpt>
      <trkpt lat="47.39643" lon="6.71473">
        <ele>551.1</ele>
        <time>2014-10-05T09:28:57.000Z</time>
      </trkpt>
      <trkpt lat="47.39646" lon="6.7147">
        <ele>550.5</ele>
        <time>2014-10-05T09:28:59.000Z</time>
      </trkpt>
      <trkpt lat="47.39647" lon="6.71469">
        <ele>550.2</ele>
        <time>2014-10-05T09:29:00.000Z</time>
      </trkpt>
      <trkpt lat="47.39645" lon="6.71475">
        <ele>550.4</ele>
        <time>2014-10-05T09:30:42.000Z</time>
      </trkpt>
      <trkpt lat="47.39645" lon="6.71475">
        <ele>550.4</ele>
        <time>2014-10-05T09:30:43.000Z</time>
      </trkpt>
      <trkpt lat="47.39648" lon="6.71473">
        <ele>547.6</ele>
        <time>2014-10-05T09:31:21.000Z</time>
      </trkpt>
      <trkpt lat="47.39649" lon="6.71472">
        <ele>547.8</ele>
        <time>2014-10-05T09:31:22.000Z</time>
      </trkpt>
      <trkpt lat="47.39651" lon="6.71471">
        <ele>546.9</ele>
        <time>2014-10-05T09:31:23.000Z</time>
      </trkpt>
      <trkpt lat="47.39654" lon="6.71469">
        <ele>547.3</ele>
        <time>2014-10-05T09:31:24.000Z</time>
      </trkpt>
      <trkpt lat="47.39658" lon="6.71467">
        <ele>547.1</ele>
        <time>2014-10-05T09:31:25.000Z</time>
      </trkpt>
      <trkpt lat="47.39662" lon="6.71464">
        <ele>548.6</ele>
        <time>2014-10-05T09:31:26.000Z</time>
      </trkpt>
      <trkpt lat="47.39666" lon="6.71462">
        <ele>548.4</ele>
        <time>2014-10-05T09:31:27.000Z</time>
      </trkpt>
      <trkpt lat="47.3967" lon="6.71459">
        <ele>547.9</ele>
        <time>2014-10-05T09:31:28.000Z</time>
      </trkpt>
      <trkpt lat="47.39674" lon="6.71457">
        <ele>545.9</ele>
        <time>2014-10-05T09:31:29.000Z</time>
      </trkpt>
      <trkpt lat="47.3968" lon="6.71452">
        <ele>545.4</ele>
        <time>2014-10-05T09:31:30.000Z</time>
      </trkpt>
      <trkpt lat="47.39685" lon="6.71449">
        <ele>545.5</ele>
        <time>2014-10-05T09:31:31.000Z</time>
      </trkpt>
      <trkpt lat="47.3969" lon="6.71446">
        <ele>545.8</ele>
        <time>2014-10-05T09:31:32.000Z</time>
      </trkpt>
      <trkpt lat="47.39695" lon="6.71443">
        <ele>545.9</ele>
        <time>2014-10-05T09:31:33.000Z</time>
      </trkpt>
      <trkpt lat="47.397" lon="6.7144">
        <ele>545.5</ele>
        <time>2014-10-05T09:31:34.000Z</time>
      </trkpt>
      <trkpt lat="47.39706" lon="6.71437">
        <ele>545.3</ele>
        <time>2014-10-05T09:31:35.000Z</time>
      </trkpt>
      <trkpt lat="47.39711" lon="6.71432">
        <ele>545.5</ele>
        <time>2014-10-05T09:31:36.000Z</time>
      </trkpt>
      <trkpt lat="47.39717" lon="6.71428">
        <ele>544.8</ele>
        <time>2014-10-05T09:31:37.000Z</time>
      </trkpt>
      <trkpt lat="47.39723" lon="6.71424">
        <ele>544.6</ele>
        <time>2014-10-05T09:31:38.000Z</time>
      </trkpt>
      <trkpt lat="47.39728" lon="6.7142">
        <ele>543.4</ele>
        <time>2014-10-05T09:31:39.000Z</time>
      </trkpt>
      <trkpt lat="47.39735" lon="6.71416">
        <ele>543.1</ele>
        <time>2014-10-05T09:31:40.000Z</time>
      </trkpt>
      <trkpt lat="47.39741" lon="6.71412">
        <ele>542.2</ele>
        <time>2014-10-05T09:31:41.000Z</time>
      </trkpt>
      <trkpt lat="47.39747" lon="6.71409">
        <ele>542.3</ele>
        <time>2014-10-05T09:31:42.000Z</time>
      </trkpt>
      <trkpt lat="47.39753" lon="6.71404">
        <ele>541.7</ele>
        <time>2014-10-05T09:31:43.000Z</time>
      </trkpt>
      <trkpt lat="47.39759" lon="6.714">
        <ele>541.2</ele>
        <time>2014-10-05T09:31:44.000Z</time>
      </trkpt>
      <trkpt lat="47.39765" lon="6.71395">
        <ele>540.7</ele>
        <time>2014-10-05T09:31:45.000Z</time>
      </trkpt>
      <trkpt lat="47.39772" lon="6.7139">
        <ele>540.1</ele>
        <time>2014-10-05T09:31:46.000Z</time>
      </trkpt>
      <trkpt lat="47.39779" lon="6.71385">
        <ele>539.2</ele>
        <time>2014-10-05T09:31:47.000Z</time>
      </trkpt>
      <trkpt lat="47.39786" lon="6.71379">
        <ele>538.8</ele>
        <time>2014-10-05T09:31:48.000Z</time>
      </trkpt>
      <trkpt lat="47.39792" lon="6.71373">
        <ele>538.1</ele>
        <time>2014-10-05T09:31:49.000Z</time>
      </trkpt>
      <trkpt lat="47.39799" lon="6.71366">
        <ele>537</ele>
        <time>2014-10-05T09:31:50.000Z</time>
      </trkpt>
      <trkpt lat="47.39806" lon="6.71358">
        <ele>535.8</ele>
        <time>2014-10-05T09:31:51.000Z</time>
      </trkpt>
      <trkpt lat="47.39813" lon="6.71351">
        <ele>535.5</ele>
        <time>2014-10-05T09:31:52.000Z</time>
      </trkpt>
      <trkpt lat="47.39821" lon="6.71343">
        <ele>533.1</ele>
        <time>2014-10-05T09:31:53.000Z</time>
      </trkpt>
      <trkpt lat="47.39829" lon="6.71337">
        <ele>531.9</ele>
        <time>2014-10-05T09:31:54.000Z</time>
      </trkpt>
      <trkpt lat="47.39837" lon="6.71331">
        <ele>530.2</ele>
        <time>2014-10-05T09:31:55.000Z</time>
      </trkpt>
      <trkpt lat="47.39846" lon="6.71326">
        <ele>529.1</ele>
        <time>2014-10-05T09:31:56.000Z</time>
      </trkpt>
      <trkpt lat="47.39855" lon="6.71322">
        <ele>528.3</ele>
        <time>2014-10-05T09:31:57.000Z</time>
      </trkpt>
      <trkpt lat="47.39864" lon="6.71319">
        <ele>527.8</ele>
        <time>2014-10-05T09:31:58.000Z</time>
      </trkpt>
      <trkpt lat="47.39872" lon="6.71319">
        <ele>527.6</ele>
        <time>2014-10-05T09:31:59.000Z</time>
      </trkpt>
      <trkpt lat="47.39881" lon="6.71321">
        <ele>527.4</ele>
        <time>2014-10-05T09:32:00.000Z</time>
      </trkpt>
      <trkpt lat="47.39889" lon="6.71323">
        <ele>527</ele>
        <time>2014-10-05T09:32:01.000Z</time>
      </trkpt>
      <trkpt lat="47.39897" lon="6.71325">
        <ele>526.5</ele>
        <time>2014-10-05T09:32:02.000Z</time>
      </trkpt>
      <trkpt lat="47.39905" lon="6.71326">
        <ele>526.6</ele>
        <time>2014-10-05T09:32:03.000Z</time>
      </trkpt>
      <trkpt lat="47.39913" lon="6.71324">
        <ele>526.4</ele>
        <time>2014-10-05T09:32:04.000Z</time>
      </trkpt>
      <trkpt lat="47.39921" lon="6.71321">
        <ele>526.5</ele>
        <time>2014-10-05T09:32:05.000Z</time>
      </trkpt>
      <trkpt lat="47.39928" lon="6.71316">
        <ele>526.5</ele>
        <time>2014-10-05T09:32:06.000Z</time>
      </trkpt>
      <trkpt lat="47.39934" lon="6.7131">
        <ele>526.4</ele>
        <time>2014-10-05T09:32:07.000Z</time>
      </trkpt>
      <trkpt lat="47.39941" lon="6.71304">
        <ele>526.9</ele>
        <time>2014-10-05T09:32:08.000Z</time>
      </trkpt>
      <trkpt lat="47.39947" lon="6.71295">
        <ele>526.3</ele>
        <time>2014-10-05T09:32:09.000Z</time>
      </trkpt>
      <trkpt lat="47.39953" lon="6.71288">
        <ele>526.8</ele>
        <time>2014-10-05T09:32:10.000Z</time>
      </trkpt>
      <trkpt lat="47.3996" lon="6.71281">
        <ele>526.9</ele>
        <time>2014-10-05T09:32:11.000Z</time>
      </trkpt>
      <trkpt lat="47.39965" lon="6.71273">
        <ele>526.7</ele>
        <time>2014-10-05T09:32:12.000Z</time>
      </trkpt>
      <trkpt lat="47.3997" lon="6.71265">
        <ele>526.5</ele>
        <time>2014-10-05T09:32:13.000Z</time>
      </trkpt>
      <trkpt lat="47.39974" lon="6.71258">
        <ele>528.4</ele>
        <time>2014-10-05T09:32:14.000Z</time>
      </trkpt>
      <trkpt lat="47.39978" lon="6.7125">
        <ele>527.5</ele>
        <time>2014-10-05T09:32:15.000Z</time>
      </trkpt>
      <trkpt lat="47.39983" lon="6.71241">
        <ele>527.2</ele>
        <time>2014-10-05T09:32:16.000Z</time>
      </trkpt>
      <trkpt lat="47.39993" lon="6.71222">
        <ele>527.5</ele>
        <time>2014-10-05T09:32:19.000Z</time>
      </trkpt>
      <trkpt lat="47.39997" lon="6.71217">
        <ele>527.6</ele>
        <time>2014-10-05T09:32:20.000Z</time>
      </trkpt>
      <trkpt lat="47.39999" lon="6.71213">
        <ele>528</ele>
        <time>2014-10-05T09:32:21.000Z</time>
      </trkpt>
      <trkpt lat="47.39999" lon="6.71205">
        <ele>528.1</ele>
        <time>2014-10-05T09:32:22.000Z</time>
      </trkpt>
      <trkpt lat="47.4" lon="6.712">
        <ele>528.5</ele>
        <time>2014-10-05T09:32:23.000Z</time>
      </trkpt>
      <trkpt lat="47.39999" lon="6.71194">
        <ele>529.4</ele>
        <time>2014-10-05T09:32:24.000Z</time>
      </trkpt>
      <trkpt lat="47.39999" lon="6.71189">
        <ele>529.2</ele>
        <time>2014-10-05T09:32:25.000Z</time>
      </trkpt>
      <trkpt lat="47.39999" lon="6.71184">
        <ele>530</ele>
        <time>2014-10-05T09:32:26.000Z</time>
      </trkpt>
      <trkpt lat="47.39998" lon="6.71178">
        <ele>530</ele>
        <time>2014-10-05T09:32:27.000Z</time>
      </trkpt>
      <trkpt lat="47.39998" lon="6.71171">
        <ele>529.9</ele>
        <time>2014-10-05T09:32:28.000Z</time>
      </trkpt>
      <trkpt lat="47.39997" lon="6.71167">
        <ele>530</ele>
        <time>2014-10-05T09:32:29.000Z</time>
      </trkpt>
      <trkpt lat="47.39996" lon="6.71162">
        <ele>530.2</ele>
        <time>2014-10-05T09:32:30.000Z</time>
      </trkpt>
      <trkpt lat="47.39995" lon="6.71156">
        <ele>530.5</ele>
        <time>2014-10-05T09:32:31.000Z</time>
      </trkpt>
      <trkpt lat="47.39995" lon="6.71151">
        <ele>532.1</ele>
        <time>2014-10-05T09:32:32.000Z</time>
      </trkpt>
      <trkpt lat="47.39994" lon="6.71146">
        <ele>532.3</ele>
        <time>2014-10-05T09:32:33.000Z</time>
      </trkpt>
      <trkpt lat="47.39994" lon="6.71141">
        <ele>532.5</ele>
        <time>2014-10-05T09:32:34.000Z</time>
      </trkpt>
      <trkpt lat="47.39994" lon="6.71136">
        <ele>533.4</ele>
        <time>2014-10-05T09:32:35.000Z</time>
      </trkpt>
      <trkpt lat="47.39993" lon="6.71131">
        <ele>534</ele>
        <time>2014-10-05T09:32:36.000Z</time>
      </trkpt>
      <trkpt lat="47.39993" lon="6.71126">
        <ele>535.1</ele>
        <time>2014-10-05T09:32:37.000Z</time>
      </trkpt>
      <trkpt lat="47.39992" lon="6.71121">
        <ele>535.1</ele>
        <time>2014-10-05T09:32:38.000Z</time>
      </trkpt>
      <trkpt lat="47.39992" lon="6.71116">
        <ele>535.4</ele>
        <time>2014-10-05T09:32:39.000Z</time>
      </trkpt>
      <trkpt lat="47.39992" lon="6.71111">
        <ele>535.5</ele>
        <time>2014-10-05T09:32:40.000Z</time>
      </trkpt>
      <trkpt lat="47.39992" lon="6.71106">
        <ele>535.9</ele>
        <time>2014-10-05T09:32:41.000Z</time>
      </trkpt>
      <trkpt lat="47.39992" lon="6.711">
        <ele>536</ele>
        <time>2014-10-05T09:32:42.000Z</time>
      </trkpt>
      <trkpt lat="47.39991" lon="6.71094">
        <ele>536</ele>
        <time>2014-10-05T09:32:43.000Z</time>
      </trkpt>
      <trkpt lat="47.39991" lon="6.71088">
        <ele>536.2</ele>
        <time>2014-10-05T09:32:44.000Z</time>
      </trkpt>
      <trkpt lat="47.39991" lon="6.71082">
        <ele>536.3</ele>
        <time>2014-10-05T09:32:45.000Z</time>
      </trkpt>
      <trkpt lat="47.39991" lon="6.71076">
        <ele>536.4</ele>
        <time>2014-10-05T09:32:46.000Z</time>
      </trkpt>
      <trkpt lat="47.3999" lon="6.71071">
        <ele>536.2</ele>
        <time>2014-10-05T09:32:47.000Z</time>
      </trkpt>
      <trkpt lat="47.39989" lon="6.71065">
        <ele>536.4</ele>
        <time>2014-10-05T09:32:48.000Z</time>
      </trkpt>
      <trkpt lat="47.39988" lon="6.71059">
        <ele>536.2</ele>
        <time>2014-10-05T09:32:49.000Z</time>
      </trkpt>
      <trkpt lat="47.39987" lon="6.71054">
        <ele>536.3</ele>
        <time>2014-10-05T09:32:50.000Z</time>
      </trkpt>
      <trkpt lat="47.39986" lon="6.71047">
        <ele>536.2</ele>
        <time>2014-10-05T09:32:51.000Z</time>
      </trkpt>
      <trkpt lat="47.39986" lon="6.71039">
        <ele>536.7</ele>
        <time>2014-10-05T09:32:52.000Z</time>
      </trkpt>
      <trkpt lat="47.39985" lon="6.71031">
        <ele>536.7</ele>
        <time>2014-10-05T09:32:53.000Z</time>
      </trkpt>
      <trkpt lat="47.39984" lon="6.71023">
        <ele>536.7</ele>
        <time>2014-10-05T09:32:54.000Z</time>
      </trkpt>
      <trkpt lat="47.39983" lon="6.71015">
        <ele>536.8</ele>
        <time>2014-10-05T09:32:55.000Z</time>
      </trkpt>
      <trkpt lat="47.39982" lon="6.71007">
        <ele>537</ele>
        <time>2014-10-05T09:32:56.000Z</time>
      </trkpt>
      <trkpt lat="47.39981" lon="6.70999">
        <ele>537.4</ele>
        <time>2014-10-05T09:32:57.000Z</time>
      </trkpt>
      <trkpt lat="47.3998" lon="6.70991">
        <ele>537.1</ele>
        <time>2014-10-05T09:32:58.000Z</time>
      </trkpt>
      <trkpt lat="47.39978" lon="6.70975">
        <ele>535.8</ele>
        <time>2014-10-05T09:32:59.000Z</time>
      </trkpt>
      <trkpt lat="47.39977" lon="6.70968">
        <ele>535.2</ele>
        <time>2014-10-05T09:33:00.000Z</time>
      </trkpt>
      <trkpt lat="47.39976" lon="6.70964">
        <ele>535</ele>
        <time>2014-10-05T09:33:01.000Z</time>
      </trkpt>
      <trkpt lat="47.39975" lon="6.70958">
        <ele>534.9</ele>
        <time>2014-10-05T09:33:02.000Z</time>
      </trkpt>
      <trkpt lat="47.39976" lon="6.70953">
        <ele>534.6</ele>
        <time>2014-10-05T09:33:03.000Z</time>
      </trkpt>
      <trkpt lat="47.39977" lon="6.70948">
        <ele>535.3</ele>
        <time>2014-10-05T09:33:04.000Z</time>
      </trkpt>
      <trkpt lat="47.39979" lon="6.70942">
        <ele>535.2</ele>
        <time>2014-10-05T09:33:05.000Z</time>
      </trkpt>
      <trkpt lat="47.39981" lon="6.70937">
        <ele>534.4</ele>
        <time>2014-10-05T09:33:06.000Z</time>
      </trkpt>
      <trkpt lat="47.39982" lon="6.70932">
        <ele>534.1</ele>
        <time>2014-10-05T09:33:07.000Z</time>
      </trkpt>
      <trkpt lat="47.39984" lon="6.70927">
        <ele>533.4</ele>
        <time>2014-10-05T09:33:08.000Z</time>
      </trkpt>
      <trkpt lat="47.39986" lon="6.70923">
        <ele>533.5</ele>
        <time>2014-10-05T09:33:09.000Z</time>
      </trkpt>
      <trkpt lat="47.39987" lon="6.70919">
        <ele>533.8</ele>
        <time>2014-10-05T09:33:10.000Z</time>
      </trkpt>
      <trkpt lat="47.39989" lon="6.70916">
        <ele>534.2</ele>
        <time>2014-10-05T09:33:11.000Z</time>
      </trkpt>
      <trkpt lat="47.3999" lon="6.70912">
        <ele>534.4</ele>
        <time>2014-10-05T09:33:12.000Z</time>
      </trkpt>
      <trkpt lat="47.39991" lon="6.70907">
        <ele>535.5</ele>
        <time>2014-10-05T09:33:13.000Z</time>
      </trkpt>
      <trkpt lat="47.39992" lon="6.70902">
        <ele>536.1</ele>
        <time>2014-10-05T09:33:14.000Z</time>
      </trkpt>
      <trkpt lat="47.39993" lon="6.70896">
        <ele>535.2</ele>
        <time>2014-10-05T09:33:15.000Z</time>
      </trkpt>
      <trkpt lat="47.39994" lon="6.70891">
        <ele>534.5</ele>
        <time>2014-10-05T09:33:16.000Z</time>
      </trkpt>
      <trkpt lat="47.39997" lon="6.70879">
        <ele>535.8</ele>
        <time>2014-10-05T09:33:19.000Z</time>
      </trkpt>
      <trkpt lat="47.39999" lon="6.70874">
        <ele>537.1</ele>
        <time>2014-10-05T09:33:20.000Z</time>
      </trkpt>
      <trkpt lat="47.4" lon="6.70869">
        <ele>537.5</ele>
        <time>2014-10-05T09:33:21.000Z</time>
      </trkpt>
      <trkpt lat="47.40002" lon="6.70863">
        <ele>537.2</ele>
        <time>2014-10-05T09:33:22.000Z</time>
      </trkpt>
      <trkpt lat="47.40003" lon="6.70858">
        <ele>537.5</ele>
        <time>2014-10-05T09:33:23.000Z</time>
      </trkpt>
      <trkpt lat="47.40004" lon="6.70852">
        <ele>538.6</ele>
        <time>2014-10-05T09:33:24.000Z</time>
      </trkpt>
      <trkpt lat="47.40005" lon="6.70847">
        <ele>539.3</ele>
        <time>2014-10-05T09:33:25.000Z</time>
      </trkpt>
      <trkpt lat="47.40006" lon="6.70841">
        <ele>540.4</ele>
        <time>2014-10-05T09:33:26.000Z</time>
      </trkpt>
      <trkpt lat="47.40007" lon="6.70835">
        <ele>540.5</ele>
        <time>2014-10-05T09:33:27.000Z</time>
      </trkpt>
      <trkpt lat="47.40007" lon="6.70829">
        <ele>540.6</ele>
        <time>2014-10-05T09:33:28.000Z</time>
      </trkpt>
      <trkpt lat="47.40009" lon="6.70823">
        <ele>540.7</ele>
        <time>2014-10-05T09:33:29.000Z</time>
      </trkpt>
      <trkpt lat="47.4001" lon="6.70818">
        <ele>540.6</ele>
        <time>2014-10-05T09:33:30.000Z</time>
      </trkpt>
      <trkpt lat="47.40011" lon="6.70811">
        <ele>539.9</ele>
        <time>2014-10-05T09:33:31.000Z</time>
      </trkpt>
      <trkpt lat="47.40013" lon="6.70804">
        <ele>539.2</ele>
        <time>2014-10-05T09:33:32.000Z</time>
      </trkpt>
      <trkpt lat="47.40015" lon="6.70797">
        <ele>539.3</ele>
        <time>2014-10-05T09:33:33.000Z</time>
      </trkpt>
      <trkpt lat="47.40017" lon="6.7079">
        <ele>538.9</ele>
        <time>2014-10-05T09:33:34.000Z</time>
      </trkpt>
      <trkpt lat="47.40019" lon="6.70783">
        <ele>538.2</ele>
        <time>2014-10-05T09:33:35.000Z</time>
      </trkpt>
      <trkpt lat="47.40021" lon="6.70775">
        <ele>537.7</ele>
        <time>2014-10-05T09:33:36.000Z</time>
      </trkpt>
      <trkpt lat="47.40023" lon="6.70767">
        <ele>537.3</ele>
        <time>2014-10-05T09:33:37.000Z</time>
      </trkpt>
      <trkpt lat="47.40029" lon="6.70744">
        <ele>537.2</ele>
        <time>2014-10-05T09:33:38.000Z</time>
      </trkpt>
      <trkpt lat="47.40032" lon="6.70736">
        <ele>536.6</ele>
        <time>2014-10-05T09:33:39.000Z</time>
      </trkpt>
      <trkpt lat="47.40034" lon="6.70725">
        <ele>534.9</ele>
        <time>2014-10-05T09:33:40.000Z</time>
      </trkpt>
      <trkpt lat="47.40036" lon="6.70714">
        <ele>534.1</ele>
        <time>2014-10-05T09:33:41.000Z</time>
      </trkpt>
      <trkpt lat="47.40037" lon="6.70703">
        <ele>533.9</ele>
        <time>2014-10-05T09:33:42.000Z</time>
      </trkpt>
      <trkpt lat="47.40038" lon="6.7069">
        <ele>533.2</ele>
        <time>2014-10-05T09:33:43.000Z</time>
      </trkpt>
      <trkpt lat="47.40037" lon="6.70683">
        <ele>533.5</ele>
        <time>2014-10-05T09:33:44.000Z</time>
      </trkpt>
      <trkpt lat="47.40036" lon="6.70673">
        <ele>533.6</ele>
        <time>2014-10-05T09:33:45.000Z</time>
      </trkpt>
      <trkpt lat="47.40036" lon="6.70664">
        <ele>533.7</ele>
        <time>2014-10-05T09:33:46.000Z</time>
      </trkpt>
      <trkpt lat="47.40035" lon="6.70654">
        <ele>534.1</ele>
        <time>2014-10-05T09:33:47.000Z</time>
      </trkpt>
      <trkpt lat="47.40034" lon="6.70645">
        <ele>534.2</ele>
        <time>2014-10-05T09:33:48.000Z</time>
      </trkpt>
      <trkpt lat="47.40033" lon="6.70636">
        <ele>534.1</ele>
        <time>2014-10-05T09:33:49.000Z</time>
      </trkpt>
      <trkpt lat="47.40033" lon="6.70625">
        <ele>534</ele>
        <time>2014-10-05T09:33:50.000Z</time>
      </trkpt>
      <trkpt lat="47.40033" lon="6.70615">
        <ele>534</ele>
        <time>2014-10-05T09:33:51.000Z</time>
      </trkpt>
      <trkpt lat="47.40033" lon="6.70608">
        <ele>534.2</ele>
        <time>2014-10-05T09:33:52.000Z</time>
      </trkpt>
      <trkpt lat="47.40033" lon="6.70598">
        <ele>533.3</ele>
        <time>2014-10-05T09:33:53.000Z</time>
      </trkpt>
      <trkpt lat="47.40033" lon="6.7059">
        <ele>533.5</ele>
        <time>2014-10-05T09:33:54.000Z</time>
      </trkpt>
      <trkpt lat="47.40032" lon="6.70581">
        <ele>533.5</ele>
        <time>2014-10-05T09:33:55.000Z</time>
      </trkpt>
      <trkpt lat="47.40031" lon="6.7057">
        <ele>533.1</ele>
        <time>2014-10-05T09:33:56.000Z</time>
      </trkpt>
      <trkpt lat="47.40028" lon="6.70559">
        <ele>533</ele>
        <time>2014-10-05T09:33:57.000Z</time>
      </trkpt>
      <trkpt lat="47.40026" lon="6.70547">
        <ele>532.7</ele>
        <time>2014-10-05T09:33:58.000Z</time>
      </trkpt>
      <trkpt lat="47.40026" lon="6.70538">
        <ele>532.1</ele>
        <time>2014-10-05T09:33:59.000Z</time>
      </trkpt>
    </trkseg>
  </trk>
</gpx>